<?xml version="1.0" encoding="UTF-8" standalone="no" ?>
<gpx xmlns="http://www.topografix.com/GPX/1/1" xmlns:xsi="http://www.w3.org/2001/XMLSchema-instance" xsi:schemaLocation="http://www.topografix.com/GPX/1/1 http://www.topografix.com/GPX/1/1/gpx.xsd" version="1.1" creator="VisuGPX - https://www.visugpx.com">
  <metadata>
    <name>Tour au col du Rousset</name>
  </metadata>
  <trk>
    <name><![CDATA[Tour au col du Rousset_1]]></name>
    <trkseg>
      <trkpt lat="44.90385" lon="5.42817">
        <ele>855</ele>
        <time>2020-05-22T08:49:59.851Z</time>
      </trkpt>
      <trkpt lat="44.90385" lon="5.42817">
        <ele>855</ele>
        <time>2020-05-22T08:50:00.852Z</time>
      </trkpt>
      <trkpt lat="44.90385" lon="5.42817">
        <ele>855</ele>
        <time>2020-05-22T08:50:01.852Z</time>
      </trkpt>
      <trkpt lat="44.90385" lon="5.42817">
        <ele>855</ele>
        <time>2020-05-22T08:50:02.852Z</time>
      </trkpt>
      <trkpt lat="44.90386" lon="5.42818">
        <ele>855</ele>
        <time>2020-05-22T08:50:03.851Z</time>
      </trkpt>
      <trkpt lat="44.90386" lon="5.42819">
        <ele>855</ele>
        <time>2020-05-22T08:50:04.852Z</time>
      </trkpt>
      <trkpt lat="44.90386" lon="5.42819">
        <ele>855</ele>
        <time>2020-05-22T08:50:05.852Z</time>
      </trkpt>
      <trkpt lat="44.90386" lon="5.4282">
        <ele>855</ele>
        <time>2020-05-22T08:50:06.852Z</time>
      </trkpt>
      <trkpt lat="44.90386" lon="5.42819">
        <ele>855</ele>
        <time>2020-05-22T08:50:07.851Z</time>
      </trkpt>
      <trkpt lat="44.90386" lon="5.42817">
        <ele>855</ele>
        <time>2020-05-22T08:50:08.852Z</time>
      </trkpt>
      <trkpt lat="44.90387" lon="5.42813">
        <ele>855</ele>
        <time>2020-05-22T08:50:09.851Z</time>
      </trkpt>
      <trkpt lat="44.90388" lon="5.4281">
        <ele>855</ele>
        <time>2020-05-22T08:50:10.852Z</time>
      </trkpt>
      <trkpt lat="44.90389" lon="5.42807">
        <ele>855</ele>
        <time>2020-05-22T08:50:11.852Z</time>
      </trkpt>
      <trkpt lat="44.9039" lon="5.42803">
        <ele>855</ele>
        <time>2020-05-22T08:50:12.851Z</time>
      </trkpt>
      <trkpt lat="44.90391" lon="5.42801">
        <ele>855</ele>
        <time>2020-05-22T08:50:13.851Z</time>
      </trkpt>
      <trkpt lat="44.90391" lon="5.42798">
        <ele>855</ele>
        <time>2020-05-22T08:50:14.851Z</time>
      </trkpt>
      <trkpt lat="44.9039" lon="5.42796">
        <ele>855</ele>
        <time>2020-05-22T08:50:15.852Z</time>
      </trkpt>
      <trkpt lat="44.90389" lon="5.42794">
        <ele>854</ele>
        <time>2020-05-22T08:50:16.852Z</time>
      </trkpt>
      <trkpt lat="44.90387" lon="5.42794">
        <ele>854</ele>
        <time>2020-05-22T08:50:17.851Z</time>
      </trkpt>
      <trkpt lat="44.90385" lon="5.42793">
        <ele>854</ele>
        <time>2020-05-22T08:50:18.852Z</time>
      </trkpt>
      <trkpt lat="44.90382" lon="5.42792">
        <ele>854</ele>
        <time>2020-05-22T08:50:19.852Z</time>
      </trkpt>
      <trkpt lat="44.90378" lon="5.4279">
        <ele>854</ele>
        <time>2020-05-22T08:50:20.852Z</time>
      </trkpt>
      <trkpt lat="44.90374" lon="5.42788">
        <ele>854</ele>
        <time>2020-05-22T08:50:21.852Z</time>
      </trkpt>
      <trkpt lat="44.90369" lon="5.42787">
        <ele>854</ele>
        <time>2020-05-22T08:50:22.852Z</time>
      </trkpt>
      <trkpt lat="44.90365" lon="5.42785">
        <ele>855</ele>
        <time>2020-05-22T08:50:23.852Z</time>
      </trkpt>
      <trkpt lat="44.9036" lon="5.42783">
        <ele>855</ele>
        <time>2020-05-22T08:50:24.852Z</time>
      </trkpt>
      <trkpt lat="44.90355" lon="5.4278">
        <ele>855</ele>
        <time>2020-05-22T08:50:25.852Z</time>
      </trkpt>
      <trkpt lat="44.90349" lon="5.42776">
        <ele>855</ele>
        <time>2020-05-22T08:50:26.851Z</time>
      </trkpt>
      <trkpt lat="44.90345" lon="5.42773">
        <ele>855</ele>
        <time>2020-05-22T08:50:27.852Z</time>
      </trkpt>
      <trkpt lat="44.90339" lon="5.42768">
        <ele>855</ele>
        <time>2020-05-22T08:50:28.851Z</time>
      </trkpt>
      <trkpt lat="44.90335" lon="5.42766">
        <ele>854</ele>
        <time>2020-05-22T08:50:29.852Z</time>
      </trkpt>
      <trkpt lat="44.9033" lon="5.42762">
        <ele>854</ele>
        <time>2020-05-22T08:50:30.852Z</time>
      </trkpt>
      <trkpt lat="44.90324" lon="5.42759">
        <ele>853</ele>
        <time>2020-05-22T08:50:31.851Z</time>
      </trkpt>
      <trkpt lat="44.90318" lon="5.42756">
        <ele>852</ele>
        <time>2020-05-22T08:50:32.852Z</time>
      </trkpt>
      <trkpt lat="44.90313" lon="5.42754">
        <ele>851</ele>
        <time>2020-05-22T08:50:33.851Z</time>
      </trkpt>
      <trkpt lat="44.90307" lon="5.42751">
        <ele>850</ele>
        <time>2020-05-22T08:50:34.852Z</time>
      </trkpt>
      <trkpt lat="44.90301" lon="5.42749">
        <ele>849</ele>
        <time>2020-05-22T08:50:35.851Z</time>
      </trkpt>
      <trkpt lat="44.90296" lon="5.42746">
        <ele>848</ele>
        <time>2020-05-22T08:50:36.852Z</time>
      </trkpt>
      <trkpt lat="44.90291" lon="5.42742">
        <ele>847</ele>
        <time>2020-05-22T08:50:37.852Z</time>
      </trkpt>
      <trkpt lat="44.90286" lon="5.42736">
        <ele>846</ele>
        <time>2020-05-22T08:50:38.852Z</time>
      </trkpt>
      <trkpt lat="44.90283" lon="5.4273">
        <ele>845</ele>
        <time>2020-05-22T08:50:39.852Z</time>
      </trkpt>
      <trkpt lat="44.90281" lon="5.42722">
        <ele>844</ele>
        <time>2020-05-22T08:50:40.852Z</time>
      </trkpt>
      <trkpt lat="44.9028" lon="5.42715">
        <ele>843</ele>
        <time>2020-05-22T08:50:41.852Z</time>
      </trkpt>
      <trkpt lat="44.90279" lon="5.42706">
        <ele>842</ele>
        <time>2020-05-22T08:50:42.852Z</time>
      </trkpt>
      <trkpt lat="44.90278" lon="5.42694">
        <ele>842</ele>
        <time>2020-05-22T08:50:43.852Z</time>
      </trkpt>
      <trkpt lat="44.90275" lon="5.42684">
        <ele>842</ele>
        <time>2020-05-22T08:50:44.852Z</time>
      </trkpt>
      <trkpt lat="44.90272" lon="5.42676">
        <ele>841</ele>
        <time>2020-05-22T08:50:45.851Z</time>
      </trkpt>
      <trkpt lat="44.90269" lon="5.4267">
        <ele>840</ele>
        <time>2020-05-22T08:50:46.851Z</time>
      </trkpt>
      <trkpt lat="44.90264" lon="5.42663">
        <ele>840</ele>
        <time>2020-05-22T08:50:47.852Z</time>
      </trkpt>
      <trkpt lat="44.90259" lon="5.42656">
        <ele>839</ele>
        <time>2020-05-22T08:50:48.851Z</time>
      </trkpt>
      <trkpt lat="44.90253" lon="5.42649">
        <ele>839</ele>
        <time>2020-05-22T08:50:49.852Z</time>
      </trkpt>
      <trkpt lat="44.90248" lon="5.42646">
        <ele>838</ele>
        <time>2020-05-22T08:50:50.852Z</time>
      </trkpt>
      <trkpt lat="44.90242" lon="5.42643">
        <ele>837</ele>
        <time>2020-05-22T08:50:51.852Z</time>
      </trkpt>
      <trkpt lat="44.90237" lon="5.4264">
        <ele>836</ele>
        <time>2020-05-22T08:50:52.851Z</time>
      </trkpt>
      <trkpt lat="44.90233" lon="5.42637">
        <ele>835</ele>
        <time>2020-05-22T08:50:53.852Z</time>
      </trkpt>
      <trkpt lat="44.9023" lon="5.42633">
        <ele>834</ele>
        <time>2020-05-22T08:50:54.852Z</time>
      </trkpt>
      <trkpt lat="44.90228" lon="5.42631">
        <ele>834</ele>
        <time>2020-05-22T08:50:55.852Z</time>
      </trkpt>
      <trkpt lat="44.90227" lon="5.42628">
        <ele>834</ele>
        <time>2020-05-22T08:50:56.852Z</time>
      </trkpt>
      <trkpt lat="44.90227" lon="5.42626">
        <ele>834</ele>
        <time>2020-05-22T08:50:57.851Z</time>
      </trkpt>
      <trkpt lat="44.90227" lon="5.42625">
        <ele>833</ele>
        <time>2020-05-22T08:50:58.851Z</time>
      </trkpt>
      <trkpt lat="44.90228" lon="5.42625">
        <ele>833</ele>
        <time>2020-05-22T08:50:59.852Z</time>
      </trkpt>
      <trkpt lat="44.90228" lon="5.42625">
        <ele>834</ele>
        <time>2020-05-22T08:51:00.852Z</time>
      </trkpt>
      <trkpt lat="44.9023" lon="5.42629">
        <ele>836</ele>
        <time>2020-05-22T08:51:01.853Z</time>
      </trkpt>
      <trkpt lat="44.90231" lon="5.42631">
        <ele>836</ele>
        <time>2020-05-22T08:51:02.853Z</time>
      </trkpt>
      <trkpt lat="44.90231" lon="5.42632">
        <ele>836</ele>
        <time>2020-05-22T08:51:03.852Z</time>
      </trkpt>
      <trkpt lat="44.90232" lon="5.42634">
        <ele>836</ele>
        <time>2020-05-22T08:51:04.853Z</time>
      </trkpt>
      <trkpt lat="44.90233" lon="5.42636">
        <ele>837</ele>
        <time>2020-05-22T08:51:05.853Z</time>
      </trkpt>
      <trkpt lat="44.90234" lon="5.42639">
        <ele>837</ele>
        <time>2020-05-22T08:51:06.853Z</time>
      </trkpt>
      <trkpt lat="44.90236" lon="5.42642">
        <ele>837</ele>
        <time>2020-05-22T08:51:07.852Z</time>
      </trkpt>
      <trkpt lat="44.90239" lon="5.42644">
        <ele>838</ele>
        <time>2020-05-22T08:51:08.853Z</time>
      </trkpt>
      <trkpt lat="44.90242" lon="5.42646">
        <ele>838</ele>
        <time>2020-05-22T08:51:09.853Z</time>
      </trkpt>
      <trkpt lat="44.90245" lon="5.42648">
        <ele>838</ele>
        <time>2020-05-22T08:51:10.853Z</time>
      </trkpt>
      <trkpt lat="44.90248" lon="5.4265">
        <ele>838</ele>
        <time>2020-05-22T08:51:11.853Z</time>
      </trkpt>
      <trkpt lat="44.90251" lon="5.42652">
        <ele>838</ele>
        <time>2020-05-22T08:51:12.853Z</time>
      </trkpt>
      <trkpt lat="44.90255" lon="5.42655">
        <ele>838</ele>
        <time>2020-05-22T08:51:13.853Z</time>
      </trkpt>
      <trkpt lat="44.90259" lon="5.42659">
        <ele>838</ele>
        <time>2020-05-22T08:51:14.853Z</time>
      </trkpt>
      <trkpt lat="44.90263" lon="5.42663">
        <ele>838</ele>
        <time>2020-05-22T08:51:15.853Z</time>
      </trkpt>
      <trkpt lat="44.90267" lon="5.42667">
        <ele>838</ele>
        <time>2020-05-22T08:51:16.853Z</time>
      </trkpt>
      <trkpt lat="44.9027" lon="5.42672">
        <ele>838</ele>
        <time>2020-05-22T08:51:17.853Z</time>
      </trkpt>
      <trkpt lat="44.90274" lon="5.42677">
        <ele>838</ele>
        <time>2020-05-22T08:51:18.853Z</time>
      </trkpt>
      <trkpt lat="44.90277" lon="5.42682">
        <ele>838</ele>
        <time>2020-05-22T08:51:19.853Z</time>
      </trkpt>
      <trkpt lat="44.90279" lon="5.42688">
        <ele>837</ele>
        <time>2020-05-22T08:51:20.853Z</time>
      </trkpt>
      <trkpt lat="44.90281" lon="5.42694">
        <ele>837</ele>
        <time>2020-05-22T08:51:21.853Z</time>
      </trkpt>
      <trkpt lat="44.90283" lon="5.42701">
        <ele>837</ele>
        <time>2020-05-22T08:51:22.852Z</time>
      </trkpt>
      <trkpt lat="44.90284" lon="5.42707">
        <ele>837</ele>
        <time>2020-05-22T08:51:23.852Z</time>
      </trkpt>
      <trkpt lat="44.90284" lon="5.42714">
        <ele>837</ele>
        <time>2020-05-22T08:51:24.853Z</time>
      </trkpt>
      <trkpt lat="44.90285" lon="5.4272">
        <ele>837</ele>
        <time>2020-05-22T08:51:25.853Z</time>
      </trkpt>
      <trkpt lat="44.90285" lon="5.42725">
        <ele>837</ele>
        <time>2020-05-22T08:51:26.853Z</time>
      </trkpt>
      <trkpt lat="44.90286" lon="5.42731">
        <ele>837</ele>
        <time>2020-05-22T08:51:27.853Z</time>
      </trkpt>
      <trkpt lat="44.90285" lon="5.42738">
        <ele>837</ele>
        <time>2020-05-22T08:51:28.852Z</time>
      </trkpt>
      <trkpt lat="44.90283" lon="5.42742">
        <ele>837</ele>
        <time>2020-05-22T08:51:29.852Z</time>
      </trkpt>
      <trkpt lat="44.9028" lon="5.42744">
        <ele>837</ele>
        <time>2020-05-22T08:51:30.853Z</time>
      </trkpt>
      <trkpt lat="44.90277" lon="5.42746">
        <ele>838</ele>
        <time>2020-05-22T08:51:31.853Z</time>
      </trkpt>
      <trkpt lat="44.90274" lon="5.42747">
        <ele>838</ele>
        <time>2020-05-22T08:51:32.853Z</time>
      </trkpt>
      <trkpt lat="44.90271" lon="5.42747">
        <ele>838</ele>
        <time>2020-05-22T08:51:33.853Z</time>
      </trkpt>
      <trkpt lat="44.90267" lon="5.42748">
        <ele>839</ele>
        <time>2020-05-22T08:51:34.853Z</time>
      </trkpt>
      <trkpt lat="44.90262" lon="5.42749">
        <ele>839</ele>
        <time>2020-05-22T08:51:35.853Z</time>
      </trkpt>
      <trkpt lat="44.90258" lon="5.42748">
        <ele>839</ele>
        <time>2020-05-22T08:51:36.853Z</time>
      </trkpt>
      <trkpt lat="44.90254" lon="5.42749">
        <ele>839</ele>
        <time>2020-05-22T08:51:37.853Z</time>
      </trkpt>
      <trkpt lat="44.90251" lon="5.42749">
        <ele>839</ele>
        <time>2020-05-22T08:51:38.853Z</time>
      </trkpt>
      <trkpt lat="44.90248" lon="5.42749">
        <ele>839</ele>
        <time>2020-05-22T08:51:39.853Z</time>
      </trkpt>
      <trkpt lat="44.90244" lon="5.42749">
        <ele>839</ele>
        <time>2020-05-22T08:51:40.852Z</time>
      </trkpt>
      <trkpt lat="44.90242" lon="5.42749">
        <ele>839</ele>
        <time>2020-05-22T08:51:41.852Z</time>
      </trkpt>
      <trkpt lat="44.90238" lon="5.4275">
        <ele>839</ele>
        <time>2020-05-22T08:51:42.852Z</time>
      </trkpt>
      <trkpt lat="44.90235" lon="5.4275">
        <ele>839</ele>
        <time>2020-05-22T08:51:43.852Z</time>
      </trkpt>
      <trkpt lat="44.90232" lon="5.4275">
        <ele>839</ele>
        <time>2020-05-22T08:51:44.852Z</time>
      </trkpt>
      <trkpt lat="44.90229" lon="5.4275">
        <ele>839</ele>
        <time>2020-05-22T08:51:45.852Z</time>
      </trkpt>
      <trkpt lat="44.90226" lon="5.42751">
        <ele>839</ele>
        <time>2020-05-22T08:51:46.852Z</time>
      </trkpt>
      <trkpt lat="44.90222" lon="5.42751">
        <ele>839</ele>
        <time>2020-05-22T08:51:47.852Z</time>
      </trkpt>
      <trkpt lat="44.90219" lon="5.42751">
        <ele>839</ele>
        <time>2020-05-22T08:51:48.852Z</time>
      </trkpt>
      <trkpt lat="44.90216" lon="5.42752">
        <ele>839</ele>
        <time>2020-05-22T08:51:49.852Z</time>
      </trkpt>
      <trkpt lat="44.90213" lon="5.42752">
        <ele>839</ele>
        <time>2020-05-22T08:51:50.852Z</time>
      </trkpt>
      <trkpt lat="44.9021" lon="5.42752">
        <ele>839</ele>
        <time>2020-05-22T08:51:51.853Z</time>
      </trkpt>
      <trkpt lat="44.90206" lon="5.42753">
        <ele>839</ele>
        <time>2020-05-22T08:51:52.852Z</time>
      </trkpt>
      <trkpt lat="44.90203" lon="5.42754">
        <ele>839</ele>
        <time>2020-05-22T08:51:53.852Z</time>
      </trkpt>
      <trkpt lat="44.90199" lon="5.42754">
        <ele>839</ele>
        <time>2020-05-22T08:51:54.853Z</time>
      </trkpt>
      <trkpt lat="44.90196" lon="5.42755">
        <ele>839</ele>
        <time>2020-05-22T08:51:55.853Z</time>
      </trkpt>
      <trkpt lat="44.90192" lon="5.42755">
        <ele>839</ele>
        <time>2020-05-22T08:51:56.853Z</time>
      </trkpt>
      <trkpt lat="44.90189" lon="5.42756">
        <ele>840</ele>
        <time>2020-05-22T08:51:57.853Z</time>
      </trkpt>
      <trkpt lat="44.90186" lon="5.42757">
        <ele>840</ele>
        <time>2020-05-22T08:51:58.853Z</time>
      </trkpt>
      <trkpt lat="44.90183" lon="5.42758">
        <ele>841</ele>
        <time>2020-05-22T08:51:59.853Z</time>
      </trkpt>
      <trkpt lat="44.9018" lon="5.42759">
        <ele>841</ele>
        <time>2020-05-22T08:52:00.853Z</time>
      </trkpt>
      <trkpt lat="44.90177" lon="5.4276">
        <ele>841</ele>
        <time>2020-05-22T08:52:01.853Z</time>
      </trkpt>
      <trkpt lat="44.90174" lon="5.42761">
        <ele>841</ele>
        <time>2020-05-22T08:52:02.852Z</time>
      </trkpt>
      <trkpt lat="44.90172" lon="5.42762">
        <ele>842</ele>
        <time>2020-05-22T08:52:03.852Z</time>
      </trkpt>
      <trkpt lat="44.9017" lon="5.42763">
        <ele>842</ele>
        <time>2020-05-22T08:52:04.853Z</time>
      </trkpt>
      <trkpt lat="44.90168" lon="5.42764">
        <ele>842</ele>
        <time>2020-05-22T08:52:05.853Z</time>
      </trkpt>
      <trkpt lat="44.90166" lon="5.42765">
        <ele>842</ele>
        <time>2020-05-22T08:52:06.853Z</time>
      </trkpt>
      <trkpt lat="44.90163" lon="5.42766">
        <ele>842</ele>
        <time>2020-05-22T08:52:07.852Z</time>
      </trkpt>
      <trkpt lat="44.90161" lon="5.42767">
        <ele>843</ele>
        <time>2020-05-22T08:52:08.853Z</time>
      </trkpt>
      <trkpt lat="44.90159" lon="5.42769">
        <ele>843</ele>
        <time>2020-05-22T08:52:09.853Z</time>
      </trkpt>
      <trkpt lat="44.90157" lon="5.42771">
        <ele>843</ele>
        <time>2020-05-22T08:52:10.853Z</time>
      </trkpt>
      <trkpt lat="44.90155" lon="5.42772">
        <ele>843</ele>
        <time>2020-05-22T08:52:11.852Z</time>
      </trkpt>
      <trkpt lat="44.90152" lon="5.42773">
        <ele>844</ele>
        <time>2020-05-22T08:52:12.853Z</time>
      </trkpt>
      <trkpt lat="44.9015" lon="5.42774">
        <ele>844</ele>
        <time>2020-05-22T08:52:13.853Z</time>
      </trkpt>
      <trkpt lat="44.90148" lon="5.42775">
        <ele>844</ele>
        <time>2020-05-22T08:52:14.853Z</time>
      </trkpt>
      <trkpt lat="44.90145" lon="5.42777">
        <ele>844</ele>
        <time>2020-05-22T08:52:15.853Z</time>
      </trkpt>
      <trkpt lat="44.90143" lon="5.42777">
        <ele>844</ele>
        <time>2020-05-22T08:52:16.853Z</time>
      </trkpt>
      <trkpt lat="44.9014" lon="5.42778">
        <ele>844</ele>
        <time>2020-05-22T08:52:17.853Z</time>
      </trkpt>
      <trkpt lat="44.90138" lon="5.42778">
        <ele>844</ele>
        <time>2020-05-22T08:52:18.853Z</time>
      </trkpt>
      <trkpt lat="44.90136" lon="5.42779">
        <ele>844</ele>
        <time>2020-05-22T08:52:19.852Z</time>
      </trkpt>
      <trkpt lat="44.90133" lon="5.42778">
        <ele>844</ele>
        <time>2020-05-22T08:52:20.853Z</time>
      </trkpt>
      <trkpt lat="44.9013" lon="5.42778">
        <ele>844</ele>
        <time>2020-05-22T08:52:21.853Z</time>
      </trkpt>
      <trkpt lat="44.90127" lon="5.42778">
        <ele>844</ele>
        <time>2020-05-22T08:52:22.853Z</time>
      </trkpt>
      <trkpt lat="44.90125" lon="5.42777">
        <ele>844</ele>
        <time>2020-05-22T08:52:23.853Z</time>
      </trkpt>
      <trkpt lat="44.90122" lon="5.42776">
        <ele>844</ele>
        <time>2020-05-22T08:52:24.852Z</time>
      </trkpt>
      <trkpt lat="44.90119" lon="5.42776">
        <ele>844</ele>
        <time>2020-05-22T08:52:25.853Z</time>
      </trkpt>
      <trkpt lat="44.90116" lon="5.42775">
        <ele>844</ele>
        <time>2020-05-22T08:52:26.853Z</time>
      </trkpt>
      <trkpt lat="44.90114" lon="5.42774">
        <ele>844</ele>
        <time>2020-05-22T08:52:27.853Z</time>
      </trkpt>
      <trkpt lat="44.90111" lon="5.42774">
        <ele>844</ele>
        <time>2020-05-22T08:52:28.853Z</time>
      </trkpt>
      <trkpt lat="44.90108" lon="5.42773">
        <ele>845</ele>
        <time>2020-05-22T08:52:29.853Z</time>
      </trkpt>
      <trkpt lat="44.90105" lon="5.42772">
        <ele>845</ele>
        <time>2020-05-22T08:52:30.853Z</time>
      </trkpt>
      <trkpt lat="44.90102" lon="5.42771">
        <ele>845</ele>
        <time>2020-05-22T08:52:31.853Z</time>
      </trkpt>
      <trkpt lat="44.901" lon="5.4277">
        <ele>845</ele>
        <time>2020-05-22T08:52:32.853Z</time>
      </trkpt>
      <trkpt lat="44.90097" lon="5.4277">
        <ele>845</ele>
        <time>2020-05-22T08:52:33.852Z</time>
      </trkpt>
      <trkpt lat="44.90093" lon="5.42769">
        <ele>845</ele>
        <time>2020-05-22T08:52:34.853Z</time>
      </trkpt>
      <trkpt lat="44.9009" lon="5.42768">
        <ele>845</ele>
        <time>2020-05-22T08:52:35.852Z</time>
      </trkpt>
      <trkpt lat="44.90087" lon="5.42767">
        <ele>845</ele>
        <time>2020-05-22T08:52:36.853Z</time>
      </trkpt>
      <trkpt lat="44.90084" lon="5.42767">
        <ele>845</ele>
        <time>2020-05-22T08:52:37.853Z</time>
      </trkpt>
      <trkpt lat="44.90081" lon="5.42767">
        <ele>845</ele>
        <time>2020-05-22T08:52:38.853Z</time>
      </trkpt>
      <trkpt lat="44.90078" lon="5.42766">
        <ele>845</ele>
        <time>2020-05-22T08:52:39.853Z</time>
      </trkpt>
      <trkpt lat="44.90074" lon="5.42766">
        <ele>845</ele>
        <time>2020-05-22T08:52:40.853Z</time>
      </trkpt>
      <trkpt lat="44.90071" lon="5.42766">
        <ele>845</ele>
        <time>2020-05-22T08:52:41.852Z</time>
      </trkpt>
      <trkpt lat="44.90068" lon="5.42766">
        <ele>845</ele>
        <time>2020-05-22T08:52:42.852Z</time>
      </trkpt>
      <trkpt lat="44.90064" lon="5.42766">
        <ele>844</ele>
        <time>2020-05-22T08:52:43.853Z</time>
      </trkpt>
      <trkpt lat="44.9006" lon="5.42766">
        <ele>844</ele>
        <time>2020-05-22T08:52:44.853Z</time>
      </trkpt>
      <trkpt lat="44.90057" lon="5.42767">
        <ele>844</ele>
        <time>2020-05-22T08:52:45.852Z</time>
      </trkpt>
      <trkpt lat="44.90053" lon="5.42767">
        <ele>844</ele>
        <time>2020-05-22T08:52:46.852Z</time>
      </trkpt>
      <trkpt lat="44.90049" lon="5.42767">
        <ele>845</ele>
        <time>2020-05-22T08:52:47.852Z</time>
      </trkpt>
      <trkpt lat="44.90044" lon="5.42768">
        <ele>845</ele>
        <time>2020-05-22T08:52:48.853Z</time>
      </trkpt>
      <trkpt lat="44.9004" lon="5.42768">
        <ele>845</ele>
        <time>2020-05-22T08:52:49.853Z</time>
      </trkpt>
      <trkpt lat="44.90036" lon="5.42769">
        <ele>845</ele>
        <time>2020-05-22T08:52:50.853Z</time>
      </trkpt>
      <trkpt lat="44.90033" lon="5.42769">
        <ele>844</ele>
        <time>2020-05-22T08:52:51.853Z</time>
      </trkpt>
      <trkpt lat="44.90029" lon="5.4277">
        <ele>844</ele>
        <time>2020-05-22T08:52:52.853Z</time>
      </trkpt>
      <trkpt lat="44.90024" lon="5.4277">
        <ele>843</ele>
        <time>2020-05-22T08:52:53.853Z</time>
      </trkpt>
      <trkpt lat="44.90021" lon="5.4277">
        <ele>843</ele>
        <time>2020-05-22T08:52:54.853Z</time>
      </trkpt>
      <trkpt lat="44.90017" lon="5.42771">
        <ele>842</ele>
        <time>2020-05-22T08:52:55.853Z</time>
      </trkpt>
      <trkpt lat="44.90014" lon="5.42771">
        <ele>842</ele>
        <time>2020-05-22T08:52:56.853Z</time>
      </trkpt>
      <trkpt lat="44.9001" lon="5.4277">
        <ele>842</ele>
        <time>2020-05-22T08:52:57.853Z</time>
      </trkpt>
      <trkpt lat="44.90006" lon="5.4277">
        <ele>843</ele>
        <time>2020-05-22T08:52:58.853Z</time>
      </trkpt>
      <trkpt lat="44.90003" lon="5.4277">
        <ele>843</ele>
        <time>2020-05-22T08:52:59.852Z</time>
      </trkpt>
      <trkpt lat="44.9" lon="5.4277">
        <ele>844</ele>
        <time>2020-05-22T08:53:00.853Z</time>
      </trkpt>
      <trkpt lat="44.89997" lon="5.42769">
        <ele>844</ele>
        <time>2020-05-22T08:53:01.853Z</time>
      </trkpt>
      <trkpt lat="44.89993" lon="5.42768">
        <ele>844</ele>
        <time>2020-05-22T08:53:02.852Z</time>
      </trkpt>
      <trkpt lat="44.8999" lon="5.42767">
        <ele>844</ele>
        <time>2020-05-22T08:53:03.852Z</time>
      </trkpt>
      <trkpt lat="44.89987" lon="5.42767">
        <ele>844</ele>
        <time>2020-05-22T08:53:04.853Z</time>
      </trkpt>
      <trkpt lat="44.89985" lon="5.42766">
        <ele>844</ele>
        <time>2020-05-22T08:53:05.853Z</time>
      </trkpt>
      <trkpt lat="44.89982" lon="5.42766">
        <ele>844</ele>
        <time>2020-05-22T08:53:06.852Z</time>
      </trkpt>
      <trkpt lat="44.89978" lon="5.42765">
        <ele>844</ele>
        <time>2020-05-22T08:53:07.853Z</time>
      </trkpt>
      <trkpt lat="44.89975" lon="5.42765">
        <ele>844</ele>
        <time>2020-05-22T08:53:08.853Z</time>
      </trkpt>
      <trkpt lat="44.89972" lon="5.42764">
        <ele>844</ele>
        <time>2020-05-22T08:53:09.853Z</time>
      </trkpt>
      <trkpt lat="44.89969" lon="5.42764">
        <ele>844</ele>
        <time>2020-05-22T08:53:10.853Z</time>
      </trkpt>
      <trkpt lat="44.89965" lon="5.42764">
        <ele>844</ele>
        <time>2020-05-22T08:53:11.853Z</time>
      </trkpt>
      <trkpt lat="44.8996" lon="5.42763">
        <ele>844</ele>
        <time>2020-05-22T08:53:12.853Z</time>
      </trkpt>
      <trkpt lat="44.89956" lon="5.42763">
        <ele>844</ele>
        <time>2020-05-22T08:53:13.853Z</time>
      </trkpt>
      <trkpt lat="44.89952" lon="5.42761">
        <ele>844</ele>
        <time>2020-05-22T08:53:14.852Z</time>
      </trkpt>
      <trkpt lat="44.89949" lon="5.4276">
        <ele>843</ele>
        <time>2020-05-22T08:53:15.853Z</time>
      </trkpt>
      <trkpt lat="44.89946" lon="5.42758">
        <ele>843</ele>
        <time>2020-05-22T08:53:16.853Z</time>
      </trkpt>
      <trkpt lat="44.89941" lon="5.42756">
        <ele>842</ele>
        <time>2020-05-22T08:53:17.853Z</time>
      </trkpt>
      <trkpt lat="44.89939" lon="5.42755">
        <ele>843</ele>
        <time>2020-05-22T08:53:18.853Z</time>
      </trkpt>
      <trkpt lat="44.89936" lon="5.42753">
        <ele>843</ele>
        <time>2020-05-22T08:53:19.852Z</time>
      </trkpt>
      <trkpt lat="44.89935" lon="5.42752">
        <ele>844</ele>
        <time>2020-05-22T08:53:20.853Z</time>
      </trkpt>
      <trkpt lat="44.89932" lon="5.42751">
        <ele>844</ele>
        <time>2020-05-22T08:53:21.853Z</time>
      </trkpt>
      <trkpt lat="44.8993" lon="5.42749">
        <ele>844</ele>
        <time>2020-05-22T08:53:22.853Z</time>
      </trkpt>
      <trkpt lat="44.89928" lon="5.42749">
        <ele>844</ele>
        <time>2020-05-22T08:53:23.853Z</time>
      </trkpt>
      <trkpt lat="44.89927" lon="5.42748">
        <ele>844</ele>
        <time>2020-05-22T08:53:24.852Z</time>
      </trkpt>
      <trkpt lat="44.89925" lon="5.42747">
        <ele>844</ele>
        <time>2020-05-22T08:53:25.853Z</time>
      </trkpt>
      <trkpt lat="44.89923" lon="5.42746">
        <ele>843</ele>
        <time>2020-05-22T08:53:26.853Z</time>
      </trkpt>
      <trkpt lat="44.89921" lon="5.42745">
        <ele>843</ele>
        <time>2020-05-22T08:53:27.853Z</time>
      </trkpt>
      <trkpt lat="44.89919" lon="5.42744">
        <ele>843</ele>
        <time>2020-05-22T08:53:28.853Z</time>
      </trkpt>
      <trkpt lat="44.89918" lon="5.42744">
        <ele>843</ele>
        <time>2020-05-22T08:53:29.852Z</time>
      </trkpt>
      <trkpt lat="44.89916" lon="5.42743">
        <ele>842</ele>
        <time>2020-05-22T08:53:30.852Z</time>
      </trkpt>
      <trkpt lat="44.89914" lon="5.42742">
        <ele>842</ele>
        <time>2020-05-22T08:53:31.853Z</time>
      </trkpt>
      <trkpt lat="44.89912" lon="5.42742">
        <ele>842</ele>
        <time>2020-05-22T08:53:32.853Z</time>
      </trkpt>
      <trkpt lat="44.8991" lon="5.42741">
        <ele>841</ele>
        <time>2020-05-22T08:53:33.853Z</time>
      </trkpt>
      <trkpt lat="44.89909" lon="5.42741">
        <ele>841</ele>
        <time>2020-05-22T08:53:34.853Z</time>
      </trkpt>
      <trkpt lat="44.89907" lon="5.42741">
        <ele>840</ele>
        <time>2020-05-22T08:53:35.853Z</time>
      </trkpt>
      <trkpt lat="44.89904" lon="5.42741">
        <ele>841</ele>
        <time>2020-05-22T08:53:36.853Z</time>
      </trkpt>
      <trkpt lat="44.89902" lon="5.42741">
        <ele>841</ele>
        <time>2020-05-22T08:53:37.852Z</time>
      </trkpt>
      <trkpt lat="44.899" lon="5.4274">
        <ele>842</ele>
        <time>2020-05-22T08:53:38.853Z</time>
      </trkpt>
      <trkpt lat="44.89898" lon="5.4274">
        <ele>843</ele>
        <time>2020-05-22T08:53:39.853Z</time>
      </trkpt>
      <trkpt lat="44.89895" lon="5.4274">
        <ele>844</ele>
        <time>2020-05-22T08:53:40.853Z</time>
      </trkpt>
      <trkpt lat="44.89893" lon="5.42739">
        <ele>845</ele>
        <time>2020-05-22T08:53:41.852Z</time>
      </trkpt>
      <trkpt lat="44.8989" lon="5.42739">
        <ele>846</ele>
        <time>2020-05-22T08:53:42.853Z</time>
      </trkpt>
      <trkpt lat="44.89889" lon="5.42739">
        <ele>847</ele>
        <time>2020-05-22T08:53:43.852Z</time>
      </trkpt>
      <trkpt lat="44.89887" lon="5.42739">
        <ele>847</ele>
        <time>2020-05-22T08:53:44.852Z</time>
      </trkpt>
      <trkpt lat="44.89884" lon="5.42739">
        <ele>848</ele>
        <time>2020-05-22T08:53:45.853Z</time>
      </trkpt>
      <trkpt lat="44.89882" lon="5.42738">
        <ele>848</ele>
        <time>2020-05-22T08:53:46.852Z</time>
      </trkpt>
      <trkpt lat="44.8988" lon="5.42738">
        <ele>848</ele>
        <time>2020-05-22T08:53:47.853Z</time>
      </trkpt>
      <trkpt lat="44.89878" lon="5.42737">
        <ele>849</ele>
        <time>2020-05-22T08:53:48.852Z</time>
      </trkpt>
      <trkpt lat="44.89877" lon="5.42736">
        <ele>849</ele>
        <time>2020-05-22T08:53:49.853Z</time>
      </trkpt>
      <trkpt lat="44.89874" lon="5.42736">
        <ele>850</ele>
        <time>2020-05-22T08:53:50.853Z</time>
      </trkpt>
      <trkpt lat="44.89872" lon="5.42735">
        <ele>850</ele>
        <time>2020-05-22T08:53:51.853Z</time>
      </trkpt>
      <trkpt lat="44.8987" lon="5.42734">
        <ele>850</ele>
        <time>2020-05-22T08:53:52.853Z</time>
      </trkpt>
      <trkpt lat="44.89868" lon="5.42734">
        <ele>850</ele>
        <time>2020-05-22T08:53:53.853Z</time>
      </trkpt>
      <trkpt lat="44.89866" lon="5.42733">
        <ele>850</ele>
        <time>2020-05-22T08:53:54.853Z</time>
      </trkpt>
      <trkpt lat="44.89863" lon="5.42732">
        <ele>850</ele>
        <time>2020-05-22T08:53:55.853Z</time>
      </trkpt>
      <trkpt lat="44.89861" lon="5.42732">
        <ele>851</ele>
        <time>2020-05-22T08:53:56.853Z</time>
      </trkpt>
      <trkpt lat="44.89858" lon="5.42731">
        <ele>851</ele>
        <time>2020-05-22T08:53:57.853Z</time>
      </trkpt>
      <trkpt lat="44.89855" lon="5.42731">
        <ele>852</ele>
        <time>2020-05-22T08:53:58.853Z</time>
      </trkpt>
      <trkpt lat="44.89853" lon="5.4273">
        <ele>852</ele>
        <time>2020-05-22T08:53:59.853Z</time>
      </trkpt>
      <trkpt lat="44.8985" lon="5.4273">
        <ele>852</ele>
        <time>2020-05-22T08:54:00.853Z</time>
      </trkpt>
      <trkpt lat="44.89847" lon="5.4273">
        <ele>853</ele>
        <time>2020-05-22T08:54:01.852Z</time>
      </trkpt>
      <trkpt lat="44.89845" lon="5.4273">
        <ele>853</ele>
        <time>2020-05-22T08:54:02.853Z</time>
      </trkpt>
      <trkpt lat="44.89842" lon="5.4273">
        <ele>854</ele>
        <time>2020-05-22T08:54:03.853Z</time>
      </trkpt>
      <trkpt lat="44.89838" lon="5.42731">
        <ele>854</ele>
        <time>2020-05-22T08:54:04.852Z</time>
      </trkpt>
      <trkpt lat="44.89836" lon="5.42731">
        <ele>855</ele>
        <time>2020-05-22T08:54:05.853Z</time>
      </trkpt>
      <trkpt lat="44.89833" lon="5.42732">
        <ele>855</ele>
        <time>2020-05-22T08:54:06.852Z</time>
      </trkpt>
      <trkpt lat="44.8983" lon="5.42733">
        <ele>856</ele>
        <time>2020-05-22T08:54:07.853Z</time>
      </trkpt>
      <trkpt lat="44.89828" lon="5.42734">
        <ele>856</ele>
        <time>2020-05-22T08:54:08.853Z</time>
      </trkpt>
      <trkpt lat="44.89825" lon="5.42735">
        <ele>856</ele>
        <time>2020-05-22T08:54:09.852Z</time>
      </trkpt>
      <trkpt lat="44.89822" lon="5.42737">
        <ele>857</ele>
        <time>2020-05-22T08:54:10.853Z</time>
      </trkpt>
      <trkpt lat="44.8982" lon="5.42738">
        <ele>857</ele>
        <time>2020-05-22T08:54:11.853Z</time>
      </trkpt>
      <trkpt lat="44.89818" lon="5.42739">
        <ele>857</ele>
        <time>2020-05-22T08:54:12.853Z</time>
      </trkpt>
      <trkpt lat="44.89815" lon="5.4274">
        <ele>857</ele>
        <time>2020-05-22T08:54:13.853Z</time>
      </trkpt>
      <trkpt lat="44.89813" lon="5.42741">
        <ele>858</ele>
        <time>2020-05-22T08:54:14.852Z</time>
      </trkpt>
      <trkpt lat="44.8981" lon="5.42742">
        <ele>858</ele>
        <time>2020-05-22T08:54:15.853Z</time>
      </trkpt>
      <trkpt lat="44.89808" lon="5.42743">
        <ele>859</ele>
        <time>2020-05-22T08:54:16.853Z</time>
      </trkpt>
      <trkpt lat="44.89805" lon="5.42744">
        <ele>859</ele>
        <time>2020-05-22T08:54:17.853Z</time>
      </trkpt>
      <trkpt lat="44.89802" lon="5.42744">
        <ele>859</ele>
        <time>2020-05-22T08:54:18.853Z</time>
      </trkpt>
      <trkpt lat="44.898" lon="5.42744">
        <ele>859</ele>
        <time>2020-05-22T08:54:19.852Z</time>
      </trkpt>
      <trkpt lat="44.89797" lon="5.42744">
        <ele>859</ele>
        <time>2020-05-22T08:54:20.852Z</time>
      </trkpt>
      <trkpt lat="44.89795" lon="5.42744">
        <ele>859</ele>
        <time>2020-05-22T08:54:21.853Z</time>
      </trkpt>
      <trkpt lat="44.89793" lon="5.42743">
        <ele>859</ele>
        <time>2020-05-22T08:54:22.853Z</time>
      </trkpt>
      <trkpt lat="44.89791" lon="5.42743">
        <ele>859</ele>
        <time>2020-05-22T08:54:23.852Z</time>
      </trkpt>
      <trkpt lat="44.89788" lon="5.42742">
        <ele>858</ele>
        <time>2020-05-22T08:54:24.852Z</time>
      </trkpt>
      <trkpt lat="44.89786" lon="5.42741">
        <ele>858</ele>
        <time>2020-05-22T08:54:25.853Z</time>
      </trkpt>
      <trkpt lat="44.89784" lon="5.4274">
        <ele>858</ele>
        <time>2020-05-22T08:54:26.853Z</time>
      </trkpt>
      <trkpt lat="44.89782" lon="5.42739">
        <ele>858</ele>
        <time>2020-05-22T08:54:27.853Z</time>
      </trkpt>
      <trkpt lat="44.89779" lon="5.42737">
        <ele>858</ele>
        <time>2020-05-22T08:54:28.853Z</time>
      </trkpt>
      <trkpt lat="44.89776" lon="5.42735">
        <ele>857</ele>
        <time>2020-05-22T08:54:29.852Z</time>
      </trkpt>
      <trkpt lat="44.89773" lon="5.42733">
        <ele>857</ele>
        <time>2020-05-22T08:54:30.852Z</time>
      </trkpt>
      <trkpt lat="44.8977" lon="5.42731">
        <ele>857</ele>
        <time>2020-05-22T08:54:31.852Z</time>
      </trkpt>
      <trkpt lat="44.89767" lon="5.42728">
        <ele>857</ele>
        <time>2020-05-22T08:54:32.853Z</time>
      </trkpt>
      <trkpt lat="44.89763" lon="5.42725">
        <ele>857</ele>
        <time>2020-05-22T08:54:33.853Z</time>
      </trkpt>
      <trkpt lat="44.89759" lon="5.42721">
        <ele>857</ele>
        <time>2020-05-22T08:54:34.853Z</time>
      </trkpt>
      <trkpt lat="44.89754" lon="5.42717">
        <ele>857</ele>
        <time>2020-05-22T08:54:35.852Z</time>
      </trkpt>
      <trkpt lat="44.8975" lon="5.42714">
        <ele>858</ele>
        <time>2020-05-22T08:54:36.853Z</time>
      </trkpt>
      <trkpt lat="44.89745" lon="5.4271">
        <ele>858</ele>
        <time>2020-05-22T08:54:37.852Z</time>
      </trkpt>
      <trkpt lat="44.8974" lon="5.42707">
        <ele>858</ele>
        <time>2020-05-22T08:54:38.852Z</time>
      </trkpt>
      <trkpt lat="44.89735" lon="5.42705">
        <ele>857</ele>
        <time>2020-05-22T08:54:39.852Z</time>
      </trkpt>
      <trkpt lat="44.8973" lon="5.42703">
        <ele>857</ele>
        <time>2020-05-22T08:54:40.852Z</time>
      </trkpt>
      <trkpt lat="44.89725" lon="5.42701">
        <ele>856</ele>
        <time>2020-05-22T08:54:41.853Z</time>
      </trkpt>
      <trkpt lat="44.8972" lon="5.427">
        <ele>855</ele>
        <time>2020-05-22T08:54:42.853Z</time>
      </trkpt>
      <trkpt lat="44.89715" lon="5.42698">
        <ele>855</ele>
        <time>2020-05-22T08:54:43.853Z</time>
      </trkpt>
      <trkpt lat="44.8971" lon="5.42697">
        <ele>855</ele>
        <time>2020-05-22T08:54:44.853Z</time>
      </trkpt>
      <trkpt lat="44.89705" lon="5.42695">
        <ele>854</ele>
        <time>2020-05-22T08:54:45.853Z</time>
      </trkpt>
      <trkpt lat="44.89701" lon="5.42694">
        <ele>854</ele>
        <time>2020-05-22T08:54:46.853Z</time>
      </trkpt>
      <trkpt lat="44.89697" lon="5.42691">
        <ele>854</ele>
        <time>2020-05-22T08:54:47.853Z</time>
      </trkpt>
      <trkpt lat="44.89692" lon="5.42688">
        <ele>853</ele>
        <time>2020-05-22T08:54:48.853Z</time>
      </trkpt>
      <trkpt lat="44.89688" lon="5.42684">
        <ele>853</ele>
        <time>2020-05-22T08:54:49.853Z</time>
      </trkpt>
      <trkpt lat="44.89684" lon="5.42679">
        <ele>852</ele>
        <time>2020-05-22T08:54:50.852Z</time>
      </trkpt>
      <trkpt lat="44.8968" lon="5.42673">
        <ele>852</ele>
        <time>2020-05-22T08:54:51.852Z</time>
      </trkpt>
      <trkpt lat="44.89675" lon="5.42665">
        <ele>851</ele>
        <time>2020-05-22T08:54:52.852Z</time>
      </trkpt>
      <trkpt lat="44.89671" lon="5.42658">
        <ele>851</ele>
        <time>2020-05-22T08:54:53.853Z</time>
      </trkpt>
      <trkpt lat="44.89668" lon="5.42652">
        <ele>850</ele>
        <time>2020-05-22T08:54:54.853Z</time>
      </trkpt>
      <trkpt lat="44.89662" lon="5.42646">
        <ele>850</ele>
        <time>2020-05-22T08:54:55.852Z</time>
      </trkpt>
      <trkpt lat="44.89656" lon="5.4264">
        <ele>849</ele>
        <time>2020-05-22T08:54:56.853Z</time>
      </trkpt>
      <trkpt lat="44.89648" lon="5.42636">
        <ele>849</ele>
        <time>2020-05-22T08:54:57.853Z</time>
      </trkpt>
      <trkpt lat="44.8964" lon="5.42633">
        <ele>848</ele>
        <time>2020-05-22T08:54:58.853Z</time>
      </trkpt>
      <trkpt lat="44.89631" lon="5.4263">
        <ele>848</ele>
        <time>2020-05-22T08:54:59.852Z</time>
      </trkpt>
      <trkpt lat="44.89622" lon="5.42629">
        <ele>847</ele>
        <time>2020-05-22T08:55:00.853Z</time>
      </trkpt>
      <trkpt lat="44.89611" lon="5.42628">
        <ele>847</ele>
        <time>2020-05-22T08:55:01.852Z</time>
      </trkpt>
      <trkpt lat="44.89603" lon="5.42628">
        <ele>846</ele>
        <time>2020-05-22T08:55:02.853Z</time>
      </trkpt>
      <trkpt lat="44.89593" lon="5.42628">
        <ele>846</ele>
        <time>2020-05-22T08:55:03.853Z</time>
      </trkpt>
      <trkpt lat="44.89585" lon="5.42627">
        <ele>846</ele>
        <time>2020-05-22T08:55:04.853Z</time>
      </trkpt>
      <trkpt lat="44.89579" lon="5.42627">
        <ele>846</ele>
        <time>2020-05-22T08:55:05.852Z</time>
      </trkpt>
      <trkpt lat="44.89572" lon="5.42626">
        <ele>845</ele>
        <time>2020-05-22T08:55:06.853Z</time>
      </trkpt>
      <trkpt lat="44.89564" lon="5.42624">
        <ele>845</ele>
        <time>2020-05-22T08:55:07.853Z</time>
      </trkpt>
      <trkpt lat="44.89559" lon="5.42621">
        <ele>844</ele>
        <time>2020-05-22T08:55:08.853Z</time>
      </trkpt>
      <trkpt lat="44.89556" lon="5.42619">
        <ele>844</ele>
        <time>2020-05-22T08:55:09.853Z</time>
      </trkpt>
      <trkpt lat="44.89552" lon="5.42616">
        <ele>844</ele>
        <time>2020-05-22T08:55:10.853Z</time>
      </trkpt>
      <trkpt lat="44.89548" lon="5.42612">
        <ele>844</ele>
        <time>2020-05-22T08:55:11.853Z</time>
      </trkpt>
      <trkpt lat="44.89545" lon="5.4261">
        <ele>844</ele>
        <time>2020-05-22T08:55:12.853Z</time>
      </trkpt>
      <trkpt lat="44.89543" lon="5.42607">
        <ele>844</ele>
        <time>2020-05-22T08:55:13.853Z</time>
      </trkpt>
      <trkpt lat="44.89541" lon="5.42605">
        <ele>844</ele>
        <time>2020-05-22T08:55:14.853Z</time>
      </trkpt>
      <trkpt lat="44.89539" lon="5.42603">
        <ele>844</ele>
        <time>2020-05-22T08:55:15.852Z</time>
      </trkpt>
      <trkpt lat="44.89537" lon="5.426">
        <ele>844</ele>
        <time>2020-05-22T08:55:16.852Z</time>
      </trkpt>
      <trkpt lat="44.89536" lon="5.42598">
        <ele>844</ele>
        <time>2020-05-22T08:55:17.853Z</time>
      </trkpt>
      <trkpt lat="44.89534" lon="5.42595">
        <ele>844</ele>
        <time>2020-05-22T08:55:18.853Z</time>
      </trkpt>
      <trkpt lat="44.89532" lon="5.42593">
        <ele>844</ele>
        <time>2020-05-22T08:55:19.852Z</time>
      </trkpt>
      <trkpt lat="44.8953" lon="5.4259">
        <ele>844</ele>
        <time>2020-05-22T08:55:20.853Z</time>
      </trkpt>
      <trkpt lat="44.89528" lon="5.42587">
        <ele>845</ele>
        <time>2020-05-22T08:55:21.852Z</time>
      </trkpt>
      <trkpt lat="44.89527" lon="5.42584">
        <ele>845</ele>
        <time>2020-05-22T08:55:22.853Z</time>
      </trkpt>
      <trkpt lat="44.89525" lon="5.42581">
        <ele>845</ele>
        <time>2020-05-22T08:55:23.853Z</time>
      </trkpt>
      <trkpt lat="44.89524" lon="5.42578">
        <ele>845</ele>
        <time>2020-05-22T08:55:24.853Z</time>
      </trkpt>
      <trkpt lat="44.89522" lon="5.42575">
        <ele>846</ele>
        <time>2020-05-22T08:55:25.853Z</time>
      </trkpt>
      <trkpt lat="44.89521" lon="5.42573">
        <ele>846</ele>
        <time>2020-05-22T08:55:26.852Z</time>
      </trkpt>
      <trkpt lat="44.89519" lon="5.4257">
        <ele>846</ele>
        <time>2020-05-22T08:55:27.853Z</time>
      </trkpt>
      <trkpt lat="44.89518" lon="5.42568">
        <ele>846</ele>
        <time>2020-05-22T08:55:28.853Z</time>
      </trkpt>
      <trkpt lat="44.89517" lon="5.42565">
        <ele>847</ele>
        <time>2020-05-22T08:55:29.852Z</time>
      </trkpt>
      <trkpt lat="44.89516" lon="5.42563">
        <ele>847</ele>
        <time>2020-05-22T08:55:30.853Z</time>
      </trkpt>
      <trkpt lat="44.89515" lon="5.42561">
        <ele>848</ele>
        <time>2020-05-22T08:55:31.853Z</time>
      </trkpt>
      <trkpt lat="44.89513" lon="5.42558">
        <ele>849</ele>
        <time>2020-05-22T08:55:32.852Z</time>
      </trkpt>
      <trkpt lat="44.89512" lon="5.42556">
        <ele>849</ele>
        <time>2020-05-22T08:55:33.853Z</time>
      </trkpt>
      <trkpt lat="44.89512" lon="5.42554">
        <ele>849</ele>
        <time>2020-05-22T08:55:34.853Z</time>
      </trkpt>
      <trkpt lat="44.89511" lon="5.42552">
        <ele>849</ele>
        <time>2020-05-22T08:55:35.853Z</time>
      </trkpt>
      <trkpt lat="44.8951" lon="5.4255">
        <ele>849</ele>
        <time>2020-05-22T08:55:36.852Z</time>
      </trkpt>
      <trkpt lat="44.89509" lon="5.42547">
        <ele>848</ele>
        <time>2020-05-22T08:55:37.853Z</time>
      </trkpt>
      <trkpt lat="44.89508" lon="5.42546">
        <ele>849</ele>
        <time>2020-05-22T08:55:38.852Z</time>
      </trkpt>
      <trkpt lat="44.89507" lon="5.42544">
        <ele>848</ele>
        <time>2020-05-22T08:55:39.853Z</time>
      </trkpt>
      <trkpt lat="44.89506" lon="5.42542">
        <ele>848</ele>
        <time>2020-05-22T08:55:40.853Z</time>
      </trkpt>
      <trkpt lat="44.89505" lon="5.4254">
        <ele>848</ele>
        <time>2020-05-22T08:55:41.853Z</time>
      </trkpt>
      <trkpt lat="44.89503" lon="5.42538">
        <ele>848</ele>
        <time>2020-05-22T08:55:42.853Z</time>
      </trkpt>
      <trkpt lat="44.89503" lon="5.42536">
        <ele>848</ele>
        <time>2020-05-22T08:55:43.853Z</time>
      </trkpt>
      <trkpt lat="44.89502" lon="5.42534">
        <ele>849</ele>
        <time>2020-05-22T08:55:44.853Z</time>
      </trkpt>
      <trkpt lat="44.895" lon="5.42531">
        <ele>849</ele>
        <time>2020-05-22T08:55:45.853Z</time>
      </trkpt>
      <trkpt lat="44.89499" lon="5.42529">
        <ele>850</ele>
        <time>2020-05-22T08:55:46.853Z</time>
      </trkpt>
      <trkpt lat="44.89498" lon="5.42526">
        <ele>850</ele>
        <time>2020-05-22T08:55:47.853Z</time>
      </trkpt>
      <trkpt lat="44.89497" lon="5.42523">
        <ele>850</ele>
        <time>2020-05-22T08:55:48.853Z</time>
      </trkpt>
      <trkpt lat="44.89496" lon="5.42521">
        <ele>851</ele>
        <time>2020-05-22T08:55:49.852Z</time>
      </trkpt>
      <trkpt lat="44.89495" lon="5.42518">
        <ele>851</ele>
        <time>2020-05-22T08:55:50.853Z</time>
      </trkpt>
      <trkpt lat="44.89495" lon="5.42515">
        <ele>851</ele>
        <time>2020-05-22T08:55:51.853Z</time>
      </trkpt>
      <trkpt lat="44.89494" lon="5.42512">
        <ele>851</ele>
        <time>2020-05-22T08:55:52.853Z</time>
      </trkpt>
      <trkpt lat="44.89494" lon="5.4251">
        <ele>851</ele>
        <time>2020-05-22T08:55:53.852Z</time>
      </trkpt>
      <trkpt lat="44.89493" lon="5.42507">
        <ele>851</ele>
        <time>2020-05-22T08:55:54.852Z</time>
      </trkpt>
      <trkpt lat="44.89492" lon="5.42503">
        <ele>852</ele>
        <time>2020-05-22T08:55:55.852Z</time>
      </trkpt>
      <trkpt lat="44.89492" lon="5.425">
        <ele>852</ele>
        <time>2020-05-22T08:55:56.853Z</time>
      </trkpt>
      <trkpt lat="44.89491" lon="5.42497">
        <ele>852</ele>
        <time>2020-05-22T08:55:57.853Z</time>
      </trkpt>
      <trkpt lat="44.89491" lon="5.42494">
        <ele>852</ele>
        <time>2020-05-22T08:55:58.852Z</time>
      </trkpt>
      <trkpt lat="44.8949" lon="5.4249">
        <ele>852</ele>
        <time>2020-05-22T08:55:59.853Z</time>
      </trkpt>
      <trkpt lat="44.8949" lon="5.42487">
        <ele>852</ele>
        <time>2020-05-22T08:56:00.852Z</time>
      </trkpt>
      <trkpt lat="44.89489" lon="5.42484">
        <ele>853</ele>
        <time>2020-05-22T08:56:01.852Z</time>
      </trkpt>
      <trkpt lat="44.89489" lon="5.42481">
        <ele>853</ele>
        <time>2020-05-22T08:56:02.853Z</time>
      </trkpt>
      <trkpt lat="44.89489" lon="5.42478">
        <ele>853</ele>
        <time>2020-05-22T08:56:03.853Z</time>
      </trkpt>
      <trkpt lat="44.89489" lon="5.42474">
        <ele>853</ele>
        <time>2020-05-22T08:56:04.853Z</time>
      </trkpt>
      <trkpt lat="44.89489" lon="5.42471">
        <ele>853</ele>
        <time>2020-05-22T08:56:05.853Z</time>
      </trkpt>
      <trkpt lat="44.89489" lon="5.42467">
        <ele>853</ele>
        <time>2020-05-22T08:56:06.852Z</time>
      </trkpt>
      <trkpt lat="44.89489" lon="5.42465">
        <ele>853</ele>
        <time>2020-05-22T08:56:07.853Z</time>
      </trkpt>
      <trkpt lat="44.89489" lon="5.42462">
        <ele>853</ele>
        <time>2020-05-22T08:56:08.852Z</time>
      </trkpt>
      <trkpt lat="44.8949" lon="5.42459">
        <ele>854</ele>
        <time>2020-05-22T08:56:09.852Z</time>
      </trkpt>
      <trkpt lat="44.89489" lon="5.42456">
        <ele>854</ele>
        <time>2020-05-22T08:56:10.853Z</time>
      </trkpt>
      <trkpt lat="44.8949" lon="5.42453">
        <ele>855</ele>
        <time>2020-05-22T08:56:11.852Z</time>
      </trkpt>
      <trkpt lat="44.8949" lon="5.42452">
        <ele>855</ele>
        <time>2020-05-22T08:56:12.853Z</time>
      </trkpt>
      <trkpt lat="44.8949" lon="5.42449">
        <ele>856</ele>
        <time>2020-05-22T08:56:13.853Z</time>
      </trkpt>
      <trkpt lat="44.89491" lon="5.42446">
        <ele>857</ele>
        <time>2020-05-22T08:56:14.853Z</time>
      </trkpt>
      <trkpt lat="44.89491" lon="5.42443">
        <ele>857</ele>
        <time>2020-05-22T08:56:15.853Z</time>
      </trkpt>
      <trkpt lat="44.89492" lon="5.4244">
        <ele>858</ele>
        <time>2020-05-22T08:56:16.853Z</time>
      </trkpt>
      <trkpt lat="44.89492" lon="5.42438">
        <ele>858</ele>
        <time>2020-05-22T08:56:17.852Z</time>
      </trkpt>
      <trkpt lat="44.89492" lon="5.42435">
        <ele>858</ele>
        <time>2020-05-22T08:56:18.853Z</time>
      </trkpt>
      <trkpt lat="44.89493" lon="5.42432">
        <ele>857</ele>
        <time>2020-05-22T08:56:19.852Z</time>
      </trkpt>
      <trkpt lat="44.89493" lon="5.4243">
        <ele>857</ele>
        <time>2020-05-22T08:56:20.852Z</time>
      </trkpt>
      <trkpt lat="44.89494" lon="5.42428">
        <ele>857</ele>
        <time>2020-05-22T08:56:21.853Z</time>
      </trkpt>
      <trkpt lat="44.89495" lon="5.42425">
        <ele>857</ele>
        <time>2020-05-22T08:56:22.852Z</time>
      </trkpt>
      <trkpt lat="44.89495" lon="5.42422">
        <ele>857</ele>
        <time>2020-05-22T08:56:23.853Z</time>
      </trkpt>
      <trkpt lat="44.89496" lon="5.42418">
        <ele>857</ele>
        <time>2020-05-22T08:56:24.853Z</time>
      </trkpt>
      <trkpt lat="44.89496" lon="5.42415">
        <ele>857</ele>
        <time>2020-05-22T08:56:25.852Z</time>
      </trkpt>
      <trkpt lat="44.89497" lon="5.42412">
        <ele>857</ele>
        <time>2020-05-22T08:56:26.853Z</time>
      </trkpt>
      <trkpt lat="44.89498" lon="5.4241">
        <ele>857</ele>
        <time>2020-05-22T08:56:27.852Z</time>
      </trkpt>
      <trkpt lat="44.89499" lon="5.42406">
        <ele>857</ele>
        <time>2020-05-22T08:56:28.853Z</time>
      </trkpt>
      <trkpt lat="44.895" lon="5.42403">
        <ele>857</ele>
        <time>2020-05-22T08:56:29.853Z</time>
      </trkpt>
      <trkpt lat="44.89501" lon="5.42399">
        <ele>857</ele>
        <time>2020-05-22T08:56:30.853Z</time>
      </trkpt>
      <trkpt lat="44.89501" lon="5.42395">
        <ele>857</ele>
        <time>2020-05-22T08:56:31.852Z</time>
      </trkpt>
      <trkpt lat="44.895" lon="5.4239">
        <ele>857</ele>
        <time>2020-05-22T08:56:32.852Z</time>
      </trkpt>
      <trkpt lat="44.89498" lon="5.42384">
        <ele>857</ele>
        <time>2020-05-22T08:56:33.853Z</time>
      </trkpt>
      <trkpt lat="44.89495" lon="5.42378">
        <ele>857</ele>
        <time>2020-05-22T08:56:34.853Z</time>
      </trkpt>
      <trkpt lat="44.89492" lon="5.42371">
        <ele>857</ele>
        <time>2020-05-22T08:56:35.853Z</time>
      </trkpt>
      <trkpt lat="44.8949" lon="5.42365">
        <ele>857</ele>
        <time>2020-05-22T08:56:36.853Z</time>
      </trkpt>
      <trkpt lat="44.89488" lon="5.42358">
        <ele>857</ele>
        <time>2020-05-22T08:56:37.852Z</time>
      </trkpt>
      <trkpt lat="44.89487" lon="5.42348">
        <ele>857</ele>
        <time>2020-05-22T08:56:38.852Z</time>
      </trkpt>
      <trkpt lat="44.89487" lon="5.4234">
        <ele>857</ele>
        <time>2020-05-22T08:56:39.852Z</time>
      </trkpt>
      <trkpt lat="44.89488" lon="5.42332">
        <ele>857</ele>
        <time>2020-05-22T08:56:40.853Z</time>
      </trkpt>
      <trkpt lat="44.89489" lon="5.42324">
        <ele>858</ele>
        <time>2020-05-22T08:56:41.853Z</time>
      </trkpt>
      <trkpt lat="44.8949" lon="5.42319">
        <ele>858</ele>
        <time>2020-05-22T08:56:42.853Z</time>
      </trkpt>
      <trkpt lat="44.89491" lon="5.42313">
        <ele>858</ele>
        <time>2020-05-22T08:56:43.853Z</time>
      </trkpt>
      <trkpt lat="44.89492" lon="5.4231">
        <ele>858</ele>
        <time>2020-05-22T08:56:44.853Z</time>
      </trkpt>
      <trkpt lat="44.89491" lon="5.42306">
        <ele>858</ele>
        <time>2020-05-22T08:56:45.852Z</time>
      </trkpt>
      <trkpt lat="44.89491" lon="5.42303">
        <ele>857</ele>
        <time>2020-05-22T08:56:46.853Z</time>
      </trkpt>
      <trkpt lat="44.8949" lon="5.42301">
        <ele>857</ele>
        <time>2020-05-22T08:56:47.853Z</time>
      </trkpt>
      <trkpt lat="44.89488" lon="5.42299">
        <ele>857</ele>
        <time>2020-05-22T08:56:48.853Z</time>
      </trkpt>
      <trkpt lat="44.89485" lon="5.42296">
        <ele>856</ele>
        <time>2020-05-22T08:56:49.852Z</time>
      </trkpt>
      <trkpt lat="44.89483" lon="5.42294">
        <ele>856</ele>
        <time>2020-05-22T08:56:50.853Z</time>
      </trkpt>
      <trkpt lat="44.8948" lon="5.42293">
        <ele>856</ele>
        <time>2020-05-22T08:56:51.853Z</time>
      </trkpt>
      <trkpt lat="44.89478" lon="5.42292">
        <ele>856</ele>
        <time>2020-05-22T08:56:52.853Z</time>
      </trkpt>
      <trkpt lat="44.89474" lon="5.4229">
        <ele>857</ele>
        <time>2020-05-22T08:56:53.853Z</time>
      </trkpt>
      <trkpt lat="44.89471" lon="5.42289">
        <ele>857</ele>
        <time>2020-05-22T08:56:54.853Z</time>
      </trkpt>
      <trkpt lat="44.89469" lon="5.42288">
        <ele>857</ele>
        <time>2020-05-22T08:56:55.853Z</time>
      </trkpt>
      <trkpt lat="44.89466" lon="5.42286">
        <ele>858</ele>
        <time>2020-05-22T08:56:56.852Z</time>
      </trkpt>
      <trkpt lat="44.89463" lon="5.42285">
        <ele>857</ele>
        <time>2020-05-22T08:56:57.853Z</time>
      </trkpt>
      <trkpt lat="44.8946" lon="5.42283">
        <ele>857</ele>
        <time>2020-05-22T08:56:58.853Z</time>
      </trkpt>
      <trkpt lat="44.89457" lon="5.42282">
        <ele>857</ele>
        <time>2020-05-22T08:56:59.853Z</time>
      </trkpt>
      <trkpt lat="44.89455" lon="5.42281">
        <ele>857</ele>
        <time>2020-05-22T08:57:00.852Z</time>
      </trkpt>
      <trkpt lat="44.89452" lon="5.42279">
        <ele>857</ele>
        <time>2020-05-22T08:57:01.852Z</time>
      </trkpt>
      <trkpt lat="44.89449" lon="5.42278">
        <ele>857</ele>
        <time>2020-05-22T08:57:02.853Z</time>
      </trkpt>
      <trkpt lat="44.89447" lon="5.42277">
        <ele>857</ele>
        <time>2020-05-22T08:57:03.853Z</time>
      </trkpt>
      <trkpt lat="44.89444" lon="5.42275">
        <ele>857</ele>
        <time>2020-05-22T08:57:04.853Z</time>
      </trkpt>
      <trkpt lat="44.89441" lon="5.42274">
        <ele>856</ele>
        <time>2020-05-22T08:57:05.853Z</time>
      </trkpt>
      <trkpt lat="44.89438" lon="5.42273">
        <ele>856</ele>
        <time>2020-05-22T08:57:06.853Z</time>
      </trkpt>
      <trkpt lat="44.89435" lon="5.42271">
        <ele>857</ele>
        <time>2020-05-22T08:57:07.853Z</time>
      </trkpt>
      <trkpt lat="44.89433" lon="5.4227">
        <ele>857</ele>
        <time>2020-05-22T08:57:08.853Z</time>
      </trkpt>
      <trkpt lat="44.8943" lon="5.42269">
        <ele>856</ele>
        <time>2020-05-22T08:57:09.853Z</time>
      </trkpt>
      <trkpt lat="44.89428" lon="5.42267">
        <ele>856</ele>
        <time>2020-05-22T08:57:10.853Z</time>
      </trkpt>
      <trkpt lat="44.89424" lon="5.42266">
        <ele>856</ele>
        <time>2020-05-22T08:57:11.853Z</time>
      </trkpt>
      <trkpt lat="44.89422" lon="5.42265">
        <ele>856</ele>
        <time>2020-05-22T08:57:12.853Z</time>
      </trkpt>
      <trkpt lat="44.89418" lon="5.42263">
        <ele>856</ele>
        <time>2020-05-22T08:57:13.853Z</time>
      </trkpt>
      <trkpt lat="44.89416" lon="5.42261">
        <ele>856</ele>
        <time>2020-05-22T08:57:14.852Z</time>
      </trkpt>
      <trkpt lat="44.89412" lon="5.4226">
        <ele>856</ele>
        <time>2020-05-22T08:57:15.852Z</time>
      </trkpt>
      <trkpt lat="44.89409" lon="5.42258">
        <ele>856</ele>
        <time>2020-05-22T08:57:16.852Z</time>
      </trkpt>
      <trkpt lat="44.89406" lon="5.42256">
        <ele>856</ele>
        <time>2020-05-22T08:57:17.853Z</time>
      </trkpt>
      <trkpt lat="44.89403" lon="5.42255">
        <ele>856</ele>
        <time>2020-05-22T08:57:18.853Z</time>
      </trkpt>
      <trkpt lat="44.89401" lon="5.42253">
        <ele>856</ele>
        <time>2020-05-22T08:57:19.853Z</time>
      </trkpt>
      <trkpt lat="44.89398" lon="5.42252">
        <ele>856</ele>
        <time>2020-05-22T08:57:20.853Z</time>
      </trkpt>
      <trkpt lat="44.89394" lon="5.4225">
        <ele>856</ele>
        <time>2020-05-22T08:57:21.853Z</time>
      </trkpt>
      <trkpt lat="44.89391" lon="5.42249">
        <ele>856</ele>
        <time>2020-05-22T08:57:22.853Z</time>
      </trkpt>
      <trkpt lat="44.89389" lon="5.42248">
        <ele>856</ele>
        <time>2020-05-22T08:57:23.853Z</time>
      </trkpt>
      <trkpt lat="44.89386" lon="5.42246">
        <ele>856</ele>
        <time>2020-05-22T08:57:24.853Z</time>
      </trkpt>
      <trkpt lat="44.89382" lon="5.42244">
        <ele>857</ele>
        <time>2020-05-22T08:57:25.853Z</time>
      </trkpt>
      <trkpt lat="44.89379" lon="5.42243">
        <ele>857</ele>
        <time>2020-05-22T08:57:26.853Z</time>
      </trkpt>
      <trkpt lat="44.89376" lon="5.42241">
        <ele>858</ele>
        <time>2020-05-22T08:57:27.853Z</time>
      </trkpt>
      <trkpt lat="44.89372" lon="5.42239">
        <ele>858</ele>
        <time>2020-05-22T08:57:28.853Z</time>
      </trkpt>
      <trkpt lat="44.89369" lon="5.42238">
        <ele>858</ele>
        <time>2020-05-22T08:57:29.852Z</time>
      </trkpt>
      <trkpt lat="44.89365" lon="5.42235">
        <ele>857</ele>
        <time>2020-05-22T08:57:30.852Z</time>
      </trkpt>
      <trkpt lat="44.89363" lon="5.42234">
        <ele>857</ele>
        <time>2020-05-22T08:57:31.852Z</time>
      </trkpt>
      <trkpt lat="44.89359" lon="5.42232">
        <ele>857</ele>
        <time>2020-05-22T08:57:32.853Z</time>
      </trkpt>
      <trkpt lat="44.89356" lon="5.42231">
        <ele>857</ele>
        <time>2020-05-22T08:57:33.853Z</time>
      </trkpt>
      <trkpt lat="44.89353" lon="5.42229">
        <ele>858</ele>
        <time>2020-05-22T08:57:34.853Z</time>
      </trkpt>
      <trkpt lat="44.89349" lon="5.42227">
        <ele>858</ele>
        <time>2020-05-22T08:57:35.853Z</time>
      </trkpt>
      <trkpt lat="44.89346" lon="5.42226">
        <ele>858</ele>
        <time>2020-05-22T08:57:36.852Z</time>
      </trkpt>
      <trkpt lat="44.89343" lon="5.42224">
        <ele>857</ele>
        <time>2020-05-22T08:57:37.853Z</time>
      </trkpt>
      <trkpt lat="44.89339" lon="5.42222">
        <ele>857</ele>
        <time>2020-05-22T08:57:38.853Z</time>
      </trkpt>
      <trkpt lat="44.89336" lon="5.4222">
        <ele>857</ele>
        <time>2020-05-22T08:57:39.852Z</time>
      </trkpt>
      <trkpt lat="44.89332" lon="5.42218">
        <ele>857</ele>
        <time>2020-05-22T08:57:40.852Z</time>
      </trkpt>
      <trkpt lat="44.89329" lon="5.42217">
        <ele>857</ele>
        <time>2020-05-22T08:57:41.852Z</time>
      </trkpt>
      <trkpt lat="44.89325" lon="5.42215">
        <ele>857</ele>
        <time>2020-05-22T08:57:42.853Z</time>
      </trkpt>
      <trkpt lat="44.89321" lon="5.42213">
        <ele>857</ele>
        <time>2020-05-22T08:57:43.853Z</time>
      </trkpt>
      <trkpt lat="44.89319" lon="5.42211">
        <ele>857</ele>
        <time>2020-05-22T08:57:44.853Z</time>
      </trkpt>
      <trkpt lat="44.89315" lon="5.4221">
        <ele>858</ele>
        <time>2020-05-22T08:57:45.853Z</time>
      </trkpt>
      <trkpt lat="44.89311" lon="5.42208">
        <ele>858</ele>
        <time>2020-05-22T08:57:46.853Z</time>
      </trkpt>
      <trkpt lat="44.89308" lon="5.42206">
        <ele>858</ele>
        <time>2020-05-22T08:57:47.853Z</time>
      </trkpt>
      <trkpt lat="44.89305" lon="5.42205">
        <ele>858</ele>
        <time>2020-05-22T08:57:48.853Z</time>
      </trkpt>
      <trkpt lat="44.89302" lon="5.42203">
        <ele>858</ele>
        <time>2020-05-22T08:57:49.853Z</time>
      </trkpt>
      <trkpt lat="44.89299" lon="5.42201">
        <ele>858</ele>
        <time>2020-05-22T08:57:50.853Z</time>
      </trkpt>
      <trkpt lat="44.89295" lon="5.422">
        <ele>858</ele>
        <time>2020-05-22T08:57:51.853Z</time>
      </trkpt>
      <trkpt lat="44.89292" lon="5.42198">
        <ele>858</ele>
        <time>2020-05-22T08:57:52.853Z</time>
      </trkpt>
      <trkpt lat="44.89289" lon="5.42196">
        <ele>858</ele>
        <time>2020-05-22T08:57:53.853Z</time>
      </trkpt>
      <trkpt lat="44.89286" lon="5.42195">
        <ele>858</ele>
        <time>2020-05-22T08:57:54.853Z</time>
      </trkpt>
      <trkpt lat="44.89282" lon="5.42193">
        <ele>858</ele>
        <time>2020-05-22T08:57:55.852Z</time>
      </trkpt>
      <trkpt lat="44.89279" lon="5.42191">
        <ele>858</ele>
        <time>2020-05-22T08:57:56.853Z</time>
      </trkpt>
      <trkpt lat="44.89276" lon="5.42189">
        <ele>858</ele>
        <time>2020-05-22T08:57:57.853Z</time>
      </trkpt>
      <trkpt lat="44.89273" lon="5.42188">
        <ele>858</ele>
        <time>2020-05-22T08:57:58.852Z</time>
      </trkpt>
      <trkpt lat="44.89269" lon="5.42186">
        <ele>858</ele>
        <time>2020-05-22T08:57:59.852Z</time>
      </trkpt>
      <trkpt lat="44.89267" lon="5.42185">
        <ele>858</ele>
        <time>2020-05-22T08:58:00.852Z</time>
      </trkpt>
      <trkpt lat="44.89263" lon="5.42183">
        <ele>858</ele>
        <time>2020-05-22T08:58:01.853Z</time>
      </trkpt>
      <trkpt lat="44.8926" lon="5.42182">
        <ele>859</ele>
        <time>2020-05-22T08:58:02.853Z</time>
      </trkpt>
      <trkpt lat="44.89257" lon="5.4218">
        <ele>859</ele>
        <time>2020-05-22T08:58:03.853Z</time>
      </trkpt>
      <trkpt lat="44.89253" lon="5.42178">
        <ele>859</ele>
        <time>2020-05-22T08:58:04.853Z</time>
      </trkpt>
      <trkpt lat="44.8925" lon="5.42176">
        <ele>860</ele>
        <time>2020-05-22T08:58:05.853Z</time>
      </trkpt>
      <trkpt lat="44.89247" lon="5.42174">
        <ele>861</ele>
        <time>2020-05-22T08:58:06.853Z</time>
      </trkpt>
      <trkpt lat="44.89244" lon="5.42173">
        <ele>861</ele>
        <time>2020-05-22T08:58:07.853Z</time>
      </trkpt>
      <trkpt lat="44.89241" lon="5.42171">
        <ele>862</ele>
        <time>2020-05-22T08:58:08.853Z</time>
      </trkpt>
      <trkpt lat="44.89237" lon="5.4217">
        <ele>862</ele>
        <time>2020-05-22T08:58:09.852Z</time>
      </trkpt>
      <trkpt lat="44.89235" lon="5.42169">
        <ele>862</ele>
        <time>2020-05-22T08:58:10.852Z</time>
      </trkpt>
      <trkpt lat="44.89231" lon="5.42167">
        <ele>862</ele>
        <time>2020-05-22T08:58:11.853Z</time>
      </trkpt>
      <trkpt lat="44.89228" lon="5.42165">
        <ele>862</ele>
        <time>2020-05-22T08:58:12.853Z</time>
      </trkpt>
      <trkpt lat="44.89225" lon="5.42163">
        <ele>862</ele>
        <time>2020-05-22T08:58:13.853Z</time>
      </trkpt>
      <trkpt lat="44.89222" lon="5.42162">
        <ele>861</ele>
        <time>2020-05-22T08:58:14.853Z</time>
      </trkpt>
      <trkpt lat="44.89218" lon="5.4216">
        <ele>861</ele>
        <time>2020-05-22T08:58:15.853Z</time>
      </trkpt>
      <trkpt lat="44.89216" lon="5.42159">
        <ele>861</ele>
        <time>2020-05-22T08:58:16.852Z</time>
      </trkpt>
      <trkpt lat="44.89213" lon="5.42157">
        <ele>861</ele>
        <time>2020-05-22T08:58:17.853Z</time>
      </trkpt>
      <trkpt lat="44.8921" lon="5.42156">
        <ele>861</ele>
        <time>2020-05-22T08:58:18.853Z</time>
      </trkpt>
      <trkpt lat="44.89206" lon="5.42154">
        <ele>861</ele>
        <time>2020-05-22T08:58:19.852Z</time>
      </trkpt>
      <trkpt lat="44.89203" lon="5.42152">
        <ele>861</ele>
        <time>2020-05-22T08:58:20.853Z</time>
      </trkpt>
      <trkpt lat="44.892" lon="5.4215">
        <ele>861</ele>
        <time>2020-05-22T08:58:21.852Z</time>
      </trkpt>
      <trkpt lat="44.89197" lon="5.42149">
        <ele>861</ele>
        <time>2020-05-22T08:58:22.853Z</time>
      </trkpt>
      <trkpt lat="44.89194" lon="5.42147">
        <ele>861</ele>
        <time>2020-05-22T08:58:23.852Z</time>
      </trkpt>
      <trkpt lat="44.8919" lon="5.42146">
        <ele>861</ele>
        <time>2020-05-22T08:58:24.853Z</time>
      </trkpt>
      <trkpt lat="44.89187" lon="5.42144">
        <ele>861</ele>
        <time>2020-05-22T08:58:25.852Z</time>
      </trkpt>
      <trkpt lat="44.89184" lon="5.42142">
        <ele>860</ele>
        <time>2020-05-22T08:58:26.852Z</time>
      </trkpt>
      <trkpt lat="44.89181" lon="5.42141">
        <ele>860</ele>
        <time>2020-05-22T08:58:27.853Z</time>
      </trkpt>
      <trkpt lat="44.89178" lon="5.4214">
        <ele>860</ele>
        <time>2020-05-22T08:58:28.853Z</time>
      </trkpt>
      <trkpt lat="44.89174" lon="5.42138">
        <ele>861</ele>
        <time>2020-05-22T08:58:29.852Z</time>
      </trkpt>
      <trkpt lat="44.89171" lon="5.42137">
        <ele>861</ele>
        <time>2020-05-22T08:58:30.853Z</time>
      </trkpt>
      <trkpt lat="44.89167" lon="5.42136">
        <ele>861</ele>
        <time>2020-05-22T08:58:31.853Z</time>
      </trkpt>
      <trkpt lat="44.89164" lon="5.42135">
        <ele>861</ele>
        <time>2020-05-22T08:58:32.852Z</time>
      </trkpt>
      <trkpt lat="44.89161" lon="5.42135">
        <ele>861</ele>
        <time>2020-05-22T08:58:33.853Z</time>
      </trkpt>
      <trkpt lat="44.89157" lon="5.42134">
        <ele>862</ele>
        <time>2020-05-22T08:58:34.853Z</time>
      </trkpt>
      <trkpt lat="44.89154" lon="5.42133">
        <ele>863</ele>
        <time>2020-05-22T08:58:35.853Z</time>
      </trkpt>
      <trkpt lat="44.8915" lon="5.42133">
        <ele>863</ele>
        <time>2020-05-22T08:58:36.853Z</time>
      </trkpt>
      <trkpt lat="44.89147" lon="5.42133">
        <ele>864</ele>
        <time>2020-05-22T08:58:37.852Z</time>
      </trkpt>
      <trkpt lat="44.89144" lon="5.42133">
        <ele>864</ele>
        <time>2020-05-22T08:58:38.853Z</time>
      </trkpt>
      <trkpt lat="44.89141" lon="5.42134">
        <ele>865</ele>
        <time>2020-05-22T08:58:39.852Z</time>
      </trkpt>
      <trkpt lat="44.89136" lon="5.42134">
        <ele>865</ele>
        <time>2020-05-22T08:58:40.852Z</time>
      </trkpt>
      <trkpt lat="44.89133" lon="5.42134">
        <ele>865</ele>
        <time>2020-05-22T08:58:41.853Z</time>
      </trkpt>
      <trkpt lat="44.89129" lon="5.42134">
        <ele>865</ele>
        <time>2020-05-22T08:58:42.852Z</time>
      </trkpt>
      <trkpt lat="44.89126" lon="5.42134">
        <ele>865</ele>
        <time>2020-05-22T08:58:43.852Z</time>
      </trkpt>
      <trkpt lat="44.89122" lon="5.42135">
        <ele>865</ele>
        <time>2020-05-22T08:58:44.852Z</time>
      </trkpt>
      <trkpt lat="44.89119" lon="5.42135">
        <ele>865</ele>
        <time>2020-05-22T08:58:45.853Z</time>
      </trkpt>
      <trkpt lat="44.89115" lon="5.42136">
        <ele>865</ele>
        <time>2020-05-22T08:58:46.852Z</time>
      </trkpt>
      <trkpt lat="44.89112" lon="5.42136">
        <ele>865</ele>
        <time>2020-05-22T08:58:47.853Z</time>
      </trkpt>
      <trkpt lat="44.89109" lon="5.42137">
        <ele>865</ele>
        <time>2020-05-22T08:58:48.853Z</time>
      </trkpt>
      <trkpt lat="44.89105" lon="5.42137">
        <ele>865</ele>
        <time>2020-05-22T08:58:49.853Z</time>
      </trkpt>
      <trkpt lat="44.89101" lon="5.42138">
        <ele>865</ele>
        <time>2020-05-22T08:58:50.853Z</time>
      </trkpt>
      <trkpt lat="44.89098" lon="5.42138">
        <ele>865</ele>
        <time>2020-05-22T08:58:51.853Z</time>
      </trkpt>
      <trkpt lat="44.89094" lon="5.42139">
        <ele>865</ele>
        <time>2020-05-22T08:58:52.852Z</time>
      </trkpt>
      <trkpt lat="44.89091" lon="5.42139">
        <ele>865</ele>
        <time>2020-05-22T08:58:53.853Z</time>
      </trkpt>
      <trkpt lat="44.89087" lon="5.4214">
        <ele>866</ele>
        <time>2020-05-22T08:58:54.853Z</time>
      </trkpt>
      <trkpt lat="44.89083" lon="5.42141">
        <ele>866</ele>
        <time>2020-05-22T08:58:55.852Z</time>
      </trkpt>
      <trkpt lat="44.8908" lon="5.42141">
        <ele>866</ele>
        <time>2020-05-22T08:58:56.852Z</time>
      </trkpt>
      <trkpt lat="44.89077" lon="5.42142">
        <ele>867</ele>
        <time>2020-05-22T08:58:57.853Z</time>
      </trkpt>
      <trkpt lat="44.89074" lon="5.42142">
        <ele>867</ele>
        <time>2020-05-22T08:58:58.853Z</time>
      </trkpt>
      <trkpt lat="44.8907" lon="5.42143">
        <ele>868</ele>
        <time>2020-05-22T08:58:59.853Z</time>
      </trkpt>
      <trkpt lat="44.89066" lon="5.42144">
        <ele>869</ele>
        <time>2020-05-22T08:59:00.853Z</time>
      </trkpt>
      <trkpt lat="44.89064" lon="5.42145">
        <ele>870</ele>
        <time>2020-05-22T08:59:01.852Z</time>
      </trkpt>
      <trkpt lat="44.8906" lon="5.42145">
        <ele>870</ele>
        <time>2020-05-22T08:59:02.853Z</time>
      </trkpt>
      <trkpt lat="44.89056" lon="5.42146">
        <ele>871</ele>
        <time>2020-05-22T08:59:03.853Z</time>
      </trkpt>
      <trkpt lat="44.89053" lon="5.42146">
        <ele>871</ele>
        <time>2020-05-22T08:59:04.852Z</time>
      </trkpt>
      <trkpt lat="44.89049" lon="5.42146">
        <ele>872</ele>
        <time>2020-05-22T08:59:05.852Z</time>
      </trkpt>
      <trkpt lat="44.89047" lon="5.42146">
        <ele>871</ele>
        <time>2020-05-22T08:59:06.852Z</time>
      </trkpt>
      <trkpt lat="44.89044" lon="5.42147">
        <ele>871</ele>
        <time>2020-05-22T08:59:07.852Z</time>
      </trkpt>
      <trkpt lat="44.8904" lon="5.42147">
        <ele>871</ele>
        <time>2020-05-22T08:59:08.852Z</time>
      </trkpt>
      <trkpt lat="44.89037" lon="5.42148">
        <ele>870</ele>
        <time>2020-05-22T08:59:09.852Z</time>
      </trkpt>
      <trkpt lat="44.89033" lon="5.42148">
        <ele>870</ele>
        <time>2020-05-22T08:59:10.852Z</time>
      </trkpt>
      <trkpt lat="44.89031" lon="5.42149">
        <ele>870</ele>
        <time>2020-05-22T08:59:11.852Z</time>
      </trkpt>
      <trkpt lat="44.89028" lon="5.42149">
        <ele>869</ele>
        <time>2020-05-22T08:59:12.852Z</time>
      </trkpt>
      <trkpt lat="44.89024" lon="5.4215">
        <ele>869</ele>
        <time>2020-05-22T08:59:13.853Z</time>
      </trkpt>
      <trkpt lat="44.89022" lon="5.4215">
        <ele>869</ele>
        <time>2020-05-22T08:59:14.852Z</time>
      </trkpt>
      <trkpt lat="44.8902" lon="5.4215">
        <ele>869</ele>
        <time>2020-05-22T08:59:15.852Z</time>
      </trkpt>
      <trkpt lat="44.89016" lon="5.4215">
        <ele>869</ele>
        <time>2020-05-22T08:59:16.852Z</time>
      </trkpt>
      <trkpt lat="44.89014" lon="5.4215">
        <ele>870</ele>
        <time>2020-05-22T08:59:17.853Z</time>
      </trkpt>
      <trkpt lat="44.8901" lon="5.4215">
        <ele>870</ele>
        <time>2020-05-22T08:59:18.852Z</time>
      </trkpt>
      <trkpt lat="44.89006" lon="5.4215">
        <ele>870</ele>
        <time>2020-05-22T08:59:19.852Z</time>
      </trkpt>
      <trkpt lat="44.89003" lon="5.4215">
        <ele>871</ele>
        <time>2020-05-22T08:59:20.852Z</time>
      </trkpt>
      <trkpt lat="44.89" lon="5.42149">
        <ele>871</ele>
        <time>2020-05-22T08:59:21.852Z</time>
      </trkpt>
      <trkpt lat="44.88997" lon="5.42149">
        <ele>871</ele>
        <time>2020-05-22T08:59:22.852Z</time>
      </trkpt>
      <trkpt lat="44.88993" lon="5.42148">
        <ele>871</ele>
        <time>2020-05-22T08:59:23.852Z</time>
      </trkpt>
      <trkpt lat="44.8899" lon="5.42148">
        <ele>871</ele>
        <time>2020-05-22T08:59:24.852Z</time>
      </trkpt>
      <trkpt lat="44.88987" lon="5.42147">
        <ele>871</ele>
        <time>2020-05-22T08:59:25.852Z</time>
      </trkpt>
      <trkpt lat="44.88984" lon="5.42146">
        <ele>871</ele>
        <time>2020-05-22T08:59:26.852Z</time>
      </trkpt>
      <trkpt lat="44.88981" lon="5.42146">
        <ele>870</ele>
        <time>2020-05-22T08:59:27.852Z</time>
      </trkpt>
      <trkpt lat="44.88978" lon="5.42145">
        <ele>870</ele>
        <time>2020-05-22T08:59:28.852Z</time>
      </trkpt>
      <trkpt lat="44.88974" lon="5.42145">
        <ele>870</ele>
        <time>2020-05-22T08:59:29.852Z</time>
      </trkpt>
      <trkpt lat="44.88971" lon="5.42144">
        <ele>870</ele>
        <time>2020-05-22T08:59:30.852Z</time>
      </trkpt>
      <trkpt lat="44.88968" lon="5.42144">
        <ele>870</ele>
        <time>2020-05-22T08:59:31.853Z</time>
      </trkpt>
      <trkpt lat="44.88965" lon="5.42143">
        <ele>870</ele>
        <time>2020-05-22T08:59:32.852Z</time>
      </trkpt>
      <trkpt lat="44.88961" lon="5.42142">
        <ele>870</ele>
        <time>2020-05-22T08:59:33.852Z</time>
      </trkpt>
      <trkpt lat="44.88959" lon="5.42142">
        <ele>870</ele>
        <time>2020-05-22T08:59:34.852Z</time>
      </trkpt>
      <trkpt lat="44.88954" lon="5.42141">
        <ele>870</ele>
        <time>2020-05-22T08:59:35.852Z</time>
      </trkpt>
      <trkpt lat="44.88952" lon="5.4214">
        <ele>870</ele>
        <time>2020-05-22T08:59:36.853Z</time>
      </trkpt>
      <trkpt lat="44.88948" lon="5.4214">
        <ele>870</ele>
        <time>2020-05-22T08:59:37.852Z</time>
      </trkpt>
      <trkpt lat="44.88944" lon="5.42139">
        <ele>870</ele>
        <time>2020-05-22T08:59:38.852Z</time>
      </trkpt>
      <trkpt lat="44.88942" lon="5.42138">
        <ele>870</ele>
        <time>2020-05-22T08:59:39.852Z</time>
      </trkpt>
      <trkpt lat="44.88938" lon="5.42138">
        <ele>869</ele>
        <time>2020-05-22T08:59:40.852Z</time>
      </trkpt>
      <trkpt lat="44.88935" lon="5.42137">
        <ele>869</ele>
        <time>2020-05-22T08:59:41.852Z</time>
      </trkpt>
      <trkpt lat="44.88931" lon="5.42136">
        <ele>869</ele>
        <time>2020-05-22T08:59:42.852Z</time>
      </trkpt>
      <trkpt lat="44.88927" lon="5.42135">
        <ele>868</ele>
        <time>2020-05-22T08:59:43.852Z</time>
      </trkpt>
      <trkpt lat="44.88923" lon="5.42135">
        <ele>868</ele>
        <time>2020-05-22T08:59:44.852Z</time>
      </trkpt>
      <trkpt lat="44.88919" lon="5.42133">
        <ele>867</ele>
        <time>2020-05-22T08:59:45.852Z</time>
      </trkpt>
      <trkpt lat="44.88916" lon="5.42132">
        <ele>867</ele>
        <time>2020-05-22T08:59:46.852Z</time>
      </trkpt>
      <trkpt lat="44.88913" lon="5.42132">
        <ele>867</ele>
        <time>2020-05-22T08:59:47.852Z</time>
      </trkpt>
      <trkpt lat="44.88908" lon="5.42131">
        <ele>867</ele>
        <time>2020-05-22T08:59:48.853Z</time>
      </trkpt>
      <trkpt lat="44.88905" lon="5.4213">
        <ele>868</ele>
        <time>2020-05-22T08:59:49.853Z</time>
      </trkpt>
      <trkpt lat="44.88902" lon="5.4213">
        <ele>868</ele>
        <time>2020-05-22T08:59:50.852Z</time>
      </trkpt>
      <trkpt lat="44.88899" lon="5.42129">
        <ele>868</ele>
        <time>2020-05-22T08:59:51.852Z</time>
      </trkpt>
      <trkpt lat="44.88896" lon="5.42128">
        <ele>868</ele>
        <time>2020-05-22T08:59:52.852Z</time>
      </trkpt>
      <trkpt lat="44.88892" lon="5.42128">
        <ele>868</ele>
        <time>2020-05-22T08:59:53.853Z</time>
      </trkpt>
      <trkpt lat="44.88889" lon="5.42127">
        <ele>868</ele>
        <time>2020-05-22T08:59:54.853Z</time>
      </trkpt>
      <trkpt lat="44.88886" lon="5.42126">
        <ele>868</ele>
        <time>2020-05-22T08:59:55.853Z</time>
      </trkpt>
      <trkpt lat="44.88883" lon="5.42126">
        <ele>868</ele>
        <time>2020-05-22T08:59:56.853Z</time>
      </trkpt>
      <trkpt lat="44.8888" lon="5.42125">
        <ele>869</ele>
        <time>2020-05-22T08:59:57.853Z</time>
      </trkpt>
      <trkpt lat="44.88876" lon="5.42125">
        <ele>869</ele>
        <time>2020-05-22T08:59:58.853Z</time>
      </trkpt>
      <trkpt lat="44.88872" lon="5.42125">
        <ele>870</ele>
        <time>2020-05-22T08:59:59.853Z</time>
      </trkpt>
      <trkpt lat="44.8887" lon="5.42125">
        <ele>870</ele>
        <time>2020-05-22T09:00:00.853Z</time>
      </trkpt>
      <trkpt lat="44.88867" lon="5.42125">
        <ele>871</ele>
        <time>2020-05-22T09:00:01.853Z</time>
      </trkpt>
      <trkpt lat="44.88862" lon="5.42125">
        <ele>871</ele>
        <time>2020-05-22T09:00:02.853Z</time>
      </trkpt>
      <trkpt lat="44.88859" lon="5.42124">
        <ele>871</ele>
        <time>2020-05-22T09:00:03.853Z</time>
      </trkpt>
      <trkpt lat="44.88857" lon="5.42123">
        <ele>871</ele>
        <time>2020-05-22T09:00:04.852Z</time>
      </trkpt>
      <trkpt lat="44.88853" lon="5.42123">
        <ele>871</ele>
        <time>2020-05-22T09:00:05.853Z</time>
      </trkpt>
      <trkpt lat="44.8885" lon="5.42122">
        <ele>871</ele>
        <time>2020-05-22T09:00:06.853Z</time>
      </trkpt>
      <trkpt lat="44.88847" lon="5.42121">
        <ele>871</ele>
        <time>2020-05-22T09:00:07.853Z</time>
      </trkpt>
      <trkpt lat="44.88843" lon="5.42121">
        <ele>871</ele>
        <time>2020-05-22T09:00:08.853Z</time>
      </trkpt>
      <trkpt lat="44.8884" lon="5.4212">
        <ele>872</ele>
        <time>2020-05-22T09:00:09.853Z</time>
      </trkpt>
      <trkpt lat="44.88837" lon="5.4212">
        <ele>872</ele>
        <time>2020-05-22T09:00:10.853Z</time>
      </trkpt>
      <trkpt lat="44.88833" lon="5.4212">
        <ele>872</ele>
        <time>2020-05-22T09:00:11.853Z</time>
      </trkpt>
      <trkpt lat="44.8883" lon="5.42119">
        <ele>873</ele>
        <time>2020-05-22T09:00:12.853Z</time>
      </trkpt>
      <trkpt lat="44.88826" lon="5.42118">
        <ele>873</ele>
        <time>2020-05-22T09:00:13.852Z</time>
      </trkpt>
      <trkpt lat="44.88822" lon="5.42118">
        <ele>873</ele>
        <time>2020-05-22T09:00:14.853Z</time>
      </trkpt>
      <trkpt lat="44.8882" lon="5.42117">
        <ele>873</ele>
        <time>2020-05-22T09:00:15.853Z</time>
      </trkpt>
      <trkpt lat="44.88816" lon="5.42116">
        <ele>873</ele>
        <time>2020-05-22T09:00:16.852Z</time>
      </trkpt>
      <trkpt lat="44.88813" lon="5.42116">
        <ele>873</ele>
        <time>2020-05-22T09:00:17.853Z</time>
      </trkpt>
      <trkpt lat="44.88809" lon="5.42115">
        <ele>873</ele>
        <time>2020-05-22T09:00:18.853Z</time>
      </trkpt>
      <trkpt lat="44.88805" lon="5.42114">
        <ele>873</ele>
        <time>2020-05-22T09:00:19.853Z</time>
      </trkpt>
      <trkpt lat="44.88802" lon="5.42114">
        <ele>873</ele>
        <time>2020-05-22T09:00:20.853Z</time>
      </trkpt>
      <trkpt lat="44.88799" lon="5.42114">
        <ele>873</ele>
        <time>2020-05-22T09:00:21.852Z</time>
      </trkpt>
      <trkpt lat="44.88795" lon="5.42113">
        <ele>873</ele>
        <time>2020-05-22T09:00:22.853Z</time>
      </trkpt>
      <trkpt lat="44.88791" lon="5.42112">
        <ele>874</ele>
        <time>2020-05-22T09:00:23.853Z</time>
      </trkpt>
      <trkpt lat="44.88787" lon="5.42112">
        <ele>874</ele>
        <time>2020-05-22T09:00:24.853Z</time>
      </trkpt>
      <trkpt lat="44.88784" lon="5.42111">
        <ele>874</ele>
        <time>2020-05-22T09:00:25.853Z</time>
      </trkpt>
      <trkpt lat="44.88781" lon="5.4211">
        <ele>874</ele>
        <time>2020-05-22T09:00:26.853Z</time>
      </trkpt>
      <trkpt lat="44.88777" lon="5.4211">
        <ele>874</ele>
        <time>2020-05-22T09:00:27.853Z</time>
      </trkpt>
      <trkpt lat="44.88774" lon="5.42109">
        <ele>875</ele>
        <time>2020-05-22T09:00:28.853Z</time>
      </trkpt>
      <trkpt lat="44.88771" lon="5.42109">
        <ele>875</ele>
        <time>2020-05-22T09:00:29.853Z</time>
      </trkpt>
      <trkpt lat="44.88767" lon="5.42108">
        <ele>875</ele>
        <time>2020-05-22T09:00:30.853Z</time>
      </trkpt>
      <trkpt lat="44.88764" lon="5.42107">
        <ele>875</ele>
        <time>2020-05-22T09:00:31.853Z</time>
      </trkpt>
      <trkpt lat="44.8876" lon="5.42107">
        <ele>875</ele>
        <time>2020-05-22T09:00:32.853Z</time>
      </trkpt>
      <trkpt lat="44.88758" lon="5.42106">
        <ele>875</ele>
        <time>2020-05-22T09:00:33.853Z</time>
      </trkpt>
      <trkpt lat="44.88755" lon="5.42105">
        <ele>875</ele>
        <time>2020-05-22T09:00:34.852Z</time>
      </trkpt>
      <trkpt lat="44.88752" lon="5.42104">
        <ele>875</ele>
        <time>2020-05-22T09:00:35.853Z</time>
      </trkpt>
      <trkpt lat="44.88748" lon="5.42104">
        <ele>875</ele>
        <time>2020-05-22T09:00:36.853Z</time>
      </trkpt>
      <trkpt lat="44.88745" lon="5.42104">
        <ele>875</ele>
        <time>2020-05-22T09:00:37.853Z</time>
      </trkpt>
      <trkpt lat="44.88742" lon="5.42103">
        <ele>875</ele>
        <time>2020-05-22T09:00:38.852Z</time>
      </trkpt>
      <trkpt lat="44.88738" lon="5.42103">
        <ele>875</ele>
        <time>2020-05-22T09:00:39.852Z</time>
      </trkpt>
      <trkpt lat="44.88736" lon="5.42103">
        <ele>875</ele>
        <time>2020-05-22T09:00:40.852Z</time>
      </trkpt>
      <trkpt lat="44.88733" lon="5.42102">
        <ele>875</ele>
        <time>2020-05-22T09:00:41.853Z</time>
      </trkpt>
      <trkpt lat="44.8873" lon="5.42102">
        <ele>875</ele>
        <time>2020-05-22T09:00:42.852Z</time>
      </trkpt>
      <trkpt lat="44.88726" lon="5.42101">
        <ele>875</ele>
        <time>2020-05-22T09:00:43.853Z</time>
      </trkpt>
      <trkpt lat="44.88723" lon="5.421">
        <ele>874</ele>
        <time>2020-05-22T09:00:44.853Z</time>
      </trkpt>
      <trkpt lat="44.88721" lon="5.421">
        <ele>874</ele>
        <time>2020-05-22T09:00:45.853Z</time>
      </trkpt>
      <trkpt lat="44.88718" lon="5.42099">
        <ele>874</ele>
        <time>2020-05-22T09:00:46.853Z</time>
      </trkpt>
      <trkpt lat="44.88714" lon="5.42099">
        <ele>874</ele>
        <time>2020-05-22T09:00:47.852Z</time>
      </trkpt>
      <trkpt lat="44.88711" lon="5.42099">
        <ele>874</ele>
        <time>2020-05-22T09:00:48.853Z</time>
      </trkpt>
      <trkpt lat="44.88708" lon="5.42098">
        <ele>874</ele>
        <time>2020-05-22T09:00:49.853Z</time>
      </trkpt>
      <trkpt lat="44.88706" lon="5.42098">
        <ele>874</ele>
        <time>2020-05-22T09:00:50.853Z</time>
      </trkpt>
      <trkpt lat="44.88702" lon="5.42097">
        <ele>875</ele>
        <time>2020-05-22T09:00:51.853Z</time>
      </trkpt>
      <trkpt lat="44.88699" lon="5.42097">
        <ele>875</ele>
        <time>2020-05-22T09:00:52.853Z</time>
      </trkpt>
      <trkpt lat="44.88697" lon="5.42096">
        <ele>875</ele>
        <time>2020-05-22T09:00:53.853Z</time>
      </trkpt>
      <trkpt lat="44.88694" lon="5.42095">
        <ele>876</ele>
        <time>2020-05-22T09:00:54.853Z</time>
      </trkpt>
      <trkpt lat="44.88691" lon="5.42095">
        <ele>876</ele>
        <time>2020-05-22T09:00:55.853Z</time>
      </trkpt>
      <trkpt lat="44.88687" lon="5.42094">
        <ele>876</ele>
        <time>2020-05-22T09:00:56.852Z</time>
      </trkpt>
      <trkpt lat="44.88684" lon="5.42093">
        <ele>876</ele>
        <time>2020-05-22T09:00:57.853Z</time>
      </trkpt>
      <trkpt lat="44.88681" lon="5.42093">
        <ele>876</ele>
        <time>2020-05-22T09:00:58.852Z</time>
      </trkpt>
      <trkpt lat="44.88678" lon="5.42092">
        <ele>877</ele>
        <time>2020-05-22T09:00:59.852Z</time>
      </trkpt>
      <trkpt lat="44.88675" lon="5.42092">
        <ele>877</ele>
        <time>2020-05-22T09:01:00.852Z</time>
      </trkpt>
      <trkpt lat="44.88671" lon="5.42092">
        <ele>878</ele>
        <time>2020-05-22T09:01:01.853Z</time>
      </trkpt>
      <trkpt lat="44.88667" lon="5.42091">
        <ele>878</ele>
        <time>2020-05-22T09:01:02.853Z</time>
      </trkpt>
      <trkpt lat="44.88665" lon="5.42091">
        <ele>878</ele>
        <time>2020-05-22T09:01:03.852Z</time>
      </trkpt>
      <trkpt lat="44.88661" lon="5.4209">
        <ele>878</ele>
        <time>2020-05-22T09:01:04.853Z</time>
      </trkpt>
      <trkpt lat="44.88657" lon="5.4209">
        <ele>878</ele>
        <time>2020-05-22T09:01:05.852Z</time>
      </trkpt>
      <trkpt lat="44.88654" lon="5.42089">
        <ele>878</ele>
        <time>2020-05-22T09:01:06.852Z</time>
      </trkpt>
      <trkpt lat="44.88651" lon="5.42088">
        <ele>878</ele>
        <time>2020-05-22T09:01:07.852Z</time>
      </trkpt>
      <trkpt lat="44.88648" lon="5.42088">
        <ele>878</ele>
        <time>2020-05-22T09:01:08.853Z</time>
      </trkpt>
      <trkpt lat="44.88645" lon="5.42087">
        <ele>878</ele>
        <time>2020-05-22T09:01:09.853Z</time>
      </trkpt>
      <trkpt lat="44.88641" lon="5.42087">
        <ele>878</ele>
        <time>2020-05-22T09:01:10.853Z</time>
      </trkpt>
      <trkpt lat="44.88639" lon="5.42087">
        <ele>878</ele>
        <time>2020-05-22T09:01:11.852Z</time>
      </trkpt>
      <trkpt lat="44.88635" lon="5.42086">
        <ele>879</ele>
        <time>2020-05-22T09:01:12.853Z</time>
      </trkpt>
      <trkpt lat="44.88632" lon="5.42086">
        <ele>879</ele>
        <time>2020-05-22T09:01:13.853Z</time>
      </trkpt>
      <trkpt lat="44.88629" lon="5.42085">
        <ele>879</ele>
        <time>2020-05-22T09:01:14.853Z</time>
      </trkpt>
      <trkpt lat="44.88626" lon="5.42085">
        <ele>879</ele>
        <time>2020-05-22T09:01:15.852Z</time>
      </trkpt>
      <trkpt lat="44.88623" lon="5.42084">
        <ele>879</ele>
        <time>2020-05-22T09:01:16.852Z</time>
      </trkpt>
      <trkpt lat="44.88619" lon="5.42083">
        <ele>879</ele>
        <time>2020-05-22T09:01:17.852Z</time>
      </trkpt>
      <trkpt lat="44.88617" lon="5.42083">
        <ele>879</ele>
        <time>2020-05-22T09:01:18.852Z</time>
      </trkpt>
      <trkpt lat="44.88613" lon="5.42083">
        <ele>879</ele>
        <time>2020-05-22T09:01:19.853Z</time>
      </trkpt>
      <trkpt lat="44.8861" lon="5.42082">
        <ele>879</ele>
        <time>2020-05-22T09:01:20.852Z</time>
      </trkpt>
      <trkpt lat="44.88607" lon="5.42082">
        <ele>879</ele>
        <time>2020-05-22T09:01:21.853Z</time>
      </trkpt>
      <trkpt lat="44.88603" lon="5.42081">
        <ele>879</ele>
        <time>2020-05-22T09:01:22.852Z</time>
      </trkpt>
      <trkpt lat="44.886" lon="5.42081">
        <ele>879</ele>
        <time>2020-05-22T09:01:23.853Z</time>
      </trkpt>
      <trkpt lat="44.88597" lon="5.4208">
        <ele>879</ele>
        <time>2020-05-22T09:01:24.853Z</time>
      </trkpt>
      <trkpt lat="44.88593" lon="5.4208">
        <ele>879</ele>
        <time>2020-05-22T09:01:25.852Z</time>
      </trkpt>
      <trkpt lat="44.8859" lon="5.42079">
        <ele>879</ele>
        <time>2020-05-22T09:01:26.852Z</time>
      </trkpt>
      <trkpt lat="44.88587" lon="5.42079">
        <ele>880</ele>
        <time>2020-05-22T09:01:27.852Z</time>
      </trkpt>
      <trkpt lat="44.88585" lon="5.42078">
        <ele>880</ele>
        <time>2020-05-22T09:01:28.852Z</time>
      </trkpt>
      <trkpt lat="44.88581" lon="5.42078">
        <ele>880</ele>
        <time>2020-05-22T09:01:29.853Z</time>
      </trkpt>
      <trkpt lat="44.88578" lon="5.42077">
        <ele>880</ele>
        <time>2020-05-22T09:01:30.853Z</time>
      </trkpt>
      <trkpt lat="44.88574" lon="5.42077">
        <ele>880</ele>
        <time>2020-05-22T09:01:31.853Z</time>
      </trkpt>
      <trkpt lat="44.88572" lon="5.42076">
        <ele>880</ele>
        <time>2020-05-22T09:01:32.853Z</time>
      </trkpt>
      <trkpt lat="44.88568" lon="5.42076">
        <ele>880</ele>
        <time>2020-05-22T09:01:33.853Z</time>
      </trkpt>
      <trkpt lat="44.88565" lon="5.42075">
        <ele>880</ele>
        <time>2020-05-22T09:01:34.852Z</time>
      </trkpt>
      <trkpt lat="44.88562" lon="5.42074">
        <ele>881</ele>
        <time>2020-05-22T09:01:35.852Z</time>
      </trkpt>
      <trkpt lat="44.88558" lon="5.42074">
        <ele>881</ele>
        <time>2020-05-22T09:01:36.852Z</time>
      </trkpt>
      <trkpt lat="44.88555" lon="5.42073">
        <ele>881</ele>
        <time>2020-05-22T09:01:37.853Z</time>
      </trkpt>
      <trkpt lat="44.88552" lon="5.42073">
        <ele>881</ele>
        <time>2020-05-22T09:01:38.853Z</time>
      </trkpt>
      <trkpt lat="44.88548" lon="5.42072">
        <ele>882</ele>
        <time>2020-05-22T09:01:39.852Z</time>
      </trkpt>
      <trkpt lat="44.88545" lon="5.42071">
        <ele>882</ele>
        <time>2020-05-22T09:01:40.853Z</time>
      </trkpt>
      <trkpt lat="44.88541" lon="5.42071">
        <ele>883</ele>
        <time>2020-05-22T09:01:41.852Z</time>
      </trkpt>
      <trkpt lat="44.88539" lon="5.4207">
        <ele>883</ele>
        <time>2020-05-22T09:01:42.852Z</time>
      </trkpt>
      <trkpt lat="44.88536" lon="5.4207">
        <ele>883</ele>
        <time>2020-05-22T09:01:43.853Z</time>
      </trkpt>
      <trkpt lat="44.88533" lon="5.42069">
        <ele>883</ele>
        <time>2020-05-22T09:01:44.853Z</time>
      </trkpt>
      <trkpt lat="44.88529" lon="5.42069">
        <ele>882</ele>
        <time>2020-05-22T09:01:45.853Z</time>
      </trkpt>
      <trkpt lat="44.88526" lon="5.42068">
        <ele>882</ele>
        <time>2020-05-22T09:01:46.852Z</time>
      </trkpt>
      <trkpt lat="44.88523" lon="5.42068">
        <ele>882</ele>
        <time>2020-05-22T09:01:47.853Z</time>
      </trkpt>
      <trkpt lat="44.8852" lon="5.42068">
        <ele>882</ele>
        <time>2020-05-22T09:01:48.853Z</time>
      </trkpt>
      <trkpt lat="44.88518" lon="5.42067">
        <ele>883</ele>
        <time>2020-05-22T09:01:49.853Z</time>
      </trkpt>
      <trkpt lat="44.88514" lon="5.42067">
        <ele>883</ele>
        <time>2020-05-22T09:01:50.853Z</time>
      </trkpt>
      <trkpt lat="44.88511" lon="5.42066">
        <ele>884</ele>
        <time>2020-05-22T09:01:51.853Z</time>
      </trkpt>
      <trkpt lat="44.88509" lon="5.42066">
        <ele>884</ele>
        <time>2020-05-22T09:01:52.853Z</time>
      </trkpt>
      <trkpt lat="44.88506" lon="5.42065">
        <ele>884</ele>
        <time>2020-05-22T09:01:53.853Z</time>
      </trkpt>
      <trkpt lat="44.88503" lon="5.42065">
        <ele>884</ele>
        <time>2020-05-22T09:01:54.853Z</time>
      </trkpt>
      <trkpt lat="44.885" lon="5.42065">
        <ele>884</ele>
        <time>2020-05-22T09:01:55.853Z</time>
      </trkpt>
      <trkpt lat="44.88497" lon="5.42064">
        <ele>884</ele>
        <time>2020-05-22T09:01:56.853Z</time>
      </trkpt>
      <trkpt lat="44.88494" lon="5.42064">
        <ele>884</ele>
        <time>2020-05-22T09:01:57.853Z</time>
      </trkpt>
      <trkpt lat="44.88491" lon="5.42064">
        <ele>885</ele>
        <time>2020-05-22T09:01:58.853Z</time>
      </trkpt>
      <trkpt lat="44.88488" lon="5.42064">
        <ele>885</ele>
        <time>2020-05-22T09:01:59.852Z</time>
      </trkpt>
      <trkpt lat="44.88485" lon="5.42063">
        <ele>885</ele>
        <time>2020-05-22T09:02:00.853Z</time>
      </trkpt>
      <trkpt lat="44.88482" lon="5.42063">
        <ele>885</ele>
        <time>2020-05-22T09:02:01.852Z</time>
      </trkpt>
      <trkpt lat="44.88479" lon="5.42063">
        <ele>885</ele>
        <time>2020-05-22T09:02:02.852Z</time>
      </trkpt>
      <trkpt lat="44.88476" lon="5.42062">
        <ele>884</ele>
        <time>2020-05-22T09:02:03.853Z</time>
      </trkpt>
      <trkpt lat="44.88473" lon="5.42062">
        <ele>884</ele>
        <time>2020-05-22T09:02:04.853Z</time>
      </trkpt>
      <trkpt lat="44.88469" lon="5.42062">
        <ele>884</ele>
        <time>2020-05-22T09:02:05.852Z</time>
      </trkpt>
      <trkpt lat="44.88467" lon="5.42062">
        <ele>884</ele>
        <time>2020-05-22T09:02:06.853Z</time>
      </trkpt>
      <trkpt lat="44.88464" lon="5.42062">
        <ele>884</ele>
        <time>2020-05-22T09:02:07.853Z</time>
      </trkpt>
      <trkpt lat="44.88461" lon="5.42062">
        <ele>884</ele>
        <time>2020-05-22T09:02:08.853Z</time>
      </trkpt>
      <trkpt lat="44.88457" lon="5.42062">
        <ele>885</ele>
        <time>2020-05-22T09:02:09.853Z</time>
      </trkpt>
      <trkpt lat="44.88454" lon="5.42062">
        <ele>885</ele>
        <time>2020-05-22T09:02:10.852Z</time>
      </trkpt>
      <trkpt lat="44.8845" lon="5.42063">
        <ele>886</ele>
        <time>2020-05-22T09:02:11.852Z</time>
      </trkpt>
      <trkpt lat="44.88447" lon="5.42063">
        <ele>886</ele>
        <time>2020-05-22T09:02:12.853Z</time>
      </trkpt>
      <trkpt lat="44.88444" lon="5.42063">
        <ele>887</ele>
        <time>2020-05-22T09:02:13.852Z</time>
      </trkpt>
      <trkpt lat="44.8844" lon="5.42064">
        <ele>888</ele>
        <time>2020-05-22T09:02:14.853Z</time>
      </trkpt>
      <trkpt lat="44.88437" lon="5.42064">
        <ele>888</ele>
        <time>2020-05-22T09:02:15.853Z</time>
      </trkpt>
      <trkpt lat="44.88434" lon="5.42064">
        <ele>889</ele>
        <time>2020-05-22T09:02:16.852Z</time>
      </trkpt>
      <trkpt lat="44.8843" lon="5.42065">
        <ele>889</ele>
        <time>2020-05-22T09:02:17.853Z</time>
      </trkpt>
      <trkpt lat="44.88427" lon="5.42065">
        <ele>890</ele>
        <time>2020-05-22T09:02:18.853Z</time>
      </trkpt>
      <trkpt lat="44.88423" lon="5.42066">
        <ele>891</ele>
        <time>2020-05-22T09:02:19.853Z</time>
      </trkpt>
      <trkpt lat="44.8842" lon="5.42066">
        <ele>891</ele>
        <time>2020-05-22T09:02:20.852Z</time>
      </trkpt>
      <trkpt lat="44.88417" lon="5.42067">
        <ele>892</ele>
        <time>2020-05-22T09:02:21.852Z</time>
      </trkpt>
      <trkpt lat="44.88413" lon="5.42067">
        <ele>892</ele>
        <time>2020-05-22T09:02:22.852Z</time>
      </trkpt>
      <trkpt lat="44.8841" lon="5.42067">
        <ele>892</ele>
        <time>2020-05-22T09:02:23.853Z</time>
      </trkpt>
      <trkpt lat="44.88407" lon="5.42067">
        <ele>892</ele>
        <time>2020-05-22T09:02:24.852Z</time>
      </trkpt>
      <trkpt lat="44.88403" lon="5.42067">
        <ele>891</ele>
        <time>2020-05-22T09:02:25.853Z</time>
      </trkpt>
      <trkpt lat="44.884" lon="5.42068">
        <ele>891</ele>
        <time>2020-05-22T09:02:26.853Z</time>
      </trkpt>
      <trkpt lat="44.88396" lon="5.42068">
        <ele>892</ele>
        <time>2020-05-22T09:02:27.853Z</time>
      </trkpt>
      <trkpt lat="44.88393" lon="5.42068">
        <ele>892</ele>
        <time>2020-05-22T09:02:28.852Z</time>
      </trkpt>
      <trkpt lat="44.8839" lon="5.42068">
        <ele>892</ele>
        <time>2020-05-22T09:02:29.853Z</time>
      </trkpt>
      <trkpt lat="44.88387" lon="5.42068">
        <ele>891</ele>
        <time>2020-05-22T09:02:30.853Z</time>
      </trkpt>
      <trkpt lat="44.88383" lon="5.42067">
        <ele>891</ele>
        <time>2020-05-22T09:02:31.853Z</time>
      </trkpt>
      <trkpt lat="44.8838" lon="5.42067">
        <ele>891</ele>
        <time>2020-05-22T09:02:32.852Z</time>
      </trkpt>
      <trkpt lat="44.88377" lon="5.42067">
        <ele>891</ele>
        <time>2020-05-22T09:02:33.853Z</time>
      </trkpt>
      <trkpt lat="44.88374" lon="5.42066">
        <ele>891</ele>
        <time>2020-05-22T09:02:34.852Z</time>
      </trkpt>
      <trkpt lat="44.88371" lon="5.42066">
        <ele>891</ele>
        <time>2020-05-22T09:02:35.853Z</time>
      </trkpt>
      <trkpt lat="44.88368" lon="5.42065">
        <ele>891</ele>
        <time>2020-05-22T09:02:36.853Z</time>
      </trkpt>
      <trkpt lat="44.88364" lon="5.42064">
        <ele>891</ele>
        <time>2020-05-22T09:02:37.852Z</time>
      </trkpt>
      <trkpt lat="44.88361" lon="5.42063">
        <ele>891</ele>
        <time>2020-05-22T09:02:38.853Z</time>
      </trkpt>
      <trkpt lat="44.88358" lon="5.42062">
        <ele>891</ele>
        <time>2020-05-22T09:02:39.853Z</time>
      </trkpt>
      <trkpt lat="44.88355" lon="5.42061">
        <ele>892</ele>
        <time>2020-05-22T09:02:40.852Z</time>
      </trkpt>
      <trkpt lat="44.88352" lon="5.4206">
        <ele>892</ele>
        <time>2020-05-22T09:02:41.853Z</time>
      </trkpt>
      <trkpt lat="44.88349" lon="5.42059">
        <ele>892</ele>
        <time>2020-05-22T09:02:42.853Z</time>
      </trkpt>
      <trkpt lat="44.88345" lon="5.42057">
        <ele>893</ele>
        <time>2020-05-22T09:02:43.852Z</time>
      </trkpt>
      <trkpt lat="44.88342" lon="5.42056">
        <ele>894</ele>
        <time>2020-05-22T09:02:44.852Z</time>
      </trkpt>
      <trkpt lat="44.88339" lon="5.42055">
        <ele>895</ele>
        <time>2020-05-22T09:02:45.852Z</time>
      </trkpt>
      <trkpt lat="44.88336" lon="5.42053">
        <ele>896</ele>
        <time>2020-05-22T09:02:46.852Z</time>
      </trkpt>
      <trkpt lat="44.88333" lon="5.42052">
        <ele>897</ele>
        <time>2020-05-22T09:02:47.853Z</time>
      </trkpt>
      <trkpt lat="44.8833" lon="5.4205">
        <ele>898</ele>
        <time>2020-05-22T09:02:48.853Z</time>
      </trkpt>
      <trkpt lat="44.88327" lon="5.42049">
        <ele>898</ele>
        <time>2020-05-22T09:02:49.853Z</time>
      </trkpt>
      <trkpt lat="44.88324" lon="5.42047">
        <ele>898</ele>
        <time>2020-05-22T09:02:50.852Z</time>
      </trkpt>
      <trkpt lat="44.88321" lon="5.42046">
        <ele>898</ele>
        <time>2020-05-22T09:02:51.852Z</time>
      </trkpt>
      <trkpt lat="44.88318" lon="5.42045">
        <ele>898</ele>
        <time>2020-05-22T09:02:52.853Z</time>
      </trkpt>
      <trkpt lat="44.88315" lon="5.42043">
        <ele>898</ele>
        <time>2020-05-22T09:02:53.853Z</time>
      </trkpt>
      <trkpt lat="44.88311" lon="5.42041">
        <ele>899</ele>
        <time>2020-05-22T09:02:54.852Z</time>
      </trkpt>
      <trkpt lat="44.88308" lon="5.4204">
        <ele>899</ele>
        <time>2020-05-22T09:02:55.853Z</time>
      </trkpt>
      <trkpt lat="44.88305" lon="5.42038">
        <ele>899</ele>
        <time>2020-05-22T09:02:56.852Z</time>
      </trkpt>
      <trkpt lat="44.88303" lon="5.42037">
        <ele>899</ele>
        <time>2020-05-22T09:02:57.853Z</time>
      </trkpt>
      <trkpt lat="44.883" lon="5.42036">
        <ele>898</ele>
        <time>2020-05-22T09:02:58.853Z</time>
      </trkpt>
      <trkpt lat="44.88297" lon="5.42034">
        <ele>898</ele>
        <time>2020-05-22T09:02:59.853Z</time>
      </trkpt>
      <trkpt lat="44.88294" lon="5.42033">
        <ele>898</ele>
        <time>2020-05-22T09:03:00.853Z</time>
      </trkpt>
      <trkpt lat="44.88291" lon="5.42031">
        <ele>898</ele>
        <time>2020-05-22T09:03:01.853Z</time>
      </trkpt>
      <trkpt lat="44.88288" lon="5.4203">
        <ele>898</ele>
        <time>2020-05-22T09:03:02.853Z</time>
      </trkpt>
      <trkpt lat="44.88286" lon="5.42029">
        <ele>899</ele>
        <time>2020-05-22T09:03:03.853Z</time>
      </trkpt>
      <trkpt lat="44.88282" lon="5.42027">
        <ele>899</ele>
        <time>2020-05-22T09:03:04.852Z</time>
      </trkpt>
      <trkpt lat="44.8828" lon="5.42026">
        <ele>899</ele>
        <time>2020-05-22T09:03:05.853Z</time>
      </trkpt>
      <trkpt lat="44.88277" lon="5.42025">
        <ele>899</ele>
        <time>2020-05-22T09:03:06.853Z</time>
      </trkpt>
      <trkpt lat="44.88274" lon="5.42023">
        <ele>899</ele>
        <time>2020-05-22T09:03:07.853Z</time>
      </trkpt>
      <trkpt lat="44.88271" lon="5.42021">
        <ele>900</ele>
        <time>2020-05-22T09:03:08.853Z</time>
      </trkpt>
      <trkpt lat="44.88267" lon="5.4202">
        <ele>900</ele>
        <time>2020-05-22T09:03:09.852Z</time>
      </trkpt>
      <trkpt lat="44.88264" lon="5.42018">
        <ele>900</ele>
        <time>2020-05-22T09:03:10.853Z</time>
      </trkpt>
      <trkpt lat="44.88261" lon="5.42017">
        <ele>900</ele>
        <time>2020-05-22T09:03:11.852Z</time>
      </trkpt>
      <trkpt lat="44.88258" lon="5.42016">
        <ele>900</ele>
        <time>2020-05-22T09:03:12.852Z</time>
      </trkpt>
      <trkpt lat="44.88255" lon="5.42014">
        <ele>901</ele>
        <time>2020-05-22T09:03:13.853Z</time>
      </trkpt>
      <trkpt lat="44.88252" lon="5.42012">
        <ele>901</ele>
        <time>2020-05-22T09:03:14.853Z</time>
      </trkpt>
      <trkpt lat="44.88249" lon="5.42011">
        <ele>901</ele>
        <time>2020-05-22T09:03:15.853Z</time>
      </trkpt>
      <trkpt lat="44.88246" lon="5.42009">
        <ele>902</ele>
        <time>2020-05-22T09:03:16.852Z</time>
      </trkpt>
      <trkpt lat="44.88243" lon="5.42008">
        <ele>903</ele>
        <time>2020-05-22T09:03:17.852Z</time>
      </trkpt>
      <trkpt lat="44.8824" lon="5.42007">
        <ele>903</ele>
        <time>2020-05-22T09:03:18.853Z</time>
      </trkpt>
      <trkpt lat="44.88236" lon="5.42005">
        <ele>904</ele>
        <time>2020-05-22T09:03:19.852Z</time>
      </trkpt>
      <trkpt lat="44.88233" lon="5.42003">
        <ele>904</ele>
        <time>2020-05-22T09:03:20.853Z</time>
      </trkpt>
      <trkpt lat="44.88231" lon="5.42002">
        <ele>904</ele>
        <time>2020-05-22T09:03:21.853Z</time>
      </trkpt>
      <trkpt lat="44.88228" lon="5.42001">
        <ele>905</ele>
        <time>2020-05-22T09:03:22.853Z</time>
      </trkpt>
      <trkpt lat="44.88225" lon="5.42">
        <ele>905</ele>
        <time>2020-05-22T09:03:23.853Z</time>
      </trkpt>
      <trkpt lat="44.88221" lon="5.41998">
        <ele>904</ele>
        <time>2020-05-22T09:03:24.852Z</time>
      </trkpt>
      <trkpt lat="44.88218" lon="5.41996">
        <ele>904</ele>
        <time>2020-05-22T09:03:25.852Z</time>
      </trkpt>
      <trkpt lat="44.88216" lon="5.41995">
        <ele>904</ele>
        <time>2020-05-22T09:03:26.852Z</time>
      </trkpt>
      <trkpt lat="44.88213" lon="5.41993">
        <ele>904</ele>
        <time>2020-05-22T09:03:27.853Z</time>
      </trkpt>
      <trkpt lat="44.8821" lon="5.41992">
        <ele>903</ele>
        <time>2020-05-22T09:03:28.853Z</time>
      </trkpt>
      <trkpt lat="44.88206" lon="5.4199">
        <ele>904</ele>
        <time>2020-05-22T09:03:29.853Z</time>
      </trkpt>
      <trkpt lat="44.88203" lon="5.41988">
        <ele>904</ele>
        <time>2020-05-22T09:03:30.852Z</time>
      </trkpt>
      <trkpt lat="44.88201" lon="5.41987">
        <ele>904</ele>
        <time>2020-05-22T09:03:31.852Z</time>
      </trkpt>
      <trkpt lat="44.88198" lon="5.41986">
        <ele>903</ele>
        <time>2020-05-22T09:03:32.853Z</time>
      </trkpt>
      <trkpt lat="44.88195" lon="5.41984">
        <ele>903</ele>
        <time>2020-05-22T09:03:33.853Z</time>
      </trkpt>
      <trkpt lat="44.88192" lon="5.41983">
        <ele>903</ele>
        <time>2020-05-22T09:03:34.853Z</time>
      </trkpt>
      <trkpt lat="44.88189" lon="5.41982">
        <ele>902</ele>
        <time>2020-05-22T09:03:35.853Z</time>
      </trkpt>
      <trkpt lat="44.88186" lon="5.4198">
        <ele>903</ele>
        <time>2020-05-22T09:03:36.852Z</time>
      </trkpt>
      <trkpt lat="44.88183" lon="5.41979">
        <ele>902</ele>
        <time>2020-05-22T09:03:37.853Z</time>
      </trkpt>
      <trkpt lat="44.88179" lon="5.41978">
        <ele>902</ele>
        <time>2020-05-22T09:03:38.852Z</time>
      </trkpt>
      <trkpt lat="44.88177" lon="5.41976">
        <ele>902</ele>
        <time>2020-05-22T09:03:39.853Z</time>
      </trkpt>
      <trkpt lat="44.88174" lon="5.41975">
        <ele>902</ele>
        <time>2020-05-22T09:03:40.852Z</time>
      </trkpt>
      <trkpt lat="44.88171" lon="5.41973">
        <ele>903</ele>
        <time>2020-05-22T09:03:41.853Z</time>
      </trkpt>
      <trkpt lat="44.88168" lon="5.41972">
        <ele>903</ele>
        <time>2020-05-22T09:03:42.853Z</time>
      </trkpt>
      <trkpt lat="44.88165" lon="5.4197">
        <ele>903</ele>
        <time>2020-05-22T09:03:43.852Z</time>
      </trkpt>
      <trkpt lat="44.88162" lon="5.41968">
        <ele>903</ele>
        <time>2020-05-22T09:03:44.853Z</time>
      </trkpt>
      <trkpt lat="44.88159" lon="5.41967">
        <ele>904</ele>
        <time>2020-05-22T09:03:45.853Z</time>
      </trkpt>
      <trkpt lat="44.88156" lon="5.41965">
        <ele>905</ele>
        <time>2020-05-22T09:03:46.852Z</time>
      </trkpt>
      <trkpt lat="44.88154" lon="5.41964">
        <ele>905</ele>
        <time>2020-05-22T09:03:47.853Z</time>
      </trkpt>
      <trkpt lat="44.8815" lon="5.41962">
        <ele>906</ele>
        <time>2020-05-22T09:03:48.853Z</time>
      </trkpt>
      <trkpt lat="44.88148" lon="5.41961">
        <ele>906</ele>
        <time>2020-05-22T09:03:49.853Z</time>
      </trkpt>
      <trkpt lat="44.88145" lon="5.4196">
        <ele>906</ele>
        <time>2020-05-22T09:03:50.853Z</time>
      </trkpt>
      <trkpt lat="44.88142" lon="5.41958">
        <ele>906</ele>
        <time>2020-05-22T09:03:51.853Z</time>
      </trkpt>
      <trkpt lat="44.8814" lon="5.41957">
        <ele>906</ele>
        <time>2020-05-22T09:03:52.853Z</time>
      </trkpt>
      <trkpt lat="44.88136" lon="5.41955">
        <ele>906</ele>
        <time>2020-05-22T09:03:53.853Z</time>
      </trkpt>
      <trkpt lat="44.88134" lon="5.41954">
        <ele>905</ele>
        <time>2020-05-22T09:03:54.853Z</time>
      </trkpt>
      <trkpt lat="44.88131" lon="5.41953">
        <ele>905</ele>
        <time>2020-05-22T09:03:55.853Z</time>
      </trkpt>
      <trkpt lat="44.88128" lon="5.41952">
        <ele>905</ele>
        <time>2020-05-22T09:03:56.853Z</time>
      </trkpt>
      <trkpt lat="44.88125" lon="5.41951">
        <ele>905</ele>
        <time>2020-05-22T09:03:57.852Z</time>
      </trkpt>
      <trkpt lat="44.88122" lon="5.4195">
        <ele>905</ele>
        <time>2020-05-22T09:03:58.853Z</time>
      </trkpt>
      <trkpt lat="44.88119" lon="5.41949">
        <ele>906</ele>
        <time>2020-05-22T09:03:59.853Z</time>
      </trkpt>
      <trkpt lat="44.88116" lon="5.41947">
        <ele>906</ele>
        <time>2020-05-22T09:04:00.853Z</time>
      </trkpt>
      <trkpt lat="44.88114" lon="5.41946">
        <ele>906</ele>
        <time>2020-05-22T09:04:01.853Z</time>
      </trkpt>
      <trkpt lat="44.8811" lon="5.41946">
        <ele>906</ele>
        <time>2020-05-22T09:04:02.853Z</time>
      </trkpt>
      <trkpt lat="44.88107" lon="5.41945">
        <ele>906</ele>
        <time>2020-05-22T09:04:03.853Z</time>
      </trkpt>
      <trkpt lat="44.88104" lon="5.41944">
        <ele>905</ele>
        <time>2020-05-22T09:04:04.853Z</time>
      </trkpt>
      <trkpt lat="44.88101" lon="5.41943">
        <ele>905</ele>
        <time>2020-05-22T09:04:05.852Z</time>
      </trkpt>
      <trkpt lat="44.88097" lon="5.41943">
        <ele>905</ele>
        <time>2020-05-22T09:04:06.853Z</time>
      </trkpt>
      <trkpt lat="44.88094" lon="5.41943">
        <ele>905</ele>
        <time>2020-05-22T09:04:07.853Z</time>
      </trkpt>
      <trkpt lat="44.88091" lon="5.41942">
        <ele>905</ele>
        <time>2020-05-22T09:04:08.853Z</time>
      </trkpt>
      <trkpt lat="44.88088" lon="5.41942">
        <ele>905</ele>
        <time>2020-05-22T09:04:09.853Z</time>
      </trkpt>
      <trkpt lat="44.88084" lon="5.41941">
        <ele>904</ele>
        <time>2020-05-22T09:04:10.852Z</time>
      </trkpt>
      <trkpt lat="44.88081" lon="5.41941">
        <ele>904</ele>
        <time>2020-05-22T09:04:11.853Z</time>
      </trkpt>
      <trkpt lat="44.88078" lon="5.4194">
        <ele>904</ele>
        <time>2020-05-22T09:04:12.853Z</time>
      </trkpt>
      <trkpt lat="44.88075" lon="5.4194">
        <ele>903</ele>
        <time>2020-05-22T09:04:13.852Z</time>
      </trkpt>
      <trkpt lat="44.88071" lon="5.41941">
        <ele>903</ele>
        <time>2020-05-22T09:04:14.853Z</time>
      </trkpt>
      <trkpt lat="44.88068" lon="5.41941">
        <ele>903</ele>
        <time>2020-05-22T09:04:15.852Z</time>
      </trkpt>
      <trkpt lat="44.88066" lon="5.41941">
        <ele>904</ele>
        <time>2020-05-22T09:04:16.853Z</time>
      </trkpt>
      <trkpt lat="44.88062" lon="5.4194">
        <ele>904</ele>
        <time>2020-05-22T09:04:17.852Z</time>
      </trkpt>
      <trkpt lat="44.88059" lon="5.4194">
        <ele>904</ele>
        <time>2020-05-22T09:04:18.852Z</time>
      </trkpt>
      <trkpt lat="44.88056" lon="5.4194">
        <ele>904</ele>
        <time>2020-05-22T09:04:19.852Z</time>
      </trkpt>
      <trkpt lat="44.88053" lon="5.4194">
        <ele>903</ele>
        <time>2020-05-22T09:04:20.852Z</time>
      </trkpt>
      <trkpt lat="44.8805" lon="5.4194">
        <ele>903</ele>
        <time>2020-05-22T09:04:21.853Z</time>
      </trkpt>
      <trkpt lat="44.88047" lon="5.4194">
        <ele>903</ele>
        <time>2020-05-22T09:04:22.853Z</time>
      </trkpt>
      <trkpt lat="44.88044" lon="5.41939">
        <ele>903</ele>
        <time>2020-05-22T09:04:23.853Z</time>
      </trkpt>
      <trkpt lat="44.88041" lon="5.41939">
        <ele>903</ele>
        <time>2020-05-22T09:04:24.852Z</time>
      </trkpt>
      <trkpt lat="44.88038" lon="5.41939">
        <ele>903</ele>
        <time>2020-05-22T09:04:25.853Z</time>
      </trkpt>
      <trkpt lat="44.88034" lon="5.41939">
        <ele>903</ele>
        <time>2020-05-22T09:04:26.853Z</time>
      </trkpt>
      <trkpt lat="44.88031" lon="5.41939">
        <ele>903</ele>
        <time>2020-05-22T09:04:27.852Z</time>
      </trkpt>
      <trkpt lat="44.88027" lon="5.41938">
        <ele>904</ele>
        <time>2020-05-22T09:04:28.853Z</time>
      </trkpt>
      <trkpt lat="44.88024" lon="5.41938">
        <ele>904</ele>
        <time>2020-05-22T09:04:29.853Z</time>
      </trkpt>
      <trkpt lat="44.88022" lon="5.41938">
        <ele>904</ele>
        <time>2020-05-22T09:04:30.853Z</time>
      </trkpt>
      <trkpt lat="44.88019" lon="5.41938">
        <ele>904</ele>
        <time>2020-05-22T09:04:31.853Z</time>
      </trkpt>
      <trkpt lat="44.88016" lon="5.41937">
        <ele>904</ele>
        <time>2020-05-22T09:04:32.853Z</time>
      </trkpt>
      <trkpt lat="44.88012" lon="5.41938">
        <ele>904</ele>
        <time>2020-05-22T09:04:33.852Z</time>
      </trkpt>
      <trkpt lat="44.88009" lon="5.41938">
        <ele>904</ele>
        <time>2020-05-22T09:04:34.852Z</time>
      </trkpt>
      <trkpt lat="44.88005" lon="5.41937">
        <ele>904</ele>
        <time>2020-05-22T09:04:35.852Z</time>
      </trkpt>
      <trkpt lat="44.88002" lon="5.41937">
        <ele>905</ele>
        <time>2020-05-22T09:04:36.852Z</time>
      </trkpt>
      <trkpt lat="44.88" lon="5.41937">
        <ele>905</ele>
        <time>2020-05-22T09:04:37.852Z</time>
      </trkpt>
      <trkpt lat="44.87997" lon="5.41937">
        <ele>905</ele>
        <time>2020-05-22T09:04:38.853Z</time>
      </trkpt>
      <trkpt lat="44.87994" lon="5.41937">
        <ele>905</ele>
        <time>2020-05-22T09:04:39.852Z</time>
      </trkpt>
      <trkpt lat="44.87991" lon="5.41937">
        <ele>905</ele>
        <time>2020-05-22T09:04:40.853Z</time>
      </trkpt>
      <trkpt lat="44.87988" lon="5.41936">
        <ele>905</ele>
        <time>2020-05-22T09:04:41.853Z</time>
      </trkpt>
      <trkpt lat="44.87985" lon="5.41936">
        <ele>905</ele>
        <time>2020-05-22T09:04:42.853Z</time>
      </trkpt>
      <trkpt lat="44.87982" lon="5.41936">
        <ele>904</ele>
        <time>2020-05-22T09:04:43.853Z</time>
      </trkpt>
      <trkpt lat="44.87979" lon="5.41936">
        <ele>903</ele>
        <time>2020-05-22T09:04:44.853Z</time>
      </trkpt>
      <trkpt lat="44.87977" lon="5.41936">
        <ele>902</ele>
        <time>2020-05-22T09:04:45.853Z</time>
      </trkpt>
      <trkpt lat="44.87974" lon="5.41936">
        <ele>901</ele>
        <time>2020-05-22T09:04:46.853Z</time>
      </trkpt>
      <trkpt lat="44.8797" lon="5.41936">
        <ele>901</ele>
        <time>2020-05-22T09:04:47.853Z</time>
      </trkpt>
      <trkpt lat="44.87967" lon="5.41936">
        <ele>901</ele>
        <time>2020-05-22T09:04:48.852Z</time>
      </trkpt>
      <trkpt lat="44.87964" lon="5.41936">
        <ele>901</ele>
        <time>2020-05-22T09:04:49.853Z</time>
      </trkpt>
      <trkpt lat="44.87961" lon="5.41936">
        <ele>901</ele>
        <time>2020-05-22T09:04:50.852Z</time>
      </trkpt>
      <trkpt lat="44.87958" lon="5.41936">
        <ele>901</ele>
        <time>2020-05-22T09:04:51.853Z</time>
      </trkpt>
      <trkpt lat="44.87956" lon="5.41936">
        <ele>901</ele>
        <time>2020-05-22T09:04:52.853Z</time>
      </trkpt>
      <trkpt lat="44.87952" lon="5.41936">
        <ele>901</ele>
        <time>2020-05-22T09:04:53.853Z</time>
      </trkpt>
      <trkpt lat="44.87949" lon="5.41936">
        <ele>901</ele>
        <time>2020-05-22T09:04:54.852Z</time>
      </trkpt>
      <trkpt lat="44.87946" lon="5.41937">
        <ele>902</ele>
        <time>2020-05-22T09:04:55.853Z</time>
      </trkpt>
      <trkpt lat="44.87943" lon="5.41937">
        <ele>902</ele>
        <time>2020-05-22T09:04:56.852Z</time>
      </trkpt>
      <trkpt lat="44.8794" lon="5.41937">
        <ele>903</ele>
        <time>2020-05-22T09:04:57.853Z</time>
      </trkpt>
      <trkpt lat="44.87936" lon="5.41937">
        <ele>903</ele>
        <time>2020-05-22T09:04:58.853Z</time>
      </trkpt>
      <trkpt lat="44.87933" lon="5.41936">
        <ele>904</ele>
        <time>2020-05-22T09:04:59.852Z</time>
      </trkpt>
      <trkpt lat="44.8793" lon="5.41936">
        <ele>905</ele>
        <time>2020-05-22T09:05:00.853Z</time>
      </trkpt>
      <trkpt lat="44.87927" lon="5.41937">
        <ele>905</ele>
        <time>2020-05-22T09:05:01.853Z</time>
      </trkpt>
      <trkpt lat="44.87923" lon="5.41937">
        <ele>906</ele>
        <time>2020-05-22T09:05:02.853Z</time>
      </trkpt>
      <trkpt lat="44.8792" lon="5.41936">
        <ele>907</ele>
        <time>2020-05-22T09:05:03.853Z</time>
      </trkpt>
      <trkpt lat="44.87917" lon="5.41936">
        <ele>907</ele>
        <time>2020-05-22T09:05:04.853Z</time>
      </trkpt>
      <trkpt lat="44.87914" lon="5.41936">
        <ele>907</ele>
        <time>2020-05-22T09:05:05.853Z</time>
      </trkpt>
      <trkpt lat="44.8791" lon="5.41935">
        <ele>908</ele>
        <time>2020-05-22T09:05:06.853Z</time>
      </trkpt>
      <trkpt lat="44.87906" lon="5.41935">
        <ele>908</ele>
        <time>2020-05-22T09:05:07.853Z</time>
      </trkpt>
      <trkpt lat="44.87903" lon="5.41934">
        <ele>908</ele>
        <time>2020-05-22T09:05:08.853Z</time>
      </trkpt>
      <trkpt lat="44.879" lon="5.41934">
        <ele>908</ele>
        <time>2020-05-22T09:05:09.852Z</time>
      </trkpt>
      <trkpt lat="44.87897" lon="5.41934">
        <ele>909</ele>
        <time>2020-05-22T09:05:10.853Z</time>
      </trkpt>
      <trkpt lat="44.87893" lon="5.41933">
        <ele>908</ele>
        <time>2020-05-22T09:05:11.853Z</time>
      </trkpt>
      <trkpt lat="44.8789" lon="5.41933">
        <ele>908</ele>
        <time>2020-05-22T09:05:12.853Z</time>
      </trkpt>
      <trkpt lat="44.87886" lon="5.41933">
        <ele>908</ele>
        <time>2020-05-22T09:05:13.853Z</time>
      </trkpt>
      <trkpt lat="44.87883" lon="5.41932">
        <ele>908</ele>
        <time>2020-05-22T09:05:14.853Z</time>
      </trkpt>
      <trkpt lat="44.87881" lon="5.41932">
        <ele>908</ele>
        <time>2020-05-22T09:05:15.853Z</time>
      </trkpt>
      <trkpt lat="44.87877" lon="5.41931">
        <ele>908</ele>
        <time>2020-05-22T09:05:16.853Z</time>
      </trkpt>
      <trkpt lat="44.87873" lon="5.41931">
        <ele>909</ele>
        <time>2020-05-22T09:05:17.852Z</time>
      </trkpt>
      <trkpt lat="44.8787" lon="5.4193">
        <ele>909</ele>
        <time>2020-05-22T09:05:18.853Z</time>
      </trkpt>
      <trkpt lat="44.87867" lon="5.4193">
        <ele>908</ele>
        <time>2020-05-22T09:05:19.853Z</time>
      </trkpt>
      <trkpt lat="44.87864" lon="5.41929">
        <ele>908</ele>
        <time>2020-05-22T09:05:20.853Z</time>
      </trkpt>
      <trkpt lat="44.87861" lon="5.41929">
        <ele>908</ele>
        <time>2020-05-22T09:05:21.853Z</time>
      </trkpt>
      <trkpt lat="44.87857" lon="5.41928">
        <ele>908</ele>
        <time>2020-05-22T09:05:22.853Z</time>
      </trkpt>
      <trkpt lat="44.87854" lon="5.41928">
        <ele>908</ele>
        <time>2020-05-22T09:05:23.852Z</time>
      </trkpt>
      <trkpt lat="44.87852" lon="5.41927">
        <ele>908</ele>
        <time>2020-05-22T09:05:24.853Z</time>
      </trkpt>
      <trkpt lat="44.87849" lon="5.41926">
        <ele>908</ele>
        <time>2020-05-22T09:05:25.853Z</time>
      </trkpt>
      <trkpt lat="44.87846" lon="5.41926">
        <ele>908</ele>
        <time>2020-05-22T09:05:26.853Z</time>
      </trkpt>
      <trkpt lat="44.87843" lon="5.41925">
        <ele>908</ele>
        <time>2020-05-22T09:05:27.852Z</time>
      </trkpt>
      <trkpt lat="44.8784" lon="5.41924">
        <ele>908</ele>
        <time>2020-05-22T09:05:28.852Z</time>
      </trkpt>
      <trkpt lat="44.87837" lon="5.41924">
        <ele>908</ele>
        <time>2020-05-22T09:05:29.852Z</time>
      </trkpt>
      <trkpt lat="44.87833" lon="5.41923">
        <ele>908</ele>
        <time>2020-05-22T09:05:30.853Z</time>
      </trkpt>
      <trkpt lat="44.87829" lon="5.41922">
        <ele>908</ele>
        <time>2020-05-22T09:05:31.853Z</time>
      </trkpt>
      <trkpt lat="44.87826" lon="5.41922">
        <ele>908</ele>
        <time>2020-05-22T09:05:32.852Z</time>
      </trkpt>
      <trkpt lat="44.87823" lon="5.41921">
        <ele>909</ele>
        <time>2020-05-22T09:05:33.853Z</time>
      </trkpt>
      <trkpt lat="44.8782" lon="5.41919">
        <ele>910</ele>
        <time>2020-05-22T09:05:34.852Z</time>
      </trkpt>
      <trkpt lat="44.87817" lon="5.41918">
        <ele>910</ele>
        <time>2020-05-22T09:05:35.852Z</time>
      </trkpt>
      <trkpt lat="44.87814" lon="5.41917">
        <ele>910</ele>
        <time>2020-05-22T09:05:36.852Z</time>
      </trkpt>
      <trkpt lat="44.87811" lon="5.41915">
        <ele>910</ele>
        <time>2020-05-22T09:05:37.853Z</time>
      </trkpt>
      <trkpt lat="44.87808" lon="5.41914">
        <ele>909</ele>
        <time>2020-05-22T09:05:38.853Z</time>
      </trkpt>
      <trkpt lat="44.87806" lon="5.41914">
        <ele>909</ele>
        <time>2020-05-22T09:05:39.852Z</time>
      </trkpt>
      <trkpt lat="44.87803" lon="5.41913">
        <ele>910</ele>
        <time>2020-05-22T09:05:40.852Z</time>
      </trkpt>
      <trkpt lat="44.878" lon="5.41912">
        <ele>910</ele>
        <time>2020-05-22T09:05:41.853Z</time>
      </trkpt>
      <trkpt lat="44.87797" lon="5.4191">
        <ele>910</ele>
        <time>2020-05-22T09:05:42.853Z</time>
      </trkpt>
      <trkpt lat="44.87794" lon="5.41909">
        <ele>910</ele>
        <time>2020-05-22T09:05:43.853Z</time>
      </trkpt>
      <trkpt lat="44.87791" lon="5.41908">
        <ele>910</ele>
        <time>2020-05-22T09:05:44.853Z</time>
      </trkpt>
      <trkpt lat="44.87788" lon="5.41908">
        <ele>909</ele>
        <time>2020-05-22T09:05:45.853Z</time>
      </trkpt>
      <trkpt lat="44.87785" lon="5.41906">
        <ele>909</ele>
        <time>2020-05-22T09:05:46.852Z</time>
      </trkpt>
      <trkpt lat="44.87782" lon="5.41905">
        <ele>909</ele>
        <time>2020-05-22T09:05:47.853Z</time>
      </trkpt>
      <trkpt lat="44.87779" lon="5.41904">
        <ele>909</ele>
        <time>2020-05-22T09:05:48.852Z</time>
      </trkpt>
      <trkpt lat="44.87776" lon="5.41903">
        <ele>910</ele>
        <time>2020-05-22T09:05:49.852Z</time>
      </trkpt>
      <trkpt lat="44.87773" lon="5.41902">
        <ele>910</ele>
        <time>2020-05-22T09:05:50.853Z</time>
      </trkpt>
      <trkpt lat="44.8777" lon="5.41901">
        <ele>909</ele>
        <time>2020-05-22T09:05:51.852Z</time>
      </trkpt>
      <trkpt lat="44.87767" lon="5.419">
        <ele>909</ele>
        <time>2020-05-22T09:05:52.853Z</time>
      </trkpt>
      <trkpt lat="44.87763" lon="5.41899">
        <ele>908</ele>
        <time>2020-05-22T09:05:53.853Z</time>
      </trkpt>
      <trkpt lat="44.8776" lon="5.41898">
        <ele>908</ele>
        <time>2020-05-22T09:05:54.853Z</time>
      </trkpt>
      <trkpt lat="44.87757" lon="5.41897">
        <ele>908</ele>
        <time>2020-05-22T09:05:55.853Z</time>
      </trkpt>
      <trkpt lat="44.87754" lon="5.41896">
        <ele>908</ele>
        <time>2020-05-22T09:05:56.852Z</time>
      </trkpt>
      <trkpt lat="44.87751" lon="5.41895">
        <ele>907</ele>
        <time>2020-05-22T09:05:57.852Z</time>
      </trkpt>
      <trkpt lat="44.87748" lon="5.41894">
        <ele>907</ele>
        <time>2020-05-22T09:05:58.853Z</time>
      </trkpt>
      <trkpt lat="44.87745" lon="5.41893">
        <ele>908</ele>
        <time>2020-05-22T09:05:59.853Z</time>
      </trkpt>
      <trkpt lat="44.87742" lon="5.41891">
        <ele>908</ele>
        <time>2020-05-22T09:06:00.852Z</time>
      </trkpt>
      <trkpt lat="44.87739" lon="5.41891">
        <ele>908</ele>
        <time>2020-05-22T09:06:01.853Z</time>
      </trkpt>
      <trkpt lat="44.87736" lon="5.4189">
        <ele>908</ele>
        <time>2020-05-22T09:06:02.853Z</time>
      </trkpt>
      <trkpt lat="44.87733" lon="5.41889">
        <ele>908</ele>
        <time>2020-05-22T09:06:03.852Z</time>
      </trkpt>
      <trkpt lat="44.8773" lon="5.41888">
        <ele>907</ele>
        <time>2020-05-22T09:06:04.852Z</time>
      </trkpt>
      <trkpt lat="44.87727" lon="5.41887">
        <ele>907</ele>
        <time>2020-05-22T09:06:05.853Z</time>
      </trkpt>
      <trkpt lat="44.87724" lon="5.41886">
        <ele>906</ele>
        <time>2020-05-22T09:06:06.853Z</time>
      </trkpt>
      <trkpt lat="44.87721" lon="5.41885">
        <ele>906</ele>
        <time>2020-05-22T09:06:07.853Z</time>
      </trkpt>
      <trkpt lat="44.87718" lon="5.41884">
        <ele>905</ele>
        <time>2020-05-22T09:06:08.852Z</time>
      </trkpt>
      <trkpt lat="44.87715" lon="5.41882">
        <ele>905</ele>
        <time>2020-05-22T09:06:09.852Z</time>
      </trkpt>
      <trkpt lat="44.87711" lon="5.41881">
        <ele>904</ele>
        <time>2020-05-22T09:06:10.853Z</time>
      </trkpt>
      <trkpt lat="44.87706" lon="5.4188">
        <ele>904</ele>
        <time>2020-05-22T09:06:11.852Z</time>
      </trkpt>
      <trkpt lat="44.87703" lon="5.41879">
        <ele>903</ele>
        <time>2020-05-22T09:06:12.852Z</time>
      </trkpt>
      <trkpt lat="44.87699" lon="5.41877">
        <ele>903</ele>
        <time>2020-05-22T09:06:13.853Z</time>
      </trkpt>
      <trkpt lat="44.87697" lon="5.41876">
        <ele>903</ele>
        <time>2020-05-22T09:06:14.853Z</time>
      </trkpt>
      <trkpt lat="44.87692" lon="5.41875">
        <ele>904</ele>
        <time>2020-05-22T09:06:15.853Z</time>
      </trkpt>
      <trkpt lat="44.87689" lon="5.41873">
        <ele>904</ele>
        <time>2020-05-22T09:06:16.853Z</time>
      </trkpt>
      <trkpt lat="44.87685" lon="5.41872">
        <ele>904</ele>
        <time>2020-05-22T09:06:17.853Z</time>
      </trkpt>
      <trkpt lat="44.87682" lon="5.41871">
        <ele>904</ele>
        <time>2020-05-22T09:06:18.853Z</time>
      </trkpt>
      <trkpt lat="44.8768" lon="5.4187">
        <ele>904</ele>
        <time>2020-05-22T09:06:19.853Z</time>
      </trkpt>
      <trkpt lat="44.87676" lon="5.41868">
        <ele>904</ele>
        <time>2020-05-22T09:06:20.853Z</time>
      </trkpt>
      <trkpt lat="44.87673" lon="5.41867">
        <ele>905</ele>
        <time>2020-05-22T09:06:21.853Z</time>
      </trkpt>
      <trkpt lat="44.8767" lon="5.41865">
        <ele>906</ele>
        <time>2020-05-22T09:06:22.853Z</time>
      </trkpt>
      <trkpt lat="44.87667" lon="5.41863">
        <ele>906</ele>
        <time>2020-05-22T09:06:23.853Z</time>
      </trkpt>
      <trkpt lat="44.87664" lon="5.41861">
        <ele>906</ele>
        <time>2020-05-22T09:06:24.852Z</time>
      </trkpt>
      <trkpt lat="44.87662" lon="5.4186">
        <ele>906</ele>
        <time>2020-05-22T09:06:25.853Z</time>
      </trkpt>
      <trkpt lat="44.8766" lon="5.4186">
        <ele>906</ele>
        <time>2020-05-22T09:06:26.852Z</time>
      </trkpt>
      <trkpt lat="44.87663" lon="5.41858">
        <ele>911</ele>
        <time>2020-05-22T09:06:27.854Z</time>
      </trkpt>
      <trkpt lat="44.87663" lon="5.41858">
        <ele>911</ele>
        <time>2020-05-22T09:06:28.853Z</time>
      </trkpt>
      <trkpt lat="44.87663" lon="5.41858">
        <ele>911</ele>
        <time>2020-05-22T09:06:29.853Z</time>
      </trkpt>
      <trkpt lat="44.87663" lon="5.41859">
        <ele>910</ele>
        <time>2020-05-22T09:06:30.854Z</time>
      </trkpt>
      <trkpt lat="44.87663" lon="5.4186">
        <ele>910</ele>
        <time>2020-05-22T09:06:31.854Z</time>
      </trkpt>
      <trkpt lat="44.87663" lon="5.41862">
        <ele>910</ele>
        <time>2020-05-22T09:06:32.854Z</time>
      </trkpt>
      <trkpt lat="44.87663" lon="5.41864">
        <ele>910</ele>
        <time>2020-05-22T09:06:33.854Z</time>
      </trkpt>
      <trkpt lat="44.87661" lon="5.41865">
        <ele>911</ele>
        <time>2020-05-22T09:06:34.854Z</time>
      </trkpt>
      <trkpt lat="44.87659" lon="5.41865">
        <ele>911</ele>
        <time>2020-05-22T09:06:35.853Z</time>
      </trkpt>
      <trkpt lat="44.87657" lon="5.41865">
        <ele>911</ele>
        <time>2020-05-22T09:06:36.854Z</time>
      </trkpt>
      <trkpt lat="44.87655" lon="5.41865">
        <ele>912</ele>
        <time>2020-05-22T09:06:37.854Z</time>
      </trkpt>
      <trkpt lat="44.87654" lon="5.41866">
        <ele>913</ele>
        <time>2020-05-22T09:06:38.854Z</time>
      </trkpt>
      <trkpt lat="44.87652" lon="5.41866">
        <ele>913</ele>
        <time>2020-05-22T09:06:39.854Z</time>
      </trkpt>
      <trkpt lat="44.87651" lon="5.41865">
        <ele>913</ele>
        <time>2020-05-22T09:06:40.854Z</time>
      </trkpt>
      <trkpt lat="44.87649" lon="5.41864">
        <ele>913</ele>
        <time>2020-05-22T09:06:41.853Z</time>
      </trkpt>
      <trkpt lat="44.87646" lon="5.41863">
        <ele>913</ele>
        <time>2020-05-22T09:06:42.854Z</time>
      </trkpt>
      <trkpt lat="44.87643" lon="5.41861">
        <ele>912</ele>
        <time>2020-05-22T09:06:43.854Z</time>
      </trkpt>
      <trkpt lat="44.87638" lon="5.4186">
        <ele>912</ele>
        <time>2020-05-22T09:06:44.854Z</time>
      </trkpt>
      <trkpt lat="44.87634" lon="5.41859">
        <ele>911</ele>
        <time>2020-05-22T09:06:45.854Z</time>
      </trkpt>
      <trkpt lat="44.8763" lon="5.41858">
        <ele>911</ele>
        <time>2020-05-22T09:06:46.854Z</time>
      </trkpt>
      <trkpt lat="44.87626" lon="5.41856">
        <ele>911</ele>
        <time>2020-05-22T09:06:47.853Z</time>
      </trkpt>
      <trkpt lat="44.87621" lon="5.41855">
        <ele>910</ele>
        <time>2020-05-22T09:06:48.853Z</time>
      </trkpt>
      <trkpt lat="44.87617" lon="5.41854">
        <ele>910</ele>
        <time>2020-05-22T09:06:49.853Z</time>
      </trkpt>
      <trkpt lat="44.87613" lon="5.41853">
        <ele>909</ele>
        <time>2020-05-22T09:06:50.853Z</time>
      </trkpt>
      <trkpt lat="44.87609" lon="5.41851">
        <ele>909</ele>
        <time>2020-05-22T09:06:51.853Z</time>
      </trkpt>
      <trkpt lat="44.87605" lon="5.4185">
        <ele>909</ele>
        <time>2020-05-22T09:06:52.854Z</time>
      </trkpt>
      <trkpt lat="44.87602" lon="5.41849">
        <ele>908</ele>
        <time>2020-05-22T09:06:53.854Z</time>
      </trkpt>
      <trkpt lat="44.87597" lon="5.41847">
        <ele>908</ele>
        <time>2020-05-22T09:06:54.854Z</time>
      </trkpt>
      <trkpt lat="44.87593" lon="5.41846">
        <ele>908</ele>
        <time>2020-05-22T09:06:55.854Z</time>
      </trkpt>
      <trkpt lat="44.87589" lon="5.41844">
        <ele>907</ele>
        <time>2020-05-22T09:06:56.853Z</time>
      </trkpt>
      <trkpt lat="44.87584" lon="5.41843">
        <ele>907</ele>
        <time>2020-05-22T09:06:57.854Z</time>
      </trkpt>
      <trkpt lat="44.87581" lon="5.41842">
        <ele>906</ele>
        <time>2020-05-22T09:06:58.854Z</time>
      </trkpt>
      <trkpt lat="44.87577" lon="5.4184">
        <ele>906</ele>
        <time>2020-05-22T09:06:59.854Z</time>
      </trkpt>
      <trkpt lat="44.87573" lon="5.41839">
        <ele>906</ele>
        <time>2020-05-22T09:07:00.854Z</time>
      </trkpt>
      <trkpt lat="44.87569" lon="5.41838">
        <ele>906</ele>
        <time>2020-05-22T09:07:01.854Z</time>
      </trkpt>
      <trkpt lat="44.87565" lon="5.41837">
        <ele>905</ele>
        <time>2020-05-22T09:07:02.854Z</time>
      </trkpt>
      <trkpt lat="44.87561" lon="5.41836">
        <ele>905</ele>
        <time>2020-05-22T09:07:03.854Z</time>
      </trkpt>
      <trkpt lat="44.87556" lon="5.41834">
        <ele>904</ele>
        <time>2020-05-22T09:07:04.854Z</time>
      </trkpt>
      <trkpt lat="44.87552" lon="5.41833">
        <ele>904</ele>
        <time>2020-05-22T09:07:05.854Z</time>
      </trkpt>
      <trkpt lat="44.87548" lon="5.41831">
        <ele>904</ele>
        <time>2020-05-22T09:07:06.853Z</time>
      </trkpt>
      <trkpt lat="44.87544" lon="5.4183">
        <ele>905</ele>
        <time>2020-05-22T09:07:07.854Z</time>
      </trkpt>
      <trkpt lat="44.87541" lon="5.41829">
        <ele>905</ele>
        <time>2020-05-22T09:07:08.854Z</time>
      </trkpt>
      <trkpt lat="44.87536" lon="5.41827">
        <ele>906</ele>
        <time>2020-05-22T09:07:09.854Z</time>
      </trkpt>
      <trkpt lat="44.87532" lon="5.41826">
        <ele>907</ele>
        <time>2020-05-22T09:07:10.854Z</time>
      </trkpt>
      <trkpt lat="44.87528" lon="5.41825">
        <ele>907</ele>
        <time>2020-05-22T09:07:11.853Z</time>
      </trkpt>
      <trkpt lat="44.87525" lon="5.41824">
        <ele>907</ele>
        <time>2020-05-22T09:07:12.854Z</time>
      </trkpt>
      <trkpt lat="44.87521" lon="5.41823">
        <ele>908</ele>
        <time>2020-05-22T09:07:13.853Z</time>
      </trkpt>
      <trkpt lat="44.87517" lon="5.41821">
        <ele>908</ele>
        <time>2020-05-22T09:07:14.854Z</time>
      </trkpt>
      <trkpt lat="44.87514" lon="5.4182">
        <ele>909</ele>
        <time>2020-05-22T09:07:15.854Z</time>
      </trkpt>
      <trkpt lat="44.87511" lon="5.41819">
        <ele>909</ele>
        <time>2020-05-22T09:07:16.854Z</time>
      </trkpt>
      <trkpt lat="44.87508" lon="5.41818">
        <ele>910</ele>
        <time>2020-05-22T09:07:17.854Z</time>
      </trkpt>
      <trkpt lat="44.87505" lon="5.41816">
        <ele>910</ele>
        <time>2020-05-22T09:07:18.853Z</time>
      </trkpt>
      <trkpt lat="44.87502" lon="5.41815">
        <ele>910</ele>
        <time>2020-05-22T09:07:19.854Z</time>
      </trkpt>
      <trkpt lat="44.87499" lon="5.41813">
        <ele>910</ele>
        <time>2020-05-22T09:07:20.854Z</time>
      </trkpt>
      <trkpt lat="44.87497" lon="5.41812">
        <ele>910</ele>
        <time>2020-05-22T09:07:21.854Z</time>
      </trkpt>
      <trkpt lat="44.87494" lon="5.41811">
        <ele>910</ele>
        <time>2020-05-22T09:07:22.854Z</time>
      </trkpt>
      <trkpt lat="44.87491" lon="5.41809">
        <ele>910</ele>
        <time>2020-05-22T09:07:23.853Z</time>
      </trkpt>
      <trkpt lat="44.87488" lon="5.41807">
        <ele>910</ele>
        <time>2020-05-22T09:07:24.854Z</time>
      </trkpt>
      <trkpt lat="44.87485" lon="5.41806">
        <ele>910</ele>
        <time>2020-05-22T09:07:25.854Z</time>
      </trkpt>
      <trkpt lat="44.87482" lon="5.41805">
        <ele>910</ele>
        <time>2020-05-22T09:07:26.854Z</time>
      </trkpt>
      <trkpt lat="44.87479" lon="5.41804">
        <ele>911</ele>
        <time>2020-05-22T09:07:27.854Z</time>
      </trkpt>
      <trkpt lat="44.87476" lon="5.41802">
        <ele>911</ele>
        <time>2020-05-22T09:07:28.853Z</time>
      </trkpt>
      <trkpt lat="44.87473" lon="5.41801">
        <ele>911</ele>
        <time>2020-05-22T09:07:29.853Z</time>
      </trkpt>
      <trkpt lat="44.8747" lon="5.418">
        <ele>911</ele>
        <time>2020-05-22T09:07:30.853Z</time>
      </trkpt>
      <trkpt lat="44.87466" lon="5.41798">
        <ele>911</ele>
        <time>2020-05-22T09:07:31.854Z</time>
      </trkpt>
      <trkpt lat="44.87463" lon="5.41797">
        <ele>911</ele>
        <time>2020-05-22T09:07:32.853Z</time>
      </trkpt>
      <trkpt lat="44.8746" lon="5.41795">
        <ele>912</ele>
        <time>2020-05-22T09:07:33.854Z</time>
      </trkpt>
      <trkpt lat="44.87457" lon="5.41794">
        <ele>912</ele>
        <time>2020-05-22T09:07:34.854Z</time>
      </trkpt>
      <trkpt lat="44.87454" lon="5.41792">
        <ele>912</ele>
        <time>2020-05-22T09:07:35.854Z</time>
      </trkpt>
      <trkpt lat="44.87451" lon="5.41791">
        <ele>911</ele>
        <time>2020-05-22T09:07:36.853Z</time>
      </trkpt>
      <trkpt lat="44.87448" lon="5.41789">
        <ele>911</ele>
        <time>2020-05-22T09:07:37.853Z</time>
      </trkpt>
      <trkpt lat="44.87445" lon="5.41788">
        <ele>911</ele>
        <time>2020-05-22T09:07:38.854Z</time>
      </trkpt>
      <trkpt lat="44.87442" lon="5.41787">
        <ele>912</ele>
        <time>2020-05-22T09:07:39.854Z</time>
      </trkpt>
      <trkpt lat="44.8744" lon="5.41786">
        <ele>912</ele>
        <time>2020-05-22T09:07:40.854Z</time>
      </trkpt>
      <trkpt lat="44.87437" lon="5.41785">
        <ele>911</ele>
        <time>2020-05-22T09:07:41.854Z</time>
      </trkpt>
      <trkpt lat="44.87435" lon="5.41783">
        <ele>911</ele>
        <time>2020-05-22T09:07:42.854Z</time>
      </trkpt>
      <trkpt lat="44.87431" lon="5.41782">
        <ele>912</ele>
        <time>2020-05-22T09:07:43.854Z</time>
      </trkpt>
      <trkpt lat="44.87429" lon="5.4178">
        <ele>912</ele>
        <time>2020-05-22T09:07:44.854Z</time>
      </trkpt>
      <trkpt lat="44.87426" lon="5.41779">
        <ele>913</ele>
        <time>2020-05-22T09:07:45.854Z</time>
      </trkpt>
      <trkpt lat="44.87424" lon="5.41778">
        <ele>913</ele>
        <time>2020-05-22T09:07:46.853Z</time>
      </trkpt>
      <trkpt lat="44.87421" lon="5.41777">
        <ele>913</ele>
        <time>2020-05-22T09:07:47.854Z</time>
      </trkpt>
      <trkpt lat="44.87418" lon="5.41775">
        <ele>914</ele>
        <time>2020-05-22T09:07:48.854Z</time>
      </trkpt>
      <trkpt lat="44.87414" lon="5.41774">
        <ele>914</ele>
        <time>2020-05-22T09:07:49.854Z</time>
      </trkpt>
      <trkpt lat="44.87412" lon="5.41772">
        <ele>914</ele>
        <time>2020-05-22T09:07:50.854Z</time>
      </trkpt>
      <trkpt lat="44.87409" lon="5.41771">
        <ele>914</ele>
        <time>2020-05-22T09:07:51.853Z</time>
      </trkpt>
      <trkpt lat="44.87406" lon="5.4177">
        <ele>914</ele>
        <time>2020-05-22T09:07:52.854Z</time>
      </trkpt>
      <trkpt lat="44.87403" lon="5.41768">
        <ele>915</ele>
        <time>2020-05-22T09:07:53.854Z</time>
      </trkpt>
      <trkpt lat="44.874" lon="5.41767">
        <ele>915</ele>
        <time>2020-05-22T09:07:54.853Z</time>
      </trkpt>
      <trkpt lat="44.87397" lon="5.41765">
        <ele>914</ele>
        <time>2020-05-22T09:07:55.854Z</time>
      </trkpt>
      <trkpt lat="44.87395" lon="5.41764">
        <ele>914</ele>
        <time>2020-05-22T09:07:56.854Z</time>
      </trkpt>
      <trkpt lat="44.87392" lon="5.41763">
        <ele>914</ele>
        <time>2020-05-22T09:07:57.853Z</time>
      </trkpt>
      <trkpt lat="44.87389" lon="5.41762">
        <ele>914</ele>
        <time>2020-05-22T09:07:58.854Z</time>
      </trkpt>
      <trkpt lat="44.87386" lon="5.41761">
        <ele>914</ele>
        <time>2020-05-22T09:07:59.854Z</time>
      </trkpt>
      <trkpt lat="44.87384" lon="5.4176">
        <ele>913</ele>
        <time>2020-05-22T09:08:00.854Z</time>
      </trkpt>
      <trkpt lat="44.87382" lon="5.41759">
        <ele>913</ele>
        <time>2020-05-22T09:08:01.853Z</time>
      </trkpt>
      <trkpt lat="44.87378" lon="5.41758">
        <ele>913</ele>
        <time>2020-05-22T09:08:02.854Z</time>
      </trkpt>
      <trkpt lat="44.87376" lon="5.41757">
        <ele>913</ele>
        <time>2020-05-22T09:08:03.854Z</time>
      </trkpt>
      <trkpt lat="44.87373" lon="5.41757">
        <ele>914</ele>
        <time>2020-05-22T09:08:04.854Z</time>
      </trkpt>
      <trkpt lat="44.87371" lon="5.41756">
        <ele>914</ele>
        <time>2020-05-22T09:08:05.853Z</time>
      </trkpt>
      <trkpt lat="44.87368" lon="5.41755">
        <ele>915</ele>
        <time>2020-05-22T09:08:06.853Z</time>
      </trkpt>
      <trkpt lat="44.87364" lon="5.41754">
        <ele>916</ele>
        <time>2020-05-22T09:08:07.853Z</time>
      </trkpt>
      <trkpt lat="44.87361" lon="5.41753">
        <ele>917</ele>
        <time>2020-05-22T09:08:08.854Z</time>
      </trkpt>
      <trkpt lat="44.87359" lon="5.41752">
        <ele>917</ele>
        <time>2020-05-22T09:08:09.853Z</time>
      </trkpt>
      <trkpt lat="44.87356" lon="5.4175">
        <ele>917</ele>
        <time>2020-05-22T09:08:10.854Z</time>
      </trkpt>
      <trkpt lat="44.87352" lon="5.41749">
        <ele>918</ele>
        <time>2020-05-22T09:08:11.853Z</time>
      </trkpt>
      <trkpt lat="44.87349" lon="5.41748">
        <ele>919</ele>
        <time>2020-05-22T09:08:12.854Z</time>
      </trkpt>
      <trkpt lat="44.87346" lon="5.41747">
        <ele>919</ele>
        <time>2020-05-22T09:08:13.853Z</time>
      </trkpt>
      <trkpt lat="44.87344" lon="5.41746">
        <ele>920</ele>
        <time>2020-05-22T09:08:14.854Z</time>
      </trkpt>
      <trkpt lat="44.87341" lon="5.41745">
        <ele>920</ele>
        <time>2020-05-22T09:08:15.853Z</time>
      </trkpt>
      <trkpt lat="44.87338" lon="5.41744">
        <ele>921</ele>
        <time>2020-05-22T09:08:16.854Z</time>
      </trkpt>
      <trkpt lat="44.87335" lon="5.41743">
        <ele>922</ele>
        <time>2020-05-22T09:08:17.853Z</time>
      </trkpt>
      <trkpt lat="44.87332" lon="5.41742">
        <ele>922</ele>
        <time>2020-05-22T09:08:18.853Z</time>
      </trkpt>
      <trkpt lat="44.8733" lon="5.41741">
        <ele>922</ele>
        <time>2020-05-22T09:08:19.854Z</time>
      </trkpt>
      <trkpt lat="44.87328" lon="5.41739">
        <ele>921</ele>
        <time>2020-05-22T09:08:20.853Z</time>
      </trkpt>
      <trkpt lat="44.87326" lon="5.41738">
        <ele>921</ele>
        <time>2020-05-22T09:08:21.854Z</time>
      </trkpt>
      <trkpt lat="44.87324" lon="5.41736">
        <ele>921</ele>
        <time>2020-05-22T09:08:22.854Z</time>
      </trkpt>
      <trkpt lat="44.87322" lon="5.41735">
        <ele>920</ele>
        <time>2020-05-22T09:08:23.853Z</time>
      </trkpt>
      <trkpt lat="44.87319" lon="5.41733">
        <ele>919</ele>
        <time>2020-05-22T09:08:24.854Z</time>
      </trkpt>
      <trkpt lat="44.87317" lon="5.41732">
        <ele>919</ele>
        <time>2020-05-22T09:08:25.853Z</time>
      </trkpt>
      <trkpt lat="44.87314" lon="5.41731">
        <ele>919</ele>
        <time>2020-05-22T09:08:26.854Z</time>
      </trkpt>
      <trkpt lat="44.8731" lon="5.41729">
        <ele>919</ele>
        <time>2020-05-22T09:08:27.854Z</time>
      </trkpt>
      <trkpt lat="44.87307" lon="5.41728">
        <ele>919</ele>
        <time>2020-05-22T09:08:28.854Z</time>
      </trkpt>
      <trkpt lat="44.87304" lon="5.41726">
        <ele>919</ele>
        <time>2020-05-22T09:08:29.854Z</time>
      </trkpt>
      <trkpt lat="44.87301" lon="5.41725">
        <ele>919</ele>
        <time>2020-05-22T09:08:30.854Z</time>
      </trkpt>
      <trkpt lat="44.87299" lon="5.41724">
        <ele>919</ele>
        <time>2020-05-22T09:08:31.853Z</time>
      </trkpt>
      <trkpt lat="44.87295" lon="5.41722">
        <ele>920</ele>
        <time>2020-05-22T09:08:32.854Z</time>
      </trkpt>
      <trkpt lat="44.87292" lon="5.41721">
        <ele>919</ele>
        <time>2020-05-22T09:08:33.853Z</time>
      </trkpt>
      <trkpt lat="44.8729" lon="5.4172">
        <ele>919</ele>
        <time>2020-05-22T09:08:34.854Z</time>
      </trkpt>
      <trkpt lat="44.87287" lon="5.41719">
        <ele>920</ele>
        <time>2020-05-22T09:08:35.854Z</time>
      </trkpt>
      <trkpt lat="44.87284" lon="5.41718">
        <ele>920</ele>
        <time>2020-05-22T09:08:36.854Z</time>
      </trkpt>
      <trkpt lat="44.87281" lon="5.41717">
        <ele>920</ele>
        <time>2020-05-22T09:08:37.854Z</time>
      </trkpt>
      <trkpt lat="44.87279" lon="5.41715">
        <ele>919</ele>
        <time>2020-05-22T09:08:38.854Z</time>
      </trkpt>
      <trkpt lat="44.87276" lon="5.41714">
        <ele>919</ele>
        <time>2020-05-22T09:08:39.854Z</time>
      </trkpt>
      <trkpt lat="44.87274" lon="5.41713">
        <ele>919</ele>
        <time>2020-05-22T09:08:40.854Z</time>
      </trkpt>
      <trkpt lat="44.87271" lon="5.41712">
        <ele>919</ele>
        <time>2020-05-22T09:08:41.854Z</time>
      </trkpt>
      <trkpt lat="44.87268" lon="5.41711">
        <ele>919</ele>
        <time>2020-05-22T09:08:42.854Z</time>
      </trkpt>
      <trkpt lat="44.87266" lon="5.41709">
        <ele>919</ele>
        <time>2020-05-22T09:08:43.854Z</time>
      </trkpt>
      <trkpt lat="44.87263" lon="5.41708">
        <ele>919</ele>
        <time>2020-05-22T09:08:44.854Z</time>
      </trkpt>
      <trkpt lat="44.87261" lon="5.41707">
        <ele>920</ele>
        <time>2020-05-22T09:08:45.854Z</time>
      </trkpt>
      <trkpt lat="44.87258" lon="5.41706">
        <ele>920</ele>
        <time>2020-05-22T09:08:46.854Z</time>
      </trkpt>
      <trkpt lat="44.87255" lon="5.41705">
        <ele>920</ele>
        <time>2020-05-22T09:08:47.853Z</time>
      </trkpt>
      <trkpt lat="44.87252" lon="5.41704">
        <ele>920</ele>
        <time>2020-05-22T09:08:48.853Z</time>
      </trkpt>
      <trkpt lat="44.8725" lon="5.41703">
        <ele>919</ele>
        <time>2020-05-22T09:08:49.854Z</time>
      </trkpt>
      <trkpt lat="44.87247" lon="5.41701">
        <ele>919</ele>
        <time>2020-05-22T09:08:50.854Z</time>
      </trkpt>
      <trkpt lat="44.87244" lon="5.417">
        <ele>919</ele>
        <time>2020-05-22T09:08:51.854Z</time>
      </trkpt>
      <trkpt lat="44.87241" lon="5.41699">
        <ele>919</ele>
        <time>2020-05-22T09:08:52.854Z</time>
      </trkpt>
      <trkpt lat="44.87239" lon="5.41697">
        <ele>920</ele>
        <time>2020-05-22T09:08:53.853Z</time>
      </trkpt>
      <trkpt lat="44.87236" lon="5.41696">
        <ele>920</ele>
        <time>2020-05-22T09:08:54.854Z</time>
      </trkpt>
      <trkpt lat="44.87233" lon="5.41695">
        <ele>920</ele>
        <time>2020-05-22T09:08:55.853Z</time>
      </trkpt>
      <trkpt lat="44.8723" lon="5.41694">
        <ele>921</ele>
        <time>2020-05-22T09:08:56.854Z</time>
      </trkpt>
      <trkpt lat="44.87227" lon="5.41693">
        <ele>921</ele>
        <time>2020-05-22T09:08:57.854Z</time>
      </trkpt>
      <trkpt lat="44.87224" lon="5.41692">
        <ele>922</ele>
        <time>2020-05-22T09:08:58.853Z</time>
      </trkpt>
      <trkpt lat="44.87221" lon="5.41691">
        <ele>922</ele>
        <time>2020-05-22T09:08:59.854Z</time>
      </trkpt>
      <trkpt lat="44.87218" lon="5.41689">
        <ele>921</ele>
        <time>2020-05-22T09:09:00.854Z</time>
      </trkpt>
      <trkpt lat="44.87215" lon="5.41688">
        <ele>921</ele>
        <time>2020-05-22T09:09:01.854Z</time>
      </trkpt>
      <trkpt lat="44.87212" lon="5.41687">
        <ele>922</ele>
        <time>2020-05-22T09:09:02.854Z</time>
      </trkpt>
      <trkpt lat="44.87209" lon="5.41685">
        <ele>922</ele>
        <time>2020-05-22T09:09:03.854Z</time>
      </trkpt>
      <trkpt lat="44.87206" lon="5.41684">
        <ele>922</ele>
        <time>2020-05-22T09:09:04.854Z</time>
      </trkpt>
      <trkpt lat="44.87203" lon="5.41683">
        <ele>922</ele>
        <time>2020-05-22T09:09:05.854Z</time>
      </trkpt>
      <trkpt lat="44.872" lon="5.41682">
        <ele>923</ele>
        <time>2020-05-22T09:09:06.854Z</time>
      </trkpt>
      <trkpt lat="44.87197" lon="5.41681">
        <ele>923</ele>
        <time>2020-05-22T09:09:07.854Z</time>
      </trkpt>
      <trkpt lat="44.87194" lon="5.4168">
        <ele>923</ele>
        <time>2020-05-22T09:09:08.854Z</time>
      </trkpt>
      <trkpt lat="44.87192" lon="5.41679">
        <ele>924</ele>
        <time>2020-05-22T09:09:09.854Z</time>
      </trkpt>
      <trkpt lat="44.87189" lon="5.41679">
        <ele>924</ele>
        <time>2020-05-22T09:09:10.853Z</time>
      </trkpt>
      <trkpt lat="44.87186" lon="5.41677">
        <ele>924</ele>
        <time>2020-05-22T09:09:11.854Z</time>
      </trkpt>
      <trkpt lat="44.87183" lon="5.41677">
        <ele>924</ele>
        <time>2020-05-22T09:09:12.854Z</time>
      </trkpt>
      <trkpt lat="44.8718" lon="5.41676">
        <ele>924</ele>
        <time>2020-05-22T09:09:13.854Z</time>
      </trkpt>
      <trkpt lat="44.87177" lon="5.41676">
        <ele>924</ele>
        <time>2020-05-22T09:09:14.853Z</time>
      </trkpt>
      <trkpt lat="44.87174" lon="5.41675">
        <ele>924</ele>
        <time>2020-05-22T09:09:15.854Z</time>
      </trkpt>
      <trkpt lat="44.87172" lon="5.41675">
        <ele>924</ele>
        <time>2020-05-22T09:09:16.854Z</time>
      </trkpt>
      <trkpt lat="44.87169" lon="5.41674">
        <ele>925</ele>
        <time>2020-05-22T09:09:17.854Z</time>
      </trkpt>
      <trkpt lat="44.87166" lon="5.41675">
        <ele>925</ele>
        <time>2020-05-22T09:09:18.854Z</time>
      </trkpt>
      <trkpt lat="44.87163" lon="5.41674">
        <ele>926</ele>
        <time>2020-05-22T09:09:19.853Z</time>
      </trkpt>
      <trkpt lat="44.8716" lon="5.41674">
        <ele>926</ele>
        <time>2020-05-22T09:09:20.853Z</time>
      </trkpt>
      <trkpt lat="44.87157" lon="5.41675">
        <ele>926</ele>
        <time>2020-05-22T09:09:21.853Z</time>
      </trkpt>
      <trkpt lat="44.87154" lon="5.41675">
        <ele>926</ele>
        <time>2020-05-22T09:09:22.854Z</time>
      </trkpt>
      <trkpt lat="44.87152" lon="5.41675">
        <ele>926</ele>
        <time>2020-05-22T09:09:23.854Z</time>
      </trkpt>
      <trkpt lat="44.87148" lon="5.41676">
        <ele>926</ele>
        <time>2020-05-22T09:09:24.854Z</time>
      </trkpt>
      <trkpt lat="44.87145" lon="5.41676">
        <ele>927</ele>
        <time>2020-05-22T09:09:25.854Z</time>
      </trkpt>
      <trkpt lat="44.87142" lon="5.41677">
        <ele>926</ele>
        <time>2020-05-22T09:09:26.854Z</time>
      </trkpt>
      <trkpt lat="44.87139" lon="5.41677">
        <ele>926</ele>
        <time>2020-05-22T09:09:27.854Z</time>
      </trkpt>
      <trkpt lat="44.87137" lon="5.41678">
        <ele>926</ele>
        <time>2020-05-22T09:09:28.854Z</time>
      </trkpt>
      <trkpt lat="44.87133" lon="5.41678">
        <ele>926</ele>
        <time>2020-05-22T09:09:29.854Z</time>
      </trkpt>
      <trkpt lat="44.8713" lon="5.41679">
        <ele>926</ele>
        <time>2020-05-22T09:09:30.853Z</time>
      </trkpt>
      <trkpt lat="44.87127" lon="5.41679">
        <ele>926</ele>
        <time>2020-05-22T09:09:31.854Z</time>
      </trkpt>
      <trkpt lat="44.87123" lon="5.41679">
        <ele>926</ele>
        <time>2020-05-22T09:09:32.853Z</time>
      </trkpt>
      <trkpt lat="44.87121" lon="5.4168">
        <ele>926</ele>
        <time>2020-05-22T09:09:33.854Z</time>
      </trkpt>
      <trkpt lat="44.87116" lon="5.41681">
        <ele>927</ele>
        <time>2020-05-22T09:09:34.854Z</time>
      </trkpt>
      <trkpt lat="44.87113" lon="5.41681">
        <ele>927</ele>
        <time>2020-05-22T09:09:35.854Z</time>
      </trkpt>
      <trkpt lat="44.87109" lon="5.41682">
        <ele>927</ele>
        <time>2020-05-22T09:09:36.853Z</time>
      </trkpt>
      <trkpt lat="44.87106" lon="5.41683">
        <ele>927</ele>
        <time>2020-05-22T09:09:37.854Z</time>
      </trkpt>
      <trkpt lat="44.87103" lon="5.41683">
        <ele>927</ele>
        <time>2020-05-22T09:09:38.854Z</time>
      </trkpt>
      <trkpt lat="44.871" lon="5.41684">
        <ele>927</ele>
        <time>2020-05-22T09:09:39.853Z</time>
      </trkpt>
      <trkpt lat="44.87095" lon="5.41684">
        <ele>927</ele>
        <time>2020-05-22T09:09:40.853Z</time>
      </trkpt>
      <trkpt lat="44.87093" lon="5.41685">
        <ele>927</ele>
        <time>2020-05-22T09:09:41.854Z</time>
      </trkpt>
      <trkpt lat="44.87088" lon="5.41685">
        <ele>927</ele>
        <time>2020-05-22T09:09:42.854Z</time>
      </trkpt>
      <trkpt lat="44.87085" lon="5.41686">
        <ele>928</ele>
        <time>2020-05-22T09:09:43.853Z</time>
      </trkpt>
      <trkpt lat="44.87082" lon="5.41686">
        <ele>928</ele>
        <time>2020-05-22T09:09:44.854Z</time>
      </trkpt>
      <trkpt lat="44.87078" lon="5.41686">
        <ele>928</ele>
        <time>2020-05-22T09:09:45.854Z</time>
      </trkpt>
      <trkpt lat="44.87075" lon="5.41686">
        <ele>927</ele>
        <time>2020-05-22T09:09:46.853Z</time>
      </trkpt>
      <trkpt lat="44.87072" lon="5.41687">
        <ele>927</ele>
        <time>2020-05-22T09:09:47.854Z</time>
      </trkpt>
      <trkpt lat="44.87069" lon="5.41687">
        <ele>927</ele>
        <time>2020-05-22T09:09:48.854Z</time>
      </trkpt>
      <trkpt lat="44.87066" lon="5.41687">
        <ele>927</ele>
        <time>2020-05-22T09:09:49.853Z</time>
      </trkpt>
      <trkpt lat="44.87063" lon="5.41687">
        <ele>928</ele>
        <time>2020-05-22T09:09:50.854Z</time>
      </trkpt>
      <trkpt lat="44.87059" lon="5.41687">
        <ele>928</ele>
        <time>2020-05-22T09:09:51.854Z</time>
      </trkpt>
      <trkpt lat="44.87056" lon="5.41687">
        <ele>928</ele>
        <time>2020-05-22T09:09:52.854Z</time>
      </trkpt>
      <trkpt lat="44.87054" lon="5.41687">
        <ele>928</ele>
        <time>2020-05-22T09:09:53.854Z</time>
      </trkpt>
      <trkpt lat="44.87052" lon="5.41687">
        <ele>928</ele>
        <time>2020-05-22T09:09:54.853Z</time>
      </trkpt>
      <trkpt lat="44.87049" lon="5.41686">
        <ele>928</ele>
        <time>2020-05-22T09:09:55.853Z</time>
      </trkpt>
      <trkpt lat="44.87046" lon="5.41686">
        <ele>928</ele>
        <time>2020-05-22T09:09:56.854Z</time>
      </trkpt>
      <trkpt lat="44.87044" lon="5.41686">
        <ele>928</ele>
        <time>2020-05-22T09:09:57.853Z</time>
      </trkpt>
      <trkpt lat="44.87041" lon="5.41686">
        <ele>928</ele>
        <time>2020-05-22T09:09:58.854Z</time>
      </trkpt>
      <trkpt lat="44.87039" lon="5.41686">
        <ele>928</ele>
        <time>2020-05-22T09:09:59.853Z</time>
      </trkpt>
      <trkpt lat="44.87036" lon="5.41686">
        <ele>928</ele>
        <time>2020-05-22T09:10:00.853Z</time>
      </trkpt>
      <trkpt lat="44.87033" lon="5.41685">
        <ele>928</ele>
        <time>2020-05-22T09:10:01.854Z</time>
      </trkpt>
      <trkpt lat="44.87031" lon="5.41685">
        <ele>928</ele>
        <time>2020-05-22T09:10:02.854Z</time>
      </trkpt>
      <trkpt lat="44.87029" lon="5.41684">
        <ele>927</ele>
        <time>2020-05-22T09:10:03.854Z</time>
      </trkpt>
      <trkpt lat="44.87026" lon="5.41683">
        <ele>927</ele>
        <time>2020-05-22T09:10:04.854Z</time>
      </trkpt>
      <trkpt lat="44.87023" lon="5.4168">
        <ele>928</ele>
        <time>2020-05-22T09:10:05.854Z</time>
      </trkpt>
      <trkpt lat="44.87021" lon="5.41677">
        <ele>928</ele>
        <time>2020-05-22T09:10:06.854Z</time>
      </trkpt>
      <trkpt lat="44.8702" lon="5.41674">
        <ele>927</ele>
        <time>2020-05-22T09:10:07.854Z</time>
      </trkpt>
      <trkpt lat="44.87018" lon="5.4167">
        <ele>928</ele>
        <time>2020-05-22T09:10:08.854Z</time>
      </trkpt>
      <trkpt lat="44.87017" lon="5.41666">
        <ele>928</ele>
        <time>2020-05-22T09:10:09.854Z</time>
      </trkpt>
      <trkpt lat="44.87015" lon="5.41663">
        <ele>929</ele>
        <time>2020-05-22T09:10:10.854Z</time>
      </trkpt>
      <trkpt lat="44.87013" lon="5.4166">
        <ele>929</ele>
        <time>2020-05-22T09:10:11.854Z</time>
      </trkpt>
      <trkpt lat="44.87012" lon="5.41657">
        <ele>930</ele>
        <time>2020-05-22T09:10:12.854Z</time>
      </trkpt>
      <trkpt lat="44.8701" lon="5.41655">
        <ele>930</ele>
        <time>2020-05-22T09:10:13.854Z</time>
      </trkpt>
      <trkpt lat="44.87008" lon="5.41652">
        <ele>930</ele>
        <time>2020-05-22T09:10:14.854Z</time>
      </trkpt>
      <trkpt lat="44.87006" lon="5.41649">
        <ele>930</ele>
        <time>2020-05-22T09:10:15.854Z</time>
      </trkpt>
      <trkpt lat="44.87004" lon="5.41647">
        <ele>930</ele>
        <time>2020-05-22T09:10:16.854Z</time>
      </trkpt>
      <trkpt lat="44.87003" lon="5.41645">
        <ele>930</ele>
        <time>2020-05-22T09:10:17.853Z</time>
      </trkpt>
      <trkpt lat="44.87" lon="5.41643">
        <ele>929</ele>
        <time>2020-05-22T09:10:18.854Z</time>
      </trkpt>
      <trkpt lat="44.86998" lon="5.4164">
        <ele>929</ele>
        <time>2020-05-22T09:10:19.854Z</time>
      </trkpt>
      <trkpt lat="44.86996" lon="5.41638">
        <ele>929</ele>
        <time>2020-05-22T09:10:20.854Z</time>
      </trkpt>
      <trkpt lat="44.86994" lon="5.41636">
        <ele>928</ele>
        <time>2020-05-22T09:10:21.854Z</time>
      </trkpt>
      <trkpt lat="44.86992" lon="5.41634">
        <ele>929</ele>
        <time>2020-05-22T09:10:22.854Z</time>
      </trkpt>
      <trkpt lat="44.8699" lon="5.41632">
        <ele>929</ele>
        <time>2020-05-22T09:10:23.853Z</time>
      </trkpt>
      <trkpt lat="44.86988" lon="5.4163">
        <ele>930</ele>
        <time>2020-05-22T09:10:24.854Z</time>
      </trkpt>
      <trkpt lat="44.86987" lon="5.41629">
        <ele>930</ele>
        <time>2020-05-22T09:10:25.853Z</time>
      </trkpt>
      <trkpt lat="44.86985" lon="5.41627">
        <ele>930</ele>
        <time>2020-05-22T09:10:26.853Z</time>
      </trkpt>
      <trkpt lat="44.86983" lon="5.41625">
        <ele>929</ele>
        <time>2020-05-22T09:10:27.854Z</time>
      </trkpt>
      <trkpt lat="44.86981" lon="5.41623">
        <ele>928</ele>
        <time>2020-05-22T09:10:28.854Z</time>
      </trkpt>
      <trkpt lat="44.86979" lon="5.4162">
        <ele>928</ele>
        <time>2020-05-22T09:10:29.854Z</time>
      </trkpt>
      <trkpt lat="44.86977" lon="5.41618">
        <ele>927</ele>
        <time>2020-05-22T09:10:30.854Z</time>
      </trkpt>
      <trkpt lat="44.86975" lon="5.41616">
        <ele>926</ele>
        <time>2020-05-22T09:10:31.853Z</time>
      </trkpt>
      <trkpt lat="44.86974" lon="5.41614">
        <ele>925</ele>
        <time>2020-05-22T09:10:32.853Z</time>
      </trkpt>
      <trkpt lat="44.86971" lon="5.41611">
        <ele>925</ele>
        <time>2020-05-22T09:10:33.854Z</time>
      </trkpt>
      <trkpt lat="44.86969" lon="5.41609">
        <ele>925</ele>
        <time>2020-05-22T09:10:34.854Z</time>
      </trkpt>
      <trkpt lat="44.86967" lon="5.41607">
        <ele>925</ele>
        <time>2020-05-22T09:10:35.853Z</time>
      </trkpt>
      <trkpt lat="44.86965" lon="5.41604">
        <ele>925</ele>
        <time>2020-05-22T09:10:36.854Z</time>
      </trkpt>
      <trkpt lat="44.86963" lon="5.41602">
        <ele>925</ele>
        <time>2020-05-22T09:10:37.854Z</time>
      </trkpt>
      <trkpt lat="44.86962" lon="5.41601">
        <ele>925</ele>
        <time>2020-05-22T09:10:38.854Z</time>
      </trkpt>
      <trkpt lat="44.86959" lon="5.41598">
        <ele>926</ele>
        <time>2020-05-22T09:10:39.853Z</time>
      </trkpt>
      <trkpt lat="44.86957" lon="5.41596">
        <ele>927</ele>
        <time>2020-05-22T09:10:40.854Z</time>
      </trkpt>
      <trkpt lat="44.86955" lon="5.41593">
        <ele>928</ele>
        <time>2020-05-22T09:10:41.853Z</time>
      </trkpt>
      <trkpt lat="44.86953" lon="5.4159">
        <ele>928</ele>
        <time>2020-05-22T09:10:42.853Z</time>
      </trkpt>
      <trkpt lat="44.86951" lon="5.41588">
        <ele>929</ele>
        <time>2020-05-22T09:10:43.854Z</time>
      </trkpt>
      <trkpt lat="44.86949" lon="5.41585">
        <ele>929</ele>
        <time>2020-05-22T09:10:44.853Z</time>
      </trkpt>
      <trkpt lat="44.86947" lon="5.41583">
        <ele>929</ele>
        <time>2020-05-22T09:10:45.853Z</time>
      </trkpt>
      <trkpt lat="44.86945" lon="5.41581">
        <ele>929</ele>
        <time>2020-05-22T09:10:46.854Z</time>
      </trkpt>
      <trkpt lat="44.86943" lon="5.41579">
        <ele>929</ele>
        <time>2020-05-22T09:10:47.854Z</time>
      </trkpt>
      <trkpt lat="44.86941" lon="5.41577">
        <ele>929</ele>
        <time>2020-05-22T09:10:48.854Z</time>
      </trkpt>
      <trkpt lat="44.86939" lon="5.41574">
        <ele>930</ele>
        <time>2020-05-22T09:10:49.854Z</time>
      </trkpt>
      <trkpt lat="44.86937" lon="5.41572">
        <ele>930</ele>
        <time>2020-05-22T09:10:50.853Z</time>
      </trkpt>
      <trkpt lat="44.86934" lon="5.4157">
        <ele>931</ele>
        <time>2020-05-22T09:10:51.853Z</time>
      </trkpt>
      <trkpt lat="44.86933" lon="5.41569">
        <ele>933</ele>
        <time>2020-05-22T09:10:52.854Z</time>
      </trkpt>
      <trkpt lat="44.8693" lon="5.41567">
        <ele>934</ele>
        <time>2020-05-22T09:10:53.854Z</time>
      </trkpt>
      <trkpt lat="44.86928" lon="5.41565">
        <ele>936</ele>
        <time>2020-05-22T09:10:54.854Z</time>
      </trkpt>
      <trkpt lat="44.86925" lon="5.41564">
        <ele>938</ele>
        <time>2020-05-22T09:10:55.854Z</time>
      </trkpt>
      <trkpt lat="44.86922" lon="5.41563">
        <ele>939</ele>
        <time>2020-05-22T09:10:56.854Z</time>
      </trkpt>
      <trkpt lat="44.8692" lon="5.41562">
        <ele>940</ele>
        <time>2020-05-22T09:10:57.854Z</time>
      </trkpt>
      <trkpt lat="44.86918" lon="5.41561">
        <ele>942</ele>
        <time>2020-05-22T09:10:58.854Z</time>
      </trkpt>
      <trkpt lat="44.86915" lon="5.41559">
        <ele>943</ele>
        <time>2020-05-22T09:10:59.853Z</time>
      </trkpt>
      <trkpt lat="44.86912" lon="5.41558">
        <ele>943</ele>
        <time>2020-05-22T09:11:00.854Z</time>
      </trkpt>
      <trkpt lat="44.8691" lon="5.41557">
        <ele>943</ele>
        <time>2020-05-22T09:11:01.853Z</time>
      </trkpt>
      <trkpt lat="44.86907" lon="5.41556">
        <ele>942</ele>
        <time>2020-05-22T09:11:02.853Z</time>
      </trkpt>
      <trkpt lat="44.86904" lon="5.41555">
        <ele>941</ele>
        <time>2020-05-22T09:11:03.854Z</time>
      </trkpt>
      <trkpt lat="44.86902" lon="5.41555">
        <ele>940</ele>
        <time>2020-05-22T09:11:04.853Z</time>
      </trkpt>
      <trkpt lat="44.86899" lon="5.41555">
        <ele>939</ele>
        <time>2020-05-22T09:11:05.853Z</time>
      </trkpt>
      <trkpt lat="44.86896" lon="5.41556">
        <ele>939</ele>
        <time>2020-05-22T09:11:06.854Z</time>
      </trkpt>
      <trkpt lat="44.86893" lon="5.41556">
        <ele>938</ele>
        <time>2020-05-22T09:11:07.854Z</time>
      </trkpt>
      <trkpt lat="44.8689" lon="5.41556">
        <ele>938</ele>
        <time>2020-05-22T09:11:08.854Z</time>
      </trkpt>
      <trkpt lat="44.86886" lon="5.41556">
        <ele>938</ele>
        <time>2020-05-22T09:11:09.853Z</time>
      </trkpt>
      <trkpt lat="44.86882" lon="5.41556">
        <ele>938</ele>
        <time>2020-05-22T09:11:10.854Z</time>
      </trkpt>
      <trkpt lat="44.86879" lon="5.41555">
        <ele>939</ele>
        <time>2020-05-22T09:11:11.853Z</time>
      </trkpt>
      <trkpt lat="44.86876" lon="5.41553">
        <ele>939</ele>
        <time>2020-05-22T09:11:12.854Z</time>
      </trkpt>
      <trkpt lat="44.86874" lon="5.41552">
        <ele>939</ele>
        <time>2020-05-22T09:11:13.853Z</time>
      </trkpt>
      <trkpt lat="44.86872" lon="5.41551">
        <ele>938</ele>
        <time>2020-05-22T09:11:14.854Z</time>
      </trkpt>
      <trkpt lat="44.8687" lon="5.41551">
        <ele>938</ele>
        <time>2020-05-22T09:11:15.854Z</time>
      </trkpt>
      <trkpt lat="44.86868" lon="5.4155">
        <ele>938</ele>
        <time>2020-05-22T09:11:16.854Z</time>
      </trkpt>
      <trkpt lat="44.86866" lon="5.41549">
        <ele>937</ele>
        <time>2020-05-22T09:11:17.854Z</time>
      </trkpt>
      <trkpt lat="44.86865" lon="5.41548">
        <ele>938</ele>
        <time>2020-05-22T09:11:18.854Z</time>
      </trkpt>
      <trkpt lat="44.86863" lon="5.41547">
        <ele>938</ele>
        <time>2020-05-22T09:11:19.853Z</time>
      </trkpt>
      <trkpt lat="44.86861" lon="5.41547">
        <ele>938</ele>
        <time>2020-05-22T09:11:20.854Z</time>
      </trkpt>
      <trkpt lat="44.86859" lon="5.41546">
        <ele>939</ele>
        <time>2020-05-22T09:11:21.854Z</time>
      </trkpt>
      <trkpt lat="44.86857" lon="5.41546">
        <ele>940</ele>
        <time>2020-05-22T09:11:22.854Z</time>
      </trkpt>
      <trkpt lat="44.86856" lon="5.41545">
        <ele>940</ele>
        <time>2020-05-22T09:11:23.854Z</time>
      </trkpt>
      <trkpt lat="44.86854" lon="5.41545">
        <ele>940</ele>
        <time>2020-05-22T09:11:24.854Z</time>
      </trkpt>
      <trkpt lat="44.86852" lon="5.41545">
        <ele>941</ele>
        <time>2020-05-22T09:11:25.854Z</time>
      </trkpt>
      <trkpt lat="44.8685" lon="5.41545">
        <ele>941</ele>
        <time>2020-05-22T09:11:26.854Z</time>
      </trkpt>
      <trkpt lat="44.86849" lon="5.41545">
        <ele>941</ele>
        <time>2020-05-22T09:11:27.854Z</time>
      </trkpt>
      <trkpt lat="44.86847" lon="5.41545">
        <ele>940</ele>
        <time>2020-05-22T09:11:28.853Z</time>
      </trkpt>
      <trkpt lat="44.86845" lon="5.41545">
        <ele>940</ele>
        <time>2020-05-22T09:11:29.854Z</time>
      </trkpt>
      <trkpt lat="44.86843" lon="5.41546">
        <ele>940</ele>
        <time>2020-05-22T09:11:30.854Z</time>
      </trkpt>
      <trkpt lat="44.86842" lon="5.41547">
        <ele>939</ele>
        <time>2020-05-22T09:11:31.853Z</time>
      </trkpt>
      <trkpt lat="44.8684" lon="5.41547">
        <ele>939</ele>
        <time>2020-05-22T09:11:32.853Z</time>
      </trkpt>
      <trkpt lat="44.86838" lon="5.41547">
        <ele>939</ele>
        <time>2020-05-22T09:11:33.854Z</time>
      </trkpt>
      <trkpt lat="44.86837" lon="5.41547">
        <ele>939</ele>
        <time>2020-05-22T09:11:34.854Z</time>
      </trkpt>
      <trkpt lat="44.86835" lon="5.41547">
        <ele>938</ele>
        <time>2020-05-22T09:11:35.854Z</time>
      </trkpt>
      <trkpt lat="44.86834" lon="5.41548">
        <ele>938</ele>
        <time>2020-05-22T09:11:36.854Z</time>
      </trkpt>
      <trkpt lat="44.86833" lon="5.41549">
        <ele>939</ele>
        <time>2020-05-22T09:11:37.853Z</time>
      </trkpt>
      <trkpt lat="44.86831" lon="5.4155">
        <ele>939</ele>
        <time>2020-05-22T09:11:38.854Z</time>
      </trkpt>
      <trkpt lat="44.86829" lon="5.4155">
        <ele>940</ele>
        <time>2020-05-22T09:11:39.853Z</time>
      </trkpt>
      <trkpt lat="44.86827" lon="5.4155">
        <ele>940</ele>
        <time>2020-05-22T09:11:40.854Z</time>
      </trkpt>
      <trkpt lat="44.86825" lon="5.41551">
        <ele>940</ele>
        <time>2020-05-22T09:11:41.853Z</time>
      </trkpt>
      <trkpt lat="44.86823" lon="5.41551">
        <ele>940</ele>
        <time>2020-05-22T09:11:42.854Z</time>
      </trkpt>
      <trkpt lat="44.86821" lon="5.41552">
        <ele>941</ele>
        <time>2020-05-22T09:11:43.854Z</time>
      </trkpt>
      <trkpt lat="44.86819" lon="5.41552">
        <ele>941</ele>
        <time>2020-05-22T09:11:44.853Z</time>
      </trkpt>
      <trkpt lat="44.86817" lon="5.41553">
        <ele>941</ele>
        <time>2020-05-22T09:11:45.854Z</time>
      </trkpt>
      <trkpt lat="44.86815" lon="5.41553">
        <ele>941</ele>
        <time>2020-05-22T09:11:46.854Z</time>
      </trkpt>
      <trkpt lat="44.86813" lon="5.41553">
        <ele>942</ele>
        <time>2020-05-22T09:11:47.853Z</time>
      </trkpt>
      <trkpt lat="44.8681" lon="5.41554">
        <ele>942</ele>
        <time>2020-05-22T09:11:48.853Z</time>
      </trkpt>
      <trkpt lat="44.86808" lon="5.41554">
        <ele>942</ele>
        <time>2020-05-22T09:11:49.853Z</time>
      </trkpt>
      <trkpt lat="44.86806" lon="5.41554">
        <ele>942</ele>
        <time>2020-05-22T09:11:50.854Z</time>
      </trkpt>
      <trkpt lat="44.86803" lon="5.41555">
        <ele>942</ele>
        <time>2020-05-22T09:11:51.853Z</time>
      </trkpt>
      <trkpt lat="44.86801" lon="5.41556">
        <ele>941</ele>
        <time>2020-05-22T09:11:52.853Z</time>
      </trkpt>
      <trkpt lat="44.86799" lon="5.41556">
        <ele>942</ele>
        <time>2020-05-22T09:11:53.854Z</time>
      </trkpt>
      <trkpt lat="44.86796" lon="5.41556">
        <ele>941</ele>
        <time>2020-05-22T09:11:54.854Z</time>
      </trkpt>
      <trkpt lat="44.86794" lon="5.41557">
        <ele>941</ele>
        <time>2020-05-22T09:11:55.854Z</time>
      </trkpt>
      <trkpt lat="44.86791" lon="5.41557">
        <ele>941</ele>
        <time>2020-05-22T09:11:56.854Z</time>
      </trkpt>
      <trkpt lat="44.86789" lon="5.41557">
        <ele>941</ele>
        <time>2020-05-22T09:11:57.854Z</time>
      </trkpt>
      <trkpt lat="44.86786" lon="5.41558">
        <ele>941</ele>
        <time>2020-05-22T09:11:58.854Z</time>
      </trkpt>
      <trkpt lat="44.86784" lon="5.41558">
        <ele>941</ele>
        <time>2020-05-22T09:11:59.854Z</time>
      </trkpt>
      <trkpt lat="44.86781" lon="5.41559">
        <ele>941</ele>
        <time>2020-05-22T09:12:00.854Z</time>
      </trkpt>
      <trkpt lat="44.86779" lon="5.41559">
        <ele>941</ele>
        <time>2020-05-22T09:12:01.854Z</time>
      </trkpt>
      <trkpt lat="44.86776" lon="5.41559">
        <ele>941</ele>
        <time>2020-05-22T09:12:02.854Z</time>
      </trkpt>
      <trkpt lat="44.86773" lon="5.4156">
        <ele>942</ele>
        <time>2020-05-22T09:12:03.854Z</time>
      </trkpt>
      <trkpt lat="44.86771" lon="5.4156">
        <ele>942</ele>
        <time>2020-05-22T09:12:04.853Z</time>
      </trkpt>
      <trkpt lat="44.86769" lon="5.4156">
        <ele>943</ele>
        <time>2020-05-22T09:12:05.853Z</time>
      </trkpt>
      <trkpt lat="44.86766" lon="5.41561">
        <ele>943</ele>
        <time>2020-05-22T09:12:06.853Z</time>
      </trkpt>
      <trkpt lat="44.86763" lon="5.41561">
        <ele>943</ele>
        <time>2020-05-22T09:12:07.853Z</time>
      </trkpt>
      <trkpt lat="44.86761" lon="5.41561">
        <ele>943</ele>
        <time>2020-05-22T09:12:08.854Z</time>
      </trkpt>
      <trkpt lat="44.86758" lon="5.41561">
        <ele>943</ele>
        <time>2020-05-22T09:12:09.854Z</time>
      </trkpt>
      <trkpt lat="44.86756" lon="5.41561">
        <ele>943</ele>
        <time>2020-05-22T09:12:10.854Z</time>
      </trkpt>
      <trkpt lat="44.86753" lon="5.41562">
        <ele>943</ele>
        <time>2020-05-22T09:12:11.854Z</time>
      </trkpt>
      <trkpt lat="44.86751" lon="5.41562">
        <ele>943</ele>
        <time>2020-05-22T09:12:12.854Z</time>
      </trkpt>
      <trkpt lat="44.86748" lon="5.41563">
        <ele>943</ele>
        <time>2020-05-22T09:12:13.854Z</time>
      </trkpt>
      <trkpt lat="44.86746" lon="5.41563">
        <ele>943</ele>
        <time>2020-05-22T09:12:14.854Z</time>
      </trkpt>
      <trkpt lat="44.86744" lon="5.41564">
        <ele>943</ele>
        <time>2020-05-22T09:12:15.853Z</time>
      </trkpt>
      <trkpt lat="44.86741" lon="5.41565">
        <ele>943</ele>
        <time>2020-05-22T09:12:16.854Z</time>
      </trkpt>
      <trkpt lat="44.86739" lon="5.41566">
        <ele>943</ele>
        <time>2020-05-22T09:12:17.853Z</time>
      </trkpt>
      <trkpt lat="44.86737" lon="5.41567">
        <ele>943</ele>
        <time>2020-05-22T09:12:18.853Z</time>
      </trkpt>
      <trkpt lat="44.86735" lon="5.41568">
        <ele>943</ele>
        <time>2020-05-22T09:12:19.854Z</time>
      </trkpt>
      <trkpt lat="44.86732" lon="5.41568">
        <ele>943</ele>
        <time>2020-05-22T09:12:20.854Z</time>
      </trkpt>
      <trkpt lat="44.8673" lon="5.4157">
        <ele>943</ele>
        <time>2020-05-22T09:12:21.853Z</time>
      </trkpt>
      <trkpt lat="44.86728" lon="5.41571">
        <ele>943</ele>
        <time>2020-05-22T09:12:22.853Z</time>
      </trkpt>
      <trkpt lat="44.86725" lon="5.41572">
        <ele>943</ele>
        <time>2020-05-22T09:12:23.854Z</time>
      </trkpt>
      <trkpt lat="44.86724" lon="5.41572">
        <ele>943</ele>
        <time>2020-05-22T09:12:24.854Z</time>
      </trkpt>
      <trkpt lat="44.86722" lon="5.41574">
        <ele>944</ele>
        <time>2020-05-22T09:12:25.853Z</time>
      </trkpt>
      <trkpt lat="44.8672" lon="5.41575">
        <ele>944</ele>
        <time>2020-05-22T09:12:26.854Z</time>
      </trkpt>
      <trkpt lat="44.86718" lon="5.41576">
        <ele>945</ele>
        <time>2020-05-22T09:12:27.854Z</time>
      </trkpt>
      <trkpt lat="44.86716" lon="5.41576">
        <ele>945</ele>
        <time>2020-05-22T09:12:28.854Z</time>
      </trkpt>
      <trkpt lat="44.86714" lon="5.41576">
        <ele>945</ele>
        <time>2020-05-22T09:12:29.853Z</time>
      </trkpt>
      <trkpt lat="44.86711" lon="5.41576">
        <ele>946</ele>
        <time>2020-05-22T09:12:30.854Z</time>
      </trkpt>
      <trkpt lat="44.86708" lon="5.41577">
        <ele>946</ele>
        <time>2020-05-22T09:12:31.854Z</time>
      </trkpt>
      <trkpt lat="44.86706" lon="5.41577">
        <ele>946</ele>
        <time>2020-05-22T09:12:32.854Z</time>
      </trkpt>
      <trkpt lat="44.86703" lon="5.41577">
        <ele>946</ele>
        <time>2020-05-22T09:12:33.854Z</time>
      </trkpt>
      <trkpt lat="44.86701" lon="5.41576">
        <ele>947</ele>
        <time>2020-05-22T09:12:34.854Z</time>
      </trkpt>
      <trkpt lat="44.86699" lon="5.41576">
        <ele>946</ele>
        <time>2020-05-22T09:12:35.853Z</time>
      </trkpt>
      <trkpt lat="44.86696" lon="5.41576">
        <ele>946</ele>
        <time>2020-05-22T09:12:36.854Z</time>
      </trkpt>
      <trkpt lat="44.86693" lon="5.41576">
        <ele>946</ele>
        <time>2020-05-22T09:12:37.853Z</time>
      </trkpt>
      <trkpt lat="44.8669" lon="5.41575">
        <ele>946</ele>
        <time>2020-05-22T09:12:38.854Z</time>
      </trkpt>
      <trkpt lat="44.86688" lon="5.41575">
        <ele>946</ele>
        <time>2020-05-22T09:12:39.854Z</time>
      </trkpt>
      <trkpt lat="44.86685" lon="5.41575">
        <ele>946</ele>
        <time>2020-05-22T09:12:40.854Z</time>
      </trkpt>
      <trkpt lat="44.86682" lon="5.41574">
        <ele>946</ele>
        <time>2020-05-22T09:12:41.853Z</time>
      </trkpt>
      <trkpt lat="44.86679" lon="5.41574">
        <ele>946</ele>
        <time>2020-05-22T09:12:42.853Z</time>
      </trkpt>
      <trkpt lat="44.86676" lon="5.41574">
        <ele>946</ele>
        <time>2020-05-22T09:12:43.854Z</time>
      </trkpt>
      <trkpt lat="44.86674" lon="5.41574">
        <ele>946</ele>
        <time>2020-05-22T09:12:44.854Z</time>
      </trkpt>
      <trkpt lat="44.86672" lon="5.41573">
        <ele>947</ele>
        <time>2020-05-22T09:12:45.854Z</time>
      </trkpt>
      <trkpt lat="44.86669" lon="5.41573">
        <ele>947</ele>
        <time>2020-05-22T09:12:46.853Z</time>
      </trkpt>
      <trkpt lat="44.86666" lon="5.41573">
        <ele>947</ele>
        <time>2020-05-22T09:12:47.853Z</time>
      </trkpt>
      <trkpt lat="44.86664" lon="5.41572">
        <ele>947</ele>
        <time>2020-05-22T09:12:48.854Z</time>
      </trkpt>
      <trkpt lat="44.86662" lon="5.41572">
        <ele>946</ele>
        <time>2020-05-22T09:12:49.853Z</time>
      </trkpt>
      <trkpt lat="44.86659" lon="5.41572">
        <ele>946</ele>
        <time>2020-05-22T09:12:50.854Z</time>
      </trkpt>
      <trkpt lat="44.86656" lon="5.41572">
        <ele>947</ele>
        <time>2020-05-22T09:12:51.853Z</time>
      </trkpt>
      <trkpt lat="44.86653" lon="5.41572">
        <ele>947</ele>
        <time>2020-05-22T09:12:52.853Z</time>
      </trkpt>
      <trkpt lat="44.86651" lon="5.41572">
        <ele>947</ele>
        <time>2020-05-22T09:12:53.853Z</time>
      </trkpt>
      <trkpt lat="44.86649" lon="5.41571">
        <ele>947</ele>
        <time>2020-05-22T09:12:54.854Z</time>
      </trkpt>
      <trkpt lat="44.86646" lon="5.41571">
        <ele>948</ele>
        <time>2020-05-22T09:12:55.854Z</time>
      </trkpt>
      <trkpt lat="44.86644" lon="5.41571">
        <ele>947</ele>
        <time>2020-05-22T09:12:56.854Z</time>
      </trkpt>
      <trkpt lat="44.8664" lon="5.41571">
        <ele>947</ele>
        <time>2020-05-22T09:12:57.853Z</time>
      </trkpt>
      <trkpt lat="44.86638" lon="5.41571">
        <ele>947</ele>
        <time>2020-05-22T09:12:58.853Z</time>
      </trkpt>
      <trkpt lat="44.86636" lon="5.4157">
        <ele>948</ele>
        <time>2020-05-22T09:12:59.853Z</time>
      </trkpt>
      <trkpt lat="44.86633" lon="5.4157">
        <ele>948</ele>
        <time>2020-05-22T09:13:00.854Z</time>
      </trkpt>
      <trkpt lat="44.8663" lon="5.4157">
        <ele>948</ele>
        <time>2020-05-22T09:13:01.853Z</time>
      </trkpt>
      <trkpt lat="44.86627" lon="5.4157">
        <ele>948</ele>
        <time>2020-05-22T09:13:02.854Z</time>
      </trkpt>
      <trkpt lat="44.86625" lon="5.4157">
        <ele>948</ele>
        <time>2020-05-22T09:13:03.854Z</time>
      </trkpt>
      <trkpt lat="44.86623" lon="5.4157">
        <ele>948</ele>
        <time>2020-05-22T09:13:04.854Z</time>
      </trkpt>
      <trkpt lat="44.8662" lon="5.41569">
        <ele>948</ele>
        <time>2020-05-22T09:13:05.854Z</time>
      </trkpt>
      <trkpt lat="44.86617" lon="5.41569">
        <ele>948</ele>
        <time>2020-05-22T09:13:06.853Z</time>
      </trkpt>
      <trkpt lat="44.86615" lon="5.41569">
        <ele>949</ele>
        <time>2020-05-22T09:13:07.854Z</time>
      </trkpt>
      <trkpt lat="44.86612" lon="5.41569">
        <ele>949</ele>
        <time>2020-05-22T09:13:08.854Z</time>
      </trkpt>
      <trkpt lat="44.86609" lon="5.4157">
        <ele>949</ele>
        <time>2020-05-22T09:13:09.854Z</time>
      </trkpt>
      <trkpt lat="44.86607" lon="5.41571">
        <ele>950</ele>
        <time>2020-05-22T09:13:10.854Z</time>
      </trkpt>
      <trkpt lat="44.86605" lon="5.41571">
        <ele>950</ele>
        <time>2020-05-22T09:13:11.854Z</time>
      </trkpt>
      <trkpt lat="44.86602" lon="5.41573">
        <ele>950</ele>
        <time>2020-05-22T09:13:12.853Z</time>
      </trkpt>
      <trkpt lat="44.866" lon="5.41573">
        <ele>950</ele>
        <time>2020-05-22T09:13:13.854Z</time>
      </trkpt>
      <trkpt lat="44.86598" lon="5.41574">
        <ele>949</ele>
        <time>2020-05-22T09:13:14.854Z</time>
      </trkpt>
      <trkpt lat="44.86596" lon="5.41574">
        <ele>950</ele>
        <time>2020-05-22T09:13:15.854Z</time>
      </trkpt>
      <trkpt lat="44.86594" lon="5.41575">
        <ele>950</ele>
        <time>2020-05-22T09:13:16.853Z</time>
      </trkpt>
      <trkpt lat="44.86592" lon="5.41575">
        <ele>951</ele>
        <time>2020-05-22T09:13:17.853Z</time>
      </trkpt>
      <trkpt lat="44.8659" lon="5.41575">
        <ele>951</ele>
        <time>2020-05-22T09:13:18.854Z</time>
      </trkpt>
      <trkpt lat="44.86588" lon="5.41575">
        <ele>953</ele>
        <time>2020-05-22T09:13:19.853Z</time>
      </trkpt>
      <trkpt lat="44.86586" lon="5.41576">
        <ele>953</ele>
        <time>2020-05-22T09:13:20.854Z</time>
      </trkpt>
      <trkpt lat="44.86584" lon="5.41576">
        <ele>954</ele>
        <time>2020-05-22T09:13:21.854Z</time>
      </trkpt>
      <trkpt lat="44.86582" lon="5.41577">
        <ele>955</ele>
        <time>2020-05-22T09:13:22.854Z</time>
      </trkpt>
      <trkpt lat="44.86581" lon="5.41577">
        <ele>956</ele>
        <time>2020-05-22T09:13:23.854Z</time>
      </trkpt>
      <trkpt lat="44.86579" lon="5.41577">
        <ele>956</ele>
        <time>2020-05-22T09:13:24.853Z</time>
      </trkpt>
      <trkpt lat="44.86577" lon="5.41577">
        <ele>957</ele>
        <time>2020-05-22T09:13:25.853Z</time>
      </trkpt>
      <trkpt lat="44.86575" lon="5.41577">
        <ele>957</ele>
        <time>2020-05-22T09:13:26.854Z</time>
      </trkpt>
      <trkpt lat="44.86574" lon="5.41577">
        <ele>957</ele>
        <time>2020-05-22T09:13:27.853Z</time>
      </trkpt>
      <trkpt lat="44.86572" lon="5.41577">
        <ele>957</ele>
        <time>2020-05-22T09:13:28.854Z</time>
      </trkpt>
      <trkpt lat="44.8657" lon="5.41577">
        <ele>957</ele>
        <time>2020-05-22T09:13:29.854Z</time>
      </trkpt>
      <trkpt lat="44.86569" lon="5.41576">
        <ele>957</ele>
        <time>2020-05-22T09:13:30.854Z</time>
      </trkpt>
      <trkpt lat="44.86567" lon="5.41575">
        <ele>957</ele>
        <time>2020-05-22T09:13:31.853Z</time>
      </trkpt>
      <trkpt lat="44.86565" lon="5.41574">
        <ele>956</ele>
        <time>2020-05-22T09:13:32.853Z</time>
      </trkpt>
      <trkpt lat="44.86564" lon="5.41574">
        <ele>956</ele>
        <time>2020-05-22T09:13:33.853Z</time>
      </trkpt>
      <trkpt lat="44.86562" lon="5.41574">
        <ele>956</ele>
        <time>2020-05-22T09:13:34.854Z</time>
      </trkpt>
      <trkpt lat="44.86561" lon="5.41574">
        <ele>956</ele>
        <time>2020-05-22T09:13:35.853Z</time>
      </trkpt>
      <trkpt lat="44.86559" lon="5.41573">
        <ele>955</ele>
        <time>2020-05-22T09:13:36.853Z</time>
      </trkpt>
      <trkpt lat="44.86557" lon="5.41574">
        <ele>956</ele>
        <time>2020-05-22T09:13:37.853Z</time>
      </trkpt>
      <trkpt lat="44.86556" lon="5.41574">
        <ele>956</ele>
        <time>2020-05-22T09:13:38.853Z</time>
      </trkpt>
      <trkpt lat="44.86554" lon="5.41575">
        <ele>956</ele>
        <time>2020-05-22T09:13:39.853Z</time>
      </trkpt>
      <trkpt lat="44.86553" lon="5.41575">
        <ele>956</ele>
        <time>2020-05-22T09:13:40.853Z</time>
      </trkpt>
      <trkpt lat="44.86552" lon="5.41576">
        <ele>956</ele>
        <time>2020-05-22T09:13:41.854Z</time>
      </trkpt>
      <trkpt lat="44.86551" lon="5.41577">
        <ele>956</ele>
        <time>2020-05-22T09:13:42.854Z</time>
      </trkpt>
      <trkpt lat="44.8655" lon="5.41579">
        <ele>957</ele>
        <time>2020-05-22T09:13:43.854Z</time>
      </trkpt>
      <trkpt lat="44.86549" lon="5.4158">
        <ele>957</ele>
        <time>2020-05-22T09:13:44.854Z</time>
      </trkpt>
      <trkpt lat="44.86549" lon="5.41582">
        <ele>957</ele>
        <time>2020-05-22T09:13:45.853Z</time>
      </trkpt>
      <trkpt lat="44.86548" lon="5.41584">
        <ele>957</ele>
        <time>2020-05-22T09:13:46.854Z</time>
      </trkpt>
      <trkpt lat="44.86548" lon="5.41586">
        <ele>958</ele>
        <time>2020-05-22T09:13:47.854Z</time>
      </trkpt>
      <trkpt lat="44.86549" lon="5.41588">
        <ele>958</ele>
        <time>2020-05-22T09:13:48.854Z</time>
      </trkpt>
      <trkpt lat="44.86549" lon="5.4159">
        <ele>958</ele>
        <time>2020-05-22T09:13:49.853Z</time>
      </trkpt>
      <trkpt lat="44.8655" lon="5.41593">
        <ele>959</ele>
        <time>2020-05-22T09:13:50.854Z</time>
      </trkpt>
      <trkpt lat="44.86551" lon="5.41596">
        <ele>959</ele>
        <time>2020-05-22T09:13:51.853Z</time>
      </trkpt>
      <trkpt lat="44.86552" lon="5.41598">
        <ele>960</ele>
        <time>2020-05-22T09:13:52.853Z</time>
      </trkpt>
      <trkpt lat="44.86553" lon="5.416">
        <ele>960</ele>
        <time>2020-05-22T09:13:53.853Z</time>
      </trkpt>
      <trkpt lat="44.86553" lon="5.41602">
        <ele>960</ele>
        <time>2020-05-22T09:13:54.854Z</time>
      </trkpt>
      <trkpt lat="44.86554" lon="5.41605">
        <ele>960</ele>
        <time>2020-05-22T09:13:55.854Z</time>
      </trkpt>
      <trkpt lat="44.86555" lon="5.41607">
        <ele>961</ele>
        <time>2020-05-22T09:13:56.853Z</time>
      </trkpt>
      <trkpt lat="44.86556" lon="5.41609">
        <ele>961</ele>
        <time>2020-05-22T09:13:57.854Z</time>
      </trkpt>
      <trkpt lat="44.86556" lon="5.41611">
        <ele>961</ele>
        <time>2020-05-22T09:13:58.854Z</time>
      </trkpt>
      <trkpt lat="44.86557" lon="5.41613">
        <ele>961</ele>
        <time>2020-05-22T09:13:59.854Z</time>
      </trkpt>
      <trkpt lat="44.86557" lon="5.41616">
        <ele>961</ele>
        <time>2020-05-22T09:14:00.854Z</time>
      </trkpt>
      <trkpt lat="44.86558" lon="5.41618">
        <ele>961</ele>
        <time>2020-05-22T09:14:01.853Z</time>
      </trkpt>
      <trkpt lat="44.86559" lon="5.4162">
        <ele>962</ele>
        <time>2020-05-22T09:14:02.854Z</time>
      </trkpt>
      <trkpt lat="44.86559" lon="5.41622">
        <ele>962</ele>
        <time>2020-05-22T09:14:03.853Z</time>
      </trkpt>
      <trkpt lat="44.8656" lon="5.41625">
        <ele>962</ele>
        <time>2020-05-22T09:14:04.854Z</time>
      </trkpt>
      <trkpt lat="44.86561" lon="5.41627">
        <ele>962</ele>
        <time>2020-05-22T09:14:05.854Z</time>
      </trkpt>
      <trkpt lat="44.86562" lon="5.41629">
        <ele>962</ele>
        <time>2020-05-22T09:14:06.853Z</time>
      </trkpt>
      <trkpt lat="44.86563" lon="5.41631">
        <ele>962</ele>
        <time>2020-05-22T09:14:07.854Z</time>
      </trkpt>
      <trkpt lat="44.86564" lon="5.41633">
        <ele>962</ele>
        <time>2020-05-22T09:14:08.853Z</time>
      </trkpt>
      <trkpt lat="44.86565" lon="5.41635">
        <ele>962</ele>
        <time>2020-05-22T09:14:09.854Z</time>
      </trkpt>
      <trkpt lat="44.86566" lon="5.41636">
        <ele>962</ele>
        <time>2020-05-22T09:14:10.853Z</time>
      </trkpt>
      <trkpt lat="44.86567" lon="5.41638">
        <ele>962</ele>
        <time>2020-05-22T09:14:11.854Z</time>
      </trkpt>
      <trkpt lat="44.86568" lon="5.4164">
        <ele>962</ele>
        <time>2020-05-22T09:14:12.854Z</time>
      </trkpt>
      <trkpt lat="44.86569" lon="5.41642">
        <ele>962</ele>
        <time>2020-05-22T09:14:13.854Z</time>
      </trkpt>
      <trkpt lat="44.8657" lon="5.41643">
        <ele>963</ele>
        <time>2020-05-22T09:14:14.853Z</time>
      </trkpt>
      <trkpt lat="44.86571" lon="5.41645">
        <ele>963</ele>
        <time>2020-05-22T09:14:15.854Z</time>
      </trkpt>
      <trkpt lat="44.86571" lon="5.41648">
        <ele>963</ele>
        <time>2020-05-22T09:14:16.853Z</time>
      </trkpt>
      <trkpt lat="44.86571" lon="5.4165">
        <ele>963</ele>
        <time>2020-05-22T09:14:17.854Z</time>
      </trkpt>
      <trkpt lat="44.86572" lon="5.41652">
        <ele>963</ele>
        <time>2020-05-22T09:14:18.853Z</time>
      </trkpt>
      <trkpt lat="44.86572" lon="5.41655">
        <ele>963</ele>
        <time>2020-05-22T09:14:19.854Z</time>
      </trkpt>
      <trkpt lat="44.86572" lon="5.41657">
        <ele>964</ele>
        <time>2020-05-22T09:14:20.853Z</time>
      </trkpt>
      <trkpt lat="44.86572" lon="5.4166">
        <ele>964</ele>
        <time>2020-05-22T09:14:21.854Z</time>
      </trkpt>
      <trkpt lat="44.86572" lon="5.41662">
        <ele>964</ele>
        <time>2020-05-22T09:14:22.854Z</time>
      </trkpt>
      <trkpt lat="44.86572" lon="5.41664">
        <ele>964</ele>
        <time>2020-05-22T09:14:23.854Z</time>
      </trkpt>
      <trkpt lat="44.86571" lon="5.41666">
        <ele>964</ele>
        <time>2020-05-22T09:14:24.854Z</time>
      </trkpt>
      <trkpt lat="44.86571" lon="5.41668">
        <ele>964</ele>
        <time>2020-05-22T09:14:25.854Z</time>
      </trkpt>
      <trkpt lat="44.8657" lon="5.4167">
        <ele>964</ele>
        <time>2020-05-22T09:14:26.854Z</time>
      </trkpt>
      <trkpt lat="44.8657" lon="5.41672">
        <ele>964</ele>
        <time>2020-05-22T09:14:27.853Z</time>
      </trkpt>
      <trkpt lat="44.86569" lon="5.41675">
        <ele>964</ele>
        <time>2020-05-22T09:14:28.854Z</time>
      </trkpt>
      <trkpt lat="44.86569" lon="5.41677">
        <ele>965</ele>
        <time>2020-05-22T09:14:29.853Z</time>
      </trkpt>
      <trkpt lat="44.86568" lon="5.4168">
        <ele>965</ele>
        <time>2020-05-22T09:14:30.853Z</time>
      </trkpt>
      <trkpt lat="44.86567" lon="5.41681">
        <ele>966</ele>
        <time>2020-05-22T09:14:31.854Z</time>
      </trkpt>
      <trkpt lat="44.86567" lon="5.41683">
        <ele>966</ele>
        <time>2020-05-22T09:14:32.853Z</time>
      </trkpt>
      <trkpt lat="44.86566" lon="5.41684">
        <ele>966</ele>
        <time>2020-05-22T09:14:33.853Z</time>
      </trkpt>
      <trkpt lat="44.86565" lon="5.41686">
        <ele>966</ele>
        <time>2020-05-22T09:14:34.854Z</time>
      </trkpt>
      <trkpt lat="44.86564" lon="5.41689">
        <ele>966</ele>
        <time>2020-05-22T09:14:35.854Z</time>
      </trkpt>
      <trkpt lat="44.86563" lon="5.4169">
        <ele>967</ele>
        <time>2020-05-22T09:14:36.854Z</time>
      </trkpt>
      <trkpt lat="44.86562" lon="5.41692">
        <ele>967</ele>
        <time>2020-05-22T09:14:37.853Z</time>
      </trkpt>
      <trkpt lat="44.86561" lon="5.41694">
        <ele>967</ele>
        <time>2020-05-22T09:14:38.854Z</time>
      </trkpt>
      <trkpt lat="44.86561" lon="5.41695">
        <ele>967</ele>
        <time>2020-05-22T09:14:39.854Z</time>
      </trkpt>
      <trkpt lat="44.8656" lon="5.41696">
        <ele>966</ele>
        <time>2020-05-22T09:14:40.854Z</time>
      </trkpt>
      <trkpt lat="44.86558" lon="5.41698">
        <ele>966</ele>
        <time>2020-05-22T09:14:41.854Z</time>
      </trkpt>
      <trkpt lat="44.86557" lon="5.41699">
        <ele>966</ele>
        <time>2020-05-22T09:14:42.854Z</time>
      </trkpt>
      <trkpt lat="44.86556" lon="5.41701">
        <ele>967</ele>
        <time>2020-05-22T09:14:43.853Z</time>
      </trkpt>
      <trkpt lat="44.86555" lon="5.41702">
        <ele>967</ele>
        <time>2020-05-22T09:14:44.854Z</time>
      </trkpt>
      <trkpt lat="44.86554" lon="5.41704">
        <ele>967</ele>
        <time>2020-05-22T09:14:45.854Z</time>
      </trkpt>
      <trkpt lat="44.86552" lon="5.41705">
        <ele>968</ele>
        <time>2020-05-22T09:14:46.854Z</time>
      </trkpt>
      <trkpt lat="44.86551" lon="5.41706">
        <ele>968</ele>
        <time>2020-05-22T09:14:47.854Z</time>
      </trkpt>
      <trkpt lat="44.8655" lon="5.41707">
        <ele>968</ele>
        <time>2020-05-22T09:14:48.854Z</time>
      </trkpt>
      <trkpt lat="44.86548" lon="5.41708">
        <ele>968</ele>
        <time>2020-05-22T09:14:49.854Z</time>
      </trkpt>
      <trkpt lat="44.86547" lon="5.41709">
        <ele>968</ele>
        <time>2020-05-22T09:14:50.853Z</time>
      </trkpt>
      <trkpt lat="44.86546" lon="5.4171">
        <ele>968</ele>
        <time>2020-05-22T09:14:51.854Z</time>
      </trkpt>
      <trkpt lat="44.86544" lon="5.41711">
        <ele>968</ele>
        <time>2020-05-22T09:14:52.854Z</time>
      </trkpt>
      <trkpt lat="44.86543" lon="5.41712">
        <ele>968</ele>
        <time>2020-05-22T09:14:53.854Z</time>
      </trkpt>
      <trkpt lat="44.86542" lon="5.41713">
        <ele>967</ele>
        <time>2020-05-22T09:14:54.854Z</time>
      </trkpt>
      <trkpt lat="44.8654" lon="5.41714">
        <ele>967</ele>
        <time>2020-05-22T09:14:55.853Z</time>
      </trkpt>
      <trkpt lat="44.86539" lon="5.41715">
        <ele>967</ele>
        <time>2020-05-22T09:14:56.853Z</time>
      </trkpt>
      <trkpt lat="44.86537" lon="5.41716">
        <ele>967</ele>
        <time>2020-05-22T09:14:57.854Z</time>
      </trkpt>
      <trkpt lat="44.86536" lon="5.41717">
        <ele>968</ele>
        <time>2020-05-22T09:14:58.853Z</time>
      </trkpt>
      <trkpt lat="44.86534" lon="5.41717">
        <ele>968</ele>
        <time>2020-05-22T09:14:59.853Z</time>
      </trkpt>
      <trkpt lat="44.86533" lon="5.41718">
        <ele>968</ele>
        <time>2020-05-22T09:15:00.854Z</time>
      </trkpt>
      <trkpt lat="44.86532" lon="5.41719">
        <ele>968</ele>
        <time>2020-05-22T09:15:01.854Z</time>
      </trkpt>
      <trkpt lat="44.8653" lon="5.4172">
        <ele>968</ele>
        <time>2020-05-22T09:15:02.853Z</time>
      </trkpt>
      <trkpt lat="44.86529" lon="5.41721">
        <ele>968</ele>
        <time>2020-05-22T09:15:03.854Z</time>
      </trkpt>
      <trkpt lat="44.86528" lon="5.41722">
        <ele>969</ele>
        <time>2020-05-22T09:15:04.854Z</time>
      </trkpt>
      <trkpt lat="44.86526" lon="5.41723">
        <ele>969</ele>
        <time>2020-05-22T09:15:05.854Z</time>
      </trkpt>
      <trkpt lat="44.86525" lon="5.41723">
        <ele>970</ele>
        <time>2020-05-22T09:15:06.854Z</time>
      </trkpt>
      <trkpt lat="44.86523" lon="5.41724">
        <ele>971</ele>
        <time>2020-05-22T09:15:07.854Z</time>
      </trkpt>
      <trkpt lat="44.86521" lon="5.41725">
        <ele>971</ele>
        <time>2020-05-22T09:15:08.854Z</time>
      </trkpt>
      <trkpt lat="44.8652" lon="5.41725">
        <ele>972</ele>
        <time>2020-05-22T09:15:09.853Z</time>
      </trkpt>
      <trkpt lat="44.86518" lon="5.41726">
        <ele>972</ele>
        <time>2020-05-22T09:15:10.854Z</time>
      </trkpt>
      <trkpt lat="44.86517" lon="5.41726">
        <ele>972</ele>
        <time>2020-05-22T09:15:11.854Z</time>
      </trkpt>
      <trkpt lat="44.86515" lon="5.41727">
        <ele>972</ele>
        <time>2020-05-22T09:15:12.854Z</time>
      </trkpt>
      <trkpt lat="44.86514" lon="5.41728">
        <ele>972</ele>
        <time>2020-05-22T09:15:13.854Z</time>
      </trkpt>
      <trkpt lat="44.86512" lon="5.41729">
        <ele>973</ele>
        <time>2020-05-22T09:15:14.853Z</time>
      </trkpt>
      <trkpt lat="44.86511" lon="5.4173">
        <ele>973</ele>
        <time>2020-05-22T09:15:15.854Z</time>
      </trkpt>
      <trkpt lat="44.8651" lon="5.41731">
        <ele>973</ele>
        <time>2020-05-22T09:15:16.854Z</time>
      </trkpt>
      <trkpt lat="44.86508" lon="5.41731">
        <ele>973</ele>
        <time>2020-05-22T09:15:17.854Z</time>
      </trkpt>
      <trkpt lat="44.86507" lon="5.41732">
        <ele>973</ele>
        <time>2020-05-22T09:15:18.853Z</time>
      </trkpt>
      <trkpt lat="44.86505" lon="5.41732">
        <ele>974</ele>
        <time>2020-05-22T09:15:19.854Z</time>
      </trkpt>
      <trkpt lat="44.86504" lon="5.41733">
        <ele>974</ele>
        <time>2020-05-22T09:15:20.853Z</time>
      </trkpt>
      <trkpt lat="44.86502" lon="5.41734">
        <ele>975</ele>
        <time>2020-05-22T09:15:21.854Z</time>
      </trkpt>
      <trkpt lat="44.865" lon="5.41734">
        <ele>975</ele>
        <time>2020-05-22T09:15:22.853Z</time>
      </trkpt>
      <trkpt lat="44.86499" lon="5.41735">
        <ele>975</ele>
        <time>2020-05-22T09:15:23.853Z</time>
      </trkpt>
      <trkpt lat="44.86497" lon="5.41736">
        <ele>976</ele>
        <time>2020-05-22T09:15:24.853Z</time>
      </trkpt>
      <trkpt lat="44.86496" lon="5.41737">
        <ele>976</ele>
        <time>2020-05-22T09:15:25.854Z</time>
      </trkpt>
      <trkpt lat="44.86494" lon="5.41738">
        <ele>976</ele>
        <time>2020-05-22T09:15:26.854Z</time>
      </trkpt>
      <trkpt lat="44.86493" lon="5.41739">
        <ele>977</ele>
        <time>2020-05-22T09:15:27.854Z</time>
      </trkpt>
      <trkpt lat="44.86491" lon="5.4174">
        <ele>977</ele>
        <time>2020-05-22T09:15:28.853Z</time>
      </trkpt>
      <trkpt lat="44.86489" lon="5.41741">
        <ele>978</ele>
        <time>2020-05-22T09:15:29.853Z</time>
      </trkpt>
      <trkpt lat="44.86488" lon="5.41742">
        <ele>978</ele>
        <time>2020-05-22T09:15:30.853Z</time>
      </trkpt>
      <trkpt lat="44.86487" lon="5.41743">
        <ele>979</ele>
        <time>2020-05-22T09:15:31.853Z</time>
      </trkpt>
      <trkpt lat="44.86485" lon="5.41744">
        <ele>979</ele>
        <time>2020-05-22T09:15:32.854Z</time>
      </trkpt>
      <trkpt lat="44.86484" lon="5.41744">
        <ele>979</ele>
        <time>2020-05-22T09:15:33.853Z</time>
      </trkpt>
      <trkpt lat="44.86483" lon="5.41745">
        <ele>978</ele>
        <time>2020-05-22T09:15:34.854Z</time>
      </trkpt>
      <trkpt lat="44.86481" lon="5.41745">
        <ele>978</ele>
        <time>2020-05-22T09:15:35.854Z</time>
      </trkpt>
      <trkpt lat="44.8648" lon="5.41746">
        <ele>978</ele>
        <time>2020-05-22T09:15:36.853Z</time>
      </trkpt>
      <trkpt lat="44.86478" lon="5.41747">
        <ele>978</ele>
        <time>2020-05-22T09:15:37.854Z</time>
      </trkpt>
      <trkpt lat="44.86477" lon="5.41747">
        <ele>978</ele>
        <time>2020-05-22T09:15:38.853Z</time>
      </trkpt>
      <trkpt lat="44.86476" lon="5.41748">
        <ele>978</ele>
        <time>2020-05-22T09:15:39.854Z</time>
      </trkpt>
      <trkpt lat="44.86475" lon="5.41748">
        <ele>977</ele>
        <time>2020-05-22T09:15:40.854Z</time>
      </trkpt>
      <trkpt lat="44.86473" lon="5.41749">
        <ele>977</ele>
        <time>2020-05-22T09:15:41.854Z</time>
      </trkpt>
      <trkpt lat="44.86472" lon="5.4175">
        <ele>977</ele>
        <time>2020-05-22T09:15:42.854Z</time>
      </trkpt>
      <trkpt lat="44.8647" lon="5.41751">
        <ele>977</ele>
        <time>2020-05-22T09:15:43.854Z</time>
      </trkpt>
      <trkpt lat="44.86468" lon="5.41751">
        <ele>977</ele>
        <time>2020-05-22T09:15:44.854Z</time>
      </trkpt>
      <trkpt lat="44.86467" lon="5.41752">
        <ele>977</ele>
        <time>2020-05-22T09:15:45.853Z</time>
      </trkpt>
      <trkpt lat="44.86466" lon="5.41752">
        <ele>977</ele>
        <time>2020-05-22T09:15:46.854Z</time>
      </trkpt>
      <trkpt lat="44.86464" lon="5.41753">
        <ele>977</ele>
        <time>2020-05-22T09:15:47.854Z</time>
      </trkpt>
      <trkpt lat="44.86463" lon="5.41754">
        <ele>977</ele>
        <time>2020-05-22T09:15:48.854Z</time>
      </trkpt>
      <trkpt lat="44.86461" lon="5.41754">
        <ele>978</ele>
        <time>2020-05-22T09:15:49.854Z</time>
      </trkpt>
      <trkpt lat="44.8646" lon="5.41755">
        <ele>978</ele>
        <time>2020-05-22T09:15:50.853Z</time>
      </trkpt>
      <trkpt lat="44.86458" lon="5.41755">
        <ele>978</ele>
        <time>2020-05-22T09:15:51.854Z</time>
      </trkpt>
      <trkpt lat="44.86457" lon="5.41756">
        <ele>979</ele>
        <time>2020-05-22T09:15:52.854Z</time>
      </trkpt>
      <trkpt lat="44.86455" lon="5.41757">
        <ele>980</ele>
        <time>2020-05-22T09:15:53.854Z</time>
      </trkpt>
      <trkpt lat="44.86454" lon="5.41757">
        <ele>980</ele>
        <time>2020-05-22T09:15:54.853Z</time>
      </trkpt>
      <trkpt lat="44.86452" lon="5.41757">
        <ele>980</ele>
        <time>2020-05-22T09:15:55.853Z</time>
      </trkpt>
      <trkpt lat="44.86451" lon="5.41757">
        <ele>980</ele>
        <time>2020-05-22T09:15:56.854Z</time>
      </trkpt>
      <trkpt lat="44.8645" lon="5.41757">
        <ele>979</ele>
        <time>2020-05-22T09:15:57.853Z</time>
      </trkpt>
      <trkpt lat="44.86448" lon="5.41758">
        <ele>979</ele>
        <time>2020-05-22T09:15:58.854Z</time>
      </trkpt>
      <trkpt lat="44.86447" lon="5.41758">
        <ele>979</ele>
        <time>2020-05-22T09:15:59.853Z</time>
      </trkpt>
      <trkpt lat="44.86445" lon="5.41758">
        <ele>979</ele>
        <time>2020-05-22T09:16:00.853Z</time>
      </trkpt>
      <trkpt lat="44.86444" lon="5.41758">
        <ele>979</ele>
        <time>2020-05-22T09:16:01.854Z</time>
      </trkpt>
      <trkpt lat="44.86442" lon="5.41759">
        <ele>978</ele>
        <time>2020-05-22T09:16:02.853Z</time>
      </trkpt>
      <trkpt lat="44.86441" lon="5.41759">
        <ele>978</ele>
        <time>2020-05-22T09:16:03.854Z</time>
      </trkpt>
      <trkpt lat="44.8644" lon="5.41758">
        <ele>978</ele>
        <time>2020-05-22T09:16:04.854Z</time>
      </trkpt>
      <trkpt lat="44.86439" lon="5.41758">
        <ele>978</ele>
        <time>2020-05-22T09:16:05.854Z</time>
      </trkpt>
      <trkpt lat="44.86437" lon="5.41758">
        <ele>978</ele>
        <time>2020-05-22T09:16:06.853Z</time>
      </trkpt>
      <trkpt lat="44.86436" lon="5.41757">
        <ele>978</ele>
        <time>2020-05-22T09:16:07.853Z</time>
      </trkpt>
      <trkpt lat="44.86434" lon="5.41757">
        <ele>977</ele>
        <time>2020-05-22T09:16:08.854Z</time>
      </trkpt>
      <trkpt lat="44.86433" lon="5.41756">
        <ele>977</ele>
        <time>2020-05-22T09:16:09.854Z</time>
      </trkpt>
      <trkpt lat="44.86432" lon="5.41756">
        <ele>977</ele>
        <time>2020-05-22T09:16:10.854Z</time>
      </trkpt>
      <trkpt lat="44.86431" lon="5.41755">
        <ele>977</ele>
        <time>2020-05-22T09:16:11.854Z</time>
      </trkpt>
      <trkpt lat="44.86429" lon="5.41754">
        <ele>977</ele>
        <time>2020-05-22T09:16:12.854Z</time>
      </trkpt>
      <trkpt lat="44.86428" lon="5.41752">
        <ele>977</ele>
        <time>2020-05-22T09:16:13.853Z</time>
      </trkpt>
      <trkpt lat="44.86427" lon="5.41751">
        <ele>977</ele>
        <time>2020-05-22T09:16:14.854Z</time>
      </trkpt>
      <trkpt lat="44.86427" lon="5.41749">
        <ele>977</ele>
        <time>2020-05-22T09:16:15.854Z</time>
      </trkpt>
      <trkpt lat="44.86425" lon="5.41747">
        <ele>978</ele>
        <time>2020-05-22T09:16:16.854Z</time>
      </trkpt>
      <trkpt lat="44.86425" lon="5.41746">
        <ele>978</ele>
        <time>2020-05-22T09:16:17.854Z</time>
      </trkpt>
      <trkpt lat="44.86424" lon="5.41744">
        <ele>978</ele>
        <time>2020-05-22T09:16:18.854Z</time>
      </trkpt>
      <trkpt lat="44.86424" lon="5.41744">
        <ele>979</ele>
        <time>2020-05-22T09:16:19.853Z</time>
      </trkpt>
      <trkpt lat="44.86423" lon="5.41743">
        <ele>979</ele>
        <time>2020-05-22T09:16:20.854Z</time>
      </trkpt>
      <trkpt lat="44.86422" lon="5.41742">
        <ele>979</ele>
        <time>2020-05-22T09:16:21.854Z</time>
      </trkpt>
      <trkpt lat="44.86421" lon="5.41741">
        <ele>979</ele>
        <time>2020-05-22T09:16:22.854Z</time>
      </trkpt>
      <trkpt lat="44.8642" lon="5.41739">
        <ele>980</ele>
        <time>2020-05-22T09:16:23.853Z</time>
      </trkpt>
      <trkpt lat="44.8642" lon="5.41737">
        <ele>980</ele>
        <time>2020-05-22T09:16:24.853Z</time>
      </trkpt>
      <trkpt lat="44.8642" lon="5.41735">
        <ele>980</ele>
        <time>2020-05-22T09:16:25.853Z</time>
      </trkpt>
      <trkpt lat="44.8642" lon="5.41734">
        <ele>981</ele>
        <time>2020-05-22T09:16:26.853Z</time>
      </trkpt>
      <trkpt lat="44.8642" lon="5.41731">
        <ele>981</ele>
        <time>2020-05-22T09:16:27.853Z</time>
      </trkpt>
      <trkpt lat="44.8642" lon="5.4173">
        <ele>982</ele>
        <time>2020-05-22T09:16:28.854Z</time>
      </trkpt>
      <trkpt lat="44.8642" lon="5.41727">
        <ele>982</ele>
        <time>2020-05-22T09:16:29.854Z</time>
      </trkpt>
      <trkpt lat="44.8642" lon="5.41726">
        <ele>983</ele>
        <time>2020-05-22T09:16:30.854Z</time>
      </trkpt>
      <trkpt lat="44.8642" lon="5.41724">
        <ele>983</ele>
        <time>2020-05-22T09:16:31.854Z</time>
      </trkpt>
      <trkpt lat="44.8642" lon="5.41722">
        <ele>984</ele>
        <time>2020-05-22T09:16:32.854Z</time>
      </trkpt>
      <trkpt lat="44.8642" lon="5.4172">
        <ele>984</ele>
        <time>2020-05-22T09:16:33.854Z</time>
      </trkpt>
      <trkpt lat="44.8642" lon="5.41719">
        <ele>984</ele>
        <time>2020-05-22T09:16:34.853Z</time>
      </trkpt>
      <trkpt lat="44.8642" lon="5.41717">
        <ele>984</ele>
        <time>2020-05-22T09:16:35.854Z</time>
      </trkpt>
      <trkpt lat="44.8642" lon="5.41715">
        <ele>984</ele>
        <time>2020-05-22T09:16:36.853Z</time>
      </trkpt>
      <trkpt lat="44.86419" lon="5.41713">
        <ele>984</ele>
        <time>2020-05-22T09:16:37.854Z</time>
      </trkpt>
      <trkpt lat="44.86419" lon="5.41711">
        <ele>983</ele>
        <time>2020-05-22T09:16:38.854Z</time>
      </trkpt>
      <trkpt lat="44.86418" lon="5.41709">
        <ele>983</ele>
        <time>2020-05-22T09:16:39.854Z</time>
      </trkpt>
      <trkpt lat="44.86417" lon="5.41707">
        <ele>983</ele>
        <time>2020-05-22T09:16:40.853Z</time>
      </trkpt>
      <trkpt lat="44.86416" lon="5.41706">
        <ele>984</ele>
        <time>2020-05-22T09:16:41.853Z</time>
      </trkpt>
      <trkpt lat="44.86415" lon="5.41704">
        <ele>984</ele>
        <time>2020-05-22T09:16:42.854Z</time>
      </trkpt>
      <trkpt lat="44.86414" lon="5.41703">
        <ele>984</ele>
        <time>2020-05-22T09:16:43.854Z</time>
      </trkpt>
      <trkpt lat="44.86413" lon="5.41702">
        <ele>985</ele>
        <time>2020-05-22T09:16:44.854Z</time>
      </trkpt>
      <trkpt lat="44.86412" lon="5.417">
        <ele>985</ele>
        <time>2020-05-22T09:16:45.853Z</time>
      </trkpt>
      <trkpt lat="44.8641" lon="5.41699">
        <ele>985</ele>
        <time>2020-05-22T09:16:46.853Z</time>
      </trkpt>
      <trkpt lat="44.86408" lon="5.41698">
        <ele>986</ele>
        <time>2020-05-22T09:16:47.854Z</time>
      </trkpt>
      <trkpt lat="44.86407" lon="5.41697">
        <ele>986</ele>
        <time>2020-05-22T09:16:48.854Z</time>
      </trkpt>
      <trkpt lat="44.86405" lon="5.41697">
        <ele>986</ele>
        <time>2020-05-22T09:16:49.853Z</time>
      </trkpt>
      <trkpt lat="44.86404" lon="5.41696">
        <ele>985</ele>
        <time>2020-05-22T09:16:50.853Z</time>
      </trkpt>
      <trkpt lat="44.86402" lon="5.41695">
        <ele>985</ele>
        <time>2020-05-22T09:16:51.853Z</time>
      </trkpt>
      <trkpt lat="44.86401" lon="5.41695">
        <ele>985</ele>
        <time>2020-05-22T09:16:52.854Z</time>
      </trkpt>
      <trkpt lat="44.86399" lon="5.41694">
        <ele>986</ele>
        <time>2020-05-22T09:16:53.854Z</time>
      </trkpt>
      <trkpt lat="44.86398" lon="5.41694">
        <ele>986</ele>
        <time>2020-05-22T09:16:54.854Z</time>
      </trkpt>
      <trkpt lat="44.86397" lon="5.41694">
        <ele>986</ele>
        <time>2020-05-22T09:16:55.854Z</time>
      </trkpt>
      <trkpt lat="44.86395" lon="5.41693">
        <ele>986</ele>
        <time>2020-05-22T09:16:56.853Z</time>
      </trkpt>
      <trkpt lat="44.86393" lon="5.41693">
        <ele>987</ele>
        <time>2020-05-22T09:16:57.853Z</time>
      </trkpt>
      <trkpt lat="44.86392" lon="5.41693">
        <ele>987</ele>
        <time>2020-05-22T09:16:58.854Z</time>
      </trkpt>
      <trkpt lat="44.86391" lon="5.41692">
        <ele>987</ele>
        <time>2020-05-22T09:16:59.854Z</time>
      </trkpt>
      <trkpt lat="44.8639" lon="5.41692">
        <ele>987</ele>
        <time>2020-05-22T09:17:00.853Z</time>
      </trkpt>
      <trkpt lat="44.86388" lon="5.41691">
        <ele>987</ele>
        <time>2020-05-22T09:17:01.853Z</time>
      </trkpt>
      <trkpt lat="44.86387" lon="5.41691">
        <ele>987</ele>
        <time>2020-05-22T09:17:02.853Z</time>
      </trkpt>
      <trkpt lat="44.86385" lon="5.41691">
        <ele>987</ele>
        <time>2020-05-22T09:17:03.854Z</time>
      </trkpt>
      <trkpt lat="44.86384" lon="5.41691">
        <ele>986</ele>
        <time>2020-05-22T09:17:04.854Z</time>
      </trkpt>
      <trkpt lat="44.86383" lon="5.41692">
        <ele>986</ele>
        <time>2020-05-22T09:17:05.854Z</time>
      </trkpt>
      <trkpt lat="44.86381" lon="5.41692">
        <ele>986</ele>
        <time>2020-05-22T09:17:06.853Z</time>
      </trkpt>
      <trkpt lat="44.8638" lon="5.41692">
        <ele>985</ele>
        <time>2020-05-22T09:17:07.854Z</time>
      </trkpt>
      <trkpt lat="44.86379" lon="5.41692">
        <ele>984</ele>
        <time>2020-05-22T09:17:08.854Z</time>
      </trkpt>
      <trkpt lat="44.86377" lon="5.41692">
        <ele>984</ele>
        <time>2020-05-22T09:17:09.853Z</time>
      </trkpt>
      <trkpt lat="44.86375" lon="5.41693">
        <ele>984</ele>
        <time>2020-05-22T09:17:10.854Z</time>
      </trkpt>
      <trkpt lat="44.86373" lon="5.41693">
        <ele>985</ele>
        <time>2020-05-22T09:17:11.853Z</time>
      </trkpt>
      <trkpt lat="44.86372" lon="5.41693">
        <ele>985</ele>
        <time>2020-05-22T09:17:12.854Z</time>
      </trkpt>
      <trkpt lat="44.86371" lon="5.41693">
        <ele>985</ele>
        <time>2020-05-22T09:17:13.854Z</time>
      </trkpt>
      <trkpt lat="44.86369" lon="5.41694">
        <ele>985</ele>
        <time>2020-05-22T09:17:14.853Z</time>
      </trkpt>
      <trkpt lat="44.86368" lon="5.41694">
        <ele>986</ele>
        <time>2020-05-22T09:17:15.854Z</time>
      </trkpt>
      <trkpt lat="44.86367" lon="5.41695">
        <ele>986</ele>
        <time>2020-05-22T09:17:16.854Z</time>
      </trkpt>
      <trkpt lat="44.86365" lon="5.41696">
        <ele>987</ele>
        <time>2020-05-22T09:17:17.853Z</time>
      </trkpt>
      <trkpt lat="44.86364" lon="5.41697">
        <ele>988</ele>
        <time>2020-05-22T09:17:18.854Z</time>
      </trkpt>
      <trkpt lat="44.86362" lon="5.41698">
        <ele>988</ele>
        <time>2020-05-22T09:17:19.854Z</time>
      </trkpt>
      <trkpt lat="44.86361" lon="5.41699">
        <ele>989</ele>
        <time>2020-05-22T09:17:20.854Z</time>
      </trkpt>
      <trkpt lat="44.8636" lon="5.417">
        <ele>990</ele>
        <time>2020-05-22T09:17:21.853Z</time>
      </trkpt>
      <trkpt lat="44.86358" lon="5.41702">
        <ele>990</ele>
        <time>2020-05-22T09:17:22.853Z</time>
      </trkpt>
      <trkpt lat="44.86357" lon="5.41703">
        <ele>991</ele>
        <time>2020-05-22T09:17:23.853Z</time>
      </trkpt>
      <trkpt lat="44.86356" lon="5.41704">
        <ele>991</ele>
        <time>2020-05-22T09:17:24.853Z</time>
      </trkpt>
      <trkpt lat="44.86354" lon="5.41706">
        <ele>992</ele>
        <time>2020-05-22T09:17:25.854Z</time>
      </trkpt>
      <trkpt lat="44.86353" lon="5.41708">
        <ele>992</ele>
        <time>2020-05-22T09:17:26.854Z</time>
      </trkpt>
      <trkpt lat="44.86352" lon="5.41709">
        <ele>993</ele>
        <time>2020-05-22T09:17:27.854Z</time>
      </trkpt>
      <trkpt lat="44.86351" lon="5.41711">
        <ele>994</ele>
        <time>2020-05-22T09:17:28.854Z</time>
      </trkpt>
      <trkpt lat="44.8635" lon="5.41712">
        <ele>995</ele>
        <time>2020-05-22T09:17:29.853Z</time>
      </trkpt>
      <trkpt lat="44.86349" lon="5.41714">
        <ele>996</ele>
        <time>2020-05-22T09:17:30.854Z</time>
      </trkpt>
      <trkpt lat="44.86348" lon="5.41717">
        <ele>997</ele>
        <time>2020-05-22T09:17:31.854Z</time>
      </trkpt>
      <trkpt lat="44.86347" lon="5.41719">
        <ele>998</ele>
        <time>2020-05-22T09:17:32.854Z</time>
      </trkpt>
      <trkpt lat="44.86346" lon="5.41721">
        <ele>998</ele>
        <time>2020-05-22T09:17:33.854Z</time>
      </trkpt>
      <trkpt lat="44.86346" lon="5.41723">
        <ele>999</ele>
        <time>2020-05-22T09:17:34.854Z</time>
      </trkpt>
      <trkpt lat="44.86346" lon="5.41725">
        <ele>999</ele>
        <time>2020-05-22T09:17:35.854Z</time>
      </trkpt>
      <trkpt lat="44.86346" lon="5.41727">
        <ele>999</ele>
        <time>2020-05-22T09:17:36.854Z</time>
      </trkpt>
      <trkpt lat="44.86346" lon="5.4173">
        <ele>999</ele>
        <time>2020-05-22T09:17:37.854Z</time>
      </trkpt>
      <trkpt lat="44.86346" lon="5.41731">
        <ele>999</ele>
        <time>2020-05-22T09:17:38.853Z</time>
      </trkpt>
      <trkpt lat="44.86347" lon="5.41733">
        <ele>999</ele>
        <time>2020-05-22T09:17:39.854Z</time>
      </trkpt>
      <trkpt lat="44.86347" lon="5.41735">
        <ele>999</ele>
        <time>2020-05-22T09:17:40.854Z</time>
      </trkpt>
      <trkpt lat="44.86347" lon="5.41737">
        <ele>999</ele>
        <time>2020-05-22T09:17:41.854Z</time>
      </trkpt>
      <trkpt lat="44.86348" lon="5.41739">
        <ele>999</ele>
        <time>2020-05-22T09:17:42.853Z</time>
      </trkpt>
      <trkpt lat="44.86348" lon="5.41741">
        <ele>999</ele>
        <time>2020-05-22T09:17:43.854Z</time>
      </trkpt>
      <trkpt lat="44.86349" lon="5.41743">
        <ele>999</ele>
        <time>2020-05-22T09:17:44.854Z</time>
      </trkpt>
      <trkpt lat="44.86349" lon="5.41745">
        <ele>998</ele>
        <time>2020-05-22T09:17:45.854Z</time>
      </trkpt>
      <trkpt lat="44.8635" lon="5.41747">
        <ele>998</ele>
        <time>2020-05-22T09:17:46.854Z</time>
      </trkpt>
      <trkpt lat="44.8635" lon="5.41749">
        <ele>997</ele>
        <time>2020-05-22T09:17:47.854Z</time>
      </trkpt>
      <trkpt lat="44.8635" lon="5.41752">
        <ele>997</ele>
        <time>2020-05-22T09:17:48.853Z</time>
      </trkpt>
      <trkpt lat="44.8635" lon="5.41753">
        <ele>997</ele>
        <time>2020-05-22T09:17:49.853Z</time>
      </trkpt>
      <trkpt lat="44.86351" lon="5.41755">
        <ele>997</ele>
        <time>2020-05-22T09:17:50.854Z</time>
      </trkpt>
      <trkpt lat="44.86352" lon="5.41757">
        <ele>996</ele>
        <time>2020-05-22T09:17:51.854Z</time>
      </trkpt>
      <trkpt lat="44.86353" lon="5.41758">
        <ele>996</ele>
        <time>2020-05-22T09:17:52.854Z</time>
      </trkpt>
      <trkpt lat="44.86353" lon="5.4176">
        <ele>996</ele>
        <time>2020-05-22T09:17:53.854Z</time>
      </trkpt>
      <trkpt lat="44.86354" lon="5.41762">
        <ele>996</ele>
        <time>2020-05-22T09:17:54.854Z</time>
      </trkpt>
      <trkpt lat="44.86355" lon="5.41764">
        <ele>996</ele>
        <time>2020-05-22T09:17:55.854Z</time>
      </trkpt>
      <trkpt lat="44.86356" lon="5.41766">
        <ele>996</ele>
        <time>2020-05-22T09:17:56.854Z</time>
      </trkpt>
      <trkpt lat="44.86357" lon="5.41768">
        <ele>996</ele>
        <time>2020-05-22T09:17:57.854Z</time>
      </trkpt>
      <trkpt lat="44.86357" lon="5.4177">
        <ele>996</ele>
        <time>2020-05-22T09:17:58.854Z</time>
      </trkpt>
      <trkpt lat="44.86358" lon="5.41772">
        <ele>996</ele>
        <time>2020-05-22T09:17:59.853Z</time>
      </trkpt>
      <trkpt lat="44.86358" lon="5.41774">
        <ele>996</ele>
        <time>2020-05-22T09:18:00.854Z</time>
      </trkpt>
      <trkpt lat="44.86358" lon="5.41777">
        <ele>996</ele>
        <time>2020-05-22T09:18:01.854Z</time>
      </trkpt>
      <trkpt lat="44.86359" lon="5.41779">
        <ele>996</ele>
        <time>2020-05-22T09:18:02.854Z</time>
      </trkpt>
      <trkpt lat="44.86359" lon="5.41781">
        <ele>996</ele>
        <time>2020-05-22T09:18:03.853Z</time>
      </trkpt>
      <trkpt lat="44.86359" lon="5.41783">
        <ele>996</ele>
        <time>2020-05-22T09:18:04.853Z</time>
      </trkpt>
      <trkpt lat="44.86359" lon="5.41785">
        <ele>996</ele>
        <time>2020-05-22T09:18:05.854Z</time>
      </trkpt>
      <trkpt lat="44.86359" lon="5.41787">
        <ele>996</ele>
        <time>2020-05-22T09:18:06.854Z</time>
      </trkpt>
      <trkpt lat="44.86359" lon="5.4179">
        <ele>997</ele>
        <time>2020-05-22T09:18:07.853Z</time>
      </trkpt>
      <trkpt lat="44.86358" lon="5.41792">
        <ele>997</ele>
        <time>2020-05-22T09:18:08.854Z</time>
      </trkpt>
      <trkpt lat="44.86358" lon="5.41794">
        <ele>998</ele>
        <time>2020-05-22T09:18:09.854Z</time>
      </trkpt>
      <trkpt lat="44.86356" lon="5.41796">
        <ele>998</ele>
        <time>2020-05-22T09:18:10.854Z</time>
      </trkpt>
      <trkpt lat="44.86355" lon="5.41798">
        <ele>999</ele>
        <time>2020-05-22T09:18:11.853Z</time>
      </trkpt>
      <trkpt lat="44.86354" lon="5.418">
        <ele>999</ele>
        <time>2020-05-22T09:18:12.853Z</time>
      </trkpt>
      <trkpt lat="44.86353" lon="5.41801">
        <ele>999</ele>
        <time>2020-05-22T09:18:13.854Z</time>
      </trkpt>
      <trkpt lat="44.86352" lon="5.41803">
        <ele>999</ele>
        <time>2020-05-22T09:18:14.854Z</time>
      </trkpt>
      <trkpt lat="44.86351" lon="5.41805">
        <ele>998</ele>
        <time>2020-05-22T09:18:15.854Z</time>
      </trkpt>
      <trkpt lat="44.86349" lon="5.41806">
        <ele>999</ele>
        <time>2020-05-22T09:18:16.854Z</time>
      </trkpt>
      <trkpt lat="44.86348" lon="5.41807">
        <ele>999</ele>
        <time>2020-05-22T09:18:17.854Z</time>
      </trkpt>
      <trkpt lat="44.86347" lon="5.41808">
        <ele>999</ele>
        <time>2020-05-22T09:18:18.854Z</time>
      </trkpt>
      <trkpt lat="44.86346" lon="5.41809">
        <ele>1000</ele>
        <time>2020-05-22T09:18:19.854Z</time>
      </trkpt>
      <trkpt lat="44.86344" lon="5.41811">
        <ele>1001</ele>
        <time>2020-05-22T09:18:20.854Z</time>
      </trkpt>
      <trkpt lat="44.86343" lon="5.41813">
        <ele>1001</ele>
        <time>2020-05-22T09:18:21.854Z</time>
      </trkpt>
      <trkpt lat="44.86342" lon="5.41814">
        <ele>1002</ele>
        <time>2020-05-22T09:18:22.854Z</time>
      </trkpt>
      <trkpt lat="44.86341" lon="5.41816">
        <ele>1002</ele>
        <time>2020-05-22T09:18:23.854Z</time>
      </trkpt>
      <trkpt lat="44.86339" lon="5.41817">
        <ele>1002</ele>
        <time>2020-05-22T09:18:24.854Z</time>
      </trkpt>
      <trkpt lat="44.86338" lon="5.41819">
        <ele>1002</ele>
        <time>2020-05-22T09:18:25.853Z</time>
      </trkpt>
      <trkpt lat="44.86337" lon="5.41821">
        <ele>1003</ele>
        <time>2020-05-22T09:18:26.853Z</time>
      </trkpt>
      <trkpt lat="44.86336" lon="5.41823">
        <ele>1003</ele>
        <time>2020-05-22T09:18:27.853Z</time>
      </trkpt>
      <trkpt lat="44.86335" lon="5.41824">
        <ele>1003</ele>
        <time>2020-05-22T09:18:28.853Z</time>
      </trkpt>
      <trkpt lat="44.86334" lon="5.41826">
        <ele>1004</ele>
        <time>2020-05-22T09:18:29.854Z</time>
      </trkpt>
      <trkpt lat="44.86333" lon="5.41827">
        <ele>1004</ele>
        <time>2020-05-22T09:18:30.853Z</time>
      </trkpt>
      <trkpt lat="44.86332" lon="5.41829">
        <ele>1004</ele>
        <time>2020-05-22T09:18:31.854Z</time>
      </trkpt>
      <trkpt lat="44.86331" lon="5.41831">
        <ele>1005</ele>
        <time>2020-05-22T09:18:32.854Z</time>
      </trkpt>
      <trkpt lat="44.8633" lon="5.41833">
        <ele>1005</ele>
        <time>2020-05-22T09:18:33.854Z</time>
      </trkpt>
      <trkpt lat="44.86329" lon="5.41835">
        <ele>1005</ele>
        <time>2020-05-22T09:18:34.854Z</time>
      </trkpt>
      <trkpt lat="44.86328" lon="5.41836">
        <ele>1005</ele>
        <time>2020-05-22T09:18:35.853Z</time>
      </trkpt>
      <trkpt lat="44.86327" lon="5.41838">
        <ele>1005</ele>
        <time>2020-05-22T09:18:36.854Z</time>
      </trkpt>
      <trkpt lat="44.86326" lon="5.41839">
        <ele>1006</ele>
        <time>2020-05-22T09:18:37.853Z</time>
      </trkpt>
      <trkpt lat="44.86325" lon="5.41841">
        <ele>1006</ele>
        <time>2020-05-22T09:18:38.853Z</time>
      </trkpt>
      <trkpt lat="44.86325" lon="5.41843">
        <ele>1006</ele>
        <time>2020-05-22T09:18:39.853Z</time>
      </trkpt>
      <trkpt lat="44.86324" lon="5.41846">
        <ele>1006</ele>
        <time>2020-05-22T09:18:40.854Z</time>
      </trkpt>
      <trkpt lat="44.86323" lon="5.41847">
        <ele>1006</ele>
        <time>2020-05-22T09:18:41.854Z</time>
      </trkpt>
      <trkpt lat="44.86322" lon="5.41849">
        <ele>1006</ele>
        <time>2020-05-22T09:18:42.854Z</time>
      </trkpt>
      <trkpt lat="44.86321" lon="5.4185">
        <ele>1006</ele>
        <time>2020-05-22T09:18:43.854Z</time>
      </trkpt>
      <trkpt lat="44.8632" lon="5.41852">
        <ele>1007</ele>
        <time>2020-05-22T09:18:44.853Z</time>
      </trkpt>
      <trkpt lat="44.86318" lon="5.41854">
        <ele>1007</ele>
        <time>2020-05-22T09:18:45.854Z</time>
      </trkpt>
      <trkpt lat="44.86317" lon="5.41855">
        <ele>1007</ele>
        <time>2020-05-22T09:18:46.854Z</time>
      </trkpt>
      <trkpt lat="44.86316" lon="5.41857">
        <ele>1008</ele>
        <time>2020-05-22T09:18:47.854Z</time>
      </trkpt>
      <trkpt lat="44.86315" lon="5.41859">
        <ele>1008</ele>
        <time>2020-05-22T09:18:48.854Z</time>
      </trkpt>
      <trkpt lat="44.86314" lon="5.4186">
        <ele>1008</ele>
        <time>2020-05-22T09:18:49.854Z</time>
      </trkpt>
      <trkpt lat="44.86313" lon="5.41861">
        <ele>1009</ele>
        <time>2020-05-22T09:18:50.854Z</time>
      </trkpt>
      <trkpt lat="44.86311" lon="5.41863">
        <ele>1009</ele>
        <time>2020-05-22T09:18:51.854Z</time>
      </trkpt>
      <trkpt lat="44.8631" lon="5.41864">
        <ele>1009</ele>
        <time>2020-05-22T09:18:52.854Z</time>
      </trkpt>
      <trkpt lat="44.86309" lon="5.41864">
        <ele>1009</ele>
        <time>2020-05-22T09:18:53.854Z</time>
      </trkpt>
      <trkpt lat="44.86308" lon="5.41865">
        <ele>1009</ele>
        <time>2020-05-22T09:18:54.854Z</time>
      </trkpt>
      <trkpt lat="44.86307" lon="5.41866">
        <ele>1009</ele>
        <time>2020-05-22T09:18:55.854Z</time>
      </trkpt>
      <trkpt lat="44.86306" lon="5.41867">
        <ele>1009</ele>
        <time>2020-05-22T09:18:56.854Z</time>
      </trkpt>
      <trkpt lat="44.86304" lon="5.41868">
        <ele>1009</ele>
        <time>2020-05-22T09:18:57.854Z</time>
      </trkpt>
      <trkpt lat="44.86303" lon="5.41869">
        <ele>1009</ele>
        <time>2020-05-22T09:18:58.854Z</time>
      </trkpt>
      <trkpt lat="44.86302" lon="5.4187">
        <ele>1008</ele>
        <time>2020-05-22T09:18:59.854Z</time>
      </trkpt>
      <trkpt lat="44.863" lon="5.41871">
        <ele>1007</ele>
        <time>2020-05-22T09:19:00.854Z</time>
      </trkpt>
      <trkpt lat="44.86299" lon="5.41871">
        <ele>1007</ele>
        <time>2020-05-22T09:19:01.854Z</time>
      </trkpt>
      <trkpt lat="44.86297" lon="5.41872">
        <ele>1007</ele>
        <time>2020-05-22T09:19:02.853Z</time>
      </trkpt>
      <trkpt lat="44.86296" lon="5.41873">
        <ele>1007</ele>
        <time>2020-05-22T09:19:03.853Z</time>
      </trkpt>
      <trkpt lat="44.86294" lon="5.41873">
        <ele>1007</ele>
        <time>2020-05-22T09:19:04.853Z</time>
      </trkpt>
      <trkpt lat="44.86293" lon="5.41874">
        <ele>1007</ele>
        <time>2020-05-22T09:19:05.854Z</time>
      </trkpt>
      <trkpt lat="44.86291" lon="5.41875">
        <ele>1007</ele>
        <time>2020-05-22T09:19:06.854Z</time>
      </trkpt>
      <trkpt lat="44.8629" lon="5.41875">
        <ele>1007</ele>
        <time>2020-05-22T09:19:07.853Z</time>
      </trkpt>
      <trkpt lat="44.86289" lon="5.41876">
        <ele>1007</ele>
        <time>2020-05-22T09:19:08.854Z</time>
      </trkpt>
      <trkpt lat="44.86287" lon="5.41876">
        <ele>1007</ele>
        <time>2020-05-22T09:19:09.854Z</time>
      </trkpt>
      <trkpt lat="44.86285" lon="5.41877">
        <ele>1008</ele>
        <time>2020-05-22T09:19:10.854Z</time>
      </trkpt>
      <trkpt lat="44.86284" lon="5.41877">
        <ele>1008</ele>
        <time>2020-05-22T09:19:11.854Z</time>
      </trkpt>
      <trkpt lat="44.86282" lon="5.41878">
        <ele>1009</ele>
        <time>2020-05-22T09:19:12.854Z</time>
      </trkpt>
      <trkpt lat="44.8628" lon="5.41879">
        <ele>1009</ele>
        <time>2020-05-22T09:19:13.854Z</time>
      </trkpt>
      <trkpt lat="44.86279" lon="5.41879">
        <ele>1009</ele>
        <time>2020-05-22T09:19:14.854Z</time>
      </trkpt>
      <trkpt lat="44.86277" lon="5.4188">
        <ele>1009</ele>
        <time>2020-05-22T09:19:15.854Z</time>
      </trkpt>
      <trkpt lat="44.86276" lon="5.41881">
        <ele>1009</ele>
        <time>2020-05-22T09:19:16.853Z</time>
      </trkpt>
      <trkpt lat="44.86274" lon="5.41882">
        <ele>1009</ele>
        <time>2020-05-22T09:19:17.853Z</time>
      </trkpt>
      <trkpt lat="44.86273" lon="5.41882">
        <ele>1009</ele>
        <time>2020-05-22T09:19:18.854Z</time>
      </trkpt>
      <trkpt lat="44.86271" lon="5.41883">
        <ele>1009</ele>
        <time>2020-05-22T09:19:19.854Z</time>
      </trkpt>
      <trkpt lat="44.8627" lon="5.41884">
        <ele>1010</ele>
        <time>2020-05-22T09:19:20.854Z</time>
      </trkpt>
      <trkpt lat="44.86268" lon="5.41885">
        <ele>1010</ele>
        <time>2020-05-22T09:19:21.854Z</time>
      </trkpt>
      <trkpt lat="44.86267" lon="5.41886">
        <ele>1010</ele>
        <time>2020-05-22T09:19:22.854Z</time>
      </trkpt>
      <trkpt lat="44.86265" lon="5.41887">
        <ele>1010</ele>
        <time>2020-05-22T09:19:23.853Z</time>
      </trkpt>
      <trkpt lat="44.86263" lon="5.41888">
        <ele>1011</ele>
        <time>2020-05-22T09:19:24.854Z</time>
      </trkpt>
      <trkpt lat="44.86262" lon="5.41889">
        <ele>1011</ele>
        <time>2020-05-22T09:19:25.854Z</time>
      </trkpt>
      <trkpt lat="44.8626" lon="5.4189">
        <ele>1011</ele>
        <time>2020-05-22T09:19:26.854Z</time>
      </trkpt>
      <trkpt lat="44.86259" lon="5.4189">
        <ele>1011</ele>
        <time>2020-05-22T09:19:27.854Z</time>
      </trkpt>
      <trkpt lat="44.86257" lon="5.41891">
        <ele>1010</ele>
        <time>2020-05-22T09:19:28.854Z</time>
      </trkpt>
      <trkpt lat="44.86256" lon="5.41892">
        <ele>1010</ele>
        <time>2020-05-22T09:19:29.854Z</time>
      </trkpt>
      <trkpt lat="44.86254" lon="5.41893">
        <ele>1010</ele>
        <time>2020-05-22T09:19:30.854Z</time>
      </trkpt>
      <trkpt lat="44.86253" lon="5.41894">
        <ele>1011</ele>
        <time>2020-05-22T09:19:31.854Z</time>
      </trkpt>
      <trkpt lat="44.86252" lon="5.41895">
        <ele>1011</ele>
        <time>2020-05-22T09:19:32.854Z</time>
      </trkpt>
      <trkpt lat="44.8625" lon="5.41895">
        <ele>1011</ele>
        <time>2020-05-22T09:19:33.854Z</time>
      </trkpt>
      <trkpt lat="44.86249" lon="5.41896">
        <ele>1010</ele>
        <time>2020-05-22T09:19:34.854Z</time>
      </trkpt>
      <trkpt lat="44.86247" lon="5.41897">
        <ele>1010</ele>
        <time>2020-05-22T09:19:35.854Z</time>
      </trkpt>
      <trkpt lat="44.86246" lon="5.41897">
        <ele>1010</ele>
        <time>2020-05-22T09:19:36.853Z</time>
      </trkpt>
      <trkpt lat="44.86244" lon="5.41898">
        <ele>1010</ele>
        <time>2020-05-22T09:19:37.853Z</time>
      </trkpt>
      <trkpt lat="44.86243" lon="5.41899">
        <ele>1010</ele>
        <time>2020-05-22T09:19:38.854Z</time>
      </trkpt>
      <trkpt lat="44.86241" lon="5.419">
        <ele>1010</ele>
        <time>2020-05-22T09:19:39.853Z</time>
      </trkpt>
      <trkpt lat="44.8624" lon="5.41901">
        <ele>1010</ele>
        <time>2020-05-22T09:19:40.854Z</time>
      </trkpt>
      <trkpt lat="44.86238" lon="5.41902">
        <ele>1010</ele>
        <time>2020-05-22T09:19:41.853Z</time>
      </trkpt>
      <trkpt lat="44.86237" lon="5.41903">
        <ele>1011</ele>
        <time>2020-05-22T09:19:42.854Z</time>
      </trkpt>
      <trkpt lat="44.86235" lon="5.41904">
        <ele>1011</ele>
        <time>2020-05-22T09:19:43.854Z</time>
      </trkpt>
      <trkpt lat="44.86234" lon="5.41904">
        <ele>1011</ele>
        <time>2020-05-22T09:19:44.854Z</time>
      </trkpt>
      <trkpt lat="44.86232" lon="5.41905">
        <ele>1011</ele>
        <time>2020-05-22T09:19:45.854Z</time>
      </trkpt>
      <trkpt lat="44.8623" lon="5.41906">
        <ele>1011</ele>
        <time>2020-05-22T09:19:46.854Z</time>
      </trkpt>
      <trkpt lat="44.86229" lon="5.41907">
        <ele>1011</ele>
        <time>2020-05-22T09:19:47.853Z</time>
      </trkpt>
      <trkpt lat="44.86227" lon="5.41907">
        <ele>1012</ele>
        <time>2020-05-22T09:19:48.853Z</time>
      </trkpt>
      <trkpt lat="44.86226" lon="5.41908">
        <ele>1012</ele>
        <time>2020-05-22T09:19:49.854Z</time>
      </trkpt>
      <trkpt lat="44.86224" lon="5.41908">
        <ele>1012</ele>
        <time>2020-05-22T09:19:50.854Z</time>
      </trkpt>
      <trkpt lat="44.86222" lon="5.41909">
        <ele>1012</ele>
        <time>2020-05-22T09:19:51.854Z</time>
      </trkpt>
      <trkpt lat="44.8622" lon="5.4191">
        <ele>1012</ele>
        <time>2020-05-22T09:19:52.853Z</time>
      </trkpt>
      <trkpt lat="44.86219" lon="5.4191">
        <ele>1012</ele>
        <time>2020-05-22T09:19:53.854Z</time>
      </trkpt>
      <trkpt lat="44.86217" lon="5.41911">
        <ele>1013</ele>
        <time>2020-05-22T09:19:54.854Z</time>
      </trkpt>
      <trkpt lat="44.86216" lon="5.41912">
        <ele>1013</ele>
        <time>2020-05-22T09:19:55.853Z</time>
      </trkpt>
      <trkpt lat="44.86214" lon="5.41913">
        <ele>1013</ele>
        <time>2020-05-22T09:19:56.853Z</time>
      </trkpt>
      <trkpt lat="44.86213" lon="5.41914">
        <ele>1013</ele>
        <time>2020-05-22T09:19:57.854Z</time>
      </trkpt>
      <trkpt lat="44.86211" lon="5.41915">
        <ele>1013</ele>
        <time>2020-05-22T09:19:58.854Z</time>
      </trkpt>
      <trkpt lat="44.86209" lon="5.41917">
        <ele>1013</ele>
        <time>2020-05-22T09:19:59.853Z</time>
      </trkpt>
      <trkpt lat="44.86208" lon="5.41918">
        <ele>1013</ele>
        <time>2020-05-22T09:20:00.854Z</time>
      </trkpt>
      <trkpt lat="44.86206" lon="5.41919">
        <ele>1013</ele>
        <time>2020-05-22T09:20:01.854Z</time>
      </trkpt>
      <trkpt lat="44.86205" lon="5.4192">
        <ele>1013</ele>
        <time>2020-05-22T09:20:02.853Z</time>
      </trkpt>
      <trkpt lat="44.86203" lon="5.41922">
        <ele>1013</ele>
        <time>2020-05-22T09:20:03.854Z</time>
      </trkpt>
      <trkpt lat="44.86202" lon="5.41924">
        <ele>1013</ele>
        <time>2020-05-22T09:20:04.854Z</time>
      </trkpt>
      <trkpt lat="44.86201" lon="5.41925">
        <ele>1014</ele>
        <time>2020-05-22T09:20:05.853Z</time>
      </trkpt>
      <trkpt lat="44.86199" lon="5.41927">
        <ele>1014</ele>
        <time>2020-05-22T09:20:06.854Z</time>
      </trkpt>
      <trkpt lat="44.86197" lon="5.41929">
        <ele>1015</ele>
        <time>2020-05-22T09:20:07.854Z</time>
      </trkpt>
      <trkpt lat="44.86196" lon="5.41931">
        <ele>1015</ele>
        <time>2020-05-22T09:20:08.854Z</time>
      </trkpt>
      <trkpt lat="44.86194" lon="5.41932">
        <ele>1016</ele>
        <time>2020-05-22T09:20:09.854Z</time>
      </trkpt>
      <trkpt lat="44.86192" lon="5.41934">
        <ele>1016</ele>
        <time>2020-05-22T09:20:10.853Z</time>
      </trkpt>
      <trkpt lat="44.86191" lon="5.41936">
        <ele>1017</ele>
        <time>2020-05-22T09:20:11.854Z</time>
      </trkpt>
      <trkpt lat="44.86189" lon="5.41938">
        <ele>1018</ele>
        <time>2020-05-22T09:20:12.854Z</time>
      </trkpt>
      <trkpt lat="44.86188" lon="5.4194">
        <ele>1019</ele>
        <time>2020-05-22T09:20:13.854Z</time>
      </trkpt>
      <trkpt lat="44.86186" lon="5.41942">
        <ele>1020</ele>
        <time>2020-05-22T09:20:14.854Z</time>
      </trkpt>
      <trkpt lat="44.86185" lon="5.41944">
        <ele>1021</ele>
        <time>2020-05-22T09:20:15.854Z</time>
      </trkpt>
      <trkpt lat="44.86184" lon="5.41945">
        <ele>1021</ele>
        <time>2020-05-22T09:20:16.854Z</time>
      </trkpt>
      <trkpt lat="44.86182" lon="5.41947">
        <ele>1021</ele>
        <time>2020-05-22T09:20:17.854Z</time>
      </trkpt>
      <trkpt lat="44.86181" lon="5.41949">
        <ele>1021</ele>
        <time>2020-05-22T09:20:18.854Z</time>
      </trkpt>
      <trkpt lat="44.8618" lon="5.41951">
        <ele>1021</ele>
        <time>2020-05-22T09:20:19.854Z</time>
      </trkpt>
      <trkpt lat="44.86179" lon="5.41953">
        <ele>1022</ele>
        <time>2020-05-22T09:20:20.854Z</time>
      </trkpt>
      <trkpt lat="44.86178" lon="5.41954">
        <ele>1022</ele>
        <time>2020-05-22T09:20:21.854Z</time>
      </trkpt>
      <trkpt lat="44.86177" lon="5.41957">
        <ele>1022</ele>
        <time>2020-05-22T09:20:22.854Z</time>
      </trkpt>
      <trkpt lat="44.86176" lon="5.41958">
        <ele>1022</ele>
        <time>2020-05-22T09:20:23.854Z</time>
      </trkpt>
      <trkpt lat="44.86175" lon="5.4196">
        <ele>1022</ele>
        <time>2020-05-22T09:20:24.853Z</time>
      </trkpt>
      <trkpt lat="44.86174" lon="5.41961">
        <ele>1021</ele>
        <time>2020-05-22T09:20:25.854Z</time>
      </trkpt>
      <trkpt lat="44.86173" lon="5.41962">
        <ele>1021</ele>
        <time>2020-05-22T09:20:26.853Z</time>
      </trkpt>
      <trkpt lat="44.86171" lon="5.41964">
        <ele>1021</ele>
        <time>2020-05-22T09:20:27.854Z</time>
      </trkpt>
      <trkpt lat="44.8617" lon="5.41966">
        <ele>1021</ele>
        <time>2020-05-22T09:20:28.853Z</time>
      </trkpt>
      <trkpt lat="44.86168" lon="5.41967">
        <ele>1020</ele>
        <time>2020-05-22T09:20:29.854Z</time>
      </trkpt>
      <trkpt lat="44.86167" lon="5.41969">
        <ele>1020</ele>
        <time>2020-05-22T09:20:30.854Z</time>
      </trkpt>
      <trkpt lat="44.86166" lon="5.4197">
        <ele>1020</ele>
        <time>2020-05-22T09:20:31.853Z</time>
      </trkpt>
      <trkpt lat="44.86164" lon="5.41971">
        <ele>1019</ele>
        <time>2020-05-22T09:20:32.853Z</time>
      </trkpt>
      <trkpt lat="44.86162" lon="5.41972">
        <ele>1019</ele>
        <time>2020-05-22T09:20:33.854Z</time>
      </trkpt>
      <trkpt lat="44.86161" lon="5.41973">
        <ele>1018</ele>
        <time>2020-05-22T09:20:34.854Z</time>
      </trkpt>
      <trkpt lat="44.8616" lon="5.41973">
        <ele>1018</ele>
        <time>2020-05-22T09:20:35.854Z</time>
      </trkpt>
      <trkpt lat="44.86159" lon="5.41974">
        <ele>1017</ele>
        <time>2020-05-22T09:20:36.854Z</time>
      </trkpt>
      <trkpt lat="44.86157" lon="5.41975">
        <ele>1017</ele>
        <time>2020-05-22T09:20:37.854Z</time>
      </trkpt>
      <trkpt lat="44.86155" lon="5.41975">
        <ele>1016</ele>
        <time>2020-05-22T09:20:38.853Z</time>
      </trkpt>
      <trkpt lat="44.86154" lon="5.41976">
        <ele>1016</ele>
        <time>2020-05-22T09:20:39.853Z</time>
      </trkpt>
      <trkpt lat="44.86152" lon="5.41976">
        <ele>1015</ele>
        <time>2020-05-22T09:20:40.854Z</time>
      </trkpt>
      <trkpt lat="44.8615" lon="5.41976">
        <ele>1016</ele>
        <time>2020-05-22T09:20:41.854Z</time>
      </trkpt>
      <trkpt lat="44.86148" lon="5.41977">
        <ele>1016</ele>
        <time>2020-05-22T09:20:42.854Z</time>
      </trkpt>
      <trkpt lat="44.86146" lon="5.41977">
        <ele>1016</ele>
        <time>2020-05-22T09:20:43.853Z</time>
      </trkpt>
      <trkpt lat="44.86145" lon="5.41977">
        <ele>1017</ele>
        <time>2020-05-22T09:20:44.854Z</time>
      </trkpt>
      <trkpt lat="44.86143" lon="5.41976">
        <ele>1017</ele>
        <time>2020-05-22T09:20:45.854Z</time>
      </trkpt>
      <trkpt lat="44.86141" lon="5.41977">
        <ele>1017</ele>
        <time>2020-05-22T09:20:46.853Z</time>
      </trkpt>
      <trkpt lat="44.86139" lon="5.41977">
        <ele>1017</ele>
        <time>2020-05-22T09:20:47.854Z</time>
      </trkpt>
      <trkpt lat="44.86137" lon="5.41977">
        <ele>1018</ele>
        <time>2020-05-22T09:20:48.854Z</time>
      </trkpt>
      <trkpt lat="44.86135" lon="5.41977">
        <ele>1018</ele>
        <time>2020-05-22T09:20:49.854Z</time>
      </trkpt>
      <trkpt lat="44.86134" lon="5.41977">
        <ele>1018</ele>
        <time>2020-05-22T09:20:50.853Z</time>
      </trkpt>
      <trkpt lat="44.86133" lon="5.41977">
        <ele>1019</ele>
        <time>2020-05-22T09:20:51.854Z</time>
      </trkpt>
      <trkpt lat="44.86131" lon="5.41977">
        <ele>1019</ele>
        <time>2020-05-22T09:20:52.854Z</time>
      </trkpt>
      <trkpt lat="44.8613" lon="5.41977">
        <ele>1019</ele>
        <time>2020-05-22T09:20:53.854Z</time>
      </trkpt>
      <trkpt lat="44.86128" lon="5.41977">
        <ele>1020</ele>
        <time>2020-05-22T09:20:54.854Z</time>
      </trkpt>
      <trkpt lat="44.86127" lon="5.41978">
        <ele>1020</ele>
        <time>2020-05-22T09:20:55.854Z</time>
      </trkpt>
      <trkpt lat="44.86125" lon="5.41978">
        <ele>1020</ele>
        <time>2020-05-22T09:20:56.853Z</time>
      </trkpt>
      <trkpt lat="44.86123" lon="5.41978">
        <ele>1020</ele>
        <time>2020-05-22T09:20:57.853Z</time>
      </trkpt>
      <trkpt lat="44.86121" lon="5.41978">
        <ele>1020</ele>
        <time>2020-05-22T09:20:58.854Z</time>
      </trkpt>
      <trkpt lat="44.8612" lon="5.41979">
        <ele>1020</ele>
        <time>2020-05-22T09:20:59.853Z</time>
      </trkpt>
      <trkpt lat="44.86119" lon="5.41981">
        <ele>1020</ele>
        <time>2020-05-22T09:21:00.853Z</time>
      </trkpt>
      <trkpt lat="44.86117" lon="5.41983">
        <ele>1020</ele>
        <time>2020-05-22T09:21:01.853Z</time>
      </trkpt>
      <trkpt lat="44.86114" lon="5.41984">
        <ele>1020</ele>
        <time>2020-05-22T09:21:02.853Z</time>
      </trkpt>
      <trkpt lat="44.86112" lon="5.41987">
        <ele>1021</ele>
        <time>2020-05-22T09:21:03.853Z</time>
      </trkpt>
      <trkpt lat="44.8611" lon="5.41989">
        <ele>1022</ele>
        <time>2020-05-22T09:21:04.853Z</time>
      </trkpt>
      <trkpt lat="44.86108" lon="5.41991">
        <ele>1023</ele>
        <time>2020-05-22T09:21:05.853Z</time>
      </trkpt>
      <trkpt lat="44.86106" lon="5.41992">
        <ele>1023</ele>
        <time>2020-05-22T09:21:06.854Z</time>
      </trkpt>
      <trkpt lat="44.86104" lon="5.41994">
        <ele>1024</ele>
        <time>2020-05-22T09:21:07.853Z</time>
      </trkpt>
      <trkpt lat="44.86102" lon="5.41995">
        <ele>1025</ele>
        <time>2020-05-22T09:21:08.854Z</time>
      </trkpt>
      <trkpt lat="44.861" lon="5.41997">
        <ele>1026</ele>
        <time>2020-05-22T09:21:09.854Z</time>
      </trkpt>
      <trkpt lat="44.86098" lon="5.41998">
        <ele>1026</ele>
        <time>2020-05-22T09:21:10.854Z</time>
      </trkpt>
      <trkpt lat="44.86097" lon="5.41999">
        <ele>1027</ele>
        <time>2020-05-22T09:21:11.853Z</time>
      </trkpt>
      <trkpt lat="44.86095" lon="5.42001">
        <ele>1029</ele>
        <time>2020-05-22T09:21:12.854Z</time>
      </trkpt>
      <trkpt lat="44.86094" lon="5.42003">
        <ele>1029</ele>
        <time>2020-05-22T09:21:13.854Z</time>
      </trkpt>
      <trkpt lat="44.86092" lon="5.42005">
        <ele>1030</ele>
        <time>2020-05-22T09:21:14.854Z</time>
      </trkpt>
      <trkpt lat="44.86091" lon="5.42007">
        <ele>1031</ele>
        <time>2020-05-22T09:21:15.854Z</time>
      </trkpt>
      <trkpt lat="44.86089" lon="5.42009">
        <ele>1031</ele>
        <time>2020-05-22T09:21:16.853Z</time>
      </trkpt>
      <trkpt lat="44.86088" lon="5.42011">
        <ele>1031</ele>
        <time>2020-05-22T09:21:17.854Z</time>
      </trkpt>
      <trkpt lat="44.86086" lon="5.42013">
        <ele>1032</ele>
        <time>2020-05-22T09:21:18.854Z</time>
      </trkpt>
      <trkpt lat="44.86085" lon="5.42015">
        <ele>1032</ele>
        <time>2020-05-22T09:21:19.854Z</time>
      </trkpt>
      <trkpt lat="44.86084" lon="5.42017">
        <ele>1032</ele>
        <time>2020-05-22T09:21:20.853Z</time>
      </trkpt>
      <trkpt lat="44.86082" lon="5.42019">
        <ele>1032</ele>
        <time>2020-05-22T09:21:21.853Z</time>
      </trkpt>
      <trkpt lat="44.86081" lon="5.42021">
        <ele>1032</ele>
        <time>2020-05-22T09:21:22.853Z</time>
      </trkpt>
      <trkpt lat="44.86081" lon="5.42023">
        <ele>1032</ele>
        <time>2020-05-22T09:21:23.854Z</time>
      </trkpt>
      <trkpt lat="44.8608" lon="5.42025">
        <ele>1032</ele>
        <time>2020-05-22T09:21:24.853Z</time>
      </trkpt>
      <trkpt lat="44.8608" lon="5.42027">
        <ele>1032</ele>
        <time>2020-05-22T09:21:25.853Z</time>
      </trkpt>
      <trkpt lat="44.86079" lon="5.4203">
        <ele>1031</ele>
        <time>2020-05-22T09:21:26.853Z</time>
      </trkpt>
      <trkpt lat="44.86079" lon="5.42032">
        <ele>1030</ele>
        <time>2020-05-22T09:21:27.853Z</time>
      </trkpt>
      <trkpt lat="44.86078" lon="5.42035">
        <ele>1030</ele>
        <time>2020-05-22T09:21:28.854Z</time>
      </trkpt>
      <trkpt lat="44.86077" lon="5.42037">
        <ele>1029</ele>
        <time>2020-05-22T09:21:29.854Z</time>
      </trkpt>
      <trkpt lat="44.86077" lon="5.42039">
        <ele>1029</ele>
        <time>2020-05-22T09:21:30.854Z</time>
      </trkpt>
      <trkpt lat="44.86076" lon="5.42041">
        <ele>1028</ele>
        <time>2020-05-22T09:21:31.854Z</time>
      </trkpt>
      <trkpt lat="44.86075" lon="5.42043">
        <ele>1027</ele>
        <time>2020-05-22T09:21:32.854Z</time>
      </trkpt>
      <trkpt lat="44.86074" lon="5.42045">
        <ele>1027</ele>
        <time>2020-05-22T09:21:33.854Z</time>
      </trkpt>
      <trkpt lat="44.86073" lon="5.42047">
        <ele>1027</ele>
        <time>2020-05-22T09:21:34.854Z</time>
      </trkpt>
      <trkpt lat="44.86072" lon="5.42049">
        <ele>1027</ele>
        <time>2020-05-22T09:21:35.853Z</time>
      </trkpt>
      <trkpt lat="44.86071" lon="5.42051">
        <ele>1027</ele>
        <time>2020-05-22T09:21:36.853Z</time>
      </trkpt>
      <trkpt lat="44.8607" lon="5.42052">
        <ele>1027</ele>
        <time>2020-05-22T09:21:37.854Z</time>
      </trkpt>
      <trkpt lat="44.86068" lon="5.42054">
        <ele>1027</ele>
        <time>2020-05-22T09:21:38.853Z</time>
      </trkpt>
      <trkpt lat="44.86067" lon="5.42054">
        <ele>1027</ele>
        <time>2020-05-22T09:21:39.854Z</time>
      </trkpt>
      <trkpt lat="44.86066" lon="5.42055">
        <ele>1027</ele>
        <time>2020-05-22T09:21:40.854Z</time>
      </trkpt>
      <trkpt lat="44.86064" lon="5.42055">
        <ele>1027</ele>
        <time>2020-05-22T09:21:41.854Z</time>
      </trkpt>
      <trkpt lat="44.86062" lon="5.42055">
        <ele>1026</ele>
        <time>2020-05-22T09:21:42.853Z</time>
      </trkpt>
      <trkpt lat="44.8606" lon="5.42055">
        <ele>1026</ele>
        <time>2020-05-22T09:21:43.854Z</time>
      </trkpt>
      <trkpt lat="44.86058" lon="5.42056">
        <ele>1026</ele>
        <time>2020-05-22T09:21:44.853Z</time>
      </trkpt>
      <trkpt lat="44.86056" lon="5.42055">
        <ele>1026</ele>
        <time>2020-05-22T09:21:45.853Z</time>
      </trkpt>
      <trkpt lat="44.86055" lon="5.42055">
        <ele>1025</ele>
        <time>2020-05-22T09:21:46.854Z</time>
      </trkpt>
      <trkpt lat="44.86053" lon="5.42055">
        <ele>1025</ele>
        <time>2020-05-22T09:21:47.854Z</time>
      </trkpt>
      <trkpt lat="44.8605" lon="5.42054">
        <ele>1024</ele>
        <time>2020-05-22T09:21:48.854Z</time>
      </trkpt>
      <trkpt lat="44.86048" lon="5.42054">
        <ele>1024</ele>
        <time>2020-05-22T09:21:49.854Z</time>
      </trkpt>
      <trkpt lat="44.86047" lon="5.42053">
        <ele>1024</ele>
        <time>2020-05-22T09:21:50.853Z</time>
      </trkpt>
      <trkpt lat="44.86045" lon="5.42052">
        <ele>1023</ele>
        <time>2020-05-22T09:21:51.853Z</time>
      </trkpt>
      <trkpt lat="44.86044" lon="5.42051">
        <ele>1022</ele>
        <time>2020-05-22T09:21:52.854Z</time>
      </trkpt>
      <trkpt lat="44.86042" lon="5.4205">
        <ele>1022</ele>
        <time>2020-05-22T09:21:53.854Z</time>
      </trkpt>
      <trkpt lat="44.8604" lon="5.42049">
        <ele>1022</ele>
        <time>2020-05-22T09:21:54.854Z</time>
      </trkpt>
      <trkpt lat="44.86039" lon="5.42047">
        <ele>1023</ele>
        <time>2020-05-22T09:21:55.853Z</time>
      </trkpt>
      <trkpt lat="44.86037" lon="5.42046">
        <ele>1023</ele>
        <time>2020-05-22T09:21:56.853Z</time>
      </trkpt>
      <trkpt lat="44.86036" lon="5.42044">
        <ele>1024</ele>
        <time>2020-05-22T09:21:57.853Z</time>
      </trkpt>
      <trkpt lat="44.86034" lon="5.42043">
        <ele>1024</ele>
        <time>2020-05-22T09:21:58.854Z</time>
      </trkpt>
      <trkpt lat="44.86032" lon="5.42042">
        <ele>1025</ele>
        <time>2020-05-22T09:21:59.853Z</time>
      </trkpt>
      <trkpt lat="44.8603" lon="5.42042">
        <ele>1026</ele>
        <time>2020-05-22T09:22:00.854Z</time>
      </trkpt>
      <trkpt lat="44.86028" lon="5.42041">
        <ele>1027</ele>
        <time>2020-05-22T09:22:01.854Z</time>
      </trkpt>
      <trkpt lat="44.86026" lon="5.42041">
        <ele>1028</ele>
        <time>2020-05-22T09:22:02.854Z</time>
      </trkpt>
      <trkpt lat="44.86024" lon="5.42041">
        <ele>1028</ele>
        <time>2020-05-22T09:22:03.853Z</time>
      </trkpt>
      <trkpt lat="44.86022" lon="5.42042">
        <ele>1029</ele>
        <time>2020-05-22T09:22:04.853Z</time>
      </trkpt>
      <trkpt lat="44.86019" lon="5.42043">
        <ele>1030</ele>
        <time>2020-05-22T09:22:05.854Z</time>
      </trkpt>
      <trkpt lat="44.86016" lon="5.42045">
        <ele>1031</ele>
        <time>2020-05-22T09:22:06.853Z</time>
      </trkpt>
      <trkpt lat="44.86013" lon="5.42047">
        <ele>1032</ele>
        <time>2020-05-22T09:22:07.854Z</time>
      </trkpt>
      <trkpt lat="44.86011" lon="5.42049">
        <ele>1032</ele>
        <time>2020-05-22T09:22:08.854Z</time>
      </trkpt>
      <trkpt lat="44.86009" lon="5.4205">
        <ele>1033</ele>
        <time>2020-05-22T09:22:09.854Z</time>
      </trkpt>
      <trkpt lat="44.86008" lon="5.42052">
        <ele>1034</ele>
        <time>2020-05-22T09:22:10.854Z</time>
      </trkpt>
      <trkpt lat="44.86006" lon="5.42055">
        <ele>1034</ele>
        <time>2020-05-22T09:22:11.853Z</time>
      </trkpt>
      <trkpt lat="44.86004" lon="5.42056">
        <ele>1035</ele>
        <time>2020-05-22T09:22:12.854Z</time>
      </trkpt>
      <trkpt lat="44.86002" lon="5.42059">
        <ele>1036</ele>
        <time>2020-05-22T09:22:13.853Z</time>
      </trkpt>
      <trkpt lat="44.86001" lon="5.42063">
        <ele>1036</ele>
        <time>2020-05-22T09:22:14.853Z</time>
      </trkpt>
      <trkpt lat="44.85999" lon="5.42066">
        <ele>1037</ele>
        <time>2020-05-22T09:22:15.854Z</time>
      </trkpt>
      <trkpt lat="44.85998" lon="5.42069">
        <ele>1038</ele>
        <time>2020-05-22T09:22:16.854Z</time>
      </trkpt>
      <trkpt lat="44.85996" lon="5.42073">
        <ele>1038</ele>
        <time>2020-05-22T09:22:17.854Z</time>
      </trkpt>
      <trkpt lat="44.85996" lon="5.42074">
        <ele>1039</ele>
        <time>2020-05-22T09:22:18.853Z</time>
      </trkpt>
      <trkpt lat="44.85996" lon="5.42078">
        <ele>1039</ele>
        <time>2020-05-22T09:22:19.854Z</time>
      </trkpt>
      <trkpt lat="44.85995" lon="5.42081">
        <ele>1040</ele>
        <time>2020-05-22T09:22:20.854Z</time>
      </trkpt>
      <trkpt lat="44.85993" lon="5.42083">
        <ele>1041</ele>
        <time>2020-05-22T09:22:21.854Z</time>
      </trkpt>
      <trkpt lat="44.85992" lon="5.42085">
        <ele>1041</ele>
        <time>2020-05-22T09:22:22.854Z</time>
      </trkpt>
      <trkpt lat="44.85991" lon="5.42088">
        <ele>1042</ele>
        <time>2020-05-22T09:22:23.854Z</time>
      </trkpt>
      <trkpt lat="44.8599" lon="5.42092">
        <ele>1042</ele>
        <time>2020-05-22T09:22:24.854Z</time>
      </trkpt>
      <trkpt lat="44.85989" lon="5.42094">
        <ele>1043</ele>
        <time>2020-05-22T09:22:25.853Z</time>
      </trkpt>
      <trkpt lat="44.85988" lon="5.42097">
        <ele>1043</ele>
        <time>2020-05-22T09:22:26.854Z</time>
      </trkpt>
      <trkpt lat="44.85987" lon="5.421">
        <ele>1043</ele>
        <time>2020-05-22T09:22:27.854Z</time>
      </trkpt>
      <trkpt lat="44.85987" lon="5.42102">
        <ele>1044</ele>
        <time>2020-05-22T09:22:28.853Z</time>
      </trkpt>
      <trkpt lat="44.85986" lon="5.42106">
        <ele>1045</ele>
        <time>2020-05-22T09:22:29.854Z</time>
      </trkpt>
      <trkpt lat="44.85985" lon="5.42111">
        <ele>1045</ele>
        <time>2020-05-22T09:22:30.854Z</time>
      </trkpt>
      <trkpt lat="44.85985" lon="5.42114">
        <ele>1045</ele>
        <time>2020-05-22T09:22:31.854Z</time>
      </trkpt>
      <trkpt lat="44.85985" lon="5.42117">
        <ele>1046</ele>
        <time>2020-05-22T09:22:32.854Z</time>
      </trkpt>
      <trkpt lat="44.85983" lon="5.4212">
        <ele>1046</ele>
        <time>2020-05-22T09:22:33.854Z</time>
      </trkpt>
      <trkpt lat="44.85981" lon="5.42121">
        <ele>1046</ele>
        <time>2020-05-22T09:22:34.853Z</time>
      </trkpt>
      <trkpt lat="44.85978" lon="5.42124">
        <ele>1046</ele>
        <time>2020-05-22T09:22:35.854Z</time>
      </trkpt>
      <trkpt lat="44.85976" lon="5.42127">
        <ele>1045</ele>
        <time>2020-05-22T09:22:36.854Z</time>
      </trkpt>
      <trkpt lat="44.85974" lon="5.42129">
        <ele>1045</ele>
        <time>2020-05-22T09:22:37.854Z</time>
      </trkpt>
      <trkpt lat="44.85973" lon="5.4213">
        <ele>1045</ele>
        <time>2020-05-22T09:22:38.854Z</time>
      </trkpt>
      <trkpt lat="44.85972" lon="5.42132">
        <ele>1045</ele>
        <time>2020-05-22T09:22:39.854Z</time>
      </trkpt>
      <trkpt lat="44.85971" lon="5.42134">
        <ele>1045</ele>
        <time>2020-05-22T09:22:40.853Z</time>
      </trkpt>
      <trkpt lat="44.8597" lon="5.42136">
        <ele>1045</ele>
        <time>2020-05-22T09:22:41.853Z</time>
      </trkpt>
      <trkpt lat="44.85969" lon="5.42139">
        <ele>1045</ele>
        <time>2020-05-22T09:22:42.854Z</time>
      </trkpt>
      <trkpt lat="44.85968" lon="5.4214">
        <ele>1046</ele>
        <time>2020-05-22T09:22:43.854Z</time>
      </trkpt>
      <trkpt lat="44.85968" lon="5.42143">
        <ele>1046</ele>
        <time>2020-05-22T09:22:44.853Z</time>
      </trkpt>
      <trkpt lat="44.85966" lon="5.42145">
        <ele>1046</ele>
        <time>2020-05-22T09:22:45.854Z</time>
      </trkpt>
      <trkpt lat="44.85965" lon="5.42147">
        <ele>1046</ele>
        <time>2020-05-22T09:22:46.854Z</time>
      </trkpt>
      <trkpt lat="44.85963" lon="5.42149">
        <ele>1046</ele>
        <time>2020-05-22T09:22:47.854Z</time>
      </trkpt>
      <trkpt lat="44.85962" lon="5.42151">
        <ele>1046</ele>
        <time>2020-05-22T09:22:48.854Z</time>
      </trkpt>
      <trkpt lat="44.8596" lon="5.42153">
        <ele>1046</ele>
        <time>2020-05-22T09:22:49.854Z</time>
      </trkpt>
      <trkpt lat="44.85958" lon="5.42155">
        <ele>1045</ele>
        <time>2020-05-22T09:22:50.853Z</time>
      </trkpt>
      <trkpt lat="44.85955" lon="5.42157">
        <ele>1045</ele>
        <time>2020-05-22T09:22:51.854Z</time>
      </trkpt>
      <trkpt lat="44.85953" lon="5.42159">
        <ele>1045</ele>
        <time>2020-05-22T09:22:52.854Z</time>
      </trkpt>
      <trkpt lat="44.85951" lon="5.4216">
        <ele>1045</ele>
        <time>2020-05-22T09:22:53.854Z</time>
      </trkpt>
      <trkpt lat="44.8595" lon="5.42162">
        <ele>1045</ele>
        <time>2020-05-22T09:22:54.854Z</time>
      </trkpt>
      <trkpt lat="44.85949" lon="5.42163">
        <ele>1045</ele>
        <time>2020-05-22T09:22:55.854Z</time>
      </trkpt>
      <trkpt lat="44.85947" lon="5.42164">
        <ele>1044</ele>
        <time>2020-05-22T09:22:56.854Z</time>
      </trkpt>
      <trkpt lat="44.85946" lon="5.42165">
        <ele>1044</ele>
        <time>2020-05-22T09:22:57.854Z</time>
      </trkpt>
      <trkpt lat="44.85944" lon="5.42165">
        <ele>1043</ele>
        <time>2020-05-22T09:22:58.853Z</time>
      </trkpt>
      <trkpt lat="44.85943" lon="5.42167">
        <ele>1043</ele>
        <time>2020-05-22T09:22:59.854Z</time>
      </trkpt>
      <trkpt lat="44.85941" lon="5.42169">
        <ele>1043</ele>
        <time>2020-05-22T09:23:00.854Z</time>
      </trkpt>
      <trkpt lat="44.8594" lon="5.4217">
        <ele>1042</ele>
        <time>2020-05-22T09:23:01.854Z</time>
      </trkpt>
      <trkpt lat="44.85939" lon="5.42171">
        <ele>1042</ele>
        <time>2020-05-22T09:23:02.854Z</time>
      </trkpt>
      <trkpt lat="44.85938" lon="5.42173">
        <ele>1042</ele>
        <time>2020-05-22T09:23:03.853Z</time>
      </trkpt>
      <trkpt lat="44.85936" lon="5.42174">
        <ele>1042</ele>
        <time>2020-05-22T09:23:04.853Z</time>
      </trkpt>
      <trkpt lat="44.85936" lon="5.42175">
        <ele>1042</ele>
        <time>2020-05-22T09:23:05.854Z</time>
      </trkpt>
      <trkpt lat="44.85935" lon="5.42176">
        <ele>1042</ele>
        <time>2020-05-22T09:23:06.854Z</time>
      </trkpt>
      <trkpt lat="44.85934" lon="5.42178">
        <ele>1042</ele>
        <time>2020-05-22T09:23:07.854Z</time>
      </trkpt>
      <trkpt lat="44.85933" lon="5.42179">
        <ele>1042</ele>
        <time>2020-05-22T09:23:08.853Z</time>
      </trkpt>
      <trkpt lat="44.85932" lon="5.42181">
        <ele>1042</ele>
        <time>2020-05-22T09:23:09.854Z</time>
      </trkpt>
      <trkpt lat="44.85931" lon="5.42182">
        <ele>1042</ele>
        <time>2020-05-22T09:23:10.854Z</time>
      </trkpt>
      <trkpt lat="44.8593" lon="5.42183">
        <ele>1042</ele>
        <time>2020-05-22T09:23:11.854Z</time>
      </trkpt>
      <trkpt lat="44.85929" lon="5.42184">
        <ele>1042</ele>
        <time>2020-05-22T09:23:12.854Z</time>
      </trkpt>
      <trkpt lat="44.85928" lon="5.42186">
        <ele>1042</ele>
        <time>2020-05-22T09:23:13.854Z</time>
      </trkpt>
      <trkpt lat="44.85927" lon="5.42187">
        <ele>1042</ele>
        <time>2020-05-22T09:23:14.854Z</time>
      </trkpt>
      <trkpt lat="44.85926" lon="5.42189">
        <ele>1042</ele>
        <time>2020-05-22T09:23:15.853Z</time>
      </trkpt>
      <trkpt lat="44.85925" lon="5.42191">
        <ele>1042</ele>
        <time>2020-05-22T09:23:16.854Z</time>
      </trkpt>
      <trkpt lat="44.85924" lon="5.42192">
        <ele>1042</ele>
        <time>2020-05-22T09:23:17.854Z</time>
      </trkpt>
      <trkpt lat="44.85922" lon="5.42194">
        <ele>1043</ele>
        <time>2020-05-22T09:23:18.853Z</time>
      </trkpt>
      <trkpt lat="44.85921" lon="5.42196">
        <ele>1043</ele>
        <time>2020-05-22T09:23:19.854Z</time>
      </trkpt>
      <trkpt lat="44.8592" lon="5.42197">
        <ele>1044</ele>
        <time>2020-05-22T09:23:20.854Z</time>
      </trkpt>
      <trkpt lat="44.85919" lon="5.42198">
        <ele>1044</ele>
        <time>2020-05-22T09:23:21.854Z</time>
      </trkpt>
      <trkpt lat="44.85918" lon="5.422">
        <ele>1044</ele>
        <time>2020-05-22T09:23:22.853Z</time>
      </trkpt>
      <trkpt lat="44.85918" lon="5.42201">
        <ele>1044</ele>
        <time>2020-05-22T09:23:23.854Z</time>
      </trkpt>
      <trkpt lat="44.85917" lon="5.42203">
        <ele>1044</ele>
        <time>2020-05-22T09:23:24.854Z</time>
      </trkpt>
      <trkpt lat="44.85916" lon="5.42205">
        <ele>1044</ele>
        <time>2020-05-22T09:23:25.854Z</time>
      </trkpt>
      <trkpt lat="44.85915" lon="5.42207">
        <ele>1045</ele>
        <time>2020-05-22T09:23:26.853Z</time>
      </trkpt>
      <trkpt lat="44.85913" lon="5.42209">
        <ele>1045</ele>
        <time>2020-05-22T09:23:27.853Z</time>
      </trkpt>
      <trkpt lat="44.85912" lon="5.4221">
        <ele>1045</ele>
        <time>2020-05-22T09:23:28.853Z</time>
      </trkpt>
      <trkpt lat="44.8591" lon="5.42213">
        <ele>1046</ele>
        <time>2020-05-22T09:23:29.853Z</time>
      </trkpt>
      <trkpt lat="44.85909" lon="5.42215">
        <ele>1046</ele>
        <time>2020-05-22T09:23:30.854Z</time>
      </trkpt>
      <trkpt lat="44.85908" lon="5.42216">
        <ele>1047</ele>
        <time>2020-05-22T09:23:31.854Z</time>
      </trkpt>
      <trkpt lat="44.85906" lon="5.42218">
        <ele>1047</ele>
        <time>2020-05-22T09:23:32.854Z</time>
      </trkpt>
      <trkpt lat="44.85905" lon="5.4222">
        <ele>1047</ele>
        <time>2020-05-22T09:23:33.854Z</time>
      </trkpt>
      <trkpt lat="44.85903" lon="5.42222">
        <ele>1047</ele>
        <time>2020-05-22T09:23:34.853Z</time>
      </trkpt>
      <trkpt lat="44.85902" lon="5.42225">
        <ele>1047</ele>
        <time>2020-05-22T09:23:35.853Z</time>
      </trkpt>
      <trkpt lat="44.85902" lon="5.42227">
        <ele>1046</ele>
        <time>2020-05-22T09:23:36.854Z</time>
      </trkpt>
      <trkpt lat="44.85901" lon="5.42229">
        <ele>1046</ele>
        <time>2020-05-22T09:23:37.854Z</time>
      </trkpt>
      <trkpt lat="44.85901" lon="5.42231">
        <ele>1046</ele>
        <time>2020-05-22T09:23:38.854Z</time>
      </trkpt>
      <trkpt lat="44.85901" lon="5.42234">
        <ele>1046</ele>
        <time>2020-05-22T09:23:39.854Z</time>
      </trkpt>
      <trkpt lat="44.85901" lon="5.42236">
        <ele>1047</ele>
        <time>2020-05-22T09:23:40.854Z</time>
      </trkpt>
      <trkpt lat="44.85901" lon="5.42239">
        <ele>1047</ele>
        <time>2020-05-22T09:23:41.853Z</time>
      </trkpt>
      <trkpt lat="44.85901" lon="5.42241">
        <ele>1047</ele>
        <time>2020-05-22T09:23:42.854Z</time>
      </trkpt>
      <trkpt lat="44.859" lon="5.42243">
        <ele>1048</ele>
        <time>2020-05-22T09:23:43.854Z</time>
      </trkpt>
      <trkpt lat="44.85899" lon="5.42245">
        <ele>1049</ele>
        <time>2020-05-22T09:23:44.853Z</time>
      </trkpt>
      <trkpt lat="44.85898" lon="5.42247">
        <ele>1049</ele>
        <time>2020-05-22T09:23:45.854Z</time>
      </trkpt>
      <trkpt lat="44.85897" lon="5.42249">
        <ele>1050</ele>
        <time>2020-05-22T09:23:46.853Z</time>
      </trkpt>
      <trkpt lat="44.85896" lon="5.42252">
        <ele>1051</ele>
        <time>2020-05-22T09:23:47.853Z</time>
      </trkpt>
      <trkpt lat="44.85895" lon="5.42254">
        <ele>1051</ele>
        <time>2020-05-22T09:23:48.854Z</time>
      </trkpt>
      <trkpt lat="44.85894" lon="5.42257">
        <ele>1051</ele>
        <time>2020-05-22T09:23:49.854Z</time>
      </trkpt>
      <trkpt lat="44.85892" lon="5.42258">
        <ele>1051</ele>
        <time>2020-05-22T09:23:50.853Z</time>
      </trkpt>
      <trkpt lat="44.85892" lon="5.42259">
        <ele>1051</ele>
        <time>2020-05-22T09:23:51.854Z</time>
      </trkpt>
      <trkpt lat="44.8589" lon="5.42261">
        <ele>1051</ele>
        <time>2020-05-22T09:23:52.854Z</time>
      </trkpt>
      <trkpt lat="44.85889" lon="5.42263">
        <ele>1052</ele>
        <time>2020-05-22T09:23:53.854Z</time>
      </trkpt>
      <trkpt lat="44.85887" lon="5.42264">
        <ele>1052</ele>
        <time>2020-05-22T09:23:54.853Z</time>
      </trkpt>
      <trkpt lat="44.85885" lon="5.42264">
        <ele>1052</ele>
        <time>2020-05-22T09:23:55.854Z</time>
      </trkpt>
      <trkpt lat="44.85884" lon="5.42265">
        <ele>1053</ele>
        <time>2020-05-22T09:23:56.854Z</time>
      </trkpt>
      <trkpt lat="44.85883" lon="5.42266">
        <ele>1053</ele>
        <time>2020-05-22T09:23:57.854Z</time>
      </trkpt>
      <trkpt lat="44.85883" lon="5.42268">
        <ele>1053</ele>
        <time>2020-05-22T09:23:58.853Z</time>
      </trkpt>
      <trkpt lat="44.85881" lon="5.42269">
        <ele>1054</ele>
        <time>2020-05-22T09:23:59.854Z</time>
      </trkpt>
      <trkpt lat="44.8588" lon="5.4227">
        <ele>1054</ele>
        <time>2020-05-22T09:24:00.853Z</time>
      </trkpt>
      <trkpt lat="44.85879" lon="5.42271">
        <ele>1055</ele>
        <time>2020-05-22T09:24:01.853Z</time>
      </trkpt>
      <trkpt lat="44.85878" lon="5.42273">
        <ele>1055</ele>
        <time>2020-05-22T09:24:02.854Z</time>
      </trkpt>
      <trkpt lat="44.85877" lon="5.42274">
        <ele>1056</ele>
        <time>2020-05-22T09:24:03.853Z</time>
      </trkpt>
      <trkpt lat="44.85876" lon="5.42276">
        <ele>1057</ele>
        <time>2020-05-22T09:24:04.854Z</time>
      </trkpt>
      <trkpt lat="44.85875" lon="5.42277">
        <ele>1057</ele>
        <time>2020-05-22T09:24:05.854Z</time>
      </trkpt>
      <trkpt lat="44.85873" lon="5.42278">
        <ele>1057</ele>
        <time>2020-05-22T09:24:06.854Z</time>
      </trkpt>
      <trkpt lat="44.85872" lon="5.42279">
        <ele>1057</ele>
        <time>2020-05-22T09:24:07.854Z</time>
      </trkpt>
      <trkpt lat="44.85871" lon="5.42281">
        <ele>1057</ele>
        <time>2020-05-22T09:24:08.854Z</time>
      </trkpt>
      <trkpt lat="44.8587" lon="5.42282">
        <ele>1058</ele>
        <time>2020-05-22T09:24:09.853Z</time>
      </trkpt>
      <trkpt lat="44.85868" lon="5.42284">
        <ele>1058</ele>
        <time>2020-05-22T09:24:10.854Z</time>
      </trkpt>
      <trkpt lat="44.85867" lon="5.42285">
        <ele>1058</ele>
        <time>2020-05-22T09:24:11.854Z</time>
      </trkpt>
      <trkpt lat="44.85865" lon="5.42286">
        <ele>1059</ele>
        <time>2020-05-22T09:24:12.853Z</time>
      </trkpt>
      <trkpt lat="44.85863" lon="5.42287">
        <ele>1059</ele>
        <time>2020-05-22T09:24:13.853Z</time>
      </trkpt>
      <trkpt lat="44.85862" lon="5.42287">
        <ele>1059</ele>
        <time>2020-05-22T09:24:14.853Z</time>
      </trkpt>
      <trkpt lat="44.8586" lon="5.42287">
        <ele>1059</ele>
        <time>2020-05-22T09:24:15.853Z</time>
      </trkpt>
      <trkpt lat="44.85858" lon="5.42286">
        <ele>1059</ele>
        <time>2020-05-22T09:24:16.854Z</time>
      </trkpt>
      <trkpt lat="44.85856" lon="5.42286">
        <ele>1059</ele>
        <time>2020-05-22T09:24:17.854Z</time>
      </trkpt>
      <trkpt lat="44.85855" lon="5.42285">
        <ele>1060</ele>
        <time>2020-05-22T09:24:18.854Z</time>
      </trkpt>
      <trkpt lat="44.85854" lon="5.42285">
        <ele>1060</ele>
        <time>2020-05-22T09:24:19.853Z</time>
      </trkpt>
      <trkpt lat="44.85853" lon="5.42285">
        <ele>1060</ele>
        <time>2020-05-22T09:24:20.853Z</time>
      </trkpt>
      <trkpt lat="44.85851" lon="5.42286">
        <ele>1060</ele>
        <time>2020-05-22T09:24:21.854Z</time>
      </trkpt>
      <trkpt lat="44.85849" lon="5.42287">
        <ele>1060</ele>
        <time>2020-05-22T09:24:22.854Z</time>
      </trkpt>
      <trkpt lat="44.85847" lon="5.42289">
        <ele>1060</ele>
        <time>2020-05-22T09:24:23.854Z</time>
      </trkpt>
      <trkpt lat="44.85846" lon="5.4229">
        <ele>1061</ele>
        <time>2020-05-22T09:24:24.854Z</time>
      </trkpt>
      <trkpt lat="44.85845" lon="5.42291">
        <ele>1061</ele>
        <time>2020-05-22T09:24:25.853Z</time>
      </trkpt>
      <trkpt lat="44.85844" lon="5.42291">
        <ele>1061</ele>
        <time>2020-05-22T09:24:26.854Z</time>
      </trkpt>
      <trkpt lat="44.85842" lon="5.42292">
        <ele>1062</ele>
        <time>2020-05-22T09:24:27.853Z</time>
      </trkpt>
      <trkpt lat="44.8584" lon="5.42292">
        <ele>1062</ele>
        <time>2020-05-22T09:24:28.853Z</time>
      </trkpt>
      <trkpt lat="44.85839" lon="5.42293">
        <ele>1063</ele>
        <time>2020-05-22T09:24:29.853Z</time>
      </trkpt>
      <trkpt lat="44.85837" lon="5.42293">
        <ele>1063</ele>
        <time>2020-05-22T09:24:30.854Z</time>
      </trkpt>
      <trkpt lat="44.85836" lon="5.42293">
        <ele>1063</ele>
        <time>2020-05-22T09:24:31.854Z</time>
      </trkpt>
      <trkpt lat="44.85835" lon="5.42293">
        <ele>1063</ele>
        <time>2020-05-22T09:24:32.854Z</time>
      </trkpt>
      <trkpt lat="44.85833" lon="5.42294">
        <ele>1064</ele>
        <time>2020-05-22T09:24:33.854Z</time>
      </trkpt>
      <trkpt lat="44.85832" lon="5.42294">
        <ele>1064</ele>
        <time>2020-05-22T09:24:34.854Z</time>
      </trkpt>
      <trkpt lat="44.85831" lon="5.42295">
        <ele>1065</ele>
        <time>2020-05-22T09:24:35.854Z</time>
      </trkpt>
      <trkpt lat="44.85829" lon="5.42295">
        <ele>1065</ele>
        <time>2020-05-22T09:24:36.854Z</time>
      </trkpt>
      <trkpt lat="44.85828" lon="5.42296">
        <ele>1066</ele>
        <time>2020-05-22T09:24:37.854Z</time>
      </trkpt>
      <trkpt lat="44.85826" lon="5.42296">
        <ele>1067</ele>
        <time>2020-05-22T09:24:38.854Z</time>
      </trkpt>
      <trkpt lat="44.85825" lon="5.42297">
        <ele>1067</ele>
        <time>2020-05-22T09:24:39.853Z</time>
      </trkpt>
      <trkpt lat="44.85823" lon="5.42297">
        <ele>1067</ele>
        <time>2020-05-22T09:24:40.854Z</time>
      </trkpt>
      <trkpt lat="44.85822" lon="5.42298">
        <ele>1068</ele>
        <time>2020-05-22T09:24:41.853Z</time>
      </trkpt>
      <trkpt lat="44.85821" lon="5.42299">
        <ele>1068</ele>
        <time>2020-05-22T09:24:42.853Z</time>
      </trkpt>
      <trkpt lat="44.85819" lon="5.423">
        <ele>1069</ele>
        <time>2020-05-22T09:24:43.854Z</time>
      </trkpt>
      <trkpt lat="44.85818" lon="5.42301">
        <ele>1069</ele>
        <time>2020-05-22T09:24:44.854Z</time>
      </trkpt>
      <trkpt lat="44.85817" lon="5.42302">
        <ele>1069</ele>
        <time>2020-05-22T09:24:45.853Z</time>
      </trkpt>
      <trkpt lat="44.85815" lon="5.42303">
        <ele>1070</ele>
        <time>2020-05-22T09:24:46.853Z</time>
      </trkpt>
      <trkpt lat="44.85814" lon="5.42304">
        <ele>1071</ele>
        <time>2020-05-22T09:24:47.853Z</time>
      </trkpt>
      <trkpt lat="44.85812" lon="5.42305">
        <ele>1072</ele>
        <time>2020-05-22T09:24:48.854Z</time>
      </trkpt>
      <trkpt lat="44.85811" lon="5.42307">
        <ele>1072</ele>
        <time>2020-05-22T09:24:49.853Z</time>
      </trkpt>
      <trkpt lat="44.8581" lon="5.42308">
        <ele>1073</ele>
        <time>2020-05-22T09:24:50.853Z</time>
      </trkpt>
      <trkpt lat="44.85808" lon="5.4231">
        <ele>1074</ele>
        <time>2020-05-22T09:24:51.854Z</time>
      </trkpt>
      <trkpt lat="44.85807" lon="5.42311">
        <ele>1074</ele>
        <time>2020-05-22T09:24:52.854Z</time>
      </trkpt>
      <trkpt lat="44.85805" lon="5.42312">
        <ele>1074</ele>
        <time>2020-05-22T09:24:53.854Z</time>
      </trkpt>
      <trkpt lat="44.85805" lon="5.42313">
        <ele>1074</ele>
        <time>2020-05-22T09:24:54.853Z</time>
      </trkpt>
      <trkpt lat="44.85803" lon="5.42315">
        <ele>1075</ele>
        <time>2020-05-22T09:24:55.854Z</time>
      </trkpt>
      <trkpt lat="44.85801" lon="5.42318">
        <ele>1075</ele>
        <time>2020-05-22T09:24:56.854Z</time>
      </trkpt>
      <trkpt lat="44.858" lon="5.42319">
        <ele>1075</ele>
        <time>2020-05-22T09:24:57.854Z</time>
      </trkpt>
      <trkpt lat="44.85799" lon="5.42321">
        <ele>1076</ele>
        <time>2020-05-22T09:24:58.854Z</time>
      </trkpt>
      <trkpt lat="44.85798" lon="5.42323">
        <ele>1075</ele>
        <time>2020-05-22T09:24:59.853Z</time>
      </trkpt>
      <trkpt lat="44.85797" lon="5.42325">
        <ele>1075</ele>
        <time>2020-05-22T09:25:00.853Z</time>
      </trkpt>
      <trkpt lat="44.85796" lon="5.42326">
        <ele>1075</ele>
        <time>2020-05-22T09:25:01.853Z</time>
      </trkpt>
      <trkpt lat="44.85795" lon="5.42327">
        <ele>1075</ele>
        <time>2020-05-22T09:25:02.854Z</time>
      </trkpt>
      <trkpt lat="44.85794" lon="5.42329">
        <ele>1075</ele>
        <time>2020-05-22T09:25:03.853Z</time>
      </trkpt>
      <trkpt lat="44.85793" lon="5.4233">
        <ele>1076</ele>
        <time>2020-05-22T09:25:04.854Z</time>
      </trkpt>
      <trkpt lat="44.85792" lon="5.42331">
        <ele>1076</ele>
        <time>2020-05-22T09:25:05.854Z</time>
      </trkpt>
      <trkpt lat="44.85791" lon="5.42331">
        <ele>1076</ele>
        <time>2020-05-22T09:25:06.854Z</time>
      </trkpt>
      <trkpt lat="44.8579" lon="5.4233">
        <ele>1076</ele>
        <time>2020-05-22T09:25:07.854Z</time>
      </trkpt>
      <trkpt lat="44.85789" lon="5.42329">
        <ele>1076</ele>
        <time>2020-05-22T09:25:08.854Z</time>
      </trkpt>
      <trkpt lat="44.85788" lon="5.42327">
        <ele>1076</ele>
        <time>2020-05-22T09:25:09.854Z</time>
      </trkpt>
      <trkpt lat="44.85788" lon="5.42325">
        <ele>1077</ele>
        <time>2020-05-22T09:25:10.853Z</time>
      </trkpt>
      <trkpt lat="44.85788" lon="5.42323">
        <ele>1077</ele>
        <time>2020-05-22T09:25:11.854Z</time>
      </trkpt>
      <trkpt lat="44.85787" lon="5.42321">
        <ele>1077</ele>
        <time>2020-05-22T09:25:12.854Z</time>
      </trkpt>
      <trkpt lat="44.85787" lon="5.42319">
        <ele>1077</ele>
        <time>2020-05-22T09:25:13.853Z</time>
      </trkpt>
      <trkpt lat="44.85787" lon="5.42317">
        <ele>1077</ele>
        <time>2020-05-22T09:25:14.854Z</time>
      </trkpt>
      <trkpt lat="44.85787" lon="5.42315">
        <ele>1077</ele>
        <time>2020-05-22T09:25:15.854Z</time>
      </trkpt>
      <trkpt lat="44.85789" lon="5.42313">
        <ele>1077</ele>
        <time>2020-05-22T09:25:16.854Z</time>
      </trkpt>
      <trkpt lat="44.8579" lon="5.42312">
        <ele>1076</ele>
        <time>2020-05-22T09:25:17.854Z</time>
      </trkpt>
      <trkpt lat="44.85791" lon="5.4231">
        <ele>1076</ele>
        <time>2020-05-22T09:25:18.853Z</time>
      </trkpt>
      <trkpt lat="44.85792" lon="5.42309">
        <ele>1076</ele>
        <time>2020-05-22T09:25:19.854Z</time>
      </trkpt>
      <trkpt lat="44.85792" lon="5.42309">
        <ele>1076</ele>
        <time>2020-05-22T09:25:20.853Z</time>
      </trkpt>
      <trkpt lat="44.85805" lon="5.42296">
        <ele>1068</ele>
        <time>2020-05-22T09:25:21.855Z</time>
      </trkpt>
      <trkpt lat="44.85807" lon="5.42295">
        <ele>1068</ele>
        <time>2020-05-22T09:25:22.854Z</time>
      </trkpt>
      <trkpt lat="44.85809" lon="5.42294">
        <ele>1067</ele>
        <time>2020-05-22T09:25:23.855Z</time>
      </trkpt>
      <trkpt lat="44.8581" lon="5.42293">
        <ele>1067</ele>
        <time>2020-05-22T09:25:24.854Z</time>
      </trkpt>
      <trkpt lat="44.85811" lon="5.42292">
        <ele>1067</ele>
        <time>2020-05-22T09:25:25.855Z</time>
      </trkpt>
      <trkpt lat="44.85812" lon="5.42291">
        <ele>1067</ele>
        <time>2020-05-22T09:25:26.854Z</time>
      </trkpt>
      <trkpt lat="44.85813" lon="5.4229">
        <ele>1067</ele>
        <time>2020-05-22T09:25:27.854Z</time>
      </trkpt>
      <trkpt lat="44.85815" lon="5.42288">
        <ele>1067</ele>
        <time>2020-05-22T09:25:28.854Z</time>
      </trkpt>
      <trkpt lat="44.85816" lon="5.42288">
        <ele>1067</ele>
        <time>2020-05-22T09:25:29.854Z</time>
      </trkpt>
      <trkpt lat="44.85817" lon="5.42287">
        <ele>1066</ele>
        <time>2020-05-22T09:25:30.855Z</time>
      </trkpt>
      <trkpt lat="44.85819" lon="5.42285">
        <ele>1066</ele>
        <time>2020-05-22T09:25:31.855Z</time>
      </trkpt>
      <trkpt lat="44.8582" lon="5.42284">
        <ele>1066</ele>
        <time>2020-05-22T09:25:32.855Z</time>
      </trkpt>
      <trkpt lat="44.85822" lon="5.42282">
        <ele>1065</ele>
        <time>2020-05-22T09:25:33.854Z</time>
      </trkpt>
      <trkpt lat="44.85824" lon="5.42281">
        <ele>1065</ele>
        <time>2020-05-22T09:25:34.855Z</time>
      </trkpt>
      <trkpt lat="44.85825" lon="5.4228">
        <ele>1065</ele>
        <time>2020-05-22T09:25:35.855Z</time>
      </trkpt>
      <trkpt lat="44.85825" lon="5.42278">
        <ele>1065</ele>
        <time>2020-05-22T09:25:36.855Z</time>
      </trkpt>
      <trkpt lat="44.85826" lon="5.42277">
        <ele>1065</ele>
        <time>2020-05-22T09:25:37.855Z</time>
      </trkpt>
      <trkpt lat="44.85828" lon="5.42275">
        <ele>1065</ele>
        <time>2020-05-22T09:25:38.855Z</time>
      </trkpt>
      <trkpt lat="44.85829" lon="5.42274">
        <ele>1064</ele>
        <time>2020-05-22T09:25:39.855Z</time>
      </trkpt>
      <trkpt lat="44.85831" lon="5.42272">
        <ele>1064</ele>
        <time>2020-05-22T09:25:40.855Z</time>
      </trkpt>
      <trkpt lat="44.85831" lon="5.4227">
        <ele>1064</ele>
        <time>2020-05-22T09:25:41.855Z</time>
      </trkpt>
      <trkpt lat="44.85832" lon="5.42269">
        <ele>1064</ele>
        <time>2020-05-22T09:25:42.855Z</time>
      </trkpt>
      <trkpt lat="44.85835" lon="5.42266">
        <ele>1064</ele>
        <time>2020-05-22T09:25:43.855Z</time>
      </trkpt>
      <trkpt lat="44.85836" lon="5.42265">
        <ele>1064</ele>
        <time>2020-05-22T09:25:44.855Z</time>
      </trkpt>
      <trkpt lat="44.85837" lon="5.42263">
        <ele>1064</ele>
        <time>2020-05-22T09:25:45.854Z</time>
      </trkpt>
      <trkpt lat="44.85838" lon="5.42261">
        <ele>1063</ele>
        <time>2020-05-22T09:25:46.855Z</time>
      </trkpt>
      <trkpt lat="44.85839" lon="5.42259">
        <ele>1063</ele>
        <time>2020-05-22T09:25:47.855Z</time>
      </trkpt>
      <trkpt lat="44.85839" lon="5.42258">
        <ele>1063</ele>
        <time>2020-05-22T09:25:48.855Z</time>
      </trkpt>
      <trkpt lat="44.8584" lon="5.42257">
        <ele>1063</ele>
        <time>2020-05-22T09:25:49.855Z</time>
      </trkpt>
      <trkpt lat="44.85841" lon="5.42256">
        <ele>1063</ele>
        <time>2020-05-22T09:25:50.854Z</time>
      </trkpt>
      <trkpt lat="44.85841" lon="5.42255">
        <ele>1064</ele>
        <time>2020-05-22T09:25:51.855Z</time>
      </trkpt>
      <trkpt lat="44.85841" lon="5.42253">
        <ele>1064</ele>
        <time>2020-05-22T09:25:52.855Z</time>
      </trkpt>
      <trkpt lat="44.85842" lon="5.42251">
        <ele>1064</ele>
        <time>2020-05-22T09:25:53.855Z</time>
      </trkpt>
      <trkpt lat="44.85844" lon="5.42249">
        <ele>1064</ele>
        <time>2020-05-22T09:25:54.854Z</time>
      </trkpt>
      <trkpt lat="44.85845" lon="5.42247">
        <ele>1064</ele>
        <time>2020-05-22T09:25:55.855Z</time>
      </trkpt>
      <trkpt lat="44.85847" lon="5.42246">
        <ele>1065</ele>
        <time>2020-05-22T09:25:56.854Z</time>
      </trkpt>
      <trkpt lat="44.85849" lon="5.42244">
        <ele>1065</ele>
        <time>2020-05-22T09:25:57.854Z</time>
      </trkpt>
      <trkpt lat="44.85849" lon="5.42243">
        <ele>1066</ele>
        <time>2020-05-22T09:25:58.854Z</time>
      </trkpt>
      <trkpt lat="44.8585" lon="5.42242">
        <ele>1066</ele>
        <time>2020-05-22T09:25:59.854Z</time>
      </trkpt>
      <trkpt lat="44.85851" lon="5.4224">
        <ele>1067</ele>
        <time>2020-05-22T09:26:00.855Z</time>
      </trkpt>
      <trkpt lat="44.85852" lon="5.42239">
        <ele>1067</ele>
        <time>2020-05-22T09:26:01.855Z</time>
      </trkpt>
      <trkpt lat="44.85853" lon="5.42239">
        <ele>1067</ele>
        <time>2020-05-22T09:26:02.854Z</time>
      </trkpt>
      <trkpt lat="44.85855" lon="5.42238">
        <ele>1068</ele>
        <time>2020-05-22T09:26:03.855Z</time>
      </trkpt>
      <trkpt lat="44.85856" lon="5.42237">
        <ele>1068</ele>
        <time>2020-05-22T09:26:04.855Z</time>
      </trkpt>
      <trkpt lat="44.85857" lon="5.42236">
        <ele>1068</ele>
        <time>2020-05-22T09:26:05.855Z</time>
      </trkpt>
      <trkpt lat="44.85858" lon="5.42234">
        <ele>1069</ele>
        <time>2020-05-22T09:26:06.855Z</time>
      </trkpt>
      <trkpt lat="44.85859" lon="5.42233">
        <ele>1069</ele>
        <time>2020-05-22T09:26:07.855Z</time>
      </trkpt>
      <trkpt lat="44.8586" lon="5.42231">
        <ele>1070</ele>
        <time>2020-05-22T09:26:08.854Z</time>
      </trkpt>
      <trkpt lat="44.8586" lon="5.42229">
        <ele>1070</ele>
        <time>2020-05-22T09:26:09.855Z</time>
      </trkpt>
      <trkpt lat="44.8586" lon="5.42227">
        <ele>1071</ele>
        <time>2020-05-22T09:26:10.855Z</time>
      </trkpt>
      <trkpt lat="44.8586" lon="5.42225">
        <ele>1072</ele>
        <time>2020-05-22T09:26:11.855Z</time>
      </trkpt>
      <trkpt lat="44.85859" lon="5.42224">
        <ele>1072</ele>
        <time>2020-05-22T09:26:12.854Z</time>
      </trkpt>
      <trkpt lat="44.85858" lon="5.42222">
        <ele>1073</ele>
        <time>2020-05-22T09:26:13.855Z</time>
      </trkpt>
      <trkpt lat="44.85857" lon="5.42222">
        <ele>1074</ele>
        <time>2020-05-22T09:26:14.854Z</time>
      </trkpt>
      <trkpt lat="44.85855" lon="5.42222">
        <ele>1075</ele>
        <time>2020-05-22T09:26:15.855Z</time>
      </trkpt>
      <trkpt lat="44.85853" lon="5.42223">
        <ele>1075</ele>
        <time>2020-05-22T09:26:16.855Z</time>
      </trkpt>
      <trkpt lat="44.85851" lon="5.42224">
        <ele>1076</ele>
        <time>2020-05-22T09:26:17.855Z</time>
      </trkpt>
      <trkpt lat="44.8585" lon="5.42225">
        <ele>1076</ele>
        <time>2020-05-22T09:26:18.855Z</time>
      </trkpt>
      <trkpt lat="44.85849" lon="5.42227">
        <ele>1077</ele>
        <time>2020-05-22T09:26:19.855Z</time>
      </trkpt>
      <trkpt lat="44.85847" lon="5.42229">
        <ele>1077</ele>
        <time>2020-05-22T09:26:20.854Z</time>
      </trkpt>
      <trkpt lat="44.85846" lon="5.42231">
        <ele>1078</ele>
        <time>2020-05-22T09:26:21.855Z</time>
      </trkpt>
      <trkpt lat="44.85845" lon="5.42233">
        <ele>1078</ele>
        <time>2020-05-22T09:26:22.855Z</time>
      </trkpt>
      <trkpt lat="44.85844" lon="5.42235">
        <ele>1078</ele>
        <time>2020-05-22T09:26:23.855Z</time>
      </trkpt>
      <trkpt lat="44.85842" lon="5.42238">
        <ele>1079</ele>
        <time>2020-05-22T09:26:24.855Z</time>
      </trkpt>
      <trkpt lat="44.85841" lon="5.4224">
        <ele>1079</ele>
        <time>2020-05-22T09:26:25.855Z</time>
      </trkpt>
      <trkpt lat="44.85839" lon="5.42242">
        <ele>1079</ele>
        <time>2020-05-22T09:26:26.855Z</time>
      </trkpt>
      <trkpt lat="44.85837" lon="5.42244">
        <ele>1079</ele>
        <time>2020-05-22T09:26:27.855Z</time>
      </trkpt>
      <trkpt lat="44.85835" lon="5.42245">
        <ele>1079</ele>
        <time>2020-05-22T09:26:28.855Z</time>
      </trkpt>
      <trkpt lat="44.85834" lon="5.42246">
        <ele>1079</ele>
        <time>2020-05-22T09:26:29.855Z</time>
      </trkpt>
      <trkpt lat="44.85832" lon="5.42248">
        <ele>1079</ele>
        <time>2020-05-22T09:26:30.855Z</time>
      </trkpt>
      <trkpt lat="44.85831" lon="5.42248">
        <ele>1079</ele>
        <time>2020-05-22T09:26:31.854Z</time>
      </trkpt>
      <trkpt lat="44.8583" lon="5.42249">
        <ele>1080</ele>
        <time>2020-05-22T09:26:32.855Z</time>
      </trkpt>
      <trkpt lat="44.85828" lon="5.4225">
        <ele>1080</ele>
        <time>2020-05-22T09:26:33.854Z</time>
      </trkpt>
      <trkpt lat="44.85827" lon="5.42252">
        <ele>1080</ele>
        <time>2020-05-22T09:26:34.854Z</time>
      </trkpt>
      <trkpt lat="44.85825" lon="5.42253">
        <ele>1080</ele>
        <time>2020-05-22T09:26:35.855Z</time>
      </trkpt>
      <trkpt lat="44.85824" lon="5.42254">
        <ele>1080</ele>
        <time>2020-05-22T09:26:36.855Z</time>
      </trkpt>
      <trkpt lat="44.85822" lon="5.42256">
        <ele>1080</ele>
        <time>2020-05-22T09:26:37.855Z</time>
      </trkpt>
      <trkpt lat="44.85821" lon="5.42257">
        <ele>1080</ele>
        <time>2020-05-22T09:26:38.855Z</time>
      </trkpt>
      <trkpt lat="44.8582" lon="5.42259">
        <ele>1080</ele>
        <time>2020-05-22T09:26:39.855Z</time>
      </trkpt>
      <trkpt lat="44.85818" lon="5.42259">
        <ele>1080</ele>
        <time>2020-05-22T09:26:40.855Z</time>
      </trkpt>
      <trkpt lat="44.85818" lon="5.4226">
        <ele>1080</ele>
        <time>2020-05-22T09:26:41.855Z</time>
      </trkpt>
      <trkpt lat="44.85816" lon="5.42261">
        <ele>1080</ele>
        <time>2020-05-22T09:26:42.855Z</time>
      </trkpt>
      <trkpt lat="44.85815" lon="5.42262">
        <ele>1080</ele>
        <time>2020-05-22T09:26:43.855Z</time>
      </trkpt>
      <trkpt lat="44.85814" lon="5.42263">
        <ele>1081</ele>
        <time>2020-05-22T09:26:44.854Z</time>
      </trkpt>
      <trkpt lat="44.85812" lon="5.42265">
        <ele>1081</ele>
        <time>2020-05-22T09:26:45.855Z</time>
      </trkpt>
      <trkpt lat="44.85811" lon="5.42266">
        <ele>1081</ele>
        <time>2020-05-22T09:26:46.855Z</time>
      </trkpt>
      <trkpt lat="44.8581" lon="5.42267">
        <ele>1081</ele>
        <time>2020-05-22T09:26:47.855Z</time>
      </trkpt>
      <trkpt lat="44.85809" lon="5.42268">
        <ele>1081</ele>
        <time>2020-05-22T09:26:48.855Z</time>
      </trkpt>
      <trkpt lat="44.85807" lon="5.42268">
        <ele>1081</ele>
        <time>2020-05-22T09:26:49.854Z</time>
      </trkpt>
      <trkpt lat="44.85805" lon="5.42269">
        <ele>1081</ele>
        <time>2020-05-22T09:26:50.855Z</time>
      </trkpt>
      <trkpt lat="44.85804" lon="5.4227">
        <ele>1082</ele>
        <time>2020-05-22T09:26:51.855Z</time>
      </trkpt>
      <trkpt lat="44.85802" lon="5.4227">
        <ele>1082</ele>
        <time>2020-05-22T09:26:52.855Z</time>
      </trkpt>
      <trkpt lat="44.858" lon="5.42271">
        <ele>1082</ele>
        <time>2020-05-22T09:26:53.855Z</time>
      </trkpt>
      <trkpt lat="44.85798" lon="5.42272">
        <ele>1083</ele>
        <time>2020-05-22T09:26:54.855Z</time>
      </trkpt>
      <trkpt lat="44.85796" lon="5.42272">
        <ele>1083</ele>
        <time>2020-05-22T09:26:55.855Z</time>
      </trkpt>
      <trkpt lat="44.85794" lon="5.42273">
        <ele>1084</ele>
        <time>2020-05-22T09:26:56.855Z</time>
      </trkpt>
      <trkpt lat="44.85792" lon="5.42274">
        <ele>1084</ele>
        <time>2020-05-22T09:26:57.855Z</time>
      </trkpt>
      <trkpt lat="44.8579" lon="5.42274">
        <ele>1084</ele>
        <time>2020-05-22T09:26:58.855Z</time>
      </trkpt>
      <trkpt lat="44.85788" lon="5.42275">
        <ele>1084</ele>
        <time>2020-05-22T09:26:59.855Z</time>
      </trkpt>
      <trkpt lat="44.85787" lon="5.42275">
        <ele>1084</ele>
        <time>2020-05-22T09:27:00.855Z</time>
      </trkpt>
      <trkpt lat="44.85786" lon="5.42274">
        <ele>1085</ele>
        <time>2020-05-22T09:27:01.854Z</time>
      </trkpt>
      <trkpt lat="44.85784" lon="5.42274">
        <ele>1085</ele>
        <time>2020-05-22T09:27:02.855Z</time>
      </trkpt>
      <trkpt lat="44.85783" lon="5.42274">
        <ele>1085</ele>
        <time>2020-05-22T09:27:03.855Z</time>
      </trkpt>
      <trkpt lat="44.85782" lon="5.42274">
        <ele>1085</ele>
        <time>2020-05-22T09:27:04.855Z</time>
      </trkpt>
      <trkpt lat="44.8578" lon="5.42274">
        <ele>1086</ele>
        <time>2020-05-22T09:27:05.855Z</time>
      </trkpt>
      <trkpt lat="44.85779" lon="5.42275">
        <ele>1085</ele>
        <time>2020-05-22T09:27:06.855Z</time>
      </trkpt>
      <trkpt lat="44.85776" lon="5.42275">
        <ele>1085</ele>
        <time>2020-05-22T09:27:07.855Z</time>
      </trkpt>
      <trkpt lat="44.85774" lon="5.42276">
        <ele>1085</ele>
        <time>2020-05-22T09:27:08.854Z</time>
      </trkpt>
      <trkpt lat="44.85772" lon="5.42276">
        <ele>1085</ele>
        <time>2020-05-22T09:27:09.855Z</time>
      </trkpt>
      <trkpt lat="44.8577" lon="5.42276">
        <ele>1086</ele>
        <time>2020-05-22T09:27:10.855Z</time>
      </trkpt>
      <trkpt lat="44.85769" lon="5.42277">
        <ele>1086</ele>
        <time>2020-05-22T09:27:11.855Z</time>
      </trkpt>
      <trkpt lat="44.85767" lon="5.42277">
        <ele>1086</ele>
        <time>2020-05-22T09:27:12.854Z</time>
      </trkpt>
      <trkpt lat="44.85765" lon="5.42277">
        <ele>1087</ele>
        <time>2020-05-22T09:27:13.855Z</time>
      </trkpt>
      <trkpt lat="44.85764" lon="5.42277">
        <ele>1088</ele>
        <time>2020-05-22T09:27:14.855Z</time>
      </trkpt>
      <trkpt lat="44.85762" lon="5.42278">
        <ele>1088</ele>
        <time>2020-05-22T09:27:15.855Z</time>
      </trkpt>
      <trkpt lat="44.8576" lon="5.42277">
        <ele>1089</ele>
        <time>2020-05-22T09:27:16.855Z</time>
      </trkpt>
      <trkpt lat="44.85759" lon="5.42276">
        <ele>1089</ele>
        <time>2020-05-22T09:27:17.854Z</time>
      </trkpt>
      <trkpt lat="44.85757" lon="5.42277">
        <ele>1090</ele>
        <time>2020-05-22T09:27:18.855Z</time>
      </trkpt>
      <trkpt lat="44.85755" lon="5.42277">
        <ele>1090</ele>
        <time>2020-05-22T09:27:19.855Z</time>
      </trkpt>
      <trkpt lat="44.85753" lon="5.42277">
        <ele>1091</ele>
        <time>2020-05-22T09:27:20.855Z</time>
      </trkpt>
      <trkpt lat="44.85752" lon="5.42277">
        <ele>1091</ele>
        <time>2020-05-22T09:27:21.855Z</time>
      </trkpt>
      <trkpt lat="44.8575" lon="5.42277">
        <ele>1092</ele>
        <time>2020-05-22T09:27:22.855Z</time>
      </trkpt>
      <trkpt lat="44.85748" lon="5.42277">
        <ele>1092</ele>
        <time>2020-05-22T09:27:23.855Z</time>
      </trkpt>
      <trkpt lat="44.85746" lon="5.42277">
        <ele>1092</ele>
        <time>2020-05-22T09:27:24.855Z</time>
      </trkpt>
      <trkpt lat="44.85744" lon="5.42278">
        <ele>1093</ele>
        <time>2020-05-22T09:27:25.855Z</time>
      </trkpt>
      <trkpt lat="44.85742" lon="5.42278">
        <ele>1093</ele>
        <time>2020-05-22T09:27:26.855Z</time>
      </trkpt>
      <trkpt lat="44.8574" lon="5.42278">
        <ele>1093</ele>
        <time>2020-05-22T09:27:27.854Z</time>
      </trkpt>
      <trkpt lat="44.85739" lon="5.42277">
        <ele>1094</ele>
        <time>2020-05-22T09:27:28.855Z</time>
      </trkpt>
      <trkpt lat="44.85737" lon="5.42277">
        <ele>1094</ele>
        <time>2020-05-22T09:27:29.855Z</time>
      </trkpt>
      <trkpt lat="44.85736" lon="5.42278">
        <ele>1095</ele>
        <time>2020-05-22T09:27:30.854Z</time>
      </trkpt>
      <trkpt lat="44.85734" lon="5.42278">
        <ele>1096</ele>
        <time>2020-05-22T09:27:31.855Z</time>
      </trkpt>
      <trkpt lat="44.85733" lon="5.42278">
        <ele>1096</ele>
        <time>2020-05-22T09:27:32.854Z</time>
      </trkpt>
      <trkpt lat="44.85731" lon="5.42278">
        <ele>1097</ele>
        <time>2020-05-22T09:27:33.854Z</time>
      </trkpt>
      <trkpt lat="44.85729" lon="5.42276">
        <ele>1097</ele>
        <time>2020-05-22T09:27:34.855Z</time>
      </trkpt>
      <trkpt lat="44.85728" lon="5.42274">
        <ele>1098</ele>
        <time>2020-05-22T09:27:35.854Z</time>
      </trkpt>
      <trkpt lat="44.85726" lon="5.42275">
        <ele>1098</ele>
        <time>2020-05-22T09:27:36.855Z</time>
      </trkpt>
      <trkpt lat="44.85724" lon="5.42276">
        <ele>1099</ele>
        <time>2020-05-22T09:27:37.855Z</time>
      </trkpt>
      <trkpt lat="44.85723" lon="5.42276">
        <ele>1099</ele>
        <time>2020-05-22T09:27:38.854Z</time>
      </trkpt>
      <trkpt lat="44.85722" lon="5.42275">
        <ele>1100</ele>
        <time>2020-05-22T09:27:39.854Z</time>
      </trkpt>
      <trkpt lat="44.85721" lon="5.42276">
        <ele>1100</ele>
        <time>2020-05-22T09:27:40.854Z</time>
      </trkpt>
      <trkpt lat="44.8572" lon="5.42276">
        <ele>1101</ele>
        <time>2020-05-22T09:27:41.855Z</time>
      </trkpt>
      <trkpt lat="44.85718" lon="5.42277">
        <ele>1101</ele>
        <time>2020-05-22T09:27:42.855Z</time>
      </trkpt>
      <trkpt lat="44.85717" lon="5.42279">
        <ele>1101</ele>
        <time>2020-05-22T09:27:43.855Z</time>
      </trkpt>
      <trkpt lat="44.85716" lon="5.42281">
        <ele>1101</ele>
        <time>2020-05-22T09:27:44.855Z</time>
      </trkpt>
      <trkpt lat="44.85715" lon="5.42283">
        <ele>1101</ele>
        <time>2020-05-22T09:27:45.854Z</time>
      </trkpt>
      <trkpt lat="44.85714" lon="5.42285">
        <ele>1102</ele>
        <time>2020-05-22T09:27:46.854Z</time>
      </trkpt>
      <trkpt lat="44.85714" lon="5.42287">
        <ele>1102</ele>
        <time>2020-05-22T09:27:47.855Z</time>
      </trkpt>
      <trkpt lat="44.85714" lon="5.42289">
        <ele>1102</ele>
        <time>2020-05-22T09:27:48.855Z</time>
      </trkpt>
      <trkpt lat="44.85713" lon="5.42291">
        <ele>1102</ele>
        <time>2020-05-22T09:27:49.855Z</time>
      </trkpt>
      <trkpt lat="44.85713" lon="5.42293">
        <ele>1102</ele>
        <time>2020-05-22T09:27:50.855Z</time>
      </trkpt>
      <trkpt lat="44.85713" lon="5.42296">
        <ele>1103</ele>
        <time>2020-05-22T09:27:51.854Z</time>
      </trkpt>
      <trkpt lat="44.85713" lon="5.42299">
        <ele>1103</ele>
        <time>2020-05-22T09:27:52.854Z</time>
      </trkpt>
      <trkpt lat="44.85714" lon="5.423">
        <ele>1103</ele>
        <time>2020-05-22T09:27:53.854Z</time>
      </trkpt>
      <trkpt lat="44.85714" lon="5.42303">
        <ele>1102</ele>
        <time>2020-05-22T09:27:54.855Z</time>
      </trkpt>
      <trkpt lat="44.85713" lon="5.42305">
        <ele>1102</ele>
        <time>2020-05-22T09:27:55.855Z</time>
      </trkpt>
      <trkpt lat="44.85714" lon="5.42307">
        <ele>1101</ele>
        <time>2020-05-22T09:27:56.854Z</time>
      </trkpt>
      <trkpt lat="44.85714" lon="5.4231">
        <ele>1101</ele>
        <time>2020-05-22T09:27:57.855Z</time>
      </trkpt>
      <trkpt lat="44.85714" lon="5.42312">
        <ele>1100</ele>
        <time>2020-05-22T09:27:58.855Z</time>
      </trkpt>
      <trkpt lat="44.85714" lon="5.42314">
        <ele>1100</ele>
        <time>2020-05-22T09:27:59.855Z</time>
      </trkpt>
      <trkpt lat="44.85714" lon="5.42315">
        <ele>1099</ele>
        <time>2020-05-22T09:28:00.855Z</time>
      </trkpt>
      <trkpt lat="44.85714" lon="5.42318">
        <ele>1099</ele>
        <time>2020-05-22T09:28:01.854Z</time>
      </trkpt>
      <trkpt lat="44.85713" lon="5.4232">
        <ele>1098</ele>
        <time>2020-05-22T09:28:02.855Z</time>
      </trkpt>
      <trkpt lat="44.85712" lon="5.42321">
        <ele>1098</ele>
        <time>2020-05-22T09:28:03.855Z</time>
      </trkpt>
      <trkpt lat="44.85712" lon="5.42323">
        <ele>1097</ele>
        <time>2020-05-22T09:28:04.855Z</time>
      </trkpt>
      <trkpt lat="44.85712" lon="5.42325">
        <ele>1097</ele>
        <time>2020-05-22T09:28:05.855Z</time>
      </trkpt>
      <trkpt lat="44.85713" lon="5.42326">
        <ele>1096</ele>
        <time>2020-05-22T09:28:06.855Z</time>
      </trkpt>
      <trkpt lat="44.85712" lon="5.42327">
        <ele>1095</ele>
        <time>2020-05-22T09:28:07.855Z</time>
      </trkpt>
      <trkpt lat="44.85712" lon="5.42329">
        <ele>1095</ele>
        <time>2020-05-22T09:28:08.855Z</time>
      </trkpt>
      <trkpt lat="44.85712" lon="5.4233">
        <ele>1094</ele>
        <time>2020-05-22T09:28:09.855Z</time>
      </trkpt>
      <trkpt lat="44.85711" lon="5.42331">
        <ele>1094</ele>
        <time>2020-05-22T09:28:10.855Z</time>
      </trkpt>
      <trkpt lat="44.8571" lon="5.42334">
        <ele>1093</ele>
        <time>2020-05-22T09:28:11.855Z</time>
      </trkpt>
      <trkpt lat="44.85709" lon="5.42337">
        <ele>1093</ele>
        <time>2020-05-22T09:28:12.855Z</time>
      </trkpt>
      <trkpt lat="44.85708" lon="5.42339">
        <ele>1093</ele>
        <time>2020-05-22T09:28:13.855Z</time>
      </trkpt>
      <trkpt lat="44.85707" lon="5.42341">
        <ele>1094</ele>
        <time>2020-05-22T09:28:14.854Z</time>
      </trkpt>
      <trkpt lat="44.85706" lon="5.42342">
        <ele>1094</ele>
        <time>2020-05-22T09:28:15.854Z</time>
      </trkpt>
      <trkpt lat="44.85705" lon="5.42343">
        <ele>1095</ele>
        <time>2020-05-22T09:28:16.855Z</time>
      </trkpt>
      <trkpt lat="44.85705" lon="5.42345">
        <ele>1096</ele>
        <time>2020-05-22T09:28:17.854Z</time>
      </trkpt>
      <trkpt lat="44.85704" lon="5.42347">
        <ele>1097</ele>
        <time>2020-05-22T09:28:18.855Z</time>
      </trkpt>
      <trkpt lat="44.85703" lon="5.42348">
        <ele>1098</ele>
        <time>2020-05-22T09:28:19.855Z</time>
      </trkpt>
      <trkpt lat="44.85702" lon="5.4235">
        <ele>1099</ele>
        <time>2020-05-22T09:28:20.854Z</time>
      </trkpt>
      <trkpt lat="44.85702" lon="5.42351">
        <ele>1100</ele>
        <time>2020-05-22T09:28:21.855Z</time>
      </trkpt>
      <trkpt lat="44.85701" lon="5.42352">
        <ele>1100</ele>
        <time>2020-05-22T09:28:22.854Z</time>
      </trkpt>
      <trkpt lat="44.857" lon="5.42354">
        <ele>1101</ele>
        <time>2020-05-22T09:28:23.854Z</time>
      </trkpt>
      <trkpt lat="44.85699" lon="5.42355">
        <ele>1102</ele>
        <time>2020-05-22T09:28:24.855Z</time>
      </trkpt>
      <trkpt lat="44.85699" lon="5.42357">
        <ele>1103</ele>
        <time>2020-05-22T09:28:25.855Z</time>
      </trkpt>
      <trkpt lat="44.85698" lon="5.42358">
        <ele>1103</ele>
        <time>2020-05-22T09:28:26.854Z</time>
      </trkpt>
      <trkpt lat="44.85698" lon="5.4236">
        <ele>1103</ele>
        <time>2020-05-22T09:28:27.854Z</time>
      </trkpt>
      <trkpt lat="44.85697" lon="5.42361">
        <ele>1103</ele>
        <time>2020-05-22T09:28:28.855Z</time>
      </trkpt>
      <trkpt lat="44.85697" lon="5.42363">
        <ele>1103</ele>
        <time>2020-05-22T09:28:29.855Z</time>
      </trkpt>
      <trkpt lat="44.85697" lon="5.42365">
        <ele>1104</ele>
        <time>2020-05-22T09:28:30.855Z</time>
      </trkpt>
      <trkpt lat="44.85697" lon="5.42367">
        <ele>1104</ele>
        <time>2020-05-22T09:28:31.854Z</time>
      </trkpt>
      <trkpt lat="44.85697" lon="5.42369">
        <ele>1104</ele>
        <time>2020-05-22T09:28:32.855Z</time>
      </trkpt>
      <trkpt lat="44.85697" lon="5.42372">
        <ele>1104</ele>
        <time>2020-05-22T09:28:33.854Z</time>
      </trkpt>
      <trkpt lat="44.85697" lon="5.42374">
        <ele>1104</ele>
        <time>2020-05-22T09:28:34.854Z</time>
      </trkpt>
      <trkpt lat="44.85696" lon="5.42375">
        <ele>1104</ele>
        <time>2020-05-22T09:28:35.854Z</time>
      </trkpt>
      <trkpt lat="44.85696" lon="5.42378">
        <ele>1104</ele>
        <time>2020-05-22T09:28:36.855Z</time>
      </trkpt>
      <trkpt lat="44.85696" lon="5.4238">
        <ele>1103</ele>
        <time>2020-05-22T09:28:37.855Z</time>
      </trkpt>
      <trkpt lat="44.85696" lon="5.42382">
        <ele>1103</ele>
        <time>2020-05-22T09:28:38.854Z</time>
      </trkpt>
      <trkpt lat="44.85696" lon="5.42384">
        <ele>1102</ele>
        <time>2020-05-22T09:28:39.854Z</time>
      </trkpt>
      <trkpt lat="44.85696" lon="5.42386">
        <ele>1102</ele>
        <time>2020-05-22T09:28:40.854Z</time>
      </trkpt>
      <trkpt lat="44.85697" lon="5.42388">
        <ele>1101</ele>
        <time>2020-05-22T09:28:41.855Z</time>
      </trkpt>
      <trkpt lat="44.85697" lon="5.42391">
        <ele>1101</ele>
        <time>2020-05-22T09:28:42.855Z</time>
      </trkpt>
      <trkpt lat="44.85697" lon="5.42393">
        <ele>1100</ele>
        <time>2020-05-22T09:28:43.855Z</time>
      </trkpt>
      <trkpt lat="44.85697" lon="5.42395">
        <ele>1100</ele>
        <time>2020-05-22T09:28:44.854Z</time>
      </trkpt>
      <trkpt lat="44.85697" lon="5.42397">
        <ele>1099</ele>
        <time>2020-05-22T09:28:45.855Z</time>
      </trkpt>
      <trkpt lat="44.85698" lon="5.42399">
        <ele>1099</ele>
        <time>2020-05-22T09:28:46.855Z</time>
      </trkpt>
      <trkpt lat="44.85699" lon="5.42401">
        <ele>1098</ele>
        <time>2020-05-22T09:28:47.855Z</time>
      </trkpt>
      <trkpt lat="44.85699" lon="5.42403">
        <ele>1097</ele>
        <time>2020-05-22T09:28:48.854Z</time>
      </trkpt>
      <trkpt lat="44.857" lon="5.42404">
        <ele>1096</ele>
        <time>2020-05-22T09:28:49.854Z</time>
      </trkpt>
      <trkpt lat="44.85701" lon="5.42405">
        <ele>1095</ele>
        <time>2020-05-22T09:28:50.855Z</time>
      </trkpt>
      <trkpt lat="44.85701" lon="5.42407">
        <ele>1094</ele>
        <time>2020-05-22T09:28:51.855Z</time>
      </trkpt>
      <trkpt lat="44.85702" lon="5.42409">
        <ele>1094</ele>
        <time>2020-05-22T09:28:52.854Z</time>
      </trkpt>
      <trkpt lat="44.85702" lon="5.42412">
        <ele>1093</ele>
        <time>2020-05-22T09:28:53.854Z</time>
      </trkpt>
      <trkpt lat="44.85703" lon="5.42413">
        <ele>1093</ele>
        <time>2020-05-22T09:28:54.854Z</time>
      </trkpt>
      <trkpt lat="44.85703" lon="5.42416">
        <ele>1092</ele>
        <time>2020-05-22T09:28:55.854Z</time>
      </trkpt>
      <trkpt lat="44.85704" lon="5.42418">
        <ele>1092</ele>
        <time>2020-05-22T09:28:56.855Z</time>
      </trkpt>
      <trkpt lat="44.85705" lon="5.4242">
        <ele>1092</ele>
        <time>2020-05-22T09:28:57.854Z</time>
      </trkpt>
      <trkpt lat="44.85705" lon="5.42422">
        <ele>1093</ele>
        <time>2020-05-22T09:28:58.855Z</time>
      </trkpt>
      <trkpt lat="44.85706" lon="5.42424">
        <ele>1093</ele>
        <time>2020-05-22T09:28:59.854Z</time>
      </trkpt>
      <trkpt lat="44.85706" lon="5.42426">
        <ele>1093</ele>
        <time>2020-05-22T09:29:00.854Z</time>
      </trkpt>
      <trkpt lat="44.85707" lon="5.42428">
        <ele>1093</ele>
        <time>2020-05-22T09:29:01.855Z</time>
      </trkpt>
      <trkpt lat="44.85707" lon="5.4243">
        <ele>1093</ele>
        <time>2020-05-22T09:29:02.855Z</time>
      </trkpt>
      <trkpt lat="44.85708" lon="5.42431">
        <ele>1094</ele>
        <time>2020-05-22T09:29:03.854Z</time>
      </trkpt>
      <trkpt lat="44.85709" lon="5.42433">
        <ele>1094</ele>
        <time>2020-05-22T09:29:04.854Z</time>
      </trkpt>
      <trkpt lat="44.85709" lon="5.42436">
        <ele>1095</ele>
        <time>2020-05-22T09:29:05.854Z</time>
      </trkpt>
      <trkpt lat="44.85709" lon="5.42437">
        <ele>1095</ele>
        <time>2020-05-22T09:29:06.854Z</time>
      </trkpt>
      <trkpt lat="44.8571" lon="5.42439">
        <ele>1095</ele>
        <time>2020-05-22T09:29:07.855Z</time>
      </trkpt>
      <trkpt lat="44.8571" lon="5.42441">
        <ele>1096</ele>
        <time>2020-05-22T09:29:08.855Z</time>
      </trkpt>
      <trkpt lat="44.8571" lon="5.42443">
        <ele>1096</ele>
        <time>2020-05-22T09:29:09.854Z</time>
      </trkpt>
      <trkpt lat="44.85711" lon="5.42445">
        <ele>1096</ele>
        <time>2020-05-22T09:29:10.854Z</time>
      </trkpt>
      <trkpt lat="44.85711" lon="5.42447">
        <ele>1096</ele>
        <time>2020-05-22T09:29:11.854Z</time>
      </trkpt>
      <trkpt lat="44.85712" lon="5.42448">
        <ele>1096</ele>
        <time>2020-05-22T09:29:12.854Z</time>
      </trkpt>
      <trkpt lat="44.85712" lon="5.42451">
        <ele>1096</ele>
        <time>2020-05-22T09:29:13.854Z</time>
      </trkpt>
      <trkpt lat="44.85712" lon="5.42452">
        <ele>1096</ele>
        <time>2020-05-22T09:29:14.855Z</time>
      </trkpt>
      <trkpt lat="44.85712" lon="5.42454">
        <ele>1096</ele>
        <time>2020-05-22T09:29:15.854Z</time>
      </trkpt>
      <trkpt lat="44.85713" lon="5.42456">
        <ele>1096</ele>
        <time>2020-05-22T09:29:16.854Z</time>
      </trkpt>
      <trkpt lat="44.85713" lon="5.42458">
        <ele>1096</ele>
        <time>2020-05-22T09:29:17.854Z</time>
      </trkpt>
      <trkpt lat="44.85714" lon="5.4246">
        <ele>1096</ele>
        <time>2020-05-22T09:29:18.855Z</time>
      </trkpt>
      <trkpt lat="44.85714" lon="5.42461">
        <ele>1096</ele>
        <time>2020-05-22T09:29:19.854Z</time>
      </trkpt>
      <trkpt lat="44.85714" lon="5.42463">
        <ele>1096</ele>
        <time>2020-05-22T09:29:20.855Z</time>
      </trkpt>
      <trkpt lat="44.85715" lon="5.42465">
        <ele>1096</ele>
        <time>2020-05-22T09:29:21.855Z</time>
      </trkpt>
      <trkpt lat="44.85715" lon="5.42467">
        <ele>1096</ele>
        <time>2020-05-22T09:29:22.855Z</time>
      </trkpt>
      <trkpt lat="44.85716" lon="5.42469">
        <ele>1096</ele>
        <time>2020-05-22T09:29:23.854Z</time>
      </trkpt>
      <trkpt lat="44.85716" lon="5.42471">
        <ele>1096</ele>
        <time>2020-05-22T09:29:24.855Z</time>
      </trkpt>
      <trkpt lat="44.85717" lon="5.42472">
        <ele>1096</ele>
        <time>2020-05-22T09:29:25.855Z</time>
      </trkpt>
      <trkpt lat="44.85717" lon="5.42474">
        <ele>1096</ele>
        <time>2020-05-22T09:29:26.854Z</time>
      </trkpt>
      <trkpt lat="44.85718" lon="5.42476">
        <ele>1097</ele>
        <time>2020-05-22T09:29:27.855Z</time>
      </trkpt>
      <trkpt lat="44.85719" lon="5.42478">
        <ele>1097</ele>
        <time>2020-05-22T09:29:28.855Z</time>
      </trkpt>
      <trkpt lat="44.8572" lon="5.4248">
        <ele>1097</ele>
        <time>2020-05-22T09:29:29.855Z</time>
      </trkpt>
      <trkpt lat="44.8572" lon="5.42482">
        <ele>1097</ele>
        <time>2020-05-22T09:29:30.855Z</time>
      </trkpt>
      <trkpt lat="44.85721" lon="5.42483">
        <ele>1097</ele>
        <time>2020-05-22T09:29:31.854Z</time>
      </trkpt>
      <trkpt lat="44.85722" lon="5.42485">
        <ele>1097</ele>
        <time>2020-05-22T09:29:32.855Z</time>
      </trkpt>
      <trkpt lat="44.85723" lon="5.42487">
        <ele>1097</ele>
        <time>2020-05-22T09:29:33.855Z</time>
      </trkpt>
      <trkpt lat="44.85723" lon="5.42489">
        <ele>1097</ele>
        <time>2020-05-22T09:29:34.855Z</time>
      </trkpt>
      <trkpt lat="44.85723" lon="5.42491">
        <ele>1098</ele>
        <time>2020-05-22T09:29:35.855Z</time>
      </trkpt>
      <trkpt lat="44.85723" lon="5.42493">
        <ele>1098</ele>
        <time>2020-05-22T09:29:36.854Z</time>
      </trkpt>
      <trkpt lat="44.85724" lon="5.42494">
        <ele>1098</ele>
        <time>2020-05-22T09:29:37.854Z</time>
      </trkpt>
      <trkpt lat="44.85724" lon="5.42496">
        <ele>1098</ele>
        <time>2020-05-22T09:29:38.855Z</time>
      </trkpt>
      <trkpt lat="44.85724" lon="5.42498">
        <ele>1098</ele>
        <time>2020-05-22T09:29:39.855Z</time>
      </trkpt>
      <trkpt lat="44.85725" lon="5.425">
        <ele>1098</ele>
        <time>2020-05-22T09:29:40.854Z</time>
      </trkpt>
      <trkpt lat="44.85724" lon="5.42502">
        <ele>1098</ele>
        <time>2020-05-22T09:29:41.855Z</time>
      </trkpt>
      <trkpt lat="44.85724" lon="5.42504">
        <ele>1098</ele>
        <time>2020-05-22T09:29:42.855Z</time>
      </trkpt>
      <trkpt lat="44.85725" lon="5.42507">
        <ele>1098</ele>
        <time>2020-05-22T09:29:43.855Z</time>
      </trkpt>
      <trkpt lat="44.85724" lon="5.42509">
        <ele>1098</ele>
        <time>2020-05-22T09:29:44.855Z</time>
      </trkpt>
      <trkpt lat="44.85724" lon="5.42511">
        <ele>1098</ele>
        <time>2020-05-22T09:29:45.855Z</time>
      </trkpt>
      <trkpt lat="44.85725" lon="5.42513">
        <ele>1099</ele>
        <time>2020-05-22T09:29:46.855Z</time>
      </trkpt>
      <trkpt lat="44.85725" lon="5.42515">
        <ele>1099</ele>
        <time>2020-05-22T09:29:47.855Z</time>
      </trkpt>
      <trkpt lat="44.85725" lon="5.42517">
        <ele>1100</ele>
        <time>2020-05-22T09:29:48.854Z</time>
      </trkpt>
      <trkpt lat="44.85725" lon="5.42519">
        <ele>1101</ele>
        <time>2020-05-22T09:29:49.854Z</time>
      </trkpt>
      <trkpt lat="44.85725" lon="5.42522">
        <ele>1101</ele>
        <time>2020-05-22T09:29:50.855Z</time>
      </trkpt>
      <trkpt lat="44.85725" lon="5.42524">
        <ele>1102</ele>
        <time>2020-05-22T09:29:51.855Z</time>
      </trkpt>
      <trkpt lat="44.85725" lon="5.42526">
        <ele>1103</ele>
        <time>2020-05-22T09:29:52.855Z</time>
      </trkpt>
      <trkpt lat="44.85725" lon="5.42529">
        <ele>1103</ele>
        <time>2020-05-22T09:29:53.855Z</time>
      </trkpt>
      <trkpt lat="44.85725" lon="5.42531">
        <ele>1104</ele>
        <time>2020-05-22T09:29:54.855Z</time>
      </trkpt>
      <trkpt lat="44.85725" lon="5.42533">
        <ele>1104</ele>
        <time>2020-05-22T09:29:55.854Z</time>
      </trkpt>
      <trkpt lat="44.85724" lon="5.42534">
        <ele>1105</ele>
        <time>2020-05-22T09:29:56.855Z</time>
      </trkpt>
      <trkpt lat="44.85724" lon="5.42536">
        <ele>1105</ele>
        <time>2020-05-22T09:29:57.855Z</time>
      </trkpt>
      <trkpt lat="44.85724" lon="5.42538">
        <ele>1105</ele>
        <time>2020-05-22T09:29:58.855Z</time>
      </trkpt>
      <trkpt lat="44.85724" lon="5.4254">
        <ele>1105</ele>
        <time>2020-05-22T09:29:59.855Z</time>
      </trkpt>
      <trkpt lat="44.85724" lon="5.42542">
        <ele>1105</ele>
        <time>2020-05-22T09:30:00.855Z</time>
      </trkpt>
      <trkpt lat="44.85725" lon="5.42543">
        <ele>1105</ele>
        <time>2020-05-22T09:30:01.855Z</time>
      </trkpt>
      <trkpt lat="44.85724" lon="5.42545">
        <ele>1105</ele>
        <time>2020-05-22T09:30:02.855Z</time>
      </trkpt>
      <trkpt lat="44.85724" lon="5.42547">
        <ele>1105</ele>
        <time>2020-05-22T09:30:03.854Z</time>
      </trkpt>
      <trkpt lat="44.85724" lon="5.42549">
        <ele>1105</ele>
        <time>2020-05-22T09:30:04.855Z</time>
      </trkpt>
      <trkpt lat="44.85723" lon="5.42551">
        <ele>1105</ele>
        <time>2020-05-22T09:30:05.854Z</time>
      </trkpt>
      <trkpt lat="44.85723" lon="5.42553">
        <ele>1105</ele>
        <time>2020-05-22T09:30:06.855Z</time>
      </trkpt>
      <trkpt lat="44.85722" lon="5.42556">
        <ele>1105</ele>
        <time>2020-05-22T09:30:07.855Z</time>
      </trkpt>
      <trkpt lat="44.85721" lon="5.42559">
        <ele>1105</ele>
        <time>2020-05-22T09:30:08.855Z</time>
      </trkpt>
      <trkpt lat="44.85722" lon="5.42562">
        <ele>1105</ele>
        <time>2020-05-22T09:30:09.855Z</time>
      </trkpt>
      <trkpt lat="44.85722" lon="5.42564">
        <ele>1105</ele>
        <time>2020-05-22T09:30:10.854Z</time>
      </trkpt>
      <trkpt lat="44.85722" lon="5.42566">
        <ele>1105</ele>
        <time>2020-05-22T09:30:11.855Z</time>
      </trkpt>
      <trkpt lat="44.85723" lon="5.42569">
        <ele>1105</ele>
        <time>2020-05-22T09:30:12.855Z</time>
      </trkpt>
      <trkpt lat="44.85723" lon="5.42571">
        <ele>1105</ele>
        <time>2020-05-22T09:30:13.855Z</time>
      </trkpt>
      <trkpt lat="44.85723" lon="5.42573">
        <ele>1105</ele>
        <time>2020-05-22T09:30:14.854Z</time>
      </trkpt>
      <trkpt lat="44.85723" lon="5.42575">
        <ele>1105</ele>
        <time>2020-05-22T09:30:15.854Z</time>
      </trkpt>
      <trkpt lat="44.85722" lon="5.42577">
        <ele>1106</ele>
        <time>2020-05-22T09:30:16.855Z</time>
      </trkpt>
      <trkpt lat="44.85722" lon="5.42579">
        <ele>1106</ele>
        <time>2020-05-22T09:30:17.855Z</time>
      </trkpt>
      <trkpt lat="44.85722" lon="5.42581">
        <ele>1106</ele>
        <time>2020-05-22T09:30:18.854Z</time>
      </trkpt>
      <trkpt lat="44.85722" lon="5.42583">
        <ele>1106</ele>
        <time>2020-05-22T09:30:19.855Z</time>
      </trkpt>
      <trkpt lat="44.85722" lon="5.42585">
        <ele>1106</ele>
        <time>2020-05-22T09:30:20.855Z</time>
      </trkpt>
      <trkpt lat="44.85722" lon="5.42587">
        <ele>1106</ele>
        <time>2020-05-22T09:30:21.855Z</time>
      </trkpt>
      <trkpt lat="44.85722" lon="5.42589">
        <ele>1107</ele>
        <time>2020-05-22T09:30:22.854Z</time>
      </trkpt>
      <trkpt lat="44.85721" lon="5.42591">
        <ele>1107</ele>
        <time>2020-05-22T09:30:23.855Z</time>
      </trkpt>
      <trkpt lat="44.85722" lon="5.42594">
        <ele>1107</ele>
        <time>2020-05-22T09:30:24.854Z</time>
      </trkpt>
      <trkpt lat="44.85722" lon="5.42596">
        <ele>1107</ele>
        <time>2020-05-22T09:30:25.855Z</time>
      </trkpt>
      <trkpt lat="44.85722" lon="5.42598">
        <ele>1108</ele>
        <time>2020-05-22T09:30:26.855Z</time>
      </trkpt>
      <trkpt lat="44.85722" lon="5.42601">
        <ele>1108</ele>
        <time>2020-05-22T09:30:27.854Z</time>
      </trkpt>
      <trkpt lat="44.85723" lon="5.42602">
        <ele>1108</ele>
        <time>2020-05-22T09:30:28.855Z</time>
      </trkpt>
      <trkpt lat="44.85723" lon="5.42604">
        <ele>1108</ele>
        <time>2020-05-22T09:30:29.855Z</time>
      </trkpt>
      <trkpt lat="44.85723" lon="5.42605">
        <ele>1108</ele>
        <time>2020-05-22T09:30:30.855Z</time>
      </trkpt>
      <trkpt lat="44.85723" lon="5.42607">
        <ele>1108</ele>
        <time>2020-05-22T09:30:31.855Z</time>
      </trkpt>
      <trkpt lat="44.85722" lon="5.4261">
        <ele>1108</ele>
        <time>2020-05-22T09:30:32.855Z</time>
      </trkpt>
      <trkpt lat="44.85722" lon="5.42612">
        <ele>1109</ele>
        <time>2020-05-22T09:30:33.855Z</time>
      </trkpt>
      <trkpt lat="44.85722" lon="5.42614">
        <ele>1109</ele>
        <time>2020-05-22T09:30:34.855Z</time>
      </trkpt>
      <trkpt lat="44.85722" lon="5.42616">
        <ele>1109</ele>
        <time>2020-05-22T09:30:35.854Z</time>
      </trkpt>
      <trkpt lat="44.85722" lon="5.42618">
        <ele>1109</ele>
        <time>2020-05-22T09:30:36.855Z</time>
      </trkpt>
      <trkpt lat="44.85722" lon="5.42619">
        <ele>1109</ele>
        <time>2020-05-22T09:30:37.855Z</time>
      </trkpt>
      <trkpt lat="44.85722" lon="5.42621">
        <ele>1109</ele>
        <time>2020-05-22T09:30:38.855Z</time>
      </trkpt>
      <trkpt lat="44.85722" lon="5.42623">
        <ele>1109</ele>
        <time>2020-05-22T09:30:39.855Z</time>
      </trkpt>
      <trkpt lat="44.85722" lon="5.42626">
        <ele>1110</ele>
        <time>2020-05-22T09:30:40.855Z</time>
      </trkpt>
      <trkpt lat="44.85721" lon="5.42628">
        <ele>1110</ele>
        <time>2020-05-22T09:30:41.855Z</time>
      </trkpt>
      <trkpt lat="44.85721" lon="5.42629">
        <ele>1110</ele>
        <time>2020-05-22T09:30:42.855Z</time>
      </trkpt>
      <trkpt lat="44.85721" lon="5.42632">
        <ele>1110</ele>
        <time>2020-05-22T09:30:43.855Z</time>
      </trkpt>
      <trkpt lat="44.8572" lon="5.42634">
        <ele>1110</ele>
        <time>2020-05-22T09:30:44.854Z</time>
      </trkpt>
      <trkpt lat="44.8572" lon="5.42636">
        <ele>1111</ele>
        <time>2020-05-22T09:30:45.855Z</time>
      </trkpt>
      <trkpt lat="44.8572" lon="5.42638">
        <ele>1111</ele>
        <time>2020-05-22T09:30:46.855Z</time>
      </trkpt>
      <trkpt lat="44.85719" lon="5.42639">
        <ele>1111</ele>
        <time>2020-05-22T09:30:47.855Z</time>
      </trkpt>
      <trkpt lat="44.85719" lon="5.42641">
        <ele>1111</ele>
        <time>2020-05-22T09:30:48.855Z</time>
      </trkpt>
      <trkpt lat="44.85719" lon="5.42643">
        <ele>1111</ele>
        <time>2020-05-22T09:30:49.854Z</time>
      </trkpt>
      <trkpt lat="44.85718" lon="5.42645">
        <ele>1111</ele>
        <time>2020-05-22T09:30:50.855Z</time>
      </trkpt>
      <trkpt lat="44.85718" lon="5.42647">
        <ele>1112</ele>
        <time>2020-05-22T09:30:51.855Z</time>
      </trkpt>
      <trkpt lat="44.85718" lon="5.42649">
        <ele>1112</ele>
        <time>2020-05-22T09:30:52.854Z</time>
      </trkpt>
      <trkpt lat="44.85718" lon="5.42651">
        <ele>1112</ele>
        <time>2020-05-22T09:30:53.855Z</time>
      </trkpt>
      <trkpt lat="44.85719" lon="5.42651">
        <ele>1112</ele>
        <time>2020-05-22T09:30:54.855Z</time>
      </trkpt>
      <trkpt lat="44.85719" lon="5.42653">
        <ele>1111</ele>
        <time>2020-05-22T09:30:55.855Z</time>
      </trkpt>
      <trkpt lat="44.85719" lon="5.42655">
        <ele>1111</ele>
        <time>2020-05-22T09:30:56.854Z</time>
      </trkpt>
      <trkpt lat="44.85718" lon="5.42657">
        <ele>1111</ele>
        <time>2020-05-22T09:30:57.855Z</time>
      </trkpt>
      <trkpt lat="44.85717" lon="5.42659">
        <ele>1111</ele>
        <time>2020-05-22T09:30:58.855Z</time>
      </trkpt>
      <trkpt lat="44.85716" lon="5.42662">
        <ele>1111</ele>
        <time>2020-05-22T09:30:59.854Z</time>
      </trkpt>
      <trkpt lat="44.85716" lon="5.42664">
        <ele>1111</ele>
        <time>2020-05-22T09:31:00.855Z</time>
      </trkpt>
      <trkpt lat="44.85715" lon="5.42665">
        <ele>1111</ele>
        <time>2020-05-22T09:31:01.854Z</time>
      </trkpt>
      <trkpt lat="44.85715" lon="5.42667">
        <ele>1111</ele>
        <time>2020-05-22T09:31:02.855Z</time>
      </trkpt>
      <trkpt lat="44.85714" lon="5.42669">
        <ele>1112</ele>
        <time>2020-05-22T09:31:03.855Z</time>
      </trkpt>
      <trkpt lat="44.85713" lon="5.42671">
        <ele>1112</ele>
        <time>2020-05-22T09:31:04.855Z</time>
      </trkpt>
      <trkpt lat="44.85713" lon="5.42672">
        <ele>1113</ele>
        <time>2020-05-22T09:31:05.855Z</time>
      </trkpt>
      <trkpt lat="44.85713" lon="5.42674">
        <ele>1113</ele>
        <time>2020-05-22T09:31:06.854Z</time>
      </trkpt>
      <trkpt lat="44.85712" lon="5.42676">
        <ele>1114</ele>
        <time>2020-05-22T09:31:07.855Z</time>
      </trkpt>
      <trkpt lat="44.85711" lon="5.42679">
        <ele>1114</ele>
        <time>2020-05-22T09:31:08.855Z</time>
      </trkpt>
      <trkpt lat="44.8571" lon="5.42681">
        <ele>1115</ele>
        <time>2020-05-22T09:31:09.855Z</time>
      </trkpt>
      <trkpt lat="44.85709" lon="5.42684">
        <ele>1116</ele>
        <time>2020-05-22T09:31:10.855Z</time>
      </trkpt>
      <trkpt lat="44.85709" lon="5.42686">
        <ele>1116</ele>
        <time>2020-05-22T09:31:11.854Z</time>
      </trkpt>
      <trkpt lat="44.85708" lon="5.42688">
        <ele>1117</ele>
        <time>2020-05-22T09:31:12.854Z</time>
      </trkpt>
      <trkpt lat="44.85708" lon="5.42689">
        <ele>1117</ele>
        <time>2020-05-22T09:31:13.854Z</time>
      </trkpt>
      <trkpt lat="44.85708" lon="5.42691">
        <ele>1118</ele>
        <time>2020-05-22T09:31:14.854Z</time>
      </trkpt>
      <trkpt lat="44.85707" lon="5.42692">
        <ele>1118</ele>
        <time>2020-05-22T09:31:15.854Z</time>
      </trkpt>
      <trkpt lat="44.85707" lon="5.42693">
        <ele>1118</ele>
        <time>2020-05-22T09:31:16.854Z</time>
      </trkpt>
      <trkpt lat="44.85706" lon="5.42695">
        <ele>1119</ele>
        <time>2020-05-22T09:31:17.855Z</time>
      </trkpt>
      <trkpt lat="44.85705" lon="5.42697">
        <ele>1119</ele>
        <time>2020-05-22T09:31:18.855Z</time>
      </trkpt>
      <trkpt lat="44.85704" lon="5.42699">
        <ele>1119</ele>
        <time>2020-05-22T09:31:19.855Z</time>
      </trkpt>
      <trkpt lat="44.85703" lon="5.42701">
        <ele>1119</ele>
        <time>2020-05-22T09:31:20.854Z</time>
      </trkpt>
      <trkpt lat="44.85703" lon="5.42703">
        <ele>1119</ele>
        <time>2020-05-22T09:31:21.855Z</time>
      </trkpt>
      <trkpt lat="44.85703" lon="5.42705">
        <ele>1119</ele>
        <time>2020-05-22T09:31:22.855Z</time>
      </trkpt>
      <trkpt lat="44.85702" lon="5.42708">
        <ele>1120</ele>
        <time>2020-05-22T09:31:23.855Z</time>
      </trkpt>
      <trkpt lat="44.85702" lon="5.42711">
        <ele>1120</ele>
        <time>2020-05-22T09:31:24.855Z</time>
      </trkpt>
      <trkpt lat="44.85701" lon="5.42713">
        <ele>1120</ele>
        <time>2020-05-22T09:31:25.855Z</time>
      </trkpt>
      <trkpt lat="44.857" lon="5.42715">
        <ele>1121</ele>
        <time>2020-05-22T09:31:26.855Z</time>
      </trkpt>
      <trkpt lat="44.85699" lon="5.42716">
        <ele>1121</ele>
        <time>2020-05-22T09:31:27.854Z</time>
      </trkpt>
      <trkpt lat="44.85698" lon="5.42718">
        <ele>1122</ele>
        <time>2020-05-22T09:31:28.854Z</time>
      </trkpt>
      <trkpt lat="44.85698" lon="5.4272">
        <ele>1122</ele>
        <time>2020-05-22T09:31:29.855Z</time>
      </trkpt>
      <trkpt lat="44.85697" lon="5.42722">
        <ele>1123</ele>
        <time>2020-05-22T09:31:30.855Z</time>
      </trkpt>
      <trkpt lat="44.85696" lon="5.42723">
        <ele>1123</ele>
        <time>2020-05-22T09:31:31.855Z</time>
      </trkpt>
      <trkpt lat="44.85695" lon="5.42725">
        <ele>1124</ele>
        <time>2020-05-22T09:31:32.854Z</time>
      </trkpt>
      <trkpt lat="44.85694" lon="5.42726">
        <ele>1124</ele>
        <time>2020-05-22T09:31:33.855Z</time>
      </trkpt>
      <trkpt lat="44.85693" lon="5.42727">
        <ele>1124</ele>
        <time>2020-05-22T09:31:34.854Z</time>
      </trkpt>
      <trkpt lat="44.85693" lon="5.42728">
        <ele>1125</ele>
        <time>2020-05-22T09:31:35.854Z</time>
      </trkpt>
      <trkpt lat="44.85692" lon="5.4273">
        <ele>1125</ele>
        <time>2020-05-22T09:31:36.855Z</time>
      </trkpt>
      <trkpt lat="44.85691" lon="5.42732">
        <ele>1125</ele>
        <time>2020-05-22T09:31:37.855Z</time>
      </trkpt>
      <trkpt lat="44.8569" lon="5.42734">
        <ele>1125</ele>
        <time>2020-05-22T09:31:38.855Z</time>
      </trkpt>
      <trkpt lat="44.85689" lon="5.42736">
        <ele>1125</ele>
        <time>2020-05-22T09:31:39.854Z</time>
      </trkpt>
      <trkpt lat="44.85688" lon="5.42738">
        <ele>1125</ele>
        <time>2020-05-22T09:31:40.855Z</time>
      </trkpt>
      <trkpt lat="44.85687" lon="5.42742">
        <ele>1126</ele>
        <time>2020-05-22T09:31:41.855Z</time>
      </trkpt>
      <trkpt lat="44.85687" lon="5.42744">
        <ele>1126</ele>
        <time>2020-05-22T09:31:42.855Z</time>
      </trkpt>
      <trkpt lat="44.85686" lon="5.42745">
        <ele>1125</ele>
        <time>2020-05-22T09:31:43.854Z</time>
      </trkpt>
      <trkpt lat="44.85685" lon="5.42747">
        <ele>1125</ele>
        <time>2020-05-22T09:31:44.854Z</time>
      </trkpt>
      <trkpt lat="44.85685" lon="5.42747">
        <ele>1125</ele>
        <time>2020-05-22T09:31:45.855Z</time>
      </trkpt>
      <trkpt lat="44.85685" lon="5.42749">
        <ele>1125</ele>
        <time>2020-05-22T09:31:46.855Z</time>
      </trkpt>
      <trkpt lat="44.85684" lon="5.4275">
        <ele>1125</ele>
        <time>2020-05-22T09:31:47.855Z</time>
      </trkpt>
      <trkpt lat="44.85683" lon="5.42752">
        <ele>1125</ele>
        <time>2020-05-22T09:31:48.854Z</time>
      </trkpt>
      <trkpt lat="44.85682" lon="5.42753">
        <ele>1124</ele>
        <time>2020-05-22T09:31:49.855Z</time>
      </trkpt>
      <trkpt lat="44.85682" lon="5.42755">
        <ele>1124</ele>
        <time>2020-05-22T09:31:50.855Z</time>
      </trkpt>
      <trkpt lat="44.85681" lon="5.42756">
        <ele>1124</ele>
        <time>2020-05-22T09:31:51.854Z</time>
      </trkpt>
      <trkpt lat="44.8568" lon="5.42757">
        <ele>1124</ele>
        <time>2020-05-22T09:31:52.855Z</time>
      </trkpt>
      <trkpt lat="44.8568" lon="5.42758">
        <ele>1124</ele>
        <time>2020-05-22T09:31:53.854Z</time>
      </trkpt>
      <trkpt lat="44.8568" lon="5.4276">
        <ele>1123</ele>
        <time>2020-05-22T09:31:54.855Z</time>
      </trkpt>
      <trkpt lat="44.85679" lon="5.42762">
        <ele>1123</ele>
        <time>2020-05-22T09:31:55.855Z</time>
      </trkpt>
      <trkpt lat="44.85678" lon="5.42764">
        <ele>1123</ele>
        <time>2020-05-22T09:31:56.854Z</time>
      </trkpt>
      <trkpt lat="44.85678" lon="5.42766">
        <ele>1123</ele>
        <time>2020-05-22T09:31:57.854Z</time>
      </trkpt>
      <trkpt lat="44.85678" lon="5.42768">
        <ele>1123</ele>
        <time>2020-05-22T09:31:58.855Z</time>
      </trkpt>
      <trkpt lat="44.85679" lon="5.42768">
        <ele>1123</ele>
        <time>2020-05-22T09:31:59.854Z</time>
      </trkpt>
      <trkpt lat="44.85679" lon="5.42769">
        <ele>1123</ele>
        <time>2020-05-22T09:32:00.855Z</time>
      </trkpt>
      <trkpt lat="44.85678" lon="5.42771">
        <ele>1123</ele>
        <time>2020-05-22T09:32:01.854Z</time>
      </trkpt>
      <trkpt lat="44.85678" lon="5.42772">
        <ele>1123</ele>
        <time>2020-05-22T09:32:02.854Z</time>
      </trkpt>
      <trkpt lat="44.85677" lon="5.42773">
        <ele>1122</ele>
        <time>2020-05-22T09:32:03.855Z</time>
      </trkpt>
      <trkpt lat="44.85676" lon="5.42775">
        <ele>1122</ele>
        <time>2020-05-22T09:32:04.855Z</time>
      </trkpt>
      <trkpt lat="44.85675" lon="5.42777">
        <ele>1122</ele>
        <time>2020-05-22T09:32:05.855Z</time>
      </trkpt>
      <trkpt lat="44.85674" lon="5.42779">
        <ele>1122</ele>
        <time>2020-05-22T09:32:06.855Z</time>
      </trkpt>
      <trkpt lat="44.85673" lon="5.42782">
        <ele>1122</ele>
        <time>2020-05-22T09:32:07.854Z</time>
      </trkpt>
      <trkpt lat="44.85672" lon="5.42784">
        <ele>1122</ele>
        <time>2020-05-22T09:32:08.855Z</time>
      </trkpt>
      <trkpt lat="44.85671" lon="5.42785">
        <ele>1122</ele>
        <time>2020-05-22T09:32:09.855Z</time>
      </trkpt>
      <trkpt lat="44.85669" lon="5.42787">
        <ele>1123</ele>
        <time>2020-05-22T09:32:10.855Z</time>
      </trkpt>
      <trkpt lat="44.85668" lon="5.42789">
        <ele>1123</ele>
        <time>2020-05-22T09:32:11.854Z</time>
      </trkpt>
      <trkpt lat="44.85668" lon="5.42791">
        <ele>1123</ele>
        <time>2020-05-22T09:32:12.855Z</time>
      </trkpt>
      <trkpt lat="44.85668" lon="5.42792">
        <ele>1124</ele>
        <time>2020-05-22T09:32:13.855Z</time>
      </trkpt>
      <trkpt lat="44.85668" lon="5.42793">
        <ele>1124</ele>
        <time>2020-05-22T09:32:14.855Z</time>
      </trkpt>
      <trkpt lat="44.85667" lon="5.42795">
        <ele>1124</ele>
        <time>2020-05-22T09:32:15.855Z</time>
      </trkpt>
      <trkpt lat="44.85666" lon="5.42796">
        <ele>1124</ele>
        <time>2020-05-22T09:32:16.855Z</time>
      </trkpt>
      <trkpt lat="44.85665" lon="5.42798">
        <ele>1125</ele>
        <time>2020-05-22T09:32:17.854Z</time>
      </trkpt>
      <trkpt lat="44.85665" lon="5.428">
        <ele>1125</ele>
        <time>2020-05-22T09:32:18.855Z</time>
      </trkpt>
      <trkpt lat="44.85664" lon="5.42802">
        <ele>1126</ele>
        <time>2020-05-22T09:32:19.855Z</time>
      </trkpt>
      <trkpt lat="44.85664" lon="5.42804">
        <ele>1126</ele>
        <time>2020-05-22T09:32:20.855Z</time>
      </trkpt>
      <trkpt lat="44.85663" lon="5.42807">
        <ele>1126</ele>
        <time>2020-05-22T09:32:21.854Z</time>
      </trkpt>
      <trkpt lat="44.85662" lon="5.42809">
        <ele>1127</ele>
        <time>2020-05-22T09:32:22.854Z</time>
      </trkpt>
      <trkpt lat="44.85661" lon="5.42812">
        <ele>1127</ele>
        <time>2020-05-22T09:32:23.855Z</time>
      </trkpt>
      <trkpt lat="44.8566" lon="5.42814">
        <ele>1128</ele>
        <time>2020-05-22T09:32:24.854Z</time>
      </trkpt>
      <trkpt lat="44.85659" lon="5.42815">
        <ele>1128</ele>
        <time>2020-05-22T09:32:25.854Z</time>
      </trkpt>
      <trkpt lat="44.85658" lon="5.42817">
        <ele>1128</ele>
        <time>2020-05-22T09:32:26.855Z</time>
      </trkpt>
      <trkpt lat="44.85658" lon="5.4282">
        <ele>1128</ele>
        <time>2020-05-22T09:32:27.855Z</time>
      </trkpt>
      <trkpt lat="44.85657" lon="5.42821">
        <ele>1128</ele>
        <time>2020-05-22T09:32:28.855Z</time>
      </trkpt>
      <trkpt lat="44.85656" lon="5.42823">
        <ele>1129</ele>
        <time>2020-05-22T09:32:29.854Z</time>
      </trkpt>
      <trkpt lat="44.85656" lon="5.42825">
        <ele>1129</ele>
        <time>2020-05-22T09:32:30.855Z</time>
      </trkpt>
      <trkpt lat="44.85655" lon="5.42827">
        <ele>1130</ele>
        <time>2020-05-22T09:32:31.854Z</time>
      </trkpt>
      <trkpt lat="44.85655" lon="5.42829">
        <ele>1130</ele>
        <time>2020-05-22T09:32:32.855Z</time>
      </trkpt>
      <trkpt lat="44.85654" lon="5.4283">
        <ele>1130</ele>
        <time>2020-05-22T09:32:33.855Z</time>
      </trkpt>
      <trkpt lat="44.85653" lon="5.42832">
        <ele>1130</ele>
        <time>2020-05-22T09:32:34.855Z</time>
      </trkpt>
      <trkpt lat="44.85652" lon="5.42833">
        <ele>1129</ele>
        <time>2020-05-22T09:32:35.855Z</time>
      </trkpt>
      <trkpt lat="44.85651" lon="5.42835">
        <ele>1129</ele>
        <time>2020-05-22T09:32:36.855Z</time>
      </trkpt>
      <trkpt lat="44.8565" lon="5.42837">
        <ele>1129</ele>
        <time>2020-05-22T09:32:37.855Z</time>
      </trkpt>
      <trkpt lat="44.8565" lon="5.42838">
        <ele>1129</ele>
        <time>2020-05-22T09:32:38.855Z</time>
      </trkpt>
      <trkpt lat="44.85649" lon="5.4284">
        <ele>1128</ele>
        <time>2020-05-22T09:32:39.854Z</time>
      </trkpt>
      <trkpt lat="44.85649" lon="5.42842">
        <ele>1128</ele>
        <time>2020-05-22T09:32:40.854Z</time>
      </trkpt>
      <trkpt lat="44.85648" lon="5.42843">
        <ele>1128</ele>
        <time>2020-05-22T09:32:41.855Z</time>
      </trkpt>
      <trkpt lat="44.85647" lon="5.42844">
        <ele>1128</ele>
        <time>2020-05-22T09:32:42.854Z</time>
      </trkpt>
      <trkpt lat="44.85646" lon="5.42846">
        <ele>1128</ele>
        <time>2020-05-22T09:32:43.854Z</time>
      </trkpt>
      <trkpt lat="44.85645" lon="5.42847">
        <ele>1128</ele>
        <time>2020-05-22T09:32:44.855Z</time>
      </trkpt>
      <trkpt lat="44.85644" lon="5.42849">
        <ele>1128</ele>
        <time>2020-05-22T09:32:45.854Z</time>
      </trkpt>
      <trkpt lat="44.85643" lon="5.42851">
        <ele>1129</ele>
        <time>2020-05-22T09:32:46.855Z</time>
      </trkpt>
      <trkpt lat="44.85643" lon="5.42853">
        <ele>1129</ele>
        <time>2020-05-22T09:32:47.855Z</time>
      </trkpt>
      <trkpt lat="44.85643" lon="5.42854">
        <ele>1130</ele>
        <time>2020-05-22T09:32:48.855Z</time>
      </trkpt>
      <trkpt lat="44.85642" lon="5.42856">
        <ele>1130</ele>
        <time>2020-05-22T09:32:49.855Z</time>
      </trkpt>
      <trkpt lat="44.85642" lon="5.42859">
        <ele>1130</ele>
        <time>2020-05-22T09:32:50.855Z</time>
      </trkpt>
      <trkpt lat="44.85642" lon="5.42861">
        <ele>1130</ele>
        <time>2020-05-22T09:32:51.854Z</time>
      </trkpt>
      <trkpt lat="44.85641" lon="5.42865">
        <ele>1131</ele>
        <time>2020-05-22T09:32:52.855Z</time>
      </trkpt>
      <trkpt lat="44.8564" lon="5.42868">
        <ele>1131</ele>
        <time>2020-05-22T09:32:53.855Z</time>
      </trkpt>
      <trkpt lat="44.85639" lon="5.42872">
        <ele>1132</ele>
        <time>2020-05-22T09:32:54.855Z</time>
      </trkpt>
      <trkpt lat="44.85639" lon="5.42874">
        <ele>1133</ele>
        <time>2020-05-22T09:32:55.855Z</time>
      </trkpt>
      <trkpt lat="44.85639" lon="5.42876">
        <ele>1133</ele>
        <time>2020-05-22T09:32:56.855Z</time>
      </trkpt>
      <trkpt lat="44.85639" lon="5.42878">
        <ele>1133</ele>
        <time>2020-05-22T09:32:57.855Z</time>
      </trkpt>
      <trkpt lat="44.85638" lon="5.4288">
        <ele>1133</ele>
        <time>2020-05-22T09:32:58.855Z</time>
      </trkpt>
      <trkpt lat="44.85638" lon="5.42882">
        <ele>1134</ele>
        <time>2020-05-22T09:32:59.855Z</time>
      </trkpt>
      <trkpt lat="44.85637" lon="5.42883">
        <ele>1134</ele>
        <time>2020-05-22T09:33:00.855Z</time>
      </trkpt>
      <trkpt lat="44.85635" lon="5.42885">
        <ele>1135</ele>
        <time>2020-05-22T09:33:01.855Z</time>
      </trkpt>
      <trkpt lat="44.85634" lon="5.42887">
        <ele>1135</ele>
        <time>2020-05-22T09:33:02.855Z</time>
      </trkpt>
      <trkpt lat="44.85634" lon="5.42889">
        <ele>1135</ele>
        <time>2020-05-22T09:33:03.855Z</time>
      </trkpt>
      <trkpt lat="44.85633" lon="5.42891">
        <ele>1135</ele>
        <time>2020-05-22T09:33:04.855Z</time>
      </trkpt>
      <trkpt lat="44.85633" lon="5.42893">
        <ele>1135</ele>
        <time>2020-05-22T09:33:05.855Z</time>
      </trkpt>
      <trkpt lat="44.85633" lon="5.42894">
        <ele>1135</ele>
        <time>2020-05-22T09:33:06.855Z</time>
      </trkpt>
      <trkpt lat="44.85633" lon="5.42896">
        <ele>1135</ele>
        <time>2020-05-22T09:33:07.855Z</time>
      </trkpt>
      <trkpt lat="44.85632" lon="5.42898">
        <ele>1135</ele>
        <time>2020-05-22T09:33:08.855Z</time>
      </trkpt>
      <trkpt lat="44.85632" lon="5.429">
        <ele>1135</ele>
        <time>2020-05-22T09:33:09.855Z</time>
      </trkpt>
      <trkpt lat="44.85632" lon="5.42903">
        <ele>1135</ele>
        <time>2020-05-22T09:33:10.855Z</time>
      </trkpt>
      <trkpt lat="44.85632" lon="5.42905">
        <ele>1135</ele>
        <time>2020-05-22T09:33:11.855Z</time>
      </trkpt>
      <trkpt lat="44.85632" lon="5.42906">
        <ele>1136</ele>
        <time>2020-05-22T09:33:12.855Z</time>
      </trkpt>
      <trkpt lat="44.85632" lon="5.42908">
        <ele>1136</ele>
        <time>2020-05-22T09:33:13.855Z</time>
      </trkpt>
      <trkpt lat="44.85631" lon="5.4291">
        <ele>1136</ele>
        <time>2020-05-22T09:33:14.855Z</time>
      </trkpt>
      <trkpt lat="44.85631" lon="5.42912">
        <ele>1136</ele>
        <time>2020-05-22T09:33:15.855Z</time>
      </trkpt>
      <trkpt lat="44.8563" lon="5.42914">
        <ele>1136</ele>
        <time>2020-05-22T09:33:16.855Z</time>
      </trkpt>
      <trkpt lat="44.85629" lon="5.42915">
        <ele>1136</ele>
        <time>2020-05-22T09:33:17.854Z</time>
      </trkpt>
      <trkpt lat="44.85629" lon="5.42917">
        <ele>1136</ele>
        <time>2020-05-22T09:33:18.855Z</time>
      </trkpt>
      <trkpt lat="44.85628" lon="5.42918">
        <ele>1136</ele>
        <time>2020-05-22T09:33:19.855Z</time>
      </trkpt>
      <trkpt lat="44.85628" lon="5.4292">
        <ele>1136</ele>
        <time>2020-05-22T09:33:20.855Z</time>
      </trkpt>
      <trkpt lat="44.85628" lon="5.42922">
        <ele>1136</ele>
        <time>2020-05-22T09:33:21.855Z</time>
      </trkpt>
      <trkpt lat="44.85627" lon="5.42923">
        <ele>1136</ele>
        <time>2020-05-22T09:33:22.855Z</time>
      </trkpt>
      <trkpt lat="44.85626" lon="5.42925">
        <ele>1136</ele>
        <time>2020-05-22T09:33:23.855Z</time>
      </trkpt>
      <trkpt lat="44.85625" lon="5.42926">
        <ele>1136</ele>
        <time>2020-05-22T09:33:24.854Z</time>
      </trkpt>
      <trkpt lat="44.85625" lon="5.42928">
        <ele>1136</ele>
        <time>2020-05-22T09:33:25.855Z</time>
      </trkpt>
      <trkpt lat="44.85624" lon="5.4293">
        <ele>1136</ele>
        <time>2020-05-22T09:33:26.854Z</time>
      </trkpt>
      <trkpt lat="44.85624" lon="5.42931">
        <ele>1136</ele>
        <time>2020-05-22T09:33:27.854Z</time>
      </trkpt>
      <trkpt lat="44.85623" lon="5.42933">
        <ele>1136</ele>
        <time>2020-05-22T09:33:28.854Z</time>
      </trkpt>
      <trkpt lat="44.85622" lon="5.42936">
        <ele>1136</ele>
        <time>2020-05-22T09:33:29.854Z</time>
      </trkpt>
      <trkpt lat="44.85621" lon="5.42938">
        <ele>1136</ele>
        <time>2020-05-22T09:33:30.855Z</time>
      </trkpt>
      <trkpt lat="44.85621" lon="5.4294">
        <ele>1137</ele>
        <time>2020-05-22T09:33:31.854Z</time>
      </trkpt>
      <trkpt lat="44.8562" lon="5.42942">
        <ele>1137</ele>
        <time>2020-05-22T09:33:32.855Z</time>
      </trkpt>
      <trkpt lat="44.85619" lon="5.42944">
        <ele>1137</ele>
        <time>2020-05-22T09:33:33.854Z</time>
      </trkpt>
      <trkpt lat="44.85618" lon="5.42945">
        <ele>1138</ele>
        <time>2020-05-22T09:33:34.855Z</time>
      </trkpt>
      <trkpt lat="44.85617" lon="5.42947">
        <ele>1138</ele>
        <time>2020-05-22T09:33:35.855Z</time>
      </trkpt>
      <trkpt lat="44.85616" lon="5.42948">
        <ele>1139</ele>
        <time>2020-05-22T09:33:36.855Z</time>
      </trkpt>
      <trkpt lat="44.85615" lon="5.42951">
        <ele>1139</ele>
        <time>2020-05-22T09:33:37.854Z</time>
      </trkpt>
      <trkpt lat="44.85614" lon="5.42953">
        <ele>1140</ele>
        <time>2020-05-22T09:33:38.855Z</time>
      </trkpt>
      <trkpt lat="44.85613" lon="5.42954">
        <ele>1140</ele>
        <time>2020-05-22T09:33:39.855Z</time>
      </trkpt>
      <trkpt lat="44.85612" lon="5.42956">
        <ele>1141</ele>
        <time>2020-05-22T09:33:40.855Z</time>
      </trkpt>
      <trkpt lat="44.85611" lon="5.42956">
        <ele>1141</ele>
        <time>2020-05-22T09:33:41.855Z</time>
      </trkpt>
      <trkpt lat="44.85611" lon="5.42957">
        <ele>1142</ele>
        <time>2020-05-22T09:33:42.854Z</time>
      </trkpt>
      <trkpt lat="44.8561" lon="5.42959">
        <ele>1142</ele>
        <time>2020-05-22T09:33:43.855Z</time>
      </trkpt>
      <trkpt lat="44.85609" lon="5.42959">
        <ele>1141</ele>
        <time>2020-05-22T09:33:44.855Z</time>
      </trkpt>
      <trkpt lat="44.85608" lon="5.4296">
        <ele>1141</ele>
        <time>2020-05-22T09:33:45.855Z</time>
      </trkpt>
      <trkpt lat="44.85607" lon="5.42962">
        <ele>1141</ele>
        <time>2020-05-22T09:33:46.855Z</time>
      </trkpt>
      <trkpt lat="44.85606" lon="5.42963">
        <ele>1141</ele>
        <time>2020-05-22T09:33:47.855Z</time>
      </trkpt>
      <trkpt lat="44.85605" lon="5.42964">
        <ele>1141</ele>
        <time>2020-05-22T09:33:48.855Z</time>
      </trkpt>
      <trkpt lat="44.85605" lon="5.42965">
        <ele>1141</ele>
        <time>2020-05-22T09:33:49.855Z</time>
      </trkpt>
      <trkpt lat="44.85604" lon="5.42966">
        <ele>1141</ele>
        <time>2020-05-22T09:33:50.855Z</time>
      </trkpt>
      <trkpt lat="44.85603" lon="5.42967">
        <ele>1142</ele>
        <time>2020-05-22T09:33:51.855Z</time>
      </trkpt>
      <trkpt lat="44.85603" lon="5.42968">
        <ele>1142</ele>
        <time>2020-05-22T09:33:52.855Z</time>
      </trkpt>
      <trkpt lat="44.85601" lon="5.42969">
        <ele>1141</ele>
        <time>2020-05-22T09:33:53.855Z</time>
      </trkpt>
      <trkpt lat="44.856" lon="5.4297">
        <ele>1141</ele>
        <time>2020-05-22T09:33:54.854Z</time>
      </trkpt>
      <trkpt lat="44.85599" lon="5.42971">
        <ele>1141</ele>
        <time>2020-05-22T09:33:55.855Z</time>
      </trkpt>
      <trkpt lat="44.85598" lon="5.42973">
        <ele>1141</ele>
        <time>2020-05-22T09:33:56.855Z</time>
      </trkpt>
      <trkpt lat="44.85597" lon="5.42974">
        <ele>1141</ele>
        <time>2020-05-22T09:33:57.855Z</time>
      </trkpt>
      <trkpt lat="44.85596" lon="5.42976">
        <ele>1141</ele>
        <time>2020-05-22T09:33:58.855Z</time>
      </trkpt>
      <trkpt lat="44.85595" lon="5.42978">
        <ele>1142</ele>
        <time>2020-05-22T09:33:59.855Z</time>
      </trkpt>
      <trkpt lat="44.85594" lon="5.42979">
        <ele>1142</ele>
        <time>2020-05-22T09:34:00.855Z</time>
      </trkpt>
      <trkpt lat="44.85594" lon="5.42981">
        <ele>1142</ele>
        <time>2020-05-22T09:34:01.855Z</time>
      </trkpt>
      <trkpt lat="44.85593" lon="5.42984">
        <ele>1142</ele>
        <time>2020-05-22T09:34:02.855Z</time>
      </trkpt>
      <trkpt lat="44.85592" lon="5.42986">
        <ele>1142</ele>
        <time>2020-05-22T09:34:03.855Z</time>
      </trkpt>
      <trkpt lat="44.85592" lon="5.42988">
        <ele>1143</ele>
        <time>2020-05-22T09:34:04.854Z</time>
      </trkpt>
      <trkpt lat="44.85591" lon="5.42989">
        <ele>1143</ele>
        <time>2020-05-22T09:34:05.854Z</time>
      </trkpt>
      <trkpt lat="44.8559" lon="5.4299">
        <ele>1143</ele>
        <time>2020-05-22T09:34:06.854Z</time>
      </trkpt>
      <trkpt lat="44.85589" lon="5.42991">
        <ele>1143</ele>
        <time>2020-05-22T09:34:07.855Z</time>
      </trkpt>
      <trkpt lat="44.85588" lon="5.42993">
        <ele>1144</ele>
        <time>2020-05-22T09:34:08.854Z</time>
      </trkpt>
      <trkpt lat="44.85587" lon="5.42994">
        <ele>1144</ele>
        <time>2020-05-22T09:34:09.855Z</time>
      </trkpt>
      <trkpt lat="44.85587" lon="5.42996">
        <ele>1144</ele>
        <time>2020-05-22T09:34:10.855Z</time>
      </trkpt>
      <trkpt lat="44.85586" lon="5.42997">
        <ele>1144</ele>
        <time>2020-05-22T09:34:11.855Z</time>
      </trkpt>
      <trkpt lat="44.85585" lon="5.42999">
        <ele>1145</ele>
        <time>2020-05-22T09:34:12.855Z</time>
      </trkpt>
      <trkpt lat="44.85584" lon="5.43001">
        <ele>1145</ele>
        <time>2020-05-22T09:34:13.855Z</time>
      </trkpt>
      <trkpt lat="44.85583" lon="5.43002">
        <ele>1145</ele>
        <time>2020-05-22T09:34:14.855Z</time>
      </trkpt>
      <trkpt lat="44.85583" lon="5.43004">
        <ele>1145</ele>
        <time>2020-05-22T09:34:15.854Z</time>
      </trkpt>
      <trkpt lat="44.85582" lon="5.43006">
        <ele>1145</ele>
        <time>2020-05-22T09:34:16.855Z</time>
      </trkpt>
      <trkpt lat="44.85582" lon="5.43008">
        <ele>1145</ele>
        <time>2020-05-22T09:34:17.854Z</time>
      </trkpt>
      <trkpt lat="44.8558" lon="5.4301">
        <ele>1146</ele>
        <time>2020-05-22T09:34:18.855Z</time>
      </trkpt>
      <trkpt lat="44.85579" lon="5.43012">
        <ele>1146</ele>
        <time>2020-05-22T09:34:19.855Z</time>
      </trkpt>
      <trkpt lat="44.85578" lon="5.43014">
        <ele>1147</ele>
        <time>2020-05-22T09:34:20.854Z</time>
      </trkpt>
      <trkpt lat="44.85577" lon="5.43017">
        <ele>1147</ele>
        <time>2020-05-22T09:34:21.855Z</time>
      </trkpt>
      <trkpt lat="44.85576" lon="5.43018">
        <ele>1148</ele>
        <time>2020-05-22T09:34:22.855Z</time>
      </trkpt>
      <trkpt lat="44.85575" lon="5.4302">
        <ele>1149</ele>
        <time>2020-05-22T09:34:23.855Z</time>
      </trkpt>
      <trkpt lat="44.85574" lon="5.43022">
        <ele>1149</ele>
        <time>2020-05-22T09:34:24.854Z</time>
      </trkpt>
      <trkpt lat="44.85574" lon="5.43023">
        <ele>1150</ele>
        <time>2020-05-22T09:34:25.855Z</time>
      </trkpt>
      <trkpt lat="44.85573" lon="5.43026">
        <ele>1150</ele>
        <time>2020-05-22T09:34:26.855Z</time>
      </trkpt>
      <trkpt lat="44.85571" lon="5.43028">
        <ele>1150</ele>
        <time>2020-05-22T09:34:27.855Z</time>
      </trkpt>
      <trkpt lat="44.8557" lon="5.43029">
        <ele>1150</ele>
        <time>2020-05-22T09:34:28.855Z</time>
      </trkpt>
      <trkpt lat="44.85569" lon="5.43031">
        <ele>1149</ele>
        <time>2020-05-22T09:34:29.855Z</time>
      </trkpt>
      <trkpt lat="44.85568" lon="5.43033">
        <ele>1149</ele>
        <time>2020-05-22T09:34:30.855Z</time>
      </trkpt>
      <trkpt lat="44.85567" lon="5.43036">
        <ele>1149</ele>
        <time>2020-05-22T09:34:31.855Z</time>
      </trkpt>
      <trkpt lat="44.85566" lon="5.43037">
        <ele>1148</ele>
        <time>2020-05-22T09:34:32.855Z</time>
      </trkpt>
      <trkpt lat="44.85566" lon="5.43038">
        <ele>1148</ele>
        <time>2020-05-22T09:34:33.854Z</time>
      </trkpt>
      <trkpt lat="44.85565" lon="5.4304">
        <ele>1148</ele>
        <time>2020-05-22T09:34:34.855Z</time>
      </trkpt>
      <trkpt lat="44.85564" lon="5.43043">
        <ele>1148</ele>
        <time>2020-05-22T09:34:35.854Z</time>
      </trkpt>
      <trkpt lat="44.85563" lon="5.43045">
        <ele>1148</ele>
        <time>2020-05-22T09:34:36.855Z</time>
      </trkpt>
      <trkpt lat="44.85563" lon="5.43047">
        <ele>1148</ele>
        <time>2020-05-22T09:34:37.855Z</time>
      </trkpt>
      <trkpt lat="44.85562" lon="5.43049">
        <ele>1148</ele>
        <time>2020-05-22T09:34:38.855Z</time>
      </trkpt>
      <trkpt lat="44.85561" lon="5.4305">
        <ele>1148</ele>
        <time>2020-05-22T09:34:39.855Z</time>
      </trkpt>
      <trkpt lat="44.8556" lon="5.43052">
        <ele>1148</ele>
        <time>2020-05-22T09:34:40.855Z</time>
      </trkpt>
      <trkpt lat="44.85559" lon="5.43054">
        <ele>1148</ele>
        <time>2020-05-22T09:34:41.854Z</time>
      </trkpt>
      <trkpt lat="44.85559" lon="5.43055">
        <ele>1148</ele>
        <time>2020-05-22T09:34:42.855Z</time>
      </trkpt>
      <trkpt lat="44.85559" lon="5.43057">
        <ele>1147</ele>
        <time>2020-05-22T09:34:43.854Z</time>
      </trkpt>
      <trkpt lat="44.85559" lon="5.43059">
        <ele>1147</ele>
        <time>2020-05-22T09:34:44.855Z</time>
      </trkpt>
      <trkpt lat="44.85558" lon="5.43061">
        <ele>1147</ele>
        <time>2020-05-22T09:34:45.854Z</time>
      </trkpt>
      <trkpt lat="44.85558" lon="5.43063">
        <ele>1147</ele>
        <time>2020-05-22T09:34:46.855Z</time>
      </trkpt>
      <trkpt lat="44.85557" lon="5.43065">
        <ele>1147</ele>
        <time>2020-05-22T09:34:47.855Z</time>
      </trkpt>
      <trkpt lat="44.85557" lon="5.43066">
        <ele>1147</ele>
        <time>2020-05-22T09:34:48.855Z</time>
      </trkpt>
      <trkpt lat="44.85557" lon="5.43068">
        <ele>1147</ele>
        <time>2020-05-22T09:34:49.855Z</time>
      </trkpt>
      <trkpt lat="44.85556" lon="5.43069">
        <ele>1147</ele>
        <time>2020-05-22T09:34:50.855Z</time>
      </trkpt>
      <trkpt lat="44.85555" lon="5.43071">
        <ele>1147</ele>
        <time>2020-05-22T09:34:51.854Z</time>
      </trkpt>
      <trkpt lat="44.85555" lon="5.43072">
        <ele>1147</ele>
        <time>2020-05-22T09:34:52.855Z</time>
      </trkpt>
      <trkpt lat="44.85553" lon="5.43073">
        <ele>1147</ele>
        <time>2020-05-22T09:34:53.855Z</time>
      </trkpt>
      <trkpt lat="44.85552" lon="5.43074">
        <ele>1147</ele>
        <time>2020-05-22T09:34:54.855Z</time>
      </trkpt>
      <trkpt lat="44.85551" lon="5.43075">
        <ele>1148</ele>
        <time>2020-05-22T09:34:55.855Z</time>
      </trkpt>
      <trkpt lat="44.8555" lon="5.43074">
        <ele>1148</ele>
        <time>2020-05-22T09:34:56.855Z</time>
      </trkpt>
      <trkpt lat="44.85548" lon="5.43074">
        <ele>1148</ele>
        <time>2020-05-22T09:34:57.855Z</time>
      </trkpt>
      <trkpt lat="44.85547" lon="5.43073">
        <ele>1149</ele>
        <time>2020-05-22T09:34:58.855Z</time>
      </trkpt>
      <trkpt lat="44.85546" lon="5.43072">
        <ele>1149</ele>
        <time>2020-05-22T09:34:59.855Z</time>
      </trkpt>
      <trkpt lat="44.85546" lon="5.4307">
        <ele>1149</ele>
        <time>2020-05-22T09:35:00.854Z</time>
      </trkpt>
      <trkpt lat="44.85545" lon="5.43068">
        <ele>1149</ele>
        <time>2020-05-22T09:35:01.855Z</time>
      </trkpt>
      <trkpt lat="44.85545" lon="5.43066">
        <ele>1149</ele>
        <time>2020-05-22T09:35:02.855Z</time>
      </trkpt>
      <trkpt lat="44.85544" lon="5.43064">
        <ele>1149</ele>
        <time>2020-05-22T09:35:03.854Z</time>
      </trkpt>
      <trkpt lat="44.85544" lon="5.43062">
        <ele>1149</ele>
        <time>2020-05-22T09:35:04.854Z</time>
      </trkpt>
      <trkpt lat="44.85545" lon="5.4306">
        <ele>1149</ele>
        <time>2020-05-22T09:35:05.854Z</time>
      </trkpt>
      <trkpt lat="44.85545" lon="5.43058">
        <ele>1149</ele>
        <time>2020-05-22T09:35:06.855Z</time>
      </trkpt>
      <trkpt lat="44.85546" lon="5.43056">
        <ele>1149</ele>
        <time>2020-05-22T09:35:07.855Z</time>
      </trkpt>
      <trkpt lat="44.85547" lon="5.43054">
        <ele>1149</ele>
        <time>2020-05-22T09:35:08.855Z</time>
      </trkpt>
      <trkpt lat="44.85547" lon="5.43053">
        <ele>1149</ele>
        <time>2020-05-22T09:35:09.855Z</time>
      </trkpt>
      <trkpt lat="44.85547" lon="5.43051">
        <ele>1148</ele>
        <time>2020-05-22T09:35:10.854Z</time>
      </trkpt>
      <trkpt lat="44.85548" lon="5.43049">
        <ele>1148</ele>
        <time>2020-05-22T09:35:11.855Z</time>
      </trkpt>
      <trkpt lat="44.85549" lon="5.43048">
        <ele>1148</ele>
        <time>2020-05-22T09:35:12.855Z</time>
      </trkpt>
      <trkpt lat="44.85551" lon="5.43045">
        <ele>1148</ele>
        <time>2020-05-22T09:35:13.855Z</time>
      </trkpt>
      <trkpt lat="44.85552" lon="5.43041">
        <ele>1148</ele>
        <time>2020-05-22T09:35:14.855Z</time>
      </trkpt>
      <trkpt lat="44.85552" lon="5.43039">
        <ele>1148</ele>
        <time>2020-05-22T09:35:15.855Z</time>
      </trkpt>
      <trkpt lat="44.85554" lon="5.43036">
        <ele>1148</ele>
        <time>2020-05-22T09:35:16.855Z</time>
      </trkpt>
      <trkpt lat="44.85555" lon="5.43034">
        <ele>1148</ele>
        <time>2020-05-22T09:35:17.855Z</time>
      </trkpt>
      <trkpt lat="44.85557" lon="5.43032">
        <ele>1149</ele>
        <time>2020-05-22T09:35:18.855Z</time>
      </trkpt>
      <trkpt lat="44.85558" lon="5.43031">
        <ele>1149</ele>
        <time>2020-05-22T09:35:19.855Z</time>
      </trkpt>
      <trkpt lat="44.85559" lon="5.43029">
        <ele>1149</ele>
        <time>2020-05-22T09:35:20.855Z</time>
      </trkpt>
      <trkpt lat="44.8556" lon="5.43027">
        <ele>1149</ele>
        <time>2020-05-22T09:35:21.855Z</time>
      </trkpt>
      <trkpt lat="44.8556" lon="5.43025">
        <ele>1149</ele>
        <time>2020-05-22T09:35:22.854Z</time>
      </trkpt>
      <trkpt lat="44.85561" lon="5.43023">
        <ele>1149</ele>
        <time>2020-05-22T09:35:23.854Z</time>
      </trkpt>
      <trkpt lat="44.85562" lon="5.43022">
        <ele>1150</ele>
        <time>2020-05-22T09:35:24.855Z</time>
      </trkpt>
      <trkpt lat="44.85563" lon="5.4302">
        <ele>1150</ele>
        <time>2020-05-22T09:35:25.855Z</time>
      </trkpt>
      <trkpt lat="44.85564" lon="5.43019">
        <ele>1151</ele>
        <time>2020-05-22T09:35:26.855Z</time>
      </trkpt>
      <trkpt lat="44.85565" lon="5.43017">
        <ele>1151</ele>
        <time>2020-05-22T09:35:27.855Z</time>
      </trkpt>
      <trkpt lat="44.85565" lon="5.43016">
        <ele>1152</ele>
        <time>2020-05-22T09:35:28.855Z</time>
      </trkpt>
      <trkpt lat="44.85566" lon="5.43015">
        <ele>1152</ele>
        <time>2020-05-22T09:35:29.855Z</time>
      </trkpt>
      <trkpt lat="44.85567" lon="5.43014">
        <ele>1153</ele>
        <time>2020-05-22T09:35:30.854Z</time>
      </trkpt>
      <trkpt lat="44.85567" lon="5.43013">
        <ele>1154</ele>
        <time>2020-05-22T09:35:31.855Z</time>
      </trkpt>
      <trkpt lat="44.85568" lon="5.43011">
        <ele>1154</ele>
        <time>2020-05-22T09:35:32.855Z</time>
      </trkpt>
      <trkpt lat="44.85568" lon="5.4301">
        <ele>1154</ele>
        <time>2020-05-22T09:35:33.854Z</time>
      </trkpt>
      <trkpt lat="44.85569" lon="5.43008">
        <ele>1154</ele>
        <time>2020-05-22T09:35:34.855Z</time>
      </trkpt>
      <trkpt lat="44.8557" lon="5.43006">
        <ele>1154</ele>
        <time>2020-05-22T09:35:35.855Z</time>
      </trkpt>
      <trkpt lat="44.8557" lon="5.43004">
        <ele>1154</ele>
        <time>2020-05-22T09:35:36.855Z</time>
      </trkpt>
      <trkpt lat="44.8557" lon="5.43003">
        <ele>1154</ele>
        <time>2020-05-22T09:35:37.855Z</time>
      </trkpt>
      <trkpt lat="44.85571" lon="5.43001">
        <ele>1154</ele>
        <time>2020-05-22T09:35:38.855Z</time>
      </trkpt>
      <trkpt lat="44.85572" lon="5.43">
        <ele>1154</ele>
        <time>2020-05-22T09:35:39.855Z</time>
      </trkpt>
      <trkpt lat="44.85573" lon="5.42998">
        <ele>1154</ele>
        <time>2020-05-22T09:35:40.855Z</time>
      </trkpt>
      <trkpt lat="44.85573" lon="5.42996">
        <ele>1154</ele>
        <time>2020-05-22T09:35:41.855Z</time>
      </trkpt>
      <trkpt lat="44.85574" lon="5.42994">
        <ele>1154</ele>
        <time>2020-05-22T09:35:42.855Z</time>
      </trkpt>
      <trkpt lat="44.85575" lon="5.42992">
        <ele>1154</ele>
        <time>2020-05-22T09:35:43.855Z</time>
      </trkpt>
      <trkpt lat="44.85576" lon="5.4299">
        <ele>1153</ele>
        <time>2020-05-22T09:35:44.855Z</time>
      </trkpt>
      <trkpt lat="44.85577" lon="5.42989">
        <ele>1153</ele>
        <time>2020-05-22T09:35:45.854Z</time>
      </trkpt>
      <trkpt lat="44.85579" lon="5.42987">
        <ele>1153</ele>
        <time>2020-05-22T09:35:46.855Z</time>
      </trkpt>
      <trkpt lat="44.85581" lon="5.42986">
        <ele>1153</ele>
        <time>2020-05-22T09:35:47.855Z</time>
      </trkpt>
      <trkpt lat="44.85583" lon="5.42984">
        <ele>1153</ele>
        <time>2020-05-22T09:35:48.855Z</time>
      </trkpt>
      <trkpt lat="44.85584" lon="5.42982">
        <ele>1153</ele>
        <time>2020-05-22T09:35:49.855Z</time>
      </trkpt>
      <trkpt lat="44.85584" lon="5.4298">
        <ele>1154</ele>
        <time>2020-05-22T09:35:50.855Z</time>
      </trkpt>
      <trkpt lat="44.85584" lon="5.42979">
        <ele>1153</ele>
        <time>2020-05-22T09:35:51.855Z</time>
      </trkpt>
      <trkpt lat="44.85584" lon="5.42978">
        <ele>1153</ele>
        <time>2020-05-22T09:35:52.855Z</time>
      </trkpt>
      <trkpt lat="44.85584" lon="5.42977">
        <ele>1153</ele>
        <time>2020-05-22T09:35:53.855Z</time>
      </trkpt>
      <trkpt lat="44.85584" lon="5.42975">
        <ele>1153</ele>
        <time>2020-05-22T09:35:54.855Z</time>
      </trkpt>
      <trkpt lat="44.85584" lon="5.42974">
        <ele>1153</ele>
        <time>2020-05-22T09:35:55.854Z</time>
      </trkpt>
      <trkpt lat="44.85585" lon="5.42972">
        <ele>1152</ele>
        <time>2020-05-22T09:35:56.855Z</time>
      </trkpt>
      <trkpt lat="44.85585" lon="5.42971">
        <ele>1152</ele>
        <time>2020-05-22T09:35:57.855Z</time>
      </trkpt>
      <trkpt lat="44.85585" lon="5.42969">
        <ele>1152</ele>
        <time>2020-05-22T09:35:58.855Z</time>
      </trkpt>
      <trkpt lat="44.85585" lon="5.42968">
        <ele>1152</ele>
        <time>2020-05-22T09:35:59.855Z</time>
      </trkpt>
      <trkpt lat="44.85586" lon="5.42967">
        <ele>1152</ele>
        <time>2020-05-22T09:36:00.855Z</time>
      </trkpt>
      <trkpt lat="44.85586" lon="5.42965">
        <ele>1152</ele>
        <time>2020-05-22T09:36:01.854Z</time>
      </trkpt>
      <trkpt lat="44.85587" lon="5.42964">
        <ele>1152</ele>
        <time>2020-05-22T09:36:02.855Z</time>
      </trkpt>
      <trkpt lat="44.85587" lon="5.42963">
        <ele>1153</ele>
        <time>2020-05-22T09:36:03.854Z</time>
      </trkpt>
      <trkpt lat="44.85588" lon="5.42961">
        <ele>1153</ele>
        <time>2020-05-22T09:36:04.855Z</time>
      </trkpt>
      <trkpt lat="44.85589" lon="5.42959">
        <ele>1153</ele>
        <time>2020-05-22T09:36:05.855Z</time>
      </trkpt>
      <trkpt lat="44.8559" lon="5.42956">
        <ele>1154</ele>
        <time>2020-05-22T09:36:06.855Z</time>
      </trkpt>
      <trkpt lat="44.85591" lon="5.42954">
        <ele>1154</ele>
        <time>2020-05-22T09:36:07.855Z</time>
      </trkpt>
      <trkpt lat="44.85592" lon="5.42952">
        <ele>1155</ele>
        <time>2020-05-22T09:36:08.854Z</time>
      </trkpt>
      <trkpt lat="44.85593" lon="5.42951">
        <ele>1155</ele>
        <time>2020-05-22T09:36:09.854Z</time>
      </trkpt>
      <trkpt lat="44.85593" lon="5.42949">
        <ele>1155</ele>
        <time>2020-05-22T09:36:10.855Z</time>
      </trkpt>
      <trkpt lat="44.85594" lon="5.42947">
        <ele>1155</ele>
        <time>2020-05-22T09:36:11.855Z</time>
      </trkpt>
      <trkpt lat="44.85594" lon="5.42946">
        <ele>1155</ele>
        <time>2020-05-22T09:36:12.854Z</time>
      </trkpt>
      <trkpt lat="44.85595" lon="5.42944">
        <ele>1155</ele>
        <time>2020-05-22T09:36:13.855Z</time>
      </trkpt>
      <trkpt lat="44.85595" lon="5.42943">
        <ele>1154</ele>
        <time>2020-05-22T09:36:14.855Z</time>
      </trkpt>
      <trkpt lat="44.85596" lon="5.42941">
        <ele>1153</ele>
        <time>2020-05-22T09:36:15.855Z</time>
      </trkpt>
      <trkpt lat="44.85596" lon="5.4294">
        <ele>1153</ele>
        <time>2020-05-22T09:36:16.855Z</time>
      </trkpt>
      <trkpt lat="44.85596" lon="5.42938">
        <ele>1152</ele>
        <time>2020-05-22T09:36:17.854Z</time>
      </trkpt>
      <trkpt lat="44.85597" lon="5.42935">
        <ele>1152</ele>
        <time>2020-05-22T09:36:18.855Z</time>
      </trkpt>
      <trkpt lat="44.85598" lon="5.42933">
        <ele>1152</ele>
        <time>2020-05-22T09:36:19.854Z</time>
      </trkpt>
      <trkpt lat="44.85599" lon="5.42931">
        <ele>1152</ele>
        <time>2020-05-22T09:36:20.855Z</time>
      </trkpt>
      <trkpt lat="44.856" lon="5.42928">
        <ele>1152</ele>
        <time>2020-05-22T09:36:21.854Z</time>
      </trkpt>
      <trkpt lat="44.85601" lon="5.42925">
        <ele>1152</ele>
        <time>2020-05-22T09:36:22.855Z</time>
      </trkpt>
      <trkpt lat="44.85601" lon="5.42923">
        <ele>1153</ele>
        <time>2020-05-22T09:36:23.855Z</time>
      </trkpt>
      <trkpt lat="44.85601" lon="5.42921">
        <ele>1153</ele>
        <time>2020-05-22T09:36:24.854Z</time>
      </trkpt>
      <trkpt lat="44.85602" lon="5.4292">
        <ele>1153</ele>
        <time>2020-05-22T09:36:25.855Z</time>
      </trkpt>
      <trkpt lat="44.85602" lon="5.42918">
        <ele>1154</ele>
        <time>2020-05-22T09:36:26.855Z</time>
      </trkpt>
      <trkpt lat="44.85602" lon="5.42917">
        <ele>1154</ele>
        <time>2020-05-22T09:36:27.855Z</time>
      </trkpt>
      <trkpt lat="44.85603" lon="5.42916">
        <ele>1155</ele>
        <time>2020-05-22T09:36:28.854Z</time>
      </trkpt>
      <trkpt lat="44.85604" lon="5.42915">
        <ele>1156</ele>
        <time>2020-05-22T09:36:29.855Z</time>
      </trkpt>
      <trkpt lat="44.85604" lon="5.42914">
        <ele>1156</ele>
        <time>2020-05-22T09:36:30.855Z</time>
      </trkpt>
      <trkpt lat="44.85605" lon="5.42913">
        <ele>1157</ele>
        <time>2020-05-22T09:36:31.855Z</time>
      </trkpt>
      <trkpt lat="44.85605" lon="5.42912">
        <ele>1158</ele>
        <time>2020-05-22T09:36:32.854Z</time>
      </trkpt>
      <trkpt lat="44.85605" lon="5.4291">
        <ele>1158</ele>
        <time>2020-05-22T09:36:33.855Z</time>
      </trkpt>
      <trkpt lat="44.85607" lon="5.42907">
        <ele>1159</ele>
        <time>2020-05-22T09:36:34.855Z</time>
      </trkpt>
      <trkpt lat="44.85607" lon="5.42906">
        <ele>1159</ele>
        <time>2020-05-22T09:36:35.854Z</time>
      </trkpt>
      <trkpt lat="44.85606" lon="5.42904">
        <ele>1160</ele>
        <time>2020-05-22T09:36:36.855Z</time>
      </trkpt>
      <trkpt lat="44.85607" lon="5.42902">
        <ele>1161</ele>
        <time>2020-05-22T09:36:37.855Z</time>
      </trkpt>
      <trkpt lat="44.85607" lon="5.429">
        <ele>1161</ele>
        <time>2020-05-22T09:36:38.855Z</time>
      </trkpt>
      <trkpt lat="44.85607" lon="5.42898">
        <ele>1161</ele>
        <time>2020-05-22T09:36:39.854Z</time>
      </trkpt>
      <trkpt lat="44.85608" lon="5.42896">
        <ele>1162</ele>
        <time>2020-05-22T09:36:40.855Z</time>
      </trkpt>
      <trkpt lat="44.85608" lon="5.42894">
        <ele>1162</ele>
        <time>2020-05-22T09:36:41.855Z</time>
      </trkpt>
      <trkpt lat="44.85608" lon="5.42892">
        <ele>1162</ele>
        <time>2020-05-22T09:36:42.855Z</time>
      </trkpt>
      <trkpt lat="44.85608" lon="5.4289">
        <ele>1162</ele>
        <time>2020-05-22T09:36:43.855Z</time>
      </trkpt>
      <trkpt lat="44.85608" lon="5.42888">
        <ele>1162</ele>
        <time>2020-05-22T09:36:44.854Z</time>
      </trkpt>
      <trkpt lat="44.85607" lon="5.42887">
        <ele>1162</ele>
        <time>2020-05-22T09:36:45.855Z</time>
      </trkpt>
      <trkpt lat="44.85607" lon="5.42885">
        <ele>1162</ele>
        <time>2020-05-22T09:36:46.855Z</time>
      </trkpt>
      <trkpt lat="44.85608" lon="5.42882">
        <ele>1162</ele>
        <time>2020-05-22T09:36:47.855Z</time>
      </trkpt>
      <trkpt lat="44.85607" lon="5.4288">
        <ele>1162</ele>
        <time>2020-05-22T09:36:48.855Z</time>
      </trkpt>
      <trkpt lat="44.85607" lon="5.42878">
        <ele>1161</ele>
        <time>2020-05-22T09:36:49.855Z</time>
      </trkpt>
      <trkpt lat="44.85607" lon="5.42877">
        <ele>1161</ele>
        <time>2020-05-22T09:36:50.855Z</time>
      </trkpt>
      <trkpt lat="44.85607" lon="5.42875">
        <ele>1161</ele>
        <time>2020-05-22T09:36:51.855Z</time>
      </trkpt>
      <trkpt lat="44.85607" lon="5.42874">
        <ele>1160</ele>
        <time>2020-05-22T09:36:52.855Z</time>
      </trkpt>
      <trkpt lat="44.85607" lon="5.42872">
        <ele>1159</ele>
        <time>2020-05-22T09:36:53.854Z</time>
      </trkpt>
      <trkpt lat="44.85607" lon="5.4287">
        <ele>1159</ele>
        <time>2020-05-22T09:36:54.854Z</time>
      </trkpt>
      <trkpt lat="44.85607" lon="5.42868">
        <ele>1158</ele>
        <time>2020-05-22T09:36:55.854Z</time>
      </trkpt>
      <trkpt lat="44.85607" lon="5.42867">
        <ele>1157</ele>
        <time>2020-05-22T09:36:56.855Z</time>
      </trkpt>
      <trkpt lat="44.85607" lon="5.42865">
        <ele>1157</ele>
        <time>2020-05-22T09:36:57.855Z</time>
      </trkpt>
      <trkpt lat="44.85606" lon="5.42863">
        <ele>1157</ele>
        <time>2020-05-22T09:36:58.854Z</time>
      </trkpt>
      <trkpt lat="44.85606" lon="5.42862">
        <ele>1157</ele>
        <time>2020-05-22T09:36:59.855Z</time>
      </trkpt>
      <trkpt lat="44.85606" lon="5.4286">
        <ele>1157</ele>
        <time>2020-05-22T09:37:00.855Z</time>
      </trkpt>
      <trkpt lat="44.85606" lon="5.42858">
        <ele>1157</ele>
        <time>2020-05-22T09:37:01.855Z</time>
      </trkpt>
      <trkpt lat="44.85606" lon="5.42856">
        <ele>1157</ele>
        <time>2020-05-22T09:37:02.855Z</time>
      </trkpt>
      <trkpt lat="44.85607" lon="5.42854">
        <ele>1157</ele>
        <time>2020-05-22T09:37:03.855Z</time>
      </trkpt>
      <trkpt lat="44.85607" lon="5.42852">
        <ele>1157</ele>
        <time>2020-05-22T09:37:04.855Z</time>
      </trkpt>
      <trkpt lat="44.85608" lon="5.4285">
        <ele>1157</ele>
        <time>2020-05-22T09:37:05.855Z</time>
      </trkpt>
      <trkpt lat="44.85609" lon="5.42848">
        <ele>1156</ele>
        <time>2020-05-22T09:37:06.855Z</time>
      </trkpt>
      <trkpt lat="44.85609" lon="5.42846">
        <ele>1156</ele>
        <time>2020-05-22T09:37:07.855Z</time>
      </trkpt>
      <trkpt lat="44.85609" lon="5.42844">
        <ele>1156</ele>
        <time>2020-05-22T09:37:08.855Z</time>
      </trkpt>
      <trkpt lat="44.85609" lon="5.42842">
        <ele>1156</ele>
        <time>2020-05-22T09:37:09.855Z</time>
      </trkpt>
      <trkpt lat="44.85608" lon="5.4284">
        <ele>1156</ele>
        <time>2020-05-22T09:37:10.855Z</time>
      </trkpt>
      <trkpt lat="44.85608" lon="5.42839">
        <ele>1157</ele>
        <time>2020-05-22T09:37:11.855Z</time>
      </trkpt>
      <trkpt lat="44.85608" lon="5.42836">
        <ele>1157</ele>
        <time>2020-05-22T09:37:12.855Z</time>
      </trkpt>
      <trkpt lat="44.85609" lon="5.42833">
        <ele>1158</ele>
        <time>2020-05-22T09:37:13.854Z</time>
      </trkpt>
      <trkpt lat="44.8561" lon="5.4283">
        <ele>1158</ele>
        <time>2020-05-22T09:37:14.854Z</time>
      </trkpt>
      <trkpt lat="44.8561" lon="5.42826">
        <ele>1158</ele>
        <time>2020-05-22T09:37:15.855Z</time>
      </trkpt>
      <trkpt lat="44.8561" lon="5.42823">
        <ele>1159</ele>
        <time>2020-05-22T09:37:16.855Z</time>
      </trkpt>
      <trkpt lat="44.85611" lon="5.42821">
        <ele>1159</ele>
        <time>2020-05-22T09:37:17.855Z</time>
      </trkpt>
      <trkpt lat="44.85611" lon="5.42819">
        <ele>1159</ele>
        <time>2020-05-22T09:37:18.855Z</time>
      </trkpt>
      <trkpt lat="44.85611" lon="5.42817">
        <ele>1160</ele>
        <time>2020-05-22T09:37:19.855Z</time>
      </trkpt>
      <trkpt lat="44.85611" lon="5.42815">
        <ele>1160</ele>
        <time>2020-05-22T09:37:20.855Z</time>
      </trkpt>
      <trkpt lat="44.85612" lon="5.42813">
        <ele>1160</ele>
        <time>2020-05-22T09:37:21.855Z</time>
      </trkpt>
      <trkpt lat="44.85612" lon="5.42811">
        <ele>1161</ele>
        <time>2020-05-22T09:37:22.855Z</time>
      </trkpt>
      <trkpt lat="44.85612" lon="5.42809">
        <ele>1161</ele>
        <time>2020-05-22T09:37:23.855Z</time>
      </trkpt>
      <trkpt lat="44.85612" lon="5.42806">
        <ele>1161</ele>
        <time>2020-05-22T09:37:24.855Z</time>
      </trkpt>
      <trkpt lat="44.85612" lon="5.42804">
        <ele>1162</ele>
        <time>2020-05-22T09:37:25.854Z</time>
      </trkpt>
      <trkpt lat="44.85611" lon="5.42801">
        <ele>1162</ele>
        <time>2020-05-22T09:37:26.855Z</time>
      </trkpt>
      <trkpt lat="44.85611" lon="5.42799">
        <ele>1162</ele>
        <time>2020-05-22T09:37:27.855Z</time>
      </trkpt>
      <trkpt lat="44.85611" lon="5.42797">
        <ele>1162</ele>
        <time>2020-05-22T09:37:28.855Z</time>
      </trkpt>
      <trkpt lat="44.85611" lon="5.42795">
        <ele>1161</ele>
        <time>2020-05-22T09:37:29.855Z</time>
      </trkpt>
      <trkpt lat="44.8561" lon="5.42794">
        <ele>1161</ele>
        <time>2020-05-22T09:37:30.855Z</time>
      </trkpt>
      <trkpt lat="44.8561" lon="5.42792">
        <ele>1161</ele>
        <time>2020-05-22T09:37:31.855Z</time>
      </trkpt>
      <trkpt lat="44.8561" lon="5.42791">
        <ele>1160</ele>
        <time>2020-05-22T09:37:32.854Z</time>
      </trkpt>
      <trkpt lat="44.8561" lon="5.42789">
        <ele>1160</ele>
        <time>2020-05-22T09:37:33.855Z</time>
      </trkpt>
      <trkpt lat="44.85609" lon="5.42787">
        <ele>1160</ele>
        <time>2020-05-22T09:37:34.855Z</time>
      </trkpt>
      <trkpt lat="44.85609" lon="5.42786">
        <ele>1160</ele>
        <time>2020-05-22T09:37:35.854Z</time>
      </trkpt>
      <trkpt lat="44.85609" lon="5.42784">
        <ele>1160</ele>
        <time>2020-05-22T09:37:36.855Z</time>
      </trkpt>
      <trkpt lat="44.85609" lon="5.42782">
        <ele>1160</ele>
        <time>2020-05-22T09:37:37.854Z</time>
      </trkpt>
      <trkpt lat="44.85609" lon="5.4278">
        <ele>1160</ele>
        <time>2020-05-22T09:37:38.855Z</time>
      </trkpt>
      <trkpt lat="44.85609" lon="5.42778">
        <ele>1160</ele>
        <time>2020-05-22T09:37:39.855Z</time>
      </trkpt>
      <trkpt lat="44.85608" lon="5.42776">
        <ele>1160</ele>
        <time>2020-05-22T09:37:40.855Z</time>
      </trkpt>
      <trkpt lat="44.85608" lon="5.42775">
        <ele>1160</ele>
        <time>2020-05-22T09:37:41.855Z</time>
      </trkpt>
      <trkpt lat="44.85608" lon="5.42773">
        <ele>1160</ele>
        <time>2020-05-22T09:37:42.855Z</time>
      </trkpt>
      <trkpt lat="44.85608" lon="5.42771">
        <ele>1160</ele>
        <time>2020-05-22T09:37:43.855Z</time>
      </trkpt>
      <trkpt lat="44.85608" lon="5.42769">
        <ele>1160</ele>
        <time>2020-05-22T09:37:44.854Z</time>
      </trkpt>
      <trkpt lat="44.85607" lon="5.42766">
        <ele>1159</ele>
        <time>2020-05-22T09:37:45.855Z</time>
      </trkpt>
      <trkpt lat="44.85607" lon="5.42764">
        <ele>1158</ele>
        <time>2020-05-22T09:37:46.855Z</time>
      </trkpt>
      <trkpt lat="44.85607" lon="5.42762">
        <ele>1158</ele>
        <time>2020-05-22T09:37:47.854Z</time>
      </trkpt>
      <trkpt lat="44.85607" lon="5.4276">
        <ele>1158</ele>
        <time>2020-05-22T09:37:48.854Z</time>
      </trkpt>
      <trkpt lat="44.85607" lon="5.42758">
        <ele>1157</ele>
        <time>2020-05-22T09:37:49.855Z</time>
      </trkpt>
      <trkpt lat="44.85607" lon="5.42755">
        <ele>1157</ele>
        <time>2020-05-22T09:37:50.855Z</time>
      </trkpt>
      <trkpt lat="44.85607" lon="5.42753">
        <ele>1158</ele>
        <time>2020-05-22T09:37:51.855Z</time>
      </trkpt>
      <trkpt lat="44.85607" lon="5.42751">
        <ele>1158</ele>
        <time>2020-05-22T09:37:52.855Z</time>
      </trkpt>
      <trkpt lat="44.85606" lon="5.42749">
        <ele>1159</ele>
        <time>2020-05-22T09:37:53.855Z</time>
      </trkpt>
      <trkpt lat="44.85606" lon="5.42747">
        <ele>1159</ele>
        <time>2020-05-22T09:37:54.855Z</time>
      </trkpt>
      <trkpt lat="44.85606" lon="5.42745">
        <ele>1160</ele>
        <time>2020-05-22T09:37:55.855Z</time>
      </trkpt>
      <trkpt lat="44.85605" lon="5.42744">
        <ele>1160</ele>
        <time>2020-05-22T09:37:56.855Z</time>
      </trkpt>
      <trkpt lat="44.85605" lon="5.42742">
        <ele>1160</ele>
        <time>2020-05-22T09:37:57.855Z</time>
      </trkpt>
      <trkpt lat="44.85605" lon="5.4274">
        <ele>1160</ele>
        <time>2020-05-22T09:37:58.854Z</time>
      </trkpt>
      <trkpt lat="44.85605" lon="5.42738">
        <ele>1160</ele>
        <time>2020-05-22T09:37:59.855Z</time>
      </trkpt>
      <trkpt lat="44.85605" lon="5.42736">
        <ele>1160</ele>
        <time>2020-05-22T09:38:00.855Z</time>
      </trkpt>
      <trkpt lat="44.85605" lon="5.42735">
        <ele>1160</ele>
        <time>2020-05-22T09:38:01.854Z</time>
      </trkpt>
      <trkpt lat="44.85605" lon="5.42733">
        <ele>1160</ele>
        <time>2020-05-22T09:38:02.854Z</time>
      </trkpt>
      <trkpt lat="44.85605" lon="5.4273">
        <ele>1161</ele>
        <time>2020-05-22T09:38:03.854Z</time>
      </trkpt>
      <trkpt lat="44.85604" lon="5.42727">
        <ele>1161</ele>
        <time>2020-05-22T09:38:04.855Z</time>
      </trkpt>
      <trkpt lat="44.85604" lon="5.42724">
        <ele>1162</ele>
        <time>2020-05-22T09:38:05.855Z</time>
      </trkpt>
      <trkpt lat="44.85604" lon="5.42721">
        <ele>1162</ele>
        <time>2020-05-22T09:38:06.855Z</time>
      </trkpt>
      <trkpt lat="44.85604" lon="5.42719">
        <ele>1163</ele>
        <time>2020-05-22T09:38:07.854Z</time>
      </trkpt>
      <trkpt lat="44.85605" lon="5.42717">
        <ele>1163</ele>
        <time>2020-05-22T09:38:08.855Z</time>
      </trkpt>
      <trkpt lat="44.85605" lon="5.42714">
        <ele>1164</ele>
        <time>2020-05-22T09:38:09.855Z</time>
      </trkpt>
      <trkpt lat="44.85605" lon="5.42712">
        <ele>1164</ele>
        <time>2020-05-22T09:38:10.855Z</time>
      </trkpt>
      <trkpt lat="44.85605" lon="5.42711">
        <ele>1164</ele>
        <time>2020-05-22T09:38:11.855Z</time>
      </trkpt>
      <trkpt lat="44.85604" lon="5.42709">
        <ele>1165</ele>
        <time>2020-05-22T09:38:12.855Z</time>
      </trkpt>
      <trkpt lat="44.85604" lon="5.42706">
        <ele>1165</ele>
        <time>2020-05-22T09:38:13.855Z</time>
      </trkpt>
      <trkpt lat="44.85603" lon="5.42704">
        <ele>1166</ele>
        <time>2020-05-22T09:38:14.855Z</time>
      </trkpt>
      <trkpt lat="44.85603" lon="5.42702">
        <ele>1166</ele>
        <time>2020-05-22T09:38:15.855Z</time>
      </trkpt>
      <trkpt lat="44.85603" lon="5.42701">
        <ele>1166</ele>
        <time>2020-05-22T09:38:16.855Z</time>
      </trkpt>
      <trkpt lat="44.85602" lon="5.42699">
        <ele>1166</ele>
        <time>2020-05-22T09:38:17.855Z</time>
      </trkpt>
      <trkpt lat="44.85602" lon="5.42697">
        <ele>1166</ele>
        <time>2020-05-22T09:38:18.855Z</time>
      </trkpt>
      <trkpt lat="44.85602" lon="5.42696">
        <ele>1167</ele>
        <time>2020-05-22T09:38:19.855Z</time>
      </trkpt>
      <trkpt lat="44.85602" lon="5.42695">
        <ele>1167</ele>
        <time>2020-05-22T09:38:20.855Z</time>
      </trkpt>
      <trkpt lat="44.85602" lon="5.42693">
        <ele>1167</ele>
        <time>2020-05-22T09:38:21.855Z</time>
      </trkpt>
      <trkpt lat="44.85602" lon="5.42692">
        <ele>1167</ele>
        <time>2020-05-22T09:38:22.855Z</time>
      </trkpt>
      <trkpt lat="44.85601" lon="5.4269">
        <ele>1168</ele>
        <time>2020-05-22T09:38:23.855Z</time>
      </trkpt>
      <trkpt lat="44.85601" lon="5.42689">
        <ele>1168</ele>
        <time>2020-05-22T09:38:24.854Z</time>
      </trkpt>
      <trkpt lat="44.85601" lon="5.42687">
        <ele>1169</ele>
        <time>2020-05-22T09:38:25.854Z</time>
      </trkpt>
      <trkpt lat="44.85601" lon="5.42686">
        <ele>1169</ele>
        <time>2020-05-22T09:38:26.854Z</time>
      </trkpt>
      <trkpt lat="44.85601" lon="5.42684">
        <ele>1169</ele>
        <time>2020-05-22T09:38:27.855Z</time>
      </trkpt>
      <trkpt lat="44.85601" lon="5.42683">
        <ele>1170</ele>
        <time>2020-05-22T09:38:28.854Z</time>
      </trkpt>
      <trkpt lat="44.85601" lon="5.4268">
        <ele>1170</ele>
        <time>2020-05-22T09:38:29.855Z</time>
      </trkpt>
      <trkpt lat="44.85602" lon="5.42677">
        <ele>1170</ele>
        <time>2020-05-22T09:38:30.855Z</time>
      </trkpt>
      <trkpt lat="44.85603" lon="5.42675">
        <ele>1170</ele>
        <time>2020-05-22T09:38:31.855Z</time>
      </trkpt>
      <trkpt lat="44.85603" lon="5.42672">
        <ele>1171</ele>
        <time>2020-05-22T09:38:32.855Z</time>
      </trkpt>
      <trkpt lat="44.85603" lon="5.42669">
        <ele>1171</ele>
        <time>2020-05-22T09:38:33.855Z</time>
      </trkpt>
      <trkpt lat="44.85603" lon="5.42667">
        <ele>1171</ele>
        <time>2020-05-22T09:38:34.855Z</time>
      </trkpt>
      <trkpt lat="44.85603" lon="5.42664">
        <ele>1172</ele>
        <time>2020-05-22T09:38:35.855Z</time>
      </trkpt>
      <trkpt lat="44.85603" lon="5.42662">
        <ele>1172</ele>
        <time>2020-05-22T09:38:36.854Z</time>
      </trkpt>
      <trkpt lat="44.85603" lon="5.42661">
        <ele>1172</ele>
        <time>2020-05-22T09:38:37.854Z</time>
      </trkpt>
      <trkpt lat="44.85603" lon="5.42659">
        <ele>1172</ele>
        <time>2020-05-22T09:38:38.855Z</time>
      </trkpt>
      <trkpt lat="44.85604" lon="5.42656">
        <ele>1172</ele>
        <time>2020-05-22T09:38:39.854Z</time>
      </trkpt>
      <trkpt lat="44.85604" lon="5.42655">
        <ele>1172</ele>
        <time>2020-05-22T09:38:40.855Z</time>
      </trkpt>
      <trkpt lat="44.85604" lon="5.42654">
        <ele>1172</ele>
        <time>2020-05-22T09:38:41.855Z</time>
      </trkpt>
      <trkpt lat="44.85604" lon="5.42653">
        <ele>1172</ele>
        <time>2020-05-22T09:38:42.855Z</time>
      </trkpt>
      <trkpt lat="44.85604" lon="5.42652">
        <ele>1172</ele>
        <time>2020-05-22T09:38:43.854Z</time>
      </trkpt>
      <trkpt lat="44.85604" lon="5.4265">
        <ele>1172</ele>
        <time>2020-05-22T09:38:44.855Z</time>
      </trkpt>
      <trkpt lat="44.85604" lon="5.42648">
        <ele>1172</ele>
        <time>2020-05-22T09:38:45.854Z</time>
      </trkpt>
      <trkpt lat="44.85605" lon="5.42647">
        <ele>1172</ele>
        <time>2020-05-22T09:38:46.855Z</time>
      </trkpt>
      <trkpt lat="44.85605" lon="5.42645">
        <ele>1172</ele>
        <time>2020-05-22T09:38:47.854Z</time>
      </trkpt>
      <trkpt lat="44.85605" lon="5.42644">
        <ele>1172</ele>
        <time>2020-05-22T09:38:48.855Z</time>
      </trkpt>
      <trkpt lat="44.85605" lon="5.42642">
        <ele>1172</ele>
        <time>2020-05-22T09:38:49.854Z</time>
      </trkpt>
      <trkpt lat="44.85605" lon="5.4264">
        <ele>1172</ele>
        <time>2020-05-22T09:38:50.855Z</time>
      </trkpt>
      <trkpt lat="44.85605" lon="5.42638">
        <ele>1172</ele>
        <time>2020-05-22T09:38:51.854Z</time>
      </trkpt>
      <trkpt lat="44.85605" lon="5.42637">
        <ele>1172</ele>
        <time>2020-05-22T09:38:52.855Z</time>
      </trkpt>
      <trkpt lat="44.85606" lon="5.42635">
        <ele>1172</ele>
        <time>2020-05-22T09:38:53.854Z</time>
      </trkpt>
      <trkpt lat="44.85606" lon="5.42633">
        <ele>1172</ele>
        <time>2020-05-22T09:38:54.855Z</time>
      </trkpt>
      <trkpt lat="44.85607" lon="5.42632">
        <ele>1172</ele>
        <time>2020-05-22T09:38:55.855Z</time>
      </trkpt>
      <trkpt lat="44.85608" lon="5.4263">
        <ele>1172</ele>
        <time>2020-05-22T09:38:56.855Z</time>
      </trkpt>
      <trkpt lat="44.85608" lon="5.42629">
        <ele>1173</ele>
        <time>2020-05-22T09:38:57.855Z</time>
      </trkpt>
      <trkpt lat="44.85609" lon="5.42627">
        <ele>1173</ele>
        <time>2020-05-22T09:38:58.855Z</time>
      </trkpt>
      <trkpt lat="44.85609" lon="5.42625">
        <ele>1173</ele>
        <time>2020-05-22T09:38:59.855Z</time>
      </trkpt>
      <trkpt lat="44.8561" lon="5.42624">
        <ele>1174</ele>
        <time>2020-05-22T09:39:00.855Z</time>
      </trkpt>
      <trkpt lat="44.85611" lon="5.42622">
        <ele>1174</ele>
        <time>2020-05-22T09:39:01.855Z</time>
      </trkpt>
      <trkpt lat="44.85612" lon="5.4262">
        <ele>1174</ele>
        <time>2020-05-22T09:39:02.855Z</time>
      </trkpt>
      <trkpt lat="44.85613" lon="5.42618">
        <ele>1174</ele>
        <time>2020-05-22T09:39:03.855Z</time>
      </trkpt>
      <trkpt lat="44.85613" lon="5.42616">
        <ele>1174</ele>
        <time>2020-05-22T09:39:04.854Z</time>
      </trkpt>
      <trkpt lat="44.85614" lon="5.42615">
        <ele>1174</ele>
        <time>2020-05-22T09:39:05.855Z</time>
      </trkpt>
      <trkpt lat="44.85615" lon="5.42613">
        <ele>1174</ele>
        <time>2020-05-22T09:39:06.855Z</time>
      </trkpt>
      <trkpt lat="44.85616" lon="5.42612">
        <ele>1175</ele>
        <time>2020-05-22T09:39:07.854Z</time>
      </trkpt>
      <trkpt lat="44.85618" lon="5.4261">
        <ele>1175</ele>
        <time>2020-05-22T09:39:08.854Z</time>
      </trkpt>
      <trkpt lat="44.85621" lon="5.42608">
        <ele>1175</ele>
        <time>2020-05-22T09:39:09.855Z</time>
      </trkpt>
      <trkpt lat="44.85622" lon="5.42607">
        <ele>1175</ele>
        <time>2020-05-22T09:39:10.855Z</time>
      </trkpt>
      <trkpt lat="44.85623" lon="5.42604">
        <ele>1175</ele>
        <time>2020-05-22T09:39:11.854Z</time>
      </trkpt>
      <trkpt lat="44.85624" lon="5.42602">
        <ele>1175</ele>
        <time>2020-05-22T09:39:12.855Z</time>
      </trkpt>
      <trkpt lat="44.85625" lon="5.426">
        <ele>1175</ele>
        <time>2020-05-22T09:39:13.854Z</time>
      </trkpt>
      <trkpt lat="44.85626" lon="5.42598">
        <ele>1175</ele>
        <time>2020-05-22T09:39:14.854Z</time>
      </trkpt>
      <trkpt lat="44.85627" lon="5.42596">
        <ele>1175</ele>
        <time>2020-05-22T09:39:15.854Z</time>
      </trkpt>
      <trkpt lat="44.85628" lon="5.42595">
        <ele>1174</ele>
        <time>2020-05-22T09:39:16.855Z</time>
      </trkpt>
      <trkpt lat="44.85629" lon="5.42592">
        <ele>1174</ele>
        <time>2020-05-22T09:39:17.854Z</time>
      </trkpt>
      <trkpt lat="44.85629" lon="5.4259">
        <ele>1174</ele>
        <time>2020-05-22T09:39:18.855Z</time>
      </trkpt>
      <trkpt lat="44.8563" lon="5.42588">
        <ele>1174</ele>
        <time>2020-05-22T09:39:19.855Z</time>
      </trkpt>
      <trkpt lat="44.8563" lon="5.42586">
        <ele>1174</ele>
        <time>2020-05-22T09:39:20.855Z</time>
      </trkpt>
      <trkpt lat="44.85631" lon="5.42584">
        <ele>1174</ele>
        <time>2020-05-22T09:39:21.855Z</time>
      </trkpt>
      <trkpt lat="44.85631" lon="5.42582">
        <ele>1173</ele>
        <time>2020-05-22T09:39:22.855Z</time>
      </trkpt>
      <trkpt lat="44.85632" lon="5.4258">
        <ele>1173</ele>
        <time>2020-05-22T09:39:23.855Z</time>
      </trkpt>
      <trkpt lat="44.85633" lon="5.42577">
        <ele>1173</ele>
        <time>2020-05-22T09:39:24.855Z</time>
      </trkpt>
      <trkpt lat="44.85634" lon="5.42575">
        <ele>1173</ele>
        <time>2020-05-22T09:39:25.854Z</time>
      </trkpt>
      <trkpt lat="44.85634" lon="5.42574">
        <ele>1173</ele>
        <time>2020-05-22T09:39:26.854Z</time>
      </trkpt>
      <trkpt lat="44.85634" lon="5.42573">
        <ele>1173</ele>
        <time>2020-05-22T09:39:27.855Z</time>
      </trkpt>
      <trkpt lat="44.85634" lon="5.42571">
        <ele>1173</ele>
        <time>2020-05-22T09:39:28.854Z</time>
      </trkpt>
      <trkpt lat="44.85634" lon="5.4257">
        <ele>1173</ele>
        <time>2020-05-22T09:39:29.855Z</time>
      </trkpt>
      <trkpt lat="44.85634" lon="5.42568">
        <ele>1173</ele>
        <time>2020-05-22T09:39:30.854Z</time>
      </trkpt>
      <trkpt lat="44.85635" lon="5.42565">
        <ele>1173</ele>
        <time>2020-05-22T09:39:31.855Z</time>
      </trkpt>
      <trkpt lat="44.85635" lon="5.42563">
        <ele>1173</ele>
        <time>2020-05-22T09:39:32.854Z</time>
      </trkpt>
      <trkpt lat="44.85635" lon="5.42561">
        <ele>1174</ele>
        <time>2020-05-22T09:39:33.854Z</time>
      </trkpt>
      <trkpt lat="44.85635" lon="5.42558">
        <ele>1174</ele>
        <time>2020-05-22T09:39:34.854Z</time>
      </trkpt>
      <trkpt lat="44.85636" lon="5.42555">
        <ele>1174</ele>
        <time>2020-05-22T09:39:35.855Z</time>
      </trkpt>
      <trkpt lat="44.85636" lon="5.42551">
        <ele>1175</ele>
        <time>2020-05-22T09:39:36.854Z</time>
      </trkpt>
      <trkpt lat="44.85636" lon="5.42548">
        <ele>1175</ele>
        <time>2020-05-22T09:39:37.855Z</time>
      </trkpt>
      <trkpt lat="44.85635" lon="5.42546">
        <ele>1176</ele>
        <time>2020-05-22T09:39:38.855Z</time>
      </trkpt>
      <trkpt lat="44.85634" lon="5.42543">
        <ele>1176</ele>
        <time>2020-05-22T09:39:39.855Z</time>
      </trkpt>
      <trkpt lat="44.85634" lon="5.42541">
        <ele>1176</ele>
        <time>2020-05-22T09:39:40.855Z</time>
      </trkpt>
      <trkpt lat="44.85636" lon="5.42539">
        <ele>1177</ele>
        <time>2020-05-22T09:39:41.855Z</time>
      </trkpt>
      <trkpt lat="44.85636" lon="5.42537">
        <ele>1177</ele>
        <time>2020-05-22T09:39:42.855Z</time>
      </trkpt>
      <trkpt lat="44.85637" lon="5.42536">
        <ele>1177</ele>
        <time>2020-05-22T09:39:43.855Z</time>
      </trkpt>
      <trkpt lat="44.85637" lon="5.42534">
        <ele>1177</ele>
        <time>2020-05-22T09:39:44.854Z</time>
      </trkpt>
      <trkpt lat="44.85638" lon="5.42532">
        <ele>1176</ele>
        <time>2020-05-22T09:39:45.854Z</time>
      </trkpt>
      <trkpt lat="44.85639" lon="5.4253">
        <ele>1176</ele>
        <time>2020-05-22T09:39:46.854Z</time>
      </trkpt>
      <trkpt lat="44.85639" lon="5.42528">
        <ele>1176</ele>
        <time>2020-05-22T09:39:47.854Z</time>
      </trkpt>
      <trkpt lat="44.85638" lon="5.42527">
        <ele>1176</ele>
        <time>2020-05-22T09:39:48.855Z</time>
      </trkpt>
      <trkpt lat="44.85639" lon="5.42524">
        <ele>1176</ele>
        <time>2020-05-22T09:39:49.855Z</time>
      </trkpt>
      <trkpt lat="44.85639" lon="5.42523">
        <ele>1176</ele>
        <time>2020-05-22T09:39:50.855Z</time>
      </trkpt>
      <trkpt lat="44.85639" lon="5.42522">
        <ele>1177</ele>
        <time>2020-05-22T09:39:51.854Z</time>
      </trkpt>
      <trkpt lat="44.85639" lon="5.4252">
        <ele>1177</ele>
        <time>2020-05-22T09:39:52.854Z</time>
      </trkpt>
      <trkpt lat="44.8564" lon="5.42519">
        <ele>1177</ele>
        <time>2020-05-22T09:39:53.855Z</time>
      </trkpt>
      <trkpt lat="44.85639" lon="5.42517">
        <ele>1176</ele>
        <time>2020-05-22T09:39:54.854Z</time>
      </trkpt>
      <trkpt lat="44.85639" lon="5.42515">
        <ele>1176</ele>
        <time>2020-05-22T09:39:55.854Z</time>
      </trkpt>
      <trkpt lat="44.85639" lon="5.42513">
        <ele>1176</ele>
        <time>2020-05-22T09:39:56.855Z</time>
      </trkpt>
      <trkpt lat="44.85639" lon="5.42511">
        <ele>1176</ele>
        <time>2020-05-22T09:39:57.854Z</time>
      </trkpt>
      <trkpt lat="44.85639" lon="5.42509">
        <ele>1176</ele>
        <time>2020-05-22T09:39:58.855Z</time>
      </trkpt>
      <trkpt lat="44.85639" lon="5.42506">
        <ele>1175</ele>
        <time>2020-05-22T09:39:59.855Z</time>
      </trkpt>
      <trkpt lat="44.85638" lon="5.42504">
        <ele>1175</ele>
        <time>2020-05-22T09:40:00.854Z</time>
      </trkpt>
      <trkpt lat="44.85638" lon="5.42502">
        <ele>1175</ele>
        <time>2020-05-22T09:40:01.855Z</time>
      </trkpt>
      <trkpt lat="44.85638" lon="5.42499">
        <ele>1175</ele>
        <time>2020-05-22T09:40:02.855Z</time>
      </trkpt>
      <trkpt lat="44.85637" lon="5.42497">
        <ele>1174</ele>
        <time>2020-05-22T09:40:03.855Z</time>
      </trkpt>
      <trkpt lat="44.85637" lon="5.42493">
        <ele>1174</ele>
        <time>2020-05-22T09:40:04.855Z</time>
      </trkpt>
      <trkpt lat="44.85636" lon="5.4249">
        <ele>1173</ele>
        <time>2020-05-22T09:40:05.855Z</time>
      </trkpt>
      <trkpt lat="44.85636" lon="5.42487">
        <ele>1173</ele>
        <time>2020-05-22T09:40:06.854Z</time>
      </trkpt>
      <trkpt lat="44.85635" lon="5.42484">
        <ele>1173</ele>
        <time>2020-05-22T09:40:07.855Z</time>
      </trkpt>
      <trkpt lat="44.85634" lon="5.42481">
        <ele>1173</ele>
        <time>2020-05-22T09:40:08.855Z</time>
      </trkpt>
      <trkpt lat="44.85634" lon="5.42478">
        <ele>1173</ele>
        <time>2020-05-22T09:40:09.855Z</time>
      </trkpt>
      <trkpt lat="44.85632" lon="5.42475">
        <ele>1173</ele>
        <time>2020-05-22T09:40:10.855Z</time>
      </trkpt>
      <trkpt lat="44.85631" lon="5.42473">
        <ele>1173</ele>
        <time>2020-05-22T09:40:11.855Z</time>
      </trkpt>
      <trkpt lat="44.85629" lon="5.42471">
        <ele>1173</ele>
        <time>2020-05-22T09:40:12.854Z</time>
      </trkpt>
      <trkpt lat="44.85628" lon="5.42468">
        <ele>1173</ele>
        <time>2020-05-22T09:40:13.855Z</time>
      </trkpt>
      <trkpt lat="44.85627" lon="5.42466">
        <ele>1173</ele>
        <time>2020-05-22T09:40:14.855Z</time>
      </trkpt>
      <trkpt lat="44.85625" lon="5.42463">
        <ele>1173</ele>
        <time>2020-05-22T09:40:15.855Z</time>
      </trkpt>
      <trkpt lat="44.85624" lon="5.42462">
        <ele>1173</ele>
        <time>2020-05-22T09:40:16.855Z</time>
      </trkpt>
      <trkpt lat="44.85622" lon="5.4246">
        <ele>1173</ele>
        <time>2020-05-22T09:40:17.854Z</time>
      </trkpt>
      <trkpt lat="44.8562" lon="5.42458">
        <ele>1173</ele>
        <time>2020-05-22T09:40:18.855Z</time>
      </trkpt>
      <trkpt lat="44.85619" lon="5.42455">
        <ele>1172</ele>
        <time>2020-05-22T09:40:19.854Z</time>
      </trkpt>
      <trkpt lat="44.85618" lon="5.4245">
        <ele>1173</ele>
        <time>2020-05-22T09:40:20.854Z</time>
      </trkpt>
      <trkpt lat="44.85617" lon="5.42448">
        <ele>1173</ele>
        <time>2020-05-22T09:40:21.855Z</time>
      </trkpt>
      <trkpt lat="44.85616" lon="5.42446">
        <ele>1173</ele>
        <time>2020-05-22T09:40:22.855Z</time>
      </trkpt>
      <trkpt lat="44.85615" lon="5.42444">
        <ele>1174</ele>
        <time>2020-05-22T09:40:23.854Z</time>
      </trkpt>
      <trkpt lat="44.85613" lon="5.42442">
        <ele>1175</ele>
        <time>2020-05-22T09:40:24.855Z</time>
      </trkpt>
      <trkpt lat="44.85612" lon="5.42439">
        <ele>1175</ele>
        <time>2020-05-22T09:40:25.855Z</time>
      </trkpt>
      <trkpt lat="44.8561" lon="5.42436">
        <ele>1176</ele>
        <time>2020-05-22T09:40:26.855Z</time>
      </trkpt>
      <trkpt lat="44.85607" lon="5.42435">
        <ele>1176</ele>
        <time>2020-05-22T09:40:27.855Z</time>
      </trkpt>
      <trkpt lat="44.85606" lon="5.42433">
        <ele>1176</ele>
        <time>2020-05-22T09:40:28.855Z</time>
      </trkpt>
      <trkpt lat="44.85605" lon="5.42431">
        <ele>1176</ele>
        <time>2020-05-22T09:40:29.854Z</time>
      </trkpt>
      <trkpt lat="44.85603" lon="5.42428">
        <ele>1177</ele>
        <time>2020-05-22T09:40:30.855Z</time>
      </trkpt>
      <trkpt lat="44.85601" lon="5.42426">
        <ele>1177</ele>
        <time>2020-05-22T09:40:31.855Z</time>
      </trkpt>
      <trkpt lat="44.85599" lon="5.42424">
        <ele>1177</ele>
        <time>2020-05-22T09:40:32.855Z</time>
      </trkpt>
      <trkpt lat="44.85596" lon="5.42423">
        <ele>1177</ele>
        <time>2020-05-22T09:40:33.855Z</time>
      </trkpt>
      <trkpt lat="44.85595" lon="5.42421">
        <ele>1176</ele>
        <time>2020-05-22T09:40:34.854Z</time>
      </trkpt>
      <trkpt lat="44.85593" lon="5.42419">
        <ele>1176</ele>
        <time>2020-05-22T09:40:35.854Z</time>
      </trkpt>
      <trkpt lat="44.85592" lon="5.42418">
        <ele>1175</ele>
        <time>2020-05-22T09:40:36.855Z</time>
      </trkpt>
      <trkpt lat="44.85591" lon="5.42416">
        <ele>1175</ele>
        <time>2020-05-22T09:40:37.855Z</time>
      </trkpt>
      <trkpt lat="44.85589" lon="5.42414">
        <ele>1174</ele>
        <time>2020-05-22T09:40:38.854Z</time>
      </trkpt>
      <trkpt lat="44.85588" lon="5.42412">
        <ele>1174</ele>
        <time>2020-05-22T09:40:39.854Z</time>
      </trkpt>
      <trkpt lat="44.85587" lon="5.42409">
        <ele>1174</ele>
        <time>2020-05-22T09:40:40.855Z</time>
      </trkpt>
      <trkpt lat="44.85585" lon="5.42407">
        <ele>1173</ele>
        <time>2020-05-22T09:40:41.855Z</time>
      </trkpt>
      <trkpt lat="44.85584" lon="5.42406">
        <ele>1173</ele>
        <time>2020-05-22T09:40:42.855Z</time>
      </trkpt>
      <trkpt lat="44.85582" lon="5.42405">
        <ele>1173</ele>
        <time>2020-05-22T09:40:43.854Z</time>
      </trkpt>
      <trkpt lat="44.85581" lon="5.42402">
        <ele>1172</ele>
        <time>2020-05-22T09:40:44.855Z</time>
      </trkpt>
      <trkpt lat="44.8558" lon="5.42399">
        <ele>1172</ele>
        <time>2020-05-22T09:40:45.855Z</time>
      </trkpt>
      <trkpt lat="44.85579" lon="5.42395">
        <ele>1172</ele>
        <time>2020-05-22T09:40:46.855Z</time>
      </trkpt>
      <trkpt lat="44.85577" lon="5.42396">
        <ele>1172</ele>
        <time>2020-05-22T09:40:47.855Z</time>
      </trkpt>
      <trkpt lat="44.85575" lon="5.42396">
        <ele>1172</ele>
        <time>2020-05-22T09:40:48.855Z</time>
      </trkpt>
      <trkpt lat="44.85573" lon="5.42395">
        <ele>1172</ele>
        <time>2020-05-22T09:40:49.855Z</time>
      </trkpt>
      <trkpt lat="44.85573" lon="5.42396">
        <ele>1172</ele>
        <time>2020-05-22T09:40:50.855Z</time>
      </trkpt>
      <trkpt lat="44.85573" lon="5.42395">
        <ele>1172</ele>
        <time>2020-05-22T09:40:51.855Z</time>
      </trkpt>
      <trkpt lat="44.85571" lon="5.42394">
        <ele>1173</ele>
        <time>2020-05-22T09:40:52.854Z</time>
      </trkpt>
      <trkpt lat="44.85569" lon="5.42392">
        <ele>1174</ele>
        <time>2020-05-22T09:40:53.854Z</time>
      </trkpt>
      <trkpt lat="44.85568" lon="5.4239">
        <ele>1175</ele>
        <time>2020-05-22T09:40:54.855Z</time>
      </trkpt>
      <trkpt lat="44.85567" lon="5.42389">
        <ele>1175</ele>
        <time>2020-05-22T09:40:55.854Z</time>
      </trkpt>
      <trkpt lat="44.85565" lon="5.42389">
        <ele>1176</ele>
        <time>2020-05-22T09:40:56.854Z</time>
      </trkpt>
      <trkpt lat="44.85563" lon="5.42389">
        <ele>1176</ele>
        <time>2020-05-22T09:40:57.855Z</time>
      </trkpt>
      <trkpt lat="44.85562" lon="5.42389">
        <ele>1176</ele>
        <time>2020-05-22T09:40:58.854Z</time>
      </trkpt>
      <trkpt lat="44.85559" lon="5.42387">
        <ele>1176</ele>
        <time>2020-05-22T09:40:59.855Z</time>
      </trkpt>
      <trkpt lat="44.85558" lon="5.42386">
        <ele>1177</ele>
        <time>2020-05-22T09:41:00.855Z</time>
      </trkpt>
      <trkpt lat="44.85557" lon="5.42384">
        <ele>1177</ele>
        <time>2020-05-22T09:41:01.854Z</time>
      </trkpt>
      <trkpt lat="44.85556" lon="5.42384">
        <ele>1178</ele>
        <time>2020-05-22T09:41:02.854Z</time>
      </trkpt>
      <trkpt lat="44.85554" lon="5.42383">
        <ele>1178</ele>
        <time>2020-05-22T09:41:03.855Z</time>
      </trkpt>
      <trkpt lat="44.85553" lon="5.42382">
        <ele>1178</ele>
        <time>2020-05-22T09:41:04.854Z</time>
      </trkpt>
      <trkpt lat="44.85551" lon="5.42381">
        <ele>1179</ele>
        <time>2020-05-22T09:41:05.855Z</time>
      </trkpt>
      <trkpt lat="44.8555" lon="5.42381">
        <ele>1179</ele>
        <time>2020-05-22T09:41:06.855Z</time>
      </trkpt>
      <trkpt lat="44.85548" lon="5.4238">
        <ele>1179</ele>
        <time>2020-05-22T09:41:07.855Z</time>
      </trkpt>
      <trkpt lat="44.85547" lon="5.4238">
        <ele>1179</ele>
        <time>2020-05-22T09:41:08.855Z</time>
      </trkpt>
      <trkpt lat="44.85546" lon="5.42379">
        <ele>1178</ele>
        <time>2020-05-22T09:41:09.855Z</time>
      </trkpt>
      <trkpt lat="44.85544" lon="5.42378">
        <ele>1178</ele>
        <time>2020-05-22T09:41:10.855Z</time>
      </trkpt>
      <trkpt lat="44.85543" lon="5.42378">
        <ele>1178</ele>
        <time>2020-05-22T09:41:11.854Z</time>
      </trkpt>
      <trkpt lat="44.85542" lon="5.42376">
        <ele>1178</ele>
        <time>2020-05-22T09:41:12.855Z</time>
      </trkpt>
      <trkpt lat="44.85541" lon="5.42375">
        <ele>1178</ele>
        <time>2020-05-22T09:41:13.854Z</time>
      </trkpt>
      <trkpt lat="44.8554" lon="5.42374">
        <ele>1178</ele>
        <time>2020-05-22T09:41:14.855Z</time>
      </trkpt>
      <trkpt lat="44.8554" lon="5.42372">
        <ele>1178</ele>
        <time>2020-05-22T09:41:15.855Z</time>
      </trkpt>
      <trkpt lat="44.85538" lon="5.42371">
        <ele>1178</ele>
        <time>2020-05-22T09:41:16.855Z</time>
      </trkpt>
      <trkpt lat="44.85537" lon="5.4237">
        <ele>1178</ele>
        <time>2020-05-22T09:41:17.855Z</time>
      </trkpt>
      <trkpt lat="44.85537" lon="5.42368">
        <ele>1178</ele>
        <time>2020-05-22T09:41:18.855Z</time>
      </trkpt>
      <trkpt lat="44.85535" lon="5.42367">
        <ele>1178</ele>
        <time>2020-05-22T09:41:19.854Z</time>
      </trkpt>
      <trkpt lat="44.85534" lon="5.42366">
        <ele>1178</ele>
        <time>2020-05-22T09:41:20.855Z</time>
      </trkpt>
      <trkpt lat="44.85533" lon="5.42365">
        <ele>1179</ele>
        <time>2020-05-22T09:41:21.854Z</time>
      </trkpt>
      <trkpt lat="44.85532" lon="5.42364">
        <ele>1179</ele>
        <time>2020-05-22T09:41:22.855Z</time>
      </trkpt>
      <trkpt lat="44.85531" lon="5.42362">
        <ele>1180</ele>
        <time>2020-05-22T09:41:23.854Z</time>
      </trkpt>
      <trkpt lat="44.8553" lon="5.42361">
        <ele>1181</ele>
        <time>2020-05-22T09:41:24.855Z</time>
      </trkpt>
      <trkpt lat="44.85528" lon="5.4236">
        <ele>1182</ele>
        <time>2020-05-22T09:41:25.855Z</time>
      </trkpt>
      <trkpt lat="44.85527" lon="5.42359">
        <ele>1182</ele>
        <time>2020-05-22T09:41:26.855Z</time>
      </trkpt>
      <trkpt lat="44.85526" lon="5.42358">
        <ele>1183</ele>
        <time>2020-05-22T09:41:27.855Z</time>
      </trkpt>
      <trkpt lat="44.85525" lon="5.42356">
        <ele>1184</ele>
        <time>2020-05-22T09:41:28.854Z</time>
      </trkpt>
      <trkpt lat="44.85524" lon="5.42354">
        <ele>1185</ele>
        <time>2020-05-22T09:41:29.855Z</time>
      </trkpt>
      <trkpt lat="44.85522" lon="5.42352">
        <ele>1185</ele>
        <time>2020-05-22T09:41:30.855Z</time>
      </trkpt>
      <trkpt lat="44.85521" lon="5.42351">
        <ele>1185</ele>
        <time>2020-05-22T09:41:31.854Z</time>
      </trkpt>
      <trkpt lat="44.8552" lon="5.42349">
        <ele>1185</ele>
        <time>2020-05-22T09:41:32.855Z</time>
      </trkpt>
      <trkpt lat="44.85518" lon="5.42348">
        <ele>1185</ele>
        <time>2020-05-22T09:41:33.855Z</time>
      </trkpt>
      <trkpt lat="44.85517" lon="5.42346">
        <ele>1185</ele>
        <time>2020-05-22T09:41:34.854Z</time>
      </trkpt>
      <trkpt lat="44.85516" lon="5.42344">
        <ele>1185</ele>
        <time>2020-05-22T09:41:35.855Z</time>
      </trkpt>
      <trkpt lat="44.85515" lon="5.42342">
        <ele>1185</ele>
        <time>2020-05-22T09:41:36.855Z</time>
      </trkpt>
      <trkpt lat="44.85514" lon="5.42341">
        <ele>1184</ele>
        <time>2020-05-22T09:41:37.855Z</time>
      </trkpt>
      <trkpt lat="44.85512" lon="5.42339">
        <ele>1184</ele>
        <time>2020-05-22T09:41:38.855Z</time>
      </trkpt>
      <trkpt lat="44.85511" lon="5.42337">
        <ele>1184</ele>
        <time>2020-05-22T09:41:39.855Z</time>
      </trkpt>
      <trkpt lat="44.8551" lon="5.42336">
        <ele>1184</ele>
        <time>2020-05-22T09:41:40.855Z</time>
      </trkpt>
      <trkpt lat="44.85509" lon="5.42334">
        <ele>1184</ele>
        <time>2020-05-22T09:41:41.855Z</time>
      </trkpt>
      <trkpt lat="44.85507" lon="5.42333">
        <ele>1183</ele>
        <time>2020-05-22T09:41:42.855Z</time>
      </trkpt>
      <trkpt lat="44.85506" lon="5.42331">
        <ele>1183</ele>
        <time>2020-05-22T09:41:43.854Z</time>
      </trkpt>
      <trkpt lat="44.85505" lon="5.4233">
        <ele>1183</ele>
        <time>2020-05-22T09:41:44.855Z</time>
      </trkpt>
      <trkpt lat="44.85504" lon="5.42328">
        <ele>1183</ele>
        <time>2020-05-22T09:41:45.855Z</time>
      </trkpt>
      <trkpt lat="44.85503" lon="5.42328">
        <ele>1182</ele>
        <time>2020-05-22T09:41:46.854Z</time>
      </trkpt>
      <trkpt lat="44.85502" lon="5.42327">
        <ele>1182</ele>
        <time>2020-05-22T09:41:47.855Z</time>
      </trkpt>
      <trkpt lat="44.85501" lon="5.42326">
        <ele>1182</ele>
        <time>2020-05-22T09:41:48.855Z</time>
      </trkpt>
      <trkpt lat="44.855" lon="5.42324">
        <ele>1182</ele>
        <time>2020-05-22T09:41:49.855Z</time>
      </trkpt>
      <trkpt lat="44.85499" lon="5.42322">
        <ele>1183</ele>
        <time>2020-05-22T09:41:50.855Z</time>
      </trkpt>
      <trkpt lat="44.85497" lon="5.42319">
        <ele>1184</ele>
        <time>2020-05-22T09:41:51.855Z</time>
      </trkpt>
      <trkpt lat="44.85497" lon="5.42318">
        <ele>1185</ele>
        <time>2020-05-22T09:41:52.855Z</time>
      </trkpt>
      <trkpt lat="44.85496" lon="5.42317">
        <ele>1186</ele>
        <time>2020-05-22T09:41:53.855Z</time>
      </trkpt>
      <trkpt lat="44.85493" lon="5.42317">
        <ele>1187</ele>
        <time>2020-05-22T09:41:54.855Z</time>
      </trkpt>
      <trkpt lat="44.85492" lon="5.42315">
        <ele>1187</ele>
        <time>2020-05-22T09:41:55.855Z</time>
      </trkpt>
      <trkpt lat="44.85491" lon="5.42313">
        <ele>1187</ele>
        <time>2020-05-22T09:41:56.855Z</time>
      </trkpt>
      <trkpt lat="44.8549" lon="5.42313">
        <ele>1187</ele>
        <time>2020-05-22T09:41:57.855Z</time>
      </trkpt>
      <trkpt lat="44.85488" lon="5.42312">
        <ele>1187</ele>
        <time>2020-05-22T09:41:58.855Z</time>
      </trkpt>
      <trkpt lat="44.85486" lon="5.42313">
        <ele>1187</ele>
        <time>2020-05-22T09:41:59.855Z</time>
      </trkpt>
      <trkpt lat="44.85485" lon="5.42312">
        <ele>1187</ele>
        <time>2020-05-22T09:42:00.855Z</time>
      </trkpt>
      <trkpt lat="44.85484" lon="5.42313">
        <ele>1187</ele>
        <time>2020-05-22T09:42:01.855Z</time>
      </trkpt>
      <trkpt lat="44.85483" lon="5.42312">
        <ele>1187</ele>
        <time>2020-05-22T09:42:02.855Z</time>
      </trkpt>
      <trkpt lat="44.85482" lon="5.42311">
        <ele>1187</ele>
        <time>2020-05-22T09:42:03.854Z</time>
      </trkpt>
      <trkpt lat="44.8548" lon="5.4231">
        <ele>1187</ele>
        <time>2020-05-22T09:42:04.854Z</time>
      </trkpt>
      <trkpt lat="44.85478" lon="5.42309">
        <ele>1188</ele>
        <time>2020-05-22T09:42:05.854Z</time>
      </trkpt>
      <trkpt lat="44.85477" lon="5.4231">
        <ele>1188</ele>
        <time>2020-05-22T09:42:06.854Z</time>
      </trkpt>
      <trkpt lat="44.85476" lon="5.4231">
        <ele>1188</ele>
        <time>2020-05-22T09:42:07.855Z</time>
      </trkpt>
      <trkpt lat="44.85474" lon="5.4231">
        <ele>1188</ele>
        <time>2020-05-22T09:42:08.855Z</time>
      </trkpt>
      <trkpt lat="44.85473" lon="5.4231">
        <ele>1188</ele>
        <time>2020-05-22T09:42:09.855Z</time>
      </trkpt>
      <trkpt lat="44.85471" lon="5.42309">
        <ele>1188</ele>
        <time>2020-05-22T09:42:10.855Z</time>
      </trkpt>
      <trkpt lat="44.8547" lon="5.42309">
        <ele>1188</ele>
        <time>2020-05-22T09:42:11.854Z</time>
      </trkpt>
      <trkpt lat="44.85469" lon="5.42309">
        <ele>1187</ele>
        <time>2020-05-22T09:42:12.855Z</time>
      </trkpt>
      <trkpt lat="44.85467" lon="5.42309">
        <ele>1187</ele>
        <time>2020-05-22T09:42:13.855Z</time>
      </trkpt>
      <trkpt lat="44.85465" lon="5.42308">
        <ele>1188</ele>
        <time>2020-05-22T09:42:14.854Z</time>
      </trkpt>
      <trkpt lat="44.85464" lon="5.42308">
        <ele>1188</ele>
        <time>2020-05-22T09:42:15.855Z</time>
      </trkpt>
      <trkpt lat="44.85462" lon="5.42308">
        <ele>1188</ele>
        <time>2020-05-22T09:42:16.854Z</time>
      </trkpt>
      <trkpt lat="44.85461" lon="5.42308">
        <ele>1188</ele>
        <time>2020-05-22T09:42:17.855Z</time>
      </trkpt>
      <trkpt lat="44.8546" lon="5.42308">
        <ele>1188</ele>
        <time>2020-05-22T09:42:18.855Z</time>
      </trkpt>
      <trkpt lat="44.85458" lon="5.42308">
        <ele>1188</ele>
        <time>2020-05-22T09:42:19.854Z</time>
      </trkpt>
      <trkpt lat="44.85457" lon="5.42308">
        <ele>1188</ele>
        <time>2020-05-22T09:42:20.854Z</time>
      </trkpt>
      <trkpt lat="44.85456" lon="5.42308">
        <ele>1188</ele>
        <time>2020-05-22T09:42:21.854Z</time>
      </trkpt>
      <trkpt lat="44.85454" lon="5.42307">
        <ele>1188</ele>
        <time>2020-05-22T09:42:22.854Z</time>
      </trkpt>
      <trkpt lat="44.85453" lon="5.42307">
        <ele>1189</ele>
        <time>2020-05-22T09:42:23.854Z</time>
      </trkpt>
      <trkpt lat="44.85451" lon="5.42307">
        <ele>1189</ele>
        <time>2020-05-22T09:42:24.854Z</time>
      </trkpt>
      <trkpt lat="44.8545" lon="5.42306">
        <ele>1190</ele>
        <time>2020-05-22T09:42:25.854Z</time>
      </trkpt>
      <trkpt lat="44.85449" lon="5.42306">
        <ele>1190</ele>
        <time>2020-05-22T09:42:26.855Z</time>
      </trkpt>
      <trkpt lat="44.85447" lon="5.42306">
        <ele>1190</ele>
        <time>2020-05-22T09:42:27.855Z</time>
      </trkpt>
      <trkpt lat="44.85446" lon="5.42306">
        <ele>1190</ele>
        <time>2020-05-22T09:42:28.854Z</time>
      </trkpt>
      <trkpt lat="44.85444" lon="5.42306">
        <ele>1191</ele>
        <time>2020-05-22T09:42:29.855Z</time>
      </trkpt>
      <trkpt lat="44.85443" lon="5.42306">
        <ele>1191</ele>
        <time>2020-05-22T09:42:30.855Z</time>
      </trkpt>
      <trkpt lat="44.85442" lon="5.42305">
        <ele>1191</ele>
        <time>2020-05-22T09:42:31.854Z</time>
      </trkpt>
      <trkpt lat="44.8544" lon="5.42305">
        <ele>1191</ele>
        <time>2020-05-22T09:42:32.854Z</time>
      </trkpt>
      <trkpt lat="44.85438" lon="5.42306">
        <ele>1192</ele>
        <time>2020-05-22T09:42:33.855Z</time>
      </trkpt>
      <trkpt lat="44.85437" lon="5.42305">
        <ele>1192</ele>
        <time>2020-05-22T09:42:34.855Z</time>
      </trkpt>
      <trkpt lat="44.85435" lon="5.42305">
        <ele>1192</ele>
        <time>2020-05-22T09:42:35.855Z</time>
      </trkpt>
      <trkpt lat="44.85434" lon="5.42305">
        <ele>1193</ele>
        <time>2020-05-22T09:42:36.854Z</time>
      </trkpt>
      <trkpt lat="44.85432" lon="5.42305">
        <ele>1193</ele>
        <time>2020-05-22T09:42:37.855Z</time>
      </trkpt>
      <trkpt lat="44.85431" lon="5.42305">
        <ele>1194</ele>
        <time>2020-05-22T09:42:38.855Z</time>
      </trkpt>
      <trkpt lat="44.85429" lon="5.42305">
        <ele>1194</ele>
        <time>2020-05-22T09:42:39.854Z</time>
      </trkpt>
      <trkpt lat="44.85428" lon="5.42305">
        <ele>1195</ele>
        <time>2020-05-22T09:42:40.855Z</time>
      </trkpt>
      <trkpt lat="44.85426" lon="5.42305">
        <ele>1195</ele>
        <time>2020-05-22T09:42:41.854Z</time>
      </trkpt>
      <trkpt lat="44.85425" lon="5.42304">
        <ele>1196</ele>
        <time>2020-05-22T09:42:42.855Z</time>
      </trkpt>
      <trkpt lat="44.85424" lon="5.42304">
        <ele>1196</ele>
        <time>2020-05-22T09:42:43.855Z</time>
      </trkpt>
      <trkpt lat="44.85422" lon="5.42305">
        <ele>1196</ele>
        <time>2020-05-22T09:42:44.855Z</time>
      </trkpt>
      <trkpt lat="44.85421" lon="5.42305">
        <ele>1196</ele>
        <time>2020-05-22T09:42:45.855Z</time>
      </trkpt>
      <trkpt lat="44.8542" lon="5.42306">
        <ele>1196</ele>
        <time>2020-05-22T09:42:46.855Z</time>
      </trkpt>
      <trkpt lat="44.85419" lon="5.42306">
        <ele>1196</ele>
        <time>2020-05-22T09:42:47.854Z</time>
      </trkpt>
      <trkpt lat="44.85418" lon="5.42307">
        <ele>1195</ele>
        <time>2020-05-22T09:42:48.855Z</time>
      </trkpt>
      <trkpt lat="44.85417" lon="5.42307">
        <ele>1195</ele>
        <time>2020-05-22T09:42:49.855Z</time>
      </trkpt>
      <trkpt lat="44.85415" lon="5.42308">
        <ele>1195</ele>
        <time>2020-05-22T09:42:50.855Z</time>
      </trkpt>
      <trkpt lat="44.85414" lon="5.42308">
        <ele>1194</ele>
        <time>2020-05-22T09:42:51.855Z</time>
      </trkpt>
      <trkpt lat="44.85413" lon="5.42308">
        <ele>1194</ele>
        <time>2020-05-22T09:42:52.854Z</time>
      </trkpt>
      <trkpt lat="44.85411" lon="5.42307">
        <ele>1194</ele>
        <time>2020-05-22T09:42:53.855Z</time>
      </trkpt>
      <trkpt lat="44.8541" lon="5.42307">
        <ele>1194</ele>
        <time>2020-05-22T09:42:54.855Z</time>
      </trkpt>
      <trkpt lat="44.85408" lon="5.42307">
        <ele>1194</ele>
        <time>2020-05-22T09:42:55.855Z</time>
      </trkpt>
      <trkpt lat="44.85407" lon="5.42307">
        <ele>1195</ele>
        <time>2020-05-22T09:42:56.855Z</time>
      </trkpt>
      <trkpt lat="44.85406" lon="5.42307">
        <ele>1195</ele>
        <time>2020-05-22T09:42:57.855Z</time>
      </trkpt>
      <trkpt lat="44.85405" lon="5.42307">
        <ele>1195</ele>
        <time>2020-05-22T09:42:58.854Z</time>
      </trkpt>
      <trkpt lat="44.85404" lon="5.42307">
        <ele>1195</ele>
        <time>2020-05-22T09:42:59.855Z</time>
      </trkpt>
      <trkpt lat="44.85403" lon="5.42308">
        <ele>1195</ele>
        <time>2020-05-22T09:43:00.855Z</time>
      </trkpt>
      <trkpt lat="44.85402" lon="5.42308">
        <ele>1195</ele>
        <time>2020-05-22T09:43:01.855Z</time>
      </trkpt>
      <trkpt lat="44.854" lon="5.42308">
        <ele>1195</ele>
        <time>2020-05-22T09:43:02.855Z</time>
      </trkpt>
      <trkpt lat="44.85399" lon="5.42308">
        <ele>1194</ele>
        <time>2020-05-22T09:43:03.854Z</time>
      </trkpt>
      <trkpt lat="44.85398" lon="5.42309">
        <ele>1194</ele>
        <time>2020-05-22T09:43:04.855Z</time>
      </trkpt>
      <trkpt lat="44.85396" lon="5.42309">
        <ele>1194</ele>
        <time>2020-05-22T09:43:05.854Z</time>
      </trkpt>
      <trkpt lat="44.85395" lon="5.42308">
        <ele>1195</ele>
        <time>2020-05-22T09:43:06.854Z</time>
      </trkpt>
      <trkpt lat="44.85394" lon="5.42308">
        <ele>1195</ele>
        <time>2020-05-22T09:43:07.855Z</time>
      </trkpt>
      <trkpt lat="44.85392" lon="5.42308">
        <ele>1196</ele>
        <time>2020-05-22T09:43:08.855Z</time>
      </trkpt>
      <trkpt lat="44.85391" lon="5.42308">
        <ele>1196</ele>
        <time>2020-05-22T09:43:09.854Z</time>
      </trkpt>
      <trkpt lat="44.85389" lon="5.42308">
        <ele>1196</ele>
        <time>2020-05-22T09:43:10.854Z</time>
      </trkpt>
      <trkpt lat="44.85388" lon="5.42309">
        <ele>1197</ele>
        <time>2020-05-22T09:43:11.855Z</time>
      </trkpt>
      <trkpt lat="44.85386" lon="5.42309">
        <ele>1197</ele>
        <time>2020-05-22T09:43:12.854Z</time>
      </trkpt>
      <trkpt lat="44.85385" lon="5.42309">
        <ele>1198</ele>
        <time>2020-05-22T09:43:13.855Z</time>
      </trkpt>
      <trkpt lat="44.85384" lon="5.42308">
        <ele>1199</ele>
        <time>2020-05-22T09:43:14.854Z</time>
      </trkpt>
      <trkpt lat="44.85383" lon="5.42308">
        <ele>1200</ele>
        <time>2020-05-22T09:43:15.854Z</time>
      </trkpt>
      <trkpt lat="44.85381" lon="5.42308">
        <ele>1201</ele>
        <time>2020-05-22T09:43:16.855Z</time>
      </trkpt>
      <trkpt lat="44.8538" lon="5.42308">
        <ele>1202</ele>
        <time>2020-05-22T09:43:17.855Z</time>
      </trkpt>
      <trkpt lat="44.85378" lon="5.42308">
        <ele>1203</ele>
        <time>2020-05-22T09:43:18.855Z</time>
      </trkpt>
      <trkpt lat="44.85376" lon="5.42307">
        <ele>1203</ele>
        <time>2020-05-22T09:43:19.854Z</time>
      </trkpt>
      <trkpt lat="44.85375" lon="5.42306">
        <ele>1203</ele>
        <time>2020-05-22T09:43:20.855Z</time>
      </trkpt>
      <trkpt lat="44.85373" lon="5.42306">
        <ele>1203</ele>
        <time>2020-05-22T09:43:21.855Z</time>
      </trkpt>
      <trkpt lat="44.85372" lon="5.42305">
        <ele>1203</ele>
        <time>2020-05-22T09:43:22.855Z</time>
      </trkpt>
      <trkpt lat="44.8537" lon="5.42304">
        <ele>1202</ele>
        <time>2020-05-22T09:43:23.855Z</time>
      </trkpt>
      <trkpt lat="44.85369" lon="5.42304">
        <ele>1202</ele>
        <time>2020-05-22T09:43:24.855Z</time>
      </trkpt>
      <trkpt lat="44.85367" lon="5.42303">
        <ele>1201</ele>
        <time>2020-05-22T09:43:25.854Z</time>
      </trkpt>
      <trkpt lat="44.85366" lon="5.42302">
        <ele>1200</ele>
        <time>2020-05-22T09:43:26.855Z</time>
      </trkpt>
      <trkpt lat="44.85364" lon="5.423">
        <ele>1200</ele>
        <time>2020-05-22T09:43:27.855Z</time>
      </trkpt>
      <trkpt lat="44.85363" lon="5.42298">
        <ele>1199</ele>
        <time>2020-05-22T09:43:28.855Z</time>
      </trkpt>
      <trkpt lat="44.85363" lon="5.42296">
        <ele>1199</ele>
        <time>2020-05-22T09:43:29.854Z</time>
      </trkpt>
      <trkpt lat="44.85362" lon="5.42294">
        <ele>1198</ele>
        <time>2020-05-22T09:43:30.855Z</time>
      </trkpt>
      <trkpt lat="44.85362" lon="5.42292">
        <ele>1198</ele>
        <time>2020-05-22T09:43:31.855Z</time>
      </trkpt>
      <trkpt lat="44.85361" lon="5.4229">
        <ele>1198</ele>
        <time>2020-05-22T09:43:32.855Z</time>
      </trkpt>
      <trkpt lat="44.85361" lon="5.42288">
        <ele>1197</ele>
        <time>2020-05-22T09:43:33.855Z</time>
      </trkpt>
      <trkpt lat="44.8536" lon="5.42285">
        <ele>1197</ele>
        <time>2020-05-22T09:43:34.855Z</time>
      </trkpt>
      <trkpt lat="44.8536" lon="5.42283">
        <ele>1197</ele>
        <time>2020-05-22T09:43:35.855Z</time>
      </trkpt>
      <trkpt lat="44.85359" lon="5.42281">
        <ele>1196</ele>
        <time>2020-05-22T09:43:36.855Z</time>
      </trkpt>
      <trkpt lat="44.85359" lon="5.42279">
        <ele>1195</ele>
        <time>2020-05-22T09:43:37.855Z</time>
      </trkpt>
      <trkpt lat="44.85358" lon="5.42277">
        <ele>1195</ele>
        <time>2020-05-22T09:43:38.854Z</time>
      </trkpt>
      <trkpt lat="44.85358" lon="5.42275">
        <ele>1195</ele>
        <time>2020-05-22T09:43:39.855Z</time>
      </trkpt>
      <trkpt lat="44.85358" lon="5.42273">
        <ele>1195</ele>
        <time>2020-05-22T09:43:40.855Z</time>
      </trkpt>
      <trkpt lat="44.85357" lon="5.42271">
        <ele>1195</ele>
        <time>2020-05-22T09:43:41.855Z</time>
      </trkpt>
      <trkpt lat="44.85356" lon="5.42269">
        <ele>1195</ele>
        <time>2020-05-22T09:43:42.855Z</time>
      </trkpt>
      <trkpt lat="44.85356" lon="5.42267">
        <ele>1195</ele>
        <time>2020-05-22T09:43:43.855Z</time>
      </trkpt>
      <trkpt lat="44.85355" lon="5.42266">
        <ele>1195</ele>
        <time>2020-05-22T09:43:44.855Z</time>
      </trkpt>
      <trkpt lat="44.85354" lon="5.42264">
        <ele>1195</ele>
        <time>2020-05-22T09:43:45.854Z</time>
      </trkpt>
      <trkpt lat="44.85353" lon="5.42263">
        <ele>1195</ele>
        <time>2020-05-22T09:43:46.854Z</time>
      </trkpt>
      <trkpt lat="44.85352" lon="5.42262">
        <ele>1195</ele>
        <time>2020-05-22T09:43:47.855Z</time>
      </trkpt>
      <trkpt lat="44.85351" lon="5.42261">
        <ele>1196</ele>
        <time>2020-05-22T09:43:48.855Z</time>
      </trkpt>
      <trkpt lat="44.8535" lon="5.42259">
        <ele>1196</ele>
        <time>2020-05-22T09:43:49.855Z</time>
      </trkpt>
      <trkpt lat="44.85348" lon="5.42259">
        <ele>1196</ele>
        <time>2020-05-22T09:43:50.855Z</time>
      </trkpt>
      <trkpt lat="44.85347" lon="5.42258">
        <ele>1197</ele>
        <time>2020-05-22T09:43:51.854Z</time>
      </trkpt>
      <trkpt lat="44.85346" lon="5.42257">
        <ele>1197</ele>
        <time>2020-05-22T09:43:52.855Z</time>
      </trkpt>
      <trkpt lat="44.85344" lon="5.42256">
        <ele>1198</ele>
        <time>2020-05-22T09:43:53.855Z</time>
      </trkpt>
      <trkpt lat="44.85343" lon="5.42256">
        <ele>1199</ele>
        <time>2020-05-22T09:43:54.854Z</time>
      </trkpt>
      <trkpt lat="44.85341" lon="5.42256">
        <ele>1200</ele>
        <time>2020-05-22T09:43:55.855Z</time>
      </trkpt>
      <trkpt lat="44.8534" lon="5.42256">
        <ele>1201</ele>
        <time>2020-05-22T09:43:56.855Z</time>
      </trkpt>
      <trkpt lat="44.85338" lon="5.42256">
        <ele>1202</ele>
        <time>2020-05-22T09:43:57.855Z</time>
      </trkpt>
      <trkpt lat="44.85337" lon="5.42256">
        <ele>1203</ele>
        <time>2020-05-22T09:43:58.855Z</time>
      </trkpt>
      <trkpt lat="44.85335" lon="5.42256">
        <ele>1204</ele>
        <time>2020-05-22T09:43:59.855Z</time>
      </trkpt>
      <trkpt lat="44.85334" lon="5.42257">
        <ele>1204</ele>
        <time>2020-05-22T09:44:00.855Z</time>
      </trkpt>
      <trkpt lat="44.85332" lon="5.42258">
        <ele>1205</ele>
        <time>2020-05-22T09:44:01.855Z</time>
      </trkpt>
      <trkpt lat="44.8533" lon="5.42259">
        <ele>1206</ele>
        <time>2020-05-22T09:44:02.855Z</time>
      </trkpt>
      <trkpt lat="44.85329" lon="5.4226">
        <ele>1206</ele>
        <time>2020-05-22T09:44:03.854Z</time>
      </trkpt>
      <trkpt lat="44.85328" lon="5.4226">
        <ele>1207</ele>
        <time>2020-05-22T09:44:04.854Z</time>
      </trkpt>
      <trkpt lat="44.85326" lon="5.42261">
        <ele>1208</ele>
        <time>2020-05-22T09:44:05.854Z</time>
      </trkpt>
      <trkpt lat="44.85326" lon="5.42262">
        <ele>1209</ele>
        <time>2020-05-22T09:44:06.855Z</time>
      </trkpt>
      <trkpt lat="44.85326" lon="5.42262">
        <ele>1209</ele>
        <time>2020-05-22T09:44:07.855Z</time>
      </trkpt>
      <trkpt lat="44.85326" lon="5.42261">
        <ele>1210</ele>
        <time>2020-05-22T09:44:08.855Z</time>
      </trkpt>
      <trkpt lat="44.85325" lon="5.42262">
        <ele>1211</ele>
        <time>2020-05-22T09:44:09.855Z</time>
      </trkpt>
      <trkpt lat="44.85324" lon="5.42263">
        <ele>1212</ele>
        <time>2020-05-22T09:44:10.855Z</time>
      </trkpt>
      <trkpt lat="44.85323" lon="5.42264">
        <ele>1213</ele>
        <time>2020-05-22T09:44:11.855Z</time>
      </trkpt>
      <trkpt lat="44.85321" lon="5.42265">
        <ele>1214</ele>
        <time>2020-05-22T09:44:12.855Z</time>
      </trkpt>
      <trkpt lat="44.8532" lon="5.42266">
        <ele>1214</ele>
        <time>2020-05-22T09:44:13.855Z</time>
      </trkpt>
      <trkpt lat="44.85319" lon="5.42267">
        <ele>1214</ele>
        <time>2020-05-22T09:44:14.855Z</time>
      </trkpt>
      <trkpt lat="44.85319" lon="5.42268">
        <ele>1214</ele>
        <time>2020-05-22T09:44:15.855Z</time>
      </trkpt>
      <trkpt lat="44.85318" lon="5.42269">
        <ele>1215</ele>
        <time>2020-05-22T09:44:16.855Z</time>
      </trkpt>
      <trkpt lat="44.85316" lon="5.4227">
        <ele>1215</ele>
        <time>2020-05-22T09:44:17.855Z</time>
      </trkpt>
      <trkpt lat="44.85315" lon="5.42271">
        <ele>1215</ele>
        <time>2020-05-22T09:44:18.855Z</time>
      </trkpt>
      <trkpt lat="44.85314" lon="5.42272">
        <ele>1215</ele>
        <time>2020-05-22T09:44:19.854Z</time>
      </trkpt>
      <trkpt lat="44.85313" lon="5.42273">
        <ele>1215</ele>
        <time>2020-05-22T09:44:20.855Z</time>
      </trkpt>
      <trkpt lat="44.85312" lon="5.42274">
        <ele>1216</ele>
        <time>2020-05-22T09:44:21.855Z</time>
      </trkpt>
      <trkpt lat="44.85311" lon="5.42275">
        <ele>1216</ele>
        <time>2020-05-22T09:44:22.855Z</time>
      </trkpt>
      <trkpt lat="44.8531" lon="5.42276">
        <ele>1216</ele>
        <time>2020-05-22T09:44:23.854Z</time>
      </trkpt>
      <trkpt lat="44.85308" lon="5.42278">
        <ele>1217</ele>
        <time>2020-05-22T09:44:24.855Z</time>
      </trkpt>
      <trkpt lat="44.85306" lon="5.4228">
        <ele>1217</ele>
        <time>2020-05-22T09:44:25.855Z</time>
      </trkpt>
      <trkpt lat="44.85304" lon="5.42281">
        <ele>1217</ele>
        <time>2020-05-22T09:44:26.855Z</time>
      </trkpt>
      <trkpt lat="44.85302" lon="5.42283">
        <ele>1217</ele>
        <time>2020-05-22T09:44:27.854Z</time>
      </trkpt>
      <trkpt lat="44.853" lon="5.42284">
        <ele>1216</ele>
        <time>2020-05-22T09:44:28.855Z</time>
      </trkpt>
      <trkpt lat="44.85298" lon="5.42285">
        <ele>1216</ele>
        <time>2020-05-22T09:44:29.855Z</time>
      </trkpt>
      <trkpt lat="44.85296" lon="5.42286">
        <ele>1216</ele>
        <time>2020-05-22T09:44:30.855Z</time>
      </trkpt>
      <trkpt lat="44.85294" lon="5.42286">
        <ele>1216</ele>
        <time>2020-05-22T09:44:31.855Z</time>
      </trkpt>
      <trkpt lat="44.85291" lon="5.42287">
        <ele>1216</ele>
        <time>2020-05-22T09:44:32.855Z</time>
      </trkpt>
      <trkpt lat="44.85289" lon="5.42287">
        <ele>1216</ele>
        <time>2020-05-22T09:44:33.855Z</time>
      </trkpt>
      <trkpt lat="44.85287" lon="5.42287">
        <ele>1216</ele>
        <time>2020-05-22T09:44:34.855Z</time>
      </trkpt>
      <trkpt lat="44.85285" lon="5.42286">
        <ele>1216</ele>
        <time>2020-05-22T09:44:35.854Z</time>
      </trkpt>
      <trkpt lat="44.85283" lon="5.42286">
        <ele>1217</ele>
        <time>2020-05-22T09:44:36.855Z</time>
      </trkpt>
      <trkpt lat="44.85281" lon="5.42285">
        <ele>1217</ele>
        <time>2020-05-22T09:44:37.855Z</time>
      </trkpt>
      <trkpt lat="44.85279" lon="5.42284">
        <ele>1217</ele>
        <time>2020-05-22T09:44:38.854Z</time>
      </trkpt>
      <trkpt lat="44.85277" lon="5.42282">
        <ele>1217</ele>
        <time>2020-05-22T09:44:39.855Z</time>
      </trkpt>
      <trkpt lat="44.85276" lon="5.42281">
        <ele>1217</ele>
        <time>2020-05-22T09:44:40.855Z</time>
      </trkpt>
      <trkpt lat="44.85274" lon="5.42279">
        <ele>1217</ele>
        <time>2020-05-22T09:44:41.855Z</time>
      </trkpt>
      <trkpt lat="44.85272" lon="5.42278">
        <ele>1217</ele>
        <time>2020-05-22T09:44:42.855Z</time>
      </trkpt>
      <trkpt lat="44.8527" lon="5.42276">
        <ele>1217</ele>
        <time>2020-05-22T09:44:43.855Z</time>
      </trkpt>
      <trkpt lat="44.85269" lon="5.42274">
        <ele>1217</ele>
        <time>2020-05-22T09:44:44.854Z</time>
      </trkpt>
      <trkpt lat="44.85268" lon="5.42272">
        <ele>1217</ele>
        <time>2020-05-22T09:44:45.855Z</time>
      </trkpt>
      <trkpt lat="44.85267" lon="5.42269">
        <ele>1216</ele>
        <time>2020-05-22T09:44:46.854Z</time>
      </trkpt>
      <trkpt lat="44.85267" lon="5.42267">
        <ele>1216</ele>
        <time>2020-05-22T09:44:47.855Z</time>
      </trkpt>
      <trkpt lat="44.85266" lon="5.42264">
        <ele>1215</ele>
        <time>2020-05-22T09:44:48.855Z</time>
      </trkpt>
      <trkpt lat="44.85266" lon="5.42261">
        <ele>1215</ele>
        <time>2020-05-22T09:44:49.855Z</time>
      </trkpt>
      <trkpt lat="44.85265" lon="5.42259">
        <ele>1214</ele>
        <time>2020-05-22T09:44:50.854Z</time>
      </trkpt>
      <trkpt lat="44.85264" lon="5.42257">
        <ele>1214</ele>
        <time>2020-05-22T09:44:51.855Z</time>
      </trkpt>
      <trkpt lat="44.85264" lon="5.42254">
        <ele>1213</ele>
        <time>2020-05-22T09:44:52.855Z</time>
      </trkpt>
      <trkpt lat="44.85264" lon="5.42252">
        <ele>1212</ele>
        <time>2020-05-22T09:44:53.854Z</time>
      </trkpt>
      <trkpt lat="44.85263" lon="5.42249">
        <ele>1212</ele>
        <time>2020-05-22T09:44:54.854Z</time>
      </trkpt>
      <trkpt lat="44.85264" lon="5.42246">
        <ele>1211</ele>
        <time>2020-05-22T09:44:55.855Z</time>
      </trkpt>
      <trkpt lat="44.85264" lon="5.42244">
        <ele>1211</ele>
        <time>2020-05-22T09:44:56.855Z</time>
      </trkpt>
      <trkpt lat="44.85265" lon="5.42242">
        <ele>1211</ele>
        <time>2020-05-22T09:44:57.855Z</time>
      </trkpt>
      <trkpt lat="44.85265" lon="5.42241">
        <ele>1211</ele>
        <time>2020-05-22T09:44:58.855Z</time>
      </trkpt>
      <trkpt lat="44.85266" lon="5.42239">
        <ele>1211</ele>
        <time>2020-05-22T09:44:59.855Z</time>
      </trkpt>
      <trkpt lat="44.85267" lon="5.42238">
        <ele>1212</ele>
        <time>2020-05-22T09:45:00.855Z</time>
      </trkpt>
      <trkpt lat="44.85269" lon="5.42237">
        <ele>1212</ele>
        <time>2020-05-22T09:45:01.855Z</time>
      </trkpt>
      <trkpt lat="44.8527" lon="5.42236">
        <ele>1213</ele>
        <time>2020-05-22T09:45:02.855Z</time>
      </trkpt>
      <trkpt lat="44.8527" lon="5.42236">
        <ele>1213</ele>
        <time>2020-05-22T09:45:03.854Z</time>
      </trkpt>
      <trkpt lat="44.85271" lon="5.42235">
        <ele>1214</ele>
        <time>2020-05-22T09:45:04.854Z</time>
      </trkpt>
      <trkpt lat="44.85271" lon="5.42233">
        <ele>1215</ele>
        <time>2020-05-22T09:45:05.854Z</time>
      </trkpt>
      <trkpt lat="44.85272" lon="5.42232">
        <ele>1216</ele>
        <time>2020-05-22T09:45:06.855Z</time>
      </trkpt>
      <trkpt lat="44.85273" lon="5.4223">
        <ele>1217</ele>
        <time>2020-05-22T09:45:07.855Z</time>
      </trkpt>
      <trkpt lat="44.85275" lon="5.42229">
        <ele>1217</ele>
        <time>2020-05-22T09:45:08.854Z</time>
      </trkpt>
      <trkpt lat="44.85277" lon="5.42228">
        <ele>1218</ele>
        <time>2020-05-22T09:45:09.854Z</time>
      </trkpt>
      <trkpt lat="44.85278" lon="5.42227">
        <ele>1219</ele>
        <time>2020-05-22T09:45:10.855Z</time>
      </trkpt>
      <trkpt lat="44.85278" lon="5.42226">
        <ele>1219</ele>
        <time>2020-05-22T09:45:11.854Z</time>
      </trkpt>
      <trkpt lat="44.85279" lon="5.42224">
        <ele>1220</ele>
        <time>2020-05-22T09:45:12.855Z</time>
      </trkpt>
      <trkpt lat="44.85279" lon="5.42223">
        <ele>1221</ele>
        <time>2020-05-22T09:45:13.855Z</time>
      </trkpt>
      <trkpt lat="44.8528" lon="5.42222">
        <ele>1221</ele>
        <time>2020-05-22T09:45:14.854Z</time>
      </trkpt>
      <trkpt lat="44.8528" lon="5.42221">
        <ele>1222</ele>
        <time>2020-05-22T09:45:15.854Z</time>
      </trkpt>
      <trkpt lat="44.85281" lon="5.4222">
        <ele>1222</ele>
        <time>2020-05-22T09:45:16.855Z</time>
      </trkpt>
      <trkpt lat="44.85281" lon="5.42219">
        <ele>1222</ele>
        <time>2020-05-22T09:45:17.855Z</time>
      </trkpt>
      <trkpt lat="44.85281" lon="5.42219">
        <ele>1223</ele>
        <time>2020-05-22T09:45:18.855Z</time>
      </trkpt>
      <trkpt lat="44.85281" lon="5.42218">
        <ele>1223</ele>
        <time>2020-05-22T09:45:19.855Z</time>
      </trkpt>
      <trkpt lat="44.85281" lon="5.42217">
        <ele>1223</ele>
        <time>2020-05-22T09:45:20.855Z</time>
      </trkpt>
      <trkpt lat="44.85282" lon="5.42217">
        <ele>1223</ele>
        <time>2020-05-22T09:45:21.855Z</time>
      </trkpt>
      <trkpt lat="44.85283" lon="5.42215">
        <ele>1223</ele>
        <time>2020-05-22T09:45:22.855Z</time>
      </trkpt>
      <trkpt lat="44.85284" lon="5.42213">
        <ele>1223</ele>
        <time>2020-05-22T09:45:23.855Z</time>
      </trkpt>
      <trkpt lat="44.85285" lon="5.42212">
        <ele>1223</ele>
        <time>2020-05-22T09:45:24.854Z</time>
      </trkpt>
      <trkpt lat="44.85286" lon="5.4221">
        <ele>1223</ele>
        <time>2020-05-22T09:45:25.854Z</time>
      </trkpt>
      <trkpt lat="44.85288" lon="5.42209">
        <ele>1224</ele>
        <time>2020-05-22T09:45:26.854Z</time>
      </trkpt>
      <trkpt lat="44.8529" lon="5.42208">
        <ele>1224</ele>
        <time>2020-05-22T09:45:27.855Z</time>
      </trkpt>
      <trkpt lat="44.85292" lon="5.42206">
        <ele>1225</ele>
        <time>2020-05-22T09:45:28.855Z</time>
      </trkpt>
      <trkpt lat="44.85294" lon="5.42204">
        <ele>1225</ele>
        <time>2020-05-22T09:45:29.855Z</time>
      </trkpt>
      <trkpt lat="44.85296" lon="5.42202">
        <ele>1226</ele>
        <time>2020-05-22T09:45:30.855Z</time>
      </trkpt>
      <trkpt lat="44.85298" lon="5.422">
        <ele>1226</ele>
        <time>2020-05-22T09:45:31.855Z</time>
      </trkpt>
      <trkpt lat="44.853" lon="5.42199">
        <ele>1226</ele>
        <time>2020-05-22T09:45:32.855Z</time>
      </trkpt>
      <trkpt lat="44.85301" lon="5.42197">
        <ele>1226</ele>
        <time>2020-05-22T09:45:33.854Z</time>
      </trkpt>
      <trkpt lat="44.85303" lon="5.42196">
        <ele>1226</ele>
        <time>2020-05-22T09:45:34.855Z</time>
      </trkpt>
      <trkpt lat="44.85304" lon="5.42195">
        <ele>1226</ele>
        <time>2020-05-22T09:45:35.854Z</time>
      </trkpt>
      <trkpt lat="44.85306" lon="5.42194">
        <ele>1225</ele>
        <time>2020-05-22T09:45:36.854Z</time>
      </trkpt>
      <trkpt lat="44.85307" lon="5.42192">
        <ele>1225</ele>
        <time>2020-05-22T09:45:37.854Z</time>
      </trkpt>
      <trkpt lat="44.85308" lon="5.4219">
        <ele>1225</ele>
        <time>2020-05-22T09:45:38.854Z</time>
      </trkpt>
      <trkpt lat="44.8531" lon="5.42189">
        <ele>1225</ele>
        <time>2020-05-22T09:45:39.855Z</time>
      </trkpt>
      <trkpt lat="44.85311" lon="5.42188">
        <ele>1225</ele>
        <time>2020-05-22T09:45:40.855Z</time>
      </trkpt>
      <trkpt lat="44.85312" lon="5.42186">
        <ele>1225</ele>
        <time>2020-05-22T09:45:41.854Z</time>
      </trkpt>
      <trkpt lat="44.85314" lon="5.42186">
        <ele>1224</ele>
        <time>2020-05-22T09:45:42.855Z</time>
      </trkpt>
      <trkpt lat="44.85314" lon="5.42185">
        <ele>1224</ele>
        <time>2020-05-22T09:45:43.855Z</time>
      </trkpt>
      <trkpt lat="44.85315" lon="5.42184">
        <ele>1224</ele>
        <time>2020-05-22T09:45:44.855Z</time>
      </trkpt>
      <trkpt lat="44.85315" lon="5.42184">
        <ele>1224</ele>
        <time>2020-05-22T09:45:45.855Z</time>
      </trkpt>
      <trkpt lat="44.85316" lon="5.42183">
        <ele>1224</ele>
        <time>2020-05-22T09:45:46.855Z</time>
      </trkpt>
      <trkpt lat="44.85317" lon="5.42182">
        <ele>1224</ele>
        <time>2020-05-22T09:45:47.855Z</time>
      </trkpt>
      <trkpt lat="44.85318" lon="5.42181">
        <ele>1224</ele>
        <time>2020-05-22T09:45:48.855Z</time>
      </trkpt>
      <trkpt lat="44.85319" lon="5.4218">
        <ele>1225</ele>
        <time>2020-05-22T09:45:49.855Z</time>
      </trkpt>
      <trkpt lat="44.85319" lon="5.42179">
        <ele>1225</ele>
        <time>2020-05-22T09:45:50.855Z</time>
      </trkpt>
      <trkpt lat="44.8532" lon="5.42179">
        <ele>1225</ele>
        <time>2020-05-22T09:45:51.855Z</time>
      </trkpt>
      <trkpt lat="44.85321" lon="5.42178">
        <ele>1225</ele>
        <time>2020-05-22T09:45:52.855Z</time>
      </trkpt>
      <trkpt lat="44.85322" lon="5.42177">
        <ele>1225</ele>
        <time>2020-05-22T09:45:53.854Z</time>
      </trkpt>
      <trkpt lat="44.85323" lon="5.42176">
        <ele>1224</ele>
        <time>2020-05-22T09:45:54.855Z</time>
      </trkpt>
      <trkpt lat="44.85324" lon="5.42175">
        <ele>1224</ele>
        <time>2020-05-22T09:45:55.854Z</time>
      </trkpt>
      <trkpt lat="44.85326" lon="5.42174">
        <ele>1224</ele>
        <time>2020-05-22T09:45:56.855Z</time>
      </trkpt>
      <trkpt lat="44.85327" lon="5.42173">
        <ele>1224</ele>
        <time>2020-05-22T09:45:57.855Z</time>
      </trkpt>
      <trkpt lat="44.85328" lon="5.42172">
        <ele>1223</ele>
        <time>2020-05-22T09:45:58.855Z</time>
      </trkpt>
      <trkpt lat="44.85329" lon="5.4217">
        <ele>1223</ele>
        <time>2020-05-22T09:45:59.855Z</time>
      </trkpt>
      <trkpt lat="44.85331" lon="5.42169">
        <ele>1223</ele>
        <time>2020-05-22T09:46:00.855Z</time>
      </trkpt>
      <trkpt lat="44.85333" lon="5.42169">
        <ele>1223</ele>
        <time>2020-05-22T09:46:01.855Z</time>
      </trkpt>
      <trkpt lat="44.85335" lon="5.42167">
        <ele>1223</ele>
        <time>2020-05-22T09:46:02.855Z</time>
      </trkpt>
      <trkpt lat="44.85336" lon="5.42165">
        <ele>1223</ele>
        <time>2020-05-22T09:46:03.855Z</time>
      </trkpt>
      <trkpt lat="44.85338" lon="5.42164">
        <ele>1223</ele>
        <time>2020-05-22T09:46:04.855Z</time>
      </trkpt>
      <trkpt lat="44.8534" lon="5.42163">
        <ele>1223</ele>
        <time>2020-05-22T09:46:05.855Z</time>
      </trkpt>
      <trkpt lat="44.85342" lon="5.42163">
        <ele>1223</ele>
        <time>2020-05-22T09:46:06.855Z</time>
      </trkpt>
      <trkpt lat="44.85344" lon="5.42162">
        <ele>1223</ele>
        <time>2020-05-22T09:46:07.855Z</time>
      </trkpt>
      <trkpt lat="44.85345" lon="5.42161">
        <ele>1223</ele>
        <time>2020-05-22T09:46:08.855Z</time>
      </trkpt>
      <trkpt lat="44.85346" lon="5.4216">
        <ele>1223</ele>
        <time>2020-05-22T09:46:09.854Z</time>
      </trkpt>
      <trkpt lat="44.85348" lon="5.42159">
        <ele>1222</ele>
        <time>2020-05-22T09:46:10.855Z</time>
      </trkpt>
      <trkpt lat="44.85349" lon="5.42158">
        <ele>1222</ele>
        <time>2020-05-22T09:46:11.855Z</time>
      </trkpt>
      <trkpt lat="44.8535" lon="5.42157">
        <ele>1222</ele>
        <time>2020-05-22T09:46:12.855Z</time>
      </trkpt>
      <trkpt lat="44.85352" lon="5.42156">
        <ele>1222</ele>
        <time>2020-05-22T09:46:13.855Z</time>
      </trkpt>
      <trkpt lat="44.85353" lon="5.42155">
        <ele>1222</ele>
        <time>2020-05-22T09:46:14.855Z</time>
      </trkpt>
      <trkpt lat="44.85354" lon="5.42155">
        <ele>1222</ele>
        <time>2020-05-22T09:46:15.855Z</time>
      </trkpt>
      <trkpt lat="44.85355" lon="5.42154">
        <ele>1223</ele>
        <time>2020-05-22T09:46:16.854Z</time>
      </trkpt>
      <trkpt lat="44.85355" lon="5.42153">
        <ele>1223</ele>
        <time>2020-05-22T09:46:17.855Z</time>
      </trkpt>
      <trkpt lat="44.85356" lon="5.42152">
        <ele>1224</ele>
        <time>2020-05-22T09:46:18.855Z</time>
      </trkpt>
      <trkpt lat="44.85357" lon="5.42152">
        <ele>1224</ele>
        <time>2020-05-22T09:46:19.854Z</time>
      </trkpt>
      <trkpt lat="44.85358" lon="5.42151">
        <ele>1225</ele>
        <time>2020-05-22T09:46:20.855Z</time>
      </trkpt>
      <trkpt lat="44.85359" lon="5.4215">
        <ele>1225</ele>
        <time>2020-05-22T09:46:21.855Z</time>
      </trkpt>
      <trkpt lat="44.8536" lon="5.42149">
        <ele>1225</ele>
        <time>2020-05-22T09:46:22.855Z</time>
      </trkpt>
      <trkpt lat="44.85362" lon="5.42148">
        <ele>1225</ele>
        <time>2020-05-22T09:46:23.854Z</time>
      </trkpt>
      <trkpt lat="44.85364" lon="5.42147">
        <ele>1226</ele>
        <time>2020-05-22T09:46:24.854Z</time>
      </trkpt>
      <trkpt lat="44.85366" lon="5.42145">
        <ele>1227</ele>
        <time>2020-05-22T09:46:25.855Z</time>
      </trkpt>
      <trkpt lat="44.85367" lon="5.42144">
        <ele>1227</ele>
        <time>2020-05-22T09:46:26.854Z</time>
      </trkpt>
      <trkpt lat="44.85369" lon="5.42141">
        <ele>1228</ele>
        <time>2020-05-22T09:46:27.855Z</time>
      </trkpt>
      <trkpt lat="44.85372" lon="5.42139">
        <ele>1228</ele>
        <time>2020-05-22T09:46:28.855Z</time>
      </trkpt>
      <trkpt lat="44.85374" lon="5.42137">
        <ele>1228</ele>
        <time>2020-05-22T09:46:29.855Z</time>
      </trkpt>
      <trkpt lat="44.85376" lon="5.42134">
        <ele>1228</ele>
        <time>2020-05-22T09:46:30.854Z</time>
      </trkpt>
      <trkpt lat="44.85377" lon="5.42133">
        <ele>1228</ele>
        <time>2020-05-22T09:46:31.855Z</time>
      </trkpt>
      <trkpt lat="44.85378" lon="5.42132">
        <ele>1227</ele>
        <time>2020-05-22T09:46:32.855Z</time>
      </trkpt>
      <trkpt lat="44.85379" lon="5.42131">
        <ele>1226</ele>
        <time>2020-05-22T09:46:33.855Z</time>
      </trkpt>
      <trkpt lat="44.8538" lon="5.4213">
        <ele>1225</ele>
        <time>2020-05-22T09:46:34.855Z</time>
      </trkpt>
      <trkpt lat="44.85381" lon="5.42129">
        <ele>1225</ele>
        <time>2020-05-22T09:46:35.854Z</time>
      </trkpt>
      <trkpt lat="44.85383" lon="5.42126">
        <ele>1225</ele>
        <time>2020-05-22T09:46:36.855Z</time>
      </trkpt>
      <trkpt lat="44.85385" lon="5.42125">
        <ele>1225</ele>
        <time>2020-05-22T09:46:37.855Z</time>
      </trkpt>
      <trkpt lat="44.85386" lon="5.42124">
        <ele>1225</ele>
        <time>2020-05-22T09:46:38.855Z</time>
      </trkpt>
      <trkpt lat="44.85387" lon="5.42123">
        <ele>1226</ele>
        <time>2020-05-22T09:46:39.855Z</time>
      </trkpt>
      <trkpt lat="44.85388" lon="5.42123">
        <ele>1226</ele>
        <time>2020-05-22T09:46:40.855Z</time>
      </trkpt>
      <trkpt lat="44.85388" lon="5.42122">
        <ele>1226</ele>
        <time>2020-05-22T09:46:41.855Z</time>
      </trkpt>
      <trkpt lat="44.85389" lon="5.42122">
        <ele>1226</ele>
        <time>2020-05-22T09:46:42.855Z</time>
      </trkpt>
      <trkpt lat="44.8539" lon="5.42121">
        <ele>1226</ele>
        <time>2020-05-22T09:46:43.855Z</time>
      </trkpt>
      <trkpt lat="44.85391" lon="5.4212">
        <ele>1227</ele>
        <time>2020-05-22T09:46:44.855Z</time>
      </trkpt>
      <trkpt lat="44.85392" lon="5.42119">
        <ele>1227</ele>
        <time>2020-05-22T09:46:45.855Z</time>
      </trkpt>
      <trkpt lat="44.85393" lon="5.42119">
        <ele>1227</ele>
        <time>2020-05-22T09:46:46.855Z</time>
      </trkpt>
      <trkpt lat="44.85394" lon="5.42118">
        <ele>1227</ele>
        <time>2020-05-22T09:46:47.854Z</time>
      </trkpt>
      <trkpt lat="44.85396" lon="5.42117">
        <ele>1227</ele>
        <time>2020-05-22T09:46:48.855Z</time>
      </trkpt>
      <trkpt lat="44.85397" lon="5.42115">
        <ele>1227</ele>
        <time>2020-05-22T09:46:49.854Z</time>
      </trkpt>
      <trkpt lat="44.85399" lon="5.42114">
        <ele>1227</ele>
        <time>2020-05-22T09:46:50.855Z</time>
      </trkpt>
      <trkpt lat="44.85401" lon="5.42112">
        <ele>1228</ele>
        <time>2020-05-22T09:46:51.855Z</time>
      </trkpt>
      <trkpt lat="44.85402" lon="5.4211">
        <ele>1228</ele>
        <time>2020-05-22T09:46:52.855Z</time>
      </trkpt>
      <trkpt lat="44.85403" lon="5.42109">
        <ele>1229</ele>
        <time>2020-05-22T09:46:53.854Z</time>
      </trkpt>
      <trkpt lat="44.85404" lon="5.42108">
        <ele>1229</ele>
        <time>2020-05-22T09:46:54.855Z</time>
      </trkpt>
      <trkpt lat="44.85405" lon="5.42107">
        <ele>1229</ele>
        <time>2020-05-22T09:46:55.854Z</time>
      </trkpt>
      <trkpt lat="44.85406" lon="5.42106">
        <ele>1230</ele>
        <time>2020-05-22T09:46:56.855Z</time>
      </trkpt>
      <trkpt lat="44.85407" lon="5.42105">
        <ele>1230</ele>
        <time>2020-05-22T09:46:57.854Z</time>
      </trkpt>
      <trkpt lat="44.85408" lon="5.42104">
        <ele>1230</ele>
        <time>2020-05-22T09:46:58.855Z</time>
      </trkpt>
      <trkpt lat="44.85409" lon="5.42103">
        <ele>1230</ele>
        <time>2020-05-22T09:46:59.854Z</time>
      </trkpt>
      <trkpt lat="44.85411" lon="5.42102">
        <ele>1230</ele>
        <time>2020-05-22T09:47:00.855Z</time>
      </trkpt>
      <trkpt lat="44.85412" lon="5.42101">
        <ele>1230</ele>
        <time>2020-05-22T09:47:01.854Z</time>
      </trkpt>
      <trkpt lat="44.85414" lon="5.421">
        <ele>1230</ele>
        <time>2020-05-22T09:47:02.855Z</time>
      </trkpt>
      <trkpt lat="44.85415" lon="5.42099">
        <ele>1230</ele>
        <time>2020-05-22T09:47:03.855Z</time>
      </trkpt>
      <trkpt lat="44.85417" lon="5.42097">
        <ele>1231</ele>
        <time>2020-05-22T09:47:04.855Z</time>
      </trkpt>
      <trkpt lat="44.85419" lon="5.42095">
        <ele>1231</ele>
        <time>2020-05-22T09:47:05.855Z</time>
      </trkpt>
      <trkpt lat="44.85421" lon="5.42093">
        <ele>1231</ele>
        <time>2020-05-22T09:47:06.854Z</time>
      </trkpt>
      <trkpt lat="44.85422" lon="5.42091">
        <ele>1230</ele>
        <time>2020-05-22T09:47:07.855Z</time>
      </trkpt>
      <trkpt lat="44.85424" lon="5.4209">
        <ele>1230</ele>
        <time>2020-05-22T09:47:08.855Z</time>
      </trkpt>
      <trkpt lat="44.85425" lon="5.42089">
        <ele>1230</ele>
        <time>2020-05-22T09:47:09.854Z</time>
      </trkpt>
      <trkpt lat="44.85426" lon="5.42088">
        <ele>1229</ele>
        <time>2020-05-22T09:47:10.855Z</time>
      </trkpt>
      <trkpt lat="44.85426" lon="5.42087">
        <ele>1229</ele>
        <time>2020-05-22T09:47:11.854Z</time>
      </trkpt>
      <trkpt lat="44.85437" lon="5.42085">
        <ele>1234</ele>
        <time>2020-05-22T09:47:12.855Z</time>
      </trkpt>
      <trkpt lat="44.85437" lon="5.42085">
        <ele>1234</ele>
        <time>2020-05-22T09:47:13.855Z</time>
      </trkpt>
      <trkpt lat="44.85437" lon="5.42085">
        <ele>1234</ele>
        <time>2020-05-22T09:47:14.854Z</time>
      </trkpt>
      <trkpt lat="44.85437" lon="5.42085">
        <ele>1234</ele>
        <time>2020-05-22T09:47:15.855Z</time>
      </trkpt>
      <trkpt lat="44.85437" lon="5.42085">
        <ele>1234</ele>
        <time>2020-05-22T09:47:16.855Z</time>
      </trkpt>
      <trkpt lat="44.85437" lon="5.42085">
        <ele>1234</ele>
        <time>2020-05-22T09:47:17.855Z</time>
      </trkpt>
      <trkpt lat="44.85437" lon="5.42085">
        <ele>1234</ele>
        <time>2020-05-22T09:47:18.854Z</time>
      </trkpt>
      <trkpt lat="44.85437" lon="5.42085">
        <ele>1234</ele>
        <time>2020-05-22T09:47:19.854Z</time>
      </trkpt>
      <trkpt lat="44.85437" lon="5.42085">
        <ele>1234</ele>
        <time>2020-05-22T09:47:20.854Z</time>
      </trkpt>
      <trkpt lat="44.85437" lon="5.42085">
        <ele>1234</ele>
        <time>2020-05-22T09:47:21.855Z</time>
      </trkpt>
      <trkpt lat="44.85437" lon="5.42085">
        <ele>1234</ele>
        <time>2020-05-22T09:47:22.855Z</time>
      </trkpt>
      <trkpt lat="44.85437" lon="5.42085">
        <ele>1234</ele>
        <time>2020-05-22T09:47:23.854Z</time>
      </trkpt>
      <trkpt lat="44.85437" lon="5.42084">
        <ele>1234</ele>
        <time>2020-05-22T09:47:24.855Z</time>
      </trkpt>
      <trkpt lat="44.85437" lon="5.42084">
        <ele>1234</ele>
        <time>2020-05-22T09:47:25.855Z</time>
      </trkpt>
      <trkpt lat="44.85438" lon="5.42084">
        <ele>1234</ele>
        <time>2020-05-22T09:47:26.855Z</time>
      </trkpt>
      <trkpt lat="44.85441" lon="5.42083">
        <ele>1234</ele>
        <time>2020-05-22T09:47:27.855Z</time>
      </trkpt>
      <trkpt lat="44.85444" lon="5.42082">
        <ele>1234</ele>
        <time>2020-05-22T09:47:28.855Z</time>
      </trkpt>
      <trkpt lat="44.85448" lon="5.4208">
        <ele>1234</ele>
        <time>2020-05-22T09:47:29.854Z</time>
      </trkpt>
      <trkpt lat="44.85451" lon="5.42079">
        <ele>1233</ele>
        <time>2020-05-22T09:47:30.855Z</time>
      </trkpt>
      <trkpt lat="44.85454" lon="5.42077">
        <ele>1233</ele>
        <time>2020-05-22T09:47:31.855Z</time>
      </trkpt>
      <trkpt lat="44.85457" lon="5.42076">
        <ele>1233</ele>
        <time>2020-05-22T09:47:32.855Z</time>
      </trkpt>
      <trkpt lat="44.8546" lon="5.42074">
        <ele>1233</ele>
        <time>2020-05-22T09:47:33.855Z</time>
      </trkpt>
      <trkpt lat="44.85462" lon="5.42074">
        <ele>1233</ele>
        <time>2020-05-22T09:47:34.855Z</time>
      </trkpt>
      <trkpt lat="44.85464" lon="5.42072">
        <ele>1233</ele>
        <time>2020-05-22T09:47:35.854Z</time>
      </trkpt>
      <trkpt lat="44.85465" lon="5.42071">
        <ele>1233</ele>
        <time>2020-05-22T09:47:36.854Z</time>
      </trkpt>
      <trkpt lat="44.85466" lon="5.42071">
        <ele>1233</ele>
        <time>2020-05-22T09:47:37.854Z</time>
      </trkpt>
      <trkpt lat="44.85474" lon="5.42059">
        <ele>1236</ele>
        <time>2020-05-22T09:47:38.855Z</time>
      </trkpt>
      <trkpt lat="44.85474" lon="5.42059">
        <ele>1236</ele>
        <time>2020-05-22T09:47:39.856Z</time>
      </trkpt>
      <trkpt lat="44.85475" lon="5.42059">
        <ele>1236</ele>
        <time>2020-05-22T09:47:40.855Z</time>
      </trkpt>
      <trkpt lat="44.85474" lon="5.42058">
        <ele>1235</ele>
        <time>2020-05-22T09:47:41.856Z</time>
      </trkpt>
      <trkpt lat="44.85475" lon="5.42059">
        <ele>1235</ele>
        <time>2020-05-22T09:47:42.855Z</time>
      </trkpt>
      <trkpt lat="44.85475" lon="5.42059">
        <ele>1235</ele>
        <time>2020-05-22T09:47:43.855Z</time>
      </trkpt>
      <trkpt lat="44.85476" lon="5.42058">
        <ele>1234</ele>
        <time>2020-05-22T09:47:44.856Z</time>
      </trkpt>
      <trkpt lat="44.85478" lon="5.42057">
        <ele>1234</ele>
        <time>2020-05-22T09:47:45.856Z</time>
      </trkpt>
      <trkpt lat="44.85479" lon="5.42056">
        <ele>1234</ele>
        <time>2020-05-22T09:47:46.856Z</time>
      </trkpt>
      <trkpt lat="44.85481" lon="5.42054">
        <ele>1234</ele>
        <time>2020-05-22T09:47:47.856Z</time>
      </trkpt>
      <trkpt lat="44.85483" lon="5.42053">
        <ele>1234</ele>
        <time>2020-05-22T09:47:48.856Z</time>
      </trkpt>
      <trkpt lat="44.85485" lon="5.42052">
        <ele>1234</ele>
        <time>2020-05-22T09:47:49.856Z</time>
      </trkpt>
      <trkpt lat="44.85487" lon="5.42051">
        <ele>1234</ele>
        <time>2020-05-22T09:47:50.855Z</time>
      </trkpt>
      <trkpt lat="44.8549" lon="5.42051">
        <ele>1234</ele>
        <time>2020-05-22T09:47:51.855Z</time>
      </trkpt>
      <trkpt lat="44.85493" lon="5.42051">
        <ele>1234</ele>
        <time>2020-05-22T09:47:52.856Z</time>
      </trkpt>
      <trkpt lat="44.85496" lon="5.42051">
        <ele>1234</ele>
        <time>2020-05-22T09:47:53.855Z</time>
      </trkpt>
      <trkpt lat="44.855" lon="5.4205">
        <ele>1234</ele>
        <time>2020-05-22T09:47:54.856Z</time>
      </trkpt>
      <trkpt lat="44.85503" lon="5.4205">
        <ele>1234</ele>
        <time>2020-05-22T09:47:55.855Z</time>
      </trkpt>
      <trkpt lat="44.85506" lon="5.42051">
        <ele>1234</ele>
        <time>2020-05-22T09:47:56.855Z</time>
      </trkpt>
      <trkpt lat="44.8551" lon="5.42051">
        <ele>1234</ele>
        <time>2020-05-22T09:47:57.855Z</time>
      </trkpt>
      <trkpt lat="44.85514" lon="5.42052">
        <ele>1234</ele>
        <time>2020-05-22T09:47:58.855Z</time>
      </trkpt>
      <trkpt lat="44.85517" lon="5.42053">
        <ele>1234</ele>
        <time>2020-05-22T09:47:59.856Z</time>
      </trkpt>
      <trkpt lat="44.85521" lon="5.42054">
        <ele>1234</ele>
        <time>2020-05-22T09:48:00.856Z</time>
      </trkpt>
      <trkpt lat="44.85525" lon="5.42052">
        <ele>1234</ele>
        <time>2020-05-22T09:48:01.856Z</time>
      </trkpt>
      <trkpt lat="44.85529" lon="5.42051">
        <ele>1234</ele>
        <time>2020-05-22T09:48:02.855Z</time>
      </trkpt>
      <trkpt lat="44.85533" lon="5.4205">
        <ele>1234</ele>
        <time>2020-05-22T09:48:03.856Z</time>
      </trkpt>
      <trkpt lat="44.85536" lon="5.42049">
        <ele>1233</ele>
        <time>2020-05-22T09:48:04.856Z</time>
      </trkpt>
      <trkpt lat="44.8554" lon="5.42048">
        <ele>1233</ele>
        <time>2020-05-22T09:48:05.856Z</time>
      </trkpt>
      <trkpt lat="44.85544" lon="5.42047">
        <ele>1232</ele>
        <time>2020-05-22T09:48:06.856Z</time>
      </trkpt>
      <trkpt lat="44.85548" lon="5.42045">
        <ele>1231</ele>
        <time>2020-05-22T09:48:07.855Z</time>
      </trkpt>
      <trkpt lat="44.85551" lon="5.42045">
        <ele>1231</ele>
        <time>2020-05-22T09:48:08.856Z</time>
      </trkpt>
      <trkpt lat="44.85554" lon="5.42044">
        <ele>1231</ele>
        <time>2020-05-22T09:48:09.856Z</time>
      </trkpt>
      <trkpt lat="44.85557" lon="5.42043">
        <ele>1231</ele>
        <time>2020-05-22T09:48:10.855Z</time>
      </trkpt>
      <trkpt lat="44.8556" lon="5.42043">
        <ele>1231</ele>
        <time>2020-05-22T09:48:11.855Z</time>
      </trkpt>
      <trkpt lat="44.85563" lon="5.42041">
        <ele>1231</ele>
        <time>2020-05-22T09:48:12.855Z</time>
      </trkpt>
      <trkpt lat="44.85567" lon="5.4204">
        <ele>1231</ele>
        <time>2020-05-22T09:48:13.856Z</time>
      </trkpt>
      <trkpt lat="44.85571" lon="5.42039">
        <ele>1230</ele>
        <time>2020-05-22T09:48:14.856Z</time>
      </trkpt>
      <trkpt lat="44.85575" lon="5.42037">
        <ele>1230</ele>
        <time>2020-05-22T09:48:15.856Z</time>
      </trkpt>
      <trkpt lat="44.85578" lon="5.42036">
        <ele>1230</ele>
        <time>2020-05-22T09:48:16.856Z</time>
      </trkpt>
      <trkpt lat="44.85582" lon="5.42035">
        <ele>1230</ele>
        <time>2020-05-22T09:48:17.856Z</time>
      </trkpt>
      <trkpt lat="44.85587" lon="5.42034">
        <ele>1230</ele>
        <time>2020-05-22T09:48:18.856Z</time>
      </trkpt>
      <trkpt lat="44.85591" lon="5.42032">
        <ele>1231</ele>
        <time>2020-05-22T09:48:19.856Z</time>
      </trkpt>
      <trkpt lat="44.85594" lon="5.42032">
        <ele>1230</ele>
        <time>2020-05-22T09:48:20.856Z</time>
      </trkpt>
      <trkpt lat="44.85598" lon="5.42031">
        <ele>1230</ele>
        <time>2020-05-22T09:48:21.855Z</time>
      </trkpt>
      <trkpt lat="44.85601" lon="5.4203">
        <ele>1230</ele>
        <time>2020-05-22T09:48:22.856Z</time>
      </trkpt>
      <trkpt lat="44.85605" lon="5.42029">
        <ele>1230</ele>
        <time>2020-05-22T09:48:23.856Z</time>
      </trkpt>
      <trkpt lat="44.85608" lon="5.42029">
        <ele>1230</ele>
        <time>2020-05-22T09:48:24.856Z</time>
      </trkpt>
      <trkpt lat="44.85611" lon="5.42028">
        <ele>1230</ele>
        <time>2020-05-22T09:48:25.855Z</time>
      </trkpt>
      <trkpt lat="44.85614" lon="5.42027">
        <ele>1230</ele>
        <time>2020-05-22T09:48:26.856Z</time>
      </trkpt>
      <trkpt lat="44.85617" lon="5.42027">
        <ele>1230</ele>
        <time>2020-05-22T09:48:27.856Z</time>
      </trkpt>
      <trkpt lat="44.8562" lon="5.42026">
        <ele>1230</ele>
        <time>2020-05-22T09:48:28.856Z</time>
      </trkpt>
      <trkpt lat="44.85622" lon="5.42025">
        <ele>1230</ele>
        <time>2020-05-22T09:48:29.856Z</time>
      </trkpt>
      <trkpt lat="44.85625" lon="5.42024">
        <ele>1230</ele>
        <time>2020-05-22T09:48:30.856Z</time>
      </trkpt>
      <trkpt lat="44.85628" lon="5.42023">
        <ele>1230</ele>
        <time>2020-05-22T09:48:31.856Z</time>
      </trkpt>
      <trkpt lat="44.85631" lon="5.42022">
        <ele>1230</ele>
        <time>2020-05-22T09:48:32.856Z</time>
      </trkpt>
      <trkpt lat="44.85634" lon="5.42021">
        <ele>1230</ele>
        <time>2020-05-22T09:48:33.856Z</time>
      </trkpt>
      <trkpt lat="44.85637" lon="5.4202">
        <ele>1230</ele>
        <time>2020-05-22T09:48:34.855Z</time>
      </trkpt>
      <trkpt lat="44.85639" lon="5.42019">
        <ele>1231</ele>
        <time>2020-05-22T09:48:35.855Z</time>
      </trkpt>
      <trkpt lat="44.85642" lon="5.42017">
        <ele>1231</ele>
        <time>2020-05-22T09:48:36.856Z</time>
      </trkpt>
      <trkpt lat="44.85645" lon="5.42016">
        <ele>1231</ele>
        <time>2020-05-22T09:48:37.855Z</time>
      </trkpt>
      <trkpt lat="44.85648" lon="5.42015">
        <ele>1231</ele>
        <time>2020-05-22T09:48:38.856Z</time>
      </trkpt>
      <trkpt lat="44.85651" lon="5.42014">
        <ele>1231</ele>
        <time>2020-05-22T09:48:39.856Z</time>
      </trkpt>
      <trkpt lat="44.85653" lon="5.42014">
        <ele>1230</ele>
        <time>2020-05-22T09:48:40.856Z</time>
      </trkpt>
      <trkpt lat="44.85656" lon="5.42013">
        <ele>1230</ele>
        <time>2020-05-22T09:48:41.856Z</time>
      </trkpt>
      <trkpt lat="44.85659" lon="5.42013">
        <ele>1230</ele>
        <time>2020-05-22T09:48:42.856Z</time>
      </trkpt>
      <trkpt lat="44.85662" lon="5.42012">
        <ele>1230</ele>
        <time>2020-05-22T09:48:43.856Z</time>
      </trkpt>
      <trkpt lat="44.85665" lon="5.42011">
        <ele>1230</ele>
        <time>2020-05-22T09:48:44.856Z</time>
      </trkpt>
      <trkpt lat="44.85668" lon="5.4201">
        <ele>1230</ele>
        <time>2020-05-22T09:48:45.856Z</time>
      </trkpt>
      <trkpt lat="44.85672" lon="5.4201">
        <ele>1230</ele>
        <time>2020-05-22T09:48:46.856Z</time>
      </trkpt>
      <trkpt lat="44.85675" lon="5.42009">
        <ele>1231</ele>
        <time>2020-05-22T09:48:47.855Z</time>
      </trkpt>
      <trkpt lat="44.85678" lon="5.42008">
        <ele>1231</ele>
        <time>2020-05-22T09:48:48.856Z</time>
      </trkpt>
      <trkpt lat="44.85682" lon="5.42006">
        <ele>1231</ele>
        <time>2020-05-22T09:48:49.856Z</time>
      </trkpt>
      <trkpt lat="44.85685" lon="5.42005">
        <ele>1231</ele>
        <time>2020-05-22T09:48:50.856Z</time>
      </trkpt>
      <trkpt lat="44.85688" lon="5.42004">
        <ele>1231</ele>
        <time>2020-05-22T09:48:51.856Z</time>
      </trkpt>
      <trkpt lat="44.85692" lon="5.42003">
        <ele>1232</ele>
        <time>2020-05-22T09:48:52.855Z</time>
      </trkpt>
      <trkpt lat="44.85695" lon="5.42001">
        <ele>1232</ele>
        <time>2020-05-22T09:48:53.855Z</time>
      </trkpt>
      <trkpt lat="44.85698" lon="5.42">
        <ele>1232</ele>
        <time>2020-05-22T09:48:54.856Z</time>
      </trkpt>
      <trkpt lat="44.85701" lon="5.41998">
        <ele>1233</ele>
        <time>2020-05-22T09:48:55.856Z</time>
      </trkpt>
      <trkpt lat="44.85704" lon="5.41996">
        <ele>1233</ele>
        <time>2020-05-22T09:48:56.855Z</time>
      </trkpt>
      <trkpt lat="44.85706" lon="5.41994">
        <ele>1233</ele>
        <time>2020-05-22T09:48:57.855Z</time>
      </trkpt>
      <trkpt lat="44.85709" lon="5.41992">
        <ele>1233</ele>
        <time>2020-05-22T09:48:58.855Z</time>
      </trkpt>
      <trkpt lat="44.85712" lon="5.41989">
        <ele>1233</ele>
        <time>2020-05-22T09:48:59.856Z</time>
      </trkpt>
      <trkpt lat="44.85715" lon="5.41986">
        <ele>1233</ele>
        <time>2020-05-22T09:49:00.856Z</time>
      </trkpt>
      <trkpt lat="44.85717" lon="5.41984">
        <ele>1233</ele>
        <time>2020-05-22T09:49:01.855Z</time>
      </trkpt>
      <trkpt lat="44.85719" lon="5.41981">
        <ele>1233</ele>
        <time>2020-05-22T09:49:02.856Z</time>
      </trkpt>
      <trkpt lat="44.85722" lon="5.41978">
        <ele>1233</ele>
        <time>2020-05-22T09:49:03.856Z</time>
      </trkpt>
      <trkpt lat="44.85724" lon="5.41975">
        <ele>1233</ele>
        <time>2020-05-22T09:49:04.856Z</time>
      </trkpt>
      <trkpt lat="44.85727" lon="5.41972">
        <ele>1233</ele>
        <time>2020-05-22T09:49:05.856Z</time>
      </trkpt>
      <trkpt lat="44.85729" lon="5.41969">
        <ele>1233</ele>
        <time>2020-05-22T09:49:06.855Z</time>
      </trkpt>
      <trkpt lat="44.85731" lon="5.41965">
        <ele>1232</ele>
        <time>2020-05-22T09:49:07.856Z</time>
      </trkpt>
      <trkpt lat="44.85734" lon="5.41962">
        <ele>1232</ele>
        <time>2020-05-22T09:49:08.855Z</time>
      </trkpt>
      <trkpt lat="44.85736" lon="5.41959">
        <ele>1232</ele>
        <time>2020-05-22T09:49:09.855Z</time>
      </trkpt>
      <trkpt lat="44.85738" lon="5.41956">
        <ele>1232</ele>
        <time>2020-05-22T09:49:10.855Z</time>
      </trkpt>
      <trkpt lat="44.85739" lon="5.41953">
        <ele>1233</ele>
        <time>2020-05-22T09:49:11.855Z</time>
      </trkpt>
      <trkpt lat="44.85741" lon="5.41949">
        <ele>1233</ele>
        <time>2020-05-22T09:49:12.856Z</time>
      </trkpt>
      <trkpt lat="44.85742" lon="5.41946">
        <ele>1233</ele>
        <time>2020-05-22T09:49:13.856Z</time>
      </trkpt>
      <trkpt lat="44.85743" lon="5.41942">
        <ele>1234</ele>
        <time>2020-05-22T09:49:14.855Z</time>
      </trkpt>
      <trkpt lat="44.85744" lon="5.41938">
        <ele>1234</ele>
        <time>2020-05-22T09:49:15.855Z</time>
      </trkpt>
      <trkpt lat="44.85745" lon="5.41934">
        <ele>1234</ele>
        <time>2020-05-22T09:49:16.856Z</time>
      </trkpt>
      <trkpt lat="44.85748" lon="5.4193">
        <ele>1235</ele>
        <time>2020-05-22T09:49:17.855Z</time>
      </trkpt>
      <trkpt lat="44.8575" lon="5.41927">
        <ele>1235</ele>
        <time>2020-05-22T09:49:18.855Z</time>
      </trkpt>
      <trkpt lat="44.85751" lon="5.41924">
        <ele>1236</ele>
        <time>2020-05-22T09:49:19.856Z</time>
      </trkpt>
      <trkpt lat="44.85752" lon="5.4192">
        <ele>1237</ele>
        <time>2020-05-22T09:49:20.855Z</time>
      </trkpt>
      <trkpt lat="44.85753" lon="5.41916">
        <ele>1237</ele>
        <time>2020-05-22T09:49:21.856Z</time>
      </trkpt>
      <trkpt lat="44.85753" lon="5.41912">
        <ele>1238</ele>
        <time>2020-05-22T09:49:22.856Z</time>
      </trkpt>
      <trkpt lat="44.85753" lon="5.41906">
        <ele>1238</ele>
        <time>2020-05-22T09:49:23.855Z</time>
      </trkpt>
      <trkpt lat="44.85753" lon="5.41902">
        <ele>1238</ele>
        <time>2020-05-22T09:49:24.856Z</time>
      </trkpt>
      <trkpt lat="44.85753" lon="5.41897">
        <ele>1238</ele>
        <time>2020-05-22T09:49:25.855Z</time>
      </trkpt>
      <trkpt lat="44.85753" lon="5.41893">
        <ele>1238</ele>
        <time>2020-05-22T09:49:26.856Z</time>
      </trkpt>
      <trkpt lat="44.85753" lon="5.41889">
        <ele>1239</ele>
        <time>2020-05-22T09:49:27.856Z</time>
      </trkpt>
      <trkpt lat="44.85753" lon="5.41885">
        <ele>1239</ele>
        <time>2020-05-22T09:49:28.856Z</time>
      </trkpt>
      <trkpt lat="44.85752" lon="5.4188">
        <ele>1239</ele>
        <time>2020-05-22T09:49:29.856Z</time>
      </trkpt>
      <trkpt lat="44.85751" lon="5.41875">
        <ele>1239</ele>
        <time>2020-05-22T09:49:30.856Z</time>
      </trkpt>
      <trkpt lat="44.85751" lon="5.41871">
        <ele>1239</ele>
        <time>2020-05-22T09:49:31.855Z</time>
      </trkpt>
      <trkpt lat="44.8575" lon="5.41866">
        <ele>1239</ele>
        <time>2020-05-22T09:49:32.855Z</time>
      </trkpt>
      <trkpt lat="44.85749" lon="5.41861">
        <ele>1238</ele>
        <time>2020-05-22T09:49:33.856Z</time>
      </trkpt>
      <trkpt lat="44.85749" lon="5.41856">
        <ele>1238</ele>
        <time>2020-05-22T09:49:34.856Z</time>
      </trkpt>
      <trkpt lat="44.8575" lon="5.41852">
        <ele>1238</ele>
        <time>2020-05-22T09:49:35.856Z</time>
      </trkpt>
      <trkpt lat="44.85751" lon="5.41848">
        <ele>1237</ele>
        <time>2020-05-22T09:49:36.856Z</time>
      </trkpt>
      <trkpt lat="44.85752" lon="5.41844">
        <ele>1237</ele>
        <time>2020-05-22T09:49:37.856Z</time>
      </trkpt>
      <trkpt lat="44.85753" lon="5.41841">
        <ele>1237</ele>
        <time>2020-05-22T09:49:38.855Z</time>
      </trkpt>
      <trkpt lat="44.85754" lon="5.41836">
        <ele>1236</ele>
        <time>2020-05-22T09:49:39.856Z</time>
      </trkpt>
      <trkpt lat="44.85755" lon="5.41832">
        <ele>1236</ele>
        <time>2020-05-22T09:49:40.856Z</time>
      </trkpt>
      <trkpt lat="44.85757" lon="5.41828">
        <ele>1236</ele>
        <time>2020-05-22T09:49:41.856Z</time>
      </trkpt>
      <trkpt lat="44.85759" lon="5.41825">
        <ele>1235</ele>
        <time>2020-05-22T09:49:42.856Z</time>
      </trkpt>
      <trkpt lat="44.85762" lon="5.41822">
        <ele>1235</ele>
        <time>2020-05-22T09:49:43.856Z</time>
      </trkpt>
      <trkpt lat="44.85764" lon="5.41818">
        <ele>1235</ele>
        <time>2020-05-22T09:49:44.856Z</time>
      </trkpt>
      <trkpt lat="44.85766" lon="5.41814">
        <ele>1235</ele>
        <time>2020-05-22T09:49:45.856Z</time>
      </trkpt>
      <trkpt lat="44.85769" lon="5.41811">
        <ele>1235</ele>
        <time>2020-05-22T09:49:46.856Z</time>
      </trkpt>
      <trkpt lat="44.85771" lon="5.41808">
        <ele>1235</ele>
        <time>2020-05-22T09:49:47.856Z</time>
      </trkpt>
      <trkpt lat="44.85773" lon="5.41806">
        <ele>1235</ele>
        <time>2020-05-22T09:49:48.856Z</time>
      </trkpt>
      <trkpt lat="44.85775" lon="5.41802">
        <ele>1236</ele>
        <time>2020-05-22T09:49:49.855Z</time>
      </trkpt>
      <trkpt lat="44.85776" lon="5.41798">
        <ele>1235</ele>
        <time>2020-05-22T09:49:50.856Z</time>
      </trkpt>
      <trkpt lat="44.85776" lon="5.41794">
        <ele>1235</ele>
        <time>2020-05-22T09:49:51.856Z</time>
      </trkpt>
      <trkpt lat="44.85777" lon="5.41789">
        <ele>1235</ele>
        <time>2020-05-22T09:49:52.856Z</time>
      </trkpt>
      <trkpt lat="44.85776" lon="5.41785">
        <ele>1235</ele>
        <time>2020-05-22T09:49:53.856Z</time>
      </trkpt>
      <trkpt lat="44.85775" lon="5.41781">
        <ele>1235</ele>
        <time>2020-05-22T09:49:54.856Z</time>
      </trkpt>
      <trkpt lat="44.85774" lon="5.41777">
        <ele>1235</ele>
        <time>2020-05-22T09:49:55.856Z</time>
      </trkpt>
      <trkpt lat="44.85773" lon="5.41774">
        <ele>1236</ele>
        <time>2020-05-22T09:49:56.856Z</time>
      </trkpt>
      <trkpt lat="44.85771" lon="5.41771">
        <ele>1236</ele>
        <time>2020-05-22T09:49:57.856Z</time>
      </trkpt>
      <trkpt lat="44.85769" lon="5.41768">
        <ele>1236</ele>
        <time>2020-05-22T09:49:58.856Z</time>
      </trkpt>
      <trkpt lat="44.85767" lon="5.41766">
        <ele>1236</ele>
        <time>2020-05-22T09:49:59.856Z</time>
      </trkpt>
      <trkpt lat="44.85765" lon="5.41764">
        <ele>1235</ele>
        <time>2020-05-22T09:50:00.855Z</time>
      </trkpt>
      <trkpt lat="44.85762" lon="5.41761">
        <ele>1235</ele>
        <time>2020-05-22T09:50:01.856Z</time>
      </trkpt>
      <trkpt lat="44.8576" lon="5.41757">
        <ele>1235</ele>
        <time>2020-05-22T09:50:02.856Z</time>
      </trkpt>
      <trkpt lat="44.85758" lon="5.41754">
        <ele>1235</ele>
        <time>2020-05-22T09:50:03.855Z</time>
      </trkpt>
      <trkpt lat="44.85758" lon="5.4175">
        <ele>1235</ele>
        <time>2020-05-22T09:50:04.856Z</time>
      </trkpt>
      <trkpt lat="44.85757" lon="5.41745">
        <ele>1235</ele>
        <time>2020-05-22T09:50:05.856Z</time>
      </trkpt>
      <trkpt lat="44.85757" lon="5.41742">
        <ele>1235</ele>
        <time>2020-05-22T09:50:06.856Z</time>
      </trkpt>
      <trkpt lat="44.85758" lon="5.41737">
        <ele>1236</ele>
        <time>2020-05-22T09:50:07.855Z</time>
      </trkpt>
      <trkpt lat="44.85759" lon="5.41732">
        <ele>1236</ele>
        <time>2020-05-22T09:50:08.855Z</time>
      </trkpt>
      <trkpt lat="44.8576" lon="5.41729">
        <ele>1237</ele>
        <time>2020-05-22T09:50:09.856Z</time>
      </trkpt>
      <trkpt lat="44.85762" lon="5.41726">
        <ele>1237</ele>
        <time>2020-05-22T09:50:10.856Z</time>
      </trkpt>
      <trkpt lat="44.85764" lon="5.41723">
        <ele>1237</ele>
        <time>2020-05-22T09:50:11.856Z</time>
      </trkpt>
      <trkpt lat="44.85766" lon="5.41721">
        <ele>1238</ele>
        <time>2020-05-22T09:50:12.856Z</time>
      </trkpt>
      <trkpt lat="44.85768" lon="5.41719">
        <ele>1238</ele>
        <time>2020-05-22T09:50:13.856Z</time>
      </trkpt>
      <trkpt lat="44.85771" lon="5.41717">
        <ele>1238</ele>
        <time>2020-05-22T09:50:14.856Z</time>
      </trkpt>
      <trkpt lat="44.85773" lon="5.41715">
        <ele>1238</ele>
        <time>2020-05-22T09:50:15.856Z</time>
      </trkpt>
      <trkpt lat="44.85776" lon="5.41713">
        <ele>1238</ele>
        <time>2020-05-22T09:50:16.856Z</time>
      </trkpt>
      <trkpt lat="44.85778" lon="5.41711">
        <ele>1238</ele>
        <time>2020-05-22T09:50:17.856Z</time>
      </trkpt>
      <trkpt lat="44.8578" lon="5.41708">
        <ele>1237</ele>
        <time>2020-05-22T09:50:18.856Z</time>
      </trkpt>
      <trkpt lat="44.85782" lon="5.41707">
        <ele>1237</ele>
        <time>2020-05-22T09:50:19.856Z</time>
      </trkpt>
      <trkpt lat="44.85785" lon="5.41705">
        <ele>1237</ele>
        <time>2020-05-22T09:50:20.856Z</time>
      </trkpt>
      <trkpt lat="44.85786" lon="5.41702">
        <ele>1237</ele>
        <time>2020-05-22T09:50:21.856Z</time>
      </trkpt>
      <trkpt lat="44.85787" lon="5.417">
        <ele>1237</ele>
        <time>2020-05-22T09:50:22.855Z</time>
      </trkpt>
      <trkpt lat="44.85788" lon="5.41697">
        <ele>1237</ele>
        <time>2020-05-22T09:50:23.856Z</time>
      </trkpt>
      <trkpt lat="44.85789" lon="5.41695">
        <ele>1236</ele>
        <time>2020-05-22T09:50:24.855Z</time>
      </trkpt>
      <trkpt lat="44.85789" lon="5.41693">
        <ele>1236</ele>
        <time>2020-05-22T09:50:25.856Z</time>
      </trkpt>
      <trkpt lat="44.85789" lon="5.4169">
        <ele>1236</ele>
        <time>2020-05-22T09:50:26.856Z</time>
      </trkpt>
      <trkpt lat="44.85789" lon="5.41687">
        <ele>1236</ele>
        <time>2020-05-22T09:50:27.856Z</time>
      </trkpt>
      <trkpt lat="44.85788" lon="5.41684">
        <ele>1235</ele>
        <time>2020-05-22T09:50:28.856Z</time>
      </trkpt>
      <trkpt lat="44.85787" lon="5.4168">
        <ele>1235</ele>
        <time>2020-05-22T09:50:29.856Z</time>
      </trkpt>
      <trkpt lat="44.85786" lon="5.41677">
        <ele>1235</ele>
        <time>2020-05-22T09:50:30.856Z</time>
      </trkpt>
      <trkpt lat="44.85785" lon="5.41674">
        <ele>1235</ele>
        <time>2020-05-22T09:50:31.856Z</time>
      </trkpt>
      <trkpt lat="44.85783" lon="5.41671">
        <ele>1235</ele>
        <time>2020-05-22T09:50:32.856Z</time>
      </trkpt>
      <trkpt lat="44.85782" lon="5.41669">
        <ele>1234</ele>
        <time>2020-05-22T09:50:33.856Z</time>
      </trkpt>
      <trkpt lat="44.8578" lon="5.41666">
        <ele>1234</ele>
        <time>2020-05-22T09:50:34.856Z</time>
      </trkpt>
      <trkpt lat="44.85778" lon="5.41663">
        <ele>1234</ele>
        <time>2020-05-22T09:50:35.856Z</time>
      </trkpt>
      <trkpt lat="44.85776" lon="5.4166">
        <ele>1233</ele>
        <time>2020-05-22T09:50:36.856Z</time>
      </trkpt>
      <trkpt lat="44.85774" lon="5.41657">
        <ele>1233</ele>
        <time>2020-05-22T09:50:37.856Z</time>
      </trkpt>
      <trkpt lat="44.85773" lon="5.41655">
        <ele>1232</ele>
        <time>2020-05-22T09:50:38.856Z</time>
      </trkpt>
      <trkpt lat="44.85771" lon="5.41652">
        <ele>1232</ele>
        <time>2020-05-22T09:50:39.856Z</time>
      </trkpt>
      <trkpt lat="44.8577" lon="5.41649">
        <ele>1232</ele>
        <time>2020-05-22T09:50:40.856Z</time>
      </trkpt>
      <trkpt lat="44.85768" lon="5.41646">
        <ele>1232</ele>
        <time>2020-05-22T09:50:41.856Z</time>
      </trkpt>
      <trkpt lat="44.85766" lon="5.41642">
        <ele>1232</ele>
        <time>2020-05-22T09:50:42.856Z</time>
      </trkpt>
      <trkpt lat="44.85764" lon="5.41639">
        <ele>1232</ele>
        <time>2020-05-22T09:50:43.855Z</time>
      </trkpt>
      <trkpt lat="44.85762" lon="5.41636">
        <ele>1231</ele>
        <time>2020-05-22T09:50:44.856Z</time>
      </trkpt>
      <trkpt lat="44.85761" lon="5.41633">
        <ele>1231</ele>
        <time>2020-05-22T09:50:45.855Z</time>
      </trkpt>
      <trkpt lat="44.85759" lon="5.4163">
        <ele>1231</ele>
        <time>2020-05-22T09:50:46.855Z</time>
      </trkpt>
      <trkpt lat="44.85757" lon="5.41627">
        <ele>1231</ele>
        <time>2020-05-22T09:50:47.856Z</time>
      </trkpt>
      <trkpt lat="44.85754" lon="5.41625">
        <ele>1231</ele>
        <time>2020-05-22T09:50:48.855Z</time>
      </trkpt>
      <trkpt lat="44.85751" lon="5.41622">
        <ele>1231</ele>
        <time>2020-05-22T09:50:49.856Z</time>
      </trkpt>
      <trkpt lat="44.85748" lon="5.41619">
        <ele>1231</ele>
        <time>2020-05-22T09:50:50.856Z</time>
      </trkpt>
      <trkpt lat="44.85745" lon="5.41617">
        <ele>1231</ele>
        <time>2020-05-22T09:50:51.855Z</time>
      </trkpt>
      <trkpt lat="44.85742" lon="5.41614">
        <ele>1231</ele>
        <time>2020-05-22T09:50:52.855Z</time>
      </trkpt>
      <trkpt lat="44.8574" lon="5.41612">
        <ele>1231</ele>
        <time>2020-05-22T09:50:53.856Z</time>
      </trkpt>
      <trkpt lat="44.85736" lon="5.4161">
        <ele>1231</ele>
        <time>2020-05-22T09:50:54.855Z</time>
      </trkpt>
      <trkpt lat="44.85733" lon="5.41609">
        <ele>1232</ele>
        <time>2020-05-22T09:50:55.855Z</time>
      </trkpt>
      <trkpt lat="44.85729" lon="5.41607">
        <ele>1232</ele>
        <time>2020-05-22T09:50:56.856Z</time>
      </trkpt>
      <trkpt lat="44.85726" lon="5.41605">
        <ele>1232</ele>
        <time>2020-05-22T09:50:57.855Z</time>
      </trkpt>
      <trkpt lat="44.85723" lon="5.41604">
        <ele>1232</ele>
        <time>2020-05-22T09:50:58.856Z</time>
      </trkpt>
      <trkpt lat="44.8572" lon="5.41602">
        <ele>1232</ele>
        <time>2020-05-22T09:50:59.855Z</time>
      </trkpt>
      <trkpt lat="44.85717" lon="5.41601">
        <ele>1233</ele>
        <time>2020-05-22T09:51:00.855Z</time>
      </trkpt>
      <trkpt lat="44.85714" lon="5.416">
        <ele>1233</ele>
        <time>2020-05-22T09:51:01.855Z</time>
      </trkpt>
      <trkpt lat="44.85711" lon="5.41599">
        <ele>1233</ele>
        <time>2020-05-22T09:51:02.856Z</time>
      </trkpt>
      <trkpt lat="44.85708" lon="5.41598">
        <ele>1233</ele>
        <time>2020-05-22T09:51:03.856Z</time>
      </trkpt>
      <trkpt lat="44.85705" lon="5.41598">
        <ele>1233</ele>
        <time>2020-05-22T09:51:04.855Z</time>
      </trkpt>
      <trkpt lat="44.85702" lon="5.41598">
        <ele>1234</ele>
        <time>2020-05-22T09:51:05.856Z</time>
      </trkpt>
      <trkpt lat="44.857" lon="5.41598">
        <ele>1234</ele>
        <time>2020-05-22T09:51:06.856Z</time>
      </trkpt>
      <trkpt lat="44.85697" lon="5.41598">
        <ele>1234</ele>
        <time>2020-05-22T09:51:07.856Z</time>
      </trkpt>
      <trkpt lat="44.85694" lon="5.41597">
        <ele>1234</ele>
        <time>2020-05-22T09:51:08.856Z</time>
      </trkpt>
      <trkpt lat="44.85691" lon="5.41596">
        <ele>1234</ele>
        <time>2020-05-22T09:51:09.856Z</time>
      </trkpt>
      <trkpt lat="44.85688" lon="5.41595">
        <ele>1234</ele>
        <time>2020-05-22T09:51:10.856Z</time>
      </trkpt>
      <trkpt lat="44.85685" lon="5.41595">
        <ele>1233</ele>
        <time>2020-05-22T09:51:11.855Z</time>
      </trkpt>
      <trkpt lat="44.85682" lon="5.41594">
        <ele>1233</ele>
        <time>2020-05-22T09:51:12.856Z</time>
      </trkpt>
      <trkpt lat="44.85679" lon="5.41594">
        <ele>1232</ele>
        <time>2020-05-22T09:51:13.855Z</time>
      </trkpt>
      <trkpt lat="44.85676" lon="5.41593">
        <ele>1232</ele>
        <time>2020-05-22T09:51:14.855Z</time>
      </trkpt>
      <trkpt lat="44.85673" lon="5.41593">
        <ele>1232</ele>
        <time>2020-05-22T09:51:15.856Z</time>
      </trkpt>
      <trkpt lat="44.8567" lon="5.41592">
        <ele>1233</ele>
        <time>2020-05-22T09:51:16.856Z</time>
      </trkpt>
      <trkpt lat="44.85666" lon="5.41592">
        <ele>1233</ele>
        <time>2020-05-22T09:51:17.855Z</time>
      </trkpt>
      <trkpt lat="44.85663" lon="5.41591">
        <ele>1234</ele>
        <time>2020-05-22T09:51:18.856Z</time>
      </trkpt>
      <trkpt lat="44.8566" lon="5.41591">
        <ele>1235</ele>
        <time>2020-05-22T09:51:19.856Z</time>
      </trkpt>
      <trkpt lat="44.85657" lon="5.4159">
        <ele>1236</ele>
        <time>2020-05-22T09:51:20.856Z</time>
      </trkpt>
      <trkpt lat="44.85654" lon="5.41589">
        <ele>1237</ele>
        <time>2020-05-22T09:51:21.856Z</time>
      </trkpt>
      <trkpt lat="44.8565" lon="5.41589">
        <ele>1238</ele>
        <time>2020-05-22T09:51:22.856Z</time>
      </trkpt>
      <trkpt lat="44.85647" lon="5.41589">
        <ele>1238</ele>
        <time>2020-05-22T09:51:23.856Z</time>
      </trkpt>
      <trkpt lat="44.85643" lon="5.41589">
        <ele>1238</ele>
        <time>2020-05-22T09:51:24.856Z</time>
      </trkpt>
      <trkpt lat="44.85639" lon="5.41588">
        <ele>1239</ele>
        <time>2020-05-22T09:51:25.856Z</time>
      </trkpt>
      <trkpt lat="44.85635" lon="5.41587">
        <ele>1239</ele>
        <time>2020-05-22T09:51:26.856Z</time>
      </trkpt>
      <trkpt lat="44.85632" lon="5.41587">
        <ele>1240</ele>
        <time>2020-05-22T09:51:27.856Z</time>
      </trkpt>
      <trkpt lat="44.85628" lon="5.41587">
        <ele>1240</ele>
        <time>2020-05-22T09:51:28.856Z</time>
      </trkpt>
      <trkpt lat="44.85624" lon="5.41588">
        <ele>1241</ele>
        <time>2020-05-22T09:51:29.855Z</time>
      </trkpt>
      <trkpt lat="44.85619" lon="5.41589">
        <ele>1241</ele>
        <time>2020-05-22T09:51:30.855Z</time>
      </trkpt>
      <trkpt lat="44.85616" lon="5.41589">
        <ele>1241</ele>
        <time>2020-05-22T09:51:31.855Z</time>
      </trkpt>
      <trkpt lat="44.85612" lon="5.41589">
        <ele>1242</ele>
        <time>2020-05-22T09:51:32.855Z</time>
      </trkpt>
      <trkpt lat="44.85608" lon="5.41589">
        <ele>1242</ele>
        <time>2020-05-22T09:51:33.855Z</time>
      </trkpt>
      <trkpt lat="44.85605" lon="5.4159">
        <ele>1242</ele>
        <time>2020-05-22T09:51:34.855Z</time>
      </trkpt>
      <trkpt lat="44.85601" lon="5.4159">
        <ele>1242</ele>
        <time>2020-05-22T09:51:35.856Z</time>
      </trkpt>
      <trkpt lat="44.85598" lon="5.41591">
        <ele>1242</ele>
        <time>2020-05-22T09:51:36.856Z</time>
      </trkpt>
      <trkpt lat="44.85594" lon="5.41591">
        <ele>1242</ele>
        <time>2020-05-22T09:51:37.855Z</time>
      </trkpt>
      <trkpt lat="44.85591" lon="5.4159">
        <ele>1243</ele>
        <time>2020-05-22T09:51:38.855Z</time>
      </trkpt>
      <trkpt lat="44.85587" lon="5.41589">
        <ele>1243</ele>
        <time>2020-05-22T09:51:39.856Z</time>
      </trkpt>
      <trkpt lat="44.85583" lon="5.41587">
        <ele>1244</ele>
        <time>2020-05-22T09:51:40.856Z</time>
      </trkpt>
      <trkpt lat="44.8558" lon="5.41584">
        <ele>1244</ele>
        <time>2020-05-22T09:51:41.856Z</time>
      </trkpt>
      <trkpt lat="44.85576" lon="5.4158">
        <ele>1244</ele>
        <time>2020-05-22T09:51:42.856Z</time>
      </trkpt>
      <trkpt lat="44.85572" lon="5.41576">
        <ele>1245</ele>
        <time>2020-05-22T09:51:43.855Z</time>
      </trkpt>
      <trkpt lat="44.85569" lon="5.41572">
        <ele>1244</ele>
        <time>2020-05-22T09:51:44.856Z</time>
      </trkpt>
      <trkpt lat="44.85566" lon="5.41567">
        <ele>1244</ele>
        <time>2020-05-22T09:51:45.856Z</time>
      </trkpt>
      <trkpt lat="44.85563" lon="5.41563">
        <ele>1242</ele>
        <time>2020-05-22T09:51:46.855Z</time>
      </trkpt>
      <trkpt lat="44.85561" lon="5.41558">
        <ele>1241</ele>
        <time>2020-05-22T09:51:47.855Z</time>
      </trkpt>
      <trkpt lat="44.85558" lon="5.41553">
        <ele>1240</ele>
        <time>2020-05-22T09:51:48.855Z</time>
      </trkpt>
      <trkpt lat="44.85556" lon="5.41548">
        <ele>1239</ele>
        <time>2020-05-22T09:51:49.856Z</time>
      </trkpt>
      <trkpt lat="44.85553" lon="5.41542">
        <ele>1238</ele>
        <time>2020-05-22T09:51:50.855Z</time>
      </trkpt>
      <trkpt lat="44.85551" lon="5.41536">
        <ele>1238</ele>
        <time>2020-05-22T09:51:51.855Z</time>
      </trkpt>
      <trkpt lat="44.85548" lon="5.4153">
        <ele>1238</ele>
        <time>2020-05-22T09:51:52.856Z</time>
      </trkpt>
      <trkpt lat="44.85545" lon="5.41522">
        <ele>1238</ele>
        <time>2020-05-22T09:51:53.856Z</time>
      </trkpt>
      <trkpt lat="44.85542" lon="5.41516">
        <ele>1238</ele>
        <time>2020-05-22T09:51:54.856Z</time>
      </trkpt>
      <trkpt lat="44.85539" lon="5.4151">
        <ele>1238</ele>
        <time>2020-05-22T09:51:55.856Z</time>
      </trkpt>
      <trkpt lat="44.85535" lon="5.41504">
        <ele>1238</ele>
        <time>2020-05-22T09:51:56.856Z</time>
      </trkpt>
      <trkpt lat="44.85532" lon="5.41498">
        <ele>1238</ele>
        <time>2020-05-22T09:51:57.856Z</time>
      </trkpt>
      <trkpt lat="44.85528" lon="5.41492">
        <ele>1238</ele>
        <time>2020-05-22T09:51:58.856Z</time>
      </trkpt>
      <trkpt lat="44.85524" lon="5.41486">
        <ele>1238</ele>
        <time>2020-05-22T09:51:59.856Z</time>
      </trkpt>
      <trkpt lat="44.85521" lon="5.41481">
        <ele>1238</ele>
        <time>2020-05-22T09:52:00.855Z</time>
      </trkpt>
      <trkpt lat="44.85517" lon="5.41476">
        <ele>1238</ele>
        <time>2020-05-22T09:52:01.856Z</time>
      </trkpt>
      <trkpt lat="44.85512" lon="5.41471">
        <ele>1238</ele>
        <time>2020-05-22T09:52:02.856Z</time>
      </trkpt>
      <trkpt lat="44.85508" lon="5.41467">
        <ele>1238</ele>
        <time>2020-05-22T09:52:03.855Z</time>
      </trkpt>
      <trkpt lat="44.85504" lon="5.41462">
        <ele>1238</ele>
        <time>2020-05-22T09:52:04.856Z</time>
      </trkpt>
      <trkpt lat="44.85499" lon="5.41458">
        <ele>1239</ele>
        <time>2020-05-22T09:52:05.856Z</time>
      </trkpt>
      <trkpt lat="44.85494" lon="5.41454">
        <ele>1239</ele>
        <time>2020-05-22T09:52:06.856Z</time>
      </trkpt>
      <trkpt lat="44.85491" lon="5.41452">
        <ele>1239</ele>
        <time>2020-05-22T09:52:07.856Z</time>
      </trkpt>
      <trkpt lat="44.85486" lon="5.4145">
        <ele>1239</ele>
        <time>2020-05-22T09:52:08.856Z</time>
      </trkpt>
      <trkpt lat="44.85482" lon="5.41447">
        <ele>1239</ele>
        <time>2020-05-22T09:52:09.855Z</time>
      </trkpt>
      <trkpt lat="44.85478" lon="5.41445">
        <ele>1239</ele>
        <time>2020-05-22T09:52:10.856Z</time>
      </trkpt>
      <trkpt lat="44.85474" lon="5.41442">
        <ele>1239</ele>
        <time>2020-05-22T09:52:11.855Z</time>
      </trkpt>
      <trkpt lat="44.8547" lon="5.41438">
        <ele>1239</ele>
        <time>2020-05-22T09:52:12.855Z</time>
      </trkpt>
      <trkpt lat="44.85466" lon="5.41434">
        <ele>1240</ele>
        <time>2020-05-22T09:52:13.855Z</time>
      </trkpt>
      <trkpt lat="44.85462" lon="5.4143">
        <ele>1240</ele>
        <time>2020-05-22T09:52:14.856Z</time>
      </trkpt>
      <trkpt lat="44.85458" lon="5.41427">
        <ele>1240</ele>
        <time>2020-05-22T09:52:15.856Z</time>
      </trkpt>
      <trkpt lat="44.85454" lon="5.41424">
        <ele>1239</ele>
        <time>2020-05-22T09:52:16.856Z</time>
      </trkpt>
      <trkpt lat="44.8545" lon="5.41421">
        <ele>1240</ele>
        <time>2020-05-22T09:52:17.856Z</time>
      </trkpt>
      <trkpt lat="44.85446" lon="5.41418">
        <ele>1240</ele>
        <time>2020-05-22T09:52:18.856Z</time>
      </trkpt>
      <trkpt lat="44.85442" lon="5.41415">
        <ele>1240</ele>
        <time>2020-05-22T09:52:19.856Z</time>
      </trkpt>
      <trkpt lat="44.85438" lon="5.41412">
        <ele>1240</ele>
        <time>2020-05-22T09:52:20.856Z</time>
      </trkpt>
      <trkpt lat="44.85434" lon="5.41409">
        <ele>1240</ele>
        <time>2020-05-22T09:52:21.856Z</time>
      </trkpt>
      <trkpt lat="44.8543" lon="5.41407">
        <ele>1239</ele>
        <time>2020-05-22T09:52:22.856Z</time>
      </trkpt>
      <trkpt lat="44.85426" lon="5.41404">
        <ele>1239</ele>
        <time>2020-05-22T09:52:23.855Z</time>
      </trkpt>
      <trkpt lat="44.85422" lon="5.41402">
        <ele>1239</ele>
        <time>2020-05-22T09:52:24.856Z</time>
      </trkpt>
      <trkpt lat="44.85418" lon="5.41399">
        <ele>1238</ele>
        <time>2020-05-22T09:52:25.856Z</time>
      </trkpt>
      <trkpt lat="44.85414" lon="5.41396">
        <ele>1238</ele>
        <time>2020-05-22T09:52:26.856Z</time>
      </trkpt>
      <trkpt lat="44.8541" lon="5.41394">
        <ele>1238</ele>
        <time>2020-05-22T09:52:27.855Z</time>
      </trkpt>
      <trkpt lat="44.85406" lon="5.41391">
        <ele>1238</ele>
        <time>2020-05-22T09:52:28.855Z</time>
      </trkpt>
      <trkpt lat="44.85402" lon="5.41389">
        <ele>1238</ele>
        <time>2020-05-22T09:52:29.855Z</time>
      </trkpt>
      <trkpt lat="44.85398" lon="5.41387">
        <ele>1238</ele>
        <time>2020-05-22T09:52:30.855Z</time>
      </trkpt>
      <trkpt lat="44.85395" lon="5.41385">
        <ele>1238</ele>
        <time>2020-05-22T09:52:31.856Z</time>
      </trkpt>
      <trkpt lat="44.8539" lon="5.41382">
        <ele>1238</ele>
        <time>2020-05-22T09:52:32.856Z</time>
      </trkpt>
      <trkpt lat="44.85386" lon="5.41379">
        <ele>1238</ele>
        <time>2020-05-22T09:52:33.856Z</time>
      </trkpt>
      <trkpt lat="44.85382" lon="5.41376">
        <ele>1238</ele>
        <time>2020-05-22T09:52:34.856Z</time>
      </trkpt>
      <trkpt lat="44.85377" lon="5.41374">
        <ele>1238</ele>
        <time>2020-05-22T09:52:35.855Z</time>
      </trkpt>
      <trkpt lat="44.85373" lon="5.41372">
        <ele>1238</ele>
        <time>2020-05-22T09:52:36.856Z</time>
      </trkpt>
      <trkpt lat="44.8537" lon="5.4137">
        <ele>1238</ele>
        <time>2020-05-22T09:52:37.856Z</time>
      </trkpt>
      <trkpt lat="44.85366" lon="5.41368">
        <ele>1239</ele>
        <time>2020-05-22T09:52:38.856Z</time>
      </trkpt>
      <trkpt lat="44.85362" lon="5.41366">
        <ele>1239</ele>
        <time>2020-05-22T09:52:39.856Z</time>
      </trkpt>
      <trkpt lat="44.85358" lon="5.41363">
        <ele>1239</ele>
        <time>2020-05-22T09:52:40.856Z</time>
      </trkpt>
      <trkpt lat="44.85354" lon="5.41361">
        <ele>1239</ele>
        <time>2020-05-22T09:52:41.855Z</time>
      </trkpt>
      <trkpt lat="44.8535" lon="5.41358">
        <ele>1239</ele>
        <time>2020-05-22T09:52:42.856Z</time>
      </trkpt>
      <trkpt lat="44.85346" lon="5.41356">
        <ele>1239</ele>
        <time>2020-05-22T09:52:43.856Z</time>
      </trkpt>
      <trkpt lat="44.85343" lon="5.41353">
        <ele>1239</ele>
        <time>2020-05-22T09:52:44.856Z</time>
      </trkpt>
      <trkpt lat="44.85339" lon="5.4135">
        <ele>1239</ele>
        <time>2020-05-22T09:52:45.855Z</time>
      </trkpt>
      <trkpt lat="44.85335" lon="5.41346">
        <ele>1238</ele>
        <time>2020-05-22T09:52:46.856Z</time>
      </trkpt>
      <trkpt lat="44.85332" lon="5.41343">
        <ele>1238</ele>
        <time>2020-05-22T09:52:47.856Z</time>
      </trkpt>
      <trkpt lat="44.85328" lon="5.41339">
        <ele>1238</ele>
        <time>2020-05-22T09:52:48.855Z</time>
      </trkpt>
      <trkpt lat="44.85324" lon="5.41336">
        <ele>1237</ele>
        <time>2020-05-22T09:52:49.856Z</time>
      </trkpt>
      <trkpt lat="44.85321" lon="5.41332">
        <ele>1237</ele>
        <time>2020-05-22T09:52:50.856Z</time>
      </trkpt>
      <trkpt lat="44.85318" lon="5.41328">
        <ele>1237</ele>
        <time>2020-05-22T09:52:51.856Z</time>
      </trkpt>
      <trkpt lat="44.85314" lon="5.41324">
        <ele>1237</ele>
        <time>2020-05-22T09:52:52.856Z</time>
      </trkpt>
      <trkpt lat="44.8531" lon="5.41321">
        <ele>1237</ele>
        <time>2020-05-22T09:52:53.856Z</time>
      </trkpt>
      <trkpt lat="44.85307" lon="5.41317">
        <ele>1237</ele>
        <time>2020-05-22T09:52:54.856Z</time>
      </trkpt>
      <trkpt lat="44.85303" lon="5.41314">
        <ele>1238</ele>
        <time>2020-05-22T09:52:55.855Z</time>
      </trkpt>
      <trkpt lat="44.85299" lon="5.41311">
        <ele>1238</ele>
        <time>2020-05-22T09:52:56.856Z</time>
      </trkpt>
      <trkpt lat="44.85295" lon="5.41308">
        <ele>1238</ele>
        <time>2020-05-22T09:52:57.856Z</time>
      </trkpt>
      <trkpt lat="44.8529" lon="5.41305">
        <ele>1239</ele>
        <time>2020-05-22T09:52:58.855Z</time>
      </trkpt>
      <trkpt lat="44.85286" lon="5.41303">
        <ele>1239</ele>
        <time>2020-05-22T09:52:59.856Z</time>
      </trkpt>
      <trkpt lat="44.85281" lon="5.413">
        <ele>1239</ele>
        <time>2020-05-22T09:53:00.856Z</time>
      </trkpt>
      <trkpt lat="44.85277" lon="5.41298">
        <ele>1238</ele>
        <time>2020-05-22T09:53:01.855Z</time>
      </trkpt>
      <trkpt lat="44.85272" lon="5.41295">
        <ele>1239</ele>
        <time>2020-05-22T09:53:02.855Z</time>
      </trkpt>
      <trkpt lat="44.85268" lon="5.41292">
        <ele>1239</ele>
        <time>2020-05-22T09:53:03.856Z</time>
      </trkpt>
      <trkpt lat="44.85265" lon="5.4129">
        <ele>1239</ele>
        <time>2020-05-22T09:53:04.855Z</time>
      </trkpt>
      <trkpt lat="44.85259" lon="5.41287">
        <ele>1239</ele>
        <time>2020-05-22T09:53:05.856Z</time>
      </trkpt>
      <trkpt lat="44.85255" lon="5.41284">
        <ele>1239</ele>
        <time>2020-05-22T09:53:06.855Z</time>
      </trkpt>
      <trkpt lat="44.85251" lon="5.41281">
        <ele>1239</ele>
        <time>2020-05-22T09:53:07.856Z</time>
      </trkpt>
      <trkpt lat="44.85247" lon="5.41279">
        <ele>1238</ele>
        <time>2020-05-22T09:53:08.856Z</time>
      </trkpt>
      <trkpt lat="44.85243" lon="5.41276">
        <ele>1238</ele>
        <time>2020-05-22T09:53:09.856Z</time>
      </trkpt>
      <trkpt lat="44.85239" lon="5.41272">
        <ele>1238</ele>
        <time>2020-05-22T09:53:10.856Z</time>
      </trkpt>
      <trkpt lat="44.85235" lon="5.41268">
        <ele>1238</ele>
        <time>2020-05-22T09:53:11.855Z</time>
      </trkpt>
      <trkpt lat="44.85232" lon="5.41264">
        <ele>1239</ele>
        <time>2020-05-22T09:53:12.855Z</time>
      </trkpt>
      <trkpt lat="44.85228" lon="5.41261">
        <ele>1239</ele>
        <time>2020-05-22T09:53:13.855Z</time>
      </trkpt>
      <trkpt lat="44.85224" lon="5.41258">
        <ele>1239</ele>
        <time>2020-05-22T09:53:14.855Z</time>
      </trkpt>
      <trkpt lat="44.8522" lon="5.41255">
        <ele>1239</ele>
        <time>2020-05-22T09:53:15.855Z</time>
      </trkpt>
      <trkpt lat="44.85216" lon="5.41251">
        <ele>1239</ele>
        <time>2020-05-22T09:53:16.856Z</time>
      </trkpt>
      <trkpt lat="44.85212" lon="5.41248">
        <ele>1239</ele>
        <time>2020-05-22T09:53:17.856Z</time>
      </trkpt>
      <trkpt lat="44.85208" lon="5.41245">
        <ele>1239</ele>
        <time>2020-05-22T09:53:18.856Z</time>
      </trkpt>
      <trkpt lat="44.85204" lon="5.41242">
        <ele>1238</ele>
        <time>2020-05-22T09:53:19.856Z</time>
      </trkpt>
      <trkpt lat="44.852" lon="5.41239">
        <ele>1238</ele>
        <time>2020-05-22T09:53:20.856Z</time>
      </trkpt>
      <trkpt lat="44.85195" lon="5.41236">
        <ele>1238</ele>
        <time>2020-05-22T09:53:21.856Z</time>
      </trkpt>
      <trkpt lat="44.85191" lon="5.41233">
        <ele>1237</ele>
        <time>2020-05-22T09:53:22.856Z</time>
      </trkpt>
      <trkpt lat="44.85187" lon="5.4123">
        <ele>1237</ele>
        <time>2020-05-22T09:53:23.855Z</time>
      </trkpt>
      <trkpt lat="44.85183" lon="5.41227">
        <ele>1238</ele>
        <time>2020-05-22T09:53:24.856Z</time>
      </trkpt>
      <trkpt lat="44.85179" lon="5.41223">
        <ele>1239</ele>
        <time>2020-05-22T09:53:25.855Z</time>
      </trkpt>
      <trkpt lat="44.85175" lon="5.4122">
        <ele>1240</ele>
        <time>2020-05-22T09:53:26.856Z</time>
      </trkpt>
      <trkpt lat="44.85172" lon="5.41218">
        <ele>1240</ele>
        <time>2020-05-22T09:53:27.856Z</time>
      </trkpt>
      <trkpt lat="44.85166" lon="5.41216">
        <ele>1240</ele>
        <time>2020-05-22T09:53:28.856Z</time>
      </trkpt>
      <trkpt lat="44.85162" lon="5.41213">
        <ele>1240</ele>
        <time>2020-05-22T09:53:29.856Z</time>
      </trkpt>
      <trkpt lat="44.85157" lon="5.41211">
        <ele>1240</ele>
        <time>2020-05-22T09:53:30.856Z</time>
      </trkpt>
      <trkpt lat="44.85153" lon="5.41209">
        <ele>1239</ele>
        <time>2020-05-22T09:53:31.855Z</time>
      </trkpt>
      <trkpt lat="44.85149" lon="5.41207">
        <ele>1239</ele>
        <time>2020-05-22T09:53:32.855Z</time>
      </trkpt>
      <trkpt lat="44.85144" lon="5.41204">
        <ele>1239</ele>
        <time>2020-05-22T09:53:33.856Z</time>
      </trkpt>
      <trkpt lat="44.8514" lon="5.41202">
        <ele>1238</ele>
        <time>2020-05-22T09:53:34.855Z</time>
      </trkpt>
      <trkpt lat="44.85135" lon="5.412">
        <ele>1238</ele>
        <time>2020-05-22T09:53:35.855Z</time>
      </trkpt>
      <trkpt lat="44.85131" lon="5.41197">
        <ele>1239</ele>
        <time>2020-05-22T09:53:36.855Z</time>
      </trkpt>
      <trkpt lat="44.85126" lon="5.41195">
        <ele>1239</ele>
        <time>2020-05-22T09:53:37.855Z</time>
      </trkpt>
      <trkpt lat="44.85121" lon="5.41193">
        <ele>1239</ele>
        <time>2020-05-22T09:53:38.856Z</time>
      </trkpt>
      <trkpt lat="44.85117" lon="5.41191">
        <ele>1239</ele>
        <time>2020-05-22T09:53:39.856Z</time>
      </trkpt>
      <trkpt lat="44.85112" lon="5.4119">
        <ele>1239</ele>
        <time>2020-05-22T09:53:40.856Z</time>
      </trkpt>
      <trkpt lat="44.85108" lon="5.41189">
        <ele>1239</ele>
        <time>2020-05-22T09:53:41.855Z</time>
      </trkpt>
      <trkpt lat="44.85102" lon="5.41187">
        <ele>1240</ele>
        <time>2020-05-22T09:53:42.855Z</time>
      </trkpt>
      <trkpt lat="44.85097" lon="5.41187">
        <ele>1240</ele>
        <time>2020-05-22T09:53:43.856Z</time>
      </trkpt>
      <trkpt lat="44.85092" lon="5.41187">
        <ele>1240</ele>
        <time>2020-05-22T09:53:44.855Z</time>
      </trkpt>
      <trkpt lat="44.85087" lon="5.41187">
        <ele>1240</ele>
        <time>2020-05-22T09:53:45.856Z</time>
      </trkpt>
      <trkpt lat="44.85081" lon="5.41186">
        <ele>1239</ele>
        <time>2020-05-22T09:53:46.856Z</time>
      </trkpt>
      <trkpt lat="44.85076" lon="5.41186">
        <ele>1239</ele>
        <time>2020-05-22T09:53:47.855Z</time>
      </trkpt>
      <trkpt lat="44.85071" lon="5.41184">
        <ele>1239</ele>
        <time>2020-05-22T09:53:48.855Z</time>
      </trkpt>
      <trkpt lat="44.85066" lon="5.41182">
        <ele>1239</ele>
        <time>2020-05-22T09:53:49.855Z</time>
      </trkpt>
      <trkpt lat="44.85061" lon="5.41179">
        <ele>1239</ele>
        <time>2020-05-22T09:53:50.856Z</time>
      </trkpt>
      <trkpt lat="44.85056" lon="5.41176">
        <ele>1239</ele>
        <time>2020-05-22T09:53:51.855Z</time>
      </trkpt>
      <trkpt lat="44.85052" lon="5.41173">
        <ele>1240</ele>
        <time>2020-05-22T09:53:52.856Z</time>
      </trkpt>
      <trkpt lat="44.85047" lon="5.4117">
        <ele>1240</ele>
        <time>2020-05-22T09:53:53.856Z</time>
      </trkpt>
      <trkpt lat="44.85043" lon="5.41167">
        <ele>1240</ele>
        <time>2020-05-22T09:53:54.856Z</time>
      </trkpt>
      <trkpt lat="44.85039" lon="5.41165">
        <ele>1240</ele>
        <time>2020-05-22T09:53:55.855Z</time>
      </trkpt>
      <trkpt lat="44.85034" lon="5.41162">
        <ele>1240</ele>
        <time>2020-05-22T09:53:56.856Z</time>
      </trkpt>
      <trkpt lat="44.8503" lon="5.41159">
        <ele>1241</ele>
        <time>2020-05-22T09:53:57.856Z</time>
      </trkpt>
      <trkpt lat="44.85025" lon="5.41157">
        <ele>1241</ele>
        <time>2020-05-22T09:53:58.856Z</time>
      </trkpt>
      <trkpt lat="44.85021" lon="5.41155">
        <ele>1241</ele>
        <time>2020-05-22T09:53:59.856Z</time>
      </trkpt>
      <trkpt lat="44.85016" lon="5.41152">
        <ele>1241</ele>
        <time>2020-05-22T09:54:00.856Z</time>
      </trkpt>
      <trkpt lat="44.85012" lon="5.41149">
        <ele>1241</ele>
        <time>2020-05-22T09:54:01.856Z</time>
      </trkpt>
      <trkpt lat="44.85007" lon="5.41147">
        <ele>1241</ele>
        <time>2020-05-22T09:54:02.856Z</time>
      </trkpt>
      <trkpt lat="44.85003" lon="5.41144">
        <ele>1241</ele>
        <time>2020-05-22T09:54:03.855Z</time>
      </trkpt>
      <trkpt lat="44.84998" lon="5.41141">
        <ele>1241</ele>
        <time>2020-05-22T09:54:04.856Z</time>
      </trkpt>
      <trkpt lat="44.84993" lon="5.41139">
        <ele>1241</ele>
        <time>2020-05-22T09:54:05.856Z</time>
      </trkpt>
      <trkpt lat="44.84989" lon="5.41136">
        <ele>1241</ele>
        <time>2020-05-22T09:54:06.855Z</time>
      </trkpt>
      <trkpt lat="44.84985" lon="5.41134">
        <ele>1240</ele>
        <time>2020-05-22T09:54:07.855Z</time>
      </trkpt>
      <trkpt lat="44.8498" lon="5.41131">
        <ele>1240</ele>
        <time>2020-05-22T09:54:08.855Z</time>
      </trkpt>
      <trkpt lat="44.84975" lon="5.41129">
        <ele>1240</ele>
        <time>2020-05-22T09:54:09.856Z</time>
      </trkpt>
      <trkpt lat="44.84971" lon="5.41127">
        <ele>1240</ele>
        <time>2020-05-22T09:54:10.855Z</time>
      </trkpt>
      <trkpt lat="44.84966" lon="5.41124">
        <ele>1240</ele>
        <time>2020-05-22T09:54:11.855Z</time>
      </trkpt>
      <trkpt lat="44.84961" lon="5.41122">
        <ele>1240</ele>
        <time>2020-05-22T09:54:12.855Z</time>
      </trkpt>
      <trkpt lat="44.84957" lon="5.41121">
        <ele>1240</ele>
        <time>2020-05-22T09:54:13.855Z</time>
      </trkpt>
      <trkpt lat="44.84951" lon="5.41119">
        <ele>1240</ele>
        <time>2020-05-22T09:54:14.856Z</time>
      </trkpt>
      <trkpt lat="44.84947" lon="5.41118">
        <ele>1240</ele>
        <time>2020-05-22T09:54:15.855Z</time>
      </trkpt>
      <trkpt lat="44.84942" lon="5.41117">
        <ele>1240</ele>
        <time>2020-05-22T09:54:16.856Z</time>
      </trkpt>
      <trkpt lat="44.84937" lon="5.41116">
        <ele>1239</ele>
        <time>2020-05-22T09:54:17.856Z</time>
      </trkpt>
      <trkpt lat="44.84931" lon="5.41115">
        <ele>1239</ele>
        <time>2020-05-22T09:54:18.855Z</time>
      </trkpt>
      <trkpt lat="44.84926" lon="5.41114">
        <ele>1239</ele>
        <time>2020-05-22T09:54:19.855Z</time>
      </trkpt>
      <trkpt lat="44.84921" lon="5.41114">
        <ele>1239</ele>
        <time>2020-05-22T09:54:20.856Z</time>
      </trkpt>
      <trkpt lat="44.84916" lon="5.41114">
        <ele>1239</ele>
        <time>2020-05-22T09:54:21.856Z</time>
      </trkpt>
      <trkpt lat="44.84911" lon="5.41114">
        <ele>1240</ele>
        <time>2020-05-22T09:54:22.856Z</time>
      </trkpt>
      <trkpt lat="44.84906" lon="5.41114">
        <ele>1240</ele>
        <time>2020-05-22T09:54:23.855Z</time>
      </trkpt>
      <trkpt lat="44.84901" lon="5.41115">
        <ele>1240</ele>
        <time>2020-05-22T09:54:24.856Z</time>
      </trkpt>
      <trkpt lat="44.84897" lon="5.41116">
        <ele>1240</ele>
        <time>2020-05-22T09:54:25.855Z</time>
      </trkpt>
      <trkpt lat="44.84892" lon="5.41118">
        <ele>1241</ele>
        <time>2020-05-22T09:54:26.856Z</time>
      </trkpt>
      <trkpt lat="44.84888" lon="5.41119">
        <ele>1241</ele>
        <time>2020-05-22T09:54:27.856Z</time>
      </trkpt>
      <trkpt lat="44.84883" lon="5.41121">
        <ele>1242</ele>
        <time>2020-05-22T09:54:28.856Z</time>
      </trkpt>
      <trkpt lat="44.84878" lon="5.41123">
        <ele>1242</ele>
        <time>2020-05-22T09:54:29.856Z</time>
      </trkpt>
      <trkpt lat="44.84873" lon="5.41125">
        <ele>1242</ele>
        <time>2020-05-22T09:54:30.856Z</time>
      </trkpt>
      <trkpt lat="44.84869" lon="5.41126">
        <ele>1242</ele>
        <time>2020-05-22T09:54:31.855Z</time>
      </trkpt>
      <trkpt lat="44.84864" lon="5.41127">
        <ele>1242</ele>
        <time>2020-05-22T09:54:32.856Z</time>
      </trkpt>
      <trkpt lat="44.8486" lon="5.41127">
        <ele>1241</ele>
        <time>2020-05-22T09:54:33.856Z</time>
      </trkpt>
      <trkpt lat="44.84854" lon="5.41127">
        <ele>1241</ele>
        <time>2020-05-22T09:54:34.855Z</time>
      </trkpt>
      <trkpt lat="44.84849" lon="5.41126">
        <ele>1240</ele>
        <time>2020-05-22T09:54:35.856Z</time>
      </trkpt>
      <trkpt lat="44.84844" lon="5.41124">
        <ele>1240</ele>
        <time>2020-05-22T09:54:36.856Z</time>
      </trkpt>
      <trkpt lat="44.84839" lon="5.41121">
        <ele>1240</ele>
        <time>2020-05-22T09:54:37.856Z</time>
      </trkpt>
      <trkpt lat="44.84834" lon="5.41119">
        <ele>1240</ele>
        <time>2020-05-22T09:54:38.856Z</time>
      </trkpt>
      <trkpt lat="44.8483" lon="5.41115">
        <ele>1239</ele>
        <time>2020-05-22T09:54:39.856Z</time>
      </trkpt>
      <trkpt lat="44.84826" lon="5.41111">
        <ele>1239</ele>
        <time>2020-05-22T09:54:40.856Z</time>
      </trkpt>
      <trkpt lat="44.84822" lon="5.41107">
        <ele>1239</ele>
        <time>2020-05-22T09:54:41.856Z</time>
      </trkpt>
      <trkpt lat="44.84818" lon="5.41102">
        <ele>1239</ele>
        <time>2020-05-22T09:54:42.855Z</time>
      </trkpt>
      <trkpt lat="44.84815" lon="5.41098">
        <ele>1240</ele>
        <time>2020-05-22T09:54:43.856Z</time>
      </trkpt>
      <trkpt lat="44.8481" lon="5.41093">
        <ele>1239</ele>
        <time>2020-05-22T09:54:44.856Z</time>
      </trkpt>
      <trkpt lat="44.84807" lon="5.41088">
        <ele>1240</ele>
        <time>2020-05-22T09:54:45.856Z</time>
      </trkpt>
      <trkpt lat="44.84803" lon="5.41083">
        <ele>1240</ele>
        <time>2020-05-22T09:54:46.856Z</time>
      </trkpt>
      <trkpt lat="44.84799" lon="5.41079">
        <ele>1240</ele>
        <time>2020-05-22T09:54:47.856Z</time>
      </trkpt>
      <trkpt lat="44.84795" lon="5.41074">
        <ele>1241</ele>
        <time>2020-05-22T09:54:48.855Z</time>
      </trkpt>
      <trkpt lat="44.84791" lon="5.41069">
        <ele>1242</ele>
        <time>2020-05-22T09:54:49.855Z</time>
      </trkpt>
      <trkpt lat="44.84787" lon="5.41065">
        <ele>1242</ele>
        <time>2020-05-22T09:54:50.856Z</time>
      </trkpt>
      <trkpt lat="44.84784" lon="5.4106">
        <ele>1243</ele>
        <time>2020-05-22T09:54:51.855Z</time>
      </trkpt>
      <trkpt lat="44.84781" lon="5.41057">
        <ele>1243</ele>
        <time>2020-05-22T09:54:52.855Z</time>
      </trkpt>
      <trkpt lat="44.84777" lon="5.41052">
        <ele>1243</ele>
        <time>2020-05-22T09:54:53.856Z</time>
      </trkpt>
      <trkpt lat="44.84773" lon="5.41049">
        <ele>1243</ele>
        <time>2020-05-22T09:54:54.856Z</time>
      </trkpt>
      <trkpt lat="44.84769" lon="5.41045">
        <ele>1243</ele>
        <time>2020-05-22T09:54:55.855Z</time>
      </trkpt>
      <trkpt lat="44.84765" lon="5.41041">
        <ele>1243</ele>
        <time>2020-05-22T09:54:56.856Z</time>
      </trkpt>
      <trkpt lat="44.84763" lon="5.41038">
        <ele>1243</ele>
        <time>2020-05-22T09:54:57.856Z</time>
      </trkpt>
      <trkpt lat="44.84758" lon="5.41032">
        <ele>1243</ele>
        <time>2020-05-22T09:54:58.855Z</time>
      </trkpt>
      <trkpt lat="44.84756" lon="5.41026">
        <ele>1244</ele>
        <time>2020-05-22T09:54:59.856Z</time>
      </trkpt>
      <trkpt lat="44.84753" lon="5.41022">
        <ele>1244</ele>
        <time>2020-05-22T09:55:00.856Z</time>
      </trkpt>
      <trkpt lat="44.84749" lon="5.41019">
        <ele>1244</ele>
        <time>2020-05-22T09:55:01.856Z</time>
      </trkpt>
      <trkpt lat="44.84746" lon="5.41017">
        <ele>1244</ele>
        <time>2020-05-22T09:55:02.856Z</time>
      </trkpt>
      <trkpt lat="44.84743" lon="5.41014">
        <ele>1244</ele>
        <time>2020-05-22T09:55:03.855Z</time>
      </trkpt>
      <trkpt lat="44.84739" lon="5.4101">
        <ele>1243</ele>
        <time>2020-05-22T09:55:04.856Z</time>
      </trkpt>
      <trkpt lat="44.84735" lon="5.41007">
        <ele>1244</ele>
        <time>2020-05-22T09:55:05.856Z</time>
      </trkpt>
      <trkpt lat="44.84732" lon="5.41004">
        <ele>1244</ele>
        <time>2020-05-22T09:55:06.856Z</time>
      </trkpt>
      <trkpt lat="44.84728" lon="5.41001">
        <ele>1244</ele>
        <time>2020-05-22T09:55:07.856Z</time>
      </trkpt>
      <trkpt lat="44.84724" lon="5.40998">
        <ele>1244</ele>
        <time>2020-05-22T09:55:08.855Z</time>
      </trkpt>
      <trkpt lat="44.8472" lon="5.40995">
        <ele>1244</ele>
        <time>2020-05-22T09:55:09.856Z</time>
      </trkpt>
      <trkpt lat="44.84716" lon="5.40993">
        <ele>1244</ele>
        <time>2020-05-22T09:55:10.856Z</time>
      </trkpt>
      <trkpt lat="44.84713" lon="5.4099">
        <ele>1244</ele>
        <time>2020-05-22T09:55:11.855Z</time>
      </trkpt>
      <trkpt lat="44.84709" lon="5.40987">
        <ele>1244</ele>
        <time>2020-05-22T09:55:12.855Z</time>
      </trkpt>
      <trkpt lat="44.84705" lon="5.40984">
        <ele>1244</ele>
        <time>2020-05-22T09:55:13.855Z</time>
      </trkpt>
      <trkpt lat="44.84702" lon="5.40982">
        <ele>1244</ele>
        <time>2020-05-22T09:55:14.856Z</time>
      </trkpt>
      <trkpt lat="44.84698" lon="5.4098">
        <ele>1244</ele>
        <time>2020-05-22T09:55:15.856Z</time>
      </trkpt>
      <trkpt lat="44.84695" lon="5.40978">
        <ele>1244</ele>
        <time>2020-05-22T09:55:16.856Z</time>
      </trkpt>
      <trkpt lat="44.84692" lon="5.40976">
        <ele>1244</ele>
        <time>2020-05-22T09:55:17.855Z</time>
      </trkpt>
      <trkpt lat="44.84689" lon="5.40974">
        <ele>1244</ele>
        <time>2020-05-22T09:55:18.855Z</time>
      </trkpt>
      <trkpt lat="44.84686" lon="5.40972">
        <ele>1245</ele>
        <time>2020-05-22T09:55:19.856Z</time>
      </trkpt>
      <trkpt lat="44.84683" lon="5.4097">
        <ele>1245</ele>
        <time>2020-05-22T09:55:20.855Z</time>
      </trkpt>
      <trkpt lat="44.8468" lon="5.40968">
        <ele>1246</ele>
        <time>2020-05-22T09:55:21.856Z</time>
      </trkpt>
      <trkpt lat="44.84678" lon="5.40967">
        <ele>1246</ele>
        <time>2020-05-22T09:55:22.855Z</time>
      </trkpt>
      <trkpt lat="44.84674" lon="5.40965">
        <ele>1247</ele>
        <time>2020-05-22T09:55:23.856Z</time>
      </trkpt>
      <trkpt lat="44.84672" lon="5.40963">
        <ele>1247</ele>
        <time>2020-05-22T09:55:24.856Z</time>
      </trkpt>
      <trkpt lat="44.84668" lon="5.40961">
        <ele>1247</ele>
        <time>2020-05-22T09:55:25.856Z</time>
      </trkpt>
      <trkpt lat="44.84666" lon="5.40959">
        <ele>1247</ele>
        <time>2020-05-22T09:55:26.856Z</time>
      </trkpt>
      <trkpt lat="44.84662" lon="5.40958">
        <ele>1247</ele>
        <time>2020-05-22T09:55:27.856Z</time>
      </trkpt>
      <trkpt lat="44.84659" lon="5.40956">
        <ele>1247</ele>
        <time>2020-05-22T09:55:28.856Z</time>
      </trkpt>
      <trkpt lat="44.84656" lon="5.40954">
        <ele>1247</ele>
        <time>2020-05-22T09:55:29.856Z</time>
      </trkpt>
      <trkpt lat="44.84653" lon="5.40952">
        <ele>1248</ele>
        <time>2020-05-22T09:55:30.856Z</time>
      </trkpt>
      <trkpt lat="44.84649" lon="5.4095">
        <ele>1248</ele>
        <time>2020-05-22T09:55:31.856Z</time>
      </trkpt>
      <trkpt lat="44.84646" lon="5.40948">
        <ele>1249</ele>
        <time>2020-05-22T09:55:32.855Z</time>
      </trkpt>
      <trkpt lat="44.84643" lon="5.40946">
        <ele>1249</ele>
        <time>2020-05-22T09:55:33.856Z</time>
      </trkpt>
      <trkpt lat="44.84639" lon="5.40945">
        <ele>1249</ele>
        <time>2020-05-22T09:55:34.856Z</time>
      </trkpt>
      <trkpt lat="44.84636" lon="5.40943">
        <ele>1249</ele>
        <time>2020-05-22T09:55:35.856Z</time>
      </trkpt>
      <trkpt lat="44.84632" lon="5.40941">
        <ele>1249</ele>
        <time>2020-05-22T09:55:36.856Z</time>
      </trkpt>
      <trkpt lat="44.84628" lon="5.40938">
        <ele>1249</ele>
        <time>2020-05-22T09:55:37.856Z</time>
      </trkpt>
      <trkpt lat="44.84625" lon="5.40936">
        <ele>1249</ele>
        <time>2020-05-22T09:55:38.856Z</time>
      </trkpt>
      <trkpt lat="44.84622" lon="5.40934">
        <ele>1249</ele>
        <time>2020-05-22T09:55:39.856Z</time>
      </trkpt>
      <trkpt lat="44.84618" lon="5.40932">
        <ele>1249</ele>
        <time>2020-05-22T09:55:40.856Z</time>
      </trkpt>
      <trkpt lat="44.84615" lon="5.4093">
        <ele>1249</ele>
        <time>2020-05-22T09:55:41.856Z</time>
      </trkpt>
      <trkpt lat="44.84611" lon="5.40928">
        <ele>1249</ele>
        <time>2020-05-22T09:55:42.855Z</time>
      </trkpt>
      <trkpt lat="44.84606" lon="5.40927">
        <ele>1249</ele>
        <time>2020-05-22T09:55:43.856Z</time>
      </trkpt>
      <trkpt lat="44.84603" lon="5.40926">
        <ele>1248</ele>
        <time>2020-05-22T09:55:44.856Z</time>
      </trkpt>
      <trkpt lat="44.84599" lon="5.40923">
        <ele>1248</ele>
        <time>2020-05-22T09:55:45.856Z</time>
      </trkpt>
      <trkpt lat="44.84595" lon="5.4092">
        <ele>1248</ele>
        <time>2020-05-22T09:55:46.856Z</time>
      </trkpt>
      <trkpt lat="44.84592" lon="5.40919">
        <ele>1249</ele>
        <time>2020-05-22T09:55:47.855Z</time>
      </trkpt>
      <trkpt lat="44.84589" lon="5.40918">
        <ele>1249</ele>
        <time>2020-05-22T09:55:48.855Z</time>
      </trkpt>
      <trkpt lat="44.84585" lon="5.40917">
        <ele>1249</ele>
        <time>2020-05-22T09:55:49.856Z</time>
      </trkpt>
      <trkpt lat="44.84583" lon="5.40915">
        <ele>1249</ele>
        <time>2020-05-22T09:55:50.856Z</time>
      </trkpt>
      <trkpt lat="44.84581" lon="5.40913">
        <ele>1248</ele>
        <time>2020-05-22T09:55:51.855Z</time>
      </trkpt>
      <trkpt lat="44.84579" lon="5.40911">
        <ele>1248</ele>
        <time>2020-05-22T09:55:52.855Z</time>
      </trkpt>
      <trkpt lat="44.84577" lon="5.40909">
        <ele>1248</ele>
        <time>2020-05-22T09:55:53.856Z</time>
      </trkpt>
      <trkpt lat="44.84573" lon="5.40909">
        <ele>1248</ele>
        <time>2020-05-22T09:55:54.855Z</time>
      </trkpt>
      <trkpt lat="44.84571" lon="5.40908">
        <ele>1248</ele>
        <time>2020-05-22T09:55:55.856Z</time>
      </trkpt>
      <trkpt lat="44.84567" lon="5.40906">
        <ele>1248</ele>
        <time>2020-05-22T09:55:56.856Z</time>
      </trkpt>
      <trkpt lat="44.84565" lon="5.40905">
        <ele>1249</ele>
        <time>2020-05-22T09:55:57.856Z</time>
      </trkpt>
      <trkpt lat="44.84562" lon="5.40903">
        <ele>1249</ele>
        <time>2020-05-22T09:55:58.856Z</time>
      </trkpt>
      <trkpt lat="44.8456" lon="5.40902">
        <ele>1249</ele>
        <time>2020-05-22T09:55:59.856Z</time>
      </trkpt>
      <trkpt lat="44.84556" lon="5.409">
        <ele>1249</ele>
        <time>2020-05-22T09:56:00.855Z</time>
      </trkpt>
      <trkpt lat="44.84553" lon="5.40899">
        <ele>1250</ele>
        <time>2020-05-22T09:56:01.855Z</time>
      </trkpt>
      <trkpt lat="44.8455" lon="5.40897">
        <ele>1250</ele>
        <time>2020-05-22T09:56:02.856Z</time>
      </trkpt>
      <trkpt lat="44.84547" lon="5.40896">
        <ele>1251</ele>
        <time>2020-05-22T09:56:03.856Z</time>
      </trkpt>
      <trkpt lat="44.84543" lon="5.40895">
        <ele>1251</ele>
        <time>2020-05-22T09:56:04.856Z</time>
      </trkpt>
      <trkpt lat="44.8454" lon="5.40893">
        <ele>1251</ele>
        <time>2020-05-22T09:56:05.855Z</time>
      </trkpt>
      <trkpt lat="44.84536" lon="5.40892">
        <ele>1252</ele>
        <time>2020-05-22T09:56:06.856Z</time>
      </trkpt>
      <trkpt lat="44.84533" lon="5.4089">
        <ele>1253</ele>
        <time>2020-05-22T09:56:07.855Z</time>
      </trkpt>
      <trkpt lat="44.84529" lon="5.40889">
        <ele>1253</ele>
        <time>2020-05-22T09:56:08.856Z</time>
      </trkpt>
      <trkpt lat="44.84527" lon="5.40888">
        <ele>1253</ele>
        <time>2020-05-22T09:56:09.856Z</time>
      </trkpt>
      <trkpt lat="44.84523" lon="5.40885">
        <ele>1253</ele>
        <time>2020-05-22T09:56:10.856Z</time>
      </trkpt>
      <trkpt lat="44.8452" lon="5.40883">
        <ele>1254</ele>
        <time>2020-05-22T09:56:11.856Z</time>
      </trkpt>
      <trkpt lat="44.84517" lon="5.40881">
        <ele>1254</ele>
        <time>2020-05-22T09:56:12.856Z</time>
      </trkpt>
      <trkpt lat="44.84513" lon="5.40881">
        <ele>1254</ele>
        <time>2020-05-22T09:56:13.855Z</time>
      </trkpt>
      <trkpt lat="44.84509" lon="5.40879">
        <ele>1254</ele>
        <time>2020-05-22T09:56:14.856Z</time>
      </trkpt>
      <trkpt lat="44.84505" lon="5.40877">
        <ele>1254</ele>
        <time>2020-05-22T09:56:15.856Z</time>
      </trkpt>
      <trkpt lat="44.84502" lon="5.40876">
        <ele>1254</ele>
        <time>2020-05-22T09:56:16.855Z</time>
      </trkpt>
      <trkpt lat="44.84499" lon="5.40875">
        <ele>1254</ele>
        <time>2020-05-22T09:56:17.856Z</time>
      </trkpt>
      <trkpt lat="44.84496" lon="5.40874">
        <ele>1255</ele>
        <time>2020-05-22T09:56:18.855Z</time>
      </trkpt>
      <trkpt lat="44.84493" lon="5.40872">
        <ele>1256</ele>
        <time>2020-05-22T09:56:19.856Z</time>
      </trkpt>
      <trkpt lat="44.84489" lon="5.40871">
        <ele>1256</ele>
        <time>2020-05-22T09:56:20.856Z</time>
      </trkpt>
      <trkpt lat="44.84486" lon="5.4087">
        <ele>1257</ele>
        <time>2020-05-22T09:56:21.856Z</time>
      </trkpt>
      <trkpt lat="44.84483" lon="5.40869">
        <ele>1258</ele>
        <time>2020-05-22T09:56:22.856Z</time>
      </trkpt>
      <trkpt lat="44.84479" lon="5.40869">
        <ele>1259</ele>
        <time>2020-05-22T09:56:23.856Z</time>
      </trkpt>
      <trkpt lat="44.84475" lon="5.40868">
        <ele>1259</ele>
        <time>2020-05-22T09:56:24.856Z</time>
      </trkpt>
      <trkpt lat="44.84472" lon="5.40867">
        <ele>1260</ele>
        <time>2020-05-22T09:56:25.856Z</time>
      </trkpt>
      <trkpt lat="44.84469" lon="5.40866">
        <ele>1260</ele>
        <time>2020-05-22T09:56:26.855Z</time>
      </trkpt>
      <trkpt lat="44.84466" lon="5.40865">
        <ele>1261</ele>
        <time>2020-05-22T09:56:27.855Z</time>
      </trkpt>
      <trkpt lat="44.84462" lon="5.40865">
        <ele>1262</ele>
        <time>2020-05-22T09:56:28.856Z</time>
      </trkpt>
      <trkpt lat="44.84459" lon="5.40864">
        <ele>1262</ele>
        <time>2020-05-22T09:56:29.856Z</time>
      </trkpt>
      <trkpt lat="44.84456" lon="5.40864">
        <ele>1263</ele>
        <time>2020-05-22T09:56:30.855Z</time>
      </trkpt>
      <trkpt lat="44.84453" lon="5.40863">
        <ele>1263</ele>
        <time>2020-05-22T09:56:31.856Z</time>
      </trkpt>
      <trkpt lat="44.8445" lon="5.40863">
        <ele>1264</ele>
        <time>2020-05-22T09:56:32.856Z</time>
      </trkpt>
      <trkpt lat="44.84447" lon="5.40862">
        <ele>1264</ele>
        <time>2020-05-22T09:56:33.856Z</time>
      </trkpt>
      <trkpt lat="44.84443" lon="5.40862">
        <ele>1264</ele>
        <time>2020-05-22T09:56:34.856Z</time>
      </trkpt>
      <trkpt lat="44.8444" lon="5.40861">
        <ele>1263</ele>
        <time>2020-05-22T09:56:35.856Z</time>
      </trkpt>
      <trkpt lat="44.84437" lon="5.40861">
        <ele>1262</ele>
        <time>2020-05-22T09:56:36.855Z</time>
      </trkpt>
      <trkpt lat="44.84434" lon="5.40862">
        <ele>1262</ele>
        <time>2020-05-22T09:56:37.856Z</time>
      </trkpt>
      <trkpt lat="44.84431" lon="5.40861">
        <ele>1261</ele>
        <time>2020-05-22T09:56:38.856Z</time>
      </trkpt>
      <trkpt lat="44.84427" lon="5.40861">
        <ele>1261</ele>
        <time>2020-05-22T09:56:39.855Z</time>
      </trkpt>
      <trkpt lat="44.84424" lon="5.40861">
        <ele>1261</ele>
        <time>2020-05-22T09:56:40.856Z</time>
      </trkpt>
      <trkpt lat="44.84421" lon="5.40861">
        <ele>1261</ele>
        <time>2020-05-22T09:56:41.855Z</time>
      </trkpt>
      <trkpt lat="44.84417" lon="5.40861">
        <ele>1261</ele>
        <time>2020-05-22T09:56:42.855Z</time>
      </trkpt>
      <trkpt lat="44.84414" lon="5.40862">
        <ele>1261</ele>
        <time>2020-05-22T09:56:43.856Z</time>
      </trkpt>
      <trkpt lat="44.8441" lon="5.40862">
        <ele>1261</ele>
        <time>2020-05-22T09:56:44.855Z</time>
      </trkpt>
      <trkpt lat="44.84407" lon="5.40863">
        <ele>1260</ele>
        <time>2020-05-22T09:56:45.855Z</time>
      </trkpt>
      <trkpt lat="44.84405" lon="5.40864">
        <ele>1260</ele>
        <time>2020-05-22T09:56:46.856Z</time>
      </trkpt>
      <trkpt lat="44.84402" lon="5.40865">
        <ele>1259</ele>
        <time>2020-05-22T09:56:47.855Z</time>
      </trkpt>
      <trkpt lat="44.84399" lon="5.40868">
        <ele>1258</ele>
        <time>2020-05-22T09:56:48.856Z</time>
      </trkpt>
      <trkpt lat="44.84395" lon="5.4087">
        <ele>1258</ele>
        <time>2020-05-22T09:56:49.856Z</time>
      </trkpt>
      <trkpt lat="44.84392" lon="5.40873">
        <ele>1258</ele>
        <time>2020-05-22T09:56:50.856Z</time>
      </trkpt>
      <trkpt lat="44.8439" lon="5.40875">
        <ele>1258</ele>
        <time>2020-05-22T09:56:51.856Z</time>
      </trkpt>
      <trkpt lat="44.84388" lon="5.40878">
        <ele>1258</ele>
        <time>2020-05-22T09:56:52.855Z</time>
      </trkpt>
      <trkpt lat="44.84384" lon="5.40882">
        <ele>1258</ele>
        <time>2020-05-22T09:56:53.856Z</time>
      </trkpt>
      <trkpt lat="44.84381" lon="5.40884">
        <ele>1258</ele>
        <time>2020-05-22T09:56:54.856Z</time>
      </trkpt>
      <trkpt lat="44.84379" lon="5.40887">
        <ele>1258</ele>
        <time>2020-05-22T09:56:55.856Z</time>
      </trkpt>
      <trkpt lat="44.84376" lon="5.40889">
        <ele>1258</ele>
        <time>2020-05-22T09:56:56.856Z</time>
      </trkpt>
      <trkpt lat="44.84374" lon="5.40892">
        <ele>1258</ele>
        <time>2020-05-22T09:56:57.856Z</time>
      </trkpt>
      <trkpt lat="44.84372" lon="5.40894">
        <ele>1258</ele>
        <time>2020-05-22T09:56:58.855Z</time>
      </trkpt>
      <trkpt lat="44.8437" lon="5.40897">
        <ele>1258</ele>
        <time>2020-05-22T09:56:59.855Z</time>
      </trkpt>
      <trkpt lat="44.84367" lon="5.40899">
        <ele>1259</ele>
        <time>2020-05-22T09:57:00.855Z</time>
      </trkpt>
      <trkpt lat="44.84366" lon="5.40901">
        <ele>1258</ele>
        <time>2020-05-22T09:57:01.855Z</time>
      </trkpt>
      <trkpt lat="44.84364" lon="5.40903">
        <ele>1258</ele>
        <time>2020-05-22T09:57:02.856Z</time>
      </trkpt>
      <trkpt lat="44.84362" lon="5.40905">
        <ele>1258</ele>
        <time>2020-05-22T09:57:03.856Z</time>
      </trkpt>
      <trkpt lat="44.84361" lon="5.40907">
        <ele>1258</ele>
        <time>2020-05-22T09:57:04.856Z</time>
      </trkpt>
      <trkpt lat="44.84359" lon="5.40909">
        <ele>1257</ele>
        <time>2020-05-22T09:57:05.856Z</time>
      </trkpt>
      <trkpt lat="44.84358" lon="5.40911">
        <ele>1257</ele>
        <time>2020-05-22T09:57:06.855Z</time>
      </trkpt>
      <trkpt lat="44.84357" lon="5.40912">
        <ele>1257</ele>
        <time>2020-05-22T09:57:07.856Z</time>
      </trkpt>
      <trkpt lat="44.84356" lon="5.40914">
        <ele>1257</ele>
        <time>2020-05-22T09:57:08.855Z</time>
      </trkpt>
      <trkpt lat="44.84354" lon="5.40916">
        <ele>1258</ele>
        <time>2020-05-22T09:57:09.855Z</time>
      </trkpt>
      <trkpt lat="44.84353" lon="5.40917">
        <ele>1258</ele>
        <time>2020-05-22T09:57:10.856Z</time>
      </trkpt>
      <trkpt lat="44.84351" lon="5.40919">
        <ele>1258</ele>
        <time>2020-05-22T09:57:11.856Z</time>
      </trkpt>
      <trkpt lat="44.84349" lon="5.4092">
        <ele>1259</ele>
        <time>2020-05-22T09:57:12.856Z</time>
      </trkpt>
      <trkpt lat="44.84346" lon="5.40921">
        <ele>1259</ele>
        <time>2020-05-22T09:57:13.856Z</time>
      </trkpt>
      <trkpt lat="44.84344" lon="5.40923">
        <ele>1259</ele>
        <time>2020-05-22T09:57:14.855Z</time>
      </trkpt>
      <trkpt lat="44.84341" lon="5.40924">
        <ele>1259</ele>
        <time>2020-05-22T09:57:15.855Z</time>
      </trkpt>
      <trkpt lat="44.84338" lon="5.40924">
        <ele>1259</ele>
        <time>2020-05-22T09:57:16.856Z</time>
      </trkpt>
      <trkpt lat="44.84335" lon="5.40925">
        <ele>1260</ele>
        <time>2020-05-22T09:57:17.856Z</time>
      </trkpt>
      <trkpt lat="44.84332" lon="5.40925">
        <ele>1260</ele>
        <time>2020-05-22T09:57:18.856Z</time>
      </trkpt>
      <trkpt lat="44.84329" lon="5.40925">
        <ele>1261</ele>
        <time>2020-05-22T09:57:19.856Z</time>
      </trkpt>
      <trkpt lat="44.84327" lon="5.40923">
        <ele>1261</ele>
        <time>2020-05-22T09:57:20.856Z</time>
      </trkpt>
      <trkpt lat="44.84324" lon="5.40921">
        <ele>1261</ele>
        <time>2020-05-22T09:57:21.855Z</time>
      </trkpt>
      <trkpt lat="44.84322" lon="5.4092">
        <ele>1262</ele>
        <time>2020-05-22T09:57:22.855Z</time>
      </trkpt>
      <trkpt lat="44.8432" lon="5.40918">
        <ele>1262</ele>
        <time>2020-05-22T09:57:23.856Z</time>
      </trkpt>
      <trkpt lat="44.84318" lon="5.40915">
        <ele>1261</ele>
        <time>2020-05-22T09:57:24.855Z</time>
      </trkpt>
      <trkpt lat="44.84316" lon="5.40912">
        <ele>1261</ele>
        <time>2020-05-22T09:57:25.855Z</time>
      </trkpt>
      <trkpt lat="44.84314" lon="5.40908">
        <ele>1261</ele>
        <time>2020-05-22T09:57:26.855Z</time>
      </trkpt>
      <trkpt lat="44.84313" lon="5.40904">
        <ele>1260</ele>
        <time>2020-05-22T09:57:27.855Z</time>
      </trkpt>
      <trkpt lat="44.84311" lon="5.409">
        <ele>1260</ele>
        <time>2020-05-22T09:57:28.855Z</time>
      </trkpt>
      <trkpt lat="44.8431" lon="5.40895">
        <ele>1260</ele>
        <time>2020-05-22T09:57:29.856Z</time>
      </trkpt>
      <trkpt lat="44.84309" lon="5.40891">
        <ele>1259</ele>
        <time>2020-05-22T09:57:30.856Z</time>
      </trkpt>
      <trkpt lat="44.84307" lon="5.40886">
        <ele>1259</ele>
        <time>2020-05-22T09:57:31.856Z</time>
      </trkpt>
      <trkpt lat="44.84306" lon="5.40881">
        <ele>1259</ele>
        <time>2020-05-22T09:57:32.856Z</time>
      </trkpt>
      <trkpt lat="44.84304" lon="5.40877">
        <ele>1258</ele>
        <time>2020-05-22T09:57:33.855Z</time>
      </trkpt>
      <trkpt lat="44.84303" lon="5.40872">
        <ele>1258</ele>
        <time>2020-05-22T09:57:34.855Z</time>
      </trkpt>
      <trkpt lat="44.84302" lon="5.40869">
        <ele>1258</ele>
        <time>2020-05-22T09:57:35.855Z</time>
      </trkpt>
      <trkpt lat="44.843" lon="5.40864">
        <ele>1257</ele>
        <time>2020-05-22T09:57:36.855Z</time>
      </trkpt>
      <trkpt lat="44.84298" lon="5.40859">
        <ele>1257</ele>
        <time>2020-05-22T09:57:37.856Z</time>
      </trkpt>
      <trkpt lat="44.84297" lon="5.40853">
        <ele>1257</ele>
        <time>2020-05-22T09:57:38.856Z</time>
      </trkpt>
      <trkpt lat="44.84295" lon="5.40848">
        <ele>1257</ele>
        <time>2020-05-22T09:57:39.855Z</time>
      </trkpt>
      <trkpt lat="44.84293" lon="5.40843">
        <ele>1257</ele>
        <time>2020-05-22T09:57:40.856Z</time>
      </trkpt>
      <trkpt lat="44.84291" lon="5.40838">
        <ele>1257</ele>
        <time>2020-05-22T09:57:41.855Z</time>
      </trkpt>
      <trkpt lat="44.84289" lon="5.40832">
        <ele>1257</ele>
        <time>2020-05-22T09:57:42.856Z</time>
      </trkpt>
      <trkpt lat="44.84287" lon="5.40827">
        <ele>1257</ele>
        <time>2020-05-22T09:57:43.855Z</time>
      </trkpt>
      <trkpt lat="44.84284" lon="5.40822">
        <ele>1257</ele>
        <time>2020-05-22T09:57:44.855Z</time>
      </trkpt>
      <trkpt lat="44.84282" lon="5.40818">
        <ele>1257</ele>
        <time>2020-05-22T09:57:45.855Z</time>
      </trkpt>
      <trkpt lat="44.84279" lon="5.40812">
        <ele>1257</ele>
        <time>2020-05-22T09:57:46.855Z</time>
      </trkpt>
      <trkpt lat="44.84277" lon="5.40807">
        <ele>1258</ele>
        <time>2020-05-22T09:57:47.856Z</time>
      </trkpt>
      <trkpt lat="44.84274" lon="5.40802">
        <ele>1258</ele>
        <time>2020-05-22T09:57:48.856Z</time>
      </trkpt>
      <trkpt lat="44.84271" lon="5.40798">
        <ele>1258</ele>
        <time>2020-05-22T09:57:49.855Z</time>
      </trkpt>
      <trkpt lat="44.84268" lon="5.40794">
        <ele>1258</ele>
        <time>2020-05-22T09:57:50.856Z</time>
      </trkpt>
      <trkpt lat="44.84265" lon="5.4079">
        <ele>1258</ele>
        <time>2020-05-22T09:57:51.856Z</time>
      </trkpt>
      <trkpt lat="44.84261" lon="5.40786">
        <ele>1259</ele>
        <time>2020-05-22T09:57:52.856Z</time>
      </trkpt>
      <trkpt lat="44.84258" lon="5.40783">
        <ele>1259</ele>
        <time>2020-05-22T09:57:53.855Z</time>
      </trkpt>
      <trkpt lat="44.84255" lon="5.4078">
        <ele>1259</ele>
        <time>2020-05-22T09:57:54.856Z</time>
      </trkpt>
      <trkpt lat="44.84251" lon="5.40777">
        <ele>1259</ele>
        <time>2020-05-22T09:57:55.856Z</time>
      </trkpt>
      <trkpt lat="44.84246" lon="5.40774">
        <ele>1260</ele>
        <time>2020-05-22T09:57:56.856Z</time>
      </trkpt>
      <trkpt lat="44.84243" lon="5.40771">
        <ele>1260</ele>
        <time>2020-05-22T09:57:57.856Z</time>
      </trkpt>
      <trkpt lat="44.84239" lon="5.40768">
        <ele>1261</ele>
        <time>2020-05-22T09:57:58.856Z</time>
      </trkpt>
      <trkpt lat="44.84236" lon="5.40766">
        <ele>1261</ele>
        <time>2020-05-22T09:57:59.856Z</time>
      </trkpt>
      <trkpt lat="44.84232" lon="5.40764">
        <ele>1261</ele>
        <time>2020-05-22T09:58:00.856Z</time>
      </trkpt>
      <trkpt lat="44.84229" lon="5.40762">
        <ele>1262</ele>
        <time>2020-05-22T09:58:01.856Z</time>
      </trkpt>
      <trkpt lat="44.84226" lon="5.4076">
        <ele>1262</ele>
        <time>2020-05-22T09:58:02.856Z</time>
      </trkpt>
      <trkpt lat="44.84223" lon="5.40758">
        <ele>1262</ele>
        <time>2020-05-22T09:58:03.856Z</time>
      </trkpt>
      <trkpt lat="44.84219" lon="5.40756">
        <ele>1262</ele>
        <time>2020-05-22T09:58:04.856Z</time>
      </trkpt>
      <trkpt lat="44.84216" lon="5.40754">
        <ele>1263</ele>
        <time>2020-05-22T09:58:05.856Z</time>
      </trkpt>
      <trkpt lat="44.84212" lon="5.40751">
        <ele>1263</ele>
        <time>2020-05-22T09:58:06.856Z</time>
      </trkpt>
      <trkpt lat="44.84208" lon="5.40749">
        <ele>1264</ele>
        <time>2020-05-22T09:58:07.856Z</time>
      </trkpt>
      <trkpt lat="44.84204" lon="5.40747">
        <ele>1265</ele>
        <time>2020-05-22T09:58:08.856Z</time>
      </trkpt>
      <trkpt lat="44.842" lon="5.40746">
        <ele>1265</ele>
        <time>2020-05-22T09:58:09.856Z</time>
      </trkpt>
      <trkpt lat="44.84196" lon="5.40744">
        <ele>1266</ele>
        <time>2020-05-22T09:58:10.855Z</time>
      </trkpt>
      <trkpt lat="44.84192" lon="5.40741">
        <ele>1267</ele>
        <time>2020-05-22T09:58:11.856Z</time>
      </trkpt>
      <trkpt lat="44.84188" lon="5.4074">
        <ele>1268</ele>
        <time>2020-05-22T09:58:12.855Z</time>
      </trkpt>
      <trkpt lat="44.84185" lon="5.40738">
        <ele>1268</ele>
        <time>2020-05-22T09:58:13.856Z</time>
      </trkpt>
      <trkpt lat="44.8418" lon="5.40736">
        <ele>1269</ele>
        <time>2020-05-22T09:58:14.856Z</time>
      </trkpt>
      <trkpt lat="44.84176" lon="5.40734">
        <ele>1270</ele>
        <time>2020-05-22T09:58:15.856Z</time>
      </trkpt>
      <trkpt lat="44.84172" lon="5.40731">
        <ele>1270</ele>
        <time>2020-05-22T09:58:16.856Z</time>
      </trkpt>
      <trkpt lat="44.84169" lon="5.40729">
        <ele>1271</ele>
        <time>2020-05-22T09:58:17.855Z</time>
      </trkpt>
      <trkpt lat="44.84165" lon="5.40727">
        <ele>1271</ele>
        <time>2020-05-22T09:58:18.856Z</time>
      </trkpt>
      <trkpt lat="44.8416" lon="5.40725">
        <ele>1272</ele>
        <time>2020-05-22T09:58:19.855Z</time>
      </trkpt>
      <trkpt lat="44.84155" lon="5.40724">
        <ele>1272</ele>
        <time>2020-05-22T09:58:20.856Z</time>
      </trkpt>
      <trkpt lat="44.84151" lon="5.40722">
        <ele>1272</ele>
        <time>2020-05-22T09:58:21.855Z</time>
      </trkpt>
      <trkpt lat="44.84148" lon="5.4072">
        <ele>1272</ele>
        <time>2020-05-22T09:58:22.856Z</time>
      </trkpt>
      <trkpt lat="44.84144" lon="5.40719">
        <ele>1271</ele>
        <time>2020-05-22T09:58:23.856Z</time>
      </trkpt>
      <trkpt lat="44.84139" lon="5.40717">
        <ele>1271</ele>
        <time>2020-05-22T09:58:24.856Z</time>
      </trkpt>
      <trkpt lat="44.84136" lon="5.40716">
        <ele>1270</ele>
        <time>2020-05-22T09:58:25.855Z</time>
      </trkpt>
      <trkpt lat="44.84131" lon="5.40714">
        <ele>1269</ele>
        <time>2020-05-22T09:58:26.856Z</time>
      </trkpt>
      <trkpt lat="44.84128" lon="5.40713">
        <ele>1268</ele>
        <time>2020-05-22T09:58:27.855Z</time>
      </trkpt>
      <trkpt lat="44.84124" lon="5.40711">
        <ele>1267</ele>
        <time>2020-05-22T09:58:28.856Z</time>
      </trkpt>
      <trkpt lat="44.84119" lon="5.40709">
        <ele>1267</ele>
        <time>2020-05-22T09:58:29.856Z</time>
      </trkpt>
      <trkpt lat="44.84116" lon="5.40708">
        <ele>1267</ele>
        <time>2020-05-22T09:58:30.856Z</time>
      </trkpt>
      <trkpt lat="44.84112" lon="5.40707">
        <ele>1266</ele>
        <time>2020-05-22T09:58:31.856Z</time>
      </trkpt>
      <trkpt lat="44.84109" lon="5.40706">
        <ele>1266</ele>
        <time>2020-05-22T09:58:32.856Z</time>
      </trkpt>
      <trkpt lat="44.84105" lon="5.40705">
        <ele>1266</ele>
        <time>2020-05-22T09:58:33.856Z</time>
      </trkpt>
      <trkpt lat="44.84101" lon="5.40703">
        <ele>1266</ele>
        <time>2020-05-22T09:58:34.856Z</time>
      </trkpt>
      <trkpt lat="44.84097" lon="5.40702">
        <ele>1266</ele>
        <time>2020-05-22T09:58:35.855Z</time>
      </trkpt>
      <trkpt lat="44.84094" lon="5.40701">
        <ele>1265</ele>
        <time>2020-05-22T09:58:36.856Z</time>
      </trkpt>
      <trkpt lat="44.8409" lon="5.40699">
        <ele>1265</ele>
        <time>2020-05-22T09:58:37.855Z</time>
      </trkpt>
      <trkpt lat="44.84086" lon="5.40697">
        <ele>1264</ele>
        <time>2020-05-22T09:58:38.855Z</time>
      </trkpt>
      <trkpt lat="44.84082" lon="5.40696">
        <ele>1264</ele>
        <time>2020-05-22T09:58:39.856Z</time>
      </trkpt>
      <trkpt lat="44.84078" lon="5.40695">
        <ele>1263</ele>
        <time>2020-05-22T09:58:40.856Z</time>
      </trkpt>
      <trkpt lat="44.84075" lon="5.40693">
        <ele>1263</ele>
        <time>2020-05-22T09:58:41.855Z</time>
      </trkpt>
      <trkpt lat="44.84071" lon="5.40692">
        <ele>1262</ele>
        <time>2020-05-22T09:58:42.856Z</time>
      </trkpt>
      <trkpt lat="44.84066" lon="5.40688">
        <ele>1262</ele>
        <time>2020-05-22T09:58:43.856Z</time>
      </trkpt>
      <trkpt lat="44.84062" lon="5.40686">
        <ele>1261</ele>
        <time>2020-05-22T09:58:44.856Z</time>
      </trkpt>
      <trkpt lat="44.84058" lon="5.40683">
        <ele>1261</ele>
        <time>2020-05-22T09:58:45.856Z</time>
      </trkpt>
      <trkpt lat="44.84053" lon="5.4068">
        <ele>1260</ele>
        <time>2020-05-22T09:58:46.856Z</time>
      </trkpt>
      <trkpt lat="44.84048" lon="5.40677">
        <ele>1260</ele>
        <time>2020-05-22T09:58:47.856Z</time>
      </trkpt>
      <trkpt lat="44.84043" lon="5.40673">
        <ele>1260</ele>
        <time>2020-05-22T09:58:48.856Z</time>
      </trkpt>
      <trkpt lat="44.84038" lon="5.40669">
        <ele>1259</ele>
        <time>2020-05-22T09:58:49.855Z</time>
      </trkpt>
      <trkpt lat="44.84034" lon="5.40664">
        <ele>1258</ele>
        <time>2020-05-22T09:58:50.856Z</time>
      </trkpt>
      <trkpt lat="44.8403" lon="5.40658">
        <ele>1258</ele>
        <time>2020-05-22T09:58:51.856Z</time>
      </trkpt>
      <trkpt lat="44.84028" lon="5.40653">
        <ele>1257</ele>
        <time>2020-05-22T09:58:52.856Z</time>
      </trkpt>
      <trkpt lat="44.84025" lon="5.40647">
        <ele>1257</ele>
        <time>2020-05-22T09:58:53.856Z</time>
      </trkpt>
      <trkpt lat="44.84024" lon="5.40641">
        <ele>1256</ele>
        <time>2020-05-22T09:58:54.855Z</time>
      </trkpt>
      <trkpt lat="44.84024" lon="5.40636">
        <ele>1255</ele>
        <time>2020-05-22T09:58:55.856Z</time>
      </trkpt>
      <trkpt lat="44.84024" lon="5.40632">
        <ele>1255</ele>
        <time>2020-05-22T09:58:56.856Z</time>
      </trkpt>
      <trkpt lat="44.84025" lon="5.40629">
        <ele>1255</ele>
        <time>2020-05-22T09:58:57.856Z</time>
      </trkpt>
      <trkpt lat="44.84026" lon="5.40626">
        <ele>1255</ele>
        <time>2020-05-22T09:58:58.855Z</time>
      </trkpt>
      <trkpt lat="44.84027" lon="5.40624">
        <ele>1255</ele>
        <time>2020-05-22T09:58:59.856Z</time>
      </trkpt>
      <trkpt lat="44.84029" lon="5.40622">
        <ele>1255</ele>
        <time>2020-05-22T09:59:00.856Z</time>
      </trkpt>
      <trkpt lat="44.84031" lon="5.4062">
        <ele>1254</ele>
        <time>2020-05-22T09:59:01.855Z</time>
      </trkpt>
      <trkpt lat="44.84032" lon="5.4062">
        <ele>1254</ele>
        <time>2020-05-22T09:59:02.856Z</time>
      </trkpt>
      <trkpt lat="44.84035" lon="5.40618">
        <ele>1254</ele>
        <time>2020-05-22T09:59:03.855Z</time>
      </trkpt>
      <trkpt lat="44.84037" lon="5.40617">
        <ele>1253</ele>
        <time>2020-05-22T09:59:04.856Z</time>
      </trkpt>
      <trkpt lat="44.8404" lon="5.40616">
        <ele>1253</ele>
        <time>2020-05-22T09:59:05.855Z</time>
      </trkpt>
      <trkpt lat="44.84043" lon="5.40616">
        <ele>1252</ele>
        <time>2020-05-22T09:59:06.855Z</time>
      </trkpt>
      <trkpt lat="44.84046" lon="5.40617">
        <ele>1252</ele>
        <time>2020-05-22T09:59:07.856Z</time>
      </trkpt>
      <trkpt lat="44.8405" lon="5.4062">
        <ele>1252</ele>
        <time>2020-05-22T09:59:08.856Z</time>
      </trkpt>
      <trkpt lat="44.84052" lon="5.40623">
        <ele>1252</ele>
        <time>2020-05-22T09:59:09.856Z</time>
      </trkpt>
      <trkpt lat="44.84055" lon="5.40626">
        <ele>1251</ele>
        <time>2020-05-22T09:59:10.856Z</time>
      </trkpt>
      <trkpt lat="44.84058" lon="5.40629">
        <ele>1251</ele>
        <time>2020-05-22T09:59:11.856Z</time>
      </trkpt>
      <trkpt lat="44.84062" lon="5.40632">
        <ele>1251</ele>
        <time>2020-05-22T09:59:12.856Z</time>
      </trkpt>
      <trkpt lat="44.84066" lon="5.40634">
        <ele>1251</ele>
        <time>2020-05-22T09:59:13.856Z</time>
      </trkpt>
      <trkpt lat="44.8407" lon="5.40635">
        <ele>1250</ele>
        <time>2020-05-22T09:59:14.856Z</time>
      </trkpt>
      <trkpt lat="44.84075" lon="5.40635">
        <ele>1250</ele>
        <time>2020-05-22T09:59:15.856Z</time>
      </trkpt>
      <trkpt lat="44.8408" lon="5.40636">
        <ele>1250</ele>
        <time>2020-05-22T09:59:16.856Z</time>
      </trkpt>
      <trkpt lat="44.84086" lon="5.40636">
        <ele>1250</ele>
        <time>2020-05-22T09:59:17.856Z</time>
      </trkpt>
      <trkpt lat="44.84091" lon="5.40636">
        <ele>1249</ele>
        <time>2020-05-22T09:59:18.856Z</time>
      </trkpt>
      <trkpt lat="44.84097" lon="5.40636">
        <ele>1249</ele>
        <time>2020-05-22T09:59:19.856Z</time>
      </trkpt>
      <trkpt lat="44.84102" lon="5.40636">
        <ele>1249</ele>
        <time>2020-05-22T09:59:20.856Z</time>
      </trkpt>
      <trkpt lat="44.84108" lon="5.40635">
        <ele>1249</ele>
        <time>2020-05-22T09:59:21.856Z</time>
      </trkpt>
      <trkpt lat="44.84115" lon="5.40635">
        <ele>1249</ele>
        <time>2020-05-22T09:59:22.856Z</time>
      </trkpt>
      <trkpt lat="44.84121" lon="5.40635">
        <ele>1249</ele>
        <time>2020-05-22T09:59:23.856Z</time>
      </trkpt>
      <trkpt lat="44.84126" lon="5.40636">
        <ele>1248</ele>
        <time>2020-05-22T09:59:24.856Z</time>
      </trkpt>
      <trkpt lat="44.8413" lon="5.40638">
        <ele>1248</ele>
        <time>2020-05-22T09:59:25.855Z</time>
      </trkpt>
      <trkpt lat="44.84134" lon="5.40639">
        <ele>1248</ele>
        <time>2020-05-22T09:59:26.855Z</time>
      </trkpt>
      <trkpt lat="44.84138" lon="5.40639">
        <ele>1248</ele>
        <time>2020-05-22T09:59:27.855Z</time>
      </trkpt>
      <trkpt lat="44.8414" lon="5.40638">
        <ele>1248</ele>
        <time>2020-05-22T09:59:28.856Z</time>
      </trkpt>
      <trkpt lat="44.84142" lon="5.40637">
        <ele>1247</ele>
        <time>2020-05-22T09:59:29.856Z</time>
      </trkpt>
      <trkpt lat="44.84142" lon="5.40637">
        <ele>1247</ele>
        <time>2020-05-22T09:59:30.855Z</time>
      </trkpt>
      <trkpt lat="44.84142" lon="5.40637">
        <ele>1248</ele>
        <time>2020-05-22T09:59:31.856Z</time>
      </trkpt>
      <trkpt lat="44.84141" lon="5.40637">
        <ele>1248</ele>
        <time>2020-05-22T09:59:32.855Z</time>
      </trkpt>
      <trkpt lat="44.84141" lon="5.40637">
        <ele>1248</ele>
        <time>2020-05-22T09:59:33.856Z</time>
      </trkpt>
      <trkpt lat="44.84141" lon="5.40637">
        <ele>1248</ele>
        <time>2020-05-22T09:59:34.856Z</time>
      </trkpt>
      <trkpt lat="44.84141" lon="5.40637">
        <ele>1248</ele>
        <time>2020-05-22T09:59:35.855Z</time>
      </trkpt>
      <trkpt lat="44.84141" lon="5.40637">
        <ele>1248</ele>
        <time>2020-05-22T09:59:36.856Z</time>
      </trkpt>
      <trkpt lat="44.84141" lon="5.40637">
        <ele>1248</ele>
        <time>2020-05-22T09:59:37.856Z</time>
      </trkpt>
      <trkpt lat="44.84141" lon="5.40637">
        <ele>1248</ele>
        <time>2020-05-22T09:59:38.856Z</time>
      </trkpt>
      <trkpt lat="44.84141" lon="5.40636">
        <ele>1248</ele>
        <time>2020-05-22T09:59:39.855Z</time>
      </trkpt>
      <trkpt lat="44.84141" lon="5.40633">
        <ele>1248</ele>
        <time>2020-05-22T09:59:40.855Z</time>
      </trkpt>
      <trkpt lat="44.84141" lon="5.4063">
        <ele>1248</ele>
        <time>2020-05-22T09:59:41.855Z</time>
      </trkpt>
      <trkpt lat="44.84141" lon="5.40627">
        <ele>1248</ele>
        <time>2020-05-22T09:59:42.856Z</time>
      </trkpt>
      <trkpt lat="44.84141" lon="5.40623">
        <ele>1248</ele>
        <time>2020-05-22T09:59:43.856Z</time>
      </trkpt>
      <trkpt lat="44.8414" lon="5.40619">
        <ele>1248</ele>
        <time>2020-05-22T09:59:44.855Z</time>
      </trkpt>
      <trkpt lat="44.8414" lon="5.40615">
        <ele>1248</ele>
        <time>2020-05-22T09:59:45.856Z</time>
      </trkpt>
      <trkpt lat="44.8414" lon="5.40611">
        <ele>1248</ele>
        <time>2020-05-22T09:59:46.855Z</time>
      </trkpt>
      <trkpt lat="44.8414" lon="5.40607">
        <ele>1248</ele>
        <time>2020-05-22T09:59:47.855Z</time>
      </trkpt>
      <trkpt lat="44.84141" lon="5.40603">
        <ele>1248</ele>
        <time>2020-05-22T09:59:48.856Z</time>
      </trkpt>
      <trkpt lat="44.84142" lon="5.40599">
        <ele>1248</ele>
        <time>2020-05-22T09:59:49.855Z</time>
      </trkpt>
      <trkpt lat="44.84143" lon="5.40595">
        <ele>1248</ele>
        <time>2020-05-22T09:59:50.855Z</time>
      </trkpt>
      <trkpt lat="44.84144" lon="5.40591">
        <ele>1248</ele>
        <time>2020-05-22T09:59:51.855Z</time>
      </trkpt>
      <trkpt lat="44.84145" lon="5.40587">
        <ele>1248</ele>
        <time>2020-05-22T09:59:52.856Z</time>
      </trkpt>
      <trkpt lat="44.84146" lon="5.40583">
        <ele>1248</ele>
        <time>2020-05-22T09:59:53.855Z</time>
      </trkpt>
      <trkpt lat="44.84148" lon="5.4058">
        <ele>1249</ele>
        <time>2020-05-22T09:59:54.856Z</time>
      </trkpt>
      <trkpt lat="44.84151" lon="5.40576">
        <ele>1249</ele>
        <time>2020-05-22T09:59:55.856Z</time>
      </trkpt>
      <trkpt lat="44.84153" lon="5.40573">
        <ele>1249</ele>
        <time>2020-05-22T09:59:56.856Z</time>
      </trkpt>
      <trkpt lat="44.84155" lon="5.40569">
        <ele>1250</ele>
        <time>2020-05-22T09:59:57.856Z</time>
      </trkpt>
      <trkpt lat="44.84157" lon="5.40565">
        <ele>1250</ele>
        <time>2020-05-22T09:59:58.856Z</time>
      </trkpt>
      <trkpt lat="44.84161" lon="5.40562">
        <ele>1250</ele>
        <time>2020-05-22T09:59:59.856Z</time>
      </trkpt>
      <trkpt lat="44.84165" lon="5.40559">
        <ele>1249</ele>
        <time>2020-05-22T10:00:00.856Z</time>
      </trkpt>
      <trkpt lat="44.84168" lon="5.40556">
        <ele>1249</ele>
        <time>2020-05-22T10:00:01.855Z</time>
      </trkpt>
      <trkpt lat="44.84171" lon="5.40553">
        <ele>1248</ele>
        <time>2020-05-22T10:00:02.856Z</time>
      </trkpt>
      <trkpt lat="44.84175" lon="5.4055">
        <ele>1248</ele>
        <time>2020-05-22T10:00:03.856Z</time>
      </trkpt>
      <trkpt lat="44.84179" lon="5.40548">
        <ele>1248</ele>
        <time>2020-05-22T10:00:04.856Z</time>
      </trkpt>
      <trkpt lat="44.84185" lon="5.40545">
        <ele>1248</ele>
        <time>2020-05-22T10:00:05.856Z</time>
      </trkpt>
      <trkpt lat="44.8419" lon="5.40543">
        <ele>1249</ele>
        <time>2020-05-22T10:00:06.856Z</time>
      </trkpt>
      <trkpt lat="44.84194" lon="5.40541">
        <ele>1249</ele>
        <time>2020-05-22T10:00:07.856Z</time>
      </trkpt>
      <trkpt lat="44.84198" lon="5.4054">
        <ele>1250</ele>
        <time>2020-05-22T10:00:08.856Z</time>
      </trkpt>
      <trkpt lat="44.84202" lon="5.40538">
        <ele>1250</ele>
        <time>2020-05-22T10:00:09.855Z</time>
      </trkpt>
      <trkpt lat="44.84205" lon="5.40537">
        <ele>1249</ele>
        <time>2020-05-22T10:00:10.856Z</time>
      </trkpt>
      <trkpt lat="44.84208" lon="5.40536">
        <ele>1249</ele>
        <time>2020-05-22T10:00:11.855Z</time>
      </trkpt>
      <trkpt lat="44.8421" lon="5.40535">
        <ele>1249</ele>
        <time>2020-05-22T10:00:12.856Z</time>
      </trkpt>
      <trkpt lat="44.84213" lon="5.40534">
        <ele>1249</ele>
        <time>2020-05-22T10:00:13.856Z</time>
      </trkpt>
      <trkpt lat="44.84215" lon="5.40534">
        <ele>1249</ele>
        <time>2020-05-22T10:00:14.856Z</time>
      </trkpt>
      <trkpt lat="44.84217" lon="5.40533">
        <ele>1249</ele>
        <time>2020-05-22T10:00:15.856Z</time>
      </trkpt>
      <trkpt lat="44.84218" lon="5.40533">
        <ele>1248</ele>
        <time>2020-05-22T10:00:16.856Z</time>
      </trkpt>
      <trkpt lat="44.8422" lon="5.40533">
        <ele>1248</ele>
        <time>2020-05-22T10:00:17.856Z</time>
      </trkpt>
      <trkpt lat="44.84222" lon="5.40532">
        <ele>1248</ele>
        <time>2020-05-22T10:00:18.856Z</time>
      </trkpt>
      <trkpt lat="44.84223" lon="5.40531">
        <ele>1247</ele>
        <time>2020-05-22T10:00:19.856Z</time>
      </trkpt>
      <trkpt lat="44.84224" lon="5.4053">
        <ele>1247</ele>
        <time>2020-05-22T10:00:20.856Z</time>
      </trkpt>
      <trkpt lat="44.84225" lon="5.40528">
        <ele>1247</ele>
        <time>2020-05-22T10:00:21.855Z</time>
      </trkpt>
      <trkpt lat="44.84225" lon="5.40526">
        <ele>1247</ele>
        <time>2020-05-22T10:00:22.856Z</time>
      </trkpt>
      <trkpt lat="44.84225" lon="5.40524">
        <ele>1246</ele>
        <time>2020-05-22T10:00:23.855Z</time>
      </trkpt>
      <trkpt lat="44.84225" lon="5.40521">
        <ele>1246</ele>
        <time>2020-05-22T10:00:24.856Z</time>
      </trkpt>
      <trkpt lat="44.84224" lon="5.40519">
        <ele>1246</ele>
        <time>2020-05-22T10:00:25.856Z</time>
      </trkpt>
      <trkpt lat="44.84224" lon="5.40517">
        <ele>1246</ele>
        <time>2020-05-22T10:00:26.856Z</time>
      </trkpt>
      <trkpt lat="44.84224" lon="5.40516">
        <ele>1246</ele>
        <time>2020-05-22T10:00:27.856Z</time>
      </trkpt>
      <trkpt lat="44.84223" lon="5.40514">
        <ele>1247</ele>
        <time>2020-05-22T10:00:28.856Z</time>
      </trkpt>
      <trkpt lat="44.84223" lon="5.40512">
        <ele>1247</ele>
        <time>2020-05-22T10:00:29.856Z</time>
      </trkpt>
      <trkpt lat="44.84223" lon="5.40512">
        <ele>1247</ele>
        <time>2020-05-22T10:00:30.855Z</time>
      </trkpt>
      <trkpt lat="44.84222" lon="5.4051">
        <ele>1248</ele>
        <time>2020-05-22T10:00:31.856Z</time>
      </trkpt>
      <trkpt lat="44.84221" lon="5.40509">
        <ele>1248</ele>
        <time>2020-05-22T10:00:32.856Z</time>
      </trkpt>
      <trkpt lat="44.8422" lon="5.40508">
        <ele>1249</ele>
        <time>2020-05-22T10:00:33.855Z</time>
      </trkpt>
      <trkpt lat="44.8422" lon="5.40508">
        <ele>1250</ele>
        <time>2020-05-22T10:00:34.856Z</time>
      </trkpt>
      <trkpt lat="44.84221" lon="5.40508">
        <ele>1250</ele>
        <time>2020-05-22T10:00:35.856Z</time>
      </trkpt>
      <trkpt lat="44.84221" lon="5.40507">
        <ele>1251</ele>
        <time>2020-05-22T10:00:36.856Z</time>
      </trkpt>
      <trkpt lat="44.84223" lon="5.40506">
        <ele>1251</ele>
        <time>2020-05-22T10:00:37.857Z</time>
      </trkpt>
      <trkpt lat="44.84223" lon="5.40507">
        <ele>1251</ele>
        <time>2020-05-22T10:00:38.857Z</time>
      </trkpt>
      <trkpt lat="44.84224" lon="5.40508">
        <ele>1251</ele>
        <time>2020-05-22T10:00:39.856Z</time>
      </trkpt>
      <trkpt lat="44.84225" lon="5.40508">
        <ele>1251</ele>
        <time>2020-05-22T10:00:40.857Z</time>
      </trkpt>
      <trkpt lat="44.84227" lon="5.40507">
        <ele>1251</ele>
        <time>2020-05-22T10:00:41.857Z</time>
      </trkpt>
      <trkpt lat="44.84228" lon="5.40507">
        <ele>1251</ele>
        <time>2020-05-22T10:00:42.857Z</time>
      </trkpt>
      <trkpt lat="44.84229" lon="5.40506">
        <ele>1251</ele>
        <time>2020-05-22T10:00:43.856Z</time>
      </trkpt>
      <trkpt lat="44.84231" lon="5.40506">
        <ele>1251</ele>
        <time>2020-05-22T10:00:44.856Z</time>
      </trkpt>
      <trkpt lat="44.84232" lon="5.40505">
        <ele>1250</ele>
        <time>2020-05-22T10:00:45.857Z</time>
      </trkpt>
      <trkpt lat="44.84233" lon="5.40505">
        <ele>1250</ele>
        <time>2020-05-22T10:00:46.857Z</time>
      </trkpt>
      <trkpt lat="44.84235" lon="5.40505">
        <ele>1250</ele>
        <time>2020-05-22T10:00:47.856Z</time>
      </trkpt>
      <trkpt lat="44.84236" lon="5.40504">
        <ele>1250</ele>
        <time>2020-05-22T10:00:48.857Z</time>
      </trkpt>
      <trkpt lat="44.84238" lon="5.40504">
        <ele>1249</ele>
        <time>2020-05-22T10:00:49.857Z</time>
      </trkpt>
      <trkpt lat="44.84239" lon="5.40504">
        <ele>1249</ele>
        <time>2020-05-22T10:00:50.856Z</time>
      </trkpt>
      <trkpt lat="44.84241" lon="5.40504">
        <ele>1249</ele>
        <time>2020-05-22T10:00:51.857Z</time>
      </trkpt>
      <trkpt lat="44.84242" lon="5.40503">
        <ele>1249</ele>
        <time>2020-05-22T10:00:52.857Z</time>
      </trkpt>
      <trkpt lat="44.84243" lon="5.40503">
        <ele>1248</ele>
        <time>2020-05-22T10:00:53.857Z</time>
      </trkpt>
      <trkpt lat="44.84245" lon="5.40502">
        <ele>1248</ele>
        <time>2020-05-22T10:00:54.857Z</time>
      </trkpt>
      <trkpt lat="44.84246" lon="5.40503">
        <ele>1248</ele>
        <time>2020-05-22T10:00:55.857Z</time>
      </trkpt>
      <trkpt lat="44.84248" lon="5.40503">
        <ele>1249</ele>
        <time>2020-05-22T10:00:56.856Z</time>
      </trkpt>
      <trkpt lat="44.8425" lon="5.40503">
        <ele>1249</ele>
        <time>2020-05-22T10:00:57.857Z</time>
      </trkpt>
      <trkpt lat="44.84251" lon="5.40503">
        <ele>1250</ele>
        <time>2020-05-22T10:00:58.857Z</time>
      </trkpt>
      <trkpt lat="44.84253" lon="5.40503">
        <ele>1251</ele>
        <time>2020-05-22T10:00:59.857Z</time>
      </trkpt>
      <trkpt lat="44.84254" lon="5.40503">
        <ele>1251</ele>
        <time>2020-05-22T10:01:00.857Z</time>
      </trkpt>
      <trkpt lat="44.84256" lon="5.40503">
        <ele>1251</ele>
        <time>2020-05-22T10:01:01.857Z</time>
      </trkpt>
      <trkpt lat="44.84258" lon="5.40502">
        <ele>1251</ele>
        <time>2020-05-22T10:01:02.857Z</time>
      </trkpt>
      <trkpt lat="44.8426" lon="5.40502">
        <ele>1251</ele>
        <time>2020-05-22T10:01:03.856Z</time>
      </trkpt>
      <trkpt lat="44.84261" lon="5.40501">
        <ele>1250</ele>
        <time>2020-05-22T10:01:04.857Z</time>
      </trkpt>
      <trkpt lat="44.84263" lon="5.40501">
        <ele>1250</ele>
        <time>2020-05-22T10:01:05.857Z</time>
      </trkpt>
      <trkpt lat="44.84264" lon="5.40501">
        <ele>1250</ele>
        <time>2020-05-22T10:01:06.856Z</time>
      </trkpt>
      <trkpt lat="44.84266" lon="5.40501">
        <ele>1249</ele>
        <time>2020-05-22T10:01:07.857Z</time>
      </trkpt>
      <trkpt lat="44.84267" lon="5.405">
        <ele>1249</ele>
        <time>2020-05-22T10:01:08.856Z</time>
      </trkpt>
      <trkpt lat="44.84269" lon="5.405">
        <ele>1250</ele>
        <time>2020-05-22T10:01:09.856Z</time>
      </trkpt>
      <trkpt lat="44.84271" lon="5.40499">
        <ele>1250</ele>
        <time>2020-05-22T10:01:10.856Z</time>
      </trkpt>
      <trkpt lat="44.84273" lon="5.40498">
        <ele>1250</ele>
        <time>2020-05-22T10:01:11.857Z</time>
      </trkpt>
      <trkpt lat="44.84275" lon="5.40497">
        <ele>1250</ele>
        <time>2020-05-22T10:01:12.857Z</time>
      </trkpt>
      <trkpt lat="44.84277" lon="5.40497">
        <ele>1251</ele>
        <time>2020-05-22T10:01:13.857Z</time>
      </trkpt>
      <trkpt lat="44.84278" lon="5.40496">
        <ele>1251</ele>
        <time>2020-05-22T10:01:14.856Z</time>
      </trkpt>
      <trkpt lat="44.8428" lon="5.40496">
        <ele>1252</ele>
        <time>2020-05-22T10:01:15.857Z</time>
      </trkpt>
      <trkpt lat="44.84282" lon="5.40496">
        <ele>1252</ele>
        <time>2020-05-22T10:01:16.857Z</time>
      </trkpt>
      <trkpt lat="44.84284" lon="5.40495">
        <ele>1252</ele>
        <time>2020-05-22T10:01:17.857Z</time>
      </trkpt>
      <trkpt lat="44.84287" lon="5.40495">
        <ele>1253</ele>
        <time>2020-05-22T10:01:18.857Z</time>
      </trkpt>
      <trkpt lat="44.84288" lon="5.40495">
        <ele>1253</ele>
        <time>2020-05-22T10:01:19.856Z</time>
      </trkpt>
      <trkpt lat="44.8429" lon="5.40494">
        <ele>1253</ele>
        <time>2020-05-22T10:01:20.857Z</time>
      </trkpt>
      <trkpt lat="44.84293" lon="5.40493">
        <ele>1253</ele>
        <time>2020-05-22T10:01:21.856Z</time>
      </trkpt>
      <trkpt lat="44.84295" lon="5.40493">
        <ele>1253</ele>
        <time>2020-05-22T10:01:22.856Z</time>
      </trkpt>
      <trkpt lat="44.84297" lon="5.40494">
        <ele>1254</ele>
        <time>2020-05-22T10:01:23.857Z</time>
      </trkpt>
      <trkpt lat="44.84298" lon="5.40493">
        <ele>1254</ele>
        <time>2020-05-22T10:01:24.856Z</time>
      </trkpt>
      <trkpt lat="44.843" lon="5.40493">
        <ele>1254</ele>
        <time>2020-05-22T10:01:25.857Z</time>
      </trkpt>
      <trkpt lat="44.84302" lon="5.40492">
        <ele>1254</ele>
        <time>2020-05-22T10:01:26.856Z</time>
      </trkpt>
      <trkpt lat="44.84304" lon="5.40491">
        <ele>1254</ele>
        <time>2020-05-22T10:01:27.857Z</time>
      </trkpt>
      <trkpt lat="44.84306" lon="5.4049">
        <ele>1254</ele>
        <time>2020-05-22T10:01:28.857Z</time>
      </trkpt>
      <trkpt lat="44.84307" lon="5.40489">
        <ele>1254</ele>
        <time>2020-05-22T10:01:29.857Z</time>
      </trkpt>
      <trkpt lat="44.84309" lon="5.40488">
        <ele>1254</ele>
        <time>2020-05-22T10:01:30.857Z</time>
      </trkpt>
      <trkpt lat="44.8431" lon="5.40488">
        <ele>1255</ele>
        <time>2020-05-22T10:01:31.856Z</time>
      </trkpt>
      <trkpt lat="44.84312" lon="5.40488">
        <ele>1255</ele>
        <time>2020-05-22T10:01:32.857Z</time>
      </trkpt>
      <trkpt lat="44.84313" lon="5.40487">
        <ele>1255</ele>
        <time>2020-05-22T10:01:33.857Z</time>
      </trkpt>
      <trkpt lat="44.84314" lon="5.40487">
        <ele>1255</ele>
        <time>2020-05-22T10:01:34.857Z</time>
      </trkpt>
      <trkpt lat="44.84315" lon="5.40486">
        <ele>1256</ele>
        <time>2020-05-22T10:01:35.857Z</time>
      </trkpt>
      <trkpt lat="44.84316" lon="5.40486">
        <ele>1256</ele>
        <time>2020-05-22T10:01:36.857Z</time>
      </trkpt>
      <trkpt lat="44.84318" lon="5.40485">
        <ele>1257</ele>
        <time>2020-05-22T10:01:37.857Z</time>
      </trkpt>
      <trkpt lat="44.84319" lon="5.40485">
        <ele>1257</ele>
        <time>2020-05-22T10:01:38.857Z</time>
      </trkpt>
      <trkpt lat="44.84321" lon="5.40485">
        <ele>1257</ele>
        <time>2020-05-22T10:01:39.857Z</time>
      </trkpt>
      <trkpt lat="44.84322" lon="5.40484">
        <ele>1256</ele>
        <time>2020-05-22T10:01:40.857Z</time>
      </trkpt>
      <trkpt lat="44.84324" lon="5.40484">
        <ele>1256</ele>
        <time>2020-05-22T10:01:41.857Z</time>
      </trkpt>
      <trkpt lat="44.84326" lon="5.40484">
        <ele>1256</ele>
        <time>2020-05-22T10:01:42.857Z</time>
      </trkpt>
      <trkpt lat="44.84328" lon="5.40483">
        <ele>1256</ele>
        <time>2020-05-22T10:01:43.857Z</time>
      </trkpt>
      <trkpt lat="44.84329" lon="5.40483">
        <ele>1256</ele>
        <time>2020-05-22T10:01:44.856Z</time>
      </trkpt>
      <trkpt lat="44.84331" lon="5.40482">
        <ele>1256</ele>
        <time>2020-05-22T10:01:45.857Z</time>
      </trkpt>
      <trkpt lat="44.84332" lon="5.40482">
        <ele>1256</ele>
        <time>2020-05-22T10:01:46.856Z</time>
      </trkpt>
      <trkpt lat="44.84334" lon="5.40482">
        <ele>1256</ele>
        <time>2020-05-22T10:01:47.856Z</time>
      </trkpt>
      <trkpt lat="44.84336" lon="5.40481">
        <ele>1256</ele>
        <time>2020-05-22T10:01:48.857Z</time>
      </trkpt>
      <trkpt lat="44.84338" lon="5.40481">
        <ele>1256</ele>
        <time>2020-05-22T10:01:49.857Z</time>
      </trkpt>
      <trkpt lat="44.84339" lon="5.40481">
        <ele>1256</ele>
        <time>2020-05-22T10:01:50.857Z</time>
      </trkpt>
      <trkpt lat="44.84341" lon="5.4048">
        <ele>1256</ele>
        <time>2020-05-22T10:01:51.856Z</time>
      </trkpt>
      <trkpt lat="44.84343" lon="5.4048">
        <ele>1257</ele>
        <time>2020-05-22T10:01:52.856Z</time>
      </trkpt>
      <trkpt lat="44.84344" lon="5.4048">
        <ele>1257</ele>
        <time>2020-05-22T10:01:53.857Z</time>
      </trkpt>
      <trkpt lat="44.84346" lon="5.40479">
        <ele>1257</ele>
        <time>2020-05-22T10:01:54.857Z</time>
      </trkpt>
      <trkpt lat="44.84347" lon="5.40478">
        <ele>1256</ele>
        <time>2020-05-22T10:01:55.857Z</time>
      </trkpt>
      <trkpt lat="44.84348" lon="5.40478">
        <ele>1256</ele>
        <time>2020-05-22T10:01:56.857Z</time>
      </trkpt>
      <trkpt lat="44.84349" lon="5.40477">
        <ele>1256</ele>
        <time>2020-05-22T10:01:57.856Z</time>
      </trkpt>
      <trkpt lat="44.84351" lon="5.40477">
        <ele>1256</ele>
        <time>2020-05-22T10:01:58.857Z</time>
      </trkpt>
      <trkpt lat="44.84352" lon="5.40476">
        <ele>1255</ele>
        <time>2020-05-22T10:01:59.857Z</time>
      </trkpt>
      <trkpt lat="44.84353" lon="5.40476">
        <ele>1255</ele>
        <time>2020-05-22T10:02:00.856Z</time>
      </trkpt>
      <trkpt lat="44.84354" lon="5.40475">
        <ele>1256</ele>
        <time>2020-05-22T10:02:01.857Z</time>
      </trkpt>
      <trkpt lat="44.84355" lon="5.40474">
        <ele>1256</ele>
        <time>2020-05-22T10:02:02.857Z</time>
      </trkpt>
      <trkpt lat="44.84356" lon="5.40474">
        <ele>1256</ele>
        <time>2020-05-22T10:02:03.857Z</time>
      </trkpt>
      <trkpt lat="44.84357" lon="5.40473">
        <ele>1256</ele>
        <time>2020-05-22T10:02:04.857Z</time>
      </trkpt>
      <trkpt lat="44.84359" lon="5.40473">
        <ele>1256</ele>
        <time>2020-05-22T10:02:05.857Z</time>
      </trkpt>
      <trkpt lat="44.84361" lon="5.40473">
        <ele>1257</ele>
        <time>2020-05-22T10:02:06.857Z</time>
      </trkpt>
      <trkpt lat="44.84362" lon="5.40473">
        <ele>1257</ele>
        <time>2020-05-22T10:02:07.856Z</time>
      </trkpt>
      <trkpt lat="44.84364" lon="5.40472">
        <ele>1257</ele>
        <time>2020-05-22T10:02:08.857Z</time>
      </trkpt>
      <trkpt lat="44.84366" lon="5.40472">
        <ele>1258</ele>
        <time>2020-05-22T10:02:09.856Z</time>
      </trkpt>
      <trkpt lat="44.84367" lon="5.40471">
        <ele>1258</ele>
        <time>2020-05-22T10:02:10.857Z</time>
      </trkpt>
      <trkpt lat="44.84369" lon="5.4047">
        <ele>1259</ele>
        <time>2020-05-22T10:02:11.857Z</time>
      </trkpt>
      <trkpt lat="44.8437" lon="5.4047">
        <ele>1259</ele>
        <time>2020-05-22T10:02:12.857Z</time>
      </trkpt>
      <trkpt lat="44.84372" lon="5.40469">
        <ele>1259</ele>
        <time>2020-05-22T10:02:13.857Z</time>
      </trkpt>
      <trkpt lat="44.84373" lon="5.40469">
        <ele>1260</ele>
        <time>2020-05-22T10:02:14.857Z</time>
      </trkpt>
      <trkpt lat="44.84375" lon="5.40468">
        <ele>1260</ele>
        <time>2020-05-22T10:02:15.857Z</time>
      </trkpt>
      <trkpt lat="44.84377" lon="5.40468">
        <ele>1260</ele>
        <time>2020-05-22T10:02:16.857Z</time>
      </trkpt>
      <trkpt lat="44.84379" lon="5.40467">
        <ele>1261</ele>
        <time>2020-05-22T10:02:17.856Z</time>
      </trkpt>
      <trkpt lat="44.8438" lon="5.40466">
        <ele>1261</ele>
        <time>2020-05-22T10:02:18.857Z</time>
      </trkpt>
      <trkpt lat="44.84382" lon="5.40465">
        <ele>1262</ele>
        <time>2020-05-22T10:02:19.857Z</time>
      </trkpt>
      <trkpt lat="44.84384" lon="5.40465">
        <ele>1262</ele>
        <time>2020-05-22T10:02:20.856Z</time>
      </trkpt>
      <trkpt lat="44.84386" lon="5.40464">
        <ele>1263</ele>
        <time>2020-05-22T10:02:21.857Z</time>
      </trkpt>
      <trkpt lat="44.84387" lon="5.40463">
        <ele>1263</ele>
        <time>2020-05-22T10:02:22.857Z</time>
      </trkpt>
      <trkpt lat="44.84389" lon="5.40463">
        <ele>1264</ele>
        <time>2020-05-22T10:02:23.857Z</time>
      </trkpt>
      <trkpt lat="44.8439" lon="5.40462">
        <ele>1265</ele>
        <time>2020-05-22T10:02:24.857Z</time>
      </trkpt>
      <trkpt lat="44.84391" lon="5.40462">
        <ele>1265</ele>
        <time>2020-05-22T10:02:25.857Z</time>
      </trkpt>
      <trkpt lat="44.84392" lon="5.40461">
        <ele>1266</ele>
        <time>2020-05-22T10:02:26.857Z</time>
      </trkpt>
      <trkpt lat="44.84394" lon="5.40461">
        <ele>1266</ele>
        <time>2020-05-22T10:02:27.857Z</time>
      </trkpt>
      <trkpt lat="44.84396" lon="5.4046">
        <ele>1267</ele>
        <time>2020-05-22T10:02:28.857Z</time>
      </trkpt>
      <trkpt lat="44.84397" lon="5.40458">
        <ele>1267</ele>
        <time>2020-05-22T10:02:29.857Z</time>
      </trkpt>
      <trkpt lat="44.84399" lon="5.40458">
        <ele>1267</ele>
        <time>2020-05-22T10:02:30.857Z</time>
      </trkpt>
      <trkpt lat="44.844" lon="5.40457">
        <ele>1267</ele>
        <time>2020-05-22T10:02:31.857Z</time>
      </trkpt>
      <trkpt lat="44.84401" lon="5.40455">
        <ele>1267</ele>
        <time>2020-05-22T10:02:32.857Z</time>
      </trkpt>
      <trkpt lat="44.84402" lon="5.40454">
        <ele>1268</ele>
        <time>2020-05-22T10:02:33.857Z</time>
      </trkpt>
      <trkpt lat="44.84404" lon="5.40454">
        <ele>1268</ele>
        <time>2020-05-22T10:02:34.857Z</time>
      </trkpt>
      <trkpt lat="44.84405" lon="5.40453">
        <ele>1268</ele>
        <time>2020-05-22T10:02:35.857Z</time>
      </trkpt>
      <trkpt lat="44.84407" lon="5.40453">
        <ele>1268</ele>
        <time>2020-05-22T10:02:36.856Z</time>
      </trkpt>
      <trkpt lat="44.84408" lon="5.40452">
        <ele>1268</ele>
        <time>2020-05-22T10:02:37.856Z</time>
      </trkpt>
      <trkpt lat="44.84409" lon="5.40451">
        <ele>1268</ele>
        <time>2020-05-22T10:02:38.857Z</time>
      </trkpt>
      <trkpt lat="44.84412" lon="5.40449">
        <ele>1267</ele>
        <time>2020-05-22T10:02:39.856Z</time>
      </trkpt>
      <trkpt lat="44.84413" lon="5.40447">
        <ele>1267</ele>
        <time>2020-05-22T10:02:40.857Z</time>
      </trkpt>
      <trkpt lat="44.84415" lon="5.40446">
        <ele>1267</ele>
        <time>2020-05-22T10:02:41.857Z</time>
      </trkpt>
      <trkpt lat="44.84416" lon="5.40446">
        <ele>1267</ele>
        <time>2020-05-22T10:02:42.857Z</time>
      </trkpt>
      <trkpt lat="44.84418" lon="5.40445">
        <ele>1267</ele>
        <time>2020-05-22T10:02:43.857Z</time>
      </trkpt>
      <trkpt lat="44.8442" lon="5.40444">
        <ele>1267</ele>
        <time>2020-05-22T10:02:44.857Z</time>
      </trkpt>
      <trkpt lat="44.84422" lon="5.40443">
        <ele>1267</ele>
        <time>2020-05-22T10:02:45.857Z</time>
      </trkpt>
      <trkpt lat="44.84423" lon="5.40442">
        <ele>1268</ele>
        <time>2020-05-22T10:02:46.857Z</time>
      </trkpt>
      <trkpt lat="44.84424" lon="5.40441">
        <ele>1268</ele>
        <time>2020-05-22T10:02:47.856Z</time>
      </trkpt>
      <trkpt lat="44.84426" lon="5.4044">
        <ele>1269</ele>
        <time>2020-05-22T10:02:48.857Z</time>
      </trkpt>
      <trkpt lat="44.84427" lon="5.40439">
        <ele>1269</ele>
        <time>2020-05-22T10:02:49.857Z</time>
      </trkpt>
      <trkpt lat="44.84429" lon="5.40439">
        <ele>1270</ele>
        <time>2020-05-22T10:02:50.857Z</time>
      </trkpt>
      <trkpt lat="44.8443" lon="5.40438">
        <ele>1270</ele>
        <time>2020-05-22T10:02:51.857Z</time>
      </trkpt>
      <trkpt lat="44.84431" lon="5.40437">
        <ele>1270</ele>
        <time>2020-05-22T10:02:52.857Z</time>
      </trkpt>
      <trkpt lat="44.84432" lon="5.40436">
        <ele>1270</ele>
        <time>2020-05-22T10:02:53.857Z</time>
      </trkpt>
      <trkpt lat="44.84433" lon="5.40435">
        <ele>1270</ele>
        <time>2020-05-22T10:02:54.856Z</time>
      </trkpt>
      <trkpt lat="44.84434" lon="5.40435">
        <ele>1270</ele>
        <time>2020-05-22T10:02:55.857Z</time>
      </trkpt>
      <trkpt lat="44.84436" lon="5.40434">
        <ele>1270</ele>
        <time>2020-05-22T10:02:56.856Z</time>
      </trkpt>
      <trkpt lat="44.84437" lon="5.40432">
        <ele>1270</ele>
        <time>2020-05-22T10:02:57.856Z</time>
      </trkpt>
      <trkpt lat="44.84438" lon="5.40432">
        <ele>1270</ele>
        <time>2020-05-22T10:02:58.856Z</time>
      </trkpt>
      <trkpt lat="44.84439" lon="5.40431">
        <ele>1270</ele>
        <time>2020-05-22T10:02:59.857Z</time>
      </trkpt>
      <trkpt lat="44.84441" lon="5.40429">
        <ele>1270</ele>
        <time>2020-05-22T10:03:00.856Z</time>
      </trkpt>
      <trkpt lat="44.84442" lon="5.40428">
        <ele>1270</ele>
        <time>2020-05-22T10:03:01.857Z</time>
      </trkpt>
      <trkpt lat="44.84444" lon="5.40427">
        <ele>1270</ele>
        <time>2020-05-22T10:03:02.857Z</time>
      </trkpt>
      <trkpt lat="44.84446" lon="5.40426">
        <ele>1271</ele>
        <time>2020-05-22T10:03:03.857Z</time>
      </trkpt>
      <trkpt lat="44.84447" lon="5.40425">
        <ele>1272</ele>
        <time>2020-05-22T10:03:04.856Z</time>
      </trkpt>
      <trkpt lat="44.84449" lon="5.40425">
        <ele>1273</ele>
        <time>2020-05-22T10:03:05.856Z</time>
      </trkpt>
      <trkpt lat="44.84451" lon="5.40422">
        <ele>1273</ele>
        <time>2020-05-22T10:03:06.857Z</time>
      </trkpt>
      <trkpt lat="44.84453" lon="5.40421">
        <ele>1273</ele>
        <time>2020-05-22T10:03:07.857Z</time>
      </trkpt>
      <trkpt lat="44.84454" lon="5.4042">
        <ele>1274</ele>
        <time>2020-05-22T10:03:08.857Z</time>
      </trkpt>
      <trkpt lat="44.84455" lon="5.40418">
        <ele>1274</ele>
        <time>2020-05-22T10:03:09.856Z</time>
      </trkpt>
      <trkpt lat="44.84457" lon="5.40417">
        <ele>1274</ele>
        <time>2020-05-22T10:03:10.857Z</time>
      </trkpt>
      <trkpt lat="44.84458" lon="5.40416">
        <ele>1275</ele>
        <time>2020-05-22T10:03:11.857Z</time>
      </trkpt>
      <trkpt lat="44.8446" lon="5.40414">
        <ele>1275</ele>
        <time>2020-05-22T10:03:12.857Z</time>
      </trkpt>
      <trkpt lat="44.84462" lon="5.40413">
        <ele>1275</ele>
        <time>2020-05-22T10:03:13.857Z</time>
      </trkpt>
      <trkpt lat="44.84463" lon="5.40411">
        <ele>1275</ele>
        <time>2020-05-22T10:03:14.857Z</time>
      </trkpt>
      <trkpt lat="44.84464" lon="5.4041">
        <ele>1275</ele>
        <time>2020-05-22T10:03:15.856Z</time>
      </trkpt>
      <trkpt lat="44.84465" lon="5.40409">
        <ele>1275</ele>
        <time>2020-05-22T10:03:16.856Z</time>
      </trkpt>
      <trkpt lat="44.84466" lon="5.40408">
        <ele>1274</ele>
        <time>2020-05-22T10:03:17.857Z</time>
      </trkpt>
      <trkpt lat="44.84467" lon="5.40407">
        <ele>1274</ele>
        <time>2020-05-22T10:03:18.856Z</time>
      </trkpt>
      <trkpt lat="44.84468" lon="5.40406">
        <ele>1274</ele>
        <time>2020-05-22T10:03:19.856Z</time>
      </trkpt>
      <trkpt lat="44.84469" lon="5.40406">
        <ele>1274</ele>
        <time>2020-05-22T10:03:20.857Z</time>
      </trkpt>
      <trkpt lat="44.8447" lon="5.40405">
        <ele>1274</ele>
        <time>2020-05-22T10:03:21.857Z</time>
      </trkpt>
      <trkpt lat="44.84472" lon="5.40405">
        <ele>1274</ele>
        <time>2020-05-22T10:03:22.857Z</time>
      </trkpt>
      <trkpt lat="44.84473" lon="5.40404">
        <ele>1274</ele>
        <time>2020-05-22T10:03:23.857Z</time>
      </trkpt>
      <trkpt lat="44.84475" lon="5.40404">
        <ele>1274</ele>
        <time>2020-05-22T10:03:24.857Z</time>
      </trkpt>
      <trkpt lat="44.84477" lon="5.40404">
        <ele>1274</ele>
        <time>2020-05-22T10:03:25.857Z</time>
      </trkpt>
      <trkpt lat="44.84478" lon="5.40404">
        <ele>1274</ele>
        <time>2020-05-22T10:03:26.857Z</time>
      </trkpt>
      <trkpt lat="44.84479" lon="5.40405">
        <ele>1274</ele>
        <time>2020-05-22T10:03:27.857Z</time>
      </trkpt>
      <trkpt lat="44.8448" lon="5.40405">
        <ele>1274</ele>
        <time>2020-05-22T10:03:28.856Z</time>
      </trkpt>
      <trkpt lat="44.84482" lon="5.40406">
        <ele>1275</ele>
        <time>2020-05-22T10:03:29.857Z</time>
      </trkpt>
      <trkpt lat="44.84484" lon="5.40407">
        <ele>1275</ele>
        <time>2020-05-22T10:03:30.857Z</time>
      </trkpt>
      <trkpt lat="44.84485" lon="5.40407">
        <ele>1275</ele>
        <time>2020-05-22T10:03:31.857Z</time>
      </trkpt>
      <trkpt lat="44.84487" lon="5.40407">
        <ele>1275</ele>
        <time>2020-05-22T10:03:32.856Z</time>
      </trkpt>
      <trkpt lat="44.84489" lon="5.40407">
        <ele>1276</ele>
        <time>2020-05-22T10:03:33.856Z</time>
      </trkpt>
      <trkpt lat="44.8449" lon="5.40407">
        <ele>1275</ele>
        <time>2020-05-22T10:03:34.857Z</time>
      </trkpt>
      <trkpt lat="44.84492" lon="5.40407">
        <ele>1275</ele>
        <time>2020-05-22T10:03:35.857Z</time>
      </trkpt>
      <trkpt lat="44.84494" lon="5.40406">
        <ele>1275</ele>
        <time>2020-05-22T10:03:36.857Z</time>
      </trkpt>
      <trkpt lat="44.84495" lon="5.40406">
        <ele>1275</ele>
        <time>2020-05-22T10:03:37.857Z</time>
      </trkpt>
      <trkpt lat="44.84497" lon="5.40406">
        <ele>1275</ele>
        <time>2020-05-22T10:03:38.856Z</time>
      </trkpt>
      <trkpt lat="44.84498" lon="5.40406">
        <ele>1275</ele>
        <time>2020-05-22T10:03:39.856Z</time>
      </trkpt>
      <trkpt lat="44.845" lon="5.40406">
        <ele>1275</ele>
        <time>2020-05-22T10:03:40.857Z</time>
      </trkpt>
      <trkpt lat="44.84501" lon="5.40406">
        <ele>1275</ele>
        <time>2020-05-22T10:03:41.857Z</time>
      </trkpt>
      <trkpt lat="44.84503" lon="5.40406">
        <ele>1275</ele>
        <time>2020-05-22T10:03:42.857Z</time>
      </trkpt>
      <trkpt lat="44.84505" lon="5.40406">
        <ele>1275</ele>
        <time>2020-05-22T10:03:43.857Z</time>
      </trkpt>
      <trkpt lat="44.84506" lon="5.40406">
        <ele>1276</ele>
        <time>2020-05-22T10:03:44.857Z</time>
      </trkpt>
      <trkpt lat="44.84508" lon="5.40407">
        <ele>1276</ele>
        <time>2020-05-22T10:03:45.857Z</time>
      </trkpt>
      <trkpt lat="44.84509" lon="5.40407">
        <ele>1276</ele>
        <time>2020-05-22T10:03:46.857Z</time>
      </trkpt>
      <trkpt lat="44.84511" lon="5.40406">
        <ele>1276</ele>
        <time>2020-05-22T10:03:47.857Z</time>
      </trkpt>
      <trkpt lat="44.84512" lon="5.40406">
        <ele>1276</ele>
        <time>2020-05-22T10:03:48.856Z</time>
      </trkpt>
      <trkpt lat="44.84513" lon="5.40407">
        <ele>1276</ele>
        <time>2020-05-22T10:03:49.857Z</time>
      </trkpt>
      <trkpt lat="44.84514" lon="5.40407">
        <ele>1277</ele>
        <time>2020-05-22T10:03:50.856Z</time>
      </trkpt>
      <trkpt lat="44.84516" lon="5.40407">
        <ele>1277</ele>
        <time>2020-05-22T10:03:51.857Z</time>
      </trkpt>
      <trkpt lat="44.84517" lon="5.40406">
        <ele>1277</ele>
        <time>2020-05-22T10:03:52.857Z</time>
      </trkpt>
      <trkpt lat="44.84518" lon="5.40405">
        <ele>1277</ele>
        <time>2020-05-22T10:03:53.857Z</time>
      </trkpt>
      <trkpt lat="44.8452" lon="5.40404">
        <ele>1278</ele>
        <time>2020-05-22T10:03:54.857Z</time>
      </trkpt>
      <trkpt lat="44.84522" lon="5.40404">
        <ele>1278</ele>
        <time>2020-05-22T10:03:55.856Z</time>
      </trkpt>
      <trkpt lat="44.84523" lon="5.40404">
        <ele>1279</ele>
        <time>2020-05-22T10:03:56.857Z</time>
      </trkpt>
      <trkpt lat="44.84524" lon="5.40404">
        <ele>1279</ele>
        <time>2020-05-22T10:03:57.857Z</time>
      </trkpt>
      <trkpt lat="44.84526" lon="5.40403">
        <ele>1279</ele>
        <time>2020-05-22T10:03:58.857Z</time>
      </trkpt>
      <trkpt lat="44.84528" lon="5.40402">
        <ele>1279</ele>
        <time>2020-05-22T10:03:59.857Z</time>
      </trkpt>
      <trkpt lat="44.84529" lon="5.40401">
        <ele>1278</ele>
        <time>2020-05-22T10:04:00.857Z</time>
      </trkpt>
      <trkpt lat="44.84531" lon="5.404">
        <ele>1278</ele>
        <time>2020-05-22T10:04:01.857Z</time>
      </trkpt>
      <trkpt lat="44.84532" lon="5.40399">
        <ele>1277</ele>
        <time>2020-05-22T10:04:02.857Z</time>
      </trkpt>
      <trkpt lat="44.84534" lon="5.40398">
        <ele>1277</ele>
        <time>2020-05-22T10:04:03.857Z</time>
      </trkpt>
      <trkpt lat="44.84535" lon="5.40398">
        <ele>1276</ele>
        <time>2020-05-22T10:04:04.857Z</time>
      </trkpt>
      <trkpt lat="44.84536" lon="5.40398">
        <ele>1276</ele>
        <time>2020-05-22T10:04:05.857Z</time>
      </trkpt>
      <trkpt lat="44.84538" lon="5.40397">
        <ele>1276</ele>
        <time>2020-05-22T10:04:06.857Z</time>
      </trkpt>
      <trkpt lat="44.84539" lon="5.40397">
        <ele>1276</ele>
        <time>2020-05-22T10:04:07.857Z</time>
      </trkpt>
      <trkpt lat="44.84541" lon="5.40397">
        <ele>1277</ele>
        <time>2020-05-22T10:04:08.857Z</time>
      </trkpt>
      <trkpt lat="44.84542" lon="5.40397">
        <ele>1277</ele>
        <time>2020-05-22T10:04:09.856Z</time>
      </trkpt>
      <trkpt lat="44.84544" lon="5.40396">
        <ele>1277</ele>
        <time>2020-05-22T10:04:10.856Z</time>
      </trkpt>
      <trkpt lat="44.84546" lon="5.40396">
        <ele>1278</ele>
        <time>2020-05-22T10:04:11.857Z</time>
      </trkpt>
      <trkpt lat="44.84547" lon="5.40396">
        <ele>1278</ele>
        <time>2020-05-22T10:04:12.857Z</time>
      </trkpt>
      <trkpt lat="44.84549" lon="5.40395">
        <ele>1279</ele>
        <time>2020-05-22T10:04:13.856Z</time>
      </trkpt>
      <trkpt lat="44.8455" lon="5.40394">
        <ele>1279</ele>
        <time>2020-05-22T10:04:14.857Z</time>
      </trkpt>
      <trkpt lat="44.84552" lon="5.40393">
        <ele>1280</ele>
        <time>2020-05-22T10:04:15.856Z</time>
      </trkpt>
      <trkpt lat="44.84553" lon="5.40393">
        <ele>1280</ele>
        <time>2020-05-22T10:04:16.856Z</time>
      </trkpt>
      <trkpt lat="44.84554" lon="5.40392">
        <ele>1280</ele>
        <time>2020-05-22T10:04:17.857Z</time>
      </trkpt>
      <trkpt lat="44.84556" lon="5.40391">
        <ele>1281</ele>
        <time>2020-05-22T10:04:18.857Z</time>
      </trkpt>
      <trkpt lat="44.84557" lon="5.4039">
        <ele>1281</ele>
        <time>2020-05-22T10:04:19.857Z</time>
      </trkpt>
      <trkpt lat="44.84558" lon="5.4039">
        <ele>1281</ele>
        <time>2020-05-22T10:04:20.857Z</time>
      </trkpt>
      <trkpt lat="44.84559" lon="5.40389">
        <ele>1282</ele>
        <time>2020-05-22T10:04:21.856Z</time>
      </trkpt>
      <trkpt lat="44.8456" lon="5.40389">
        <ele>1281</ele>
        <time>2020-05-22T10:04:22.857Z</time>
      </trkpt>
      <trkpt lat="44.84562" lon="5.40388">
        <ele>1281</ele>
        <time>2020-05-22T10:04:23.856Z</time>
      </trkpt>
      <trkpt lat="44.84564" lon="5.40387">
        <ele>1281</ele>
        <time>2020-05-22T10:04:24.856Z</time>
      </trkpt>
      <trkpt lat="44.84565" lon="5.40387">
        <ele>1281</ele>
        <time>2020-05-22T10:04:25.856Z</time>
      </trkpt>
      <trkpt lat="44.84566" lon="5.40387">
        <ele>1281</ele>
        <time>2020-05-22T10:04:26.857Z</time>
      </trkpt>
      <trkpt lat="44.84567" lon="5.40387">
        <ele>1281</ele>
        <time>2020-05-22T10:04:27.857Z</time>
      </trkpt>
      <trkpt lat="44.84568" lon="5.40386">
        <ele>1282</ele>
        <time>2020-05-22T10:04:28.857Z</time>
      </trkpt>
      <trkpt lat="44.8457" lon="5.40385">
        <ele>1282</ele>
        <time>2020-05-22T10:04:29.857Z</time>
      </trkpt>
      <trkpt lat="44.84572" lon="5.40384">
        <ele>1282</ele>
        <time>2020-05-22T10:04:30.857Z</time>
      </trkpt>
      <trkpt lat="44.84573" lon="5.40383">
        <ele>1283</ele>
        <time>2020-05-22T10:04:31.857Z</time>
      </trkpt>
      <trkpt lat="44.84574" lon="5.40383">
        <ele>1283</ele>
        <time>2020-05-22T10:04:32.857Z</time>
      </trkpt>
      <trkpt lat="44.84576" lon="5.40383">
        <ele>1284</ele>
        <time>2020-05-22T10:04:33.857Z</time>
      </trkpt>
      <trkpt lat="44.84578" lon="5.40382">
        <ele>1284</ele>
        <time>2020-05-22T10:04:34.856Z</time>
      </trkpt>
      <trkpt lat="44.8458" lon="5.40382">
        <ele>1284</ele>
        <time>2020-05-22T10:04:35.857Z</time>
      </trkpt>
      <trkpt lat="44.84582" lon="5.40381">
        <ele>1285</ele>
        <time>2020-05-22T10:04:36.856Z</time>
      </trkpt>
      <trkpt lat="44.84583" lon="5.40381">
        <ele>1285</ele>
        <time>2020-05-22T10:04:37.857Z</time>
      </trkpt>
      <trkpt lat="44.84585" lon="5.4038">
        <ele>1286</ele>
        <time>2020-05-22T10:04:38.857Z</time>
      </trkpt>
      <trkpt lat="44.84587" lon="5.40379">
        <ele>1286</ele>
        <time>2020-05-22T10:04:39.856Z</time>
      </trkpt>
      <trkpt lat="44.84588" lon="5.40378">
        <ele>1287</ele>
        <time>2020-05-22T10:04:40.857Z</time>
      </trkpt>
      <trkpt lat="44.8459" lon="5.40377">
        <ele>1287</ele>
        <time>2020-05-22T10:04:41.856Z</time>
      </trkpt>
      <trkpt lat="44.84592" lon="5.40377">
        <ele>1287</ele>
        <time>2020-05-22T10:04:42.857Z</time>
      </trkpt>
      <trkpt lat="44.84594" lon="5.40376">
        <ele>1288</ele>
        <time>2020-05-22T10:04:43.857Z</time>
      </trkpt>
      <trkpt lat="44.84595" lon="5.40376">
        <ele>1289</ele>
        <time>2020-05-22T10:04:44.857Z</time>
      </trkpt>
      <trkpt lat="44.84597" lon="5.40375">
        <ele>1290</ele>
        <time>2020-05-22T10:04:45.856Z</time>
      </trkpt>
      <trkpt lat="44.84598" lon="5.40375">
        <ele>1292</ele>
        <time>2020-05-22T10:04:46.857Z</time>
      </trkpt>
      <trkpt lat="44.846" lon="5.40374">
        <ele>1293</ele>
        <time>2020-05-22T10:04:47.857Z</time>
      </trkpt>
      <trkpt lat="44.84602" lon="5.40374">
        <ele>1294</ele>
        <time>2020-05-22T10:04:48.857Z</time>
      </trkpt>
      <trkpt lat="44.84603" lon="5.40373">
        <ele>1295</ele>
        <time>2020-05-22T10:04:49.857Z</time>
      </trkpt>
      <trkpt lat="44.84605" lon="5.40373">
        <ele>1295</ele>
        <time>2020-05-22T10:04:50.856Z</time>
      </trkpt>
      <trkpt lat="44.84607" lon="5.40372">
        <ele>1295</ele>
        <time>2020-05-22T10:04:51.857Z</time>
      </trkpt>
      <trkpt lat="44.84608" lon="5.40371">
        <ele>1295</ele>
        <time>2020-05-22T10:04:52.857Z</time>
      </trkpt>
      <trkpt lat="44.84609" lon="5.40371">
        <ele>1296</ele>
        <time>2020-05-22T10:04:53.856Z</time>
      </trkpt>
      <trkpt lat="44.8461" lon="5.4037">
        <ele>1296</ele>
        <time>2020-05-22T10:04:54.857Z</time>
      </trkpt>
      <trkpt lat="44.84612" lon="5.40369">
        <ele>1296</ele>
        <time>2020-05-22T10:04:55.857Z</time>
      </trkpt>
      <trkpt lat="44.84613" lon="5.40368">
        <ele>1296</ele>
        <time>2020-05-22T10:04:56.856Z</time>
      </trkpt>
      <trkpt lat="44.84615" lon="5.40367">
        <ele>1296</ele>
        <time>2020-05-22T10:04:57.857Z</time>
      </trkpt>
      <trkpt lat="44.84616" lon="5.40366">
        <ele>1296</ele>
        <time>2020-05-22T10:04:58.857Z</time>
      </trkpt>
      <trkpt lat="44.84617" lon="5.40366">
        <ele>1296</ele>
        <time>2020-05-22T10:04:59.857Z</time>
      </trkpt>
      <trkpt lat="44.84619" lon="5.40365">
        <ele>1297</ele>
        <time>2020-05-22T10:05:00.857Z</time>
      </trkpt>
      <trkpt lat="44.84621" lon="5.40364">
        <ele>1297</ele>
        <time>2020-05-22T10:05:01.857Z</time>
      </trkpt>
      <trkpt lat="44.84623" lon="5.40362">
        <ele>1298</ele>
        <time>2020-05-22T10:05:02.857Z</time>
      </trkpt>
      <trkpt lat="44.84624" lon="5.40361">
        <ele>1299</ele>
        <time>2020-05-22T10:05:03.857Z</time>
      </trkpt>
      <trkpt lat="44.84625" lon="5.4036">
        <ele>1299</ele>
        <time>2020-05-22T10:05:04.857Z</time>
      </trkpt>
      <trkpt lat="44.84627" lon="5.40358">
        <ele>1299</ele>
        <time>2020-05-22T10:05:05.857Z</time>
      </trkpt>
      <trkpt lat="44.84629" lon="5.40357">
        <ele>1300</ele>
        <time>2020-05-22T10:05:06.857Z</time>
      </trkpt>
      <trkpt lat="44.8463" lon="5.40355">
        <ele>1300</ele>
        <time>2020-05-22T10:05:07.857Z</time>
      </trkpt>
      <trkpt lat="44.84631" lon="5.40353">
        <ele>1300</ele>
        <time>2020-05-22T10:05:08.857Z</time>
      </trkpt>
      <trkpt lat="44.84633" lon="5.40351">
        <ele>1301</ele>
        <time>2020-05-22T10:05:09.857Z</time>
      </trkpt>
      <trkpt lat="44.84634" lon="5.40349">
        <ele>1301</ele>
        <time>2020-05-22T10:05:10.857Z</time>
      </trkpt>
      <trkpt lat="44.84634" lon="5.40348">
        <ele>1301</ele>
        <time>2020-05-22T10:05:11.857Z</time>
      </trkpt>
      <trkpt lat="44.84635" lon="5.40347">
        <ele>1301</ele>
        <time>2020-05-22T10:05:12.856Z</time>
      </trkpt>
      <trkpt lat="44.84635" lon="5.40347">
        <ele>1301</ele>
        <time>2020-05-22T10:05:13.857Z</time>
      </trkpt>
      <trkpt lat="44.84636" lon="5.40345">
        <ele>1302</ele>
        <time>2020-05-22T10:05:14.856Z</time>
      </trkpt>
      <trkpt lat="44.84638" lon="5.40344">
        <ele>1302</ele>
        <time>2020-05-22T10:05:15.857Z</time>
      </trkpt>
      <trkpt lat="44.8464" lon="5.40343">
        <ele>1302</ele>
        <time>2020-05-22T10:05:16.856Z</time>
      </trkpt>
      <trkpt lat="44.84641" lon="5.40343">
        <ele>1302</ele>
        <time>2020-05-22T10:05:17.857Z</time>
      </trkpt>
      <trkpt lat="44.84643" lon="5.40342">
        <ele>1302</ele>
        <time>2020-05-22T10:05:18.857Z</time>
      </trkpt>
      <trkpt lat="44.84644" lon="5.40342">
        <ele>1303</ele>
        <time>2020-05-22T10:05:19.857Z</time>
      </trkpt>
      <trkpt lat="44.84646" lon="5.40341">
        <ele>1303</ele>
        <time>2020-05-22T10:05:20.857Z</time>
      </trkpt>
      <trkpt lat="44.84647" lon="5.40342">
        <ele>1303</ele>
        <time>2020-05-22T10:05:21.856Z</time>
      </trkpt>
      <trkpt lat="44.84649" lon="5.40342">
        <ele>1303</ele>
        <time>2020-05-22T10:05:22.856Z</time>
      </trkpt>
      <trkpt lat="44.84651" lon="5.40342">
        <ele>1303</ele>
        <time>2020-05-22T10:05:23.856Z</time>
      </trkpt>
      <trkpt lat="44.84652" lon="5.40342">
        <ele>1303</ele>
        <time>2020-05-22T10:05:24.857Z</time>
      </trkpt>
      <trkpt lat="44.84655" lon="5.40343">
        <ele>1303</ele>
        <time>2020-05-22T10:05:25.856Z</time>
      </trkpt>
      <trkpt lat="44.84656" lon="5.40344">
        <ele>1303</ele>
        <time>2020-05-22T10:05:26.856Z</time>
      </trkpt>
      <trkpt lat="44.84657" lon="5.40343">
        <ele>1303</ele>
        <time>2020-05-22T10:05:27.856Z</time>
      </trkpt>
      <trkpt lat="44.84658" lon="5.40344">
        <ele>1303</ele>
        <time>2020-05-22T10:05:28.857Z</time>
      </trkpt>
      <trkpt lat="44.8466" lon="5.40344">
        <ele>1303</ele>
        <time>2020-05-22T10:05:29.856Z</time>
      </trkpt>
      <trkpt lat="44.84661" lon="5.40345">
        <ele>1303</ele>
        <time>2020-05-22T10:05:30.857Z</time>
      </trkpt>
      <trkpt lat="44.84663" lon="5.40345">
        <ele>1303</ele>
        <time>2020-05-22T10:05:31.857Z</time>
      </trkpt>
      <trkpt lat="44.84664" lon="5.40345">
        <ele>1302</ele>
        <time>2020-05-22T10:05:32.857Z</time>
      </trkpt>
      <trkpt lat="44.84666" lon="5.40345">
        <ele>1302</ele>
        <time>2020-05-22T10:05:33.857Z</time>
      </trkpt>
      <trkpt lat="44.84667" lon="5.40345">
        <ele>1302</ele>
        <time>2020-05-22T10:05:34.856Z</time>
      </trkpt>
      <trkpt lat="44.84669" lon="5.40345">
        <ele>1302</ele>
        <time>2020-05-22T10:05:35.857Z</time>
      </trkpt>
      <trkpt lat="44.84671" lon="5.40345">
        <ele>1302</ele>
        <time>2020-05-22T10:05:36.857Z</time>
      </trkpt>
      <trkpt lat="44.84673" lon="5.40345">
        <ele>1302</ele>
        <time>2020-05-22T10:05:37.857Z</time>
      </trkpt>
      <trkpt lat="44.84675" lon="5.40343">
        <ele>1302</ele>
        <time>2020-05-22T10:05:38.857Z</time>
      </trkpt>
      <trkpt lat="44.84677" lon="5.40342">
        <ele>1302</ele>
        <time>2020-05-22T10:05:39.857Z</time>
      </trkpt>
      <trkpt lat="44.84678" lon="5.40341">
        <ele>1302</ele>
        <time>2020-05-22T10:05:40.857Z</time>
      </trkpt>
      <trkpt lat="44.84681" lon="5.40341">
        <ele>1302</ele>
        <time>2020-05-22T10:05:41.857Z</time>
      </trkpt>
      <trkpt lat="44.84683" lon="5.40339">
        <ele>1302</ele>
        <time>2020-05-22T10:05:42.856Z</time>
      </trkpt>
      <trkpt lat="44.84685" lon="5.40338">
        <ele>1302</ele>
        <time>2020-05-22T10:05:43.857Z</time>
      </trkpt>
      <trkpt lat="44.84688" lon="5.40337">
        <ele>1302</ele>
        <time>2020-05-22T10:05:44.856Z</time>
      </trkpt>
      <trkpt lat="44.8469" lon="5.40336">
        <ele>1302</ele>
        <time>2020-05-22T10:05:45.857Z</time>
      </trkpt>
      <trkpt lat="44.84692" lon="5.40334">
        <ele>1303</ele>
        <time>2020-05-22T10:05:46.857Z</time>
      </trkpt>
      <trkpt lat="44.84694" lon="5.40333">
        <ele>1303</ele>
        <time>2020-05-22T10:05:47.857Z</time>
      </trkpt>
      <trkpt lat="44.84697" lon="5.40332">
        <ele>1303</ele>
        <time>2020-05-22T10:05:48.857Z</time>
      </trkpt>
      <trkpt lat="44.84698" lon="5.40331">
        <ele>1304</ele>
        <time>2020-05-22T10:05:49.857Z</time>
      </trkpt>
      <trkpt lat="44.847" lon="5.4033">
        <ele>1304</ele>
        <time>2020-05-22T10:05:50.856Z</time>
      </trkpt>
      <trkpt lat="44.84701" lon="5.40328">
        <ele>1304</ele>
        <time>2020-05-22T10:05:51.857Z</time>
      </trkpt>
      <trkpt lat="44.84703" lon="5.40327">
        <ele>1304</ele>
        <time>2020-05-22T10:05:52.857Z</time>
      </trkpt>
      <trkpt lat="44.84706" lon="5.40326">
        <ele>1305</ele>
        <time>2020-05-22T10:05:53.857Z</time>
      </trkpt>
      <trkpt lat="44.84707" lon="5.40325">
        <ele>1305</ele>
        <time>2020-05-22T10:05:54.857Z</time>
      </trkpt>
      <trkpt lat="44.84709" lon="5.40324">
        <ele>1305</ele>
        <time>2020-05-22T10:05:55.856Z</time>
      </trkpt>
      <trkpt lat="44.84711" lon="5.40323">
        <ele>1305</ele>
        <time>2020-05-22T10:05:56.857Z</time>
      </trkpt>
      <trkpt lat="44.84714" lon="5.40321">
        <ele>1305</ele>
        <time>2020-05-22T10:05:57.857Z</time>
      </trkpt>
      <trkpt lat="44.84716" lon="5.4032">
        <ele>1305</ele>
        <time>2020-05-22T10:05:58.857Z</time>
      </trkpt>
      <trkpt lat="44.84718" lon="5.40318">
        <ele>1305</ele>
        <time>2020-05-22T10:05:59.857Z</time>
      </trkpt>
      <trkpt lat="44.8472" lon="5.40316">
        <ele>1305</ele>
        <time>2020-05-22T10:06:00.857Z</time>
      </trkpt>
      <trkpt lat="44.84722" lon="5.40315">
        <ele>1305</ele>
        <time>2020-05-22T10:06:01.857Z</time>
      </trkpt>
      <trkpt lat="44.84725" lon="5.40313">
        <ele>1305</ele>
        <time>2020-05-22T10:06:02.857Z</time>
      </trkpt>
      <trkpt lat="44.84727" lon="5.40311">
        <ele>1306</ele>
        <time>2020-05-22T10:06:03.857Z</time>
      </trkpt>
      <trkpt lat="44.84729" lon="5.4031">
        <ele>1306</ele>
        <time>2020-05-22T10:06:04.857Z</time>
      </trkpt>
      <trkpt lat="44.84731" lon="5.40308">
        <ele>1306</ele>
        <time>2020-05-22T10:06:05.856Z</time>
      </trkpt>
      <trkpt lat="44.84733" lon="5.40307">
        <ele>1306</ele>
        <time>2020-05-22T10:06:06.857Z</time>
      </trkpt>
      <trkpt lat="44.84735" lon="5.40305">
        <ele>1306</ele>
        <time>2020-05-22T10:06:07.857Z</time>
      </trkpt>
      <trkpt lat="44.84736" lon="5.40304">
        <ele>1306</ele>
        <time>2020-05-22T10:06:08.857Z</time>
      </trkpt>
      <trkpt lat="44.84738" lon="5.40302">
        <ele>1305</ele>
        <time>2020-05-22T10:06:09.856Z</time>
      </trkpt>
      <trkpt lat="44.8474" lon="5.40301">
        <ele>1305</ele>
        <time>2020-05-22T10:06:10.857Z</time>
      </trkpt>
      <trkpt lat="44.84741" lon="5.403">
        <ele>1305</ele>
        <time>2020-05-22T10:06:11.857Z</time>
      </trkpt>
      <trkpt lat="44.84742" lon="5.40298">
        <ele>1305</ele>
        <time>2020-05-22T10:06:12.857Z</time>
      </trkpt>
      <trkpt lat="44.84743" lon="5.40297">
        <ele>1305</ele>
        <time>2020-05-22T10:06:13.857Z</time>
      </trkpt>
      <trkpt lat="44.84744" lon="5.40295">
        <ele>1306</ele>
        <time>2020-05-22T10:06:14.857Z</time>
      </trkpt>
      <trkpt lat="44.84745" lon="5.40294">
        <ele>1306</ele>
        <time>2020-05-22T10:06:15.857Z</time>
      </trkpt>
      <trkpt lat="44.84747" lon="5.40292">
        <ele>1307</ele>
        <time>2020-05-22T10:06:16.856Z</time>
      </trkpt>
      <trkpt lat="44.84748" lon="5.40291">
        <ele>1307</ele>
        <time>2020-05-22T10:06:17.857Z</time>
      </trkpt>
      <trkpt lat="44.8475" lon="5.40289">
        <ele>1308</ele>
        <time>2020-05-22T10:06:18.857Z</time>
      </trkpt>
      <trkpt lat="44.84751" lon="5.40288">
        <ele>1308</ele>
        <time>2020-05-22T10:06:19.857Z</time>
      </trkpt>
      <trkpt lat="44.84752" lon="5.40287">
        <ele>1309</ele>
        <time>2020-05-22T10:06:20.857Z</time>
      </trkpt>
      <trkpt lat="44.84754" lon="5.40284">
        <ele>1309</ele>
        <time>2020-05-22T10:06:21.857Z</time>
      </trkpt>
      <trkpt lat="44.84755" lon="5.40282">
        <ele>1309</ele>
        <time>2020-05-22T10:06:22.857Z</time>
      </trkpt>
      <trkpt lat="44.84757" lon="5.40281">
        <ele>1310</ele>
        <time>2020-05-22T10:06:23.857Z</time>
      </trkpt>
      <trkpt lat="44.84758" lon="5.4028">
        <ele>1310</ele>
        <time>2020-05-22T10:06:24.856Z</time>
      </trkpt>
      <trkpt lat="44.84758" lon="5.40279">
        <ele>1309</ele>
        <time>2020-05-22T10:06:25.857Z</time>
      </trkpt>
      <trkpt lat="44.84759" lon="5.40278">
        <ele>1309</ele>
        <time>2020-05-22T10:06:26.857Z</time>
      </trkpt>
      <trkpt lat="44.8476" lon="5.40277">
        <ele>1309</ele>
        <time>2020-05-22T10:06:27.857Z</time>
      </trkpt>
      <trkpt lat="44.84761" lon="5.40276">
        <ele>1308</ele>
        <time>2020-05-22T10:06:28.857Z</time>
      </trkpt>
      <trkpt lat="44.84763" lon="5.40276">
        <ele>1308</ele>
        <time>2020-05-22T10:06:29.857Z</time>
      </trkpt>
      <trkpt lat="44.84764" lon="5.40275">
        <ele>1308</ele>
        <time>2020-05-22T10:06:30.857Z</time>
      </trkpt>
      <trkpt lat="44.84766" lon="5.40275">
        <ele>1308</ele>
        <time>2020-05-22T10:06:31.857Z</time>
      </trkpt>
      <trkpt lat="44.84768" lon="5.40274">
        <ele>1308</ele>
        <time>2020-05-22T10:06:32.857Z</time>
      </trkpt>
      <trkpt lat="44.8477" lon="5.40274">
        <ele>1308</ele>
        <time>2020-05-22T10:06:33.856Z</time>
      </trkpt>
      <trkpt lat="44.84772" lon="5.40274">
        <ele>1308</ele>
        <time>2020-05-22T10:06:34.857Z</time>
      </trkpt>
      <trkpt lat="44.84774" lon="5.40274">
        <ele>1307</ele>
        <time>2020-05-22T10:06:35.857Z</time>
      </trkpt>
      <trkpt lat="44.84776" lon="5.40274">
        <ele>1307</ele>
        <time>2020-05-22T10:06:36.856Z</time>
      </trkpt>
      <trkpt lat="44.84778" lon="5.40275">
        <ele>1306</ele>
        <time>2020-05-22T10:06:37.857Z</time>
      </trkpt>
      <trkpt lat="44.84779" lon="5.40275">
        <ele>1306</ele>
        <time>2020-05-22T10:06:38.856Z</time>
      </trkpt>
      <trkpt lat="44.8478" lon="5.40277">
        <ele>1305</ele>
        <time>2020-05-22T10:06:39.857Z</time>
      </trkpt>
      <trkpt lat="44.84781" lon="5.40279">
        <ele>1304</ele>
        <time>2020-05-22T10:06:40.857Z</time>
      </trkpt>
      <trkpt lat="44.84783" lon="5.40281">
        <ele>1304</ele>
        <time>2020-05-22T10:06:41.857Z</time>
      </trkpt>
      <trkpt lat="44.84784" lon="5.40282">
        <ele>1304</ele>
        <time>2020-05-22T10:06:42.857Z</time>
      </trkpt>
      <trkpt lat="44.84785" lon="5.40282">
        <ele>1304</ele>
        <time>2020-05-22T10:06:43.857Z</time>
      </trkpt>
      <trkpt lat="44.84787" lon="5.40283">
        <ele>1303</ele>
        <time>2020-05-22T10:06:44.857Z</time>
      </trkpt>
      <trkpt lat="44.84787" lon="5.40285">
        <ele>1302</ele>
        <time>2020-05-22T10:06:45.857Z</time>
      </trkpt>
      <trkpt lat="44.84788" lon="5.40286">
        <ele>1302</ele>
        <time>2020-05-22T10:06:46.857Z</time>
      </trkpt>
      <trkpt lat="44.84789" lon="5.40287">
        <ele>1301</ele>
        <time>2020-05-22T10:06:47.857Z</time>
      </trkpt>
      <trkpt lat="44.84791" lon="5.40288">
        <ele>1300</ele>
        <time>2020-05-22T10:06:48.857Z</time>
      </trkpt>
      <trkpt lat="44.84792" lon="5.40289">
        <ele>1300</ele>
        <time>2020-05-22T10:06:49.857Z</time>
      </trkpt>
      <trkpt lat="44.84793" lon="5.4029">
        <ele>1299</ele>
        <time>2020-05-22T10:06:50.857Z</time>
      </trkpt>
      <trkpt lat="44.84794" lon="5.40291">
        <ele>1299</ele>
        <time>2020-05-22T10:06:51.857Z</time>
      </trkpt>
      <trkpt lat="44.84795" lon="5.40293">
        <ele>1299</ele>
        <time>2020-05-22T10:06:52.856Z</time>
      </trkpt>
      <trkpt lat="44.84797" lon="5.40294">
        <ele>1299</ele>
        <time>2020-05-22T10:06:53.857Z</time>
      </trkpt>
      <trkpt lat="44.84799" lon="5.40295">
        <ele>1299</ele>
        <time>2020-05-22T10:06:54.857Z</time>
      </trkpt>
      <trkpt lat="44.848" lon="5.40296">
        <ele>1299</ele>
        <time>2020-05-22T10:06:55.857Z</time>
      </trkpt>
      <trkpt lat="44.84802" lon="5.40297">
        <ele>1299</ele>
        <time>2020-05-22T10:06:56.856Z</time>
      </trkpt>
      <trkpt lat="44.84803" lon="5.40297">
        <ele>1299</ele>
        <time>2020-05-22T10:06:57.857Z</time>
      </trkpt>
      <trkpt lat="44.84805" lon="5.40298">
        <ele>1299</ele>
        <time>2020-05-22T10:06:58.857Z</time>
      </trkpt>
      <trkpt lat="44.84806" lon="5.40299">
        <ele>1299</ele>
        <time>2020-05-22T10:06:59.857Z</time>
      </trkpt>
      <trkpt lat="44.84807" lon="5.403">
        <ele>1299</ele>
        <time>2020-05-22T10:07:00.856Z</time>
      </trkpt>
      <trkpt lat="44.84809" lon="5.403">
        <ele>1299</ele>
        <time>2020-05-22T10:07:01.857Z</time>
      </trkpt>
      <trkpt lat="44.8481" lon="5.403">
        <ele>1299</ele>
        <time>2020-05-22T10:07:02.856Z</time>
      </trkpt>
      <trkpt lat="44.84812" lon="5.40301">
        <ele>1299</ele>
        <time>2020-05-22T10:07:03.856Z</time>
      </trkpt>
      <trkpt lat="44.84813" lon="5.40301">
        <ele>1298</ele>
        <time>2020-05-22T10:07:04.857Z</time>
      </trkpt>
      <trkpt lat="44.84815" lon="5.40302">
        <ele>1299</ele>
        <time>2020-05-22T10:07:05.856Z</time>
      </trkpt>
      <trkpt lat="44.84816" lon="5.40302">
        <ele>1298</ele>
        <time>2020-05-22T10:07:06.857Z</time>
      </trkpt>
      <trkpt lat="44.84818" lon="5.40303">
        <ele>1298</ele>
        <time>2020-05-22T10:07:07.857Z</time>
      </trkpt>
      <trkpt lat="44.8482" lon="5.40303">
        <ele>1298</ele>
        <time>2020-05-22T10:07:08.857Z</time>
      </trkpt>
      <trkpt lat="44.84822" lon="5.40303">
        <ele>1298</ele>
        <time>2020-05-22T10:07:09.856Z</time>
      </trkpt>
      <trkpt lat="44.84823" lon="5.40303">
        <ele>1297</ele>
        <time>2020-05-22T10:07:10.857Z</time>
      </trkpt>
      <trkpt lat="44.84825" lon="5.40304">
        <ele>1297</ele>
        <time>2020-05-22T10:07:11.857Z</time>
      </trkpt>
      <trkpt lat="44.84827" lon="5.40304">
        <ele>1298</ele>
        <time>2020-05-22T10:07:12.857Z</time>
      </trkpt>
      <trkpt lat="44.84829" lon="5.40304">
        <ele>1299</ele>
        <time>2020-05-22T10:07:13.856Z</time>
      </trkpt>
      <trkpt lat="44.84831" lon="5.40304">
        <ele>1299</ele>
        <time>2020-05-22T10:07:14.857Z</time>
      </trkpt>
      <trkpt lat="44.84833" lon="5.40304">
        <ele>1300</ele>
        <time>2020-05-22T10:07:15.856Z</time>
      </trkpt>
      <trkpt lat="44.84836" lon="5.40304">
        <ele>1300</ele>
        <time>2020-05-22T10:07:16.857Z</time>
      </trkpt>
      <trkpt lat="44.84838" lon="5.40304">
        <ele>1300</ele>
        <time>2020-05-22T10:07:17.857Z</time>
      </trkpt>
      <trkpt lat="44.8484" lon="5.40304">
        <ele>1301</ele>
        <time>2020-05-22T10:07:18.857Z</time>
      </trkpt>
      <trkpt lat="44.84841" lon="5.40304">
        <ele>1301</ele>
        <time>2020-05-22T10:07:19.857Z</time>
      </trkpt>
      <trkpt lat="44.84843" lon="5.40303">
        <ele>1301</ele>
        <time>2020-05-22T10:07:20.857Z</time>
      </trkpt>
      <trkpt lat="44.84846" lon="5.40303">
        <ele>1301</ele>
        <time>2020-05-22T10:07:21.857Z</time>
      </trkpt>
      <trkpt lat="44.84848" lon="5.40302">
        <ele>1301</ele>
        <time>2020-05-22T10:07:22.857Z</time>
      </trkpt>
      <trkpt lat="44.8485" lon="5.40302">
        <ele>1301</ele>
        <time>2020-05-22T10:07:23.857Z</time>
      </trkpt>
      <trkpt lat="44.84853" lon="5.40301">
        <ele>1301</ele>
        <time>2020-05-22T10:07:24.857Z</time>
      </trkpt>
      <trkpt lat="44.84854" lon="5.403">
        <ele>1301</ele>
        <time>2020-05-22T10:07:25.857Z</time>
      </trkpt>
      <trkpt lat="44.84856" lon="5.403">
        <ele>1301</ele>
        <time>2020-05-22T10:07:26.857Z</time>
      </trkpt>
      <trkpt lat="44.84858" lon="5.40299">
        <ele>1302</ele>
        <time>2020-05-22T10:07:27.857Z</time>
      </trkpt>
      <trkpt lat="44.8486" lon="5.40298">
        <ele>1302</ele>
        <time>2020-05-22T10:07:28.856Z</time>
      </trkpt>
      <trkpt lat="44.84862" lon="5.40297">
        <ele>1303</ele>
        <time>2020-05-22T10:07:29.857Z</time>
      </trkpt>
      <trkpt lat="44.84864" lon="5.40297">
        <ele>1302</ele>
        <time>2020-05-22T10:07:30.856Z</time>
      </trkpt>
      <trkpt lat="44.84865" lon="5.40296">
        <ele>1302</ele>
        <time>2020-05-22T10:07:31.857Z</time>
      </trkpt>
      <trkpt lat="44.84867" lon="5.40295">
        <ele>1302</ele>
        <time>2020-05-22T10:07:32.857Z</time>
      </trkpt>
      <trkpt lat="44.84869" lon="5.40294">
        <ele>1303</ele>
        <time>2020-05-22T10:07:33.857Z</time>
      </trkpt>
      <trkpt lat="44.8487" lon="5.40294">
        <ele>1303</ele>
        <time>2020-05-22T10:07:34.856Z</time>
      </trkpt>
      <trkpt lat="44.84872" lon="5.40293">
        <ele>1303</ele>
        <time>2020-05-22T10:07:35.857Z</time>
      </trkpt>
      <trkpt lat="44.84874" lon="5.40292">
        <ele>1303</ele>
        <time>2020-05-22T10:07:36.857Z</time>
      </trkpt>
      <trkpt lat="44.84875" lon="5.40292">
        <ele>1304</ele>
        <time>2020-05-22T10:07:37.857Z</time>
      </trkpt>
      <trkpt lat="44.84877" lon="5.40292">
        <ele>1304</ele>
        <time>2020-05-22T10:07:38.857Z</time>
      </trkpt>
      <trkpt lat="44.84878" lon="5.40291">
        <ele>1304</ele>
        <time>2020-05-22T10:07:39.857Z</time>
      </trkpt>
      <trkpt lat="44.8488" lon="5.40291">
        <ele>1304</ele>
        <time>2020-05-22T10:07:40.857Z</time>
      </trkpt>
      <trkpt lat="44.84882" lon="5.40291">
        <ele>1305</ele>
        <time>2020-05-22T10:07:41.856Z</time>
      </trkpt>
      <trkpt lat="44.84883" lon="5.4029">
        <ele>1305</ele>
        <time>2020-05-22T10:07:42.857Z</time>
      </trkpt>
      <trkpt lat="44.84885" lon="5.40289">
        <ele>1305</ele>
        <time>2020-05-22T10:07:43.857Z</time>
      </trkpt>
      <trkpt lat="44.84887" lon="5.40288">
        <ele>1305</ele>
        <time>2020-05-22T10:07:44.857Z</time>
      </trkpt>
      <trkpt lat="44.84889" lon="5.40288">
        <ele>1305</ele>
        <time>2020-05-22T10:07:45.857Z</time>
      </trkpt>
      <trkpt lat="44.84891" lon="5.40288">
        <ele>1305</ele>
        <time>2020-05-22T10:07:46.857Z</time>
      </trkpt>
      <trkpt lat="44.84893" lon="5.40288">
        <ele>1305</ele>
        <time>2020-05-22T10:07:47.857Z</time>
      </trkpt>
      <trkpt lat="44.84894" lon="5.40288">
        <ele>1305</ele>
        <time>2020-05-22T10:07:48.857Z</time>
      </trkpt>
      <trkpt lat="44.84895" lon="5.40288">
        <ele>1305</ele>
        <time>2020-05-22T10:07:49.856Z</time>
      </trkpt>
      <trkpt lat="44.84896" lon="5.40288">
        <ele>1305</ele>
        <time>2020-05-22T10:07:50.857Z</time>
      </trkpt>
      <trkpt lat="44.84897" lon="5.40288">
        <ele>1305</ele>
        <time>2020-05-22T10:07:51.857Z</time>
      </trkpt>
      <trkpt lat="44.84898" lon="5.40287">
        <ele>1304</ele>
        <time>2020-05-22T10:07:52.856Z</time>
      </trkpt>
      <trkpt lat="44.849" lon="5.40288">
        <ele>1304</ele>
        <time>2020-05-22T10:07:53.857Z</time>
      </trkpt>
      <trkpt lat="44.84902" lon="5.40288">
        <ele>1304</ele>
        <time>2020-05-22T10:07:54.857Z</time>
      </trkpt>
      <trkpt lat="44.84903" lon="5.40288">
        <ele>1304</ele>
        <time>2020-05-22T10:07:55.856Z</time>
      </trkpt>
      <trkpt lat="44.84905" lon="5.40289">
        <ele>1304</ele>
        <time>2020-05-22T10:07:56.857Z</time>
      </trkpt>
      <trkpt lat="44.84906" lon="5.40289">
        <ele>1304</ele>
        <time>2020-05-22T10:07:57.857Z</time>
      </trkpt>
      <trkpt lat="44.84908" lon="5.40289">
        <ele>1303</ele>
        <time>2020-05-22T10:07:58.857Z</time>
      </trkpt>
      <trkpt lat="44.8491" lon="5.40289">
        <ele>1303</ele>
        <time>2020-05-22T10:07:59.857Z</time>
      </trkpt>
      <trkpt lat="44.84911" lon="5.4029">
        <ele>1303</ele>
        <time>2020-05-22T10:08:00.857Z</time>
      </trkpt>
      <trkpt lat="44.84913" lon="5.4029">
        <ele>1302</ele>
        <time>2020-05-22T10:08:01.857Z</time>
      </trkpt>
      <trkpt lat="44.84914" lon="5.40291">
        <ele>1302</ele>
        <time>2020-05-22T10:08:02.857Z</time>
      </trkpt>
      <trkpt lat="44.84915" lon="5.40291">
        <ele>1302</ele>
        <time>2020-05-22T10:08:03.857Z</time>
      </trkpt>
      <trkpt lat="44.84917" lon="5.40292">
        <ele>1302</ele>
        <time>2020-05-22T10:08:04.857Z</time>
      </trkpt>
      <trkpt lat="44.84919" lon="5.40293">
        <ele>1302</ele>
        <time>2020-05-22T10:08:05.857Z</time>
      </trkpt>
      <trkpt lat="44.8492" lon="5.40295">
        <ele>1302</ele>
        <time>2020-05-22T10:08:06.856Z</time>
      </trkpt>
      <trkpt lat="44.84921" lon="5.40296">
        <ele>1303</ele>
        <time>2020-05-22T10:08:07.856Z</time>
      </trkpt>
      <trkpt lat="44.84923" lon="5.40297">
        <ele>1303</ele>
        <time>2020-05-22T10:08:08.856Z</time>
      </trkpt>
      <trkpt lat="44.84924" lon="5.40298">
        <ele>1303</ele>
        <time>2020-05-22T10:08:09.856Z</time>
      </trkpt>
      <trkpt lat="44.84926" lon="5.40299">
        <ele>1303</ele>
        <time>2020-05-22T10:08:10.857Z</time>
      </trkpt>
      <trkpt lat="44.84927" lon="5.403">
        <ele>1303</ele>
        <time>2020-05-22T10:08:11.857Z</time>
      </trkpt>
      <trkpt lat="44.84929" lon="5.40301">
        <ele>1303</ele>
        <time>2020-05-22T10:08:12.857Z</time>
      </trkpt>
      <trkpt lat="44.84931" lon="5.40301">
        <ele>1303</ele>
        <time>2020-05-22T10:08:13.857Z</time>
      </trkpt>
      <trkpt lat="44.84932" lon="5.40302">
        <ele>1303</ele>
        <time>2020-05-22T10:08:14.857Z</time>
      </trkpt>
      <trkpt lat="44.84934" lon="5.40302">
        <ele>1303</ele>
        <time>2020-05-22T10:08:15.857Z</time>
      </trkpt>
      <trkpt lat="44.84936" lon="5.40302">
        <ele>1303</ele>
        <time>2020-05-22T10:08:16.857Z</time>
      </trkpt>
      <trkpt lat="44.84938" lon="5.40303">
        <ele>1303</ele>
        <time>2020-05-22T10:08:17.857Z</time>
      </trkpt>
      <trkpt lat="44.84941" lon="5.40303">
        <ele>1303</ele>
        <time>2020-05-22T10:08:18.857Z</time>
      </trkpt>
      <trkpt lat="44.84943" lon="5.40304">
        <ele>1304</ele>
        <time>2020-05-22T10:08:19.857Z</time>
      </trkpt>
      <trkpt lat="44.84945" lon="5.40304">
        <ele>1305</ele>
        <time>2020-05-22T10:08:20.857Z</time>
      </trkpt>
      <trkpt lat="44.84946" lon="5.40305">
        <ele>1305</ele>
        <time>2020-05-22T10:08:21.856Z</time>
      </trkpt>
      <trkpt lat="44.84948" lon="5.40306">
        <ele>1305</ele>
        <time>2020-05-22T10:08:22.857Z</time>
      </trkpt>
      <trkpt lat="44.84949" lon="5.40306">
        <ele>1306</ele>
        <time>2020-05-22T10:08:23.857Z</time>
      </trkpt>
      <trkpt lat="44.84951" lon="5.40306">
        <ele>1306</ele>
        <time>2020-05-22T10:08:24.856Z</time>
      </trkpt>
      <trkpt lat="44.84952" lon="5.40306">
        <ele>1305</ele>
        <time>2020-05-22T10:08:25.857Z</time>
      </trkpt>
      <trkpt lat="44.84954" lon="5.40307">
        <ele>1305</ele>
        <time>2020-05-22T10:08:26.857Z</time>
      </trkpt>
      <trkpt lat="44.84956" lon="5.40307">
        <ele>1305</ele>
        <time>2020-05-22T10:08:27.857Z</time>
      </trkpt>
      <trkpt lat="44.84958" lon="5.40307">
        <ele>1304</ele>
        <time>2020-05-22T10:08:28.856Z</time>
      </trkpt>
      <trkpt lat="44.84959" lon="5.40308">
        <ele>1304</ele>
        <time>2020-05-22T10:08:29.857Z</time>
      </trkpt>
      <trkpt lat="44.84962" lon="5.40308">
        <ele>1304</ele>
        <time>2020-05-22T10:08:30.856Z</time>
      </trkpt>
      <trkpt lat="44.84963" lon="5.40308">
        <ele>1304</ele>
        <time>2020-05-22T10:08:31.857Z</time>
      </trkpt>
      <trkpt lat="44.84965" lon="5.40307">
        <ele>1304</ele>
        <time>2020-05-22T10:08:32.857Z</time>
      </trkpt>
      <trkpt lat="44.84967" lon="5.40307">
        <ele>1304</ele>
        <time>2020-05-22T10:08:33.857Z</time>
      </trkpt>
      <trkpt lat="44.84969" lon="5.40307">
        <ele>1304</ele>
        <time>2020-05-22T10:08:34.857Z</time>
      </trkpt>
      <trkpt lat="44.84971" lon="5.40307">
        <ele>1304</ele>
        <time>2020-05-22T10:08:35.857Z</time>
      </trkpt>
      <trkpt lat="44.84974" lon="5.40307">
        <ele>1304</ele>
        <time>2020-05-22T10:08:36.857Z</time>
      </trkpt>
      <trkpt lat="44.84976" lon="5.40308">
        <ele>1304</ele>
        <time>2020-05-22T10:08:37.857Z</time>
      </trkpt>
      <trkpt lat="44.84978" lon="5.40308">
        <ele>1304</ele>
        <time>2020-05-22T10:08:38.857Z</time>
      </trkpt>
      <trkpt lat="44.8498" lon="5.40308">
        <ele>1304</ele>
        <time>2020-05-22T10:08:39.857Z</time>
      </trkpt>
      <trkpt lat="44.84983" lon="5.40308">
        <ele>1304</ele>
        <time>2020-05-22T10:08:40.856Z</time>
      </trkpt>
      <trkpt lat="44.84985" lon="5.40308">
        <ele>1304</ele>
        <time>2020-05-22T10:08:41.856Z</time>
      </trkpt>
      <trkpt lat="44.84987" lon="5.40309">
        <ele>1304</ele>
        <time>2020-05-22T10:08:42.856Z</time>
      </trkpt>
      <trkpt lat="44.8499" lon="5.40309">
        <ele>1304</ele>
        <time>2020-05-22T10:08:43.857Z</time>
      </trkpt>
      <trkpt lat="44.84993" lon="5.40309">
        <ele>1305</ele>
        <time>2020-05-22T10:08:44.856Z</time>
      </trkpt>
      <trkpt lat="44.84995" lon="5.40309">
        <ele>1305</ele>
        <time>2020-05-22T10:08:45.857Z</time>
      </trkpt>
      <trkpt lat="44.84998" lon="5.40309">
        <ele>1305</ele>
        <time>2020-05-22T10:08:46.856Z</time>
      </trkpt>
      <trkpt lat="44.85" lon="5.40309">
        <ele>1305</ele>
        <time>2020-05-22T10:08:47.857Z</time>
      </trkpt>
      <trkpt lat="44.85003" lon="5.40309">
        <ele>1305</ele>
        <time>2020-05-22T10:08:48.857Z</time>
      </trkpt>
      <trkpt lat="44.85006" lon="5.40308">
        <ele>1304</ele>
        <time>2020-05-22T10:08:49.857Z</time>
      </trkpt>
      <trkpt lat="44.85008" lon="5.40308">
        <ele>1304</ele>
        <time>2020-05-22T10:08:50.857Z</time>
      </trkpt>
      <trkpt lat="44.85011" lon="5.40308">
        <ele>1304</ele>
        <time>2020-05-22T10:08:51.857Z</time>
      </trkpt>
      <trkpt lat="44.85014" lon="5.40308">
        <ele>1304</ele>
        <time>2020-05-22T10:08:52.857Z</time>
      </trkpt>
      <trkpt lat="44.85017" lon="5.40308">
        <ele>1304</ele>
        <time>2020-05-22T10:08:53.857Z</time>
      </trkpt>
      <trkpt lat="44.8502" lon="5.40308">
        <ele>1304</ele>
        <time>2020-05-22T10:08:54.857Z</time>
      </trkpt>
      <trkpt lat="44.85023" lon="5.40308">
        <ele>1305</ele>
        <time>2020-05-22T10:08:55.857Z</time>
      </trkpt>
      <trkpt lat="44.85025" lon="5.40308">
        <ele>1305</ele>
        <time>2020-05-22T10:08:56.857Z</time>
      </trkpt>
      <trkpt lat="44.85028" lon="5.40307">
        <ele>1305</ele>
        <time>2020-05-22T10:08:57.857Z</time>
      </trkpt>
      <trkpt lat="44.8503" lon="5.40307">
        <ele>1305</ele>
        <time>2020-05-22T10:08:58.857Z</time>
      </trkpt>
      <trkpt lat="44.85032" lon="5.40306">
        <ele>1304</ele>
        <time>2020-05-22T10:08:59.856Z</time>
      </trkpt>
      <trkpt lat="44.85033" lon="5.40307">
        <ele>1304</ele>
        <time>2020-05-22T10:09:00.857Z</time>
      </trkpt>
      <trkpt lat="44.85036" lon="5.40307">
        <ele>1303</ele>
        <time>2020-05-22T10:09:01.857Z</time>
      </trkpt>
      <trkpt lat="44.85038" lon="5.40307">
        <ele>1303</ele>
        <time>2020-05-22T10:09:02.857Z</time>
      </trkpt>
      <trkpt lat="44.85041" lon="5.40307">
        <ele>1303</ele>
        <time>2020-05-22T10:09:03.856Z</time>
      </trkpt>
      <trkpt lat="44.85043" lon="5.40306">
        <ele>1303</ele>
        <time>2020-05-22T10:09:04.857Z</time>
      </trkpt>
      <trkpt lat="44.85046" lon="5.40306">
        <ele>1302</ele>
        <time>2020-05-22T10:09:05.857Z</time>
      </trkpt>
      <trkpt lat="44.85048" lon="5.40306">
        <ele>1302</ele>
        <time>2020-05-22T10:09:06.856Z</time>
      </trkpt>
      <trkpt lat="44.8505" lon="5.40306">
        <ele>1302</ele>
        <time>2020-05-22T10:09:07.857Z</time>
      </trkpt>
      <trkpt lat="44.85053" lon="5.40306">
        <ele>1302</ele>
        <time>2020-05-22T10:09:08.857Z</time>
      </trkpt>
      <trkpt lat="44.85055" lon="5.40306">
        <ele>1302</ele>
        <time>2020-05-22T10:09:09.857Z</time>
      </trkpt>
      <trkpt lat="44.85058" lon="5.40306">
        <ele>1302</ele>
        <time>2020-05-22T10:09:10.856Z</time>
      </trkpt>
      <trkpt lat="44.8506" lon="5.40306">
        <ele>1303</ele>
        <time>2020-05-22T10:09:11.857Z</time>
      </trkpt>
      <trkpt lat="44.85062" lon="5.40307">
        <ele>1304</ele>
        <time>2020-05-22T10:09:12.857Z</time>
      </trkpt>
      <trkpt lat="44.85065" lon="5.40307">
        <ele>1304</ele>
        <time>2020-05-22T10:09:13.857Z</time>
      </trkpt>
      <trkpt lat="44.85067" lon="5.40307">
        <ele>1305</ele>
        <time>2020-05-22T10:09:14.857Z</time>
      </trkpt>
      <trkpt lat="44.85069" lon="5.40308">
        <ele>1305</ele>
        <time>2020-05-22T10:09:15.857Z</time>
      </trkpt>
      <trkpt lat="44.85072" lon="5.40308">
        <ele>1305</ele>
        <time>2020-05-22T10:09:16.857Z</time>
      </trkpt>
      <trkpt lat="44.85074" lon="5.40308">
        <ele>1306</ele>
        <time>2020-05-22T10:09:17.857Z</time>
      </trkpt>
      <trkpt lat="44.85078" lon="5.40307">
        <ele>1306</ele>
        <time>2020-05-22T10:09:18.856Z</time>
      </trkpt>
      <trkpt lat="44.8508" lon="5.40308">
        <ele>1307</ele>
        <time>2020-05-22T10:09:19.857Z</time>
      </trkpt>
      <trkpt lat="44.85083" lon="5.40307">
        <ele>1308</ele>
        <time>2020-05-22T10:09:20.856Z</time>
      </trkpt>
      <trkpt lat="44.85085" lon="5.40308">
        <ele>1308</ele>
        <time>2020-05-22T10:09:21.857Z</time>
      </trkpt>
      <trkpt lat="44.85087" lon="5.40307">
        <ele>1308</ele>
        <time>2020-05-22T10:09:22.857Z</time>
      </trkpt>
      <trkpt lat="44.85089" lon="5.40307">
        <ele>1309</ele>
        <time>2020-05-22T10:09:23.857Z</time>
      </trkpt>
      <trkpt lat="44.85092" lon="5.40307">
        <ele>1309</ele>
        <time>2020-05-22T10:09:24.857Z</time>
      </trkpt>
      <trkpt lat="44.85094" lon="5.40307">
        <ele>1309</ele>
        <time>2020-05-22T10:09:25.857Z</time>
      </trkpt>
      <trkpt lat="44.85096" lon="5.40307">
        <ele>1309</ele>
        <time>2020-05-22T10:09:26.857Z</time>
      </trkpt>
      <trkpt lat="44.85099" lon="5.40306">
        <ele>1309</ele>
        <time>2020-05-22T10:09:27.857Z</time>
      </trkpt>
      <trkpt lat="44.85101" lon="5.40306">
        <ele>1309</ele>
        <time>2020-05-22T10:09:28.857Z</time>
      </trkpt>
      <trkpt lat="44.85103" lon="5.40305">
        <ele>1308</ele>
        <time>2020-05-22T10:09:29.857Z</time>
      </trkpt>
      <trkpt lat="44.85106" lon="5.40305">
        <ele>1308</ele>
        <time>2020-05-22T10:09:30.857Z</time>
      </trkpt>
      <trkpt lat="44.85108" lon="5.40304">
        <ele>1308</ele>
        <time>2020-05-22T10:09:31.856Z</time>
      </trkpt>
      <trkpt lat="44.85111" lon="5.40304">
        <ele>1308</ele>
        <time>2020-05-22T10:09:32.857Z</time>
      </trkpt>
      <trkpt lat="44.85114" lon="5.40303">
        <ele>1308</ele>
        <time>2020-05-22T10:09:33.857Z</time>
      </trkpt>
      <trkpt lat="44.85117" lon="5.40303">
        <ele>1309</ele>
        <time>2020-05-22T10:09:34.856Z</time>
      </trkpt>
      <trkpt lat="44.8512" lon="5.40303">
        <ele>1309</ele>
        <time>2020-05-22T10:09:35.857Z</time>
      </trkpt>
      <trkpt lat="44.85123" lon="5.40301">
        <ele>1309</ele>
        <time>2020-05-22T10:09:36.856Z</time>
      </trkpt>
      <trkpt lat="44.85125" lon="5.40301">
        <ele>1310</ele>
        <time>2020-05-22T10:09:37.856Z</time>
      </trkpt>
      <trkpt lat="44.85128" lon="5.403">
        <ele>1310</ele>
        <time>2020-05-22T10:09:38.856Z</time>
      </trkpt>
      <trkpt lat="44.85131" lon="5.403">
        <ele>1310</ele>
        <time>2020-05-22T10:09:39.857Z</time>
      </trkpt>
      <trkpt lat="44.85133" lon="5.403">
        <ele>1310</ele>
        <time>2020-05-22T10:09:40.857Z</time>
      </trkpt>
      <trkpt lat="44.85135" lon="5.40299">
        <ele>1310</ele>
        <time>2020-05-22T10:09:41.857Z</time>
      </trkpt>
      <trkpt lat="44.85138" lon="5.40299">
        <ele>1310</ele>
        <time>2020-05-22T10:09:42.857Z</time>
      </trkpt>
      <trkpt lat="44.8514" lon="5.40299">
        <ele>1310</ele>
        <time>2020-05-22T10:09:43.857Z</time>
      </trkpt>
      <trkpt lat="44.85143" lon="5.40298">
        <ele>1310</ele>
        <time>2020-05-22T10:09:44.857Z</time>
      </trkpt>
      <trkpt lat="44.85146" lon="5.40297">
        <ele>1310</ele>
        <time>2020-05-22T10:09:45.856Z</time>
      </trkpt>
      <trkpt lat="44.85148" lon="5.40296">
        <ele>1310</ele>
        <time>2020-05-22T10:09:46.856Z</time>
      </trkpt>
      <trkpt lat="44.85151" lon="5.40295">
        <ele>1310</ele>
        <time>2020-05-22T10:09:47.856Z</time>
      </trkpt>
      <trkpt lat="44.85154" lon="5.40294">
        <ele>1310</ele>
        <time>2020-05-22T10:09:48.857Z</time>
      </trkpt>
      <trkpt lat="44.85157" lon="5.40293">
        <ele>1310</ele>
        <time>2020-05-22T10:09:49.857Z</time>
      </trkpt>
      <trkpt lat="44.85159" lon="5.40292">
        <ele>1310</ele>
        <time>2020-05-22T10:09:50.856Z</time>
      </trkpt>
      <trkpt lat="44.85161" lon="5.40291">
        <ele>1310</ele>
        <time>2020-05-22T10:09:51.857Z</time>
      </trkpt>
      <trkpt lat="44.85163" lon="5.40289">
        <ele>1310</ele>
        <time>2020-05-22T10:09:52.857Z</time>
      </trkpt>
      <trkpt lat="44.85165" lon="5.40288">
        <ele>1310</ele>
        <time>2020-05-22T10:09:53.857Z</time>
      </trkpt>
      <trkpt lat="44.85167" lon="5.40286">
        <ele>1310</ele>
        <time>2020-05-22T10:09:54.857Z</time>
      </trkpt>
      <trkpt lat="44.8517" lon="5.40284">
        <ele>1310</ele>
        <time>2020-05-22T10:09:55.857Z</time>
      </trkpt>
      <trkpt lat="44.85172" lon="5.40282">
        <ele>1310</ele>
        <time>2020-05-22T10:09:56.857Z</time>
      </trkpt>
      <trkpt lat="44.85173" lon="5.40279">
        <ele>1309</ele>
        <time>2020-05-22T10:09:57.857Z</time>
      </trkpt>
      <trkpt lat="44.85175" lon="5.40275">
        <ele>1309</ele>
        <time>2020-05-22T10:09:58.857Z</time>
      </trkpt>
      <trkpt lat="44.85177" lon="5.40272">
        <ele>1309</ele>
        <time>2020-05-22T10:09:59.856Z</time>
      </trkpt>
      <trkpt lat="44.8518" lon="5.40268">
        <ele>1309</ele>
        <time>2020-05-22T10:10:00.856Z</time>
      </trkpt>
      <trkpt lat="44.85183" lon="5.40265">
        <ele>1309</ele>
        <time>2020-05-22T10:10:01.857Z</time>
      </trkpt>
      <trkpt lat="44.85186" lon="5.40261">
        <ele>1309</ele>
        <time>2020-05-22T10:10:02.857Z</time>
      </trkpt>
      <trkpt lat="44.85189" lon="5.40259">
        <ele>1309</ele>
        <time>2020-05-22T10:10:03.857Z</time>
      </trkpt>
      <trkpt lat="44.85192" lon="5.40256">
        <ele>1310</ele>
        <time>2020-05-22T10:10:04.857Z</time>
      </trkpt>
      <trkpt lat="44.85195" lon="5.40254">
        <ele>1310</ele>
        <time>2020-05-22T10:10:05.856Z</time>
      </trkpt>
      <trkpt lat="44.85197" lon="5.40252">
        <ele>1310</ele>
        <time>2020-05-22T10:10:06.857Z</time>
      </trkpt>
      <trkpt lat="44.852" lon="5.40251">
        <ele>1310</ele>
        <time>2020-05-22T10:10:07.856Z</time>
      </trkpt>
      <trkpt lat="44.85203" lon="5.4025">
        <ele>1310</ele>
        <time>2020-05-22T10:10:08.857Z</time>
      </trkpt>
      <trkpt lat="44.85205" lon="5.40249">
        <ele>1310</ele>
        <time>2020-05-22T10:10:09.857Z</time>
      </trkpt>
      <trkpt lat="44.85207" lon="5.40248">
        <ele>1309</ele>
        <time>2020-05-22T10:10:10.857Z</time>
      </trkpt>
      <trkpt lat="44.85209" lon="5.40247">
        <ele>1309</ele>
        <time>2020-05-22T10:10:11.856Z</time>
      </trkpt>
      <trkpt lat="44.8521" lon="5.40246">
        <ele>1309</ele>
        <time>2020-05-22T10:10:12.857Z</time>
      </trkpt>
      <trkpt lat="44.85212" lon="5.40246">
        <ele>1308</ele>
        <time>2020-05-22T10:10:13.857Z</time>
      </trkpt>
      <trkpt lat="44.85214" lon="5.40245">
        <ele>1308</ele>
        <time>2020-05-22T10:10:14.857Z</time>
      </trkpt>
      <trkpt lat="44.85215" lon="5.40245">
        <ele>1307</ele>
        <time>2020-05-22T10:10:15.857Z</time>
      </trkpt>
      <trkpt lat="44.85218" lon="5.40244">
        <ele>1307</ele>
        <time>2020-05-22T10:10:16.857Z</time>
      </trkpt>
      <trkpt lat="44.85219" lon="5.40243">
        <ele>1307</ele>
        <time>2020-05-22T10:10:17.857Z</time>
      </trkpt>
      <trkpt lat="44.8522" lon="5.40242">
        <ele>1307</ele>
        <time>2020-05-22T10:10:18.857Z</time>
      </trkpt>
      <trkpt lat="44.85221" lon="5.40242">
        <ele>1307</ele>
        <time>2020-05-22T10:10:19.857Z</time>
      </trkpt>
      <trkpt lat="44.85223" lon="5.40241">
        <ele>1307</ele>
        <time>2020-05-22T10:10:20.857Z</time>
      </trkpt>
      <trkpt lat="44.85225" lon="5.4024">
        <ele>1307</ele>
        <time>2020-05-22T10:10:21.857Z</time>
      </trkpt>
      <trkpt lat="44.85226" lon="5.4024">
        <ele>1307</ele>
        <time>2020-05-22T10:10:22.857Z</time>
      </trkpt>
      <trkpt lat="44.85228" lon="5.40239">
        <ele>1307</ele>
        <time>2020-05-22T10:10:23.857Z</time>
      </trkpt>
      <trkpt lat="44.85229" lon="5.40238">
        <ele>1307</ele>
        <time>2020-05-22T10:10:24.857Z</time>
      </trkpt>
      <trkpt lat="44.8523" lon="5.40237">
        <ele>1308</ele>
        <time>2020-05-22T10:10:25.856Z</time>
      </trkpt>
      <trkpt lat="44.85232" lon="5.40236">
        <ele>1308</ele>
        <time>2020-05-22T10:10:26.857Z</time>
      </trkpt>
      <trkpt lat="44.85233" lon="5.40235">
        <ele>1308</ele>
        <time>2020-05-22T10:10:27.857Z</time>
      </trkpt>
      <trkpt lat="44.85235" lon="5.40235">
        <ele>1309</ele>
        <time>2020-05-22T10:10:28.857Z</time>
      </trkpt>
      <trkpt lat="44.85237" lon="5.40234">
        <ele>1310</ele>
        <time>2020-05-22T10:10:29.856Z</time>
      </trkpt>
      <trkpt lat="44.8524" lon="5.40233">
        <ele>1311</ele>
        <time>2020-05-22T10:10:30.856Z</time>
      </trkpt>
      <trkpt lat="44.85242" lon="5.40232">
        <ele>1313</ele>
        <time>2020-05-22T10:10:31.857Z</time>
      </trkpt>
      <trkpt lat="44.85244" lon="5.40232">
        <ele>1313</ele>
        <time>2020-05-22T10:10:32.857Z</time>
      </trkpt>
      <trkpt lat="44.85245" lon="5.40231">
        <ele>1314</ele>
        <time>2020-05-22T10:10:33.857Z</time>
      </trkpt>
      <trkpt lat="44.85246" lon="5.4023">
        <ele>1315</ele>
        <time>2020-05-22T10:10:34.857Z</time>
      </trkpt>
      <trkpt lat="44.85247" lon="5.4023">
        <ele>1315</ele>
        <time>2020-05-22T10:10:35.857Z</time>
      </trkpt>
      <trkpt lat="44.85249" lon="5.4023">
        <ele>1316</ele>
        <time>2020-05-22T10:10:36.857Z</time>
      </trkpt>
      <trkpt lat="44.8525" lon="5.4023">
        <ele>1316</ele>
        <time>2020-05-22T10:10:37.857Z</time>
      </trkpt>
      <trkpt lat="44.85252" lon="5.4023">
        <ele>1316</ele>
        <time>2020-05-22T10:10:38.856Z</time>
      </trkpt>
      <trkpt lat="44.85254" lon="5.40229">
        <ele>1317</ele>
        <time>2020-05-22T10:10:39.857Z</time>
      </trkpt>
      <trkpt lat="44.85255" lon="5.40229">
        <ele>1318</ele>
        <time>2020-05-22T10:10:40.857Z</time>
      </trkpt>
      <trkpt lat="44.85257" lon="5.40229">
        <ele>1318</ele>
        <time>2020-05-22T10:10:41.857Z</time>
      </trkpt>
      <trkpt lat="44.85259" lon="5.40229">
        <ele>1318</ele>
        <time>2020-05-22T10:10:42.857Z</time>
      </trkpt>
      <trkpt lat="44.8526" lon="5.40229">
        <ele>1318</ele>
        <time>2020-05-22T10:10:43.857Z</time>
      </trkpt>
      <trkpt lat="44.85263" lon="5.40229">
        <ele>1318</ele>
        <time>2020-05-22T10:10:44.857Z</time>
      </trkpt>
      <trkpt lat="44.85264" lon="5.4023">
        <ele>1319</ele>
        <time>2020-05-22T10:10:45.856Z</time>
      </trkpt>
      <trkpt lat="44.85266" lon="5.4023">
        <ele>1319</ele>
        <time>2020-05-22T10:10:46.857Z</time>
      </trkpt>
      <trkpt lat="44.85267" lon="5.4023">
        <ele>1319</ele>
        <time>2020-05-22T10:10:47.857Z</time>
      </trkpt>
      <trkpt lat="44.85269" lon="5.4023">
        <ele>1319</ele>
        <time>2020-05-22T10:10:48.857Z</time>
      </trkpt>
      <trkpt lat="44.8527" lon="5.4023">
        <ele>1319</ele>
        <time>2020-05-22T10:10:49.856Z</time>
      </trkpt>
      <trkpt lat="44.85272" lon="5.4023">
        <ele>1319</ele>
        <time>2020-05-22T10:10:50.857Z</time>
      </trkpt>
      <trkpt lat="44.85273" lon="5.4023">
        <ele>1319</ele>
        <time>2020-05-22T10:10:51.856Z</time>
      </trkpt>
      <trkpt lat="44.85274" lon="5.40231">
        <ele>1319</ele>
        <time>2020-05-22T10:10:52.856Z</time>
      </trkpt>
      <trkpt lat="44.85276" lon="5.40231">
        <ele>1319</ele>
        <time>2020-05-22T10:10:53.857Z</time>
      </trkpt>
      <trkpt lat="44.85277" lon="5.40231">
        <ele>1319</ele>
        <time>2020-05-22T10:10:54.856Z</time>
      </trkpt>
      <trkpt lat="44.85279" lon="5.40232">
        <ele>1320</ele>
        <time>2020-05-22T10:10:55.857Z</time>
      </trkpt>
      <trkpt lat="44.8528" lon="5.40232">
        <ele>1320</ele>
        <time>2020-05-22T10:10:56.857Z</time>
      </trkpt>
      <trkpt lat="44.85282" lon="5.40232">
        <ele>1321</ele>
        <time>2020-05-22T10:10:57.857Z</time>
      </trkpt>
      <trkpt lat="44.85283" lon="5.40232">
        <ele>1321</ele>
        <time>2020-05-22T10:10:58.857Z</time>
      </trkpt>
      <trkpt lat="44.85285" lon="5.40232">
        <ele>1321</ele>
        <time>2020-05-22T10:10:59.857Z</time>
      </trkpt>
      <trkpt lat="44.85286" lon="5.40232">
        <ele>1320</ele>
        <time>2020-05-22T10:11:00.856Z</time>
      </trkpt>
      <trkpt lat="44.85288" lon="5.40232">
        <ele>1320</ele>
        <time>2020-05-22T10:11:01.857Z</time>
      </trkpt>
      <trkpt lat="44.8529" lon="5.40233">
        <ele>1320</ele>
        <time>2020-05-22T10:11:02.856Z</time>
      </trkpt>
      <trkpt lat="44.85292" lon="5.40234">
        <ele>1320</ele>
        <time>2020-05-22T10:11:03.857Z</time>
      </trkpt>
      <trkpt lat="44.85294" lon="5.40235">
        <ele>1320</ele>
        <time>2020-05-22T10:11:04.857Z</time>
      </trkpt>
      <trkpt lat="44.85295" lon="5.40235">
        <ele>1321</ele>
        <time>2020-05-22T10:11:05.856Z</time>
      </trkpt>
      <trkpt lat="44.85297" lon="5.40236">
        <ele>1321</ele>
        <time>2020-05-22T10:11:06.857Z</time>
      </trkpt>
      <trkpt lat="44.85299" lon="5.40236">
        <ele>1322</ele>
        <time>2020-05-22T10:11:07.856Z</time>
      </trkpt>
      <trkpt lat="44.853" lon="5.40237">
        <ele>1321</ele>
        <time>2020-05-22T10:11:08.857Z</time>
      </trkpt>
      <trkpt lat="44.85301" lon="5.40237">
        <ele>1321</ele>
        <time>2020-05-22T10:11:09.857Z</time>
      </trkpt>
      <trkpt lat="44.85303" lon="5.40238">
        <ele>1321</ele>
        <time>2020-05-22T10:11:10.857Z</time>
      </trkpt>
      <trkpt lat="44.85304" lon="5.40238">
        <ele>1321</ele>
        <time>2020-05-22T10:11:11.857Z</time>
      </trkpt>
      <trkpt lat="44.85306" lon="5.40238">
        <ele>1321</ele>
        <time>2020-05-22T10:11:12.857Z</time>
      </trkpt>
      <trkpt lat="44.85307" lon="5.40238">
        <ele>1321</ele>
        <time>2020-05-22T10:11:13.857Z</time>
      </trkpt>
      <trkpt lat="44.85308" lon="5.40239">
        <ele>1321</ele>
        <time>2020-05-22T10:11:14.856Z</time>
      </trkpt>
      <trkpt lat="44.85309" lon="5.40239">
        <ele>1321</ele>
        <time>2020-05-22T10:11:15.857Z</time>
      </trkpt>
      <trkpt lat="44.8531" lon="5.4024">
        <ele>1322</ele>
        <time>2020-05-22T10:11:16.857Z</time>
      </trkpt>
      <trkpt lat="44.85311" lon="5.4024">
        <ele>1322</ele>
        <time>2020-05-22T10:11:17.857Z</time>
      </trkpt>
      <trkpt lat="44.85313" lon="5.4024">
        <ele>1322</ele>
        <time>2020-05-22T10:11:18.856Z</time>
      </trkpt>
      <trkpt lat="44.85314" lon="5.40241">
        <ele>1322</ele>
        <time>2020-05-22T10:11:19.857Z</time>
      </trkpt>
      <trkpt lat="44.85316" lon="5.40241">
        <ele>1322</ele>
        <time>2020-05-22T10:11:20.857Z</time>
      </trkpt>
      <trkpt lat="44.85317" lon="5.40241">
        <ele>1322</ele>
        <time>2020-05-22T10:11:21.857Z</time>
      </trkpt>
      <trkpt lat="44.85319" lon="5.4024">
        <ele>1322</ele>
        <time>2020-05-22T10:11:22.857Z</time>
      </trkpt>
      <trkpt lat="44.85321" lon="5.4024">
        <ele>1323</ele>
        <time>2020-05-22T10:11:23.857Z</time>
      </trkpt>
      <trkpt lat="44.85323" lon="5.4024">
        <ele>1324</ele>
        <time>2020-05-22T10:11:24.857Z</time>
      </trkpt>
      <trkpt lat="44.85324" lon="5.4024">
        <ele>1324</ele>
        <time>2020-05-22T10:11:25.856Z</time>
      </trkpt>
      <trkpt lat="44.85326" lon="5.4024">
        <ele>1324</ele>
        <time>2020-05-22T10:11:26.857Z</time>
      </trkpt>
      <trkpt lat="44.85327" lon="5.4024">
        <ele>1324</ele>
        <time>2020-05-22T10:11:27.857Z</time>
      </trkpt>
      <trkpt lat="44.85329" lon="5.4024">
        <ele>1323</ele>
        <time>2020-05-22T10:11:28.857Z</time>
      </trkpt>
      <trkpt lat="44.8533" lon="5.4024">
        <ele>1323</ele>
        <time>2020-05-22T10:11:29.856Z</time>
      </trkpt>
      <trkpt lat="44.85332" lon="5.4024">
        <ele>1323</ele>
        <time>2020-05-22T10:11:30.857Z</time>
      </trkpt>
      <trkpt lat="44.85333" lon="5.4024">
        <ele>1322</ele>
        <time>2020-05-22T10:11:31.857Z</time>
      </trkpt>
      <trkpt lat="44.85335" lon="5.4024">
        <ele>1322</ele>
        <time>2020-05-22T10:11:32.856Z</time>
      </trkpt>
      <trkpt lat="44.85337" lon="5.4024">
        <ele>1323</ele>
        <time>2020-05-22T10:11:33.856Z</time>
      </trkpt>
      <trkpt lat="44.85338" lon="5.4024">
        <ele>1323</ele>
        <time>2020-05-22T10:11:34.856Z</time>
      </trkpt>
      <trkpt lat="44.8534" lon="5.4024">
        <ele>1323</ele>
        <time>2020-05-22T10:11:35.857Z</time>
      </trkpt>
      <trkpt lat="44.85341" lon="5.4024">
        <ele>1324</ele>
        <time>2020-05-22T10:11:36.856Z</time>
      </trkpt>
      <trkpt lat="44.85343" lon="5.4024">
        <ele>1324</ele>
        <time>2020-05-22T10:11:37.857Z</time>
      </trkpt>
      <trkpt lat="44.85345" lon="5.40241">
        <ele>1325</ele>
        <time>2020-05-22T10:11:38.857Z</time>
      </trkpt>
      <trkpt lat="44.85347" lon="5.40241">
        <ele>1326</ele>
        <time>2020-05-22T10:11:39.857Z</time>
      </trkpt>
      <trkpt lat="44.85348" lon="5.40241">
        <ele>1325</ele>
        <time>2020-05-22T10:11:40.856Z</time>
      </trkpt>
      <trkpt lat="44.8535" lon="5.40241">
        <ele>1325</ele>
        <time>2020-05-22T10:11:41.857Z</time>
      </trkpt>
      <trkpt lat="44.85351" lon="5.40241">
        <ele>1325</ele>
        <time>2020-05-22T10:11:42.857Z</time>
      </trkpt>
      <trkpt lat="44.85353" lon="5.40241">
        <ele>1325</ele>
        <time>2020-05-22T10:11:43.856Z</time>
      </trkpt>
      <trkpt lat="44.85354" lon="5.40241">
        <ele>1325</ele>
        <time>2020-05-22T10:11:44.857Z</time>
      </trkpt>
      <trkpt lat="44.85356" lon="5.4024">
        <ele>1326</ele>
        <time>2020-05-22T10:11:45.857Z</time>
      </trkpt>
      <trkpt lat="44.85358" lon="5.4024">
        <ele>1326</ele>
        <time>2020-05-22T10:11:46.857Z</time>
      </trkpt>
      <trkpt lat="44.85359" lon="5.40239">
        <ele>1327</ele>
        <time>2020-05-22T10:11:47.857Z</time>
      </trkpt>
      <trkpt lat="44.85361" lon="5.40238">
        <ele>1328</ele>
        <time>2020-05-22T10:11:48.856Z</time>
      </trkpt>
      <trkpt lat="44.85363" lon="5.40238">
        <ele>1329</ele>
        <time>2020-05-22T10:11:49.856Z</time>
      </trkpt>
      <trkpt lat="44.85365" lon="5.40237">
        <ele>1329</ele>
        <time>2020-05-22T10:11:50.857Z</time>
      </trkpt>
      <trkpt lat="44.85366" lon="5.40236">
        <ele>1329</ele>
        <time>2020-05-22T10:11:51.857Z</time>
      </trkpt>
      <trkpt lat="44.85369" lon="5.40236">
        <ele>1329</ele>
        <time>2020-05-22T10:11:52.856Z</time>
      </trkpt>
      <trkpt lat="44.85371" lon="5.40236">
        <ele>1330</ele>
        <time>2020-05-22T10:11:53.857Z</time>
      </trkpt>
      <trkpt lat="44.85372" lon="5.40235">
        <ele>1330</ele>
        <time>2020-05-22T10:11:54.857Z</time>
      </trkpt>
      <trkpt lat="44.85373" lon="5.40235">
        <ele>1331</ele>
        <time>2020-05-22T10:11:55.857Z</time>
      </trkpt>
      <trkpt lat="44.85375" lon="5.40235">
        <ele>1331</ele>
        <time>2020-05-22T10:11:56.856Z</time>
      </trkpt>
      <trkpt lat="44.85376" lon="5.40235">
        <ele>1331</ele>
        <time>2020-05-22T10:11:57.857Z</time>
      </trkpt>
      <trkpt lat="44.85378" lon="5.40235">
        <ele>1332</ele>
        <time>2020-05-22T10:11:58.857Z</time>
      </trkpt>
      <trkpt lat="44.85379" lon="5.40235">
        <ele>1332</ele>
        <time>2020-05-22T10:11:59.857Z</time>
      </trkpt>
      <trkpt lat="44.85381" lon="5.40235">
        <ele>1331</ele>
        <time>2020-05-22T10:12:00.857Z</time>
      </trkpt>
      <trkpt lat="44.85382" lon="5.40235">
        <ele>1331</ele>
        <time>2020-05-22T10:12:01.856Z</time>
      </trkpt>
      <trkpt lat="44.85384" lon="5.40236">
        <ele>1330</ele>
        <time>2020-05-22T10:12:02.857Z</time>
      </trkpt>
      <trkpt lat="44.85385" lon="5.40237">
        <ele>1329</ele>
        <time>2020-05-22T10:12:03.857Z</time>
      </trkpt>
      <trkpt lat="44.85386" lon="5.40238">
        <ele>1329</ele>
        <time>2020-05-22T10:12:04.856Z</time>
      </trkpt>
      <trkpt lat="44.85388" lon="5.40238">
        <ele>1329</ele>
        <time>2020-05-22T10:12:05.857Z</time>
      </trkpt>
      <trkpt lat="44.85389" lon="5.40239">
        <ele>1329</ele>
        <time>2020-05-22T10:12:06.857Z</time>
      </trkpt>
      <trkpt lat="44.8539" lon="5.40239">
        <ele>1328</ele>
        <time>2020-05-22T10:12:07.857Z</time>
      </trkpt>
      <trkpt lat="44.85391" lon="5.4024">
        <ele>1328</ele>
        <time>2020-05-22T10:12:08.857Z</time>
      </trkpt>
      <trkpt lat="44.85393" lon="5.4024">
        <ele>1328</ele>
        <time>2020-05-22T10:12:09.857Z</time>
      </trkpt>
      <trkpt lat="44.85394" lon="5.4024">
        <ele>1328</ele>
        <time>2020-05-22T10:12:10.857Z</time>
      </trkpt>
      <trkpt lat="44.85396" lon="5.4024">
        <ele>1327</ele>
        <time>2020-05-22T10:12:11.856Z</time>
      </trkpt>
      <trkpt lat="44.85397" lon="5.40241">
        <ele>1328</ele>
        <time>2020-05-22T10:12:12.857Z</time>
      </trkpt>
      <trkpt lat="44.85398" lon="5.40242">
        <ele>1327</ele>
        <time>2020-05-22T10:12:13.857Z</time>
      </trkpt>
      <trkpt lat="44.85399" lon="5.40243">
        <ele>1328</ele>
        <time>2020-05-22T10:12:14.857Z</time>
      </trkpt>
      <trkpt lat="44.854" lon="5.40243">
        <ele>1328</ele>
        <time>2020-05-22T10:12:15.857Z</time>
      </trkpt>
      <trkpt lat="44.85401" lon="5.40242">
        <ele>1328</ele>
        <time>2020-05-22T10:12:16.857Z</time>
      </trkpt>
      <trkpt lat="44.85402" lon="5.40242">
        <ele>1328</ele>
        <time>2020-05-22T10:12:17.857Z</time>
      </trkpt>
      <trkpt lat="44.85404" lon="5.40242">
        <ele>1329</ele>
        <time>2020-05-22T10:12:18.857Z</time>
      </trkpt>
      <trkpt lat="44.85405" lon="5.40242">
        <ele>1329</ele>
        <time>2020-05-22T10:12:19.857Z</time>
      </trkpt>
      <trkpt lat="44.85407" lon="5.40242">
        <ele>1330</ele>
        <time>2020-05-22T10:12:20.856Z</time>
      </trkpt>
      <trkpt lat="44.85408" lon="5.40242">
        <ele>1330</ele>
        <time>2020-05-22T10:12:21.856Z</time>
      </trkpt>
      <trkpt lat="44.8541" lon="5.40242">
        <ele>1329</ele>
        <time>2020-05-22T10:12:22.857Z</time>
      </trkpt>
      <trkpt lat="44.85411" lon="5.40242">
        <ele>1329</ele>
        <time>2020-05-22T10:12:23.856Z</time>
      </trkpt>
      <trkpt lat="44.85412" lon="5.40242">
        <ele>1328</ele>
        <time>2020-05-22T10:12:24.857Z</time>
      </trkpt>
      <trkpt lat="44.85414" lon="5.40242">
        <ele>1328</ele>
        <time>2020-05-22T10:12:25.857Z</time>
      </trkpt>
      <trkpt lat="44.85416" lon="5.40241">
        <ele>1328</ele>
        <time>2020-05-22T10:12:26.856Z</time>
      </trkpt>
      <trkpt lat="44.85417" lon="5.40241">
        <ele>1327</ele>
        <time>2020-05-22T10:12:27.856Z</time>
      </trkpt>
      <trkpt lat="44.85419" lon="5.40241">
        <ele>1327</ele>
        <time>2020-05-22T10:12:28.856Z</time>
      </trkpt>
      <trkpt lat="44.8542" lon="5.40241">
        <ele>1327</ele>
        <time>2020-05-22T10:12:29.857Z</time>
      </trkpt>
      <trkpt lat="44.85421" lon="5.40241">
        <ele>1327</ele>
        <time>2020-05-22T10:12:30.857Z</time>
      </trkpt>
      <trkpt lat="44.85422" lon="5.40241">
        <ele>1327</ele>
        <time>2020-05-22T10:12:31.857Z</time>
      </trkpt>
      <trkpt lat="44.85422" lon="5.40241">
        <ele>1327</ele>
        <time>2020-05-22T10:12:32.856Z</time>
      </trkpt>
      <trkpt lat="44.85423" lon="5.40238">
        <ele>1334</ele>
        <time>2020-05-22T10:12:33.858Z</time>
      </trkpt>
      <trkpt lat="44.85423" lon="5.40238">
        <ele>1334</ele>
        <time>2020-05-22T10:12:34.858Z</time>
      </trkpt>
      <trkpt lat="44.85424" lon="5.40238">
        <ele>1334</ele>
        <time>2020-05-22T10:12:35.857Z</time>
      </trkpt>
      <trkpt lat="44.85424" lon="5.40238">
        <ele>1334</ele>
        <time>2020-05-22T10:12:36.857Z</time>
      </trkpt>
      <trkpt lat="44.85424" lon="5.40237">
        <ele>1334</ele>
        <time>2020-05-22T10:12:37.857Z</time>
      </trkpt>
      <trkpt lat="44.85424" lon="5.40237">
        <ele>1334</ele>
        <time>2020-05-22T10:12:38.858Z</time>
      </trkpt>
      <trkpt lat="44.85424" lon="5.40237">
        <ele>1334</ele>
        <time>2020-05-22T10:12:39.857Z</time>
      </trkpt>
      <trkpt lat="44.85428" lon="5.40238">
        <ele>1334</ele>
        <time>2020-05-22T10:12:40.857Z</time>
      </trkpt>
      <trkpt lat="44.85431" lon="5.40238">
        <ele>1334</ele>
        <time>2020-05-22T10:12:41.857Z</time>
      </trkpt>
      <trkpt lat="44.85436" lon="5.40238">
        <ele>1334</ele>
        <time>2020-05-22T10:12:42.858Z</time>
      </trkpt>
      <trkpt lat="44.8544" lon="5.40238">
        <ele>1334</ele>
        <time>2020-05-22T10:12:43.858Z</time>
      </trkpt>
      <trkpt lat="44.85445" lon="5.40237">
        <ele>1334</ele>
        <time>2020-05-22T10:12:44.858Z</time>
      </trkpt>
      <trkpt lat="44.85451" lon="5.40234">
        <ele>1334</ele>
        <time>2020-05-22T10:12:45.858Z</time>
      </trkpt>
      <trkpt lat="44.85456" lon="5.40232">
        <ele>1334</ele>
        <time>2020-05-22T10:12:46.857Z</time>
      </trkpt>
      <trkpt lat="44.85461" lon="5.40229">
        <ele>1334</ele>
        <time>2020-05-22T10:12:47.857Z</time>
      </trkpt>
      <trkpt lat="44.85467" lon="5.40225">
        <ele>1334</ele>
        <time>2020-05-22T10:12:48.858Z</time>
      </trkpt>
      <trkpt lat="44.85473" lon="5.40221">
        <ele>1334</ele>
        <time>2020-05-22T10:12:49.858Z</time>
      </trkpt>
      <trkpt lat="44.85481" lon="5.40217">
        <ele>1334</ele>
        <time>2020-05-22T10:12:50.857Z</time>
      </trkpt>
      <trkpt lat="44.85487" lon="5.40214">
        <ele>1333</ele>
        <time>2020-05-22T10:12:51.858Z</time>
      </trkpt>
      <trkpt lat="44.85494" lon="5.4021">
        <ele>1333</ele>
        <time>2020-05-22T10:12:52.857Z</time>
      </trkpt>
      <trkpt lat="44.85499" lon="5.40206">
        <ele>1333</ele>
        <time>2020-05-22T10:12:53.857Z</time>
      </trkpt>
      <trkpt lat="44.85508" lon="5.40201">
        <ele>1333</ele>
        <time>2020-05-22T10:12:54.858Z</time>
      </trkpt>
      <trkpt lat="44.85513" lon="5.40198">
        <ele>1332</ele>
        <time>2020-05-22T10:12:55.858Z</time>
      </trkpt>
      <trkpt lat="44.8552" lon="5.40193">
        <ele>1332</ele>
        <time>2020-05-22T10:12:56.858Z</time>
      </trkpt>
      <trkpt lat="44.85527" lon="5.40189">
        <ele>1332</ele>
        <time>2020-05-22T10:12:57.858Z</time>
      </trkpt>
      <trkpt lat="44.85536" lon="5.40186">
        <ele>1331</ele>
        <time>2020-05-22T10:12:58.858Z</time>
      </trkpt>
      <trkpt lat="44.85543" lon="5.40182">
        <ele>1331</ele>
        <time>2020-05-22T10:12:59.858Z</time>
      </trkpt>
      <trkpt lat="44.8555" lon="5.40179">
        <ele>1330</ele>
        <time>2020-05-22T10:13:00.857Z</time>
      </trkpt>
      <trkpt lat="44.85557" lon="5.40177">
        <ele>1330</ele>
        <time>2020-05-22T10:13:01.858Z</time>
      </trkpt>
      <trkpt lat="44.85565" lon="5.40177">
        <ele>1330</ele>
        <time>2020-05-22T10:13:02.858Z</time>
      </trkpt>
      <trkpt lat="44.85571" lon="5.40176">
        <ele>1329</ele>
        <time>2020-05-22T10:13:03.858Z</time>
      </trkpt>
      <trkpt lat="44.85577" lon="5.40176">
        <ele>1329</ele>
        <time>2020-05-22T10:13:04.857Z</time>
      </trkpt>
      <trkpt lat="44.85583" lon="5.40175">
        <ele>1328</ele>
        <time>2020-05-22T10:13:05.858Z</time>
      </trkpt>
      <trkpt lat="44.85587" lon="5.40174">
        <ele>1327</ele>
        <time>2020-05-22T10:13:06.858Z</time>
      </trkpt>
      <trkpt lat="44.85593" lon="5.40173">
        <ele>1327</ele>
        <time>2020-05-22T10:13:07.858Z</time>
      </trkpt>
      <trkpt lat="44.85599" lon="5.40174">
        <ele>1326</ele>
        <time>2020-05-22T10:13:08.858Z</time>
      </trkpt>
      <trkpt lat="44.85609" lon="5.40174">
        <ele>1326</ele>
        <time>2020-05-22T10:13:09.858Z</time>
      </trkpt>
      <trkpt lat="44.85615" lon="5.40175">
        <ele>1325</ele>
        <time>2020-05-22T10:13:10.857Z</time>
      </trkpt>
      <trkpt lat="44.85622" lon="5.40174">
        <ele>1325</ele>
        <time>2020-05-22T10:13:11.858Z</time>
      </trkpt>
      <trkpt lat="44.85627" lon="5.40173">
        <ele>1325</ele>
        <time>2020-05-22T10:13:12.858Z</time>
      </trkpt>
      <trkpt lat="44.85635" lon="5.40172">
        <ele>1324</ele>
        <time>2020-05-22T10:13:13.858Z</time>
      </trkpt>
      <trkpt lat="44.85641" lon="5.40173">
        <ele>1324</ele>
        <time>2020-05-22T10:13:14.858Z</time>
      </trkpt>
      <trkpt lat="44.85648" lon="5.40175">
        <ele>1323</ele>
        <time>2020-05-22T10:13:15.857Z</time>
      </trkpt>
      <trkpt lat="44.85653" lon="5.40177">
        <ele>1323</ele>
        <time>2020-05-22T10:13:16.858Z</time>
      </trkpt>
      <trkpt lat="44.85658" lon="5.40178">
        <ele>1322</ele>
        <time>2020-05-22T10:13:17.858Z</time>
      </trkpt>
      <trkpt lat="44.85665" lon="5.40179">
        <ele>1322</ele>
        <time>2020-05-22T10:13:18.858Z</time>
      </trkpt>
      <trkpt lat="44.85669" lon="5.40177">
        <ele>1322</ele>
        <time>2020-05-22T10:13:19.858Z</time>
      </trkpt>
      <trkpt lat="44.85674" lon="5.40177">
        <ele>1322</ele>
        <time>2020-05-22T10:13:20.858Z</time>
      </trkpt>
      <trkpt lat="44.85679" lon="5.40177">
        <ele>1322</ele>
        <time>2020-05-22T10:13:21.858Z</time>
      </trkpt>
      <trkpt lat="44.85683" lon="5.40177">
        <ele>1322</ele>
        <time>2020-05-22T10:13:22.858Z</time>
      </trkpt>
      <trkpt lat="44.85688" lon="5.40178">
        <ele>1322</ele>
        <time>2020-05-22T10:13:23.858Z</time>
      </trkpt>
      <trkpt lat="44.85692" lon="5.40178">
        <ele>1322</ele>
        <time>2020-05-22T10:13:24.857Z</time>
      </trkpt>
      <trkpt lat="44.85697" lon="5.40178">
        <ele>1322</ele>
        <time>2020-05-22T10:13:25.858Z</time>
      </trkpt>
      <trkpt lat="44.85701" lon="5.40178">
        <ele>1322</ele>
        <time>2020-05-22T10:13:26.858Z</time>
      </trkpt>
      <trkpt lat="44.85704" lon="5.40178">
        <ele>1322</ele>
        <time>2020-05-22T10:13:27.858Z</time>
      </trkpt>
      <trkpt lat="44.85707" lon="5.40177">
        <ele>1322</ele>
        <time>2020-05-22T10:13:28.858Z</time>
      </trkpt>
      <trkpt lat="44.8571" lon="5.40176">
        <ele>1321</ele>
        <time>2020-05-22T10:13:29.858Z</time>
      </trkpt>
      <trkpt lat="44.85713" lon="5.40176">
        <ele>1321</ele>
        <time>2020-05-22T10:13:30.858Z</time>
      </trkpt>
      <trkpt lat="44.85715" lon="5.40176">
        <ele>1321</ele>
        <time>2020-05-22T10:13:31.857Z</time>
      </trkpt>
      <trkpt lat="44.85718" lon="5.40175">
        <ele>1321</ele>
        <time>2020-05-22T10:13:32.858Z</time>
      </trkpt>
      <trkpt lat="44.8572" lon="5.40175">
        <ele>1320</ele>
        <time>2020-05-22T10:13:33.858Z</time>
      </trkpt>
      <trkpt lat="44.85723" lon="5.40173">
        <ele>1320</ele>
        <time>2020-05-22T10:13:34.858Z</time>
      </trkpt>
      <trkpt lat="44.85725" lon="5.40172">
        <ele>1320</ele>
        <time>2020-05-22T10:13:35.857Z</time>
      </trkpt>
      <trkpt lat="44.85728" lon="5.40171">
        <ele>1320</ele>
        <time>2020-05-22T10:13:36.858Z</time>
      </trkpt>
      <trkpt lat="44.8573" lon="5.40171">
        <ele>1320</ele>
        <time>2020-05-22T10:13:37.858Z</time>
      </trkpt>
      <trkpt lat="44.85733" lon="5.40171">
        <ele>1319</ele>
        <time>2020-05-22T10:13:38.858Z</time>
      </trkpt>
      <trkpt lat="44.85735" lon="5.40171">
        <ele>1320</ele>
        <time>2020-05-22T10:13:39.858Z</time>
      </trkpt>
      <trkpt lat="44.85738" lon="5.4017">
        <ele>1320</ele>
        <time>2020-05-22T10:13:40.858Z</time>
      </trkpt>
      <trkpt lat="44.8574" lon="5.4017">
        <ele>1320</ele>
        <time>2020-05-22T10:13:41.858Z</time>
      </trkpt>
      <trkpt lat="44.85741" lon="5.40171">
        <ele>1320</ele>
        <time>2020-05-22T10:13:42.858Z</time>
      </trkpt>
      <trkpt lat="44.85744" lon="5.4017">
        <ele>1320</ele>
        <time>2020-05-22T10:13:43.858Z</time>
      </trkpt>
      <trkpt lat="44.85746" lon="5.4017">
        <ele>1320</ele>
        <time>2020-05-22T10:13:44.857Z</time>
      </trkpt>
      <trkpt lat="44.85749" lon="5.4017">
        <ele>1320</ele>
        <time>2020-05-22T10:13:45.858Z</time>
      </trkpt>
      <trkpt lat="44.85752" lon="5.4017">
        <ele>1320</ele>
        <time>2020-05-22T10:13:46.858Z</time>
      </trkpt>
      <trkpt lat="44.85756" lon="5.4017">
        <ele>1319</ele>
        <time>2020-05-22T10:13:47.858Z</time>
      </trkpt>
      <trkpt lat="44.8576" lon="5.4017">
        <ele>1319</ele>
        <time>2020-05-22T10:13:48.858Z</time>
      </trkpt>
      <trkpt lat="44.85765" lon="5.40171">
        <ele>1319</ele>
        <time>2020-05-22T10:13:49.858Z</time>
      </trkpt>
      <trkpt lat="44.8577" lon="5.40171">
        <ele>1319</ele>
        <time>2020-05-22T10:13:50.858Z</time>
      </trkpt>
      <trkpt lat="44.85774" lon="5.40171">
        <ele>1319</ele>
        <time>2020-05-22T10:13:51.858Z</time>
      </trkpt>
      <trkpt lat="44.85777" lon="5.4017">
        <ele>1319</ele>
        <time>2020-05-22T10:13:52.858Z</time>
      </trkpt>
      <trkpt lat="44.85781" lon="5.4017">
        <ele>1320</ele>
        <time>2020-05-22T10:13:53.858Z</time>
      </trkpt>
      <trkpt lat="44.85785" lon="5.4017">
        <ele>1320</ele>
        <time>2020-05-22T10:13:54.857Z</time>
      </trkpt>
      <trkpt lat="44.85788" lon="5.4017">
        <ele>1320</ele>
        <time>2020-05-22T10:13:55.858Z</time>
      </trkpt>
      <trkpt lat="44.85792" lon="5.40169">
        <ele>1321</ele>
        <time>2020-05-22T10:13:56.858Z</time>
      </trkpt>
      <trkpt lat="44.85796" lon="5.4017">
        <ele>1321</ele>
        <time>2020-05-22T10:13:57.858Z</time>
      </trkpt>
      <trkpt lat="44.85798" lon="5.40171">
        <ele>1322</ele>
        <time>2020-05-22T10:13:58.858Z</time>
      </trkpt>
      <trkpt lat="44.85801" lon="5.40173">
        <ele>1322</ele>
        <time>2020-05-22T10:13:59.858Z</time>
      </trkpt>
      <trkpt lat="44.85804" lon="5.40174">
        <ele>1323</ele>
        <time>2020-05-22T10:14:00.858Z</time>
      </trkpt>
      <trkpt lat="44.85808" lon="5.40175">
        <ele>1324</ele>
        <time>2020-05-22T10:14:01.858Z</time>
      </trkpt>
      <trkpt lat="44.85811" lon="5.40175">
        <ele>1324</ele>
        <time>2020-05-22T10:14:02.858Z</time>
      </trkpt>
      <trkpt lat="44.85814" lon="5.40174">
        <ele>1325</ele>
        <time>2020-05-22T10:14:03.858Z</time>
      </trkpt>
      <trkpt lat="44.85816" lon="5.40174">
        <ele>1326</ele>
        <time>2020-05-22T10:14:04.858Z</time>
      </trkpt>
      <trkpt lat="44.85818" lon="5.40174">
        <ele>1326</ele>
        <time>2020-05-22T10:14:05.858Z</time>
      </trkpt>
      <trkpt lat="44.85818" lon="5.40174">
        <ele>1326</ele>
        <time>2020-05-22T10:14:06.858Z</time>
      </trkpt>
      <trkpt lat="44.85819" lon="5.40175">
        <ele>1326</ele>
        <time>2020-05-22T10:14:07.858Z</time>
      </trkpt>
      <trkpt lat="44.8582" lon="5.40176">
        <ele>1326</ele>
        <time>2020-05-22T10:14:08.857Z</time>
      </trkpt>
      <trkpt lat="44.85822" lon="5.40177">
        <ele>1326</ele>
        <time>2020-05-22T10:14:09.858Z</time>
      </trkpt>
      <trkpt lat="44.85823" lon="5.40177">
        <ele>1327</ele>
        <time>2020-05-22T10:14:10.858Z</time>
      </trkpt>
      <trkpt lat="44.85826" lon="5.40178">
        <ele>1327</ele>
        <time>2020-05-22T10:14:11.858Z</time>
      </trkpt>
      <trkpt lat="44.85828" lon="5.40178">
        <ele>1327</ele>
        <time>2020-05-22T10:14:12.858Z</time>
      </trkpt>
      <trkpt lat="44.85831" lon="5.40179">
        <ele>1328</ele>
        <time>2020-05-22T10:14:13.857Z</time>
      </trkpt>
      <trkpt lat="44.85833" lon="5.4018">
        <ele>1328</ele>
        <time>2020-05-22T10:14:14.857Z</time>
      </trkpt>
      <trkpt lat="44.85835" lon="5.4018">
        <ele>1329</ele>
        <time>2020-05-22T10:14:15.857Z</time>
      </trkpt>
      <trkpt lat="44.85837" lon="5.40181">
        <ele>1329</ele>
        <time>2020-05-22T10:14:16.858Z</time>
      </trkpt>
      <trkpt lat="44.85839" lon="5.40182">
        <ele>1329</ele>
        <time>2020-05-22T10:14:17.857Z</time>
      </trkpt>
      <trkpt lat="44.85841" lon="5.40182">
        <ele>1330</ele>
        <time>2020-05-22T10:14:18.858Z</time>
      </trkpt>
      <trkpt lat="44.85842" lon="5.40183">
        <ele>1330</ele>
        <time>2020-05-22T10:14:19.858Z</time>
      </trkpt>
      <trkpt lat="44.85844" lon="5.40183">
        <ele>1330</ele>
        <time>2020-05-22T10:14:20.858Z</time>
      </trkpt>
      <trkpt lat="44.85847" lon="5.40184">
        <ele>1331</ele>
        <time>2020-05-22T10:14:21.858Z</time>
      </trkpt>
      <trkpt lat="44.85848" lon="5.40185">
        <ele>1331</ele>
        <time>2020-05-22T10:14:22.858Z</time>
      </trkpt>
      <trkpt lat="44.85851" lon="5.40186">
        <ele>1332</ele>
        <time>2020-05-22T10:14:23.858Z</time>
      </trkpt>
      <trkpt lat="44.85852" lon="5.40187">
        <ele>1332</ele>
        <time>2020-05-22T10:14:24.858Z</time>
      </trkpt>
      <trkpt lat="44.85854" lon="5.40189">
        <ele>1333</ele>
        <time>2020-05-22T10:14:25.858Z</time>
      </trkpt>
      <trkpt lat="44.85856" lon="5.4019">
        <ele>1333</ele>
        <time>2020-05-22T10:14:26.857Z</time>
      </trkpt>
      <trkpt lat="44.85858" lon="5.4019">
        <ele>1334</ele>
        <time>2020-05-22T10:14:27.858Z</time>
      </trkpt>
      <trkpt lat="44.85859" lon="5.40191">
        <ele>1334</ele>
        <time>2020-05-22T10:14:28.858Z</time>
      </trkpt>
      <trkpt lat="44.85861" lon="5.40192">
        <ele>1334</ele>
        <time>2020-05-22T10:14:29.858Z</time>
      </trkpt>
      <trkpt lat="44.85862" lon="5.40193">
        <ele>1333</ele>
        <time>2020-05-22T10:14:30.858Z</time>
      </trkpt>
      <trkpt lat="44.85863" lon="5.40194">
        <ele>1333</ele>
        <time>2020-05-22T10:14:31.858Z</time>
      </trkpt>
      <trkpt lat="44.85865" lon="5.40195">
        <ele>1333</ele>
        <time>2020-05-22T10:14:32.858Z</time>
      </trkpt>
      <trkpt lat="44.85866" lon="5.40196">
        <ele>1333</ele>
        <time>2020-05-22T10:14:33.857Z</time>
      </trkpt>
      <trkpt lat="44.85869" lon="5.40197">
        <ele>1333</ele>
        <time>2020-05-22T10:14:34.858Z</time>
      </trkpt>
      <trkpt lat="44.8587" lon="5.40199">
        <ele>1334</ele>
        <time>2020-05-22T10:14:35.858Z</time>
      </trkpt>
      <trkpt lat="44.85872" lon="5.402">
        <ele>1334</ele>
        <time>2020-05-22T10:14:36.858Z</time>
      </trkpt>
      <trkpt lat="44.85874" lon="5.40201">
        <ele>1335</ele>
        <time>2020-05-22T10:14:37.858Z</time>
      </trkpt>
      <trkpt lat="44.85877" lon="5.40202">
        <ele>1335</ele>
        <time>2020-05-22T10:14:38.857Z</time>
      </trkpt>
      <trkpt lat="44.85878" lon="5.40203">
        <ele>1336</ele>
        <time>2020-05-22T10:14:39.858Z</time>
      </trkpt>
      <trkpt lat="44.85879" lon="5.40204">
        <ele>1336</ele>
        <time>2020-05-22T10:14:40.858Z</time>
      </trkpt>
      <trkpt lat="44.85881" lon="5.40205">
        <ele>1336</ele>
        <time>2020-05-22T10:14:41.858Z</time>
      </trkpt>
      <trkpt lat="44.85882" lon="5.40205">
        <ele>1336</ele>
        <time>2020-05-22T10:14:42.858Z</time>
      </trkpt>
      <trkpt lat="44.85884" lon="5.40206">
        <ele>1336</ele>
        <time>2020-05-22T10:14:43.858Z</time>
      </trkpt>
      <trkpt lat="44.85885" lon="5.40207">
        <ele>1336</ele>
        <time>2020-05-22T10:14:44.858Z</time>
      </trkpt>
      <trkpt lat="44.85887" lon="5.40208">
        <ele>1336</ele>
        <time>2020-05-22T10:14:45.858Z</time>
      </trkpt>
      <trkpt lat="44.85888" lon="5.40208">
        <ele>1336</ele>
        <time>2020-05-22T10:14:46.857Z</time>
      </trkpt>
      <trkpt lat="44.8589" lon="5.40208">
        <ele>1335</ele>
        <time>2020-05-22T10:14:47.858Z</time>
      </trkpt>
      <trkpt lat="44.85892" lon="5.40209">
        <ele>1336</ele>
        <time>2020-05-22T10:14:48.857Z</time>
      </trkpt>
      <trkpt lat="44.85894" lon="5.40209">
        <ele>1336</ele>
        <time>2020-05-22T10:14:49.857Z</time>
      </trkpt>
      <trkpt lat="44.85896" lon="5.4021">
        <ele>1336</ele>
        <time>2020-05-22T10:14:50.857Z</time>
      </trkpt>
      <trkpt lat="44.85898" lon="5.40211">
        <ele>1337</ele>
        <time>2020-05-22T10:14:51.858Z</time>
      </trkpt>
      <trkpt lat="44.85899" lon="5.40211">
        <ele>1337</ele>
        <time>2020-05-22T10:14:52.857Z</time>
      </trkpt>
      <trkpt lat="44.85901" lon="5.40212">
        <ele>1337</ele>
        <time>2020-05-22T10:14:53.857Z</time>
      </trkpt>
      <trkpt lat="44.85903" lon="5.40212">
        <ele>1338</ele>
        <time>2020-05-22T10:14:54.858Z</time>
      </trkpt>
      <trkpt lat="44.85904" lon="5.40212">
        <ele>1337</ele>
        <time>2020-05-22T10:14:55.858Z</time>
      </trkpt>
      <trkpt lat="44.85906" lon="5.40213">
        <ele>1337</ele>
        <time>2020-05-22T10:14:56.858Z</time>
      </trkpt>
      <trkpt lat="44.85908" lon="5.40213">
        <ele>1337</ele>
        <time>2020-05-22T10:14:57.857Z</time>
      </trkpt>
      <trkpt lat="44.85909" lon="5.40214">
        <ele>1337</ele>
        <time>2020-05-22T10:14:58.858Z</time>
      </trkpt>
      <trkpt lat="44.85912" lon="5.40214">
        <ele>1337</ele>
        <time>2020-05-22T10:14:59.857Z</time>
      </trkpt>
      <trkpt lat="44.85914" lon="5.40215">
        <ele>1337</ele>
        <time>2020-05-22T10:15:00.858Z</time>
      </trkpt>
      <trkpt lat="44.85917" lon="5.40215">
        <ele>1338</ele>
        <time>2020-05-22T10:15:01.858Z</time>
      </trkpt>
      <trkpt lat="44.85918" lon="5.40215">
        <ele>1339</ele>
        <time>2020-05-22T10:15:02.858Z</time>
      </trkpt>
      <trkpt lat="44.8592" lon="5.40214">
        <ele>1339</ele>
        <time>2020-05-22T10:15:03.858Z</time>
      </trkpt>
      <trkpt lat="44.85922" lon="5.40213">
        <ele>1339</ele>
        <time>2020-05-22T10:15:04.858Z</time>
      </trkpt>
      <trkpt lat="44.85924" lon="5.40211">
        <ele>1340</ele>
        <time>2020-05-22T10:15:05.857Z</time>
      </trkpt>
      <trkpt lat="44.85926" lon="5.40211">
        <ele>1341</ele>
        <time>2020-05-22T10:15:06.858Z</time>
      </trkpt>
      <trkpt lat="44.85927" lon="5.40211">
        <ele>1341</ele>
        <time>2020-05-22T10:15:07.858Z</time>
      </trkpt>
      <trkpt lat="44.85929" lon="5.40213">
        <ele>1341</ele>
        <time>2020-05-22T10:15:08.858Z</time>
      </trkpt>
      <trkpt lat="44.8593" lon="5.40214">
        <ele>1341</ele>
        <time>2020-05-22T10:15:09.858Z</time>
      </trkpt>
      <trkpt lat="44.85932" lon="5.40214">
        <ele>1341</ele>
        <time>2020-05-22T10:15:10.858Z</time>
      </trkpt>
      <trkpt lat="44.85933" lon="5.40216">
        <ele>1340</ele>
        <time>2020-05-22T10:15:11.858Z</time>
      </trkpt>
      <trkpt lat="44.85933" lon="5.40217">
        <ele>1340</ele>
        <time>2020-05-22T10:15:12.858Z</time>
      </trkpt>
      <trkpt lat="44.85935" lon="5.40219">
        <ele>1340</ele>
        <time>2020-05-22T10:15:13.858Z</time>
      </trkpt>
      <trkpt lat="44.85936" lon="5.4022">
        <ele>1340</ele>
        <time>2020-05-22T10:15:14.858Z</time>
      </trkpt>
      <trkpt lat="44.85938" lon="5.40222">
        <ele>1340</ele>
        <time>2020-05-22T10:15:15.858Z</time>
      </trkpt>
      <trkpt lat="44.85939" lon="5.40223">
        <ele>1340</ele>
        <time>2020-05-22T10:15:16.858Z</time>
      </trkpt>
      <trkpt lat="44.8594" lon="5.40224">
        <ele>1339</ele>
        <time>2020-05-22T10:15:17.858Z</time>
      </trkpt>
      <trkpt lat="44.85942" lon="5.40225">
        <ele>1339</ele>
        <time>2020-05-22T10:15:18.857Z</time>
      </trkpt>
      <trkpt lat="44.85943" lon="5.40226">
        <ele>1339</ele>
        <time>2020-05-22T10:15:19.858Z</time>
      </trkpt>
      <trkpt lat="44.85944" lon="5.40227">
        <ele>1339</ele>
        <time>2020-05-22T10:15:20.858Z</time>
      </trkpt>
      <trkpt lat="44.85945" lon="5.40228">
        <ele>1340</ele>
        <time>2020-05-22T10:15:21.858Z</time>
      </trkpt>
      <trkpt lat="44.85946" lon="5.40229">
        <ele>1340</ele>
        <time>2020-05-22T10:15:22.858Z</time>
      </trkpt>
      <trkpt lat="44.85947" lon="5.4023">
        <ele>1340</ele>
        <time>2020-05-22T10:15:23.858Z</time>
      </trkpt>
      <trkpt lat="44.85948" lon="5.40231">
        <ele>1341</ele>
        <time>2020-05-22T10:15:24.858Z</time>
      </trkpt>
      <trkpt lat="44.85949" lon="5.40232">
        <ele>1341</ele>
        <time>2020-05-22T10:15:25.858Z</time>
      </trkpt>
      <trkpt lat="44.85951" lon="5.40233">
        <ele>1342</ele>
        <time>2020-05-22T10:15:26.857Z</time>
      </trkpt>
      <trkpt lat="44.85952" lon="5.40233">
        <ele>1342</ele>
        <time>2020-05-22T10:15:27.858Z</time>
      </trkpt>
      <trkpt lat="44.85954" lon="5.40234">
        <ele>1343</ele>
        <time>2020-05-22T10:15:28.858Z</time>
      </trkpt>
      <trkpt lat="44.85956" lon="5.40235">
        <ele>1343</ele>
        <time>2020-05-22T10:15:29.858Z</time>
      </trkpt>
      <trkpt lat="44.85957" lon="5.40235">
        <ele>1344</ele>
        <time>2020-05-22T10:15:30.857Z</time>
      </trkpt>
      <trkpt lat="44.85959" lon="5.40236">
        <ele>1344</ele>
        <time>2020-05-22T10:15:31.858Z</time>
      </trkpt>
      <trkpt lat="44.85961" lon="5.40236">
        <ele>1344</ele>
        <time>2020-05-22T10:15:32.858Z</time>
      </trkpt>
      <trkpt lat="44.85964" lon="5.40236">
        <ele>1344</ele>
        <time>2020-05-22T10:15:33.858Z</time>
      </trkpt>
      <trkpt lat="44.85966" lon="5.40235">
        <ele>1344</ele>
        <time>2020-05-22T10:15:34.858Z</time>
      </trkpt>
      <trkpt lat="44.85968" lon="5.40235">
        <ele>1344</ele>
        <time>2020-05-22T10:15:35.858Z</time>
      </trkpt>
      <trkpt lat="44.8597" lon="5.40236">
        <ele>1344</ele>
        <time>2020-05-22T10:15:36.858Z</time>
      </trkpt>
      <trkpt lat="44.85972" lon="5.40236">
        <ele>1345</ele>
        <time>2020-05-22T10:15:37.858Z</time>
      </trkpt>
      <trkpt lat="44.85975" lon="5.40237">
        <ele>1345</ele>
        <time>2020-05-22T10:15:38.858Z</time>
      </trkpt>
      <trkpt lat="44.85977" lon="5.40237">
        <ele>1345</ele>
        <time>2020-05-22T10:15:39.858Z</time>
      </trkpt>
      <trkpt lat="44.85978" lon="5.40237">
        <ele>1345</ele>
        <time>2020-05-22T10:15:40.857Z</time>
      </trkpt>
      <trkpt lat="44.85979" lon="5.40237">
        <ele>1345</ele>
        <time>2020-05-22T10:15:41.858Z</time>
      </trkpt>
      <trkpt lat="44.85981" lon="5.40238">
        <ele>1345</ele>
        <time>2020-05-22T10:15:42.858Z</time>
      </trkpt>
      <trkpt lat="44.85982" lon="5.40238">
        <ele>1344</ele>
        <time>2020-05-22T10:15:43.858Z</time>
      </trkpt>
      <trkpt lat="44.85984" lon="5.40238">
        <ele>1344</ele>
        <time>2020-05-22T10:15:44.857Z</time>
      </trkpt>
      <trkpt lat="44.85985" lon="5.40239">
        <ele>1344</ele>
        <time>2020-05-22T10:15:45.858Z</time>
      </trkpt>
      <trkpt lat="44.85987" lon="5.40239">
        <ele>1343</ele>
        <time>2020-05-22T10:15:46.858Z</time>
      </trkpt>
      <trkpt lat="44.85989" lon="5.4024">
        <ele>1343</ele>
        <time>2020-05-22T10:15:47.858Z</time>
      </trkpt>
      <trkpt lat="44.85991" lon="5.40241">
        <ele>1343</ele>
        <time>2020-05-22T10:15:48.858Z</time>
      </trkpt>
      <trkpt lat="44.85993" lon="5.40242">
        <ele>1343</ele>
        <time>2020-05-22T10:15:49.858Z</time>
      </trkpt>
      <trkpt lat="44.85994" lon="5.40243">
        <ele>1342</ele>
        <time>2020-05-22T10:15:50.858Z</time>
      </trkpt>
      <trkpt lat="44.85995" lon="5.40243">
        <ele>1343</ele>
        <time>2020-05-22T10:15:51.858Z</time>
      </trkpt>
      <trkpt lat="44.85995" lon="5.40242">
        <ele>1342</ele>
        <time>2020-05-22T10:15:52.858Z</time>
      </trkpt>
      <trkpt lat="44.85995" lon="5.40242">
        <ele>1342</ele>
        <time>2020-05-22T10:15:53.858Z</time>
      </trkpt>
      <trkpt lat="44.85995" lon="5.40243">
        <ele>1342</ele>
        <time>2020-05-22T10:15:54.858Z</time>
      </trkpt>
      <trkpt lat="44.85995" lon="5.40242">
        <ele>1342</ele>
        <time>2020-05-22T10:15:55.858Z</time>
      </trkpt>
      <trkpt lat="44.86001" lon="5.40246">
        <ele>1348</ele>
        <time>2020-05-22T10:15:56.857Z</time>
      </trkpt>
      <trkpt lat="44.86003" lon="5.40247">
        <ele>1348</ele>
        <time>2020-05-22T10:15:57.858Z</time>
      </trkpt>
      <trkpt lat="44.86005" lon="5.40248">
        <ele>1347</ele>
        <time>2020-05-22T10:15:58.858Z</time>
      </trkpt>
      <trkpt lat="44.86007" lon="5.40248">
        <ele>1347</ele>
        <time>2020-05-22T10:15:59.858Z</time>
      </trkpt>
      <trkpt lat="44.8601" lon="5.40249">
        <ele>1347</ele>
        <time>2020-05-22T10:16:00.858Z</time>
      </trkpt>
      <trkpt lat="44.86013" lon="5.40249">
        <ele>1347</ele>
        <time>2020-05-22T10:16:01.858Z</time>
      </trkpt>
      <trkpt lat="44.86017" lon="5.40251">
        <ele>1347</ele>
        <time>2020-05-22T10:16:02.858Z</time>
      </trkpt>
      <trkpt lat="44.8602" lon="5.40252">
        <ele>1347</ele>
        <time>2020-05-22T10:16:03.858Z</time>
      </trkpt>
      <trkpt lat="44.86022" lon="5.40254">
        <ele>1346</ele>
        <time>2020-05-22T10:16:04.857Z</time>
      </trkpt>
      <trkpt lat="44.86024" lon="5.40254">
        <ele>1346</ele>
        <time>2020-05-22T10:16:05.858Z</time>
      </trkpt>
      <trkpt lat="44.86026" lon="5.40255">
        <ele>1346</ele>
        <time>2020-05-22T10:16:06.857Z</time>
      </trkpt>
      <trkpt lat="44.86028" lon="5.40256">
        <ele>1345</ele>
        <time>2020-05-22T10:16:07.858Z</time>
      </trkpt>
      <trkpt lat="44.86029" lon="5.40257">
        <ele>1345</ele>
        <time>2020-05-22T10:16:08.858Z</time>
      </trkpt>
      <trkpt lat="44.86031" lon="5.40258">
        <ele>1344</ele>
        <time>2020-05-22T10:16:09.858Z</time>
      </trkpt>
      <trkpt lat="44.86032" lon="5.40258">
        <ele>1344</ele>
        <time>2020-05-22T10:16:10.858Z</time>
      </trkpt>
      <trkpt lat="44.86034" lon="5.40259">
        <ele>1343</ele>
        <time>2020-05-22T10:16:11.858Z</time>
      </trkpt>
      <trkpt lat="44.86036" lon="5.4026">
        <ele>1342</ele>
        <time>2020-05-22T10:16:12.857Z</time>
      </trkpt>
      <trkpt lat="44.86039" lon="5.40261">
        <ele>1342</ele>
        <time>2020-05-22T10:16:13.858Z</time>
      </trkpt>
      <trkpt lat="44.86042" lon="5.40262">
        <ele>1341</ele>
        <time>2020-05-22T10:16:14.858Z</time>
      </trkpt>
      <trkpt lat="44.86045" lon="5.40263">
        <ele>1341</ele>
        <time>2020-05-22T10:16:15.858Z</time>
      </trkpt>
      <trkpt lat="44.86049" lon="5.40267">
        <ele>1341</ele>
        <time>2020-05-22T10:16:16.858Z</time>
      </trkpt>
      <trkpt lat="44.86054" lon="5.4027">
        <ele>1341</ele>
        <time>2020-05-22T10:16:17.857Z</time>
      </trkpt>
      <trkpt lat="44.86058" lon="5.40272">
        <ele>1341</ele>
        <time>2020-05-22T10:16:18.858Z</time>
      </trkpt>
      <trkpt lat="44.86062" lon="5.40274">
        <ele>1341</ele>
        <time>2020-05-22T10:16:19.858Z</time>
      </trkpt>
      <trkpt lat="44.86066" lon="5.40276">
        <ele>1341</ele>
        <time>2020-05-22T10:16:20.858Z</time>
      </trkpt>
      <trkpt lat="44.8607" lon="5.40278">
        <ele>1341</ele>
        <time>2020-05-22T10:16:21.858Z</time>
      </trkpt>
      <trkpt lat="44.86074" lon="5.40281">
        <ele>1341</ele>
        <time>2020-05-22T10:16:22.858Z</time>
      </trkpt>
      <trkpt lat="44.86078" lon="5.40283">
        <ele>1340</ele>
        <time>2020-05-22T10:16:23.858Z</time>
      </trkpt>
      <trkpt lat="44.86083" lon="5.40286">
        <ele>1340</ele>
        <time>2020-05-22T10:16:24.858Z</time>
      </trkpt>
      <trkpt lat="44.86087" lon="5.40289">
        <ele>1339</ele>
        <time>2020-05-22T10:16:25.858Z</time>
      </trkpt>
      <trkpt lat="44.86091" lon="5.40293">
        <ele>1338</ele>
        <time>2020-05-22T10:16:26.858Z</time>
      </trkpt>
      <trkpt lat="44.86096" lon="5.40298">
        <ele>1337</ele>
        <time>2020-05-22T10:16:27.858Z</time>
      </trkpt>
      <trkpt lat="44.86101" lon="5.40302">
        <ele>1336</ele>
        <time>2020-05-22T10:16:28.857Z</time>
      </trkpt>
      <trkpt lat="44.86106" lon="5.40306">
        <ele>1335</ele>
        <time>2020-05-22T10:16:29.858Z</time>
      </trkpt>
      <trkpt lat="44.86112" lon="5.4031">
        <ele>1334</ele>
        <time>2020-05-22T10:16:30.858Z</time>
      </trkpt>
      <trkpt lat="44.86117" lon="5.40315">
        <ele>1333</ele>
        <time>2020-05-22T10:16:31.858Z</time>
      </trkpt>
      <trkpt lat="44.86122" lon="5.40319">
        <ele>1333</ele>
        <time>2020-05-22T10:16:32.858Z</time>
      </trkpt>
      <trkpt lat="44.86127" lon="5.40322">
        <ele>1333</ele>
        <time>2020-05-22T10:16:33.858Z</time>
      </trkpt>
      <trkpt lat="44.86131" lon="5.40324">
        <ele>1332</ele>
        <time>2020-05-22T10:16:34.858Z</time>
      </trkpt>
      <trkpt lat="44.86135" lon="5.40325">
        <ele>1332</ele>
        <time>2020-05-22T10:16:35.857Z</time>
      </trkpt>
      <trkpt lat="44.86139" lon="5.40327">
        <ele>1331</ele>
        <time>2020-05-22T10:16:36.857Z</time>
      </trkpt>
      <trkpt lat="44.86143" lon="5.40329">
        <ele>1331</ele>
        <time>2020-05-22T10:16:37.858Z</time>
      </trkpt>
      <trkpt lat="44.86147" lon="5.4033">
        <ele>1330</ele>
        <time>2020-05-22T10:16:38.858Z</time>
      </trkpt>
      <trkpt lat="44.86152" lon="5.40332">
        <ele>1330</ele>
        <time>2020-05-22T10:16:39.858Z</time>
      </trkpt>
      <trkpt lat="44.86156" lon="5.40333">
        <ele>1330</ele>
        <time>2020-05-22T10:16:40.857Z</time>
      </trkpt>
      <trkpt lat="44.86159" lon="5.40334">
        <ele>1329</ele>
        <time>2020-05-22T10:16:41.858Z</time>
      </trkpt>
      <trkpt lat="44.86162" lon="5.40334">
        <ele>1329</ele>
        <time>2020-05-22T10:16:42.858Z</time>
      </trkpt>
      <trkpt lat="44.86167" lon="5.40336">
        <ele>1329</ele>
        <time>2020-05-22T10:16:43.858Z</time>
      </trkpt>
      <trkpt lat="44.8617" lon="5.40338">
        <ele>1329</ele>
        <time>2020-05-22T10:16:44.858Z</time>
      </trkpt>
      <trkpt lat="44.86172" lon="5.40339">
        <ele>1329</ele>
        <time>2020-05-22T10:16:45.858Z</time>
      </trkpt>
      <trkpt lat="44.86175" lon="5.4034">
        <ele>1329</ele>
        <time>2020-05-22T10:16:46.857Z</time>
      </trkpt>
      <trkpt lat="44.86179" lon="5.40341">
        <ele>1329</ele>
        <time>2020-05-22T10:16:47.858Z</time>
      </trkpt>
      <trkpt lat="44.86181" lon="5.40341">
        <ele>1329</ele>
        <time>2020-05-22T10:16:48.858Z</time>
      </trkpt>
      <trkpt lat="44.86184" lon="5.40343">
        <ele>1329</ele>
        <time>2020-05-22T10:16:49.857Z</time>
      </trkpt>
      <trkpt lat="44.86186" lon="5.40344">
        <ele>1329</ele>
        <time>2020-05-22T10:16:50.858Z</time>
      </trkpt>
      <trkpt lat="44.86189" lon="5.40345">
        <ele>1329</ele>
        <time>2020-05-22T10:16:51.857Z</time>
      </trkpt>
      <trkpt lat="44.86192" lon="5.40346">
        <ele>1329</ele>
        <time>2020-05-22T10:16:52.858Z</time>
      </trkpt>
      <trkpt lat="44.86195" lon="5.40347">
        <ele>1329</ele>
        <time>2020-05-22T10:16:53.858Z</time>
      </trkpt>
      <trkpt lat="44.86199" lon="5.40349">
        <ele>1330</ele>
        <time>2020-05-22T10:16:54.858Z</time>
      </trkpt>
      <trkpt lat="44.86203" lon="5.4035">
        <ele>1330</ele>
        <time>2020-05-22T10:16:55.858Z</time>
      </trkpt>
      <trkpt lat="44.86206" lon="5.4035">
        <ele>1331</ele>
        <time>2020-05-22T10:16:56.857Z</time>
      </trkpt>
      <trkpt lat="44.86209" lon="5.4035">
        <ele>1331</ele>
        <time>2020-05-22T10:16:57.858Z</time>
      </trkpt>
      <trkpt lat="44.86212" lon="5.4035">
        <ele>1331</ele>
        <time>2020-05-22T10:16:58.858Z</time>
      </trkpt>
      <trkpt lat="44.86217" lon="5.40351">
        <ele>1331</ele>
        <time>2020-05-22T10:16:59.858Z</time>
      </trkpt>
      <trkpt lat="44.86219" lon="5.40353">
        <ele>1332</ele>
        <time>2020-05-22T10:17:00.858Z</time>
      </trkpt>
      <trkpt lat="44.86222" lon="5.40355">
        <ele>1332</ele>
        <time>2020-05-22T10:17:01.858Z</time>
      </trkpt>
      <trkpt lat="44.86227" lon="5.40358">
        <ele>1332</ele>
        <time>2020-05-22T10:17:02.857Z</time>
      </trkpt>
      <trkpt lat="44.86229" lon="5.40358">
        <ele>1332</ele>
        <time>2020-05-22T10:17:03.858Z</time>
      </trkpt>
      <trkpt lat="44.86234" lon="5.40359">
        <ele>1332</ele>
        <time>2020-05-22T10:17:04.858Z</time>
      </trkpt>
      <trkpt lat="44.86237" lon="5.40362">
        <ele>1332</ele>
        <time>2020-05-22T10:17:05.858Z</time>
      </trkpt>
      <trkpt lat="44.86242" lon="5.40365">
        <ele>1332</ele>
        <time>2020-05-22T10:17:06.858Z</time>
      </trkpt>
      <trkpt lat="44.86246" lon="5.40367">
        <ele>1332</ele>
        <time>2020-05-22T10:17:07.858Z</time>
      </trkpt>
      <trkpt lat="44.86249" lon="5.40369">
        <ele>1332</ele>
        <time>2020-05-22T10:17:08.858Z</time>
      </trkpt>
      <trkpt lat="44.86252" lon="5.40371">
        <ele>1332</ele>
        <time>2020-05-22T10:17:09.858Z</time>
      </trkpt>
      <trkpt lat="44.86255" lon="5.40374">
        <ele>1331</ele>
        <time>2020-05-22T10:17:10.857Z</time>
      </trkpt>
      <trkpt lat="44.86259" lon="5.40374">
        <ele>1331</ele>
        <time>2020-05-22T10:17:11.858Z</time>
      </trkpt>
      <trkpt lat="44.86264" lon="5.40375">
        <ele>1331</ele>
        <time>2020-05-22T10:17:12.857Z</time>
      </trkpt>
      <trkpt lat="44.86268" lon="5.40377">
        <ele>1330</ele>
        <time>2020-05-22T10:17:13.857Z</time>
      </trkpt>
      <trkpt lat="44.86273" lon="5.40379">
        <ele>1330</ele>
        <time>2020-05-22T10:17:14.858Z</time>
      </trkpt>
      <trkpt lat="44.86278" lon="5.4038">
        <ele>1329</ele>
        <time>2020-05-22T10:17:15.858Z</time>
      </trkpt>
      <trkpt lat="44.86282" lon="5.4038">
        <ele>1329</ele>
        <time>2020-05-22T10:17:16.858Z</time>
      </trkpt>
      <trkpt lat="44.86287" lon="5.40381">
        <ele>1329</ele>
        <time>2020-05-22T10:17:17.858Z</time>
      </trkpt>
      <trkpt lat="44.86291" lon="5.40383">
        <ele>1329</ele>
        <time>2020-05-22T10:17:18.857Z</time>
      </trkpt>
      <trkpt lat="44.86298" lon="5.40384">
        <ele>1329</ele>
        <time>2020-05-22T10:17:19.858Z</time>
      </trkpt>
      <trkpt lat="44.86303" lon="5.40384">
        <ele>1328</ele>
        <time>2020-05-22T10:17:20.858Z</time>
      </trkpt>
      <trkpt lat="44.86308" lon="5.40384">
        <ele>1328</ele>
        <time>2020-05-22T10:17:21.858Z</time>
      </trkpt>
      <trkpt lat="44.86313" lon="5.40385">
        <ele>1328</ele>
        <time>2020-05-22T10:17:22.858Z</time>
      </trkpt>
      <trkpt lat="44.86317" lon="5.40386">
        <ele>1328</ele>
        <time>2020-05-22T10:17:23.857Z</time>
      </trkpt>
      <trkpt lat="44.86322" lon="5.40387">
        <ele>1328</ele>
        <time>2020-05-22T10:17:24.858Z</time>
      </trkpt>
      <trkpt lat="44.86327" lon="5.40388">
        <ele>1328</ele>
        <time>2020-05-22T10:17:25.858Z</time>
      </trkpt>
      <trkpt lat="44.86331" lon="5.4039">
        <ele>1329</ele>
        <time>2020-05-22T10:17:26.857Z</time>
      </trkpt>
      <trkpt lat="44.86335" lon="5.40392">
        <ele>1329</ele>
        <time>2020-05-22T10:17:27.858Z</time>
      </trkpt>
      <trkpt lat="44.86339" lon="5.40393">
        <ele>1328</ele>
        <time>2020-05-22T10:17:28.857Z</time>
      </trkpt>
      <trkpt lat="44.86343" lon="5.40396">
        <ele>1328</ele>
        <time>2020-05-22T10:17:29.858Z</time>
      </trkpt>
      <trkpt lat="44.86346" lon="5.40397">
        <ele>1328</ele>
        <time>2020-05-22T10:17:30.858Z</time>
      </trkpt>
      <trkpt lat="44.8635" lon="5.40398">
        <ele>1327</ele>
        <time>2020-05-22T10:17:31.858Z</time>
      </trkpt>
      <trkpt lat="44.86355" lon="5.404">
        <ele>1327</ele>
        <time>2020-05-22T10:17:32.857Z</time>
      </trkpt>
      <trkpt lat="44.86359" lon="5.40401">
        <ele>1327</ele>
        <time>2020-05-22T10:17:33.857Z</time>
      </trkpt>
      <trkpt lat="44.86365" lon="5.40403">
        <ele>1326</ele>
        <time>2020-05-22T10:17:34.857Z</time>
      </trkpt>
      <trkpt lat="44.8637" lon="5.40406">
        <ele>1326</ele>
        <time>2020-05-22T10:17:35.858Z</time>
      </trkpt>
      <trkpt lat="44.86375" lon="5.40407">
        <ele>1326</ele>
        <time>2020-05-22T10:17:36.858Z</time>
      </trkpt>
      <trkpt lat="44.86379" lon="5.40408">
        <ele>1326</ele>
        <time>2020-05-22T10:17:37.858Z</time>
      </trkpt>
      <trkpt lat="44.86384" lon="5.40409">
        <ele>1326</ele>
        <time>2020-05-22T10:17:38.858Z</time>
      </trkpt>
      <trkpt lat="44.86388" lon="5.40409">
        <ele>1326</ele>
        <time>2020-05-22T10:17:39.858Z</time>
      </trkpt>
      <trkpt lat="44.86391" lon="5.4041">
        <ele>1327</ele>
        <time>2020-05-22T10:17:40.858Z</time>
      </trkpt>
      <trkpt lat="44.86397" lon="5.4041">
        <ele>1327</ele>
        <time>2020-05-22T10:17:41.858Z</time>
      </trkpt>
      <trkpt lat="44.86403" lon="5.40411">
        <ele>1327</ele>
        <time>2020-05-22T10:17:42.857Z</time>
      </trkpt>
      <trkpt lat="44.86406" lon="5.40411">
        <ele>1327</ele>
        <time>2020-05-22T10:17:43.857Z</time>
      </trkpt>
      <trkpt lat="44.86411" lon="5.40412">
        <ele>1327</ele>
        <time>2020-05-22T10:17:44.858Z</time>
      </trkpt>
      <trkpt lat="44.86416" lon="5.40412">
        <ele>1327</ele>
        <time>2020-05-22T10:17:45.858Z</time>
      </trkpt>
      <trkpt lat="44.8642" lon="5.40413">
        <ele>1327</ele>
        <time>2020-05-22T10:17:46.858Z</time>
      </trkpt>
      <trkpt lat="44.86424" lon="5.40413">
        <ele>1327</ele>
        <time>2020-05-22T10:17:47.858Z</time>
      </trkpt>
      <trkpt lat="44.86428" lon="5.40412">
        <ele>1327</ele>
        <time>2020-05-22T10:17:48.858Z</time>
      </trkpt>
      <trkpt lat="44.86433" lon="5.40412">
        <ele>1326</ele>
        <time>2020-05-22T10:17:49.857Z</time>
      </trkpt>
      <trkpt lat="44.86437" lon="5.40412">
        <ele>1326</ele>
        <time>2020-05-22T10:17:50.858Z</time>
      </trkpt>
      <trkpt lat="44.8644" lon="5.40412">
        <ele>1326</ele>
        <time>2020-05-22T10:17:51.858Z</time>
      </trkpt>
      <trkpt lat="44.86443" lon="5.40412">
        <ele>1326</ele>
        <time>2020-05-22T10:17:52.858Z</time>
      </trkpt>
      <trkpt lat="44.86446" lon="5.40412">
        <ele>1326</ele>
        <time>2020-05-22T10:17:53.857Z</time>
      </trkpt>
      <trkpt lat="44.86448" lon="5.40413">
        <ele>1326</ele>
        <time>2020-05-22T10:17:54.858Z</time>
      </trkpt>
      <trkpt lat="44.86452" lon="5.40414">
        <ele>1326</ele>
        <time>2020-05-22T10:17:55.858Z</time>
      </trkpt>
      <trkpt lat="44.86457" lon="5.40414">
        <ele>1326</ele>
        <time>2020-05-22T10:17:56.858Z</time>
      </trkpt>
      <trkpt lat="44.86461" lon="5.40414">
        <ele>1326</ele>
        <time>2020-05-22T10:17:57.857Z</time>
      </trkpt>
      <trkpt lat="44.86464" lon="5.40414">
        <ele>1327</ele>
        <time>2020-05-22T10:17:58.857Z</time>
      </trkpt>
      <trkpt lat="44.86467" lon="5.40414">
        <ele>1327</ele>
        <time>2020-05-22T10:17:59.858Z</time>
      </trkpt>
      <trkpt lat="44.86469" lon="5.40413">
        <ele>1327</ele>
        <time>2020-05-22T10:18:00.858Z</time>
      </trkpt>
      <trkpt lat="44.86472" lon="5.40412">
        <ele>1327</ele>
        <time>2020-05-22T10:18:01.858Z</time>
      </trkpt>
      <trkpt lat="44.86475" lon="5.40411">
        <ele>1326</ele>
        <time>2020-05-22T10:18:02.857Z</time>
      </trkpt>
      <trkpt lat="44.86478" lon="5.4041">
        <ele>1326</ele>
        <time>2020-05-22T10:18:03.857Z</time>
      </trkpt>
      <trkpt lat="44.86481" lon="5.40409">
        <ele>1326</ele>
        <time>2020-05-22T10:18:04.858Z</time>
      </trkpt>
      <trkpt lat="44.86484" lon="5.40409">
        <ele>1327</ele>
        <time>2020-05-22T10:18:05.858Z</time>
      </trkpt>
      <trkpt lat="44.86486" lon="5.4041">
        <ele>1327</ele>
        <time>2020-05-22T10:18:06.858Z</time>
      </trkpt>
      <trkpt lat="44.86488" lon="5.4041">
        <ele>1328</ele>
        <time>2020-05-22T10:18:07.858Z</time>
      </trkpt>
      <trkpt lat="44.8649" lon="5.4041">
        <ele>1328</ele>
        <time>2020-05-22T10:18:08.858Z</time>
      </trkpt>
      <trkpt lat="44.86492" lon="5.40411">
        <ele>1327</ele>
        <time>2020-05-22T10:18:09.858Z</time>
      </trkpt>
      <trkpt lat="44.86494" lon="5.40411">
        <ele>1327</ele>
        <time>2020-05-22T10:18:10.858Z</time>
      </trkpt>
      <trkpt lat="44.86495" lon="5.40411">
        <ele>1327</ele>
        <time>2020-05-22T10:18:11.858Z</time>
      </trkpt>
      <trkpt lat="44.86495" lon="5.40411">
        <ele>1327</ele>
        <time>2020-05-22T10:18:12.858Z</time>
      </trkpt>
      <trkpt lat="44.86495" lon="5.40411">
        <ele>1327</ele>
        <time>2020-05-22T10:18:13.858Z</time>
      </trkpt>
      <trkpt lat="44.86494" lon="5.40411">
        <ele>1326</ele>
        <time>2020-05-22T10:18:14.857Z</time>
      </trkpt>
      <trkpt lat="44.86494" lon="5.40411">
        <ele>1326</ele>
        <time>2020-05-22T10:18:15.858Z</time>
      </trkpt>
      <trkpt lat="44.86492" lon="5.40413">
        <ele>1324</ele>
        <time>2020-05-22T10:18:16.858Z</time>
      </trkpt>
      <trkpt lat="44.86492" lon="5.40414">
        <ele>1324</ele>
        <time>2020-05-22T10:18:17.859Z</time>
      </trkpt>
      <trkpt lat="44.86499" lon="5.40414">
        <ele>1326</ele>
        <time>2020-05-22T10:18:18.859Z</time>
      </trkpt>
      <trkpt lat="44.86501" lon="5.40415">
        <ele>1326</ele>
        <time>2020-05-22T10:18:19.859Z</time>
      </trkpt>
      <trkpt lat="44.86503" lon="5.40416">
        <ele>1326</ele>
        <time>2020-05-22T10:18:20.859Z</time>
      </trkpt>
      <trkpt lat="44.86507" lon="5.40417">
        <ele>1326</ele>
        <time>2020-05-22T10:18:21.859Z</time>
      </trkpt>
      <trkpt lat="44.86509" lon="5.40418">
        <ele>1326</ele>
        <time>2020-05-22T10:18:22.859Z</time>
      </trkpt>
      <trkpt lat="44.86512" lon="5.40419">
        <ele>1326</ele>
        <time>2020-05-22T10:18:23.859Z</time>
      </trkpt>
      <trkpt lat="44.86515" lon="5.4042">
        <ele>1327</ele>
        <time>2020-05-22T10:18:24.859Z</time>
      </trkpt>
      <trkpt lat="44.86518" lon="5.40422">
        <ele>1327</ele>
        <time>2020-05-22T10:18:25.859Z</time>
      </trkpt>
      <trkpt lat="44.86522" lon="5.40423">
        <ele>1327</ele>
        <time>2020-05-22T10:18:26.859Z</time>
      </trkpt>
      <trkpt lat="44.86524" lon="5.40424">
        <ele>1327</ele>
        <time>2020-05-22T10:18:27.859Z</time>
      </trkpt>
      <trkpt lat="44.86526" lon="5.40424">
        <ele>1326</ele>
        <time>2020-05-22T10:18:28.858Z</time>
      </trkpt>
      <trkpt lat="44.86528" lon="5.40425">
        <ele>1326</ele>
        <time>2020-05-22T10:18:29.858Z</time>
      </trkpt>
      <trkpt lat="44.86532" lon="5.40427">
        <ele>1326</ele>
        <time>2020-05-22T10:18:30.859Z</time>
      </trkpt>
      <trkpt lat="44.86534" lon="5.40427">
        <ele>1327</ele>
        <time>2020-05-22T10:18:31.859Z</time>
      </trkpt>
      <trkpt lat="44.86536" lon="5.40428">
        <ele>1327</ele>
        <time>2020-05-22T10:18:32.858Z</time>
      </trkpt>
      <trkpt lat="44.8654" lon="5.40429">
        <ele>1327</ele>
        <time>2020-05-22T10:18:33.859Z</time>
      </trkpt>
      <trkpt lat="44.86543" lon="5.4043">
        <ele>1327</ele>
        <time>2020-05-22T10:18:34.858Z</time>
      </trkpt>
      <trkpt lat="44.86547" lon="5.40431">
        <ele>1327</ele>
        <time>2020-05-22T10:18:35.859Z</time>
      </trkpt>
      <trkpt lat="44.8655" lon="5.40432">
        <ele>1327</ele>
        <time>2020-05-22T10:18:36.859Z</time>
      </trkpt>
      <trkpt lat="44.86553" lon="5.40433">
        <ele>1327</ele>
        <time>2020-05-22T10:18:37.859Z</time>
      </trkpt>
      <trkpt lat="44.86556" lon="5.40433">
        <ele>1327</ele>
        <time>2020-05-22T10:18:38.859Z</time>
      </trkpt>
      <trkpt lat="44.8656" lon="5.40434">
        <ele>1328</ele>
        <time>2020-05-22T10:18:39.858Z</time>
      </trkpt>
      <trkpt lat="44.86563" lon="5.40435">
        <ele>1328</ele>
        <time>2020-05-22T10:18:40.859Z</time>
      </trkpt>
      <trkpt lat="44.86566" lon="5.40435">
        <ele>1329</ele>
        <time>2020-05-22T10:18:41.859Z</time>
      </trkpt>
      <trkpt lat="44.86569" lon="5.40436">
        <ele>1329</ele>
        <time>2020-05-22T10:18:42.858Z</time>
      </trkpt>
      <trkpt lat="44.86573" lon="5.40437">
        <ele>1329</ele>
        <time>2020-05-22T10:18:43.859Z</time>
      </trkpt>
      <trkpt lat="44.86576" lon="5.40438">
        <ele>1329</ele>
        <time>2020-05-22T10:18:44.858Z</time>
      </trkpt>
      <trkpt lat="44.8658" lon="5.40439">
        <ele>1330</ele>
        <time>2020-05-22T10:18:45.859Z</time>
      </trkpt>
      <trkpt lat="44.86584" lon="5.40441">
        <ele>1330</ele>
        <time>2020-05-22T10:18:46.859Z</time>
      </trkpt>
      <trkpt lat="44.86588" lon="5.40443">
        <ele>1330</ele>
        <time>2020-05-22T10:18:47.858Z</time>
      </trkpt>
      <trkpt lat="44.86591" lon="5.40446">
        <ele>1330</ele>
        <time>2020-05-22T10:18:48.858Z</time>
      </trkpt>
      <trkpt lat="44.86596" lon="5.40449">
        <ele>1330</ele>
        <time>2020-05-22T10:18:49.859Z</time>
      </trkpt>
      <trkpt lat="44.866" lon="5.40451">
        <ele>1330</ele>
        <time>2020-05-22T10:18:50.859Z</time>
      </trkpt>
      <trkpt lat="44.86604" lon="5.40454">
        <ele>1330</ele>
        <time>2020-05-22T10:18:51.859Z</time>
      </trkpt>
      <trkpt lat="44.86609" lon="5.40456">
        <ele>1330</ele>
        <time>2020-05-22T10:18:52.859Z</time>
      </trkpt>
      <trkpt lat="44.86613" lon="5.40458">
        <ele>1329</ele>
        <time>2020-05-22T10:18:53.859Z</time>
      </trkpt>
      <trkpt lat="44.86617" lon="5.4046">
        <ele>1329</ele>
        <time>2020-05-22T10:18:54.858Z</time>
      </trkpt>
      <trkpt lat="44.86621" lon="5.40463">
        <ele>1328</ele>
        <time>2020-05-22T10:18:55.859Z</time>
      </trkpt>
      <trkpt lat="44.86627" lon="5.40467">
        <ele>1328</ele>
        <time>2020-05-22T10:18:56.859Z</time>
      </trkpt>
      <trkpt lat="44.86631" lon="5.4047">
        <ele>1328</ele>
        <time>2020-05-22T10:18:57.859Z</time>
      </trkpt>
      <trkpt lat="44.86636" lon="5.40472">
        <ele>1328</ele>
        <time>2020-05-22T10:18:58.859Z</time>
      </trkpt>
      <trkpt lat="44.86641" lon="5.40476">
        <ele>1327</ele>
        <time>2020-05-22T10:18:59.859Z</time>
      </trkpt>
      <trkpt lat="44.86647" lon="5.40477">
        <ele>1327</ele>
        <time>2020-05-22T10:19:00.858Z</time>
      </trkpt>
      <trkpt lat="44.86653" lon="5.4048">
        <ele>1327</ele>
        <time>2020-05-22T10:19:01.859Z</time>
      </trkpt>
      <trkpt lat="44.86662" lon="5.40481">
        <ele>1326</ele>
        <time>2020-05-22T10:19:02.858Z</time>
      </trkpt>
      <trkpt lat="44.8667" lon="5.40484">
        <ele>1326</ele>
        <time>2020-05-22T10:19:03.859Z</time>
      </trkpt>
      <trkpt lat="44.86676" lon="5.4049">
        <ele>1326</ele>
        <time>2020-05-22T10:19:04.858Z</time>
      </trkpt>
      <trkpt lat="44.86683" lon="5.40493">
        <ele>1325</ele>
        <time>2020-05-22T10:19:05.859Z</time>
      </trkpt>
      <trkpt lat="44.8669" lon="5.40496">
        <ele>1325</ele>
        <time>2020-05-22T10:19:06.858Z</time>
      </trkpt>
      <trkpt lat="44.86697" lon="5.405">
        <ele>1324</ele>
        <time>2020-05-22T10:19:07.859Z</time>
      </trkpt>
      <trkpt lat="44.86704" lon="5.40503">
        <ele>1323</ele>
        <time>2020-05-22T10:19:08.859Z</time>
      </trkpt>
      <trkpt lat="44.8671" lon="5.40506">
        <ele>1323</ele>
        <time>2020-05-22T10:19:09.859Z</time>
      </trkpt>
      <trkpt lat="44.86716" lon="5.40508">
        <ele>1322</ele>
        <time>2020-05-22T10:19:10.859Z</time>
      </trkpt>
      <trkpt lat="44.86721" lon="5.4051">
        <ele>1321</ele>
        <time>2020-05-22T10:19:11.859Z</time>
      </trkpt>
      <trkpt lat="44.86726" lon="5.40513">
        <ele>1320</ele>
        <time>2020-05-22T10:19:12.859Z</time>
      </trkpt>
      <trkpt lat="44.86731" lon="5.40516">
        <ele>1319</ele>
        <time>2020-05-22T10:19:13.859Z</time>
      </trkpt>
      <trkpt lat="44.86737" lon="5.40517">
        <ele>1319</ele>
        <time>2020-05-22T10:19:14.858Z</time>
      </trkpt>
      <trkpt lat="44.86743" lon="5.40519">
        <ele>1318</ele>
        <time>2020-05-22T10:19:15.859Z</time>
      </trkpt>
      <trkpt lat="44.86749" lon="5.4052">
        <ele>1318</ele>
        <time>2020-05-22T10:19:16.859Z</time>
      </trkpt>
      <trkpt lat="44.86755" lon="5.40521">
        <ele>1317</ele>
        <time>2020-05-22T10:19:17.859Z</time>
      </trkpt>
      <trkpt lat="44.86761" lon="5.40523">
        <ele>1316</ele>
        <time>2020-05-22T10:19:18.859Z</time>
      </trkpt>
      <trkpt lat="44.86767" lon="5.40525">
        <ele>1316</ele>
        <time>2020-05-22T10:19:19.858Z</time>
      </trkpt>
      <trkpt lat="44.86772" lon="5.40528">
        <ele>1315</ele>
        <time>2020-05-22T10:19:20.859Z</time>
      </trkpt>
      <trkpt lat="44.86776" lon="5.40531">
        <ele>1314</ele>
        <time>2020-05-22T10:19:21.859Z</time>
      </trkpt>
      <trkpt lat="44.86781" lon="5.40533">
        <ele>1313</ele>
        <time>2020-05-22T10:19:22.858Z</time>
      </trkpt>
      <trkpt lat="44.86785" lon="5.40536">
        <ele>1312</ele>
        <time>2020-05-22T10:19:23.858Z</time>
      </trkpt>
      <trkpt lat="44.86789" lon="5.40539">
        <ele>1312</ele>
        <time>2020-05-22T10:19:24.859Z</time>
      </trkpt>
      <trkpt lat="44.86793" lon="5.40542">
        <ele>1311</ele>
        <time>2020-05-22T10:19:25.858Z</time>
      </trkpt>
      <trkpt lat="44.86796" lon="5.40545">
        <ele>1310</ele>
        <time>2020-05-22T10:19:26.859Z</time>
      </trkpt>
      <trkpt lat="44.868" lon="5.40547">
        <ele>1309</ele>
        <time>2020-05-22T10:19:27.859Z</time>
      </trkpt>
      <trkpt lat="44.86804" lon="5.40549">
        <ele>1308</ele>
        <time>2020-05-22T10:19:28.858Z</time>
      </trkpt>
      <trkpt lat="44.86809" lon="5.40551">
        <ele>1307</ele>
        <time>2020-05-22T10:19:29.859Z</time>
      </trkpt>
      <trkpt lat="44.86814" lon="5.40551">
        <ele>1307</ele>
        <time>2020-05-22T10:19:30.858Z</time>
      </trkpt>
      <trkpt lat="44.86819" lon="5.40554">
        <ele>1306</ele>
        <time>2020-05-22T10:19:31.858Z</time>
      </trkpt>
      <trkpt lat="44.86824" lon="5.40557">
        <ele>1306</ele>
        <time>2020-05-22T10:19:32.859Z</time>
      </trkpt>
      <trkpt lat="44.86829" lon="5.40559">
        <ele>1306</ele>
        <time>2020-05-22T10:19:33.858Z</time>
      </trkpt>
      <trkpt lat="44.86833" lon="5.40563">
        <ele>1305</ele>
        <time>2020-05-22T10:19:34.859Z</time>
      </trkpt>
      <trkpt lat="44.86836" lon="5.40566">
        <ele>1304</ele>
        <time>2020-05-22T10:19:35.859Z</time>
      </trkpt>
      <trkpt lat="44.8684" lon="5.4057">
        <ele>1304</ele>
        <time>2020-05-22T10:19:36.858Z</time>
      </trkpt>
      <trkpt lat="44.86844" lon="5.40573">
        <ele>1303</ele>
        <time>2020-05-22T10:19:37.858Z</time>
      </trkpt>
      <trkpt lat="44.86847" lon="5.40574">
        <ele>1302</ele>
        <time>2020-05-22T10:19:38.858Z</time>
      </trkpt>
      <trkpt lat="44.86851" lon="5.40575">
        <ele>1301</ele>
        <time>2020-05-22T10:19:39.858Z</time>
      </trkpt>
      <trkpt lat="44.86855" lon="5.40576">
        <ele>1300</ele>
        <time>2020-05-22T10:19:40.858Z</time>
      </trkpt>
      <trkpt lat="44.86859" lon="5.40579">
        <ele>1300</ele>
        <time>2020-05-22T10:19:41.859Z</time>
      </trkpt>
      <trkpt lat="44.86862" lon="5.40582">
        <ele>1299</ele>
        <time>2020-05-22T10:19:42.859Z</time>
      </trkpt>
      <trkpt lat="44.86866" lon="5.40585">
        <ele>1299</ele>
        <time>2020-05-22T10:19:43.858Z</time>
      </trkpt>
      <trkpt lat="44.8687" lon="5.40587">
        <ele>1298</ele>
        <time>2020-05-22T10:19:44.858Z</time>
      </trkpt>
      <trkpt lat="44.86874" lon="5.40588">
        <ele>1297</ele>
        <time>2020-05-22T10:19:45.858Z</time>
      </trkpt>
      <trkpt lat="44.86877" lon="5.4059">
        <ele>1296</ele>
        <time>2020-05-22T10:19:46.858Z</time>
      </trkpt>
      <trkpt lat="44.86881" lon="5.40591">
        <ele>1294</ele>
        <time>2020-05-22T10:19:47.858Z</time>
      </trkpt>
      <trkpt lat="44.86885" lon="5.40593">
        <ele>1293</ele>
        <time>2020-05-22T10:19:48.859Z</time>
      </trkpt>
      <trkpt lat="44.8689" lon="5.40595">
        <ele>1292</ele>
        <time>2020-05-22T10:19:49.858Z</time>
      </trkpt>
      <trkpt lat="44.86894" lon="5.40597">
        <ele>1291</ele>
        <time>2020-05-22T10:19:50.859Z</time>
      </trkpt>
      <trkpt lat="44.86898" lon="5.40599">
        <ele>1290</ele>
        <time>2020-05-22T10:19:51.858Z</time>
      </trkpt>
      <trkpt lat="44.86902" lon="5.40602">
        <ele>1289</ele>
        <time>2020-05-22T10:19:52.858Z</time>
      </trkpt>
      <trkpt lat="44.86906" lon="5.40604">
        <ele>1289</ele>
        <time>2020-05-22T10:19:53.858Z</time>
      </trkpt>
      <trkpt lat="44.8691" lon="5.40606">
        <ele>1288</ele>
        <time>2020-05-22T10:19:54.858Z</time>
      </trkpt>
      <trkpt lat="44.86915" lon="5.40608">
        <ele>1287</ele>
        <time>2020-05-22T10:19:55.859Z</time>
      </trkpt>
      <trkpt lat="44.86919" lon="5.40609">
        <ele>1286</ele>
        <time>2020-05-22T10:19:56.858Z</time>
      </trkpt>
      <trkpt lat="44.86923" lon="5.40609">
        <ele>1286</ele>
        <time>2020-05-22T10:19:57.858Z</time>
      </trkpt>
      <trkpt lat="44.86927" lon="5.4061">
        <ele>1285</ele>
        <time>2020-05-22T10:19:58.858Z</time>
      </trkpt>
      <trkpt lat="44.8693" lon="5.4061">
        <ele>1284</ele>
        <time>2020-05-22T10:19:59.858Z</time>
      </trkpt>
      <trkpt lat="44.86933" lon="5.40611">
        <ele>1284</ele>
        <time>2020-05-22T10:20:00.858Z</time>
      </trkpt>
      <trkpt lat="44.86935" lon="5.40612">
        <ele>1283</ele>
        <time>2020-05-22T10:20:01.858Z</time>
      </trkpt>
      <trkpt lat="44.86936" lon="5.40613">
        <ele>1282</ele>
        <time>2020-05-22T10:20:02.858Z</time>
      </trkpt>
      <trkpt lat="44.86938" lon="5.40614">
        <ele>1282</ele>
        <time>2020-05-22T10:20:03.858Z</time>
      </trkpt>
      <trkpt lat="44.8694" lon="5.40614">
        <ele>1281</ele>
        <time>2020-05-22T10:20:04.858Z</time>
      </trkpt>
      <trkpt lat="44.86943" lon="5.40614">
        <ele>1280</ele>
        <time>2020-05-22T10:20:05.858Z</time>
      </trkpt>
      <trkpt lat="44.86946" lon="5.40614">
        <ele>1280</ele>
        <time>2020-05-22T10:20:06.858Z</time>
      </trkpt>
      <trkpt lat="44.86949" lon="5.40615">
        <ele>1279</ele>
        <time>2020-05-22T10:20:07.858Z</time>
      </trkpt>
      <trkpt lat="44.86951" lon="5.40615">
        <ele>1278</ele>
        <time>2020-05-22T10:20:08.858Z</time>
      </trkpt>
      <trkpt lat="44.86953" lon="5.40615">
        <ele>1278</ele>
        <time>2020-05-22T10:20:09.858Z</time>
      </trkpt>
      <trkpt lat="44.86955" lon="5.40616">
        <ele>1277</ele>
        <time>2020-05-22T10:20:10.858Z</time>
      </trkpt>
      <trkpt lat="44.86956" lon="5.40616">
        <ele>1277</ele>
        <time>2020-05-22T10:20:11.858Z</time>
      </trkpt>
      <trkpt lat="44.86957" lon="5.40615">
        <ele>1277</ele>
        <time>2020-05-22T10:20:12.858Z</time>
      </trkpt>
      <trkpt lat="44.86957" lon="5.40615">
        <ele>1277</ele>
        <time>2020-05-22T10:20:13.859Z</time>
      </trkpt>
      <trkpt lat="44.86958" lon="5.40614">
        <ele>1278</ele>
        <time>2020-05-22T10:20:14.858Z</time>
      </trkpt>
      <trkpt lat="44.86959" lon="5.40614">
        <ele>1278</ele>
        <time>2020-05-22T10:20:15.858Z</time>
      </trkpt>
      <trkpt lat="44.8696" lon="5.40613">
        <ele>1279</ele>
        <time>2020-05-22T10:20:16.858Z</time>
      </trkpt>
      <trkpt lat="44.8696" lon="5.40613">
        <ele>1279</ele>
        <time>2020-05-22T10:20:17.858Z</time>
      </trkpt>
      <trkpt lat="44.8696" lon="5.40613">
        <ele>1280</ele>
        <time>2020-05-22T10:20:18.858Z</time>
      </trkpt>
      <trkpt lat="44.86959" lon="5.40613">
        <ele>1280</ele>
        <time>2020-05-22T10:20:19.859Z</time>
      </trkpt>
      <trkpt lat="44.86959" lon="5.40613">
        <ele>1280</ele>
        <time>2020-05-22T10:20:20.859Z</time>
      </trkpt>
      <trkpt lat="44.86959" lon="5.40614">
        <ele>1280</ele>
        <time>2020-05-22T10:20:21.859Z</time>
      </trkpt>
      <trkpt lat="44.86958" lon="5.40614">
        <ele>1280</ele>
        <time>2020-05-22T10:20:22.859Z</time>
      </trkpt>
      <trkpt lat="44.86957" lon="5.40614">
        <ele>1280</ele>
        <time>2020-05-22T10:20:23.859Z</time>
      </trkpt>
      <trkpt lat="44.86957" lon="5.40614">
        <ele>1279</ele>
        <time>2020-05-22T10:20:24.859Z</time>
      </trkpt>
      <trkpt lat="44.86956" lon="5.40614">
        <ele>1279</ele>
        <time>2020-05-22T10:20:25.858Z</time>
      </trkpt>
      <trkpt lat="44.86956" lon="5.40613">
        <ele>1278</ele>
        <time>2020-05-22T10:20:26.859Z</time>
      </trkpt>
      <trkpt lat="44.86959" lon="5.40613">
        <ele>1274</ele>
        <time>2020-05-22T10:20:27.859Z</time>
      </trkpt>
      <trkpt lat="44.8696" lon="5.40613">
        <ele>1274</ele>
        <time>2020-05-22T10:20:28.859Z</time>
      </trkpt>
      <trkpt lat="44.86962" lon="5.40613">
        <ele>1273</ele>
        <time>2020-05-22T10:20:29.860Z</time>
      </trkpt>
      <trkpt lat="44.86964" lon="5.40612">
        <ele>1273</ele>
        <time>2020-05-22T10:20:30.860Z</time>
      </trkpt>
      <trkpt lat="44.86966" lon="5.40612">
        <ele>1272</ele>
        <time>2020-05-22T10:20:31.860Z</time>
      </trkpt>
      <trkpt lat="44.86968" lon="5.40612">
        <ele>1272</ele>
        <time>2020-05-22T10:20:32.860Z</time>
      </trkpt>
      <trkpt lat="44.8697" lon="5.40612">
        <ele>1271</ele>
        <time>2020-05-22T10:20:33.859Z</time>
      </trkpt>
      <trkpt lat="44.86974" lon="5.40613">
        <ele>1271</ele>
        <time>2020-05-22T10:20:34.860Z</time>
      </trkpt>
      <trkpt lat="44.86976" lon="5.40613">
        <ele>1271</ele>
        <time>2020-05-22T10:20:35.860Z</time>
      </trkpt>
      <trkpt lat="44.86979" lon="5.40613">
        <ele>1270</ele>
        <time>2020-05-22T10:20:36.859Z</time>
      </trkpt>
      <trkpt lat="44.86982" lon="5.40613">
        <ele>1270</ele>
        <time>2020-05-22T10:20:37.859Z</time>
      </trkpt>
      <trkpt lat="44.86984" lon="5.40614">
        <ele>1270</ele>
        <time>2020-05-22T10:20:38.859Z</time>
      </trkpt>
      <trkpt lat="44.86987" lon="5.40615">
        <ele>1269</ele>
        <time>2020-05-22T10:20:39.859Z</time>
      </trkpt>
      <trkpt lat="44.86989" lon="5.40616">
        <ele>1269</ele>
        <time>2020-05-22T10:20:40.860Z</time>
      </trkpt>
      <trkpt lat="44.8699" lon="5.40616">
        <ele>1269</ele>
        <time>2020-05-22T10:20:41.860Z</time>
      </trkpt>
      <trkpt lat="44.86992" lon="5.40617">
        <ele>1270</ele>
        <time>2020-05-22T10:20:42.859Z</time>
      </trkpt>
      <trkpt lat="44.86993" lon="5.40618">
        <ele>1270</ele>
        <time>2020-05-22T10:20:43.860Z</time>
      </trkpt>
      <trkpt lat="44.86993" lon="5.40621">
        <ele>1270</ele>
        <time>2020-05-22T10:20:44.860Z</time>
      </trkpt>
      <trkpt lat="44.86993" lon="5.40622">
        <ele>1270</ele>
        <time>2020-05-22T10:20:45.860Z</time>
      </trkpt>
      <trkpt lat="44.86993" lon="5.40623">
        <ele>1269</ele>
        <time>2020-05-22T10:20:46.859Z</time>
      </trkpt>
      <trkpt lat="44.86989" lon="5.40623">
        <ele>1264</ele>
        <time>2020-05-22T10:20:47.861Z</time>
      </trkpt>
      <trkpt lat="44.86989" lon="5.40623">
        <ele>1264</ele>
        <time>2020-05-22T10:20:48.860Z</time>
      </trkpt>
      <trkpt lat="44.86989" lon="5.40623">
        <ele>1264</ele>
        <time>2020-05-22T10:20:49.860Z</time>
      </trkpt>
      <trkpt lat="44.86988" lon="5.40623">
        <ele>1263</ele>
        <time>2020-05-22T10:20:50.861Z</time>
      </trkpt>
      <trkpt lat="44.86995" lon="5.40618">
        <ele>1263</ele>
        <time>2020-05-22T10:20:51.862Z</time>
      </trkpt>
      <trkpt lat="44.86999" lon="5.40618">
        <ele>1263</ele>
        <time>2020-05-22T10:20:52.861Z</time>
      </trkpt>
      <trkpt lat="44.87002" lon="5.40619">
        <ele>1264</ele>
        <time>2020-05-22T10:20:53.862Z</time>
      </trkpt>
      <trkpt lat="44.87005" lon="5.4062">
        <ele>1264</ele>
        <time>2020-05-22T10:20:54.862Z</time>
      </trkpt>
      <trkpt lat="44.87008" lon="5.40621">
        <ele>1264</ele>
        <time>2020-05-22T10:20:55.861Z</time>
      </trkpt>
      <trkpt lat="44.87012" lon="5.40622">
        <ele>1264</ele>
        <time>2020-05-22T10:20:56.861Z</time>
      </trkpt>
      <trkpt lat="44.87015" lon="5.40623">
        <ele>1264</ele>
        <time>2020-05-22T10:20:57.862Z</time>
      </trkpt>
      <trkpt lat="44.87019" lon="5.40625">
        <ele>1264</ele>
        <time>2020-05-22T10:20:58.862Z</time>
      </trkpt>
      <trkpt lat="44.87022" lon="5.40626">
        <ele>1265</ele>
        <time>2020-05-22T10:20:59.862Z</time>
      </trkpt>
      <trkpt lat="44.87026" lon="5.40628">
        <ele>1265</ele>
        <time>2020-05-22T10:21:00.862Z</time>
      </trkpt>
      <trkpt lat="44.87031" lon="5.4063">
        <ele>1265</ele>
        <time>2020-05-22T10:21:01.862Z</time>
      </trkpt>
      <trkpt lat="44.87035" lon="5.40632">
        <ele>1266</ele>
        <time>2020-05-22T10:21:02.861Z</time>
      </trkpt>
      <trkpt lat="44.8704" lon="5.40634">
        <ele>1266</ele>
        <time>2020-05-22T10:21:03.861Z</time>
      </trkpt>
      <trkpt lat="44.87044" lon="5.40636">
        <ele>1266</ele>
        <time>2020-05-22T10:21:04.861Z</time>
      </trkpt>
      <trkpt lat="44.87049" lon="5.40637">
        <ele>1266</ele>
        <time>2020-05-22T10:21:05.862Z</time>
      </trkpt>
      <trkpt lat="44.87054" lon="5.40639">
        <ele>1267</ele>
        <time>2020-05-22T10:21:06.862Z</time>
      </trkpt>
      <trkpt lat="44.87058" lon="5.40641">
        <ele>1266</ele>
        <time>2020-05-22T10:21:07.861Z</time>
      </trkpt>
      <trkpt lat="44.87063" lon="5.40643">
        <ele>1266</ele>
        <time>2020-05-22T10:21:08.862Z</time>
      </trkpt>
      <trkpt lat="44.87067" lon="5.40647">
        <ele>1266</ele>
        <time>2020-05-22T10:21:09.861Z</time>
      </trkpt>
      <trkpt lat="44.87072" lon="5.40649">
        <ele>1266</ele>
        <time>2020-05-22T10:21:10.861Z</time>
      </trkpt>
      <trkpt lat="44.87077" lon="5.40652">
        <ele>1266</ele>
        <time>2020-05-22T10:21:11.862Z</time>
      </trkpt>
      <trkpt lat="44.87081" lon="5.40653">
        <ele>1265</ele>
        <time>2020-05-22T10:21:12.862Z</time>
      </trkpt>
      <trkpt lat="44.87085" lon="5.40655">
        <ele>1265</ele>
        <time>2020-05-22T10:21:13.861Z</time>
      </trkpt>
      <trkpt lat="44.87089" lon="5.40656">
        <ele>1264</ele>
        <time>2020-05-22T10:21:14.861Z</time>
      </trkpt>
      <trkpt lat="44.87092" lon="5.40657">
        <ele>1263</ele>
        <time>2020-05-22T10:21:15.861Z</time>
      </trkpt>
      <trkpt lat="44.87096" lon="5.40659">
        <ele>1263</ele>
        <time>2020-05-22T10:21:16.861Z</time>
      </trkpt>
      <trkpt lat="44.87101" lon="5.40662">
        <ele>1262</ele>
        <time>2020-05-22T10:21:17.861Z</time>
      </trkpt>
      <trkpt lat="44.87105" lon="5.40664">
        <ele>1261</ele>
        <time>2020-05-22T10:21:18.862Z</time>
      </trkpt>
      <trkpt lat="44.87111" lon="5.40668">
        <ele>1260</ele>
        <time>2020-05-22T10:21:19.862Z</time>
      </trkpt>
      <trkpt lat="44.87116" lon="5.4067">
        <ele>1259</ele>
        <time>2020-05-22T10:21:20.861Z</time>
      </trkpt>
      <trkpt lat="44.87122" lon="5.40674">
        <ele>1258</ele>
        <time>2020-05-22T10:21:21.862Z</time>
      </trkpt>
      <trkpt lat="44.87129" lon="5.40675">
        <ele>1257</ele>
        <time>2020-05-22T10:21:22.862Z</time>
      </trkpt>
      <trkpt lat="44.87134" lon="5.40678">
        <ele>1256</ele>
        <time>2020-05-22T10:21:23.862Z</time>
      </trkpt>
      <trkpt lat="44.8714" lon="5.4068">
        <ele>1255</ele>
        <time>2020-05-22T10:21:24.862Z</time>
      </trkpt>
      <trkpt lat="44.87144" lon="5.40683">
        <ele>1254</ele>
        <time>2020-05-22T10:21:25.861Z</time>
      </trkpt>
      <trkpt lat="44.8715" lon="5.40686">
        <ele>1254</ele>
        <time>2020-05-22T10:21:26.861Z</time>
      </trkpt>
      <trkpt lat="44.87158" lon="5.40689">
        <ele>1253</ele>
        <time>2020-05-22T10:21:27.862Z</time>
      </trkpt>
      <trkpt lat="44.87164" lon="5.40693">
        <ele>1253</ele>
        <time>2020-05-22T10:21:28.862Z</time>
      </trkpt>
      <trkpt lat="44.87171" lon="5.40696">
        <ele>1252</ele>
        <time>2020-05-22T10:21:29.861Z</time>
      </trkpt>
      <trkpt lat="44.87177" lon="5.40698">
        <ele>1252</ele>
        <time>2020-05-22T10:21:30.861Z</time>
      </trkpt>
      <trkpt lat="44.87182" lon="5.40699">
        <ele>1251</ele>
        <time>2020-05-22T10:21:31.862Z</time>
      </trkpt>
      <trkpt lat="44.87189" lon="5.407">
        <ele>1251</ele>
        <time>2020-05-22T10:21:32.862Z</time>
      </trkpt>
      <trkpt lat="44.87196" lon="5.407">
        <ele>1251</ele>
        <time>2020-05-22T10:21:33.862Z</time>
      </trkpt>
      <trkpt lat="44.87203" lon="5.40699">
        <ele>1250</ele>
        <time>2020-05-22T10:21:34.861Z</time>
      </trkpt>
      <trkpt lat="44.87209" lon="5.40697">
        <ele>1250</ele>
        <time>2020-05-22T10:21:35.862Z</time>
      </trkpt>
      <trkpt lat="44.87215" lon="5.40695">
        <ele>1249</ele>
        <time>2020-05-22T10:21:36.861Z</time>
      </trkpt>
      <trkpt lat="44.87221" lon="5.40692">
        <ele>1249</ele>
        <time>2020-05-22T10:21:37.861Z</time>
      </trkpt>
      <trkpt lat="44.87227" lon="5.40689">
        <ele>1248</ele>
        <time>2020-05-22T10:21:38.861Z</time>
      </trkpt>
      <trkpt lat="44.87233" lon="5.40686">
        <ele>1247</ele>
        <time>2020-05-22T10:21:39.861Z</time>
      </trkpt>
      <trkpt lat="44.87237" lon="5.40682">
        <ele>1246</ele>
        <time>2020-05-22T10:21:40.862Z</time>
      </trkpt>
      <trkpt lat="44.87243" lon="5.40678">
        <ele>1245</ele>
        <time>2020-05-22T10:21:41.861Z</time>
      </trkpt>
      <trkpt lat="44.87248" lon="5.40675">
        <ele>1244</ele>
        <time>2020-05-22T10:21:42.862Z</time>
      </trkpt>
      <trkpt lat="44.87251" lon="5.40674">
        <ele>1243</ele>
        <time>2020-05-22T10:21:43.861Z</time>
      </trkpt>
      <trkpt lat="44.87254" lon="5.40674">
        <ele>1242</ele>
        <time>2020-05-22T10:21:44.861Z</time>
      </trkpt>
      <trkpt lat="44.87255" lon="5.40675">
        <ele>1241</ele>
        <time>2020-05-22T10:21:45.861Z</time>
      </trkpt>
      <trkpt lat="44.87257" lon="5.40678">
        <ele>1239</ele>
        <time>2020-05-22T10:21:46.862Z</time>
      </trkpt>
      <trkpt lat="44.87258" lon="5.40681">
        <ele>1238</ele>
        <time>2020-05-22T10:21:47.862Z</time>
      </trkpt>
      <trkpt lat="44.87257" lon="5.40683">
        <ele>1237</ele>
        <time>2020-05-22T10:21:48.862Z</time>
      </trkpt>
      <trkpt lat="44.87256" lon="5.40685">
        <ele>1236</ele>
        <time>2020-05-22T10:21:49.861Z</time>
      </trkpt>
      <trkpt lat="44.87254" lon="5.40688">
        <ele>1235</ele>
        <time>2020-05-22T10:21:50.862Z</time>
      </trkpt>
      <trkpt lat="44.87254" lon="5.40689">
        <ele>1234</ele>
        <time>2020-05-22T10:21:51.862Z</time>
      </trkpt>
      <trkpt lat="44.87254" lon="5.4069">
        <ele>1233</ele>
        <time>2020-05-22T10:21:52.861Z</time>
      </trkpt>
      <trkpt lat="44.87253" lon="5.4069">
        <ele>1232</ele>
        <time>2020-05-22T10:21:53.862Z</time>
      </trkpt>
      <trkpt lat="44.87251" lon="5.40697">
        <ele>1223</ele>
        <time>2020-05-22T10:21:54.863Z</time>
      </trkpt>
      <trkpt lat="44.8725" lon="5.407">
        <ele>1223</ele>
        <time>2020-05-22T10:21:55.862Z</time>
      </trkpt>
      <trkpt lat="44.87248" lon="5.40702">
        <ele>1223</ele>
        <time>2020-05-22T10:21:56.862Z</time>
      </trkpt>
      <trkpt lat="44.87247" lon="5.40704">
        <ele>1223</ele>
        <time>2020-05-22T10:21:57.863Z</time>
      </trkpt>
      <trkpt lat="44.87245" lon="5.40706">
        <ele>1223</ele>
        <time>2020-05-22T10:21:58.862Z</time>
      </trkpt>
      <trkpt lat="44.87243" lon="5.40709">
        <ele>1224</ele>
        <time>2020-05-22T10:21:59.863Z</time>
      </trkpt>
      <trkpt lat="44.87242" lon="5.40712">
        <ele>1224</ele>
        <time>2020-05-22T10:22:00.863Z</time>
      </trkpt>
      <trkpt lat="44.87242" lon="5.40714">
        <ele>1224</ele>
        <time>2020-05-22T10:22:01.863Z</time>
      </trkpt>
      <trkpt lat="44.87241" lon="5.40715">
        <ele>1224</ele>
        <time>2020-05-22T10:22:02.862Z</time>
      </trkpt>
      <trkpt lat="44.87241" lon="5.40716">
        <ele>1224</ele>
        <time>2020-05-22T10:22:03.862Z</time>
      </trkpt>
      <trkpt lat="44.8724" lon="5.40716">
        <ele>1224</ele>
        <time>2020-05-22T10:22:04.863Z</time>
      </trkpt>
      <trkpt lat="44.87239" lon="5.40716">
        <ele>1224</ele>
        <time>2020-05-22T10:22:05.863Z</time>
      </trkpt>
      <trkpt lat="44.87237" lon="5.40716">
        <ele>1224</ele>
        <time>2020-05-22T10:22:06.862Z</time>
      </trkpt>
      <trkpt lat="44.87235" lon="5.40717">
        <ele>1224</ele>
        <time>2020-05-22T10:22:07.862Z</time>
      </trkpt>
      <trkpt lat="44.87234" lon="5.40718">
        <ele>1224</ele>
        <time>2020-05-22T10:22:08.863Z</time>
      </trkpt>
      <trkpt lat="44.87232" lon="5.4072">
        <ele>1224</ele>
        <time>2020-05-22T10:22:09.863Z</time>
      </trkpt>
      <trkpt lat="44.8723" lon="5.40721">
        <ele>1224</ele>
        <time>2020-05-22T10:22:10.862Z</time>
      </trkpt>
      <trkpt lat="44.87228" lon="5.40722">
        <ele>1224</ele>
        <time>2020-05-22T10:22:11.863Z</time>
      </trkpt>
      <trkpt lat="44.87226" lon="5.40723">
        <ele>1223</ele>
        <time>2020-05-22T10:22:12.863Z</time>
      </trkpt>
      <trkpt lat="44.87224" lon="5.40724">
        <ele>1223</ele>
        <time>2020-05-22T10:22:13.863Z</time>
      </trkpt>
      <trkpt lat="44.87222" lon="5.40725">
        <ele>1223</ele>
        <time>2020-05-22T10:22:14.862Z</time>
      </trkpt>
      <trkpt lat="44.87219" lon="5.40726">
        <ele>1222</ele>
        <time>2020-05-22T10:22:15.863Z</time>
      </trkpt>
      <trkpt lat="44.87216" lon="5.40726">
        <ele>1222</ele>
        <time>2020-05-22T10:22:16.863Z</time>
      </trkpt>
      <trkpt lat="44.87213" lon="5.40727">
        <ele>1222</ele>
        <time>2020-05-22T10:22:17.863Z</time>
      </trkpt>
      <trkpt lat="44.87211" lon="5.40728">
        <ele>1222</ele>
        <time>2020-05-22T10:22:18.862Z</time>
      </trkpt>
      <trkpt lat="44.87208" lon="5.40729">
        <ele>1222</ele>
        <time>2020-05-22T10:22:19.862Z</time>
      </trkpt>
      <trkpt lat="44.87205" lon="5.4073">
        <ele>1222</ele>
        <time>2020-05-22T10:22:20.863Z</time>
      </trkpt>
      <trkpt lat="44.87202" lon="5.4073">
        <ele>1223</ele>
        <time>2020-05-22T10:22:21.863Z</time>
      </trkpt>
      <trkpt lat="44.87198" lon="5.4073">
        <ele>1223</ele>
        <time>2020-05-22T10:22:22.863Z</time>
      </trkpt>
      <trkpt lat="44.87195" lon="5.40731">
        <ele>1223</ele>
        <time>2020-05-22T10:22:23.863Z</time>
      </trkpt>
      <trkpt lat="44.87191" lon="5.40732">
        <ele>1223</ele>
        <time>2020-05-22T10:22:24.863Z</time>
      </trkpt>
      <trkpt lat="44.87188" lon="5.40733">
        <ele>1223</ele>
        <time>2020-05-22T10:22:25.863Z</time>
      </trkpt>
      <trkpt lat="44.87184" lon="5.40734">
        <ele>1223</ele>
        <time>2020-05-22T10:22:26.862Z</time>
      </trkpt>
      <trkpt lat="44.8718" lon="5.40735">
        <ele>1223</ele>
        <time>2020-05-22T10:22:27.863Z</time>
      </trkpt>
      <trkpt lat="44.87176" lon="5.40736">
        <ele>1223</ele>
        <time>2020-05-22T10:22:28.863Z</time>
      </trkpt>
      <trkpt lat="44.87172" lon="5.40738">
        <ele>1223</ele>
        <time>2020-05-22T10:22:29.862Z</time>
      </trkpt>
      <trkpt lat="44.87169" lon="5.40739">
        <ele>1224</ele>
        <time>2020-05-22T10:22:30.862Z</time>
      </trkpt>
      <trkpt lat="44.87166" lon="5.4074">
        <ele>1224</ele>
        <time>2020-05-22T10:22:31.862Z</time>
      </trkpt>
      <trkpt lat="44.87162" lon="5.40741">
        <ele>1224</ele>
        <time>2020-05-22T10:22:32.863Z</time>
      </trkpt>
      <trkpt lat="44.87159" lon="5.40742">
        <ele>1224</ele>
        <time>2020-05-22T10:22:33.863Z</time>
      </trkpt>
      <trkpt lat="44.87156" lon="5.40743">
        <ele>1224</ele>
        <time>2020-05-22T10:22:34.862Z</time>
      </trkpt>
      <trkpt lat="44.87152" lon="5.40744">
        <ele>1224</ele>
        <time>2020-05-22T10:22:35.862Z</time>
      </trkpt>
      <trkpt lat="44.87148" lon="5.40745">
        <ele>1224</ele>
        <time>2020-05-22T10:22:36.862Z</time>
      </trkpt>
      <trkpt lat="44.87144" lon="5.40747">
        <ele>1224</ele>
        <time>2020-05-22T10:22:37.863Z</time>
      </trkpt>
      <trkpt lat="44.8714" lon="5.40747">
        <ele>1224</ele>
        <time>2020-05-22T10:22:38.863Z</time>
      </trkpt>
      <trkpt lat="44.87135" lon="5.40748">
        <ele>1225</ele>
        <time>2020-05-22T10:22:39.862Z</time>
      </trkpt>
      <trkpt lat="44.87131" lon="5.40749">
        <ele>1225</ele>
        <time>2020-05-22T10:22:40.862Z</time>
      </trkpt>
      <trkpt lat="44.87127" lon="5.40749">
        <ele>1225</ele>
        <time>2020-05-22T10:22:41.862Z</time>
      </trkpt>
      <trkpt lat="44.87123" lon="5.4075">
        <ele>1225</ele>
        <time>2020-05-22T10:22:42.862Z</time>
      </trkpt>
      <trkpt lat="44.87118" lon="5.4075">
        <ele>1225</ele>
        <time>2020-05-22T10:22:43.863Z</time>
      </trkpt>
      <trkpt lat="44.87113" lon="5.4075">
        <ele>1225</ele>
        <time>2020-05-22T10:22:44.863Z</time>
      </trkpt>
      <trkpt lat="44.87109" lon="5.4075">
        <ele>1225</ele>
        <time>2020-05-22T10:22:45.863Z</time>
      </trkpt>
      <trkpt lat="44.87104" lon="5.40749">
        <ele>1225</ele>
        <time>2020-05-22T10:22:46.862Z</time>
      </trkpt>
      <trkpt lat="44.87099" lon="5.40748">
        <ele>1225</ele>
        <time>2020-05-22T10:22:47.862Z</time>
      </trkpt>
      <trkpt lat="44.87095" lon="5.40747">
        <ele>1225</ele>
        <time>2020-05-22T10:22:48.862Z</time>
      </trkpt>
      <trkpt lat="44.8709" lon="5.40746">
        <ele>1225</ele>
        <time>2020-05-22T10:22:49.863Z</time>
      </trkpt>
      <trkpt lat="44.87086" lon="5.40745">
        <ele>1225</ele>
        <time>2020-05-22T10:22:50.862Z</time>
      </trkpt>
      <trkpt lat="44.87081" lon="5.40744">
        <ele>1225</ele>
        <time>2020-05-22T10:22:51.862Z</time>
      </trkpt>
      <trkpt lat="44.87077" lon="5.40743">
        <ele>1225</ele>
        <time>2020-05-22T10:22:52.863Z</time>
      </trkpt>
      <trkpt lat="44.87073" lon="5.40742">
        <ele>1224</ele>
        <time>2020-05-22T10:22:53.862Z</time>
      </trkpt>
      <trkpt lat="44.87069" lon="5.40741">
        <ele>1224</ele>
        <time>2020-05-22T10:22:54.862Z</time>
      </trkpt>
      <trkpt lat="44.87064" lon="5.4074">
        <ele>1224</ele>
        <time>2020-05-22T10:22:55.862Z</time>
      </trkpt>
      <trkpt lat="44.87059" lon="5.4074">
        <ele>1224</ele>
        <time>2020-05-22T10:22:56.862Z</time>
      </trkpt>
      <trkpt lat="44.87053" lon="5.40739">
        <ele>1224</ele>
        <time>2020-05-22T10:22:57.863Z</time>
      </trkpt>
      <trkpt lat="44.87049" lon="5.40738">
        <ele>1224</ele>
        <time>2020-05-22T10:22:58.863Z</time>
      </trkpt>
      <trkpt lat="44.87044" lon="5.40738">
        <ele>1224</ele>
        <time>2020-05-22T10:22:59.863Z</time>
      </trkpt>
      <trkpt lat="44.87039" lon="5.40738">
        <ele>1224</ele>
        <time>2020-05-22T10:23:00.863Z</time>
      </trkpt>
      <trkpt lat="44.87035" lon="5.40738">
        <ele>1224</ele>
        <time>2020-05-22T10:23:01.863Z</time>
      </trkpt>
      <trkpt lat="44.8703" lon="5.40738">
        <ele>1224</ele>
        <time>2020-05-22T10:23:02.862Z</time>
      </trkpt>
      <trkpt lat="44.87024" lon="5.40737">
        <ele>1224</ele>
        <time>2020-05-22T10:23:03.863Z</time>
      </trkpt>
      <trkpt lat="44.8702" lon="5.40737">
        <ele>1225</ele>
        <time>2020-05-22T10:23:04.862Z</time>
      </trkpt>
      <trkpt lat="44.87015" lon="5.40736">
        <ele>1225</ele>
        <time>2020-05-22T10:23:05.862Z</time>
      </trkpt>
      <trkpt lat="44.8701" lon="5.40736">
        <ele>1226</ele>
        <time>2020-05-22T10:23:06.863Z</time>
      </trkpt>
      <trkpt lat="44.87005" lon="5.40736">
        <ele>1227</ele>
        <time>2020-05-22T10:23:07.863Z</time>
      </trkpt>
      <trkpt lat="44.87" lon="5.40736">
        <ele>1228</ele>
        <time>2020-05-22T10:23:08.863Z</time>
      </trkpt>
      <trkpt lat="44.86993" lon="5.40736">
        <ele>1228</ele>
        <time>2020-05-22T10:23:09.863Z</time>
      </trkpt>
      <trkpt lat="44.86989" lon="5.40735">
        <ele>1229</ele>
        <time>2020-05-22T10:23:10.863Z</time>
      </trkpt>
      <trkpt lat="44.86984" lon="5.40735">
        <ele>1230</ele>
        <time>2020-05-22T10:23:11.863Z</time>
      </trkpt>
      <trkpt lat="44.86979" lon="5.40733">
        <ele>1230</ele>
        <time>2020-05-22T10:23:12.863Z</time>
      </trkpt>
      <trkpt lat="44.86974" lon="5.40732">
        <ele>1230</ele>
        <time>2020-05-22T10:23:13.863Z</time>
      </trkpt>
      <trkpt lat="44.8697" lon="5.40732">
        <ele>1230</ele>
        <time>2020-05-22T10:23:14.862Z</time>
      </trkpt>
      <trkpt lat="44.86964" lon="5.40731">
        <ele>1229</ele>
        <time>2020-05-22T10:23:15.863Z</time>
      </trkpt>
      <trkpt lat="44.86961" lon="5.4073">
        <ele>1229</ele>
        <time>2020-05-22T10:23:16.863Z</time>
      </trkpt>
      <trkpt lat="44.86955" lon="5.40729">
        <ele>1229</ele>
        <time>2020-05-22T10:23:17.863Z</time>
      </trkpt>
      <trkpt lat="44.86951" lon="5.40729">
        <ele>1228</ele>
        <time>2020-05-22T10:23:18.862Z</time>
      </trkpt>
      <trkpt lat="44.86947" lon="5.40728">
        <ele>1228</ele>
        <time>2020-05-22T10:23:19.863Z</time>
      </trkpt>
      <trkpt lat="44.86943" lon="5.40728">
        <ele>1227</ele>
        <time>2020-05-22T10:23:20.863Z</time>
      </trkpt>
      <trkpt lat="44.86939" lon="5.40728">
        <ele>1227</ele>
        <time>2020-05-22T10:23:21.863Z</time>
      </trkpt>
      <trkpt lat="44.86935" lon="5.40728">
        <ele>1227</ele>
        <time>2020-05-22T10:23:22.863Z</time>
      </trkpt>
      <trkpt lat="44.86932" lon="5.40727">
        <ele>1227</ele>
        <time>2020-05-22T10:23:23.863Z</time>
      </trkpt>
      <trkpt lat="44.86927" lon="5.40726">
        <ele>1227</ele>
        <time>2020-05-22T10:23:24.863Z</time>
      </trkpt>
      <trkpt lat="44.86924" lon="5.40725">
        <ele>1226</ele>
        <time>2020-05-22T10:23:25.863Z</time>
      </trkpt>
      <trkpt lat="44.86917" lon="5.40725">
        <ele>1226</ele>
        <time>2020-05-22T10:23:26.862Z</time>
      </trkpt>
      <trkpt lat="44.86913" lon="5.40724">
        <ele>1226</ele>
        <time>2020-05-22T10:23:27.862Z</time>
      </trkpt>
      <trkpt lat="44.86909" lon="5.40722">
        <ele>1226</ele>
        <time>2020-05-22T10:23:28.862Z</time>
      </trkpt>
      <trkpt lat="44.86904" lon="5.40721">
        <ele>1226</ele>
        <time>2020-05-22T10:23:29.863Z</time>
      </trkpt>
      <trkpt lat="44.86899" lon="5.40719">
        <ele>1227</ele>
        <time>2020-05-22T10:23:30.863Z</time>
      </trkpt>
      <trkpt lat="44.86894" lon="5.40718">
        <ele>1227</ele>
        <time>2020-05-22T10:23:31.862Z</time>
      </trkpt>
      <trkpt lat="44.86889" lon="5.40716">
        <ele>1227</ele>
        <time>2020-05-22T10:23:32.863Z</time>
      </trkpt>
      <trkpt lat="44.86884" lon="5.40715">
        <ele>1227</ele>
        <time>2020-05-22T10:23:33.863Z</time>
      </trkpt>
      <trkpt lat="44.8688" lon="5.40714">
        <ele>1228</ele>
        <time>2020-05-22T10:23:34.862Z</time>
      </trkpt>
      <trkpt lat="44.86876" lon="5.40713">
        <ele>1228</ele>
        <time>2020-05-22T10:23:35.863Z</time>
      </trkpt>
      <trkpt lat="44.8687" lon="5.40711">
        <ele>1228</ele>
        <time>2020-05-22T10:23:36.863Z</time>
      </trkpt>
      <trkpt lat="44.86866" lon="5.40709">
        <ele>1228</ele>
        <time>2020-05-22T10:23:37.863Z</time>
      </trkpt>
      <trkpt lat="44.86862" lon="5.40707">
        <ele>1228</ele>
        <time>2020-05-22T10:23:38.862Z</time>
      </trkpt>
      <trkpt lat="44.86857" lon="5.40705">
        <ele>1228</ele>
        <time>2020-05-22T10:23:39.862Z</time>
      </trkpt>
      <trkpt lat="44.86853" lon="5.40703">
        <ele>1229</ele>
        <time>2020-05-22T10:23:40.863Z</time>
      </trkpt>
      <trkpt lat="44.86848" lon="5.40702">
        <ele>1229</ele>
        <time>2020-05-22T10:23:41.863Z</time>
      </trkpt>
      <trkpt lat="44.86844" lon="5.40699">
        <ele>1229</ele>
        <time>2020-05-22T10:23:42.863Z</time>
      </trkpt>
      <trkpt lat="44.8684" lon="5.40697">
        <ele>1229</ele>
        <time>2020-05-22T10:23:43.863Z</time>
      </trkpt>
      <trkpt lat="44.86836" lon="5.40695">
        <ele>1228</ele>
        <time>2020-05-22T10:23:44.863Z</time>
      </trkpt>
      <trkpt lat="44.86832" lon="5.40692">
        <ele>1228</ele>
        <time>2020-05-22T10:23:45.863Z</time>
      </trkpt>
      <trkpt lat="44.86828" lon="5.40688">
        <ele>1228</ele>
        <time>2020-05-22T10:23:46.863Z</time>
      </trkpt>
      <trkpt lat="44.86824" lon="5.40684">
        <ele>1227</ele>
        <time>2020-05-22T10:23:47.863Z</time>
      </trkpt>
      <trkpt lat="44.8682" lon="5.4068">
        <ele>1227</ele>
        <time>2020-05-22T10:23:48.863Z</time>
      </trkpt>
      <trkpt lat="44.86816" lon="5.40676">
        <ele>1226</ele>
        <time>2020-05-22T10:23:49.863Z</time>
      </trkpt>
      <trkpt lat="44.86812" lon="5.40672">
        <ele>1226</ele>
        <time>2020-05-22T10:23:50.862Z</time>
      </trkpt>
      <trkpt lat="44.86808" lon="5.40669">
        <ele>1225</ele>
        <time>2020-05-22T10:23:51.863Z</time>
      </trkpt>
      <trkpt lat="44.86804" lon="5.40667">
        <ele>1225</ele>
        <time>2020-05-22T10:23:52.863Z</time>
      </trkpt>
      <trkpt lat="44.86799" lon="5.40665">
        <ele>1225</ele>
        <time>2020-05-22T10:23:53.863Z</time>
      </trkpt>
      <trkpt lat="44.86795" lon="5.40662">
        <ele>1225</ele>
        <time>2020-05-22T10:23:54.862Z</time>
      </trkpt>
      <trkpt lat="44.86791" lon="5.4066">
        <ele>1225</ele>
        <time>2020-05-22T10:23:55.862Z</time>
      </trkpt>
      <trkpt lat="44.86787" lon="5.40658">
        <ele>1224</ele>
        <time>2020-05-22T10:23:56.863Z</time>
      </trkpt>
      <trkpt lat="44.86782" lon="5.40657">
        <ele>1224</ele>
        <time>2020-05-22T10:23:57.863Z</time>
      </trkpt>
      <trkpt lat="44.86778" lon="5.40655">
        <ele>1224</ele>
        <time>2020-05-22T10:23:58.863Z</time>
      </trkpt>
      <trkpt lat="44.86773" lon="5.40653">
        <ele>1223</ele>
        <time>2020-05-22T10:23:59.863Z</time>
      </trkpt>
      <trkpt lat="44.86769" lon="5.40652">
        <ele>1223</ele>
        <time>2020-05-22T10:24:00.863Z</time>
      </trkpt>
      <trkpt lat="44.86765" lon="5.40651">
        <ele>1223</ele>
        <time>2020-05-22T10:24:01.862Z</time>
      </trkpt>
      <trkpt lat="44.86761" lon="5.40651">
        <ele>1223</ele>
        <time>2020-05-22T10:24:02.863Z</time>
      </trkpt>
      <trkpt lat="44.86757" lon="5.40651">
        <ele>1222</ele>
        <time>2020-05-22T10:24:03.862Z</time>
      </trkpt>
      <trkpt lat="44.86753" lon="5.40652">
        <ele>1222</ele>
        <time>2020-05-22T10:24:04.863Z</time>
      </trkpt>
      <trkpt lat="44.8675" lon="5.40652">
        <ele>1222</ele>
        <time>2020-05-22T10:24:05.862Z</time>
      </trkpt>
      <trkpt lat="44.86746" lon="5.40654">
        <ele>1222</ele>
        <time>2020-05-22T10:24:06.863Z</time>
      </trkpt>
      <trkpt lat="44.86741" lon="5.40656">
        <ele>1222</ele>
        <time>2020-05-22T10:24:07.862Z</time>
      </trkpt>
      <trkpt lat="44.86737" lon="5.40657">
        <ele>1222</ele>
        <time>2020-05-22T10:24:08.863Z</time>
      </trkpt>
      <trkpt lat="44.86734" lon="5.40658">
        <ele>1222</ele>
        <time>2020-05-22T10:24:09.862Z</time>
      </trkpt>
      <trkpt lat="44.86729" lon="5.40659">
        <ele>1222</ele>
        <time>2020-05-22T10:24:10.862Z</time>
      </trkpt>
      <trkpt lat="44.86725" lon="5.40661">
        <ele>1222</ele>
        <time>2020-05-22T10:24:11.862Z</time>
      </trkpt>
      <trkpt lat="44.8672" lon="5.40663">
        <ele>1222</ele>
        <time>2020-05-22T10:24:12.863Z</time>
      </trkpt>
      <trkpt lat="44.86715" lon="5.40665">
        <ele>1223</ele>
        <time>2020-05-22T10:24:13.862Z</time>
      </trkpt>
      <trkpt lat="44.86711" lon="5.40667">
        <ele>1223</ele>
        <time>2020-05-22T10:24:14.863Z</time>
      </trkpt>
      <trkpt lat="44.86706" lon="5.40669">
        <ele>1223</ele>
        <time>2020-05-22T10:24:15.862Z</time>
      </trkpt>
      <trkpt lat="44.86701" lon="5.4067">
        <ele>1224</ele>
        <time>2020-05-22T10:24:16.862Z</time>
      </trkpt>
      <trkpt lat="44.86697" lon="5.4067">
        <ele>1225</ele>
        <time>2020-05-22T10:24:17.863Z</time>
      </trkpt>
      <trkpt lat="44.86692" lon="5.4067">
        <ele>1225</ele>
        <time>2020-05-22T10:24:18.863Z</time>
      </trkpt>
      <trkpt lat="44.86687" lon="5.4067">
        <ele>1226</ele>
        <time>2020-05-22T10:24:19.863Z</time>
      </trkpt>
      <trkpt lat="44.86682" lon="5.40671">
        <ele>1226</ele>
        <time>2020-05-22T10:24:20.863Z</time>
      </trkpt>
      <trkpt lat="44.86677" lon="5.4067">
        <ele>1227</ele>
        <time>2020-05-22T10:24:21.862Z</time>
      </trkpt>
      <trkpt lat="44.86672" lon="5.40669">
        <ele>1227</ele>
        <time>2020-05-22T10:24:22.863Z</time>
      </trkpt>
      <trkpt lat="44.86668" lon="5.40669">
        <ele>1228</ele>
        <time>2020-05-22T10:24:23.863Z</time>
      </trkpt>
      <trkpt lat="44.86663" lon="5.40669">
        <ele>1228</ele>
        <time>2020-05-22T10:24:24.863Z</time>
      </trkpt>
      <trkpt lat="44.86657" lon="5.40669">
        <ele>1228</ele>
        <time>2020-05-22T10:24:25.863Z</time>
      </trkpt>
      <trkpt lat="44.86653" lon="5.40669">
        <ele>1228</ele>
        <time>2020-05-22T10:24:26.862Z</time>
      </trkpt>
      <trkpt lat="44.86648" lon="5.40669">
        <ele>1229</ele>
        <time>2020-05-22T10:24:27.863Z</time>
      </trkpt>
      <trkpt lat="44.86643" lon="5.40668">
        <ele>1229</ele>
        <time>2020-05-22T10:24:28.863Z</time>
      </trkpt>
      <trkpt lat="44.86639" lon="5.40668">
        <ele>1230</ele>
        <time>2020-05-22T10:24:29.863Z</time>
      </trkpt>
      <trkpt lat="44.86634" lon="5.40668">
        <ele>1230</ele>
        <time>2020-05-22T10:24:30.862Z</time>
      </trkpt>
      <trkpt lat="44.86629" lon="5.40668">
        <ele>1231</ele>
        <time>2020-05-22T10:24:31.863Z</time>
      </trkpt>
      <trkpt lat="44.86625" lon="5.40668">
        <ele>1232</ele>
        <time>2020-05-22T10:24:32.863Z</time>
      </trkpt>
      <trkpt lat="44.8662" lon="5.40668">
        <ele>1232</ele>
        <time>2020-05-22T10:24:33.863Z</time>
      </trkpt>
      <trkpt lat="44.86615" lon="5.40667">
        <ele>1233</ele>
        <time>2020-05-22T10:24:34.863Z</time>
      </trkpt>
      <trkpt lat="44.8661" lon="5.40667">
        <ele>1233</ele>
        <time>2020-05-22T10:24:35.863Z</time>
      </trkpt>
      <trkpt lat="44.86605" lon="5.40666">
        <ele>1233</ele>
        <time>2020-05-22T10:24:36.862Z</time>
      </trkpt>
      <trkpt lat="44.866" lon="5.40665">
        <ele>1234</ele>
        <time>2020-05-22T10:24:37.862Z</time>
      </trkpt>
      <trkpt lat="44.86595" lon="5.40664">
        <ele>1234</ele>
        <time>2020-05-22T10:24:38.862Z</time>
      </trkpt>
      <trkpt lat="44.8659" lon="5.40662">
        <ele>1234</ele>
        <time>2020-05-22T10:24:39.863Z</time>
      </trkpt>
      <trkpt lat="44.86585" lon="5.4066">
        <ele>1234</ele>
        <time>2020-05-22T10:24:40.863Z</time>
      </trkpt>
      <trkpt lat="44.86581" lon="5.40658">
        <ele>1234</ele>
        <time>2020-05-22T10:24:41.862Z</time>
      </trkpt>
      <trkpt lat="44.86576" lon="5.40656">
        <ele>1234</ele>
        <time>2020-05-22T10:24:42.863Z</time>
      </trkpt>
      <trkpt lat="44.86571" lon="5.40653">
        <ele>1233</ele>
        <time>2020-05-22T10:24:43.863Z</time>
      </trkpt>
      <trkpt lat="44.86567" lon="5.4065">
        <ele>1233</ele>
        <time>2020-05-22T10:24:44.862Z</time>
      </trkpt>
      <trkpt lat="44.86563" lon="5.40647">
        <ele>1232</ele>
        <time>2020-05-22T10:24:45.863Z</time>
      </trkpt>
      <trkpt lat="44.86559" lon="5.40644">
        <ele>1232</ele>
        <time>2020-05-22T10:24:46.863Z</time>
      </trkpt>
      <trkpt lat="44.86554" lon="5.4064">
        <ele>1231</ele>
        <time>2020-05-22T10:24:47.862Z</time>
      </trkpt>
      <trkpt lat="44.8655" lon="5.40637">
        <ele>1231</ele>
        <time>2020-05-22T10:24:48.862Z</time>
      </trkpt>
      <trkpt lat="44.86546" lon="5.40633">
        <ele>1230</ele>
        <time>2020-05-22T10:24:49.863Z</time>
      </trkpt>
      <trkpt lat="44.86541" lon="5.40629">
        <ele>1230</ele>
        <time>2020-05-22T10:24:50.863Z</time>
      </trkpt>
      <trkpt lat="44.86537" lon="5.40626">
        <ele>1230</ele>
        <time>2020-05-22T10:24:51.862Z</time>
      </trkpt>
      <trkpt lat="44.86533" lon="5.40623">
        <ele>1229</ele>
        <time>2020-05-22T10:24:52.862Z</time>
      </trkpt>
      <trkpt lat="44.86528" lon="5.40621">
        <ele>1229</ele>
        <time>2020-05-22T10:24:53.863Z</time>
      </trkpt>
      <trkpt lat="44.86523" lon="5.40618">
        <ele>1229</ele>
        <time>2020-05-22T10:24:54.862Z</time>
      </trkpt>
      <trkpt lat="44.86519" lon="5.40615">
        <ele>1228</ele>
        <time>2020-05-22T10:24:55.863Z</time>
      </trkpt>
      <trkpt lat="44.86514" lon="5.40613">
        <ele>1228</ele>
        <time>2020-05-22T10:24:56.863Z</time>
      </trkpt>
      <trkpt lat="44.86509" lon="5.40611">
        <ele>1228</ele>
        <time>2020-05-22T10:24:57.863Z</time>
      </trkpt>
      <trkpt lat="44.86505" lon="5.40609">
        <ele>1228</ele>
        <time>2020-05-22T10:24:58.863Z</time>
      </trkpt>
      <trkpt lat="44.865" lon="5.40608">
        <ele>1227</ele>
        <time>2020-05-22T10:24:59.863Z</time>
      </trkpt>
      <trkpt lat="44.86495" lon="5.40606">
        <ele>1227</ele>
        <time>2020-05-22T10:25:00.863Z</time>
      </trkpt>
      <trkpt lat="44.8649" lon="5.40604">
        <ele>1226</ele>
        <time>2020-05-22T10:25:01.863Z</time>
      </trkpt>
      <trkpt lat="44.86486" lon="5.40602">
        <ele>1226</ele>
        <time>2020-05-22T10:25:02.863Z</time>
      </trkpt>
      <trkpt lat="44.86481" lon="5.406">
        <ele>1226</ele>
        <time>2020-05-22T10:25:03.863Z</time>
      </trkpt>
      <trkpt lat="44.86475" lon="5.40597">
        <ele>1226</ele>
        <time>2020-05-22T10:25:04.863Z</time>
      </trkpt>
      <trkpt lat="44.8647" lon="5.40595">
        <ele>1226</ele>
        <time>2020-05-22T10:25:05.862Z</time>
      </trkpt>
      <trkpt lat="44.86465" lon="5.40595">
        <ele>1226</ele>
        <time>2020-05-22T10:25:06.862Z</time>
      </trkpt>
      <trkpt lat="44.86461" lon="5.40595">
        <ele>1226</ele>
        <time>2020-05-22T10:25:07.863Z</time>
      </trkpt>
      <trkpt lat="44.86456" lon="5.40596">
        <ele>1226</ele>
        <time>2020-05-22T10:25:08.862Z</time>
      </trkpt>
      <trkpt lat="44.86451" lon="5.40599">
        <ele>1226</ele>
        <time>2020-05-22T10:25:09.862Z</time>
      </trkpt>
      <trkpt lat="44.86444" lon="5.40601">
        <ele>1227</ele>
        <time>2020-05-22T10:25:10.863Z</time>
      </trkpt>
      <trkpt lat="44.86439" lon="5.40602">
        <ele>1227</ele>
        <time>2020-05-22T10:25:11.862Z</time>
      </trkpt>
      <trkpt lat="44.86434" lon="5.40604">
        <ele>1227</ele>
        <time>2020-05-22T10:25:12.862Z</time>
      </trkpt>
      <trkpt lat="44.86429" lon="5.40604">
        <ele>1227</ele>
        <time>2020-05-22T10:25:13.863Z</time>
      </trkpt>
      <trkpt lat="44.86424" lon="5.40605">
        <ele>1228</ele>
        <time>2020-05-22T10:25:14.863Z</time>
      </trkpt>
      <trkpt lat="44.86419" lon="5.40605">
        <ele>1228</ele>
        <time>2020-05-22T10:25:15.863Z</time>
      </trkpt>
      <trkpt lat="44.86415" lon="5.40605">
        <ele>1228</ele>
        <time>2020-05-22T10:25:16.863Z</time>
      </trkpt>
      <trkpt lat="44.8641" lon="5.40605">
        <ele>1228</ele>
        <time>2020-05-22T10:25:17.862Z</time>
      </trkpt>
      <trkpt lat="44.86406" lon="5.40605">
        <ele>1228</ele>
        <time>2020-05-22T10:25:18.862Z</time>
      </trkpt>
      <trkpt lat="44.86401" lon="5.40605">
        <ele>1228</ele>
        <time>2020-05-22T10:25:19.863Z</time>
      </trkpt>
      <trkpt lat="44.86396" lon="5.40605">
        <ele>1228</ele>
        <time>2020-05-22T10:25:20.863Z</time>
      </trkpt>
      <trkpt lat="44.86391" lon="5.40604">
        <ele>1228</ele>
        <time>2020-05-22T10:25:21.862Z</time>
      </trkpt>
      <trkpt lat="44.86386" lon="5.40603">
        <ele>1228</ele>
        <time>2020-05-22T10:25:22.862Z</time>
      </trkpt>
      <trkpt lat="44.86382" lon="5.40602">
        <ele>1228</ele>
        <time>2020-05-22T10:25:23.863Z</time>
      </trkpt>
      <trkpt lat="44.86377" lon="5.40601">
        <ele>1228</ele>
        <time>2020-05-22T10:25:24.863Z</time>
      </trkpt>
      <trkpt lat="44.86373" lon="5.406">
        <ele>1228</ele>
        <time>2020-05-22T10:25:25.863Z</time>
      </trkpt>
      <trkpt lat="44.86368" lon="5.40598">
        <ele>1229</ele>
        <time>2020-05-22T10:25:26.862Z</time>
      </trkpt>
      <trkpt lat="44.86364" lon="5.40597">
        <ele>1229</ele>
        <time>2020-05-22T10:25:27.863Z</time>
      </trkpt>
      <trkpt lat="44.86359" lon="5.40595">
        <ele>1228</ele>
        <time>2020-05-22T10:25:28.863Z</time>
      </trkpt>
      <trkpt lat="44.86355" lon="5.40594">
        <ele>1228</ele>
        <time>2020-05-22T10:25:29.862Z</time>
      </trkpt>
      <trkpt lat="44.86352" lon="5.40593">
        <ele>1228</ele>
        <time>2020-05-22T10:25:30.863Z</time>
      </trkpt>
      <trkpt lat="44.86347" lon="5.4059">
        <ele>1228</ele>
        <time>2020-05-22T10:25:31.863Z</time>
      </trkpt>
      <trkpt lat="44.86342" lon="5.40589">
        <ele>1227</ele>
        <time>2020-05-22T10:25:32.863Z</time>
      </trkpt>
      <trkpt lat="44.86338" lon="5.40588">
        <ele>1227</ele>
        <time>2020-05-22T10:25:33.863Z</time>
      </trkpt>
      <trkpt lat="44.86333" lon="5.40587">
        <ele>1227</ele>
        <time>2020-05-22T10:25:34.863Z</time>
      </trkpt>
      <trkpt lat="44.8633" lon="5.40586">
        <ele>1227</ele>
        <time>2020-05-22T10:25:35.863Z</time>
      </trkpt>
      <trkpt lat="44.86324" lon="5.40584">
        <ele>1227</ele>
        <time>2020-05-22T10:25:36.863Z</time>
      </trkpt>
      <trkpt lat="44.8632" lon="5.40583">
        <ele>1227</ele>
        <time>2020-05-22T10:25:37.863Z</time>
      </trkpt>
      <trkpt lat="44.86316" lon="5.40582">
        <ele>1227</ele>
        <time>2020-05-22T10:25:38.862Z</time>
      </trkpt>
      <trkpt lat="44.86312" lon="5.40581">
        <ele>1227</ele>
        <time>2020-05-22T10:25:39.862Z</time>
      </trkpt>
      <trkpt lat="44.86307" lon="5.40579">
        <ele>1226</ele>
        <time>2020-05-22T10:25:40.862Z</time>
      </trkpt>
      <trkpt lat="44.86304" lon="5.40578">
        <ele>1226</ele>
        <time>2020-05-22T10:25:41.862Z</time>
      </trkpt>
      <trkpt lat="44.86299" lon="5.40576">
        <ele>1226</ele>
        <time>2020-05-22T10:25:42.863Z</time>
      </trkpt>
      <trkpt lat="44.86295" lon="5.40575">
        <ele>1226</ele>
        <time>2020-05-22T10:25:43.862Z</time>
      </trkpt>
      <trkpt lat="44.86291" lon="5.40574">
        <ele>1226</ele>
        <time>2020-05-22T10:25:44.863Z</time>
      </trkpt>
      <trkpt lat="44.86287" lon="5.40573">
        <ele>1226</ele>
        <time>2020-05-22T10:25:45.862Z</time>
      </trkpt>
      <trkpt lat="44.86283" lon="5.40573">
        <ele>1225</ele>
        <time>2020-05-22T10:25:46.862Z</time>
      </trkpt>
      <trkpt lat="44.86278" lon="5.40572">
        <ele>1225</ele>
        <time>2020-05-22T10:25:47.863Z</time>
      </trkpt>
      <trkpt lat="44.86274" lon="5.40571">
        <ele>1225</ele>
        <time>2020-05-22T10:25:48.863Z</time>
      </trkpt>
      <trkpt lat="44.86271" lon="5.4057">
        <ele>1225</ele>
        <time>2020-05-22T10:25:49.862Z</time>
      </trkpt>
      <trkpt lat="44.86267" lon="5.40569">
        <ele>1225</ele>
        <time>2020-05-22T10:25:50.862Z</time>
      </trkpt>
      <trkpt lat="44.86262" lon="5.40569">
        <ele>1226</ele>
        <time>2020-05-22T10:25:51.863Z</time>
      </trkpt>
      <trkpt lat="44.86257" lon="5.40568">
        <ele>1226</ele>
        <time>2020-05-22T10:25:52.862Z</time>
      </trkpt>
      <trkpt lat="44.86253" lon="5.40568">
        <ele>1226</ele>
        <time>2020-05-22T10:25:53.863Z</time>
      </trkpt>
      <trkpt lat="44.86249" lon="5.40567">
        <ele>1226</ele>
        <time>2020-05-22T10:25:54.862Z</time>
      </trkpt>
      <trkpt lat="44.86243" lon="5.40566">
        <ele>1226</ele>
        <time>2020-05-22T10:25:55.862Z</time>
      </trkpt>
      <trkpt lat="44.86239" lon="5.40565">
        <ele>1225</ele>
        <time>2020-05-22T10:25:56.863Z</time>
      </trkpt>
      <trkpt lat="44.86234" lon="5.40564">
        <ele>1225</ele>
        <time>2020-05-22T10:25:57.862Z</time>
      </trkpt>
      <trkpt lat="44.8623" lon="5.40563">
        <ele>1224</ele>
        <time>2020-05-22T10:25:58.863Z</time>
      </trkpt>
      <trkpt lat="44.86226" lon="5.40561">
        <ele>1224</ele>
        <time>2020-05-22T10:25:59.862Z</time>
      </trkpt>
      <trkpt lat="44.8622" lon="5.40559">
        <ele>1224</ele>
        <time>2020-05-22T10:26:00.863Z</time>
      </trkpt>
      <trkpt lat="44.86215" lon="5.40557">
        <ele>1224</ele>
        <time>2020-05-22T10:26:01.863Z</time>
      </trkpt>
      <trkpt lat="44.86211" lon="5.40556">
        <ele>1223</ele>
        <time>2020-05-22T10:26:02.863Z</time>
      </trkpt>
      <trkpt lat="44.86206" lon="5.40554">
        <ele>1223</ele>
        <time>2020-05-22T10:26:03.863Z</time>
      </trkpt>
      <trkpt lat="44.86202" lon="5.40553">
        <ele>1223</ele>
        <time>2020-05-22T10:26:04.863Z</time>
      </trkpt>
      <trkpt lat="44.86198" lon="5.40551">
        <ele>1223</ele>
        <time>2020-05-22T10:26:05.863Z</time>
      </trkpt>
      <trkpt lat="44.86192" lon="5.40548">
        <ele>1223</ele>
        <time>2020-05-22T10:26:06.862Z</time>
      </trkpt>
      <trkpt lat="44.86188" lon="5.40546">
        <ele>1224</ele>
        <time>2020-05-22T10:26:07.862Z</time>
      </trkpt>
      <trkpt lat="44.86183" lon="5.40545">
        <ele>1224</ele>
        <time>2020-05-22T10:26:08.862Z</time>
      </trkpt>
      <trkpt lat="44.8618" lon="5.40544">
        <ele>1224</ele>
        <time>2020-05-22T10:26:09.863Z</time>
      </trkpt>
      <trkpt lat="44.86174" lon="5.40542">
        <ele>1225</ele>
        <time>2020-05-22T10:26:10.863Z</time>
      </trkpt>
      <trkpt lat="44.8617" lon="5.40541">
        <ele>1225</ele>
        <time>2020-05-22T10:26:11.862Z</time>
      </trkpt>
      <trkpt lat="44.86166" lon="5.4054">
        <ele>1224</ele>
        <time>2020-05-22T10:26:12.863Z</time>
      </trkpt>
      <trkpt lat="44.86162" lon="5.40538">
        <ele>1224</ele>
        <time>2020-05-22T10:26:13.863Z</time>
      </trkpt>
      <trkpt lat="44.86158" lon="5.40536">
        <ele>1224</ele>
        <time>2020-05-22T10:26:14.863Z</time>
      </trkpt>
      <trkpt lat="44.86154" lon="5.40535">
        <ele>1223</ele>
        <time>2020-05-22T10:26:15.863Z</time>
      </trkpt>
      <trkpt lat="44.8615" lon="5.40533">
        <ele>1223</ele>
        <time>2020-05-22T10:26:16.863Z</time>
      </trkpt>
      <trkpt lat="44.86145" lon="5.40531">
        <ele>1223</ele>
        <time>2020-05-22T10:26:17.862Z</time>
      </trkpt>
      <trkpt lat="44.86142" lon="5.40529">
        <ele>1222</ele>
        <time>2020-05-22T10:26:18.862Z</time>
      </trkpt>
      <trkpt lat="44.86137" lon="5.40527">
        <ele>1222</ele>
        <time>2020-05-22T10:26:19.862Z</time>
      </trkpt>
      <trkpt lat="44.86133" lon="5.40525">
        <ele>1222</ele>
        <time>2020-05-22T10:26:20.863Z</time>
      </trkpt>
      <trkpt lat="44.86128" lon="5.40522">
        <ele>1221</ele>
        <time>2020-05-22T10:26:21.863Z</time>
      </trkpt>
      <trkpt lat="44.86124" lon="5.40521">
        <ele>1221</ele>
        <time>2020-05-22T10:26:22.862Z</time>
      </trkpt>
      <trkpt lat="44.8612" lon="5.40518">
        <ele>1221</ele>
        <time>2020-05-22T10:26:23.863Z</time>
      </trkpt>
      <trkpt lat="44.86117" lon="5.40516">
        <ele>1221</ele>
        <time>2020-05-22T10:26:24.862Z</time>
      </trkpt>
      <trkpt lat="44.86112" lon="5.40513">
        <ele>1221</ele>
        <time>2020-05-22T10:26:25.863Z</time>
      </trkpt>
      <trkpt lat="44.86107" lon="5.40511">
        <ele>1221</ele>
        <time>2020-05-22T10:26:26.862Z</time>
      </trkpt>
      <trkpt lat="44.86103" lon="5.40509">
        <ele>1221</ele>
        <time>2020-05-22T10:26:27.862Z</time>
      </trkpt>
      <trkpt lat="44.86099" lon="5.40507">
        <ele>1221</ele>
        <time>2020-05-22T10:26:28.863Z</time>
      </trkpt>
      <trkpt lat="44.86094" lon="5.40505">
        <ele>1221</ele>
        <time>2020-05-22T10:26:29.863Z</time>
      </trkpt>
      <trkpt lat="44.8609" lon="5.40503">
        <ele>1220</ele>
        <time>2020-05-22T10:26:30.863Z</time>
      </trkpt>
      <trkpt lat="44.86085" lon="5.40503">
        <ele>1220</ele>
        <time>2020-05-22T10:26:31.863Z</time>
      </trkpt>
      <trkpt lat="44.8608" lon="5.40502">
        <ele>1220</ele>
        <time>2020-05-22T10:26:32.863Z</time>
      </trkpt>
      <trkpt lat="44.86077" lon="5.40502">
        <ele>1220</ele>
        <time>2020-05-22T10:26:33.863Z</time>
      </trkpt>
      <trkpt lat="44.86071" lon="5.40502">
        <ele>1221</ele>
        <time>2020-05-22T10:26:34.863Z</time>
      </trkpt>
      <trkpt lat="44.86067" lon="5.40501">
        <ele>1221</ele>
        <time>2020-05-22T10:26:35.862Z</time>
      </trkpt>
      <trkpt lat="44.86062" lon="5.40501">
        <ele>1221</ele>
        <time>2020-05-22T10:26:36.863Z</time>
      </trkpt>
      <trkpt lat="44.86057" lon="5.40501">
        <ele>1222</ele>
        <time>2020-05-22T10:26:37.863Z</time>
      </trkpt>
      <trkpt lat="44.86052" lon="5.40501">
        <ele>1222</ele>
        <time>2020-05-22T10:26:38.862Z</time>
      </trkpt>
      <trkpt lat="44.86048" lon="5.40501">
        <ele>1223</ele>
        <time>2020-05-22T10:26:39.862Z</time>
      </trkpt>
      <trkpt lat="44.86042" lon="5.405">
        <ele>1223</ele>
        <time>2020-05-22T10:26:40.863Z</time>
      </trkpt>
      <trkpt lat="44.86038" lon="5.405">
        <ele>1224</ele>
        <time>2020-05-22T10:26:41.863Z</time>
      </trkpt>
      <trkpt lat="44.86032" lon="5.40499">
        <ele>1224</ele>
        <time>2020-05-22T10:26:42.863Z</time>
      </trkpt>
      <trkpt lat="44.86028" lon="5.40498">
        <ele>1225</ele>
        <time>2020-05-22T10:26:43.863Z</time>
      </trkpt>
      <trkpt lat="44.86023" lon="5.40496">
        <ele>1225</ele>
        <time>2020-05-22T10:26:44.862Z</time>
      </trkpt>
      <trkpt lat="44.86019" lon="5.40494">
        <ele>1225</ele>
        <time>2020-05-22T10:26:45.863Z</time>
      </trkpt>
      <trkpt lat="44.86015" lon="5.40491">
        <ele>1225</ele>
        <time>2020-05-22T10:26:46.863Z</time>
      </trkpt>
      <trkpt lat="44.86011" lon="5.40488">
        <ele>1225</ele>
        <time>2020-05-22T10:26:47.863Z</time>
      </trkpt>
      <trkpt lat="44.86007" lon="5.40485">
        <ele>1224</ele>
        <time>2020-05-22T10:26:48.862Z</time>
      </trkpt>
      <trkpt lat="44.86003" lon="5.40481">
        <ele>1224</ele>
        <time>2020-05-22T10:26:49.863Z</time>
      </trkpt>
      <trkpt lat="44.85999" lon="5.40477">
        <ele>1223</ele>
        <time>2020-05-22T10:26:50.862Z</time>
      </trkpt>
      <trkpt lat="44.85997" lon="5.40473">
        <ele>1223</ele>
        <time>2020-05-22T10:26:51.863Z</time>
      </trkpt>
      <trkpt lat="44.85993" lon="5.40469">
        <ele>1223</ele>
        <time>2020-05-22T10:26:52.863Z</time>
      </trkpt>
      <trkpt lat="44.85989" lon="5.40467">
        <ele>1223</ele>
        <time>2020-05-22T10:26:53.863Z</time>
      </trkpt>
      <trkpt lat="44.85984" lon="5.40465">
        <ele>1223</ele>
        <time>2020-05-22T10:26:54.863Z</time>
      </trkpt>
      <trkpt lat="44.8598" lon="5.40462">
        <ele>1223</ele>
        <time>2020-05-22T10:26:55.863Z</time>
      </trkpt>
      <trkpt lat="44.85976" lon="5.40461">
        <ele>1223</ele>
        <time>2020-05-22T10:26:56.862Z</time>
      </trkpt>
      <trkpt lat="44.85971" lon="5.40459">
        <ele>1223</ele>
        <time>2020-05-22T10:26:57.863Z</time>
      </trkpt>
      <trkpt lat="44.85966" lon="5.40459">
        <ele>1224</ele>
        <time>2020-05-22T10:26:58.863Z</time>
      </trkpt>
      <trkpt lat="44.85961" lon="5.40457">
        <ele>1224</ele>
        <time>2020-05-22T10:26:59.863Z</time>
      </trkpt>
      <trkpt lat="44.85956" lon="5.40456">
        <ele>1224</ele>
        <time>2020-05-22T10:27:00.862Z</time>
      </trkpt>
      <trkpt lat="44.85953" lon="5.40456">
        <ele>1224</ele>
        <time>2020-05-22T10:27:01.863Z</time>
      </trkpt>
      <trkpt lat="44.85947" lon="5.40456">
        <ele>1224</ele>
        <time>2020-05-22T10:27:02.863Z</time>
      </trkpt>
      <trkpt lat="44.85941" lon="5.40457">
        <ele>1224</ele>
        <time>2020-05-22T10:27:03.862Z</time>
      </trkpt>
      <trkpt lat="44.85936" lon="5.40458">
        <ele>1225</ele>
        <time>2020-05-22T10:27:04.863Z</time>
      </trkpt>
      <trkpt lat="44.8593" lon="5.40459">
        <ele>1225</ele>
        <time>2020-05-22T10:27:05.863Z</time>
      </trkpt>
      <trkpt lat="44.85925" lon="5.4046">
        <ele>1226</ele>
        <time>2020-05-22T10:27:06.863Z</time>
      </trkpt>
      <trkpt lat="44.8592" lon="5.40461">
        <ele>1226</ele>
        <time>2020-05-22T10:27:07.863Z</time>
      </trkpt>
      <trkpt lat="44.85914" lon="5.40461">
        <ele>1227</ele>
        <time>2020-05-22T10:27:08.863Z</time>
      </trkpt>
      <trkpt lat="44.85909" lon="5.4046">
        <ele>1227</ele>
        <time>2020-05-22T10:27:09.862Z</time>
      </trkpt>
      <trkpt lat="44.85906" lon="5.4046">
        <ele>1228</ele>
        <time>2020-05-22T10:27:10.862Z</time>
      </trkpt>
      <trkpt lat="44.85902" lon="5.4046">
        <ele>1228</ele>
        <time>2020-05-22T10:27:11.862Z</time>
      </trkpt>
      <trkpt lat="44.85896" lon="5.40461">
        <ele>1227</ele>
        <time>2020-05-22T10:27:12.863Z</time>
      </trkpt>
      <trkpt lat="44.85891" lon="5.40461">
        <ele>1227</ele>
        <time>2020-05-22T10:27:13.863Z</time>
      </trkpt>
      <trkpt lat="44.85886" lon="5.40461">
        <ele>1227</ele>
        <time>2020-05-22T10:27:14.863Z</time>
      </trkpt>
      <trkpt lat="44.85882" lon="5.4046">
        <ele>1227</ele>
        <time>2020-05-22T10:27:15.862Z</time>
      </trkpt>
      <trkpt lat="44.85877" lon="5.4046">
        <ele>1227</ele>
        <time>2020-05-22T10:27:16.863Z</time>
      </trkpt>
      <trkpt lat="44.85872" lon="5.4046">
        <ele>1227</ele>
        <time>2020-05-22T10:27:17.863Z</time>
      </trkpt>
      <trkpt lat="44.85867" lon="5.40461">
        <ele>1227</ele>
        <time>2020-05-22T10:27:18.863Z</time>
      </trkpt>
      <trkpt lat="44.85862" lon="5.40463">
        <ele>1228</ele>
        <time>2020-05-22T10:27:19.862Z</time>
      </trkpt>
      <trkpt lat="44.85857" lon="5.40464">
        <ele>1228</ele>
        <time>2020-05-22T10:27:20.862Z</time>
      </trkpt>
      <trkpt lat="44.85853" lon="5.40464">
        <ele>1228</ele>
        <time>2020-05-22T10:27:21.862Z</time>
      </trkpt>
      <trkpt lat="44.85849" lon="5.40463">
        <ele>1228</ele>
        <time>2020-05-22T10:27:22.863Z</time>
      </trkpt>
      <trkpt lat="44.85843" lon="5.40463">
        <ele>1228</ele>
        <time>2020-05-22T10:27:23.862Z</time>
      </trkpt>
      <trkpt lat="44.85838" lon="5.40462">
        <ele>1229</ele>
        <time>2020-05-22T10:27:24.862Z</time>
      </trkpt>
      <trkpt lat="44.85834" lon="5.4046">
        <ele>1229</ele>
        <time>2020-05-22T10:27:25.862Z</time>
      </trkpt>
      <trkpt lat="44.8583" lon="5.40458">
        <ele>1230</ele>
        <time>2020-05-22T10:27:26.863Z</time>
      </trkpt>
      <trkpt lat="44.85826" lon="5.40457">
        <ele>1230</ele>
        <time>2020-05-22T10:27:27.863Z</time>
      </trkpt>
      <trkpt lat="44.85822" lon="5.40454">
        <ele>1230</ele>
        <time>2020-05-22T10:27:28.863Z</time>
      </trkpt>
      <trkpt lat="44.85819" lon="5.40452">
        <ele>1231</ele>
        <time>2020-05-22T10:27:29.863Z</time>
      </trkpt>
      <trkpt lat="44.85815" lon="5.4045">
        <ele>1231</ele>
        <time>2020-05-22T10:27:30.863Z</time>
      </trkpt>
      <trkpt lat="44.8581" lon="5.40447">
        <ele>1231</ele>
        <time>2020-05-22T10:27:31.862Z</time>
      </trkpt>
      <trkpt lat="44.85806" lon="5.40444">
        <ele>1231</ele>
        <time>2020-05-22T10:27:32.862Z</time>
      </trkpt>
      <trkpt lat="44.85802" lon="5.40442">
        <ele>1231</ele>
        <time>2020-05-22T10:27:33.863Z</time>
      </trkpt>
      <trkpt lat="44.85798" lon="5.40441">
        <ele>1232</ele>
        <time>2020-05-22T10:27:34.863Z</time>
      </trkpt>
      <trkpt lat="44.85793" lon="5.4044">
        <ele>1232</ele>
        <time>2020-05-22T10:27:35.862Z</time>
      </trkpt>
      <trkpt lat="44.85789" lon="5.40439">
        <ele>1232</ele>
        <time>2020-05-22T10:27:36.863Z</time>
      </trkpt>
      <trkpt lat="44.85785" lon="5.40439">
        <ele>1232</ele>
        <time>2020-05-22T10:27:37.863Z</time>
      </trkpt>
      <trkpt lat="44.8578" lon="5.40439">
        <ele>1232</ele>
        <time>2020-05-22T10:27:38.862Z</time>
      </trkpt>
      <trkpt lat="44.85775" lon="5.40439">
        <ele>1232</ele>
        <time>2020-05-22T10:27:39.863Z</time>
      </trkpt>
      <trkpt lat="44.85771" lon="5.40439">
        <ele>1232</ele>
        <time>2020-05-22T10:27:40.862Z</time>
      </trkpt>
      <trkpt lat="44.85766" lon="5.4044">
        <ele>1233</ele>
        <time>2020-05-22T10:27:41.863Z</time>
      </trkpt>
      <trkpt lat="44.85762" lon="5.40441">
        <ele>1233</ele>
        <time>2020-05-22T10:27:42.863Z</time>
      </trkpt>
      <trkpt lat="44.85758" lon="5.40442">
        <ele>1233</ele>
        <time>2020-05-22T10:27:43.863Z</time>
      </trkpt>
      <trkpt lat="44.85755" lon="5.40443">
        <ele>1234</ele>
        <time>2020-05-22T10:27:44.862Z</time>
      </trkpt>
      <trkpt lat="44.8575" lon="5.40445">
        <ele>1234</ele>
        <time>2020-05-22T10:27:45.862Z</time>
      </trkpt>
      <trkpt lat="44.85746" lon="5.40447">
        <ele>1235</ele>
        <time>2020-05-22T10:27:46.863Z</time>
      </trkpt>
      <trkpt lat="44.85743" lon="5.40448">
        <ele>1235</ele>
        <time>2020-05-22T10:27:47.863Z</time>
      </trkpt>
      <trkpt lat="44.85739" lon="5.4045">
        <ele>1235</ele>
        <time>2020-05-22T10:27:48.862Z</time>
      </trkpt>
      <trkpt lat="44.85736" lon="5.40451">
        <ele>1235</ele>
        <time>2020-05-22T10:27:49.862Z</time>
      </trkpt>
      <trkpt lat="44.85731" lon="5.40452">
        <ele>1236</ele>
        <time>2020-05-22T10:27:50.863Z</time>
      </trkpt>
      <trkpt lat="44.85727" lon="5.40453">
        <ele>1236</ele>
        <time>2020-05-22T10:27:51.863Z</time>
      </trkpt>
      <trkpt lat="44.85724" lon="5.40453">
        <ele>1236</ele>
        <time>2020-05-22T10:27:52.863Z</time>
      </trkpt>
      <trkpt lat="44.85719" lon="5.40453">
        <ele>1237</ele>
        <time>2020-05-22T10:27:53.862Z</time>
      </trkpt>
      <trkpt lat="44.85715" lon="5.40454">
        <ele>1237</ele>
        <time>2020-05-22T10:27:54.862Z</time>
      </trkpt>
      <trkpt lat="44.85711" lon="5.40454">
        <ele>1237</ele>
        <time>2020-05-22T10:27:55.863Z</time>
      </trkpt>
      <trkpt lat="44.85706" lon="5.40454">
        <ele>1237</ele>
        <time>2020-05-22T10:27:56.863Z</time>
      </trkpt>
      <trkpt lat="44.85703" lon="5.40453">
        <ele>1237</ele>
        <time>2020-05-22T10:27:57.862Z</time>
      </trkpt>
      <trkpt lat="44.85697" lon="5.40451">
        <ele>1237</ele>
        <time>2020-05-22T10:27:58.863Z</time>
      </trkpt>
      <trkpt lat="44.85693" lon="5.40449">
        <ele>1237</ele>
        <time>2020-05-22T10:27:59.863Z</time>
      </trkpt>
      <trkpt lat="44.85689" lon="5.40446">
        <ele>1237</ele>
        <time>2020-05-22T10:28:00.862Z</time>
      </trkpt>
      <trkpt lat="44.85685" lon="5.40443">
        <ele>1237</ele>
        <time>2020-05-22T10:28:01.863Z</time>
      </trkpt>
      <trkpt lat="44.85681" lon="5.40439">
        <ele>1237</ele>
        <time>2020-05-22T10:28:02.862Z</time>
      </trkpt>
      <trkpt lat="44.85677" lon="5.40435">
        <ele>1237</ele>
        <time>2020-05-22T10:28:03.863Z</time>
      </trkpt>
      <trkpt lat="44.85674" lon="5.40431">
        <ele>1237</ele>
        <time>2020-05-22T10:28:04.862Z</time>
      </trkpt>
      <trkpt lat="44.8567" lon="5.40427">
        <ele>1237</ele>
        <time>2020-05-22T10:28:05.862Z</time>
      </trkpt>
      <trkpt lat="44.85666" lon="5.40423">
        <ele>1237</ele>
        <time>2020-05-22T10:28:06.863Z</time>
      </trkpt>
      <trkpt lat="44.85662" lon="5.40421">
        <ele>1237</ele>
        <time>2020-05-22T10:28:07.862Z</time>
      </trkpt>
      <trkpt lat="44.85657" lon="5.40419">
        <ele>1236</ele>
        <time>2020-05-22T10:28:08.863Z</time>
      </trkpt>
      <trkpt lat="44.85654" lon="5.40415">
        <ele>1236</ele>
        <time>2020-05-22T10:28:09.862Z</time>
      </trkpt>
      <trkpt lat="44.8565" lon="5.40411">
        <ele>1236</ele>
        <time>2020-05-22T10:28:10.862Z</time>
      </trkpt>
      <trkpt lat="44.85647" lon="5.40408">
        <ele>1235</ele>
        <time>2020-05-22T10:28:11.862Z</time>
      </trkpt>
      <trkpt lat="44.85643" lon="5.40406">
        <ele>1235</ele>
        <time>2020-05-22T10:28:12.862Z</time>
      </trkpt>
      <trkpt lat="44.85639" lon="5.40404">
        <ele>1234</ele>
        <time>2020-05-22T10:28:13.862Z</time>
      </trkpt>
      <trkpt lat="44.85634" lon="5.40403">
        <ele>1234</ele>
        <time>2020-05-22T10:28:14.862Z</time>
      </trkpt>
      <trkpt lat="44.85629" lon="5.40402">
        <ele>1234</ele>
        <time>2020-05-22T10:28:15.862Z</time>
      </trkpt>
      <trkpt lat="44.85624" lon="5.40403">
        <ele>1234</ele>
        <time>2020-05-22T10:28:16.863Z</time>
      </trkpt>
      <trkpt lat="44.8562" lon="5.40403">
        <ele>1234</ele>
        <time>2020-05-22T10:28:17.863Z</time>
      </trkpt>
      <trkpt lat="44.85614" lon="5.40404">
        <ele>1234</ele>
        <time>2020-05-22T10:28:18.862Z</time>
      </trkpt>
      <trkpt lat="44.8561" lon="5.40406">
        <ele>1234</ele>
        <time>2020-05-22T10:28:19.862Z</time>
      </trkpt>
      <trkpt lat="44.85606" lon="5.40409">
        <ele>1234</ele>
        <time>2020-05-22T10:28:20.863Z</time>
      </trkpt>
      <trkpt lat="44.85602" lon="5.4041">
        <ele>1234</ele>
        <time>2020-05-22T10:28:21.862Z</time>
      </trkpt>
      <trkpt lat="44.85599" lon="5.40411">
        <ele>1234</ele>
        <time>2020-05-22T10:28:22.863Z</time>
      </trkpt>
      <trkpt lat="44.85595" lon="5.40413">
        <ele>1235</ele>
        <time>2020-05-22T10:28:23.862Z</time>
      </trkpt>
      <trkpt lat="44.85591" lon="5.40415">
        <ele>1235</ele>
        <time>2020-05-22T10:28:24.862Z</time>
      </trkpt>
      <trkpt lat="44.85587" lon="5.40416">
        <ele>1235</ele>
        <time>2020-05-22T10:28:25.862Z</time>
      </trkpt>
      <trkpt lat="44.85583" lon="5.40418">
        <ele>1235</ele>
        <time>2020-05-22T10:28:26.862Z</time>
      </trkpt>
      <trkpt lat="44.85578" lon="5.40421">
        <ele>1235</ele>
        <time>2020-05-22T10:28:27.862Z</time>
      </trkpt>
      <trkpt lat="44.85574" lon="5.40424">
        <ele>1235</ele>
        <time>2020-05-22T10:28:28.863Z</time>
      </trkpt>
      <trkpt lat="44.8557" lon="5.40427">
        <ele>1235</ele>
        <time>2020-05-22T10:28:29.862Z</time>
      </trkpt>
      <trkpt lat="44.85565" lon="5.4043">
        <ele>1235</ele>
        <time>2020-05-22T10:28:30.862Z</time>
      </trkpt>
      <trkpt lat="44.85561" lon="5.40431">
        <ele>1235</ele>
        <time>2020-05-22T10:28:31.862Z</time>
      </trkpt>
      <trkpt lat="44.85556" lon="5.40432">
        <ele>1235</ele>
        <time>2020-05-22T10:28:32.863Z</time>
      </trkpt>
      <trkpt lat="44.85552" lon="5.40435">
        <ele>1235</ele>
        <time>2020-05-22T10:28:33.862Z</time>
      </trkpt>
      <trkpt lat="44.85547" lon="5.40437">
        <ele>1235</ele>
        <time>2020-05-22T10:28:34.862Z</time>
      </trkpt>
      <trkpt lat="44.85544" lon="5.40439">
        <ele>1235</ele>
        <time>2020-05-22T10:28:35.862Z</time>
      </trkpt>
      <trkpt lat="44.85539" lon="5.40441">
        <ele>1236</ele>
        <time>2020-05-22T10:28:36.862Z</time>
      </trkpt>
      <trkpt lat="44.85535" lon="5.40442">
        <ele>1236</ele>
        <time>2020-05-22T10:28:37.863Z</time>
      </trkpt>
      <trkpt lat="44.85531" lon="5.40443">
        <ele>1236</ele>
        <time>2020-05-22T10:28:38.862Z</time>
      </trkpt>
      <trkpt lat="44.85527" lon="5.40444">
        <ele>1236</ele>
        <time>2020-05-22T10:28:39.862Z</time>
      </trkpt>
      <trkpt lat="44.85523" lon="5.40445">
        <ele>1236</ele>
        <time>2020-05-22T10:28:40.863Z</time>
      </trkpt>
      <trkpt lat="44.85518" lon="5.40447">
        <ele>1237</ele>
        <time>2020-05-22T10:28:41.862Z</time>
      </trkpt>
      <trkpt lat="44.85514" lon="5.40447">
        <ele>1237</ele>
        <time>2020-05-22T10:28:42.863Z</time>
      </trkpt>
      <trkpt lat="44.85509" lon="5.40447">
        <ele>1237</ele>
        <time>2020-05-22T10:28:43.862Z</time>
      </trkpt>
      <trkpt lat="44.85504" lon="5.40447">
        <ele>1237</ele>
        <time>2020-05-22T10:28:44.862Z</time>
      </trkpt>
      <trkpt lat="44.85499" lon="5.40448">
        <ele>1236</ele>
        <time>2020-05-22T10:28:45.863Z</time>
      </trkpt>
      <trkpt lat="44.85494" lon="5.40449">
        <ele>1236</ele>
        <time>2020-05-22T10:28:46.863Z</time>
      </trkpt>
      <trkpt lat="44.85489" lon="5.40451">
        <ele>1236</ele>
        <time>2020-05-22T10:28:47.863Z</time>
      </trkpt>
      <trkpt lat="44.85484" lon="5.40451">
        <ele>1236</ele>
        <time>2020-05-22T10:28:48.862Z</time>
      </trkpt>
      <trkpt lat="44.85479" lon="5.40452">
        <ele>1236</ele>
        <time>2020-05-22T10:28:49.863Z</time>
      </trkpt>
      <trkpt lat="44.85474" lon="5.40452">
        <ele>1236</ele>
        <time>2020-05-22T10:28:50.862Z</time>
      </trkpt>
      <trkpt lat="44.85468" lon="5.40452">
        <ele>1236</ele>
        <time>2020-05-22T10:28:51.862Z</time>
      </trkpt>
      <trkpt lat="44.85464" lon="5.40452">
        <ele>1236</ele>
        <time>2020-05-22T10:28:52.862Z</time>
      </trkpt>
      <trkpt lat="44.85458" lon="5.40453">
        <ele>1236</ele>
        <time>2020-05-22T10:28:53.863Z</time>
      </trkpt>
      <trkpt lat="44.85453" lon="5.40453">
        <ele>1236</ele>
        <time>2020-05-22T10:28:54.863Z</time>
      </trkpt>
      <trkpt lat="44.85448" lon="5.40453">
        <ele>1236</ele>
        <time>2020-05-22T10:28:55.862Z</time>
      </trkpt>
      <trkpt lat="44.85443" lon="5.40453">
        <ele>1236</ele>
        <time>2020-05-22T10:28:56.862Z</time>
      </trkpt>
      <trkpt lat="44.85439" lon="5.40452">
        <ele>1236</ele>
        <time>2020-05-22T10:28:57.862Z</time>
      </trkpt>
      <trkpt lat="44.85435" lon="5.40451">
        <ele>1236</ele>
        <time>2020-05-22T10:28:58.862Z</time>
      </trkpt>
      <trkpt lat="44.8543" lon="5.4045">
        <ele>1236</ele>
        <time>2020-05-22T10:28:59.862Z</time>
      </trkpt>
      <trkpt lat="44.85426" lon="5.40449">
        <ele>1236</ele>
        <time>2020-05-22T10:29:00.862Z</time>
      </trkpt>
      <trkpt lat="44.85421" lon="5.40447">
        <ele>1236</ele>
        <time>2020-05-22T10:29:01.862Z</time>
      </trkpt>
      <trkpt lat="44.85416" lon="5.40446">
        <ele>1236</ele>
        <time>2020-05-22T10:29:02.862Z</time>
      </trkpt>
      <trkpt lat="44.85412" lon="5.40445">
        <ele>1235</ele>
        <time>2020-05-22T10:29:03.862Z</time>
      </trkpt>
      <trkpt lat="44.85407" lon="5.40444">
        <ele>1235</ele>
        <time>2020-05-22T10:29:04.862Z</time>
      </trkpt>
      <trkpt lat="44.85402" lon="5.40442">
        <ele>1235</ele>
        <time>2020-05-22T10:29:05.862Z</time>
      </trkpt>
      <trkpt lat="44.85398" lon="5.40441">
        <ele>1234</ele>
        <time>2020-05-22T10:29:06.863Z</time>
      </trkpt>
      <trkpt lat="44.85393" lon="5.40439">
        <ele>1234</ele>
        <time>2020-05-22T10:29:07.863Z</time>
      </trkpt>
      <trkpt lat="44.85389" lon="5.40437">
        <ele>1234</ele>
        <time>2020-05-22T10:29:08.862Z</time>
      </trkpt>
      <trkpt lat="44.85385" lon="5.40435">
        <ele>1233</ele>
        <time>2020-05-22T10:29:09.862Z</time>
      </trkpt>
      <trkpt lat="44.8538" lon="5.40435">
        <ele>1233</ele>
        <time>2020-05-22T10:29:10.862Z</time>
      </trkpt>
      <trkpt lat="44.85376" lon="5.40434">
        <ele>1233</ele>
        <time>2020-05-22T10:29:11.863Z</time>
      </trkpt>
      <trkpt lat="44.85371" lon="5.40433">
        <ele>1232</ele>
        <time>2020-05-22T10:29:12.863Z</time>
      </trkpt>
      <trkpt lat="44.85367" lon="5.40432">
        <ele>1232</ele>
        <time>2020-05-22T10:29:13.862Z</time>
      </trkpt>
      <trkpt lat="44.85362" lon="5.40432">
        <ele>1232</ele>
        <time>2020-05-22T10:29:14.863Z</time>
      </trkpt>
      <trkpt lat="44.85358" lon="5.40433">
        <ele>1232</ele>
        <time>2020-05-22T10:29:15.862Z</time>
      </trkpt>
      <trkpt lat="44.85353" lon="5.40432">
        <ele>1232</ele>
        <time>2020-05-22T10:29:16.863Z</time>
      </trkpt>
      <trkpt lat="44.85348" lon="5.40432">
        <ele>1232</ele>
        <time>2020-05-22T10:29:17.862Z</time>
      </trkpt>
      <trkpt lat="44.85343" lon="5.40432">
        <ele>1232</ele>
        <time>2020-05-22T10:29:18.862Z</time>
      </trkpt>
      <trkpt lat="44.85338" lon="5.40431">
        <ele>1232</ele>
        <time>2020-05-22T10:29:19.862Z</time>
      </trkpt>
      <trkpt lat="44.85334" lon="5.40431">
        <ele>1233</ele>
        <time>2020-05-22T10:29:20.862Z</time>
      </trkpt>
      <trkpt lat="44.85328" lon="5.40431">
        <ele>1233</ele>
        <time>2020-05-22T10:29:21.862Z</time>
      </trkpt>
      <trkpt lat="44.85323" lon="5.40431">
        <ele>1233</ele>
        <time>2020-05-22T10:29:22.862Z</time>
      </trkpt>
      <trkpt lat="44.85318" lon="5.40431">
        <ele>1233</ele>
        <time>2020-05-22T10:29:23.862Z</time>
      </trkpt>
      <trkpt lat="44.85313" lon="5.40431">
        <ele>1233</ele>
        <time>2020-05-22T10:29:24.862Z</time>
      </trkpt>
      <trkpt lat="44.85309" lon="5.40431">
        <ele>1234</ele>
        <time>2020-05-22T10:29:25.863Z</time>
      </trkpt>
      <trkpt lat="44.85303" lon="5.40432">
        <ele>1234</ele>
        <time>2020-05-22T10:29:26.862Z</time>
      </trkpt>
      <trkpt lat="44.85297" lon="5.40433">
        <ele>1234</ele>
        <time>2020-05-22T10:29:27.863Z</time>
      </trkpt>
      <trkpt lat="44.85292" lon="5.40433">
        <ele>1235</ele>
        <time>2020-05-22T10:29:28.862Z</time>
      </trkpt>
      <trkpt lat="44.85287" lon="5.40432">
        <ele>1235</ele>
        <time>2020-05-22T10:29:29.862Z</time>
      </trkpt>
      <trkpt lat="44.85282" lon="5.40431">
        <ele>1236</ele>
        <time>2020-05-22T10:29:30.863Z</time>
      </trkpt>
      <trkpt lat="44.85278" lon="5.4043">
        <ele>1236</ele>
        <time>2020-05-22T10:29:31.863Z</time>
      </trkpt>
      <trkpt lat="44.85272" lon="5.40428">
        <ele>1237</ele>
        <time>2020-05-22T10:29:32.863Z</time>
      </trkpt>
      <trkpt lat="44.85268" lon="5.40426">
        <ele>1237</ele>
        <time>2020-05-22T10:29:33.862Z</time>
      </trkpt>
      <trkpt lat="44.85263" lon="5.40423">
        <ele>1237</ele>
        <time>2020-05-22T10:29:34.863Z</time>
      </trkpt>
      <trkpt lat="44.85259" lon="5.4042">
        <ele>1238</ele>
        <time>2020-05-22T10:29:35.863Z</time>
      </trkpt>
      <trkpt lat="44.85255" lon="5.40417">
        <ele>1238</ele>
        <time>2020-05-22T10:29:36.863Z</time>
      </trkpt>
      <trkpt lat="44.85251" lon="5.40414">
        <ele>1238</ele>
        <time>2020-05-22T10:29:37.863Z</time>
      </trkpt>
      <trkpt lat="44.85245" lon="5.40411">
        <ele>1238</ele>
        <time>2020-05-22T10:29:38.862Z</time>
      </trkpt>
      <trkpt lat="44.85241" lon="5.40407">
        <ele>1238</ele>
        <time>2020-05-22T10:29:39.862Z</time>
      </trkpt>
      <trkpt lat="44.85236" lon="5.40405">
        <ele>1238</ele>
        <time>2020-05-22T10:29:40.862Z</time>
      </trkpt>
      <trkpt lat="44.85231" lon="5.40404">
        <ele>1238</ele>
        <time>2020-05-22T10:29:41.863Z</time>
      </trkpt>
      <trkpt lat="44.85226" lon="5.40404">
        <ele>1238</ele>
        <time>2020-05-22T10:29:42.862Z</time>
      </trkpt>
      <trkpt lat="44.85222" lon="5.40406">
        <ele>1239</ele>
        <time>2020-05-22T10:29:43.863Z</time>
      </trkpt>
      <trkpt lat="44.85217" lon="5.40408">
        <ele>1239</ele>
        <time>2020-05-22T10:29:44.862Z</time>
      </trkpt>
      <trkpt lat="44.85212" lon="5.4041">
        <ele>1239</ele>
        <time>2020-05-22T10:29:45.862Z</time>
      </trkpt>
      <trkpt lat="44.85209" lon="5.40414">
        <ele>1239</ele>
        <time>2020-05-22T10:29:46.862Z</time>
      </trkpt>
      <trkpt lat="44.85202" lon="5.40418">
        <ele>1239</ele>
        <time>2020-05-22T10:29:47.863Z</time>
      </trkpt>
      <trkpt lat="44.85198" lon="5.40421">
        <ele>1239</ele>
        <time>2020-05-22T10:29:48.862Z</time>
      </trkpt>
      <trkpt lat="44.85193" lon="5.40425">
        <ele>1239</ele>
        <time>2020-05-22T10:29:49.863Z</time>
      </trkpt>
      <trkpt lat="44.85189" lon="5.40428">
        <ele>1239</ele>
        <time>2020-05-22T10:29:50.862Z</time>
      </trkpt>
      <trkpt lat="44.85184" lon="5.40432">
        <ele>1239</ele>
        <time>2020-05-22T10:29:51.863Z</time>
      </trkpt>
      <trkpt lat="44.85181" lon="5.40435">
        <ele>1239</ele>
        <time>2020-05-22T10:29:52.863Z</time>
      </trkpt>
      <trkpt lat="44.85177" lon="5.40439">
        <ele>1239</ele>
        <time>2020-05-22T10:29:53.862Z</time>
      </trkpt>
      <trkpt lat="44.85171" lon="5.40443">
        <ele>1239</ele>
        <time>2020-05-22T10:29:54.862Z</time>
      </trkpt>
      <trkpt lat="44.85166" lon="5.40445">
        <ele>1239</ele>
        <time>2020-05-22T10:29:55.863Z</time>
      </trkpt>
      <trkpt lat="44.85162" lon="5.40446">
        <ele>1239</ele>
        <time>2020-05-22T10:29:56.862Z</time>
      </trkpt>
      <trkpt lat="44.85157" lon="5.40448">
        <ele>1239</ele>
        <time>2020-05-22T10:29:57.863Z</time>
      </trkpt>
      <trkpt lat="44.85153" lon="5.40449">
        <ele>1238</ele>
        <time>2020-05-22T10:29:58.863Z</time>
      </trkpt>
      <trkpt lat="44.85148" lon="5.40451">
        <ele>1238</ele>
        <time>2020-05-22T10:29:59.862Z</time>
      </trkpt>
      <trkpt lat="44.85143" lon="5.40452">
        <ele>1237</ele>
        <time>2020-05-22T10:30:00.862Z</time>
      </trkpt>
      <trkpt lat="44.85139" lon="5.40453">
        <ele>1237</ele>
        <time>2020-05-22T10:30:01.863Z</time>
      </trkpt>
      <trkpt lat="44.85133" lon="5.40454">
        <ele>1237</ele>
        <time>2020-05-22T10:30:02.863Z</time>
      </trkpt>
      <trkpt lat="44.85128" lon="5.40455">
        <ele>1237</ele>
        <time>2020-05-22T10:30:03.863Z</time>
      </trkpt>
      <trkpt lat="44.85122" lon="5.40456">
        <ele>1236</ele>
        <time>2020-05-22T10:30:04.862Z</time>
      </trkpt>
      <trkpt lat="44.85117" lon="5.40456">
        <ele>1236</ele>
        <time>2020-05-22T10:30:05.862Z</time>
      </trkpt>
      <trkpt lat="44.85112" lon="5.40457">
        <ele>1236</ele>
        <time>2020-05-22T10:30:06.863Z</time>
      </trkpt>
      <trkpt lat="44.85107" lon="5.40457">
        <ele>1235</ele>
        <time>2020-05-22T10:30:07.862Z</time>
      </trkpt>
      <trkpt lat="44.85102" lon="5.40457">
        <ele>1235</ele>
        <time>2020-05-22T10:30:08.862Z</time>
      </trkpt>
      <trkpt lat="44.85097" lon="5.40457">
        <ele>1235</ele>
        <time>2020-05-22T10:30:09.862Z</time>
      </trkpt>
      <trkpt lat="44.85092" lon="5.40457">
        <ele>1234</ele>
        <time>2020-05-22T10:30:10.862Z</time>
      </trkpt>
      <trkpt lat="44.85088" lon="5.40457">
        <ele>1234</ele>
        <time>2020-05-22T10:30:11.862Z</time>
      </trkpt>
      <trkpt lat="44.85082" lon="5.40457">
        <ele>1234</ele>
        <time>2020-05-22T10:30:12.863Z</time>
      </trkpt>
      <trkpt lat="44.85078" lon="5.40457">
        <ele>1234</ele>
        <time>2020-05-22T10:30:13.862Z</time>
      </trkpt>
      <trkpt lat="44.85072" lon="5.40458">
        <ele>1234</ele>
        <time>2020-05-22T10:30:14.862Z</time>
      </trkpt>
      <trkpt lat="44.85067" lon="5.40458">
        <ele>1233</ele>
        <time>2020-05-22T10:30:15.862Z</time>
      </trkpt>
      <trkpt lat="44.85062" lon="5.40459">
        <ele>1233</ele>
        <time>2020-05-22T10:30:16.863Z</time>
      </trkpt>
      <trkpt lat="44.85057" lon="5.40459">
        <ele>1233</ele>
        <time>2020-05-22T10:30:17.863Z</time>
      </trkpt>
      <trkpt lat="44.85052" lon="5.40459">
        <ele>1233</ele>
        <time>2020-05-22T10:30:18.862Z</time>
      </trkpt>
      <trkpt lat="44.85047" lon="5.4046">
        <ele>1233</ele>
        <time>2020-05-22T10:30:19.862Z</time>
      </trkpt>
      <trkpt lat="44.85042" lon="5.40461">
        <ele>1232</ele>
        <time>2020-05-22T10:30:20.863Z</time>
      </trkpt>
      <trkpt lat="44.85037" lon="5.40461">
        <ele>1232</ele>
        <time>2020-05-22T10:30:21.862Z</time>
      </trkpt>
      <trkpt lat="44.85032" lon="5.40461">
        <ele>1232</ele>
        <time>2020-05-22T10:30:22.862Z</time>
      </trkpt>
      <trkpt lat="44.85027" lon="5.40461">
        <ele>1232</ele>
        <time>2020-05-22T10:30:23.862Z</time>
      </trkpt>
      <trkpt lat="44.85022" lon="5.4046">
        <ele>1231</ele>
        <time>2020-05-22T10:30:24.863Z</time>
      </trkpt>
      <trkpt lat="44.85016" lon="5.40461">
        <ele>1231</ele>
        <time>2020-05-22T10:30:25.862Z</time>
      </trkpt>
      <trkpt lat="44.85011" lon="5.40461">
        <ele>1231</ele>
        <time>2020-05-22T10:30:26.862Z</time>
      </trkpt>
      <trkpt lat="44.85006" lon="5.40461">
        <ele>1231</ele>
        <time>2020-05-22T10:30:27.862Z</time>
      </trkpt>
      <trkpt lat="44.85" lon="5.40462">
        <ele>1230</ele>
        <time>2020-05-22T10:30:28.863Z</time>
      </trkpt>
      <trkpt lat="44.84995" lon="5.40462">
        <ele>1230</ele>
        <time>2020-05-22T10:30:29.862Z</time>
      </trkpt>
      <trkpt lat="44.8499" lon="5.40462">
        <ele>1230</ele>
        <time>2020-05-22T10:30:30.862Z</time>
      </trkpt>
      <trkpt lat="44.84985" lon="5.40462">
        <ele>1230</ele>
        <time>2020-05-22T10:30:31.862Z</time>
      </trkpt>
      <trkpt lat="44.8498" lon="5.40462">
        <ele>1229</ele>
        <time>2020-05-22T10:30:32.863Z</time>
      </trkpt>
      <trkpt lat="44.84975" lon="5.40462">
        <ele>1229</ele>
        <time>2020-05-22T10:30:33.862Z</time>
      </trkpt>
      <trkpt lat="44.84969" lon="5.40462">
        <ele>1229</ele>
        <time>2020-05-22T10:30:34.862Z</time>
      </trkpt>
      <trkpt lat="44.84964" lon="5.40462">
        <ele>1229</ele>
        <time>2020-05-22T10:30:35.862Z</time>
      </trkpt>
      <trkpt lat="44.84959" lon="5.40462">
        <ele>1228</ele>
        <time>2020-05-22T10:30:36.862Z</time>
      </trkpt>
      <trkpt lat="44.84954" lon="5.40462">
        <ele>1228</ele>
        <time>2020-05-22T10:30:37.862Z</time>
      </trkpt>
      <trkpt lat="44.84949" lon="5.40461">
        <ele>1228</ele>
        <time>2020-05-22T10:30:38.862Z</time>
      </trkpt>
      <trkpt lat="44.84944" lon="5.4046">
        <ele>1228</ele>
        <time>2020-05-22T10:30:39.862Z</time>
      </trkpt>
      <trkpt lat="44.84939" lon="5.4046">
        <ele>1228</ele>
        <time>2020-05-22T10:30:40.862Z</time>
      </trkpt>
      <trkpt lat="44.84933" lon="5.40459">
        <ele>1228</ele>
        <time>2020-05-22T10:30:41.862Z</time>
      </trkpt>
      <trkpt lat="44.84928" lon="5.40459">
        <ele>1227</ele>
        <time>2020-05-22T10:30:42.862Z</time>
      </trkpt>
      <trkpt lat="44.84923" lon="5.40458">
        <ele>1227</ele>
        <time>2020-05-22T10:30:43.862Z</time>
      </trkpt>
      <trkpt lat="44.84918" lon="5.40456">
        <ele>1226</ele>
        <time>2020-05-22T10:30:44.862Z</time>
      </trkpt>
      <trkpt lat="44.84912" lon="5.40454">
        <ele>1226</ele>
        <time>2020-05-22T10:30:45.862Z</time>
      </trkpt>
      <trkpt lat="44.84906" lon="5.40453">
        <ele>1225</ele>
        <time>2020-05-22T10:30:46.862Z</time>
      </trkpt>
      <trkpt lat="44.849" lon="5.40451">
        <ele>1225</ele>
        <time>2020-05-22T10:30:47.862Z</time>
      </trkpt>
      <trkpt lat="44.849" lon="5.40451">
        <ele>1225</ele>
        <time>2020-05-22T10:30:48.862Z</time>
      </trkpt>
      <trkpt lat="44.84888" lon="5.40447">
        <ele>1225</ele>
        <time>2020-05-22T10:30:49.862Z</time>
      </trkpt>
      <trkpt lat="44.84881" lon="5.40446">
        <ele>1224</ele>
        <time>2020-05-22T10:30:50.862Z</time>
      </trkpt>
      <trkpt lat="44.84876" lon="5.40445">
        <ele>1224</ele>
        <time>2020-05-22T10:30:51.862Z</time>
      </trkpt>
      <trkpt lat="44.84869" lon="5.40446">
        <ele>1224</ele>
        <time>2020-05-22T10:30:52.862Z</time>
      </trkpt>
      <trkpt lat="44.84863" lon="5.40447">
        <ele>1223</ele>
        <time>2020-05-22T10:30:53.862Z</time>
      </trkpt>
      <trkpt lat="44.84857" lon="5.40448">
        <ele>1223</ele>
        <time>2020-05-22T10:30:54.862Z</time>
      </trkpt>
      <trkpt lat="44.84851" lon="5.4045">
        <ele>1223</ele>
        <time>2020-05-22T10:30:55.862Z</time>
      </trkpt>
      <trkpt lat="44.84845" lon="5.40451">
        <ele>1223</ele>
        <time>2020-05-22T10:30:56.862Z</time>
      </trkpt>
      <trkpt lat="44.84839" lon="5.40451">
        <ele>1222</ele>
        <time>2020-05-22T10:30:57.862Z</time>
      </trkpt>
      <trkpt lat="44.84834" lon="5.40453">
        <ele>1222</ele>
        <time>2020-05-22T10:30:58.862Z</time>
      </trkpt>
      <trkpt lat="44.84828" lon="5.40454">
        <ele>1222</ele>
        <time>2020-05-22T10:30:59.862Z</time>
      </trkpt>
      <trkpt lat="44.84822" lon="5.40456">
        <ele>1221</ele>
        <time>2020-05-22T10:31:00.862Z</time>
      </trkpt>
      <trkpt lat="44.84816" lon="5.40457">
        <ele>1221</ele>
        <time>2020-05-22T10:31:01.863Z</time>
      </trkpt>
      <trkpt lat="44.8481" lon="5.40458">
        <ele>1220</ele>
        <time>2020-05-22T10:31:02.863Z</time>
      </trkpt>
      <trkpt lat="44.84804" lon="5.40458">
        <ele>1220</ele>
        <time>2020-05-22T10:31:03.862Z</time>
      </trkpt>
      <trkpt lat="44.84798" lon="5.4046">
        <ele>1220</ele>
        <time>2020-05-22T10:31:04.862Z</time>
      </trkpt>
      <trkpt lat="44.84791" lon="5.40461">
        <ele>1220</ele>
        <time>2020-05-22T10:31:05.862Z</time>
      </trkpt>
      <trkpt lat="44.84784" lon="5.4046">
        <ele>1220</ele>
        <time>2020-05-22T10:31:06.863Z</time>
      </trkpt>
      <trkpt lat="44.84778" lon="5.40459">
        <ele>1220</ele>
        <time>2020-05-22T10:31:07.862Z</time>
      </trkpt>
      <trkpt lat="44.84771" lon="5.40457">
        <ele>1220</ele>
        <time>2020-05-22T10:31:08.862Z</time>
      </trkpt>
      <trkpt lat="44.84765" lon="5.40454">
        <ele>1220</ele>
        <time>2020-05-22T10:31:09.862Z</time>
      </trkpt>
      <trkpt lat="44.84758" lon="5.40452">
        <ele>1220</ele>
        <time>2020-05-22T10:31:10.862Z</time>
      </trkpt>
      <trkpt lat="44.84752" lon="5.4045">
        <ele>1220</ele>
        <time>2020-05-22T10:31:11.862Z</time>
      </trkpt>
      <trkpt lat="44.84745" lon="5.4045">
        <ele>1220</ele>
        <time>2020-05-22T10:31:12.862Z</time>
      </trkpt>
      <trkpt lat="44.84739" lon="5.40451">
        <ele>1220</ele>
        <time>2020-05-22T10:31:13.862Z</time>
      </trkpt>
      <trkpt lat="44.84734" lon="5.40453">
        <ele>1220</ele>
        <time>2020-05-22T10:31:14.862Z</time>
      </trkpt>
      <trkpt lat="44.84728" lon="5.40455">
        <ele>1220</ele>
        <time>2020-05-22T10:31:15.862Z</time>
      </trkpt>
      <trkpt lat="44.84721" lon="5.40459">
        <ele>1220</ele>
        <time>2020-05-22T10:31:16.862Z</time>
      </trkpt>
      <trkpt lat="44.84715" lon="5.4046">
        <ele>1220</ele>
        <time>2020-05-22T10:31:17.862Z</time>
      </trkpt>
      <trkpt lat="44.8471" lon="5.40461">
        <ele>1219</ele>
        <time>2020-05-22T10:31:18.862Z</time>
      </trkpt>
      <trkpt lat="44.84705" lon="5.4046">
        <ele>1219</ele>
        <time>2020-05-22T10:31:19.862Z</time>
      </trkpt>
      <trkpt lat="44.84698" lon="5.40459">
        <ele>1219</ele>
        <time>2020-05-22T10:31:20.863Z</time>
      </trkpt>
      <trkpt lat="44.84691" lon="5.40458">
        <ele>1218</ele>
        <time>2020-05-22T10:31:21.863Z</time>
      </trkpt>
      <trkpt lat="44.84685" lon="5.40458">
        <ele>1218</ele>
        <time>2020-05-22T10:31:22.862Z</time>
      </trkpt>
      <trkpt lat="44.84681" lon="5.40458">
        <ele>1218</ele>
        <time>2020-05-22T10:31:23.862Z</time>
      </trkpt>
      <trkpt lat="44.84675" lon="5.40457">
        <ele>1218</ele>
        <time>2020-05-22T10:31:24.862Z</time>
      </trkpt>
      <trkpt lat="44.84669" lon="5.40457">
        <ele>1217</ele>
        <time>2020-05-22T10:31:25.862Z</time>
      </trkpt>
      <trkpt lat="44.84665" lon="5.40458">
        <ele>1217</ele>
        <time>2020-05-22T10:31:26.862Z</time>
      </trkpt>
      <trkpt lat="44.84662" lon="5.40459">
        <ele>1217</ele>
        <time>2020-05-22T10:31:27.862Z</time>
      </trkpt>
      <trkpt lat="44.84659" lon="5.40461">
        <ele>1217</ele>
        <time>2020-05-22T10:31:28.862Z</time>
      </trkpt>
      <trkpt lat="44.84658" lon="5.40464">
        <ele>1217</ele>
        <time>2020-05-22T10:31:29.862Z</time>
      </trkpt>
      <trkpt lat="44.84657" lon="5.40466">
        <ele>1217</ele>
        <time>2020-05-22T10:31:30.862Z</time>
      </trkpt>
      <trkpt lat="44.84658" lon="5.40467">
        <ele>1217</ele>
        <time>2020-05-22T10:31:31.863Z</time>
      </trkpt>
      <trkpt lat="44.84659" lon="5.4047">
        <ele>1216</ele>
        <time>2020-05-22T10:31:32.862Z</time>
      </trkpt>
      <trkpt lat="44.8466" lon="5.40472">
        <ele>1215</ele>
        <time>2020-05-22T10:31:33.862Z</time>
      </trkpt>
      <trkpt lat="44.84663" lon="5.40474">
        <ele>1214</ele>
        <time>2020-05-22T10:31:34.862Z</time>
      </trkpt>
      <trkpt lat="44.84666" lon="5.40474">
        <ele>1214</ele>
        <time>2020-05-22T10:31:35.862Z</time>
      </trkpt>
      <trkpt lat="44.84669" lon="5.40475">
        <ele>1213</ele>
        <time>2020-05-22T10:31:36.862Z</time>
      </trkpt>
      <trkpt lat="44.84672" lon="5.40475">
        <ele>1212</ele>
        <time>2020-05-22T10:31:37.862Z</time>
      </trkpt>
      <trkpt lat="44.84677" lon="5.40475">
        <ele>1212</ele>
        <time>2020-05-22T10:31:38.862Z</time>
      </trkpt>
      <trkpt lat="44.8468" lon="5.40474">
        <ele>1211</ele>
        <time>2020-05-22T10:31:39.862Z</time>
      </trkpt>
      <trkpt lat="44.84684" lon="5.40475">
        <ele>1211</ele>
        <time>2020-05-22T10:31:40.862Z</time>
      </trkpt>
      <trkpt lat="44.84688" lon="5.40475">
        <ele>1210</ele>
        <time>2020-05-22T10:31:41.862Z</time>
      </trkpt>
      <trkpt lat="44.84693" lon="5.40475">
        <ele>1209</ele>
        <time>2020-05-22T10:31:42.862Z</time>
      </trkpt>
      <trkpt lat="44.84698" lon="5.40475">
        <ele>1209</ele>
        <time>2020-05-22T10:31:43.862Z</time>
      </trkpt>
      <trkpt lat="44.84704" lon="5.40474">
        <ele>1209</ele>
        <time>2020-05-22T10:31:44.862Z</time>
      </trkpt>
      <trkpt lat="44.84711" lon="5.40472">
        <ele>1208</ele>
        <time>2020-05-22T10:31:45.862Z</time>
      </trkpt>
      <trkpt lat="44.84717" lon="5.40471">
        <ele>1208</ele>
        <time>2020-05-22T10:31:46.863Z</time>
      </trkpt>
      <trkpt lat="44.84723" lon="5.40469">
        <ele>1208</ele>
        <time>2020-05-22T10:31:47.862Z</time>
      </trkpt>
      <trkpt lat="44.84731" lon="5.40466">
        <ele>1208</ele>
        <time>2020-05-22T10:31:48.862Z</time>
      </trkpt>
      <trkpt lat="44.84737" lon="5.40465">
        <ele>1207</ele>
        <time>2020-05-22T10:31:49.862Z</time>
      </trkpt>
      <trkpt lat="44.84744" lon="5.40463">
        <ele>1207</ele>
        <time>2020-05-22T10:31:50.862Z</time>
      </trkpt>
      <trkpt lat="44.84751" lon="5.40462">
        <ele>1207</ele>
        <time>2020-05-22T10:31:51.862Z</time>
      </trkpt>
      <trkpt lat="44.84758" lon="5.40462">
        <ele>1206</ele>
        <time>2020-05-22T10:31:52.862Z</time>
      </trkpt>
      <trkpt lat="44.84766" lon="5.40463">
        <ele>1205</ele>
        <time>2020-05-22T10:31:53.862Z</time>
      </trkpt>
      <trkpt lat="44.84774" lon="5.40464">
        <ele>1205</ele>
        <time>2020-05-22T10:31:54.862Z</time>
      </trkpt>
      <trkpt lat="44.84781" lon="5.40467">
        <ele>1204</ele>
        <time>2020-05-22T10:31:55.862Z</time>
      </trkpt>
      <trkpt lat="44.8479" lon="5.40469">
        <ele>1204</ele>
        <time>2020-05-22T10:31:56.863Z</time>
      </trkpt>
      <trkpt lat="44.84799" lon="5.40471">
        <ele>1203</ele>
        <time>2020-05-22T10:31:57.862Z</time>
      </trkpt>
      <trkpt lat="44.84807" lon="5.40471">
        <ele>1203</ele>
        <time>2020-05-22T10:31:58.862Z</time>
      </trkpt>
      <trkpt lat="44.84816" lon="5.40472">
        <ele>1203</ele>
        <time>2020-05-22T10:31:59.862Z</time>
      </trkpt>
      <trkpt lat="44.84826" lon="5.40474">
        <ele>1202</ele>
        <time>2020-05-22T10:32:00.862Z</time>
      </trkpt>
      <trkpt lat="44.84835" lon="5.40475">
        <ele>1202</ele>
        <time>2020-05-22T10:32:01.862Z</time>
      </trkpt>
      <trkpt lat="44.84844" lon="5.40475">
        <ele>1202</ele>
        <time>2020-05-22T10:32:02.862Z</time>
      </trkpt>
      <trkpt lat="44.84854" lon="5.40474">
        <ele>1202</ele>
        <time>2020-05-22T10:32:03.862Z</time>
      </trkpt>
      <trkpt lat="44.84862" lon="5.40473">
        <ele>1202</ele>
        <time>2020-05-22T10:32:04.862Z</time>
      </trkpt>
      <trkpt lat="44.84871" lon="5.40472">
        <ele>1202</ele>
        <time>2020-05-22T10:32:05.862Z</time>
      </trkpt>
      <trkpt lat="44.84881" lon="5.40473">
        <ele>1202</ele>
        <time>2020-05-22T10:32:06.862Z</time>
      </trkpt>
      <trkpt lat="44.8489" lon="5.40475">
        <ele>1201</ele>
        <time>2020-05-22T10:32:07.862Z</time>
      </trkpt>
      <trkpt lat="44.84899" lon="5.40477">
        <ele>1201</ele>
        <time>2020-05-22T10:32:08.863Z</time>
      </trkpt>
      <trkpt lat="44.84908" lon="5.40481">
        <ele>1201</ele>
        <time>2020-05-22T10:32:09.862Z</time>
      </trkpt>
      <trkpt lat="44.84917" lon="5.40484">
        <ele>1201</ele>
        <time>2020-05-22T10:32:10.862Z</time>
      </trkpt>
      <trkpt lat="44.84927" lon="5.40486">
        <ele>1201</ele>
        <time>2020-05-22T10:32:11.862Z</time>
      </trkpt>
      <trkpt lat="44.84936" lon="5.40487">
        <ele>1200</ele>
        <time>2020-05-22T10:32:12.862Z</time>
      </trkpt>
      <trkpt lat="44.84945" lon="5.40489">
        <ele>1200</ele>
        <time>2020-05-22T10:32:13.862Z</time>
      </trkpt>
      <trkpt lat="44.84955" lon="5.4049">
        <ele>1199</ele>
        <time>2020-05-22T10:32:14.862Z</time>
      </trkpt>
      <trkpt lat="44.84964" lon="5.40491">
        <ele>1198</ele>
        <time>2020-05-22T10:32:15.862Z</time>
      </trkpt>
      <trkpt lat="44.84974" lon="5.40492">
        <ele>1198</ele>
        <time>2020-05-22T10:32:16.862Z</time>
      </trkpt>
      <trkpt lat="44.84983" lon="5.40493">
        <ele>1197</ele>
        <time>2020-05-22T10:32:17.862Z</time>
      </trkpt>
      <trkpt lat="44.84993" lon="5.40495">
        <ele>1196</ele>
        <time>2020-05-22T10:32:18.862Z</time>
      </trkpt>
      <trkpt lat="44.85002" lon="5.40495">
        <ele>1196</ele>
        <time>2020-05-22T10:32:19.863Z</time>
      </trkpt>
      <trkpt lat="44.85012" lon="5.40497">
        <ele>1195</ele>
        <time>2020-05-22T10:32:20.862Z</time>
      </trkpt>
      <trkpt lat="44.85023" lon="5.40499">
        <ele>1195</ele>
        <time>2020-05-22T10:32:21.862Z</time>
      </trkpt>
      <trkpt lat="44.85032" lon="5.405">
        <ele>1194</ele>
        <time>2020-05-22T10:32:22.862Z</time>
      </trkpt>
      <trkpt lat="44.85041" lon="5.40501">
        <ele>1193</ele>
        <time>2020-05-22T10:32:23.862Z</time>
      </trkpt>
      <trkpt lat="44.85051" lon="5.40502">
        <ele>1192</ele>
        <time>2020-05-22T10:32:24.862Z</time>
      </trkpt>
      <trkpt lat="44.85061" lon="5.40503">
        <ele>1192</ele>
        <time>2020-05-22T10:32:25.862Z</time>
      </trkpt>
      <trkpt lat="44.85073" lon="5.40504">
        <ele>1192</ele>
        <time>2020-05-22T10:32:26.862Z</time>
      </trkpt>
      <trkpt lat="44.85083" lon="5.40505">
        <ele>1191</ele>
        <time>2020-05-22T10:32:27.862Z</time>
      </trkpt>
      <trkpt lat="44.85093" lon="5.40505">
        <ele>1191</ele>
        <time>2020-05-22T10:32:28.862Z</time>
      </trkpt>
      <trkpt lat="44.85103" lon="5.40505">
        <ele>1190</ele>
        <time>2020-05-22T10:32:29.862Z</time>
      </trkpt>
      <trkpt lat="44.85114" lon="5.40505">
        <ele>1190</ele>
        <time>2020-05-22T10:32:30.862Z</time>
      </trkpt>
      <trkpt lat="44.85125" lon="5.40506">
        <ele>1190</ele>
        <time>2020-05-22T10:32:31.862Z</time>
      </trkpt>
      <trkpt lat="44.85135" lon="5.40506">
        <ele>1189</ele>
        <time>2020-05-22T10:32:32.862Z</time>
      </trkpt>
      <trkpt lat="44.85146" lon="5.40506">
        <ele>1188</ele>
        <time>2020-05-22T10:32:33.862Z</time>
      </trkpt>
      <trkpt lat="44.85157" lon="5.40505">
        <ele>1188</ele>
        <time>2020-05-22T10:32:34.862Z</time>
      </trkpt>
      <trkpt lat="44.85168" lon="5.40504">
        <ele>1187</ele>
        <time>2020-05-22T10:32:35.862Z</time>
      </trkpt>
      <trkpt lat="44.85178" lon="5.40502">
        <ele>1186</ele>
        <time>2020-05-22T10:32:36.862Z</time>
      </trkpt>
      <trkpt lat="44.85188" lon="5.40499">
        <ele>1186</ele>
        <time>2020-05-22T10:32:37.862Z</time>
      </trkpt>
      <trkpt lat="44.85199" lon="5.40496">
        <ele>1185</ele>
        <time>2020-05-22T10:32:38.862Z</time>
      </trkpt>
      <trkpt lat="44.85207" lon="5.40493">
        <ele>1185</ele>
        <time>2020-05-22T10:32:39.862Z</time>
      </trkpt>
      <trkpt lat="44.85218" lon="5.40489">
        <ele>1185</ele>
        <time>2020-05-22T10:32:40.862Z</time>
      </trkpt>
      <trkpt lat="44.8523" lon="5.40486">
        <ele>1184</ele>
        <time>2020-05-22T10:32:41.862Z</time>
      </trkpt>
      <trkpt lat="44.85239" lon="5.40485">
        <ele>1184</ele>
        <time>2020-05-22T10:32:42.862Z</time>
      </trkpt>
      <trkpt lat="44.85251" lon="5.40485">
        <ele>1183</ele>
        <time>2020-05-22T10:32:43.862Z</time>
      </trkpt>
      <trkpt lat="44.85261" lon="5.40487">
        <ele>1183</ele>
        <time>2020-05-22T10:32:44.862Z</time>
      </trkpt>
      <trkpt lat="44.85271" lon="5.40491">
        <ele>1182</ele>
        <time>2020-05-22T10:32:45.862Z</time>
      </trkpt>
      <trkpt lat="44.85281" lon="5.40496">
        <ele>1182</ele>
        <time>2020-05-22T10:32:46.862Z</time>
      </trkpt>
      <trkpt lat="44.85291" lon="5.40501">
        <ele>1181</ele>
        <time>2020-05-22T10:32:47.862Z</time>
      </trkpt>
      <trkpt lat="44.85301" lon="5.40506">
        <ele>1181</ele>
        <time>2020-05-22T10:32:48.862Z</time>
      </trkpt>
      <trkpt lat="44.85311" lon="5.4051">
        <ele>1180</ele>
        <time>2020-05-22T10:32:49.862Z</time>
      </trkpt>
      <trkpt lat="44.8532" lon="5.40513">
        <ele>1179</ele>
        <time>2020-05-22T10:32:50.862Z</time>
      </trkpt>
      <trkpt lat="44.85331" lon="5.40516">
        <ele>1179</ele>
        <time>2020-05-22T10:32:51.862Z</time>
      </trkpt>
      <trkpt lat="44.85342" lon="5.40518">
        <ele>1178</ele>
        <time>2020-05-22T10:32:52.862Z</time>
      </trkpt>
      <trkpt lat="44.8535" lon="5.4052">
        <ele>1177</ele>
        <time>2020-05-22T10:32:53.862Z</time>
      </trkpt>
      <trkpt lat="44.85363" lon="5.40523">
        <ele>1176</ele>
        <time>2020-05-22T10:32:54.862Z</time>
      </trkpt>
      <trkpt lat="44.85373" lon="5.40525">
        <ele>1175</ele>
        <time>2020-05-22T10:32:55.862Z</time>
      </trkpt>
      <trkpt lat="44.85383" lon="5.40527">
        <ele>1174</ele>
        <time>2020-05-22T10:32:56.862Z</time>
      </trkpt>
      <trkpt lat="44.85394" lon="5.40529">
        <ele>1173</ele>
        <time>2020-05-22T10:32:57.862Z</time>
      </trkpt>
      <trkpt lat="44.85404" lon="5.40531">
        <ele>1173</ele>
        <time>2020-05-22T10:32:58.863Z</time>
      </trkpt>
      <trkpt lat="44.85414" lon="5.40534">
        <ele>1172</ele>
        <time>2020-05-22T10:32:59.863Z</time>
      </trkpt>
      <trkpt lat="44.85424" lon="5.40538">
        <ele>1172</ele>
        <time>2020-05-22T10:33:00.862Z</time>
      </trkpt>
      <trkpt lat="44.85432" lon="5.40542">
        <ele>1172</ele>
        <time>2020-05-22T10:33:01.862Z</time>
      </trkpt>
      <trkpt lat="44.85442" lon="5.40545">
        <ele>1171</ele>
        <time>2020-05-22T10:33:02.862Z</time>
      </trkpt>
      <trkpt lat="44.85452" lon="5.40549">
        <ele>1171</ele>
        <time>2020-05-22T10:33:03.862Z</time>
      </trkpt>
      <trkpt lat="44.85463" lon="5.40551">
        <ele>1171</ele>
        <time>2020-05-22T10:33:04.862Z</time>
      </trkpt>
      <trkpt lat="44.85473" lon="5.40553">
        <ele>1171</ele>
        <time>2020-05-22T10:33:05.863Z</time>
      </trkpt>
      <trkpt lat="44.85483" lon="5.40555">
        <ele>1170</ele>
        <time>2020-05-22T10:33:06.862Z</time>
      </trkpt>
      <trkpt lat="44.85494" lon="5.40556">
        <ele>1169</ele>
        <time>2020-05-22T10:33:07.862Z</time>
      </trkpt>
      <trkpt lat="44.85505" lon="5.40556">
        <ele>1169</ele>
        <time>2020-05-22T10:33:08.862Z</time>
      </trkpt>
      <trkpt lat="44.85515" lon="5.40556">
        <ele>1168</ele>
        <time>2020-05-22T10:33:09.862Z</time>
      </trkpt>
      <trkpt lat="44.85526" lon="5.40556">
        <ele>1168</ele>
        <time>2020-05-22T10:33:10.862Z</time>
      </trkpt>
      <trkpt lat="44.85536" lon="5.40556">
        <ele>1168</ele>
        <time>2020-05-22T10:33:11.862Z</time>
      </trkpt>
      <trkpt lat="44.85549" lon="5.40555">
        <ele>1168</ele>
        <time>2020-05-22T10:33:12.862Z</time>
      </trkpt>
      <trkpt lat="44.85557" lon="5.40553">
        <ele>1168</ele>
        <time>2020-05-22T10:33:13.862Z</time>
      </trkpt>
      <trkpt lat="44.8557" lon="5.40551">
        <ele>1167</ele>
        <time>2020-05-22T10:33:14.862Z</time>
      </trkpt>
      <trkpt lat="44.85581" lon="5.40549">
        <ele>1167</ele>
        <time>2020-05-22T10:33:15.862Z</time>
      </trkpt>
      <trkpt lat="44.85589" lon="5.40547">
        <ele>1167</ele>
        <time>2020-05-22T10:33:16.862Z</time>
      </trkpt>
      <trkpt lat="44.85602" lon="5.40544">
        <ele>1166</ele>
        <time>2020-05-22T10:33:17.862Z</time>
      </trkpt>
      <trkpt lat="44.85611" lon="5.40543">
        <ele>1166</ele>
        <time>2020-05-22T10:33:18.862Z</time>
      </trkpt>
      <trkpt lat="44.85621" lon="5.4054">
        <ele>1166</ele>
        <time>2020-05-22T10:33:19.862Z</time>
      </trkpt>
      <trkpt lat="44.85631" lon="5.40539">
        <ele>1165</ele>
        <time>2020-05-22T10:33:20.862Z</time>
      </trkpt>
      <trkpt lat="44.85641" lon="5.40541">
        <ele>1165</ele>
        <time>2020-05-22T10:33:21.862Z</time>
      </trkpt>
      <trkpt lat="44.8565" lon="5.40544">
        <ele>1164</ele>
        <time>2020-05-22T10:33:22.862Z</time>
      </trkpt>
      <trkpt lat="44.85659" lon="5.40548">
        <ele>1164</ele>
        <time>2020-05-22T10:33:23.862Z</time>
      </trkpt>
      <trkpt lat="44.85668" lon="5.40554">
        <ele>1163</ele>
        <time>2020-05-22T10:33:24.862Z</time>
      </trkpt>
      <trkpt lat="44.85677" lon="5.4056">
        <ele>1163</ele>
        <time>2020-05-22T10:33:25.862Z</time>
      </trkpt>
      <trkpt lat="44.85686" lon="5.40566">
        <ele>1162</ele>
        <time>2020-05-22T10:33:26.862Z</time>
      </trkpt>
      <trkpt lat="44.85695" lon="5.4057">
        <ele>1162</ele>
        <time>2020-05-22T10:33:27.862Z</time>
      </trkpt>
      <trkpt lat="44.85704" lon="5.40575">
        <ele>1161</ele>
        <time>2020-05-22T10:33:28.862Z</time>
      </trkpt>
      <trkpt lat="44.85713" lon="5.40579">
        <ele>1161</ele>
        <time>2020-05-22T10:33:29.862Z</time>
      </trkpt>
      <trkpt lat="44.85723" lon="5.40582">
        <ele>1161</ele>
        <time>2020-05-22T10:33:30.862Z</time>
      </trkpt>
      <trkpt lat="44.85732" lon="5.40585">
        <ele>1160</ele>
        <time>2020-05-22T10:33:31.862Z</time>
      </trkpt>
      <trkpt lat="44.85742" lon="5.40587">
        <ele>1159</ele>
        <time>2020-05-22T10:33:32.862Z</time>
      </trkpt>
      <trkpt lat="44.85752" lon="5.40589">
        <ele>1159</ele>
        <time>2020-05-22T10:33:33.862Z</time>
      </trkpt>
      <trkpt lat="44.85762" lon="5.40591">
        <ele>1158</ele>
        <time>2020-05-22T10:33:34.862Z</time>
      </trkpt>
      <trkpt lat="44.85772" lon="5.40592">
        <ele>1157</ele>
        <time>2020-05-22T10:33:35.862Z</time>
      </trkpt>
      <trkpt lat="44.85782" lon="5.40592">
        <ele>1156</ele>
        <time>2020-05-22T10:33:36.862Z</time>
      </trkpt>
      <trkpt lat="44.85791" lon="5.40592">
        <ele>1155</ele>
        <time>2020-05-22T10:33:37.862Z</time>
      </trkpt>
      <trkpt lat="44.85801" lon="5.40592">
        <ele>1154</ele>
        <time>2020-05-22T10:33:38.862Z</time>
      </trkpt>
      <trkpt lat="44.85812" lon="5.40593">
        <ele>1154</ele>
        <time>2020-05-22T10:33:39.862Z</time>
      </trkpt>
      <trkpt lat="44.85822" lon="5.40596">
        <ele>1153</ele>
        <time>2020-05-22T10:33:40.862Z</time>
      </trkpt>
      <trkpt lat="44.85831" lon="5.40598">
        <ele>1153</ele>
        <time>2020-05-22T10:33:41.862Z</time>
      </trkpt>
      <trkpt lat="44.85841" lon="5.40603">
        <ele>1152</ele>
        <time>2020-05-22T10:33:42.862Z</time>
      </trkpt>
      <trkpt lat="44.85851" lon="5.40607">
        <ele>1152</ele>
        <time>2020-05-22T10:33:43.862Z</time>
      </trkpt>
      <trkpt lat="44.85861" lon="5.40612">
        <ele>1151</ele>
        <time>2020-05-22T10:33:44.862Z</time>
      </trkpt>
      <trkpt lat="44.8587" lon="5.40618">
        <ele>1151</ele>
        <time>2020-05-22T10:33:45.862Z</time>
      </trkpt>
      <trkpt lat="44.85879" lon="5.40622">
        <ele>1150</ele>
        <time>2020-05-22T10:33:46.863Z</time>
      </trkpt>
      <trkpt lat="44.85889" lon="5.40625">
        <ele>1150</ele>
        <time>2020-05-22T10:33:47.862Z</time>
      </trkpt>
      <trkpt lat="44.85898" lon="5.40628">
        <ele>1149</ele>
        <time>2020-05-22T10:33:48.862Z</time>
      </trkpt>
      <trkpt lat="44.85907" lon="5.40631">
        <ele>1149</ele>
        <time>2020-05-22T10:33:49.862Z</time>
      </trkpt>
      <trkpt lat="44.85917" lon="5.40633">
        <ele>1148</ele>
        <time>2020-05-22T10:33:50.862Z</time>
      </trkpt>
      <trkpt lat="44.85927" lon="5.40634">
        <ele>1147</ele>
        <time>2020-05-22T10:33:51.862Z</time>
      </trkpt>
      <trkpt lat="44.85937" lon="5.40635">
        <ele>1147</ele>
        <time>2020-05-22T10:33:52.862Z</time>
      </trkpt>
      <trkpt lat="44.85947" lon="5.40636">
        <ele>1146</ele>
        <time>2020-05-22T10:33:53.862Z</time>
      </trkpt>
      <trkpt lat="44.85957" lon="5.40639">
        <ele>1146</ele>
        <time>2020-05-22T10:33:54.862Z</time>
      </trkpt>
      <trkpt lat="44.85968" lon="5.40643">
        <ele>1145</ele>
        <time>2020-05-22T10:33:55.862Z</time>
      </trkpt>
      <trkpt lat="44.85977" lon="5.40648">
        <ele>1145</ele>
        <time>2020-05-22T10:33:56.862Z</time>
      </trkpt>
      <trkpt lat="44.85986" lon="5.40655">
        <ele>1144</ele>
        <time>2020-05-22T10:33:57.862Z</time>
      </trkpt>
      <trkpt lat="44.85996" lon="5.40662">
        <ele>1143</ele>
        <time>2020-05-22T10:33:58.862Z</time>
      </trkpt>
      <trkpt lat="44.86005" lon="5.40668">
        <ele>1143</ele>
        <time>2020-05-22T10:33:59.862Z</time>
      </trkpt>
      <trkpt lat="44.86014" lon="5.40673">
        <ele>1142</ele>
        <time>2020-05-22T10:34:00.862Z</time>
      </trkpt>
      <trkpt lat="44.86024" lon="5.40677">
        <ele>1141</ele>
        <time>2020-05-22T10:34:01.862Z</time>
      </trkpt>
      <trkpt lat="44.86034" lon="5.4068">
        <ele>1140</ele>
        <time>2020-05-22T10:34:02.862Z</time>
      </trkpt>
      <trkpt lat="44.86043" lon="5.40683">
        <ele>1139</ele>
        <time>2020-05-22T10:34:03.862Z</time>
      </trkpt>
      <trkpt lat="44.86052" lon="5.40685">
        <ele>1138</ele>
        <time>2020-05-22T10:34:04.862Z</time>
      </trkpt>
      <trkpt lat="44.8606" lon="5.40688">
        <ele>1137</ele>
        <time>2020-05-22T10:34:05.862Z</time>
      </trkpt>
      <trkpt lat="44.86066" lon="5.4069">
        <ele>1136</ele>
        <time>2020-05-22T10:34:06.862Z</time>
      </trkpt>
      <trkpt lat="44.86072" lon="5.40692">
        <ele>1136</ele>
        <time>2020-05-22T10:34:07.862Z</time>
      </trkpt>
      <trkpt lat="44.86078" lon="5.40694">
        <ele>1136</ele>
        <time>2020-05-22T10:34:08.862Z</time>
      </trkpt>
      <trkpt lat="44.86082" lon="5.40697">
        <ele>1136</ele>
        <time>2020-05-22T10:34:09.862Z</time>
      </trkpt>
      <trkpt lat="44.86087" lon="5.40699">
        <ele>1135</ele>
        <time>2020-05-22T10:34:10.862Z</time>
      </trkpt>
      <trkpt lat="44.86091" lon="5.40701">
        <ele>1136</ele>
        <time>2020-05-22T10:34:11.862Z</time>
      </trkpt>
      <trkpt lat="44.86095" lon="5.40703">
        <ele>1136</ele>
        <time>2020-05-22T10:34:12.862Z</time>
      </trkpt>
      <trkpt lat="44.861" lon="5.40706">
        <ele>1136</ele>
        <time>2020-05-22T10:34:13.862Z</time>
      </trkpt>
      <trkpt lat="44.86104" lon="5.40709">
        <ele>1136</ele>
        <time>2020-05-22T10:34:14.862Z</time>
      </trkpt>
      <trkpt lat="44.86109" lon="5.40711">
        <ele>1136</ele>
        <time>2020-05-22T10:34:15.862Z</time>
      </trkpt>
      <trkpt lat="44.86113" lon="5.40714">
        <ele>1136</ele>
        <time>2020-05-22T10:34:16.862Z</time>
      </trkpt>
      <trkpt lat="44.86118" lon="5.40716">
        <ele>1136</ele>
        <time>2020-05-22T10:34:17.862Z</time>
      </trkpt>
      <trkpt lat="44.86123" lon="5.40717">
        <ele>1136</ele>
        <time>2020-05-22T10:34:18.862Z</time>
      </trkpt>
      <trkpt lat="44.86128" lon="5.40718">
        <ele>1136</ele>
        <time>2020-05-22T10:34:19.863Z</time>
      </trkpt>
      <trkpt lat="44.86134" lon="5.4072">
        <ele>1135</ele>
        <time>2020-05-22T10:34:20.862Z</time>
      </trkpt>
      <trkpt lat="44.86141" lon="5.40721">
        <ele>1135</ele>
        <time>2020-05-22T10:34:21.862Z</time>
      </trkpt>
      <trkpt lat="44.86148" lon="5.40722">
        <ele>1135</ele>
        <time>2020-05-22T10:34:22.862Z</time>
      </trkpt>
      <trkpt lat="44.86155" lon="5.40723">
        <ele>1134</ele>
        <time>2020-05-22T10:34:23.862Z</time>
      </trkpt>
      <trkpt lat="44.86163" lon="5.40725">
        <ele>1133</ele>
        <time>2020-05-22T10:34:24.862Z</time>
      </trkpt>
      <trkpt lat="44.86172" lon="5.40727">
        <ele>1132</ele>
        <time>2020-05-22T10:34:25.862Z</time>
      </trkpt>
      <trkpt lat="44.8618" lon="5.40729">
        <ele>1132</ele>
        <time>2020-05-22T10:34:26.862Z</time>
      </trkpt>
      <trkpt lat="44.86188" lon="5.40733">
        <ele>1131</ele>
        <time>2020-05-22T10:34:27.862Z</time>
      </trkpt>
      <trkpt lat="44.86197" lon="5.40737">
        <ele>1130</ele>
        <time>2020-05-22T10:34:28.862Z</time>
      </trkpt>
      <trkpt lat="44.86205" lon="5.40742">
        <ele>1129</ele>
        <time>2020-05-22T10:34:29.862Z</time>
      </trkpt>
      <trkpt lat="44.86213" lon="5.40747">
        <ele>1128</ele>
        <time>2020-05-22T10:34:30.862Z</time>
      </trkpt>
      <trkpt lat="44.86221" lon="5.40753">
        <ele>1128</ele>
        <time>2020-05-22T10:34:31.862Z</time>
      </trkpt>
      <trkpt lat="44.86229" lon="5.40758">
        <ele>1127</ele>
        <time>2020-05-22T10:34:32.862Z</time>
      </trkpt>
      <trkpt lat="44.86238" lon="5.40763">
        <ele>1126</ele>
        <time>2020-05-22T10:34:33.862Z</time>
      </trkpt>
      <trkpt lat="44.86246" lon="5.40767">
        <ele>1126</ele>
        <time>2020-05-22T10:34:34.862Z</time>
      </trkpt>
      <trkpt lat="44.86255" lon="5.40771">
        <ele>1125</ele>
        <time>2020-05-22T10:34:35.862Z</time>
      </trkpt>
      <trkpt lat="44.86264" lon="5.40775">
        <ele>1125</ele>
        <time>2020-05-22T10:34:36.862Z</time>
      </trkpt>
      <trkpt lat="44.86273" lon="5.4078">
        <ele>1124</ele>
        <time>2020-05-22T10:34:37.862Z</time>
      </trkpt>
      <trkpt lat="44.86282" lon="5.40783">
        <ele>1123</ele>
        <time>2020-05-22T10:34:38.862Z</time>
      </trkpt>
      <trkpt lat="44.86291" lon="5.40787">
        <ele>1123</ele>
        <time>2020-05-22T10:34:39.862Z</time>
      </trkpt>
      <trkpt lat="44.86301" lon="5.4079">
        <ele>1122</ele>
        <time>2020-05-22T10:34:40.862Z</time>
      </trkpt>
      <trkpt lat="44.86312" lon="5.40794">
        <ele>1122</ele>
        <time>2020-05-22T10:34:41.862Z</time>
      </trkpt>
      <trkpt lat="44.86321" lon="5.40798">
        <ele>1121</ele>
        <time>2020-05-22T10:34:42.862Z</time>
      </trkpt>
      <trkpt lat="44.86331" lon="5.40802">
        <ele>1120</ele>
        <time>2020-05-22T10:34:43.862Z</time>
      </trkpt>
      <trkpt lat="44.8634" lon="5.40806">
        <ele>1119</ele>
        <time>2020-05-22T10:34:44.862Z</time>
      </trkpt>
      <trkpt lat="44.8635" lon="5.4081">
        <ele>1118</ele>
        <time>2020-05-22T10:34:45.862Z</time>
      </trkpt>
      <trkpt lat="44.8636" lon="5.40814">
        <ele>1117</ele>
        <time>2020-05-22T10:34:46.862Z</time>
      </trkpt>
      <trkpt lat="44.86369" lon="5.40817">
        <ele>1116</ele>
        <time>2020-05-22T10:34:47.862Z</time>
      </trkpt>
      <trkpt lat="44.86379" lon="5.40821">
        <ele>1116</ele>
        <time>2020-05-22T10:34:48.862Z</time>
      </trkpt>
      <trkpt lat="44.86389" lon="5.40824">
        <ele>1115</ele>
        <time>2020-05-22T10:34:49.862Z</time>
      </trkpt>
      <trkpt lat="44.86398" lon="5.40827">
        <ele>1114</ele>
        <time>2020-05-22T10:34:50.862Z</time>
      </trkpt>
      <trkpt lat="44.86408" lon="5.40829">
        <ele>1114</ele>
        <time>2020-05-22T10:34:51.862Z</time>
      </trkpt>
      <trkpt lat="44.86418" lon="5.40832">
        <ele>1113</ele>
        <time>2020-05-22T10:34:52.862Z</time>
      </trkpt>
      <trkpt lat="44.86427" lon="5.40834">
        <ele>1113</ele>
        <time>2020-05-22T10:34:53.862Z</time>
      </trkpt>
      <trkpt lat="44.86437" lon="5.40836">
        <ele>1112</ele>
        <time>2020-05-22T10:34:54.862Z</time>
      </trkpt>
      <trkpt lat="44.86447" lon="5.40838">
        <ele>1112</ele>
        <time>2020-05-22T10:34:55.862Z</time>
      </trkpt>
      <trkpt lat="44.86457" lon="5.40841">
        <ele>1111</ele>
        <time>2020-05-22T10:34:56.862Z</time>
      </trkpt>
      <trkpt lat="44.86467" lon="5.40844">
        <ele>1111</ele>
        <time>2020-05-22T10:34:57.862Z</time>
      </trkpt>
      <trkpt lat="44.86479" lon="5.40847">
        <ele>1110</ele>
        <time>2020-05-22T10:34:58.862Z</time>
      </trkpt>
      <trkpt lat="44.86487" lon="5.4085">
        <ele>1110</ele>
        <time>2020-05-22T10:34:59.862Z</time>
      </trkpt>
      <trkpt lat="44.86497" lon="5.40854">
        <ele>1110</ele>
        <time>2020-05-22T10:35:00.862Z</time>
      </trkpt>
      <trkpt lat="44.86507" lon="5.40858">
        <ele>1109</ele>
        <time>2020-05-22T10:35:01.862Z</time>
      </trkpt>
      <trkpt lat="44.86517" lon="5.40863">
        <ele>1109</ele>
        <time>2020-05-22T10:35:02.862Z</time>
      </trkpt>
      <trkpt lat="44.86527" lon="5.40867">
        <ele>1109</ele>
        <time>2020-05-22T10:35:03.862Z</time>
      </trkpt>
      <trkpt lat="44.86537" lon="5.40872">
        <ele>1109</ele>
        <time>2020-05-22T10:35:04.862Z</time>
      </trkpt>
      <trkpt lat="44.86547" lon="5.40877">
        <ele>1108</ele>
        <time>2020-05-22T10:35:05.862Z</time>
      </trkpt>
      <trkpt lat="44.86557" lon="5.40882">
        <ele>1108</ele>
        <time>2020-05-22T10:35:06.862Z</time>
      </trkpt>
      <trkpt lat="44.86567" lon="5.40887">
        <ele>1107</ele>
        <time>2020-05-22T10:35:07.862Z</time>
      </trkpt>
      <trkpt lat="44.86578" lon="5.40891">
        <ele>1107</ele>
        <time>2020-05-22T10:35:08.862Z</time>
      </trkpt>
      <trkpt lat="44.86588" lon="5.40894">
        <ele>1106</ele>
        <time>2020-05-22T10:35:09.862Z</time>
      </trkpt>
      <trkpt lat="44.86597" lon="5.40897">
        <ele>1106</ele>
        <time>2020-05-22T10:35:10.862Z</time>
      </trkpt>
      <trkpt lat="44.86606" lon="5.40901">
        <ele>1105</ele>
        <time>2020-05-22T10:35:11.862Z</time>
      </trkpt>
      <trkpt lat="44.86616" lon="5.40904">
        <ele>1104</ele>
        <time>2020-05-22T10:35:12.862Z</time>
      </trkpt>
      <trkpt lat="44.86626" lon="5.40906">
        <ele>1104</ele>
        <time>2020-05-22T10:35:13.862Z</time>
      </trkpt>
      <trkpt lat="44.86636" lon="5.40909">
        <ele>1103</ele>
        <time>2020-05-22T10:35:14.862Z</time>
      </trkpt>
      <trkpt lat="44.86646" lon="5.40912">
        <ele>1102</ele>
        <time>2020-05-22T10:35:15.862Z</time>
      </trkpt>
      <trkpt lat="44.86656" lon="5.40916">
        <ele>1101</ele>
        <time>2020-05-22T10:35:16.862Z</time>
      </trkpt>
      <trkpt lat="44.86666" lon="5.40917">
        <ele>1100</ele>
        <time>2020-05-22T10:35:17.862Z</time>
      </trkpt>
      <trkpt lat="44.86676" lon="5.4092">
        <ele>1099</ele>
        <time>2020-05-22T10:35:18.862Z</time>
      </trkpt>
      <trkpt lat="44.86687" lon="5.40922">
        <ele>1098</ele>
        <time>2020-05-22T10:35:19.862Z</time>
      </trkpt>
      <trkpt lat="44.86698" lon="5.40925">
        <ele>1097</ele>
        <time>2020-05-22T10:35:20.862Z</time>
      </trkpt>
      <trkpt lat="44.86708" lon="5.40926">
        <ele>1097</ele>
        <time>2020-05-22T10:35:21.862Z</time>
      </trkpt>
      <trkpt lat="44.86721" lon="5.40928">
        <ele>1096</ele>
        <time>2020-05-22T10:35:22.862Z</time>
      </trkpt>
      <trkpt lat="44.86729" lon="5.40929">
        <ele>1096</ele>
        <time>2020-05-22T10:35:23.862Z</time>
      </trkpt>
      <trkpt lat="44.8674" lon="5.4093">
        <ele>1095</ele>
        <time>2020-05-22T10:35:24.862Z</time>
      </trkpt>
      <trkpt lat="44.86751" lon="5.40932">
        <ele>1094</ele>
        <time>2020-05-22T10:35:25.862Z</time>
      </trkpt>
      <trkpt lat="44.86761" lon="5.40933">
        <ele>1094</ele>
        <time>2020-05-22T10:35:26.862Z</time>
      </trkpt>
      <trkpt lat="44.86772" lon="5.40935">
        <ele>1092</ele>
        <time>2020-05-22T10:35:27.862Z</time>
      </trkpt>
      <trkpt lat="44.86782" lon="5.40938">
        <ele>1091</ele>
        <time>2020-05-22T10:35:28.862Z</time>
      </trkpt>
      <trkpt lat="44.86792" lon="5.40942">
        <ele>1091</ele>
        <time>2020-05-22T10:35:29.863Z</time>
      </trkpt>
      <trkpt lat="44.86803" lon="5.40947">
        <ele>1090</ele>
        <time>2020-05-22T10:35:30.862Z</time>
      </trkpt>
      <trkpt lat="44.86813" lon="5.40953">
        <ele>1089</ele>
        <time>2020-05-22T10:35:31.862Z</time>
      </trkpt>
      <trkpt lat="44.86822" lon="5.4096">
        <ele>1089</ele>
        <time>2020-05-22T10:35:32.862Z</time>
      </trkpt>
      <trkpt lat="44.86832" lon="5.40967">
        <ele>1089</ele>
        <time>2020-05-22T10:35:33.862Z</time>
      </trkpt>
      <trkpt lat="44.86841" lon="5.40973">
        <ele>1088</ele>
        <time>2020-05-22T10:35:34.862Z</time>
      </trkpt>
      <trkpt lat="44.86851" lon="5.4098">
        <ele>1088</ele>
        <time>2020-05-22T10:35:35.862Z</time>
      </trkpt>
      <trkpt lat="44.86861" lon="5.40985">
        <ele>1087</ele>
        <time>2020-05-22T10:35:36.862Z</time>
      </trkpt>
      <trkpt lat="44.86871" lon="5.4099">
        <ele>1086</ele>
        <time>2020-05-22T10:35:37.862Z</time>
      </trkpt>
      <trkpt lat="44.86882" lon="5.40994">
        <ele>1086</ele>
        <time>2020-05-22T10:35:38.862Z</time>
      </trkpt>
      <trkpt lat="44.86892" lon="5.40998">
        <ele>1085</ele>
        <time>2020-05-22T10:35:39.862Z</time>
      </trkpt>
      <trkpt lat="44.86903" lon="5.41001">
        <ele>1085</ele>
        <time>2020-05-22T10:35:40.863Z</time>
      </trkpt>
      <trkpt lat="44.86913" lon="5.41004">
        <ele>1084</ele>
        <time>2020-05-22T10:35:41.862Z</time>
      </trkpt>
      <trkpt lat="44.86924" lon="5.41006">
        <ele>1083</ele>
        <time>2020-05-22T10:35:42.862Z</time>
      </trkpt>
      <trkpt lat="44.86934" lon="5.41008">
        <ele>1083</ele>
        <time>2020-05-22T10:35:43.862Z</time>
      </trkpt>
      <trkpt lat="44.86944" lon="5.4101">
        <ele>1082</ele>
        <time>2020-05-22T10:35:44.862Z</time>
      </trkpt>
      <trkpt lat="44.86953" lon="5.41011">
        <ele>1081</ele>
        <time>2020-05-22T10:35:45.862Z</time>
      </trkpt>
      <trkpt lat="44.86962" lon="5.41012">
        <ele>1080</ele>
        <time>2020-05-22T10:35:46.862Z</time>
      </trkpt>
      <trkpt lat="44.8697" lon="5.41012">
        <ele>1080</ele>
        <time>2020-05-22T10:35:47.862Z</time>
      </trkpt>
      <trkpt lat="44.86978" lon="5.41011">
        <ele>1079</ele>
        <time>2020-05-22T10:35:48.862Z</time>
      </trkpt>
      <trkpt lat="44.86985" lon="5.41009">
        <ele>1079</ele>
        <time>2020-05-22T10:35:49.862Z</time>
      </trkpt>
      <trkpt lat="44.86991" lon="5.41008">
        <ele>1079</ele>
        <time>2020-05-22T10:35:50.862Z</time>
      </trkpt>
      <trkpt lat="44.86996" lon="5.41008">
        <ele>1078</ele>
        <time>2020-05-22T10:35:51.862Z</time>
      </trkpt>
      <trkpt lat="44.87" lon="5.4101">
        <ele>1078</ele>
        <time>2020-05-22T10:35:52.862Z</time>
      </trkpt>
      <trkpt lat="44.87001" lon="5.41013">
        <ele>1078</ele>
        <time>2020-05-22T10:35:53.862Z</time>
      </trkpt>
      <trkpt lat="44.86999" lon="5.41016">
        <ele>1078</ele>
        <time>2020-05-22T10:35:54.862Z</time>
      </trkpt>
      <trkpt lat="44.86996" lon="5.41018">
        <ele>1077</ele>
        <time>2020-05-22T10:35:55.862Z</time>
      </trkpt>
      <trkpt lat="44.8699" lon="5.41018">
        <ele>1077</ele>
        <time>2020-05-22T10:35:56.862Z</time>
      </trkpt>
      <trkpt lat="44.86984" lon="5.41018">
        <ele>1077</ele>
        <time>2020-05-22T10:35:57.862Z</time>
      </trkpt>
      <trkpt lat="44.86979" lon="5.41018">
        <ele>1077</ele>
        <time>2020-05-22T10:35:58.862Z</time>
      </trkpt>
      <trkpt lat="44.86974" lon="5.41018">
        <ele>1077</ele>
        <time>2020-05-22T10:35:59.862Z</time>
      </trkpt>
      <trkpt lat="44.86969" lon="5.41018">
        <ele>1077</ele>
        <time>2020-05-22T10:36:00.862Z</time>
      </trkpt>
      <trkpt lat="44.86965" lon="5.41018">
        <ele>1077</ele>
        <time>2020-05-22T10:36:01.862Z</time>
      </trkpt>
      <trkpt lat="44.86961" lon="5.41018">
        <ele>1077</ele>
        <time>2020-05-22T10:36:02.862Z</time>
      </trkpt>
      <trkpt lat="44.86956" lon="5.41018">
        <ele>1077</ele>
        <time>2020-05-22T10:36:03.862Z</time>
      </trkpt>
      <trkpt lat="44.86952" lon="5.41018">
        <ele>1076</ele>
        <time>2020-05-22T10:36:04.862Z</time>
      </trkpt>
      <trkpt lat="44.86947" lon="5.41018">
        <ele>1076</ele>
        <time>2020-05-22T10:36:05.862Z</time>
      </trkpt>
      <trkpt lat="44.86942" lon="5.41018">
        <ele>1075</ele>
        <time>2020-05-22T10:36:06.862Z</time>
      </trkpt>
      <trkpt lat="44.86937" lon="5.41018">
        <ele>1075</ele>
        <time>2020-05-22T10:36:07.862Z</time>
      </trkpt>
      <trkpt lat="44.86933" lon="5.41019">
        <ele>1075</ele>
        <time>2020-05-22T10:36:08.862Z</time>
      </trkpt>
      <trkpt lat="44.86929" lon="5.41019">
        <ele>1075</ele>
        <time>2020-05-22T10:36:09.862Z</time>
      </trkpt>
      <trkpt lat="44.86924" lon="5.41019">
        <ele>1074</ele>
        <time>2020-05-22T10:36:10.862Z</time>
      </trkpt>
      <trkpt lat="44.86919" lon="5.4102">
        <ele>1074</ele>
        <time>2020-05-22T10:36:11.862Z</time>
      </trkpt>
      <trkpt lat="44.86915" lon="5.41021">
        <ele>1074</ele>
        <time>2020-05-22T10:36:12.862Z</time>
      </trkpt>
      <trkpt lat="44.8691" lon="5.41021">
        <ele>1074</ele>
        <time>2020-05-22T10:36:13.862Z</time>
      </trkpt>
      <trkpt lat="44.86905" lon="5.41022">
        <ele>1073</ele>
        <time>2020-05-22T10:36:14.862Z</time>
      </trkpt>
      <trkpt lat="44.86901" lon="5.41022">
        <ele>1073</ele>
        <time>2020-05-22T10:36:15.862Z</time>
      </trkpt>
      <trkpt lat="44.86896" lon="5.41022">
        <ele>1073</ele>
        <time>2020-05-22T10:36:16.862Z</time>
      </trkpt>
      <trkpt lat="44.86892" lon="5.41022">
        <ele>1073</ele>
        <time>2020-05-22T10:36:17.862Z</time>
      </trkpt>
      <trkpt lat="44.86887" lon="5.41022">
        <ele>1073</ele>
        <time>2020-05-22T10:36:18.862Z</time>
      </trkpt>
      <trkpt lat="44.86882" lon="5.41022">
        <ele>1073</ele>
        <time>2020-05-22T10:36:19.862Z</time>
      </trkpt>
      <trkpt lat="44.86877" lon="5.41021">
        <ele>1073</ele>
        <time>2020-05-22T10:36:20.862Z</time>
      </trkpt>
      <trkpt lat="44.86871" lon="5.41021">
        <ele>1073</ele>
        <time>2020-05-22T10:36:21.862Z</time>
      </trkpt>
      <trkpt lat="44.86866" lon="5.41021">
        <ele>1072</ele>
        <time>2020-05-22T10:36:22.862Z</time>
      </trkpt>
      <trkpt lat="44.8686" lon="5.41021">
        <ele>1071</ele>
        <time>2020-05-22T10:36:23.862Z</time>
      </trkpt>
      <trkpt lat="44.86854" lon="5.4102">
        <ele>1070</ele>
        <time>2020-05-22T10:36:24.862Z</time>
      </trkpt>
      <trkpt lat="44.86847" lon="5.41019">
        <ele>1070</ele>
        <time>2020-05-22T10:36:25.862Z</time>
      </trkpt>
      <trkpt lat="44.8684" lon="5.41018">
        <ele>1070</ele>
        <time>2020-05-22T10:36:26.862Z</time>
      </trkpt>
      <trkpt lat="44.86833" lon="5.41016">
        <ele>1070</ele>
        <time>2020-05-22T10:36:27.862Z</time>
      </trkpt>
      <trkpt lat="44.86827" lon="5.41014">
        <ele>1069</ele>
        <time>2020-05-22T10:36:28.862Z</time>
      </trkpt>
      <trkpt lat="44.8682" lon="5.41012">
        <ele>1069</ele>
        <time>2020-05-22T10:36:29.862Z</time>
      </trkpt>
      <trkpt lat="44.86813" lon="5.41011">
        <ele>1068</ele>
        <time>2020-05-22T10:36:30.862Z</time>
      </trkpt>
      <trkpt lat="44.86806" lon="5.4101">
        <ele>1068</ele>
        <time>2020-05-22T10:36:31.862Z</time>
      </trkpt>
      <trkpt lat="44.86798" lon="5.4101">
        <ele>1068</ele>
        <time>2020-05-22T10:36:32.862Z</time>
      </trkpt>
      <trkpt lat="44.86791" lon="5.4101">
        <ele>1068</ele>
        <time>2020-05-22T10:36:33.862Z</time>
      </trkpt>
      <trkpt lat="44.86784" lon="5.4101">
        <ele>1067</ele>
        <time>2020-05-22T10:36:34.862Z</time>
      </trkpt>
      <trkpt lat="44.86776" lon="5.41011">
        <ele>1067</ele>
        <time>2020-05-22T10:36:35.862Z</time>
      </trkpt>
      <trkpt lat="44.8677" lon="5.41011">
        <ele>1067</ele>
        <time>2020-05-22T10:36:36.862Z</time>
      </trkpt>
      <trkpt lat="44.86763" lon="5.4101">
        <ele>1066</ele>
        <time>2020-05-22T10:36:37.862Z</time>
      </trkpt>
      <trkpt lat="44.86756" lon="5.41009">
        <ele>1066</ele>
        <time>2020-05-22T10:36:38.862Z</time>
      </trkpt>
      <trkpt lat="44.86749" lon="5.41008">
        <ele>1066</ele>
        <time>2020-05-22T10:36:39.862Z</time>
      </trkpt>
      <trkpt lat="44.86742" lon="5.41007">
        <ele>1066</ele>
        <time>2020-05-22T10:36:40.862Z</time>
      </trkpt>
      <trkpt lat="44.86735" lon="5.41006">
        <ele>1066</ele>
        <time>2020-05-22T10:36:41.862Z</time>
      </trkpt>
      <trkpt lat="44.86729" lon="5.41005">
        <ele>1066</ele>
        <time>2020-05-22T10:36:42.862Z</time>
      </trkpt>
      <trkpt lat="44.86722" lon="5.41004">
        <ele>1066</ele>
        <time>2020-05-22T10:36:43.862Z</time>
      </trkpt>
      <trkpt lat="44.86715" lon="5.41003">
        <ele>1066</ele>
        <time>2020-05-22T10:36:44.862Z</time>
      </trkpt>
      <trkpt lat="44.86708" lon="5.41003">
        <ele>1065</ele>
        <time>2020-05-22T10:36:45.862Z</time>
      </trkpt>
      <trkpt lat="44.86701" lon="5.41002">
        <ele>1065</ele>
        <time>2020-05-22T10:36:46.862Z</time>
      </trkpt>
      <trkpt lat="44.86694" lon="5.41">
        <ele>1065</ele>
        <time>2020-05-22T10:36:47.862Z</time>
      </trkpt>
      <trkpt lat="44.86687" lon="5.41">
        <ele>1064</ele>
        <time>2020-05-22T10:36:48.862Z</time>
      </trkpt>
      <trkpt lat="44.86679" lon="5.40999">
        <ele>1064</ele>
        <time>2020-05-22T10:36:49.862Z</time>
      </trkpt>
      <trkpt lat="44.86672" lon="5.40999">
        <ele>1064</ele>
        <time>2020-05-22T10:36:50.862Z</time>
      </trkpt>
      <trkpt lat="44.86664" lon="5.41">
        <ele>1063</ele>
        <time>2020-05-22T10:36:51.862Z</time>
      </trkpt>
      <trkpt lat="44.86656" lon="5.41001">
        <ele>1063</ele>
        <time>2020-05-22T10:36:52.862Z</time>
      </trkpt>
      <trkpt lat="44.86648" lon="5.41003">
        <ele>1063</ele>
        <time>2020-05-22T10:36:53.862Z</time>
      </trkpt>
      <trkpt lat="44.86641" lon="5.41004">
        <ele>1063</ele>
        <time>2020-05-22T10:36:54.862Z</time>
      </trkpt>
      <trkpt lat="44.86634" lon="5.41004">
        <ele>1062</ele>
        <time>2020-05-22T10:36:55.862Z</time>
      </trkpt>
      <trkpt lat="44.86628" lon="5.41003">
        <ele>1061</ele>
        <time>2020-05-22T10:36:56.862Z</time>
      </trkpt>
      <trkpt lat="44.86622" lon="5.41003">
        <ele>1060</ele>
        <time>2020-05-22T10:36:57.862Z</time>
      </trkpt>
      <trkpt lat="44.86616" lon="5.41004">
        <ele>1059</ele>
        <time>2020-05-22T10:36:58.862Z</time>
      </trkpt>
      <trkpt lat="44.8661" lon="5.41005">
        <ele>1057</ele>
        <time>2020-05-22T10:36:59.862Z</time>
      </trkpt>
      <trkpt lat="44.86605" lon="5.41006">
        <ele>1056</ele>
        <time>2020-05-22T10:37:00.862Z</time>
      </trkpt>
      <trkpt lat="44.86599" lon="5.41006">
        <ele>1055</ele>
        <time>2020-05-22T10:37:01.862Z</time>
      </trkpt>
      <trkpt lat="44.86593" lon="5.41005">
        <ele>1054</ele>
        <time>2020-05-22T10:37:02.862Z</time>
      </trkpt>
      <trkpt lat="44.86586" lon="5.41004">
        <ele>1053</ele>
        <time>2020-05-22T10:37:03.862Z</time>
      </trkpt>
      <trkpt lat="44.8658" lon="5.41002">
        <ele>1053</ele>
        <time>2020-05-22T10:37:04.862Z</time>
      </trkpt>
      <trkpt lat="44.86574" lon="5.41002">
        <ele>1052</ele>
        <time>2020-05-22T10:37:05.862Z</time>
      </trkpt>
      <trkpt lat="44.86567" lon="5.41002">
        <ele>1052</ele>
        <time>2020-05-22T10:37:06.862Z</time>
      </trkpt>
      <trkpt lat="44.86561" lon="5.41002">
        <ele>1051</ele>
        <time>2020-05-22T10:37:07.862Z</time>
      </trkpt>
      <trkpt lat="44.86555" lon="5.41002">
        <ele>1051</ele>
        <time>2020-05-22T10:37:08.862Z</time>
      </trkpt>
      <trkpt lat="44.86548" lon="5.41002">
        <ele>1050</ele>
        <time>2020-05-22T10:37:09.862Z</time>
      </trkpt>
      <trkpt lat="44.86542" lon="5.41003">
        <ele>1050</ele>
        <time>2020-05-22T10:37:10.862Z</time>
      </trkpt>
      <trkpt lat="44.86536" lon="5.41003">
        <ele>1049</ele>
        <time>2020-05-22T10:37:11.862Z</time>
      </trkpt>
      <trkpt lat="44.8653" lon="5.41004">
        <ele>1048</ele>
        <time>2020-05-22T10:37:12.862Z</time>
      </trkpt>
      <trkpt lat="44.86525" lon="5.41006">
        <ele>1047</ele>
        <time>2020-05-22T10:37:13.862Z</time>
      </trkpt>
      <trkpt lat="44.86519" lon="5.41007">
        <ele>1047</ele>
        <time>2020-05-22T10:37:14.862Z</time>
      </trkpt>
      <trkpt lat="44.86513" lon="5.41009">
        <ele>1046</ele>
        <time>2020-05-22T10:37:15.862Z</time>
      </trkpt>
      <trkpt lat="44.86507" lon="5.4101">
        <ele>1045</ele>
        <time>2020-05-22T10:37:16.862Z</time>
      </trkpt>
      <trkpt lat="44.86502" lon="5.41011">
        <ele>1045</ele>
        <time>2020-05-22T10:37:17.862Z</time>
      </trkpt>
      <trkpt lat="44.86496" lon="5.41011">
        <ele>1044</ele>
        <time>2020-05-22T10:37:18.862Z</time>
      </trkpt>
      <trkpt lat="44.8649" lon="5.41011">
        <ele>1043</ele>
        <time>2020-05-22T10:37:19.862Z</time>
      </trkpt>
      <trkpt lat="44.86484" lon="5.4101">
        <ele>1043</ele>
        <time>2020-05-22T10:37:20.862Z</time>
      </trkpt>
      <trkpt lat="44.86478" lon="5.41008">
        <ele>1043</ele>
        <time>2020-05-22T10:37:21.862Z</time>
      </trkpt>
      <trkpt lat="44.86472" lon="5.41006">
        <ele>1043</ele>
        <time>2020-05-22T10:37:22.862Z</time>
      </trkpt>
      <trkpt lat="44.86467" lon="5.41004">
        <ele>1043</ele>
        <time>2020-05-22T10:37:23.862Z</time>
      </trkpt>
      <trkpt lat="44.86461" lon="5.41001">
        <ele>1043</ele>
        <time>2020-05-22T10:37:24.862Z</time>
      </trkpt>
      <trkpt lat="44.86455" lon="5.40998">
        <ele>1043</ele>
        <time>2020-05-22T10:37:25.862Z</time>
      </trkpt>
      <trkpt lat="44.86449" lon="5.40995">
        <ele>1043</ele>
        <time>2020-05-22T10:37:26.862Z</time>
      </trkpt>
      <trkpt lat="44.86443" lon="5.40992">
        <ele>1043</ele>
        <time>2020-05-22T10:37:27.862Z</time>
      </trkpt>
      <trkpt lat="44.86437" lon="5.40989">
        <ele>1043</ele>
        <time>2020-05-22T10:37:28.862Z</time>
      </trkpt>
      <trkpt lat="44.86431" lon="5.40986">
        <ele>1043</ele>
        <time>2020-05-22T10:37:29.862Z</time>
      </trkpt>
      <trkpt lat="44.86425" lon="5.40983">
        <ele>1044</ele>
        <time>2020-05-22T10:37:30.862Z</time>
      </trkpt>
      <trkpt lat="44.86419" lon="5.4098">
        <ele>1044</ele>
        <time>2020-05-22T10:37:31.862Z</time>
      </trkpt>
      <trkpt lat="44.86413" lon="5.40977">
        <ele>1044</ele>
        <time>2020-05-22T10:37:32.862Z</time>
      </trkpt>
      <trkpt lat="44.86407" lon="5.40974">
        <ele>1045</ele>
        <time>2020-05-22T10:37:33.862Z</time>
      </trkpt>
      <trkpt lat="44.864" lon="5.40971">
        <ele>1045</ele>
        <time>2020-05-22T10:37:34.862Z</time>
      </trkpt>
      <trkpt lat="44.86394" lon="5.40969">
        <ele>1045</ele>
        <time>2020-05-22T10:37:35.862Z</time>
      </trkpt>
      <trkpt lat="44.86388" lon="5.40967">
        <ele>1044</ele>
        <time>2020-05-22T10:37:36.862Z</time>
      </trkpt>
      <trkpt lat="44.86382" lon="5.40966">
        <ele>1044</ele>
        <time>2020-05-22T10:37:37.862Z</time>
      </trkpt>
      <trkpt lat="44.86375" lon="5.40966">
        <ele>1044</ele>
        <time>2020-05-22T10:37:38.862Z</time>
      </trkpt>
      <trkpt lat="44.86368" lon="5.40967">
        <ele>1045</ele>
        <time>2020-05-22T10:37:39.862Z</time>
      </trkpt>
      <trkpt lat="44.86361" lon="5.40969">
        <ele>1045</ele>
        <time>2020-05-22T10:37:40.862Z</time>
      </trkpt>
      <trkpt lat="44.86353" lon="5.40971">
        <ele>1045</ele>
        <time>2020-05-22T10:37:41.863Z</time>
      </trkpt>
      <trkpt lat="44.86346" lon="5.40974">
        <ele>1045</ele>
        <time>2020-05-22T10:37:42.862Z</time>
      </trkpt>
      <trkpt lat="44.86339" lon="5.40977">
        <ele>1044</ele>
        <time>2020-05-22T10:37:43.862Z</time>
      </trkpt>
      <trkpt lat="44.86332" lon="5.4098">
        <ele>1044</ele>
        <time>2020-05-22T10:37:44.862Z</time>
      </trkpt>
      <trkpt lat="44.86325" lon="5.40982">
        <ele>1044</ele>
        <time>2020-05-22T10:37:45.862Z</time>
      </trkpt>
      <trkpt lat="44.86318" lon="5.40984">
        <ele>1044</ele>
        <time>2020-05-22T10:37:46.862Z</time>
      </trkpt>
      <trkpt lat="44.86311" lon="5.40985">
        <ele>1043</ele>
        <time>2020-05-22T10:37:47.862Z</time>
      </trkpt>
      <trkpt lat="44.86305" lon="5.40987">
        <ele>1043</ele>
        <time>2020-05-22T10:37:48.862Z</time>
      </trkpt>
      <trkpt lat="44.86298" lon="5.40987">
        <ele>1043</ele>
        <time>2020-05-22T10:37:49.862Z</time>
      </trkpt>
      <trkpt lat="44.86292" lon="5.40987">
        <ele>1042</ele>
        <time>2020-05-22T10:37:50.862Z</time>
      </trkpt>
      <trkpt lat="44.86285" lon="5.40987">
        <ele>1043</ele>
        <time>2020-05-22T10:37:51.862Z</time>
      </trkpt>
      <trkpt lat="44.86278" lon="5.40987">
        <ele>1043</ele>
        <time>2020-05-22T10:37:52.863Z</time>
      </trkpt>
      <trkpt lat="44.86272" lon="5.40985">
        <ele>1043</ele>
        <time>2020-05-22T10:37:53.862Z</time>
      </trkpt>
      <trkpt lat="44.86266" lon="5.40984">
        <ele>1043</ele>
        <time>2020-05-22T10:37:54.862Z</time>
      </trkpt>
      <trkpt lat="44.8626" lon="5.40985">
        <ele>1043</ele>
        <time>2020-05-22T10:37:55.862Z</time>
      </trkpt>
      <trkpt lat="44.86254" lon="5.40985">
        <ele>1043</ele>
        <time>2020-05-22T10:37:56.862Z</time>
      </trkpt>
      <trkpt lat="44.86248" lon="5.40985">
        <ele>1044</ele>
        <time>2020-05-22T10:37:57.862Z</time>
      </trkpt>
      <trkpt lat="44.86242" lon="5.40986">
        <ele>1044</ele>
        <time>2020-05-22T10:37:58.862Z</time>
      </trkpt>
      <trkpt lat="44.86236" lon="5.4099">
        <ele>1044</ele>
        <time>2020-05-22T10:37:59.862Z</time>
      </trkpt>
      <trkpt lat="44.86228" lon="5.40991">
        <ele>1044</ele>
        <time>2020-05-22T10:38:00.862Z</time>
      </trkpt>
      <trkpt lat="44.86222" lon="5.40991">
        <ele>1044</ele>
        <time>2020-05-22T10:38:01.862Z</time>
      </trkpt>
      <trkpt lat="44.86216" lon="5.40994">
        <ele>1043</ele>
        <time>2020-05-22T10:38:02.862Z</time>
      </trkpt>
      <trkpt lat="44.86211" lon="5.40994">
        <ele>1043</ele>
        <time>2020-05-22T10:38:03.862Z</time>
      </trkpt>
      <trkpt lat="44.86205" lon="5.40995">
        <ele>1043</ele>
        <time>2020-05-22T10:38:04.862Z</time>
      </trkpt>
      <trkpt lat="44.862" lon="5.40996">
        <ele>1042</ele>
        <time>2020-05-22T10:38:05.862Z</time>
      </trkpt>
      <trkpt lat="44.86193" lon="5.40998">
        <ele>1042</ele>
        <time>2020-05-22T10:38:06.862Z</time>
      </trkpt>
      <trkpt lat="44.86186" lon="5.40999">
        <ele>1042</ele>
        <time>2020-05-22T10:38:07.862Z</time>
      </trkpt>
      <trkpt lat="44.86179" lon="5.40999">
        <ele>1041</ele>
        <time>2020-05-22T10:38:08.862Z</time>
      </trkpt>
      <trkpt lat="44.86172" lon="5.40999">
        <ele>1041</ele>
        <time>2020-05-22T10:38:09.862Z</time>
      </trkpt>
      <trkpt lat="44.86165" lon="5.40998">
        <ele>1040</ele>
        <time>2020-05-22T10:38:10.862Z</time>
      </trkpt>
      <trkpt lat="44.86158" lon="5.40996">
        <ele>1040</ele>
        <time>2020-05-22T10:38:11.862Z</time>
      </trkpt>
      <trkpt lat="44.86151" lon="5.40994">
        <ele>1039</ele>
        <time>2020-05-22T10:38:12.862Z</time>
      </trkpt>
      <trkpt lat="44.86143" lon="5.40991">
        <ele>1038</ele>
        <time>2020-05-22T10:38:13.862Z</time>
      </trkpt>
      <trkpt lat="44.86136" lon="5.40989">
        <ele>1038</ele>
        <time>2020-05-22T10:38:14.862Z</time>
      </trkpt>
      <trkpt lat="44.86128" lon="5.40987">
        <ele>1037</ele>
        <time>2020-05-22T10:38:15.862Z</time>
      </trkpt>
      <trkpt lat="44.86121" lon="5.40984">
        <ele>1037</ele>
        <time>2020-05-22T10:38:16.862Z</time>
      </trkpt>
      <trkpt lat="44.86114" lon="5.40981">
        <ele>1036</ele>
        <time>2020-05-22T10:38:17.862Z</time>
      </trkpt>
      <trkpt lat="44.86107" lon="5.40976">
        <ele>1035</ele>
        <time>2020-05-22T10:38:18.862Z</time>
      </trkpt>
      <trkpt lat="44.861" lon="5.40972">
        <ele>1034</ele>
        <time>2020-05-22T10:38:19.862Z</time>
      </trkpt>
      <trkpt lat="44.86093" lon="5.40969">
        <ele>1034</ele>
        <time>2020-05-22T10:38:20.862Z</time>
      </trkpt>
      <trkpt lat="44.86086" lon="5.40965">
        <ele>1033</ele>
        <time>2020-05-22T10:38:21.862Z</time>
      </trkpt>
      <trkpt lat="44.8608" lon="5.40961">
        <ele>1033</ele>
        <time>2020-05-22T10:38:22.862Z</time>
      </trkpt>
      <trkpt lat="44.86073" lon="5.40959">
        <ele>1032</ele>
        <time>2020-05-22T10:38:23.862Z</time>
      </trkpt>
      <trkpt lat="44.86068" lon="5.40956">
        <ele>1031</ele>
        <time>2020-05-22T10:38:24.862Z</time>
      </trkpt>
      <trkpt lat="44.86062" lon="5.40954">
        <ele>1030</ele>
        <time>2020-05-22T10:38:25.862Z</time>
      </trkpt>
      <trkpt lat="44.86056" lon="5.40952">
        <ele>1029</ele>
        <time>2020-05-22T10:38:26.862Z</time>
      </trkpt>
      <trkpt lat="44.86049" lon="5.40949">
        <ele>1028</ele>
        <time>2020-05-22T10:38:27.862Z</time>
      </trkpt>
      <trkpt lat="44.86043" lon="5.40947">
        <ele>1027</ele>
        <time>2020-05-22T10:38:28.862Z</time>
      </trkpt>
      <trkpt lat="44.86037" lon="5.40945">
        <ele>1026</ele>
        <time>2020-05-22T10:38:29.862Z</time>
      </trkpt>
      <trkpt lat="44.86031" lon="5.40943">
        <ele>1025</ele>
        <time>2020-05-22T10:38:30.862Z</time>
      </trkpt>
      <trkpt lat="44.86024" lon="5.40941">
        <ele>1024</ele>
        <time>2020-05-22T10:38:31.862Z</time>
      </trkpt>
      <trkpt lat="44.86017" lon="5.40938">
        <ele>1024</ele>
        <time>2020-05-22T10:38:32.862Z</time>
      </trkpt>
      <trkpt lat="44.86011" lon="5.40936">
        <ele>1023</ele>
        <time>2020-05-22T10:38:33.862Z</time>
      </trkpt>
      <trkpt lat="44.86004" lon="5.40933">
        <ele>1023</ele>
        <time>2020-05-22T10:38:34.862Z</time>
      </trkpt>
      <trkpt lat="44.85996" lon="5.4093">
        <ele>1022</ele>
        <time>2020-05-22T10:38:35.862Z</time>
      </trkpt>
      <trkpt lat="44.85989" lon="5.40927">
        <ele>1021</ele>
        <time>2020-05-22T10:38:36.862Z</time>
      </trkpt>
      <trkpt lat="44.85982" lon="5.40925">
        <ele>1021</ele>
        <time>2020-05-22T10:38:37.862Z</time>
      </trkpt>
      <trkpt lat="44.85974" lon="5.40923">
        <ele>1021</ele>
        <time>2020-05-22T10:38:38.862Z</time>
      </trkpt>
      <trkpt lat="44.85967" lon="5.40921">
        <ele>1020</ele>
        <time>2020-05-22T10:38:39.862Z</time>
      </trkpt>
      <trkpt lat="44.8596" lon="5.4092">
        <ele>1020</ele>
        <time>2020-05-22T10:38:40.862Z</time>
      </trkpt>
      <trkpt lat="44.85953" lon="5.4092">
        <ele>1019</ele>
        <time>2020-05-22T10:38:41.862Z</time>
      </trkpt>
      <trkpt lat="44.85945" lon="5.40919">
        <ele>1018</ele>
        <time>2020-05-22T10:38:42.863Z</time>
      </trkpt>
      <trkpt lat="44.85937" lon="5.40918">
        <ele>1018</ele>
        <time>2020-05-22T10:38:43.862Z</time>
      </trkpt>
      <trkpt lat="44.85929" lon="5.40917">
        <ele>1017</ele>
        <time>2020-05-22T10:38:44.862Z</time>
      </trkpt>
      <trkpt lat="44.85921" lon="5.40917">
        <ele>1017</ele>
        <time>2020-05-22T10:38:45.862Z</time>
      </trkpt>
      <trkpt lat="44.85913" lon="5.40915">
        <ele>1016</ele>
        <time>2020-05-22T10:38:46.862Z</time>
      </trkpt>
      <trkpt lat="44.85905" lon="5.40914">
        <ele>1016</ele>
        <time>2020-05-22T10:38:47.862Z</time>
      </trkpt>
      <trkpt lat="44.85897" lon="5.40912">
        <ele>1015</ele>
        <time>2020-05-22T10:38:48.862Z</time>
      </trkpt>
      <trkpt lat="44.8589" lon="5.40912">
        <ele>1015</ele>
        <time>2020-05-22T10:38:49.862Z</time>
      </trkpt>
      <trkpt lat="44.85884" lon="5.40913">
        <ele>1015</ele>
        <time>2020-05-22T10:38:50.862Z</time>
      </trkpt>
      <trkpt lat="44.85878" lon="5.40917">
        <ele>1015</ele>
        <time>2020-05-22T10:38:51.862Z</time>
      </trkpt>
      <trkpt lat="44.85875" lon="5.40922">
        <ele>1014</ele>
        <time>2020-05-22T10:38:52.862Z</time>
      </trkpt>
      <trkpt lat="44.85874" lon="5.40929">
        <ele>1014</ele>
        <time>2020-05-22T10:38:53.862Z</time>
      </trkpt>
      <trkpt lat="44.85875" lon="5.40936">
        <ele>1013</ele>
        <time>2020-05-22T10:38:54.862Z</time>
      </trkpt>
      <trkpt lat="44.85879" lon="5.40943">
        <ele>1013</ele>
        <time>2020-05-22T10:38:55.862Z</time>
      </trkpt>
      <trkpt lat="44.85884" lon="5.40951">
        <ele>1012</ele>
        <time>2020-05-22T10:38:56.862Z</time>
      </trkpt>
      <trkpt lat="44.85889" lon="5.40956">
        <ele>1012</ele>
        <time>2020-05-22T10:38:57.862Z</time>
      </trkpt>
      <trkpt lat="44.85895" lon="5.40962">
        <ele>1011</ele>
        <time>2020-05-22T10:38:58.862Z</time>
      </trkpt>
      <trkpt lat="44.85901" lon="5.40968">
        <ele>1011</ele>
        <time>2020-05-22T10:38:59.862Z</time>
      </trkpt>
      <trkpt lat="44.85908" lon="5.40974">
        <ele>1011</ele>
        <time>2020-05-22T10:39:00.862Z</time>
      </trkpt>
      <trkpt lat="44.85915" lon="5.40979">
        <ele>1010</ele>
        <time>2020-05-22T10:39:01.862Z</time>
      </trkpt>
      <trkpt lat="44.85922" lon="5.40983">
        <ele>1010</ele>
        <time>2020-05-22T10:39:02.862Z</time>
      </trkpt>
      <trkpt lat="44.85929" lon="5.40988">
        <ele>1010</ele>
        <time>2020-05-22T10:39:03.862Z</time>
      </trkpt>
      <trkpt lat="44.85936" lon="5.40992">
        <ele>1009</ele>
        <time>2020-05-22T10:39:04.862Z</time>
      </trkpt>
      <trkpt lat="44.85942" lon="5.40997">
        <ele>1008</ele>
        <time>2020-05-22T10:39:05.862Z</time>
      </trkpt>
      <trkpt lat="44.85947" lon="5.41002">
        <ele>1007</ele>
        <time>2020-05-22T10:39:06.862Z</time>
      </trkpt>
      <trkpt lat="44.85952" lon="5.41006">
        <ele>1006</ele>
        <time>2020-05-22T10:39:07.862Z</time>
      </trkpt>
      <trkpt lat="44.85957" lon="5.41011">
        <ele>1005</ele>
        <time>2020-05-22T10:39:08.862Z</time>
      </trkpt>
      <trkpt lat="44.85961" lon="5.41016">
        <ele>1004</ele>
        <time>2020-05-22T10:39:09.862Z</time>
      </trkpt>
      <trkpt lat="44.85965" lon="5.41021">
        <ele>1004</ele>
        <time>2020-05-22T10:39:10.862Z</time>
      </trkpt>
      <trkpt lat="44.8597" lon="5.41026">
        <ele>1003</ele>
        <time>2020-05-22T10:39:11.862Z</time>
      </trkpt>
      <trkpt lat="44.85974" lon="5.41031">
        <ele>1002</ele>
        <time>2020-05-22T10:39:12.862Z</time>
      </trkpt>
      <trkpt lat="44.85978" lon="5.41037">
        <ele>1002</ele>
        <time>2020-05-22T10:39:13.862Z</time>
      </trkpt>
      <trkpt lat="44.85982" lon="5.41041">
        <ele>1002</ele>
        <time>2020-05-22T10:39:14.862Z</time>
      </trkpt>
      <trkpt lat="44.85985" lon="5.41046">
        <ele>1002</ele>
        <time>2020-05-22T10:39:15.862Z</time>
      </trkpt>
      <trkpt lat="44.85989" lon="5.41051">
        <ele>1001</ele>
        <time>2020-05-22T10:39:16.862Z</time>
      </trkpt>
      <trkpt lat="44.85994" lon="5.41057">
        <ele>1001</ele>
        <time>2020-05-22T10:39:17.862Z</time>
      </trkpt>
      <trkpt lat="44.85999" lon="5.41062">
        <ele>1001</ele>
        <time>2020-05-22T10:39:18.862Z</time>
      </trkpt>
      <trkpt lat="44.86003" lon="5.41068">
        <ele>1000</ele>
        <time>2020-05-22T10:39:19.862Z</time>
      </trkpt>
      <trkpt lat="44.8601" lon="5.41075">
        <ele>1000</ele>
        <time>2020-05-22T10:39:20.862Z</time>
      </trkpt>
      <trkpt lat="44.86014" lon="5.4108">
        <ele>999</ele>
        <time>2020-05-22T10:39:21.862Z</time>
      </trkpt>
      <trkpt lat="44.86014" lon="5.4108">
        <ele>999</ele>
        <time>2020-05-22T10:39:22.863Z</time>
      </trkpt>
      <trkpt lat="44.86025" lon="5.41095">
        <ele>998</ele>
        <time>2020-05-22T10:39:23.862Z</time>
      </trkpt>
      <trkpt lat="44.86031" lon="5.41103">
        <ele>998</ele>
        <time>2020-05-22T10:39:24.862Z</time>
      </trkpt>
      <trkpt lat="44.86038" lon="5.41112">
        <ele>998</ele>
        <time>2020-05-22T10:39:25.862Z</time>
      </trkpt>
      <trkpt lat="44.86044" lon="5.41119">
        <ele>998</ele>
        <time>2020-05-22T10:39:26.862Z</time>
      </trkpt>
      <trkpt lat="44.8605" lon="5.41126">
        <ele>997</ele>
        <time>2020-05-22T10:39:27.862Z</time>
      </trkpt>
      <trkpt lat="44.86056" lon="5.41132">
        <ele>997</ele>
        <time>2020-05-22T10:39:28.862Z</time>
      </trkpt>
      <trkpt lat="44.8606" lon="5.41139">
        <ele>997</ele>
        <time>2020-05-22T10:39:29.862Z</time>
      </trkpt>
      <trkpt lat="44.86064" lon="5.41144">
        <ele>997</ele>
        <time>2020-05-22T10:39:30.862Z</time>
      </trkpt>
      <trkpt lat="44.86069" lon="5.41151">
        <ele>997</ele>
        <time>2020-05-22T10:39:31.862Z</time>
      </trkpt>
      <trkpt lat="44.86072" lon="5.41155">
        <ele>996</ele>
        <time>2020-05-22T10:39:32.862Z</time>
      </trkpt>
      <trkpt lat="44.86076" lon="5.41161">
        <ele>996</ele>
        <time>2020-05-22T10:39:33.862Z</time>
      </trkpt>
      <trkpt lat="44.8608" lon="5.41167">
        <ele>996</ele>
        <time>2020-05-22T10:39:34.862Z</time>
      </trkpt>
      <trkpt lat="44.86085" lon="5.41175">
        <ele>996</ele>
        <time>2020-05-22T10:39:35.862Z</time>
      </trkpt>
      <trkpt lat="44.8609" lon="5.41182">
        <ele>996</ele>
        <time>2020-05-22T10:39:36.862Z</time>
      </trkpt>
      <trkpt lat="44.86094" lon="5.41187">
        <ele>995</ele>
        <time>2020-05-22T10:39:37.862Z</time>
      </trkpt>
      <trkpt lat="44.86098" lon="5.41195">
        <ele>994</ele>
        <time>2020-05-22T10:39:38.862Z</time>
      </trkpt>
      <trkpt lat="44.86101" lon="5.41202">
        <ele>993</ele>
        <time>2020-05-22T10:39:39.862Z</time>
      </trkpt>
      <trkpt lat="44.86105" lon="5.4121">
        <ele>992</ele>
        <time>2020-05-22T10:39:40.862Z</time>
      </trkpt>
      <trkpt lat="44.86108" lon="5.41217">
        <ele>992</ele>
        <time>2020-05-22T10:39:41.862Z</time>
      </trkpt>
      <trkpt lat="44.86113" lon="5.41223">
        <ele>991</ele>
        <time>2020-05-22T10:39:42.862Z</time>
      </trkpt>
      <trkpt lat="44.86119" lon="5.41231">
        <ele>991</ele>
        <time>2020-05-22T10:39:43.862Z</time>
      </trkpt>
      <trkpt lat="44.86122" lon="5.41233">
        <ele>991</ele>
        <time>2020-05-22T10:39:44.862Z</time>
      </trkpt>
      <trkpt lat="44.8613" lon="5.41239">
        <ele>990</ele>
        <time>2020-05-22T10:39:45.862Z</time>
      </trkpt>
      <trkpt lat="44.86134" lon="5.41242">
        <ele>989</ele>
        <time>2020-05-22T10:39:46.862Z</time>
      </trkpt>
      <trkpt lat="44.86139" lon="5.41247">
        <ele>989</ele>
        <time>2020-05-22T10:39:47.862Z</time>
      </trkpt>
      <trkpt lat="44.86145" lon="5.41252">
        <ele>988</ele>
        <time>2020-05-22T10:39:48.862Z</time>
      </trkpt>
      <trkpt lat="44.86153" lon="5.41257">
        <ele>988</ele>
        <time>2020-05-22T10:39:49.862Z</time>
      </trkpt>
      <trkpt lat="44.86158" lon="5.41261">
        <ele>987</ele>
        <time>2020-05-22T10:39:50.862Z</time>
      </trkpt>
      <trkpt lat="44.86162" lon="5.41264">
        <ele>986</ele>
        <time>2020-05-22T10:39:51.862Z</time>
      </trkpt>
      <trkpt lat="44.86167" lon="5.41268">
        <ele>984</ele>
        <time>2020-05-22T10:39:52.862Z</time>
      </trkpt>
      <trkpt lat="44.86173" lon="5.41272">
        <ele>983</ele>
        <time>2020-05-22T10:39:53.862Z</time>
      </trkpt>
      <trkpt lat="44.86179" lon="5.41276">
        <ele>983</ele>
        <time>2020-05-22T10:39:54.862Z</time>
      </trkpt>
      <trkpt lat="44.86185" lon="5.4128">
        <ele>982</ele>
        <time>2020-05-22T10:39:55.862Z</time>
      </trkpt>
      <trkpt lat="44.8619" lon="5.41285">
        <ele>982</ele>
        <time>2020-05-22T10:39:56.862Z</time>
      </trkpt>
      <trkpt lat="44.86196" lon="5.4129">
        <ele>981</ele>
        <time>2020-05-22T10:39:57.862Z</time>
      </trkpt>
      <trkpt lat="44.86202" lon="5.41295">
        <ele>981</ele>
        <time>2020-05-22T10:39:58.862Z</time>
      </trkpt>
      <trkpt lat="44.86207" lon="5.41301">
        <ele>980</ele>
        <time>2020-05-22T10:39:59.862Z</time>
      </trkpt>
      <trkpt lat="44.86213" lon="5.41306">
        <ele>980</ele>
        <time>2020-05-22T10:40:00.862Z</time>
      </trkpt>
      <trkpt lat="44.86218" lon="5.41312">
        <ele>980</ele>
        <time>2020-05-22T10:40:01.862Z</time>
      </trkpt>
      <trkpt lat="44.86223" lon="5.41319">
        <ele>979</ele>
        <time>2020-05-22T10:40:02.862Z</time>
      </trkpt>
      <trkpt lat="44.86227" lon="5.41327">
        <ele>979</ele>
        <time>2020-05-22T10:40:03.862Z</time>
      </trkpt>
      <trkpt lat="44.86231" lon="5.41335">
        <ele>979</ele>
        <time>2020-05-22T10:40:04.862Z</time>
      </trkpt>
      <trkpt lat="44.86234" lon="5.41344">
        <ele>979</ele>
        <time>2020-05-22T10:40:05.862Z</time>
      </trkpt>
      <trkpt lat="44.86237" lon="5.41354">
        <ele>978</ele>
        <time>2020-05-22T10:40:06.862Z</time>
      </trkpt>
      <trkpt lat="44.8624" lon="5.41365">
        <ele>978</ele>
        <time>2020-05-22T10:40:07.862Z</time>
      </trkpt>
      <trkpt lat="44.86242" lon="5.41376">
        <ele>978</ele>
        <time>2020-05-22T10:40:08.862Z</time>
      </trkpt>
      <trkpt lat="44.86244" lon="5.41387">
        <ele>977</ele>
        <time>2020-05-22T10:40:09.862Z</time>
      </trkpt>
      <trkpt lat="44.86247" lon="5.41397">
        <ele>977</ele>
        <time>2020-05-22T10:40:10.862Z</time>
      </trkpt>
      <trkpt lat="44.86249" lon="5.41408">
        <ele>976</ele>
        <time>2020-05-22T10:40:11.862Z</time>
      </trkpt>
      <trkpt lat="44.86252" lon="5.41418">
        <ele>976</ele>
        <time>2020-05-22T10:40:12.862Z</time>
      </trkpt>
      <trkpt lat="44.86255" lon="5.41428">
        <ele>976</ele>
        <time>2020-05-22T10:40:13.862Z</time>
      </trkpt>
      <trkpt lat="44.86259" lon="5.41438">
        <ele>976</ele>
        <time>2020-05-22T10:40:14.862Z</time>
      </trkpt>
      <trkpt lat="44.86264" lon="5.41448">
        <ele>976</ele>
        <time>2020-05-22T10:40:15.862Z</time>
      </trkpt>
      <trkpt lat="44.86269" lon="5.41456">
        <ele>976</ele>
        <time>2020-05-22T10:40:16.862Z</time>
      </trkpt>
      <trkpt lat="44.86276" lon="5.41464">
        <ele>976</ele>
        <time>2020-05-22T10:40:17.862Z</time>
      </trkpt>
      <trkpt lat="44.86284" lon="5.41471">
        <ele>976</ele>
        <time>2020-05-22T10:40:18.862Z</time>
      </trkpt>
      <trkpt lat="44.86292" lon="5.41478">
        <ele>976</ele>
        <time>2020-05-22T10:40:19.862Z</time>
      </trkpt>
      <trkpt lat="44.86301" lon="5.41483">
        <ele>975</ele>
        <time>2020-05-22T10:40:20.862Z</time>
      </trkpt>
      <trkpt lat="44.8631" lon="5.41488">
        <ele>975</ele>
        <time>2020-05-22T10:40:21.862Z</time>
      </trkpt>
      <trkpt lat="44.86318" lon="5.41491">
        <ele>974</ele>
        <time>2020-05-22T10:40:22.862Z</time>
      </trkpt>
      <trkpt lat="44.86328" lon="5.41494">
        <ele>974</ele>
        <time>2020-05-22T10:40:23.862Z</time>
      </trkpt>
      <trkpt lat="44.86338" lon="5.41497">
        <ele>973</ele>
        <time>2020-05-22T10:40:24.862Z</time>
      </trkpt>
      <trkpt lat="44.86348" lon="5.41501">
        <ele>973</ele>
        <time>2020-05-22T10:40:25.862Z</time>
      </trkpt>
      <trkpt lat="44.86359" lon="5.41504">
        <ele>973</ele>
        <time>2020-05-22T10:40:26.862Z</time>
      </trkpt>
      <trkpt lat="44.86369" lon="5.41507">
        <ele>972</ele>
        <time>2020-05-22T10:40:27.862Z</time>
      </trkpt>
      <trkpt lat="44.86379" lon="5.41511">
        <ele>971</ele>
        <time>2020-05-22T10:40:28.862Z</time>
      </trkpt>
      <trkpt lat="44.86387" lon="5.41515">
        <ele>970</ele>
        <time>2020-05-22T10:40:29.862Z</time>
      </trkpt>
      <trkpt lat="44.86396" lon="5.4152">
        <ele>969</ele>
        <time>2020-05-22T10:40:30.862Z</time>
      </trkpt>
      <trkpt lat="44.86405" lon="5.41526">
        <ele>968</ele>
        <time>2020-05-22T10:40:31.862Z</time>
      </trkpt>
      <trkpt lat="44.86413" lon="5.41532">
        <ele>967</ele>
        <time>2020-05-22T10:40:32.862Z</time>
      </trkpt>
      <trkpt lat="44.86422" lon="5.41538">
        <ele>966</ele>
        <time>2020-05-22T10:40:33.862Z</time>
      </trkpt>
      <trkpt lat="44.86431" lon="5.41543">
        <ele>965</ele>
        <time>2020-05-22T10:40:34.862Z</time>
      </trkpt>
      <trkpt lat="44.8644" lon="5.41547">
        <ele>965</ele>
        <time>2020-05-22T10:40:35.862Z</time>
      </trkpt>
      <trkpt lat="44.86451" lon="5.4155">
        <ele>964</ele>
        <time>2020-05-22T10:40:36.862Z</time>
      </trkpt>
      <trkpt lat="44.86461" lon="5.41553">
        <ele>964</ele>
        <time>2020-05-22T10:40:37.862Z</time>
      </trkpt>
      <trkpt lat="44.86472" lon="5.41555">
        <ele>963</ele>
        <time>2020-05-22T10:40:38.862Z</time>
      </trkpt>
      <trkpt lat="44.86484" lon="5.41557">
        <ele>963</ele>
        <time>2020-05-22T10:40:39.862Z</time>
      </trkpt>
      <trkpt lat="44.86495" lon="5.41558">
        <ele>962</ele>
        <time>2020-05-22T10:40:40.862Z</time>
      </trkpt>
      <trkpt lat="44.86506" lon="5.41559">
        <ele>961</ele>
        <time>2020-05-22T10:40:41.862Z</time>
      </trkpt>
      <trkpt lat="44.86517" lon="5.41561">
        <ele>960</ele>
        <time>2020-05-22T10:40:42.862Z</time>
      </trkpt>
      <trkpt lat="44.86529" lon="5.41562">
        <ele>959</ele>
        <time>2020-05-22T10:40:43.863Z</time>
      </trkpt>
      <trkpt lat="44.86541" lon="5.41563">
        <ele>958</ele>
        <time>2020-05-22T10:40:44.862Z</time>
      </trkpt>
      <trkpt lat="44.86552" lon="5.41564">
        <ele>958</ele>
        <time>2020-05-22T10:40:45.863Z</time>
      </trkpt>
      <trkpt lat="44.86563" lon="5.41565">
        <ele>957</ele>
        <time>2020-05-22T10:40:46.862Z</time>
      </trkpt>
      <trkpt lat="44.86573" lon="5.41566">
        <ele>956</ele>
        <time>2020-05-22T10:40:47.862Z</time>
      </trkpt>
      <trkpt lat="44.86584" lon="5.41568">
        <ele>955</ele>
        <time>2020-05-22T10:40:48.862Z</time>
      </trkpt>
      <trkpt lat="44.86595" lon="5.41569">
        <ele>954</ele>
        <time>2020-05-22T10:40:49.862Z</time>
      </trkpt>
      <trkpt lat="44.86605" lon="5.41571">
        <ele>954</ele>
        <time>2020-05-22T10:40:50.862Z</time>
      </trkpt>
      <trkpt lat="44.86615" lon="5.41573">
        <ele>953</ele>
        <time>2020-05-22T10:40:51.862Z</time>
      </trkpt>
      <trkpt lat="44.86626" lon="5.41574">
        <ele>953</ele>
        <time>2020-05-22T10:40:52.862Z</time>
      </trkpt>
      <trkpt lat="44.86636" lon="5.41575">
        <ele>952</ele>
        <time>2020-05-22T10:40:53.862Z</time>
      </trkpt>
      <trkpt lat="44.86647" lon="5.41576">
        <ele>952</ele>
        <time>2020-05-22T10:40:54.862Z</time>
      </trkpt>
      <trkpt lat="44.86657" lon="5.41577">
        <ele>952</ele>
        <time>2020-05-22T10:40:55.862Z</time>
      </trkpt>
      <trkpt lat="44.86668" lon="5.41578">
        <ele>951</ele>
        <time>2020-05-22T10:40:56.862Z</time>
      </trkpt>
      <trkpt lat="44.86678" lon="5.41578">
        <ele>951</ele>
        <time>2020-05-22T10:40:57.862Z</time>
      </trkpt>
      <trkpt lat="44.86688" lon="5.41579">
        <ele>951</ele>
        <time>2020-05-22T10:40:58.862Z</time>
      </trkpt>
      <trkpt lat="44.86688" lon="5.41579">
        <ele>951</ele>
        <time>2020-05-22T10:40:59.862Z</time>
      </trkpt>
      <trkpt lat="44.86708" lon="5.41579">
        <ele>950</ele>
        <time>2020-05-22T10:41:00.862Z</time>
      </trkpt>
      <trkpt lat="44.86719" lon="5.41579">
        <ele>949</ele>
        <time>2020-05-22T10:41:01.862Z</time>
      </trkpt>
      <trkpt lat="44.86729" lon="5.41578">
        <ele>949</ele>
        <time>2020-05-22T10:41:02.862Z</time>
      </trkpt>
      <trkpt lat="44.86738" lon="5.41575">
        <ele>948</ele>
        <time>2020-05-22T10:41:03.862Z</time>
      </trkpt>
      <trkpt lat="44.86748" lon="5.41572">
        <ele>948</ele>
        <time>2020-05-22T10:41:04.862Z</time>
      </trkpt>
      <trkpt lat="44.86757" lon="5.4157">
        <ele>947</ele>
        <time>2020-05-22T10:41:05.862Z</time>
      </trkpt>
      <trkpt lat="44.86766" lon="5.41568">
        <ele>946</ele>
        <time>2020-05-22T10:41:06.862Z</time>
      </trkpt>
      <trkpt lat="44.86775" lon="5.41565">
        <ele>946</ele>
        <time>2020-05-22T10:41:07.862Z</time>
      </trkpt>
      <trkpt lat="44.86783" lon="5.41563">
        <ele>945</ele>
        <time>2020-05-22T10:41:08.862Z</time>
      </trkpt>
      <trkpt lat="44.86792" lon="5.41562">
        <ele>945</ele>
        <time>2020-05-22T10:41:09.862Z</time>
      </trkpt>
      <trkpt lat="44.868" lon="5.41561">
        <ele>945</ele>
        <time>2020-05-22T10:41:10.862Z</time>
      </trkpt>
      <trkpt lat="44.86806" lon="5.4156">
        <ele>944</ele>
        <time>2020-05-22T10:41:11.862Z</time>
      </trkpt>
      <trkpt lat="44.86813" lon="5.41559">
        <ele>944</ele>
        <time>2020-05-22T10:41:12.862Z</time>
      </trkpt>
      <trkpt lat="44.86818" lon="5.41558">
        <ele>944</ele>
        <time>2020-05-22T10:41:13.862Z</time>
      </trkpt>
      <trkpt lat="44.86824" lon="5.41556">
        <ele>943</ele>
        <time>2020-05-22T10:41:14.862Z</time>
      </trkpt>
      <trkpt lat="44.86829" lon="5.41554">
        <ele>943</ele>
        <time>2020-05-22T10:41:15.862Z</time>
      </trkpt>
      <trkpt lat="44.86835" lon="5.41553">
        <ele>942</ele>
        <time>2020-05-22T10:41:16.862Z</time>
      </trkpt>
      <trkpt lat="44.86841" lon="5.41552">
        <ele>942</ele>
        <time>2020-05-22T10:41:17.862Z</time>
      </trkpt>
      <trkpt lat="44.86847" lon="5.41551">
        <ele>942</ele>
        <time>2020-05-22T10:41:18.862Z</time>
      </trkpt>
      <trkpt lat="44.86852" lon="5.41551">
        <ele>941</ele>
        <time>2020-05-22T10:41:19.862Z</time>
      </trkpt>
      <trkpt lat="44.86857" lon="5.41552">
        <ele>941</ele>
        <time>2020-05-22T10:41:20.862Z</time>
      </trkpt>
      <trkpt lat="44.86865" lon="5.41555">
        <ele>940</ele>
        <time>2020-05-22T10:41:21.862Z</time>
      </trkpt>
      <trkpt lat="44.8687" lon="5.41558">
        <ele>940</ele>
        <time>2020-05-22T10:41:22.862Z</time>
      </trkpt>
      <trkpt lat="44.86876" lon="5.41562">
        <ele>940</ele>
        <time>2020-05-22T10:41:23.862Z</time>
      </trkpt>
      <trkpt lat="44.86882" lon="5.41565">
        <ele>940</ele>
        <time>2020-05-22T10:41:24.863Z</time>
      </trkpt>
      <trkpt lat="44.86887" lon="5.4157">
        <ele>939</ele>
        <time>2020-05-22T10:41:25.862Z</time>
      </trkpt>
      <trkpt lat="44.86893" lon="5.41576">
        <ele>939</ele>
        <time>2020-05-22T10:41:26.862Z</time>
      </trkpt>
      <trkpt lat="44.86898" lon="5.41581">
        <ele>939</ele>
        <time>2020-05-22T10:41:27.862Z</time>
      </trkpt>
      <trkpt lat="44.86903" lon="5.41586">
        <ele>938</ele>
        <time>2020-05-22T10:41:28.862Z</time>
      </trkpt>
      <trkpt lat="44.86907" lon="5.4159">
        <ele>938</ele>
        <time>2020-05-22T10:41:29.862Z</time>
      </trkpt>
      <trkpt lat="44.8691" lon="5.41594">
        <ele>937</ele>
        <time>2020-05-22T10:41:30.862Z</time>
      </trkpt>
      <trkpt lat="44.86914" lon="5.41598">
        <ele>937</ele>
        <time>2020-05-22T10:41:31.862Z</time>
      </trkpt>
      <trkpt lat="44.86917" lon="5.41602">
        <ele>936</ele>
        <time>2020-05-22T10:41:32.862Z</time>
      </trkpt>
      <trkpt lat="44.8692" lon="5.41605">
        <ele>935</ele>
        <time>2020-05-22T10:41:33.862Z</time>
      </trkpt>
      <trkpt lat="44.86924" lon="5.41609">
        <ele>935</ele>
        <time>2020-05-22T10:41:34.862Z</time>
      </trkpt>
      <trkpt lat="44.86928" lon="5.41612">
        <ele>934</ele>
        <time>2020-05-22T10:41:35.862Z</time>
      </trkpt>
      <trkpt lat="44.86931" lon="5.41617">
        <ele>934</ele>
        <time>2020-05-22T10:41:36.862Z</time>
      </trkpt>
      <trkpt lat="44.86935" lon="5.41621">
        <ele>933</ele>
        <time>2020-05-22T10:41:37.862Z</time>
      </trkpt>
      <trkpt lat="44.86939" lon="5.41625">
        <ele>933</ele>
        <time>2020-05-22T10:41:38.862Z</time>
      </trkpt>
      <trkpt lat="44.86943" lon="5.4163">
        <ele>933</ele>
        <time>2020-05-22T10:41:39.862Z</time>
      </trkpt>
      <trkpt lat="44.86948" lon="5.41634">
        <ele>933</ele>
        <time>2020-05-22T10:41:40.862Z</time>
      </trkpt>
      <trkpt lat="44.86952" lon="5.41639">
        <ele>932</ele>
        <time>2020-05-22T10:41:41.862Z</time>
      </trkpt>
      <trkpt lat="44.86957" lon="5.41644">
        <ele>932</ele>
        <time>2020-05-22T10:41:42.862Z</time>
      </trkpt>
      <trkpt lat="44.86962" lon="5.41649">
        <ele>932</ele>
        <time>2020-05-22T10:41:43.862Z</time>
      </trkpt>
      <trkpt lat="44.86968" lon="5.41654">
        <ele>931</ele>
        <time>2020-05-22T10:41:44.862Z</time>
      </trkpt>
      <trkpt lat="44.86974" lon="5.41659">
        <ele>931</ele>
        <time>2020-05-22T10:41:45.862Z</time>
      </trkpt>
      <trkpt lat="44.8698" lon="5.41664">
        <ele>931</ele>
        <time>2020-05-22T10:41:46.862Z</time>
      </trkpt>
      <trkpt lat="44.86986" lon="5.41669">
        <ele>931</ele>
        <time>2020-05-22T10:41:47.862Z</time>
      </trkpt>
      <trkpt lat="44.86992" lon="5.41674">
        <ele>930</ele>
        <time>2020-05-22T10:41:48.862Z</time>
      </trkpt>
      <trkpt lat="44.86998" lon="5.41679">
        <ele>930</ele>
        <time>2020-05-22T10:41:49.862Z</time>
      </trkpt>
      <trkpt lat="44.87005" lon="5.41683">
        <ele>929</ele>
        <time>2020-05-22T10:41:50.862Z</time>
      </trkpt>
      <trkpt lat="44.87012" lon="5.41686">
        <ele>928</ele>
        <time>2020-05-22T10:41:51.862Z</time>
      </trkpt>
      <trkpt lat="44.8702" lon="5.41687">
        <ele>928</ele>
        <time>2020-05-22T10:41:52.862Z</time>
      </trkpt>
      <trkpt lat="44.8702" lon="5.41687">
        <ele>928</ele>
        <time>2020-05-22T10:41:53.862Z</time>
      </trkpt>
      <trkpt lat="44.87034" lon="5.41689">
        <ele>927</ele>
        <time>2020-05-22T10:41:54.862Z</time>
      </trkpt>
      <trkpt lat="44.87041" lon="5.4169">
        <ele>927</ele>
        <time>2020-05-22T10:41:55.862Z</time>
      </trkpt>
      <trkpt lat="44.87049" lon="5.4169">
        <ele>926</ele>
        <time>2020-05-22T10:41:56.862Z</time>
      </trkpt>
      <trkpt lat="44.87056" lon="5.41691">
        <ele>925</ele>
        <time>2020-05-22T10:41:57.862Z</time>
      </trkpt>
      <trkpt lat="44.87064" lon="5.41691">
        <ele>924</ele>
        <time>2020-05-22T10:41:58.862Z</time>
      </trkpt>
      <trkpt lat="44.87071" lon="5.41691">
        <ele>923</ele>
        <time>2020-05-22T10:41:59.862Z</time>
      </trkpt>
      <trkpt lat="44.87079" lon="5.41691">
        <ele>923</ele>
        <time>2020-05-22T10:42:00.862Z</time>
      </trkpt>
      <trkpt lat="44.87086" lon="5.41691">
        <ele>922</ele>
        <time>2020-05-22T10:42:01.862Z</time>
      </trkpt>
      <trkpt lat="44.87093" lon="5.4169">
        <ele>922</ele>
        <time>2020-05-22T10:42:02.862Z</time>
      </trkpt>
      <trkpt lat="44.871" lon="5.41688">
        <ele>922</ele>
        <time>2020-05-22T10:42:03.862Z</time>
      </trkpt>
      <trkpt lat="44.87107" lon="5.41688">
        <ele>922</ele>
        <time>2020-05-22T10:42:04.862Z</time>
      </trkpt>
      <trkpt lat="44.87113" lon="5.41687">
        <ele>922</ele>
        <time>2020-05-22T10:42:05.862Z</time>
      </trkpt>
      <trkpt lat="44.8712" lon="5.41686">
        <ele>921</ele>
        <time>2020-05-22T10:42:06.863Z</time>
      </trkpt>
      <trkpt lat="44.87127" lon="5.41685">
        <ele>921</ele>
        <time>2020-05-22T10:42:07.862Z</time>
      </trkpt>
      <trkpt lat="44.87134" lon="5.41684">
        <ele>920</ele>
        <time>2020-05-22T10:42:08.862Z</time>
      </trkpt>
      <trkpt lat="44.87141" lon="5.41683">
        <ele>920</ele>
        <time>2020-05-22T10:42:09.862Z</time>
      </trkpt>
      <trkpt lat="44.87148" lon="5.41682">
        <ele>920</ele>
        <time>2020-05-22T10:42:10.862Z</time>
      </trkpt>
      <trkpt lat="44.87154" lon="5.41681">
        <ele>920</ele>
        <time>2020-05-22T10:42:11.862Z</time>
      </trkpt>
      <trkpt lat="44.87161" lon="5.41681">
        <ele>920</ele>
        <time>2020-05-22T10:42:12.862Z</time>
      </trkpt>
      <trkpt lat="44.87167" lon="5.4168">
        <ele>920</ele>
        <time>2020-05-22T10:42:13.862Z</time>
      </trkpt>
      <trkpt lat="44.87172" lon="5.4168">
        <ele>919</ele>
        <time>2020-05-22T10:42:14.862Z</time>
      </trkpt>
      <trkpt lat="44.87178" lon="5.4168">
        <ele>919</ele>
        <time>2020-05-22T10:42:15.862Z</time>
      </trkpt>
      <trkpt lat="44.87184" lon="5.41681">
        <ele>919</ele>
        <time>2020-05-22T10:42:16.862Z</time>
      </trkpt>
      <trkpt lat="44.8719" lon="5.41682">
        <ele>918</ele>
        <time>2020-05-22T10:42:17.862Z</time>
      </trkpt>
      <trkpt lat="44.87196" lon="5.41683">
        <ele>918</ele>
        <time>2020-05-22T10:42:18.862Z</time>
      </trkpt>
      <trkpt lat="44.87202" lon="5.41685">
        <ele>918</ele>
        <time>2020-05-22T10:42:19.862Z</time>
      </trkpt>
      <trkpt lat="44.87209" lon="5.41686">
        <ele>918</ele>
        <time>2020-05-22T10:42:20.862Z</time>
      </trkpt>
      <trkpt lat="44.87215" lon="5.41688">
        <ele>918</ele>
        <time>2020-05-22T10:42:21.862Z</time>
      </trkpt>
      <trkpt lat="44.87221" lon="5.41691">
        <ele>917</ele>
        <time>2020-05-22T10:42:22.862Z</time>
      </trkpt>
      <trkpt lat="44.87227" lon="5.41693">
        <ele>917</ele>
        <time>2020-05-22T10:42:23.862Z</time>
      </trkpt>
      <trkpt lat="44.87233" lon="5.41696">
        <ele>917</ele>
        <time>2020-05-22T10:42:24.862Z</time>
      </trkpt>
      <trkpt lat="44.8724" lon="5.41698">
        <ele>917</ele>
        <time>2020-05-22T10:42:25.862Z</time>
      </trkpt>
      <trkpt lat="44.87246" lon="5.417">
        <ele>917</ele>
        <time>2020-05-22T10:42:26.862Z</time>
      </trkpt>
      <trkpt lat="44.87252" lon="5.41703">
        <ele>916</ele>
        <time>2020-05-22T10:42:27.862Z</time>
      </trkpt>
      <trkpt lat="44.87259" lon="5.41706">
        <ele>916</ele>
        <time>2020-05-22T10:42:28.862Z</time>
      </trkpt>
      <trkpt lat="44.87265" lon="5.41708">
        <ele>916</ele>
        <time>2020-05-22T10:42:29.862Z</time>
      </trkpt>
      <trkpt lat="44.87271" lon="5.41711">
        <ele>916</ele>
        <time>2020-05-22T10:42:30.862Z</time>
      </trkpt>
      <trkpt lat="44.87277" lon="5.41713">
        <ele>915</ele>
        <time>2020-05-22T10:42:31.862Z</time>
      </trkpt>
      <trkpt lat="44.87284" lon="5.41715">
        <ele>915</ele>
        <time>2020-05-22T10:42:32.862Z</time>
      </trkpt>
      <trkpt lat="44.87289" lon="5.41717">
        <ele>915</ele>
        <time>2020-05-22T10:42:33.862Z</time>
      </trkpt>
      <trkpt lat="44.87295" lon="5.41719">
        <ele>915</ele>
        <time>2020-05-22T10:42:34.862Z</time>
      </trkpt>
      <trkpt lat="44.873" lon="5.41721">
        <ele>915</ele>
        <time>2020-05-22T10:42:35.862Z</time>
      </trkpt>
      <trkpt lat="44.87305" lon="5.41723">
        <ele>915</ele>
        <time>2020-05-22T10:42:36.862Z</time>
      </trkpt>
      <trkpt lat="44.8731" lon="5.41725">
        <ele>914</ele>
        <time>2020-05-22T10:42:37.862Z</time>
      </trkpt>
      <trkpt lat="44.87316" lon="5.41728">
        <ele>914</ele>
        <time>2020-05-22T10:42:38.862Z</time>
      </trkpt>
      <trkpt lat="44.87323" lon="5.4173">
        <ele>914</ele>
        <time>2020-05-22T10:42:39.862Z</time>
      </trkpt>
      <trkpt lat="44.87329" lon="5.41733">
        <ele>913</ele>
        <time>2020-05-22T10:42:40.862Z</time>
      </trkpt>
      <trkpt lat="44.87336" lon="5.41736">
        <ele>912</ele>
        <time>2020-05-22T10:42:41.862Z</time>
      </trkpt>
      <trkpt lat="44.87343" lon="5.41739">
        <ele>912</ele>
        <time>2020-05-22T10:42:42.862Z</time>
      </trkpt>
      <trkpt lat="44.87349" lon="5.41742">
        <ele>911</ele>
        <time>2020-05-22T10:42:43.862Z</time>
      </trkpt>
      <trkpt lat="44.87357" lon="5.41745">
        <ele>911</ele>
        <time>2020-05-22T10:42:44.862Z</time>
      </trkpt>
      <trkpt lat="44.87364" lon="5.41748">
        <ele>911</ele>
        <time>2020-05-22T10:42:45.862Z</time>
      </trkpt>
      <trkpt lat="44.87371" lon="5.41751">
        <ele>911</ele>
        <time>2020-05-22T10:42:46.862Z</time>
      </trkpt>
      <trkpt lat="44.87378" lon="5.41754">
        <ele>911</ele>
        <time>2020-05-22T10:42:47.862Z</time>
      </trkpt>
      <trkpt lat="44.87385" lon="5.41757">
        <ele>911</ele>
        <time>2020-05-22T10:42:48.862Z</time>
      </trkpt>
      <trkpt lat="44.87391" lon="5.41759">
        <ele>910</ele>
        <time>2020-05-22T10:42:49.862Z</time>
      </trkpt>
      <trkpt lat="44.87398" lon="5.41762">
        <ele>910</ele>
        <time>2020-05-22T10:42:50.862Z</time>
      </trkpt>
      <trkpt lat="44.87404" lon="5.41764">
        <ele>909</ele>
        <time>2020-05-22T10:42:51.862Z</time>
      </trkpt>
      <trkpt lat="44.87411" lon="5.41767">
        <ele>909</ele>
        <time>2020-05-22T10:42:52.862Z</time>
      </trkpt>
      <trkpt lat="44.87417" lon="5.41769">
        <ele>908</ele>
        <time>2020-05-22T10:42:53.862Z</time>
      </trkpt>
      <trkpt lat="44.87423" lon="5.41772">
        <ele>908</ele>
        <time>2020-05-22T10:42:54.862Z</time>
      </trkpt>
      <trkpt lat="44.87429" lon="5.41774">
        <ele>907</ele>
        <time>2020-05-22T10:42:55.862Z</time>
      </trkpt>
      <trkpt lat="44.87435" lon="5.41777">
        <ele>907</ele>
        <time>2020-05-22T10:42:56.862Z</time>
      </trkpt>
      <trkpt lat="44.87442" lon="5.4178">
        <ele>906</ele>
        <time>2020-05-22T10:42:57.862Z</time>
      </trkpt>
      <trkpt lat="44.87447" lon="5.41782">
        <ele>906</ele>
        <time>2020-05-22T10:42:58.862Z</time>
      </trkpt>
      <trkpt lat="44.87453" lon="5.41785">
        <ele>906</ele>
        <time>2020-05-22T10:42:59.862Z</time>
      </trkpt>
      <trkpt lat="44.87459" lon="5.41787">
        <ele>906</ele>
        <time>2020-05-22T10:43:00.862Z</time>
      </trkpt>
      <trkpt lat="44.87465" lon="5.4179">
        <ele>906</ele>
        <time>2020-05-22T10:43:01.862Z</time>
      </trkpt>
      <trkpt lat="44.87471" lon="5.41793">
        <ele>906</ele>
        <time>2020-05-22T10:43:02.862Z</time>
      </trkpt>
      <trkpt lat="44.87478" lon="5.41796">
        <ele>906</ele>
        <time>2020-05-22T10:43:03.862Z</time>
      </trkpt>
      <trkpt lat="44.87484" lon="5.41799">
        <ele>905</ele>
        <time>2020-05-22T10:43:04.862Z</time>
      </trkpt>
      <trkpt lat="44.8749" lon="5.41802">
        <ele>905</ele>
        <time>2020-05-22T10:43:05.862Z</time>
      </trkpt>
      <trkpt lat="44.87496" lon="5.41805">
        <ele>905</ele>
        <time>2020-05-22T10:43:06.862Z</time>
      </trkpt>
      <trkpt lat="44.87503" lon="5.41808">
        <ele>905</ele>
        <time>2020-05-22T10:43:07.862Z</time>
      </trkpt>
      <trkpt lat="44.87509" lon="5.41811">
        <ele>905</ele>
        <time>2020-05-22T10:43:08.863Z</time>
      </trkpt>
      <trkpt lat="44.87515" lon="5.41814">
        <ele>905</ele>
        <time>2020-05-22T10:43:09.862Z</time>
      </trkpt>
      <trkpt lat="44.87522" lon="5.41817">
        <ele>904</ele>
        <time>2020-05-22T10:43:10.862Z</time>
      </trkpt>
      <trkpt lat="44.87528" lon="5.4182">
        <ele>904</ele>
        <time>2020-05-22T10:43:11.862Z</time>
      </trkpt>
      <trkpt lat="44.87535" lon="5.41823">
        <ele>904</ele>
        <time>2020-05-22T10:43:12.863Z</time>
      </trkpt>
      <trkpt lat="44.87541" lon="5.41825">
        <ele>904</ele>
        <time>2020-05-22T10:43:13.862Z</time>
      </trkpt>
      <trkpt lat="44.87547" lon="5.41828">
        <ele>904</ele>
        <time>2020-05-22T10:43:14.862Z</time>
      </trkpt>
      <trkpt lat="44.87554" lon="5.4183">
        <ele>904</ele>
        <time>2020-05-22T10:43:15.862Z</time>
      </trkpt>
      <trkpt lat="44.8756" lon="5.41832">
        <ele>904</ele>
        <time>2020-05-22T10:43:16.862Z</time>
      </trkpt>
      <trkpt lat="44.87567" lon="5.41834">
        <ele>904</ele>
        <time>2020-05-22T10:43:17.862Z</time>
      </trkpt>
      <trkpt lat="44.87573" lon="5.41836">
        <ele>904</ele>
        <time>2020-05-22T10:43:18.862Z</time>
      </trkpt>
      <trkpt lat="44.8758" lon="5.41838">
        <ele>903</ele>
        <time>2020-05-22T10:43:19.862Z</time>
      </trkpt>
      <trkpt lat="44.87586" lon="5.4184">
        <ele>903</ele>
        <time>2020-05-22T10:43:20.862Z</time>
      </trkpt>
      <trkpt lat="44.87593" lon="5.41842">
        <ele>903</ele>
        <time>2020-05-22T10:43:21.862Z</time>
      </trkpt>
      <trkpt lat="44.87599" lon="5.41844">
        <ele>903</ele>
        <time>2020-05-22T10:43:22.862Z</time>
      </trkpt>
      <trkpt lat="44.87605" lon="5.41846">
        <ele>902</ele>
        <time>2020-05-22T10:43:23.862Z</time>
      </trkpt>
      <trkpt lat="44.87612" lon="5.41847">
        <ele>902</ele>
        <time>2020-05-22T10:43:24.862Z</time>
      </trkpt>
      <trkpt lat="44.87618" lon="5.41849">
        <ele>902</ele>
        <time>2020-05-22T10:43:25.862Z</time>
      </trkpt>
      <trkpt lat="44.87624" lon="5.41851">
        <ele>902</ele>
        <time>2020-05-22T10:43:26.862Z</time>
      </trkpt>
      <trkpt lat="44.8763" lon="5.41852">
        <ele>902</ele>
        <time>2020-05-22T10:43:27.862Z</time>
      </trkpt>
      <trkpt lat="44.87637" lon="5.41854">
        <ele>902</ele>
        <time>2020-05-22T10:43:28.862Z</time>
      </trkpt>
      <trkpt lat="44.87642" lon="5.41856">
        <ele>902</ele>
        <time>2020-05-22T10:43:29.862Z</time>
      </trkpt>
      <trkpt lat="44.87648" lon="5.41857">
        <ele>902</ele>
        <time>2020-05-22T10:43:30.862Z</time>
      </trkpt>
      <trkpt lat="44.87655" lon="5.41859">
        <ele>902</ele>
        <time>2020-05-22T10:43:31.862Z</time>
      </trkpt>
      <trkpt lat="44.87661" lon="5.41862">
        <ele>902</ele>
        <time>2020-05-22T10:43:32.862Z</time>
      </trkpt>
      <trkpt lat="44.87668" lon="5.41864">
        <ele>902</ele>
        <time>2020-05-22T10:43:33.862Z</time>
      </trkpt>
      <trkpt lat="44.87674" lon="5.41866">
        <ele>902</ele>
        <time>2020-05-22T10:43:34.862Z</time>
      </trkpt>
      <trkpt lat="44.8768" lon="5.41868">
        <ele>902</ele>
        <time>2020-05-22T10:43:35.862Z</time>
      </trkpt>
      <trkpt lat="44.87686" lon="5.4187">
        <ele>902</ele>
        <time>2020-05-22T10:43:36.862Z</time>
      </trkpt>
      <trkpt lat="44.87692" lon="5.41872">
        <ele>902</ele>
        <time>2020-05-22T10:43:37.862Z</time>
      </trkpt>
      <trkpt lat="44.87698" lon="5.41874">
        <ele>902</ele>
        <time>2020-05-22T10:43:38.862Z</time>
      </trkpt>
      <trkpt lat="44.87705" lon="5.41876">
        <ele>902</ele>
        <time>2020-05-22T10:43:39.862Z</time>
      </trkpt>
      <trkpt lat="44.87711" lon="5.41878">
        <ele>902</ele>
        <time>2020-05-22T10:43:40.862Z</time>
      </trkpt>
      <trkpt lat="44.87717" lon="5.4188">
        <ele>901</ele>
        <time>2020-05-22T10:43:41.862Z</time>
      </trkpt>
      <trkpt lat="44.87723" lon="5.41882">
        <ele>901</ele>
        <time>2020-05-22T10:43:42.862Z</time>
      </trkpt>
      <trkpt lat="44.87728" lon="5.41883">
        <ele>901</ele>
        <time>2020-05-22T10:43:43.862Z</time>
      </trkpt>
      <trkpt lat="44.87734" lon="5.41885">
        <ele>901</ele>
        <time>2020-05-22T10:43:44.862Z</time>
      </trkpt>
      <trkpt lat="44.8774" lon="5.41888">
        <ele>901</ele>
        <time>2020-05-22T10:43:45.862Z</time>
      </trkpt>
      <trkpt lat="44.87747" lon="5.4189">
        <ele>901</ele>
        <time>2020-05-22T10:43:46.862Z</time>
      </trkpt>
      <trkpt lat="44.87753" lon="5.41893">
        <ele>901</ele>
        <time>2020-05-22T10:43:47.862Z</time>
      </trkpt>
      <trkpt lat="44.8776" lon="5.41895">
        <ele>901</ele>
        <time>2020-05-22T10:43:48.862Z</time>
      </trkpt>
      <trkpt lat="44.87766" lon="5.41897">
        <ele>901</ele>
        <time>2020-05-22T10:43:49.862Z</time>
      </trkpt>
      <trkpt lat="44.87773" lon="5.419">
        <ele>901</ele>
        <time>2020-05-22T10:43:50.862Z</time>
      </trkpt>
      <trkpt lat="44.8778" lon="5.41902">
        <ele>901</ele>
        <time>2020-05-22T10:43:51.862Z</time>
      </trkpt>
      <trkpt lat="44.87787" lon="5.41905">
        <ele>901</ele>
        <time>2020-05-22T10:43:52.862Z</time>
      </trkpt>
      <trkpt lat="44.87793" lon="5.41908">
        <ele>901</ele>
        <time>2020-05-22T10:43:53.862Z</time>
      </trkpt>
      <trkpt lat="44.878" lon="5.4191">
        <ele>901</ele>
        <time>2020-05-22T10:43:54.862Z</time>
      </trkpt>
      <trkpt lat="44.87807" lon="5.41912">
        <ele>902</ele>
        <time>2020-05-22T10:43:55.862Z</time>
      </trkpt>
      <trkpt lat="44.87813" lon="5.41914">
        <ele>902</ele>
        <time>2020-05-22T10:43:56.862Z</time>
      </trkpt>
      <trkpt lat="44.8782" lon="5.41915">
        <ele>902</ele>
        <time>2020-05-22T10:43:57.862Z</time>
      </trkpt>
      <trkpt lat="44.87828" lon="5.41918">
        <ele>903</ele>
        <time>2020-05-22T10:43:58.862Z</time>
      </trkpt>
      <trkpt lat="44.87834" lon="5.4192">
        <ele>903</ele>
        <time>2020-05-22T10:43:59.862Z</time>
      </trkpt>
      <trkpt lat="44.87842" lon="5.41921">
        <ele>903</ele>
        <time>2020-05-22T10:44:00.862Z</time>
      </trkpt>
      <trkpt lat="44.87842" lon="5.41921">
        <ele>903</ele>
        <time>2020-05-22T10:44:01.862Z</time>
      </trkpt>
      <trkpt lat="44.87856" lon="5.41925">
        <ele>903</ele>
        <time>2020-05-22T10:44:02.862Z</time>
      </trkpt>
      <trkpt lat="44.87863" lon="5.41927">
        <ele>903</ele>
        <time>2020-05-22T10:44:03.862Z</time>
      </trkpt>
      <trkpt lat="44.8787" lon="5.41929">
        <ele>903</ele>
        <time>2020-05-22T10:44:04.862Z</time>
      </trkpt>
      <trkpt lat="44.87878" lon="5.41931">
        <ele>902</ele>
        <time>2020-05-22T10:44:05.862Z</time>
      </trkpt>
      <trkpt lat="44.87886" lon="5.41932">
        <ele>902</ele>
        <time>2020-05-22T10:44:06.862Z</time>
      </trkpt>
      <trkpt lat="44.87893" lon="5.41933">
        <ele>902</ele>
        <time>2020-05-22T10:44:07.862Z</time>
      </trkpt>
      <trkpt lat="44.879" lon="5.41933">
        <ele>902</ele>
        <time>2020-05-22T10:44:08.862Z</time>
      </trkpt>
      <trkpt lat="44.87906" lon="5.41934">
        <ele>902</ele>
        <time>2020-05-22T10:44:09.862Z</time>
      </trkpt>
      <trkpt lat="44.87913" lon="5.41935">
        <ele>902</ele>
        <time>2020-05-22T10:44:10.862Z</time>
      </trkpt>
      <trkpt lat="44.87922" lon="5.41936">
        <ele>901</ele>
        <time>2020-05-22T10:44:11.862Z</time>
      </trkpt>
      <trkpt lat="44.87929" lon="5.41936">
        <ele>901</ele>
        <time>2020-05-22T10:44:12.862Z</time>
      </trkpt>
      <trkpt lat="44.87936" lon="5.41935">
        <ele>901</ele>
        <time>2020-05-22T10:44:13.862Z</time>
      </trkpt>
      <trkpt lat="44.87944" lon="5.41936">
        <ele>901</ele>
        <time>2020-05-22T10:44:14.862Z</time>
      </trkpt>
      <trkpt lat="44.87951" lon="5.41934">
        <ele>900</ele>
        <time>2020-05-22T10:44:15.862Z</time>
      </trkpt>
      <trkpt lat="44.87959" lon="5.41935">
        <ele>900</ele>
        <time>2020-05-22T10:44:16.862Z</time>
      </trkpt>
      <trkpt lat="44.87966" lon="5.41936">
        <ele>900</ele>
        <time>2020-05-22T10:44:17.862Z</time>
      </trkpt>
      <trkpt lat="44.87971" lon="5.41935">
        <ele>899</ele>
        <time>2020-05-22T10:44:18.862Z</time>
      </trkpt>
      <trkpt lat="44.87978" lon="5.41935">
        <ele>899</ele>
        <time>2020-05-22T10:44:19.862Z</time>
      </trkpt>
      <trkpt lat="44.87984" lon="5.41935">
        <ele>899</ele>
        <time>2020-05-22T10:44:20.862Z</time>
      </trkpt>
      <trkpt lat="44.87993" lon="5.41936">
        <ele>899</ele>
        <time>2020-05-22T10:44:21.862Z</time>
      </trkpt>
      <trkpt lat="44.88" lon="5.41936">
        <ele>899</ele>
        <time>2020-05-22T10:44:22.862Z</time>
      </trkpt>
      <trkpt lat="44.88007" lon="5.41936">
        <ele>898</ele>
        <time>2020-05-22T10:44:23.862Z</time>
      </trkpt>
      <trkpt lat="44.88013" lon="5.41936">
        <ele>898</ele>
        <time>2020-05-22T10:44:24.862Z</time>
      </trkpt>
      <trkpt lat="44.88019" lon="5.41936">
        <ele>898</ele>
        <time>2020-05-22T10:44:25.862Z</time>
      </trkpt>
      <trkpt lat="44.88026" lon="5.41936">
        <ele>898</ele>
        <time>2020-05-22T10:44:26.862Z</time>
      </trkpt>
      <trkpt lat="44.88032" lon="5.41936">
        <ele>897</ele>
        <time>2020-05-22T10:44:27.862Z</time>
      </trkpt>
      <trkpt lat="44.8804" lon="5.41937">
        <ele>897</ele>
        <time>2020-05-22T10:44:28.862Z</time>
      </trkpt>
      <trkpt lat="44.88047" lon="5.41937">
        <ele>897</ele>
        <time>2020-05-22T10:44:29.862Z</time>
      </trkpt>
      <trkpt lat="44.88054" lon="5.41938">
        <ele>896</ele>
        <time>2020-05-22T10:44:30.862Z</time>
      </trkpt>
      <trkpt lat="44.8806" lon="5.41939">
        <ele>896</ele>
        <time>2020-05-22T10:44:31.862Z</time>
      </trkpt>
      <trkpt lat="44.88066" lon="5.4194">
        <ele>895</ele>
        <time>2020-05-22T10:44:32.862Z</time>
      </trkpt>
      <trkpt lat="44.88073" lon="5.4194">
        <ele>895</ele>
        <time>2020-05-22T10:44:33.862Z</time>
      </trkpt>
      <trkpt lat="44.88081" lon="5.41941">
        <ele>895</ele>
        <time>2020-05-22T10:44:34.862Z</time>
      </trkpt>
      <trkpt lat="44.88088" lon="5.41941">
        <ele>895</ele>
        <time>2020-05-22T10:44:35.862Z</time>
      </trkpt>
      <trkpt lat="44.88095" lon="5.41941">
        <ele>895</ele>
        <time>2020-05-22T10:44:36.862Z</time>
      </trkpt>
      <trkpt lat="44.88102" lon="5.41942">
        <ele>895</ele>
        <time>2020-05-22T10:44:37.862Z</time>
      </trkpt>
      <trkpt lat="44.88109" lon="5.41943">
        <ele>895</ele>
        <time>2020-05-22T10:44:38.862Z</time>
      </trkpt>
      <trkpt lat="44.88118" lon="5.41945">
        <ele>895</ele>
        <time>2020-05-22T10:44:39.862Z</time>
      </trkpt>
      <trkpt lat="44.88124" lon="5.41946">
        <ele>895</ele>
        <time>2020-05-22T10:44:40.862Z</time>
      </trkpt>
      <trkpt lat="44.88131" lon="5.41948">
        <ele>894</ele>
        <time>2020-05-22T10:44:41.862Z</time>
      </trkpt>
      <trkpt lat="44.88137" lon="5.4195">
        <ele>894</ele>
        <time>2020-05-22T10:44:42.862Z</time>
      </trkpt>
      <trkpt lat="44.88143" lon="5.41952">
        <ele>893</ele>
        <time>2020-05-22T10:44:43.862Z</time>
      </trkpt>
      <trkpt lat="44.8815" lon="5.41955">
        <ele>893</ele>
        <time>2020-05-22T10:44:44.862Z</time>
      </trkpt>
      <trkpt lat="44.88156" lon="5.41957">
        <ele>893</ele>
        <time>2020-05-22T10:44:45.862Z</time>
      </trkpt>
      <trkpt lat="44.88162" lon="5.4196">
        <ele>892</ele>
        <time>2020-05-22T10:44:46.862Z</time>
      </trkpt>
      <trkpt lat="44.88169" lon="5.41963">
        <ele>892</ele>
        <time>2020-05-22T10:44:47.862Z</time>
      </trkpt>
      <trkpt lat="44.88175" lon="5.41966">
        <ele>892</ele>
        <time>2020-05-22T10:44:48.862Z</time>
      </trkpt>
      <trkpt lat="44.8818" lon="5.41969">
        <ele>892</ele>
        <time>2020-05-22T10:44:49.862Z</time>
      </trkpt>
      <trkpt lat="44.88185" lon="5.41974">
        <ele>892</ele>
        <time>2020-05-22T10:44:50.862Z</time>
      </trkpt>
      <trkpt lat="44.88191" lon="5.41977">
        <ele>891</ele>
        <time>2020-05-22T10:44:51.862Z</time>
      </trkpt>
      <trkpt lat="44.88199" lon="5.41979">
        <ele>891</ele>
        <time>2020-05-22T10:44:52.862Z</time>
      </trkpt>
      <trkpt lat="44.88205" lon="5.41984">
        <ele>891</ele>
        <time>2020-05-22T10:44:53.862Z</time>
      </trkpt>
      <trkpt lat="44.88212" lon="5.41988">
        <ele>891</ele>
        <time>2020-05-22T10:44:54.862Z</time>
      </trkpt>
      <trkpt lat="44.88218" lon="5.41991">
        <ele>891</ele>
        <time>2020-05-22T10:44:55.862Z</time>
      </trkpt>
      <trkpt lat="44.88224" lon="5.41994">
        <ele>890</ele>
        <time>2020-05-22T10:44:56.862Z</time>
      </trkpt>
      <trkpt lat="44.8823" lon="5.41996">
        <ele>890</ele>
        <time>2020-05-22T10:44:57.862Z</time>
      </trkpt>
      <trkpt lat="44.88237" lon="5.41999">
        <ele>890</ele>
        <time>2020-05-22T10:44:58.862Z</time>
      </trkpt>
      <trkpt lat="44.88243" lon="5.42002">
        <ele>889</ele>
        <time>2020-05-22T10:44:59.862Z</time>
      </trkpt>
      <trkpt lat="44.8825" lon="5.42006">
        <ele>889</ele>
        <time>2020-05-22T10:45:00.862Z</time>
      </trkpt>
      <trkpt lat="44.88257" lon="5.42009">
        <ele>888</ele>
        <time>2020-05-22T10:45:01.862Z</time>
      </trkpt>
      <trkpt lat="44.88264" lon="5.42013">
        <ele>888</ele>
        <time>2020-05-22T10:45:02.862Z</time>
      </trkpt>
      <trkpt lat="44.8827" lon="5.42017">
        <ele>888</ele>
        <time>2020-05-22T10:45:03.862Z</time>
      </trkpt>
      <trkpt lat="44.88277" lon="5.4202">
        <ele>887</ele>
        <time>2020-05-22T10:45:04.862Z</time>
      </trkpt>
      <trkpt lat="44.88283" lon="5.42024">
        <ele>886</ele>
        <time>2020-05-22T10:45:05.862Z</time>
      </trkpt>
      <trkpt lat="44.8829" lon="5.42027">
        <ele>886</ele>
        <time>2020-05-22T10:45:06.862Z</time>
      </trkpt>
      <trkpt lat="44.88296" lon="5.4203">
        <ele>885</ele>
        <time>2020-05-22T10:45:07.862Z</time>
      </trkpt>
      <trkpt lat="44.88303" lon="5.42033">
        <ele>885</ele>
        <time>2020-05-22T10:45:08.862Z</time>
      </trkpt>
      <trkpt lat="44.88309" lon="5.42037">
        <ele>884</ele>
        <time>2020-05-22T10:45:09.862Z</time>
      </trkpt>
      <trkpt lat="44.88316" lon="5.4204">
        <ele>884</ele>
        <time>2020-05-22T10:45:10.862Z</time>
      </trkpt>
      <trkpt lat="44.88323" lon="5.42043">
        <ele>884</ele>
        <time>2020-05-22T10:45:11.862Z</time>
      </trkpt>
      <trkpt lat="44.88329" lon="5.42047">
        <ele>883</ele>
        <time>2020-05-22T10:45:12.862Z</time>
      </trkpt>
      <trkpt lat="44.88336" lon="5.4205">
        <ele>883</ele>
        <time>2020-05-22T10:45:13.862Z</time>
      </trkpt>
      <trkpt lat="44.88343" lon="5.42054">
        <ele>883</ele>
        <time>2020-05-22T10:45:14.862Z</time>
      </trkpt>
      <trkpt lat="44.8835" lon="5.42057">
        <ele>883</ele>
        <time>2020-05-22T10:45:15.862Z</time>
      </trkpt>
      <trkpt lat="44.88357" lon="5.42061">
        <ele>883</ele>
        <time>2020-05-22T10:45:16.862Z</time>
      </trkpt>
      <trkpt lat="44.88364" lon="5.42064">
        <ele>883</ele>
        <time>2020-05-22T10:45:17.862Z</time>
      </trkpt>
      <trkpt lat="44.88371" lon="5.42067">
        <ele>883</ele>
        <time>2020-05-22T10:45:18.862Z</time>
      </trkpt>
      <trkpt lat="44.88378" lon="5.42069">
        <ele>883</ele>
        <time>2020-05-22T10:45:19.862Z</time>
      </trkpt>
      <trkpt lat="44.88385" lon="5.4207">
        <ele>883</ele>
        <time>2020-05-22T10:45:20.862Z</time>
      </trkpt>
      <trkpt lat="44.88392" lon="5.42071">
        <ele>883</ele>
        <time>2020-05-22T10:45:21.863Z</time>
      </trkpt>
      <trkpt lat="44.88398" lon="5.42072">
        <ele>883</ele>
        <time>2020-05-22T10:45:22.862Z</time>
      </trkpt>
      <trkpt lat="44.88405" lon="5.42072">
        <ele>882</ele>
        <time>2020-05-22T10:45:23.862Z</time>
      </trkpt>
      <trkpt lat="44.88412" lon="5.42072">
        <ele>882</ele>
        <time>2020-05-22T10:45:24.862Z</time>
      </trkpt>
      <trkpt lat="44.8842" lon="5.42071">
        <ele>882</ele>
        <time>2020-05-22T10:45:25.862Z</time>
      </trkpt>
      <trkpt lat="44.88427" lon="5.42071">
        <ele>881</ele>
        <time>2020-05-22T10:45:26.862Z</time>
      </trkpt>
      <trkpt lat="44.88434" lon="5.4207">
        <ele>881</ele>
        <time>2020-05-22T10:45:27.862Z</time>
      </trkpt>
      <trkpt lat="44.88441" lon="5.42069">
        <ele>880</ele>
        <time>2020-05-22T10:45:28.862Z</time>
      </trkpt>
      <trkpt lat="44.88448" lon="5.42068">
        <ele>879</ele>
        <time>2020-05-22T10:45:29.862Z</time>
      </trkpt>
      <trkpt lat="44.88455" lon="5.42068">
        <ele>879</ele>
        <time>2020-05-22T10:45:30.862Z</time>
      </trkpt>
      <trkpt lat="44.88462" lon="5.42067">
        <ele>879</ele>
        <time>2020-05-22T10:45:31.862Z</time>
      </trkpt>
      <trkpt lat="44.88469" lon="5.42067">
        <ele>878</ele>
        <time>2020-05-22T10:45:32.862Z</time>
      </trkpt>
      <trkpt lat="44.88476" lon="5.42067">
        <ele>878</ele>
        <time>2020-05-22T10:45:33.862Z</time>
      </trkpt>
      <trkpt lat="44.88483" lon="5.42067">
        <ele>878</ele>
        <time>2020-05-22T10:45:34.862Z</time>
      </trkpt>
      <trkpt lat="44.88489" lon="5.42067">
        <ele>877</ele>
        <time>2020-05-22T10:45:35.862Z</time>
      </trkpt>
      <trkpt lat="44.88496" lon="5.42068">
        <ele>877</ele>
        <time>2020-05-22T10:45:36.862Z</time>
      </trkpt>
      <trkpt lat="44.88503" lon="5.42069">
        <ele>876</ele>
        <time>2020-05-22T10:45:37.862Z</time>
      </trkpt>
      <trkpt lat="44.8851" lon="5.42069">
        <ele>876</ele>
        <time>2020-05-22T10:45:38.862Z</time>
      </trkpt>
      <trkpt lat="44.88517" lon="5.4207">
        <ele>875</ele>
        <time>2020-05-22T10:45:39.862Z</time>
      </trkpt>
      <trkpt lat="44.88524" lon="5.42071">
        <ele>875</ele>
        <time>2020-05-22T10:45:40.862Z</time>
      </trkpt>
      <trkpt lat="44.88531" lon="5.42071">
        <ele>875</ele>
        <time>2020-05-22T10:45:41.862Z</time>
      </trkpt>
      <trkpt lat="44.88538" lon="5.42072">
        <ele>875</ele>
        <time>2020-05-22T10:45:42.862Z</time>
      </trkpt>
      <trkpt lat="44.88545" lon="5.42073">
        <ele>875</ele>
        <time>2020-05-22T10:45:43.862Z</time>
      </trkpt>
      <trkpt lat="44.88552" lon="5.42074">
        <ele>874</ele>
        <time>2020-05-22T10:45:44.862Z</time>
      </trkpt>
      <trkpt lat="44.88559" lon="5.42075">
        <ele>874</ele>
        <time>2020-05-22T10:45:45.862Z</time>
      </trkpt>
      <trkpt lat="44.88566" lon="5.42076">
        <ele>874</ele>
        <time>2020-05-22T10:45:46.862Z</time>
      </trkpt>
      <trkpt lat="44.88573" lon="5.42077">
        <ele>874</ele>
        <time>2020-05-22T10:45:47.862Z</time>
      </trkpt>
      <trkpt lat="44.8858" lon="5.42078">
        <ele>874</ele>
        <time>2020-05-22T10:45:48.862Z</time>
      </trkpt>
      <trkpt lat="44.88587" lon="5.42079">
        <ele>874</ele>
        <time>2020-05-22T10:45:49.862Z</time>
      </trkpt>
      <trkpt lat="44.88594" lon="5.42081">
        <ele>873</ele>
        <time>2020-05-22T10:45:50.862Z</time>
      </trkpt>
      <trkpt lat="44.88601" lon="5.42082">
        <ele>873</ele>
        <time>2020-05-22T10:45:51.862Z</time>
      </trkpt>
      <trkpt lat="44.88608" lon="5.42083">
        <ele>873</ele>
        <time>2020-05-22T10:45:52.862Z</time>
      </trkpt>
      <trkpt lat="44.88616" lon="5.42084">
        <ele>873</ele>
        <time>2020-05-22T10:45:53.862Z</time>
      </trkpt>
      <trkpt lat="44.88623" lon="5.42085">
        <ele>872</ele>
        <time>2020-05-22T10:45:54.862Z</time>
      </trkpt>
      <trkpt lat="44.88631" lon="5.42086">
        <ele>872</ele>
        <time>2020-05-22T10:45:55.862Z</time>
      </trkpt>
      <trkpt lat="44.88638" lon="5.42087">
        <ele>871</ele>
        <time>2020-05-22T10:45:56.862Z</time>
      </trkpt>
      <trkpt lat="44.88645" lon="5.42088">
        <ele>870</ele>
        <time>2020-05-22T10:45:57.862Z</time>
      </trkpt>
      <trkpt lat="44.88652" lon="5.42089">
        <ele>870</ele>
        <time>2020-05-22T10:45:58.862Z</time>
      </trkpt>
      <trkpt lat="44.88659" lon="5.4209">
        <ele>869</ele>
        <time>2020-05-22T10:45:59.862Z</time>
      </trkpt>
      <trkpt lat="44.88667" lon="5.42092">
        <ele>869</ele>
        <time>2020-05-22T10:46:00.862Z</time>
      </trkpt>
      <trkpt lat="44.88674" lon="5.42093">
        <ele>868</ele>
        <time>2020-05-22T10:46:01.862Z</time>
      </trkpt>
      <trkpt lat="44.88674" lon="5.42093">
        <ele>868</ele>
        <time>2020-05-22T10:46:02.862Z</time>
      </trkpt>
      <trkpt lat="44.88689" lon="5.42095">
        <ele>868</ele>
        <time>2020-05-22T10:46:03.862Z</time>
      </trkpt>
      <trkpt lat="44.88696" lon="5.42096">
        <ele>867</ele>
        <time>2020-05-22T10:46:04.862Z</time>
      </trkpt>
      <trkpt lat="44.88704" lon="5.42097">
        <ele>867</ele>
        <time>2020-05-22T10:46:05.862Z</time>
      </trkpt>
      <trkpt lat="44.88711" lon="5.42098">
        <ele>867</ele>
        <time>2020-05-22T10:46:06.862Z</time>
      </trkpt>
      <trkpt lat="44.88719" lon="5.42099">
        <ele>867</ele>
        <time>2020-05-22T10:46:07.862Z</time>
      </trkpt>
      <trkpt lat="44.88726" lon="5.421">
        <ele>867</ele>
        <time>2020-05-22T10:46:08.862Z</time>
      </trkpt>
      <trkpt lat="44.88734" lon="5.42101">
        <ele>867</ele>
        <time>2020-05-22T10:46:09.862Z</time>
      </trkpt>
      <trkpt lat="44.88741" lon="5.42103">
        <ele>867</ele>
        <time>2020-05-22T10:46:10.862Z</time>
      </trkpt>
      <trkpt lat="44.88748" lon="5.42104">
        <ele>867</ele>
        <time>2020-05-22T10:46:11.862Z</time>
      </trkpt>
      <trkpt lat="44.88756" lon="5.42105">
        <ele>866</ele>
        <time>2020-05-22T10:46:12.862Z</time>
      </trkpt>
      <trkpt lat="44.88763" lon="5.42106">
        <ele>866</ele>
        <time>2020-05-22T10:46:13.862Z</time>
      </trkpt>
      <trkpt lat="44.8877" lon="5.42108">
        <ele>865</ele>
        <time>2020-05-22T10:46:14.862Z</time>
      </trkpt>
      <trkpt lat="44.88778" lon="5.42109">
        <ele>865</ele>
        <time>2020-05-22T10:46:15.862Z</time>
      </trkpt>
      <trkpt lat="44.88785" lon="5.4211">
        <ele>864</ele>
        <time>2020-05-22T10:46:16.862Z</time>
      </trkpt>
      <trkpt lat="44.88793" lon="5.42111">
        <ele>864</ele>
        <time>2020-05-22T10:46:17.863Z</time>
      </trkpt>
      <trkpt lat="44.888" lon="5.42112">
        <ele>864</ele>
        <time>2020-05-22T10:46:18.862Z</time>
      </trkpt>
      <trkpt lat="44.88807" lon="5.42113">
        <ele>864</ele>
        <time>2020-05-22T10:46:19.862Z</time>
      </trkpt>
      <trkpt lat="44.88815" lon="5.42114">
        <ele>864</ele>
        <time>2020-05-22T10:46:20.862Z</time>
      </trkpt>
      <trkpt lat="44.88823" lon="5.42115">
        <ele>863</ele>
        <time>2020-05-22T10:46:21.862Z</time>
      </trkpt>
      <trkpt lat="44.8883" lon="5.42116">
        <ele>863</ele>
        <time>2020-05-22T10:46:22.862Z</time>
      </trkpt>
      <trkpt lat="44.88838" lon="5.42118">
        <ele>863</ele>
        <time>2020-05-22T10:46:23.862Z</time>
      </trkpt>
      <trkpt lat="44.88845" lon="5.42119">
        <ele>863</ele>
        <time>2020-05-22T10:46:24.862Z</time>
      </trkpt>
      <trkpt lat="44.88853" lon="5.4212">
        <ele>863</ele>
        <time>2020-05-22T10:46:25.862Z</time>
      </trkpt>
      <trkpt lat="44.8886" lon="5.42122">
        <ele>863</ele>
        <time>2020-05-22T10:46:26.862Z</time>
      </trkpt>
      <trkpt lat="44.88867" lon="5.42123">
        <ele>863</ele>
        <time>2020-05-22T10:46:27.862Z</time>
      </trkpt>
      <trkpt lat="44.88875" lon="5.42124">
        <ele>863</ele>
        <time>2020-05-22T10:46:28.862Z</time>
      </trkpt>
      <trkpt lat="44.88882" lon="5.42125">
        <ele>863</ele>
        <time>2020-05-22T10:46:29.862Z</time>
      </trkpt>
      <trkpt lat="44.88889" lon="5.42126">
        <ele>863</ele>
        <time>2020-05-22T10:46:30.862Z</time>
      </trkpt>
      <trkpt lat="44.88897" lon="5.42128">
        <ele>862</ele>
        <time>2020-05-22T10:46:31.862Z</time>
      </trkpt>
      <trkpt lat="44.88904" lon="5.42129">
        <ele>862</ele>
        <time>2020-05-22T10:46:32.862Z</time>
      </trkpt>
      <trkpt lat="44.88912" lon="5.4213">
        <ele>863</ele>
        <time>2020-05-22T10:46:33.862Z</time>
      </trkpt>
      <trkpt lat="44.88919" lon="5.42131">
        <ele>863</ele>
        <time>2020-05-22T10:46:34.862Z</time>
      </trkpt>
      <trkpt lat="44.88926" lon="5.42133">
        <ele>863</ele>
        <time>2020-05-22T10:46:35.862Z</time>
      </trkpt>
      <trkpt lat="44.88934" lon="5.42134">
        <ele>863</ele>
        <time>2020-05-22T10:46:36.862Z</time>
      </trkpt>
      <trkpt lat="44.88941" lon="5.42136">
        <ele>863</ele>
        <time>2020-05-22T10:46:37.862Z</time>
      </trkpt>
      <trkpt lat="44.88949" lon="5.42137">
        <ele>863</ele>
        <time>2020-05-22T10:46:38.862Z</time>
      </trkpt>
      <trkpt lat="44.88956" lon="5.42139">
        <ele>863</ele>
        <time>2020-05-22T10:46:39.862Z</time>
      </trkpt>
      <trkpt lat="44.88963" lon="5.4214">
        <ele>862</ele>
        <time>2020-05-22T10:46:40.863Z</time>
      </trkpt>
      <trkpt lat="44.8897" lon="5.42142">
        <ele>863</ele>
        <time>2020-05-22T10:46:41.862Z</time>
      </trkpt>
      <trkpt lat="44.88977" lon="5.42142">
        <ele>862</ele>
        <time>2020-05-22T10:46:42.862Z</time>
      </trkpt>
      <trkpt lat="44.88984" lon="5.42143">
        <ele>862</ele>
        <time>2020-05-22T10:46:43.862Z</time>
      </trkpt>
      <trkpt lat="44.8899" lon="5.42142">
        <ele>861</ele>
        <time>2020-05-22T10:46:44.862Z</time>
      </trkpt>
      <trkpt lat="44.88998" lon="5.42144">
        <ele>860</ele>
        <time>2020-05-22T10:46:45.862Z</time>
      </trkpt>
      <trkpt lat="44.89005" lon="5.42145">
        <ele>860</ele>
        <time>2020-05-22T10:46:46.862Z</time>
      </trkpt>
      <trkpt lat="44.89011" lon="5.42146">
        <ele>860</ele>
        <time>2020-05-22T10:46:47.862Z</time>
      </trkpt>
      <trkpt lat="44.89018" lon="5.42147">
        <ele>860</ele>
        <time>2020-05-22T10:46:48.862Z</time>
      </trkpt>
      <trkpt lat="44.89025" lon="5.42148">
        <ele>861</ele>
        <time>2020-05-22T10:46:49.862Z</time>
      </trkpt>
      <trkpt lat="44.89031" lon="5.42149">
        <ele>861</ele>
        <time>2020-05-22T10:46:50.862Z</time>
      </trkpt>
      <trkpt lat="44.89038" lon="5.42149">
        <ele>862</ele>
        <time>2020-05-22T10:46:51.862Z</time>
      </trkpt>
      <trkpt lat="44.89044" lon="5.4215">
        <ele>862</ele>
        <time>2020-05-22T10:46:52.862Z</time>
      </trkpt>
      <trkpt lat="44.8905" lon="5.4215">
        <ele>862</ele>
        <time>2020-05-22T10:46:53.862Z</time>
      </trkpt>
      <trkpt lat="44.89057" lon="5.42149">
        <ele>862</ele>
        <time>2020-05-22T10:46:54.862Z</time>
      </trkpt>
      <trkpt lat="44.89063" lon="5.42149">
        <ele>862</ele>
        <time>2020-05-22T10:46:55.862Z</time>
      </trkpt>
      <trkpt lat="44.89069" lon="5.42148">
        <ele>862</ele>
        <time>2020-05-22T10:46:56.863Z</time>
      </trkpt>
      <trkpt lat="44.89075" lon="5.42147">
        <ele>861</ele>
        <time>2020-05-22T10:46:57.862Z</time>
      </trkpt>
      <trkpt lat="44.89081" lon="5.42146">
        <ele>861</ele>
        <time>2020-05-22T10:46:58.862Z</time>
      </trkpt>
      <trkpt lat="44.89088" lon="5.42145">
        <ele>861</ele>
        <time>2020-05-22T10:46:59.862Z</time>
      </trkpt>
      <trkpt lat="44.89094" lon="5.42144">
        <ele>860</ele>
        <time>2020-05-22T10:47:00.862Z</time>
      </trkpt>
      <trkpt lat="44.891" lon="5.42143">
        <ele>860</ele>
        <time>2020-05-22T10:47:01.862Z</time>
      </trkpt>
      <trkpt lat="44.89107" lon="5.42142">
        <ele>860</ele>
        <time>2020-05-22T10:47:02.862Z</time>
      </trkpt>
      <trkpt lat="44.89113" lon="5.42141">
        <ele>859</ele>
        <time>2020-05-22T10:47:03.862Z</time>
      </trkpt>
      <trkpt lat="44.89119" lon="5.4214">
        <ele>859</ele>
        <time>2020-05-22T10:47:04.862Z</time>
      </trkpt>
      <trkpt lat="44.89126" lon="5.42139">
        <ele>858</ele>
        <time>2020-05-22T10:47:05.862Z</time>
      </trkpt>
      <trkpt lat="44.89133" lon="5.42138">
        <ele>858</ele>
        <time>2020-05-22T10:47:06.862Z</time>
      </trkpt>
      <trkpt lat="44.89139" lon="5.42137">
        <ele>858</ele>
        <time>2020-05-22T10:47:07.862Z</time>
      </trkpt>
      <trkpt lat="44.89146" lon="5.42137">
        <ele>858</ele>
        <time>2020-05-22T10:47:08.862Z</time>
      </trkpt>
      <trkpt lat="44.89153" lon="5.42137">
        <ele>858</ele>
        <time>2020-05-22T10:47:09.862Z</time>
      </trkpt>
      <trkpt lat="44.89159" lon="5.42137">
        <ele>858</ele>
        <time>2020-05-22T10:47:10.862Z</time>
      </trkpt>
      <trkpt lat="44.89166" lon="5.42137">
        <ele>857</ele>
        <time>2020-05-22T10:47:11.862Z</time>
      </trkpt>
      <trkpt lat="44.89173" lon="5.42139">
        <ele>857</ele>
        <time>2020-05-22T10:47:12.862Z</time>
      </trkpt>
      <trkpt lat="44.89179" lon="5.4214">
        <ele>857</ele>
        <time>2020-05-22T10:47:13.862Z</time>
      </trkpt>
      <trkpt lat="44.89186" lon="5.42142">
        <ele>857</ele>
        <time>2020-05-22T10:47:14.862Z</time>
      </trkpt>
      <trkpt lat="44.89193" lon="5.42144">
        <ele>857</ele>
        <time>2020-05-22T10:47:15.862Z</time>
      </trkpt>
      <trkpt lat="44.89199" lon="5.42147">
        <ele>857</ele>
        <time>2020-05-22T10:47:16.862Z</time>
      </trkpt>
      <trkpt lat="44.89205" lon="5.4215">
        <ele>856</ele>
        <time>2020-05-22T10:47:17.862Z</time>
      </trkpt>
      <trkpt lat="44.89211" lon="5.42154">
        <ele>856</ele>
        <time>2020-05-22T10:47:18.862Z</time>
      </trkpt>
      <trkpt lat="44.89217" lon="5.42157">
        <ele>856</ele>
        <time>2020-05-22T10:47:19.862Z</time>
      </trkpt>
      <trkpt lat="44.89223" lon="5.42161">
        <ele>855</ele>
        <time>2020-05-22T10:47:20.862Z</time>
      </trkpt>
      <trkpt lat="44.89229" lon="5.42165">
        <ele>855</ele>
        <time>2020-05-22T10:47:21.862Z</time>
      </trkpt>
      <trkpt lat="44.89235" lon="5.42168">
        <ele>855</ele>
        <time>2020-05-22T10:47:22.862Z</time>
      </trkpt>
      <trkpt lat="44.89241" lon="5.42172">
        <ele>855</ele>
        <time>2020-05-22T10:47:23.862Z</time>
      </trkpt>
      <trkpt lat="44.89247" lon="5.42175">
        <ele>855</ele>
        <time>2020-05-22T10:47:24.862Z</time>
      </trkpt>
      <trkpt lat="44.89253" lon="5.42178">
        <ele>855</ele>
        <time>2020-05-22T10:47:25.863Z</time>
      </trkpt>
      <trkpt lat="44.8926" lon="5.42181">
        <ele>855</ele>
        <time>2020-05-22T10:47:26.862Z</time>
      </trkpt>
      <trkpt lat="44.89266" lon="5.42184">
        <ele>855</ele>
        <time>2020-05-22T10:47:27.862Z</time>
      </trkpt>
      <trkpt lat="44.89272" lon="5.42186">
        <ele>855</ele>
        <time>2020-05-22T10:47:28.862Z</time>
      </trkpt>
      <trkpt lat="44.89278" lon="5.42189">
        <ele>856</ele>
        <time>2020-05-22T10:47:29.862Z</time>
      </trkpt>
      <trkpt lat="44.89284" lon="5.42192">
        <ele>855</ele>
        <time>2020-05-22T10:47:30.862Z</time>
      </trkpt>
      <trkpt lat="44.89289" lon="5.42195">
        <ele>855</ele>
        <time>2020-05-22T10:47:31.863Z</time>
      </trkpt>
      <trkpt lat="44.89295" lon="5.42198">
        <ele>854</ele>
        <time>2020-05-22T10:47:32.862Z</time>
      </trkpt>
      <trkpt lat="44.89301" lon="5.42201">
        <ele>854</ele>
        <time>2020-05-22T10:47:33.862Z</time>
      </trkpt>
      <trkpt lat="44.89307" lon="5.42204">
        <ele>853</ele>
        <time>2020-05-22T10:47:34.862Z</time>
      </trkpt>
      <trkpt lat="44.89313" lon="5.42207">
        <ele>853</ele>
        <time>2020-05-22T10:47:35.862Z</time>
      </trkpt>
      <trkpt lat="44.89319" lon="5.4221">
        <ele>853</ele>
        <time>2020-05-22T10:47:36.862Z</time>
      </trkpt>
      <trkpt lat="44.89324" lon="5.42213">
        <ele>853</ele>
        <time>2020-05-22T10:47:37.862Z</time>
      </trkpt>
      <trkpt lat="44.8933" lon="5.42216">
        <ele>853</ele>
        <time>2020-05-22T10:47:38.862Z</time>
      </trkpt>
      <trkpt lat="44.89337" lon="5.4222">
        <ele>853</ele>
        <time>2020-05-22T10:47:39.862Z</time>
      </trkpt>
      <trkpt lat="44.89343" lon="5.42224">
        <ele>853</ele>
        <time>2020-05-22T10:47:40.862Z</time>
      </trkpt>
      <trkpt lat="44.89349" lon="5.42227">
        <ele>853</ele>
        <time>2020-05-22T10:47:41.863Z</time>
      </trkpt>
      <trkpt lat="44.89355" lon="5.4223">
        <ele>853</ele>
        <time>2020-05-22T10:47:42.863Z</time>
      </trkpt>
      <trkpt lat="44.89361" lon="5.42233">
        <ele>853</ele>
        <time>2020-05-22T10:47:43.862Z</time>
      </trkpt>
      <trkpt lat="44.89368" lon="5.42237">
        <ele>852</ele>
        <time>2020-05-22T10:47:44.862Z</time>
      </trkpt>
      <trkpt lat="44.89374" lon="5.4224">
        <ele>852</ele>
        <time>2020-05-22T10:47:45.862Z</time>
      </trkpt>
      <trkpt lat="44.8938" lon="5.42243">
        <ele>852</ele>
        <time>2020-05-22T10:47:46.862Z</time>
      </trkpt>
      <trkpt lat="44.89386" lon="5.42247">
        <ele>852</ele>
        <time>2020-05-22T10:47:47.862Z</time>
      </trkpt>
      <trkpt lat="44.89392" lon="5.4225">
        <ele>852</ele>
        <time>2020-05-22T10:47:48.862Z</time>
      </trkpt>
      <trkpt lat="44.89399" lon="5.42253">
        <ele>852</ele>
        <time>2020-05-22T10:47:49.862Z</time>
      </trkpt>
      <trkpt lat="44.89405" lon="5.42256">
        <ele>851</ele>
        <time>2020-05-22T10:47:50.862Z</time>
      </trkpt>
      <trkpt lat="44.89412" lon="5.4226">
        <ele>851</ele>
        <time>2020-05-22T10:47:51.862Z</time>
      </trkpt>
      <trkpt lat="44.89418" lon="5.42263">
        <ele>851</ele>
        <time>2020-05-22T10:47:52.862Z</time>
      </trkpt>
      <trkpt lat="44.89423" lon="5.42266">
        <ele>851</ele>
        <time>2020-05-22T10:47:53.862Z</time>
      </trkpt>
      <trkpt lat="44.8943" lon="5.42269">
        <ele>851</ele>
        <time>2020-05-22T10:47:54.862Z</time>
      </trkpt>
      <trkpt lat="44.89434" lon="5.42271">
        <ele>851</ele>
        <time>2020-05-22T10:47:55.862Z</time>
      </trkpt>
      <trkpt lat="44.8944" lon="5.42274">
        <ele>851</ele>
        <time>2020-05-22T10:47:56.862Z</time>
      </trkpt>
      <trkpt lat="44.89444" lon="5.42277">
        <ele>851</ele>
        <time>2020-05-22T10:47:57.862Z</time>
      </trkpt>
      <trkpt lat="44.89449" lon="5.4228">
        <ele>850</ele>
        <time>2020-05-22T10:47:58.862Z</time>
      </trkpt>
      <trkpt lat="44.89453" lon="5.42283">
        <ele>850</ele>
        <time>2020-05-22T10:47:59.862Z</time>
      </trkpt>
      <trkpt lat="44.89458" lon="5.42286">
        <ele>850</ele>
        <time>2020-05-22T10:48:00.862Z</time>
      </trkpt>
      <trkpt lat="44.89462" lon="5.42289">
        <ele>850</ele>
        <time>2020-05-22T10:48:01.862Z</time>
      </trkpt>
      <trkpt lat="44.89467" lon="5.42292">
        <ele>850</ele>
        <time>2020-05-22T10:48:02.862Z</time>
      </trkpt>
      <trkpt lat="44.89472" lon="5.42294">
        <ele>849</ele>
        <time>2020-05-22T10:48:03.862Z</time>
      </trkpt>
      <trkpt lat="44.89477" lon="5.42296">
        <ele>849</ele>
        <time>2020-05-22T10:48:04.862Z</time>
      </trkpt>
      <trkpt lat="44.89482" lon="5.42298">
        <ele>848</ele>
        <time>2020-05-22T10:48:05.862Z</time>
      </trkpt>
      <trkpt lat="44.89487" lon="5.42301">
        <ele>848</ele>
        <time>2020-05-22T10:48:06.862Z</time>
      </trkpt>
      <trkpt lat="44.89491" lon="5.42305">
        <ele>847</ele>
        <time>2020-05-22T10:48:07.862Z</time>
      </trkpt>
      <trkpt lat="44.89495" lon="5.42311">
        <ele>846</ele>
        <time>2020-05-22T10:48:08.862Z</time>
      </trkpt>
      <trkpt lat="44.89495" lon="5.42316">
        <ele>845</ele>
        <time>2020-05-22T10:48:09.862Z</time>
      </trkpt>
      <trkpt lat="44.89496" lon="5.42322">
        <ele>845</ele>
        <time>2020-05-22T10:48:10.862Z</time>
      </trkpt>
      <trkpt lat="44.89496" lon="5.42328">
        <ele>845</ele>
        <time>2020-05-22T10:48:11.862Z</time>
      </trkpt>
      <trkpt lat="44.89495" lon="5.42333">
        <ele>844</ele>
        <time>2020-05-22T10:48:12.862Z</time>
      </trkpt>
      <trkpt lat="44.89494" lon="5.42339">
        <ele>844</ele>
        <time>2020-05-22T10:48:13.862Z</time>
      </trkpt>
      <trkpt lat="44.89494" lon="5.42344">
        <ele>844</ele>
        <time>2020-05-22T10:48:14.862Z</time>
      </trkpt>
      <trkpt lat="44.89494" lon="5.42349">
        <ele>845</ele>
        <time>2020-05-22T10:48:15.862Z</time>
      </trkpt>
      <trkpt lat="44.89494" lon="5.42354">
        <ele>845</ele>
        <time>2020-05-22T10:48:16.862Z</time>
      </trkpt>
      <trkpt lat="44.89495" lon="5.42358">
        <ele>846</ele>
        <time>2020-05-22T10:48:17.862Z</time>
      </trkpt>
      <trkpt lat="44.89495" lon="5.42363">
        <ele>847</ele>
        <time>2020-05-22T10:48:18.862Z</time>
      </trkpt>
      <trkpt lat="44.89496" lon="5.42367">
        <ele>847</ele>
        <time>2020-05-22T10:48:19.862Z</time>
      </trkpt>
      <trkpt lat="44.89496" lon="5.4237">
        <ele>848</ele>
        <time>2020-05-22T10:48:20.862Z</time>
      </trkpt>
      <trkpt lat="44.89498" lon="5.42374">
        <ele>848</ele>
        <time>2020-05-22T10:48:21.862Z</time>
      </trkpt>
      <trkpt lat="44.89499" lon="5.42378">
        <ele>849</ele>
        <time>2020-05-22T10:48:22.862Z</time>
      </trkpt>
      <trkpt lat="44.895" lon="5.42381">
        <ele>849</ele>
        <time>2020-05-22T10:48:23.862Z</time>
      </trkpt>
      <trkpt lat="44.89502" lon="5.42384">
        <ele>850</ele>
        <time>2020-05-22T10:48:24.862Z</time>
      </trkpt>
      <trkpt lat="44.89503" lon="5.42387">
        <ele>850</ele>
        <time>2020-05-22T10:48:25.862Z</time>
      </trkpt>
      <trkpt lat="44.89504" lon="5.42389">
        <ele>850</ele>
        <time>2020-05-22T10:48:26.862Z</time>
      </trkpt>
      <trkpt lat="44.89505" lon="5.42392">
        <ele>851</ele>
        <time>2020-05-22T10:48:27.862Z</time>
      </trkpt>
      <trkpt lat="44.89505" lon="5.42395">
        <ele>851</ele>
        <time>2020-05-22T10:48:28.862Z</time>
      </trkpt>
      <trkpt lat="44.89506" lon="5.42398">
        <ele>851</ele>
        <time>2020-05-22T10:48:29.862Z</time>
      </trkpt>
      <trkpt lat="44.89505" lon="5.42401">
        <ele>852</ele>
        <time>2020-05-22T10:48:30.863Z</time>
      </trkpt>
      <trkpt lat="44.89505" lon="5.42403">
        <ele>852</ele>
        <time>2020-05-22T10:48:31.862Z</time>
      </trkpt>
      <trkpt lat="44.89504" lon="5.42406">
        <ele>853</ele>
        <time>2020-05-22T10:48:32.862Z</time>
      </trkpt>
      <trkpt lat="44.89503" lon="5.42408">
        <ele>854</ele>
        <time>2020-05-22T10:48:33.862Z</time>
      </trkpt>
      <trkpt lat="44.89503" lon="5.42411">
        <ele>854</ele>
        <time>2020-05-22T10:48:34.862Z</time>
      </trkpt>
      <trkpt lat="44.89502" lon="5.42412">
        <ele>854</ele>
        <time>2020-05-22T10:48:35.862Z</time>
      </trkpt>
      <trkpt lat="44.89502" lon="5.42414">
        <ele>854</ele>
        <time>2020-05-22T10:48:36.862Z</time>
      </trkpt>
      <trkpt lat="44.89501" lon="5.42416">
        <ele>854</ele>
        <time>2020-05-22T10:48:37.862Z</time>
      </trkpt>
      <trkpt lat="44.89501" lon="5.42418">
        <ele>854</ele>
        <time>2020-05-22T10:48:38.862Z</time>
      </trkpt>
      <trkpt lat="44.895" lon="5.42421">
        <ele>854</ele>
        <time>2020-05-22T10:48:39.862Z</time>
      </trkpt>
      <trkpt lat="44.895" lon="5.42424">
        <ele>854</ele>
        <time>2020-05-22T10:48:40.862Z</time>
      </trkpt>
      <trkpt lat="44.89499" lon="5.42428">
        <ele>854</ele>
        <time>2020-05-22T10:48:41.862Z</time>
      </trkpt>
      <trkpt lat="44.89498" lon="5.42431">
        <ele>854</ele>
        <time>2020-05-22T10:48:42.862Z</time>
      </trkpt>
      <trkpt lat="44.89497" lon="5.42435">
        <ele>854</ele>
        <time>2020-05-22T10:48:43.862Z</time>
      </trkpt>
      <trkpt lat="44.89497" lon="5.42439">
        <ele>853</ele>
        <time>2020-05-22T10:48:44.862Z</time>
      </trkpt>
      <trkpt lat="44.89496" lon="5.42444">
        <ele>853</ele>
        <time>2020-05-22T10:48:45.862Z</time>
      </trkpt>
      <trkpt lat="44.89495" lon="5.4245">
        <ele>853</ele>
        <time>2020-05-22T10:48:46.862Z</time>
      </trkpt>
      <trkpt lat="44.89495" lon="5.42457">
        <ele>852</ele>
        <time>2020-05-22T10:48:47.862Z</time>
      </trkpt>
      <trkpt lat="44.89495" lon="5.42465">
        <ele>852</ele>
        <time>2020-05-22T10:48:48.863Z</time>
      </trkpt>
      <trkpt lat="44.89495" lon="5.42474">
        <ele>851</ele>
        <time>2020-05-22T10:48:49.862Z</time>
      </trkpt>
      <trkpt lat="44.89495" lon="5.42483">
        <ele>850</ele>
        <time>2020-05-22T10:48:50.862Z</time>
      </trkpt>
      <trkpt lat="44.89496" lon="5.42493">
        <ele>850</ele>
        <time>2020-05-22T10:48:51.862Z</time>
      </trkpt>
      <trkpt lat="44.89498" lon="5.42502">
        <ele>850</ele>
        <time>2020-05-22T10:48:52.863Z</time>
      </trkpt>
      <trkpt lat="44.89499" lon="5.42512">
        <ele>849</ele>
        <time>2020-05-22T10:48:53.863Z</time>
      </trkpt>
      <trkpt lat="44.89502" lon="5.42522">
        <ele>849</ele>
        <time>2020-05-22T10:48:54.862Z</time>
      </trkpt>
      <trkpt lat="44.89504" lon="5.42531">
        <ele>849</ele>
        <time>2020-05-22T10:48:55.862Z</time>
      </trkpt>
      <trkpt lat="44.89508" lon="5.4254">
        <ele>849</ele>
        <time>2020-05-22T10:48:56.862Z</time>
      </trkpt>
      <trkpt lat="44.89513" lon="5.42549">
        <ele>849</ele>
        <time>2020-05-22T10:48:57.863Z</time>
      </trkpt>
      <trkpt lat="44.89518" lon="5.42559">
        <ele>848</ele>
        <time>2020-05-22T10:48:58.862Z</time>
      </trkpt>
      <trkpt lat="44.89523" lon="5.42569">
        <ele>848</ele>
        <time>2020-05-22T10:48:59.862Z</time>
      </trkpt>
      <trkpt lat="44.89529" lon="5.42579">
        <ele>848</ele>
        <time>2020-05-22T10:49:00.863Z</time>
      </trkpt>
      <trkpt lat="44.89535" lon="5.42588">
        <ele>848</ele>
        <time>2020-05-22T10:49:01.862Z</time>
      </trkpt>
      <trkpt lat="44.89542" lon="5.42599">
        <ele>847</ele>
        <time>2020-05-22T10:49:02.862Z</time>
      </trkpt>
      <trkpt lat="44.89551" lon="5.42607">
        <ele>846</ele>
        <time>2020-05-22T10:49:03.862Z</time>
      </trkpt>
      <trkpt lat="44.89559" lon="5.42615">
        <ele>846</ele>
        <time>2020-05-22T10:49:04.862Z</time>
      </trkpt>
      <trkpt lat="44.89567" lon="5.42621">
        <ele>846</ele>
        <time>2020-05-22T10:49:05.862Z</time>
      </trkpt>
      <trkpt lat="44.89576" lon="5.42626">
        <ele>845</ele>
        <time>2020-05-22T10:49:06.862Z</time>
      </trkpt>
      <trkpt lat="44.89585" lon="5.42629">
        <ele>845</ele>
        <time>2020-05-22T10:49:07.862Z</time>
      </trkpt>
      <trkpt lat="44.89594" lon="5.4263">
        <ele>845</ele>
        <time>2020-05-22T10:49:08.862Z</time>
      </trkpt>
      <trkpt lat="44.89603" lon="5.42631">
        <ele>845</ele>
        <time>2020-05-22T10:49:09.862Z</time>
      </trkpt>
      <trkpt lat="44.89611" lon="5.42632">
        <ele>845</ele>
        <time>2020-05-22T10:49:10.862Z</time>
      </trkpt>
      <trkpt lat="44.89619" lon="5.42633">
        <ele>844</ele>
        <time>2020-05-22T10:49:11.862Z</time>
      </trkpt>
      <trkpt lat="44.89627" lon="5.42634">
        <ele>844</ele>
        <time>2020-05-22T10:49:12.862Z</time>
      </trkpt>
      <trkpt lat="44.89635" lon="5.42635">
        <ele>843</ele>
        <time>2020-05-22T10:49:13.862Z</time>
      </trkpt>
      <trkpt lat="44.89642" lon="5.42636">
        <ele>843</ele>
        <time>2020-05-22T10:49:14.862Z</time>
      </trkpt>
      <trkpt lat="44.89648" lon="5.42638">
        <ele>843</ele>
        <time>2020-05-22T10:49:15.862Z</time>
      </trkpt>
      <trkpt lat="44.89654" lon="5.42639">
        <ele>842</ele>
        <time>2020-05-22T10:49:16.862Z</time>
      </trkpt>
      <trkpt lat="44.89659" lon="5.42641">
        <ele>842</ele>
        <time>2020-05-22T10:49:17.863Z</time>
      </trkpt>
      <trkpt lat="44.89665" lon="5.42644">
        <ele>842</ele>
        <time>2020-05-22T10:49:18.862Z</time>
      </trkpt>
      <trkpt lat="44.8967" lon="5.42648">
        <ele>842</ele>
        <time>2020-05-22T10:49:19.862Z</time>
      </trkpt>
      <trkpt lat="44.89674" lon="5.42652">
        <ele>842</ele>
        <time>2020-05-22T10:49:20.863Z</time>
      </trkpt>
      <trkpt lat="44.89678" lon="5.42657">
        <ele>842</ele>
        <time>2020-05-22T10:49:21.862Z</time>
      </trkpt>
      <trkpt lat="44.89682" lon="5.42663">
        <ele>842</ele>
        <time>2020-05-22T10:49:22.862Z</time>
      </trkpt>
      <trkpt lat="44.89685" lon="5.42669">
        <ele>842</ele>
        <time>2020-05-22T10:49:23.862Z</time>
      </trkpt>
      <trkpt lat="44.89688" lon="5.42675">
        <ele>842</ele>
        <time>2020-05-22T10:49:24.862Z</time>
      </trkpt>
      <trkpt lat="44.89692" lon="5.42679">
        <ele>843</ele>
        <time>2020-05-22T10:49:25.862Z</time>
      </trkpt>
      <trkpt lat="44.89696" lon="5.42684">
        <ele>843</ele>
        <time>2020-05-22T10:49:26.862Z</time>
      </trkpt>
      <trkpt lat="44.897" lon="5.42689">
        <ele>843</ele>
        <time>2020-05-22T10:49:27.862Z</time>
      </trkpt>
      <trkpt lat="44.89705" lon="5.42692">
        <ele>843</ele>
        <time>2020-05-22T10:49:28.862Z</time>
      </trkpt>
      <trkpt lat="44.8971" lon="5.42695">
        <ele>843</ele>
        <time>2020-05-22T10:49:29.862Z</time>
      </trkpt>
      <trkpt lat="44.89714" lon="5.42696">
        <ele>843</ele>
        <time>2020-05-22T10:49:30.862Z</time>
      </trkpt>
      <trkpt lat="44.89719" lon="5.42697">
        <ele>843</ele>
        <time>2020-05-22T10:49:31.862Z</time>
      </trkpt>
      <trkpt lat="44.89722" lon="5.42698">
        <ele>844</ele>
        <time>2020-05-22T10:49:32.862Z</time>
      </trkpt>
      <trkpt lat="44.89724" lon="5.42699">
        <ele>844</ele>
        <time>2020-05-22T10:49:33.863Z</time>
      </trkpt>
      <trkpt lat="44.89724" lon="5.42699">
        <ele>844</ele>
        <time>2020-05-22T10:49:34.862Z</time>
      </trkpt>
      <trkpt lat="44.89724" lon="5.42699">
        <ele>845</ele>
        <time>2020-05-22T10:49:35.862Z</time>
      </trkpt>
      <trkpt lat="44.89724" lon="5.42699">
        <ele>845</ele>
        <time>2020-05-22T10:49:36.862Z</time>
      </trkpt>
      <trkpt lat="44.89723" lon="5.42698">
        <ele>846</ele>
        <time>2020-05-22T10:49:37.862Z</time>
      </trkpt>
      <trkpt lat="44.89721" lon="5.42698">
        <ele>847</ele>
        <time>2020-05-22T10:49:38.862Z</time>
      </trkpt>
      <trkpt lat="44.89719" lon="5.42697">
        <ele>848</ele>
        <time>2020-05-22T10:49:39.862Z</time>
      </trkpt>
      <trkpt lat="44.89716" lon="5.42696">
        <ele>848</ele>
        <time>2020-05-22T10:49:40.862Z</time>
      </trkpt>
      <trkpt lat="44.89712" lon="5.42696">
        <ele>848</ele>
        <time>2020-05-22T10:49:41.862Z</time>
      </trkpt>
      <trkpt lat="44.89708" lon="5.42695">
        <ele>849</ele>
        <time>2020-05-22T10:49:42.863Z</time>
      </trkpt>
      <trkpt lat="44.89705" lon="5.42693">
        <ele>849</ele>
        <time>2020-05-22T10:49:43.862Z</time>
      </trkpt>
      <trkpt lat="44.89701" lon="5.42691">
        <ele>850</ele>
        <time>2020-05-22T10:49:44.862Z</time>
      </trkpt>
      <trkpt lat="44.89698" lon="5.42688">
        <ele>850</ele>
        <time>2020-05-22T10:49:45.862Z</time>
      </trkpt>
      <trkpt lat="44.89694" lon="5.42684">
        <ele>850</ele>
        <time>2020-05-22T10:49:46.862Z</time>
      </trkpt>
      <trkpt lat="44.89691" lon="5.4268">
        <ele>850</ele>
        <time>2020-05-22T10:49:47.862Z</time>
      </trkpt>
      <trkpt lat="44.89688" lon="5.42676">
        <ele>850</ele>
        <time>2020-05-22T10:49:48.862Z</time>
      </trkpt>
      <trkpt lat="44.89685" lon="5.42671">
        <ele>850</ele>
        <time>2020-05-22T10:49:49.862Z</time>
      </trkpt>
      <trkpt lat="44.89681" lon="5.42666">
        <ele>850</ele>
        <time>2020-05-22T10:49:50.862Z</time>
      </trkpt>
      <trkpt lat="44.89678" lon="5.42661">
        <ele>851</ele>
        <time>2020-05-22T10:49:51.862Z</time>
      </trkpt>
      <trkpt lat="44.89675" lon="5.42655">
        <ele>851</ele>
        <time>2020-05-22T10:49:52.862Z</time>
      </trkpt>
      <trkpt lat="44.89673" lon="5.4265">
        <ele>851</ele>
        <time>2020-05-22T10:49:53.862Z</time>
      </trkpt>
      <trkpt lat="44.8967" lon="5.42646">
        <ele>851</ele>
        <time>2020-05-22T10:49:54.863Z</time>
      </trkpt>
      <trkpt lat="44.89668" lon="5.42643">
        <ele>850</ele>
        <time>2020-05-22T10:49:55.862Z</time>
      </trkpt>
      <trkpt lat="44.89666" lon="5.42641">
        <ele>850</ele>
        <time>2020-05-22T10:49:56.862Z</time>
      </trkpt>
      <trkpt lat="44.89664" lon="5.4264">
        <ele>849</ele>
        <time>2020-05-22T10:49:57.862Z</time>
      </trkpt>
      <trkpt lat="44.89664" lon="5.4264">
        <ele>849</ele>
        <time>2020-05-22T10:49:58.862Z</time>
      </trkpt>
      <trkpt lat="44.89664" lon="5.4264">
        <ele>849</ele>
        <time>2020-05-22T10:49:59.862Z</time>
      </trkpt>
      <trkpt lat="44.89664" lon="5.42641">
        <ele>848</ele>
        <time>2020-05-22T10:50:00.862Z</time>
      </trkpt>
      <trkpt lat="44.89665" lon="5.42641">
        <ele>848</ele>
        <time>2020-05-22T10:50:01.863Z</time>
      </trkpt>
      <trkpt lat="44.89666" lon="5.42641">
        <ele>849</ele>
        <time>2020-05-22T10:50:02.863Z</time>
      </trkpt>
      <trkpt lat="44.89672" lon="5.42647">
        <ele>851</ele>
        <time>2020-05-22T10:50:03.865Z</time>
      </trkpt>
      <trkpt lat="44.89673" lon="5.42649">
        <ele>851</ele>
        <time>2020-05-22T10:50:04.864Z</time>
      </trkpt>
      <trkpt lat="44.89674" lon="5.42649">
        <ele>850</ele>
        <time>2020-05-22T10:50:05.864Z</time>
      </trkpt>
      <trkpt lat="44.89674" lon="5.42649">
        <ele>850</ele>
        <time>2020-05-22T10:50:06.865Z</time>
      </trkpt>
      <trkpt lat="44.89674" lon="5.42648">
        <ele>850</ele>
        <time>2020-05-22T10:50:07.864Z</time>
      </trkpt>
      <trkpt lat="44.89673" lon="5.42647">
        <ele>850</ele>
        <time>2020-05-22T10:50:08.864Z</time>
      </trkpt>
      <trkpt lat="44.89673" lon="5.42647">
        <ele>850</ele>
        <time>2020-05-22T10:50:09.865Z</time>
      </trkpt>
      <trkpt lat="44.89671" lon="5.42646">
        <ele>850</ele>
        <time>2020-05-22T10:50:10.864Z</time>
      </trkpt>
      <trkpt lat="44.89669" lon="5.42645">
        <ele>849</ele>
        <time>2020-05-22T10:50:11.865Z</time>
      </trkpt>
      <trkpt lat="44.89668" lon="5.42644">
        <ele>849</ele>
        <time>2020-05-22T10:50:12.865Z</time>
      </trkpt>
      <trkpt lat="44.89667" lon="5.42644">
        <ele>848</ele>
        <time>2020-05-22T10:50:13.864Z</time>
      </trkpt>
      <trkpt lat="44.89665" lon="5.42644">
        <ele>848</ele>
        <time>2020-05-22T10:50:14.865Z</time>
      </trkpt>
      <trkpt lat="44.89664" lon="5.42643">
        <ele>848</ele>
        <time>2020-05-22T10:50:15.865Z</time>
      </trkpt>
      <trkpt lat="44.89663" lon="5.42642">
        <ele>848</ele>
        <time>2020-05-22T10:50:16.864Z</time>
      </trkpt>
      <trkpt lat="44.89663" lon="5.42641">
        <ele>848</ele>
        <time>2020-05-22T10:50:17.864Z</time>
      </trkpt>
      <trkpt lat="44.89664" lon="5.42641">
        <ele>848</ele>
        <time>2020-05-22T10:50:18.865Z</time>
      </trkpt>
      <trkpt lat="44.89665" lon="5.42641">
        <ele>847</ele>
        <time>2020-05-22T10:50:19.865Z</time>
      </trkpt>
      <trkpt lat="44.89665" lon="5.42642">
        <ele>847</ele>
        <time>2020-05-22T10:50:20.865Z</time>
      </trkpt>
      <trkpt lat="44.89666" lon="5.42643">
        <ele>847</ele>
        <time>2020-05-22T10:50:21.865Z</time>
      </trkpt>
      <trkpt lat="44.8967" lon="5.42646">
        <ele>850</ele>
        <time>2020-05-22T10:50:22.865Z</time>
      </trkpt>
      <trkpt lat="44.89672" lon="5.42647">
        <ele>850</ele>
        <time>2020-05-22T10:50:23.865Z</time>
      </trkpt>
      <trkpt lat="44.89673" lon="5.42649">
        <ele>850</ele>
        <time>2020-05-22T10:50:24.865Z</time>
      </trkpt>
      <trkpt lat="44.89675" lon="5.42652">
        <ele>850</ele>
        <time>2020-05-22T10:50:25.866Z</time>
      </trkpt>
      <trkpt lat="44.89676" lon="5.42655">
        <ele>849</ele>
        <time>2020-05-22T10:50:26.865Z</time>
      </trkpt>
      <trkpt lat="44.89678" lon="5.42658">
        <ele>849</ele>
        <time>2020-05-22T10:50:27.866Z</time>
      </trkpt>
      <trkpt lat="44.89681" lon="5.42661">
        <ele>849</ele>
        <time>2020-05-22T10:50:28.866Z</time>
      </trkpt>
      <trkpt lat="44.89683" lon="5.42664">
        <ele>848</ele>
        <time>2020-05-22T10:50:29.866Z</time>
      </trkpt>
      <trkpt lat="44.89685" lon="5.42667">
        <ele>848</ele>
        <time>2020-05-22T10:50:30.865Z</time>
      </trkpt>
      <trkpt lat="44.89686" lon="5.4267">
        <ele>847</ele>
        <time>2020-05-22T10:50:31.866Z</time>
      </trkpt>
      <trkpt lat="44.89687" lon="5.42673">
        <ele>846</ele>
        <time>2020-05-22T10:50:32.866Z</time>
      </trkpt>
      <trkpt lat="44.89688" lon="5.42676">
        <ele>846</ele>
        <time>2020-05-22T10:50:33.865Z</time>
      </trkpt>
      <trkpt lat="44.89689" lon="5.42677">
        <ele>845</ele>
        <time>2020-05-22T10:50:34.866Z</time>
      </trkpt>
      <trkpt lat="44.8969" lon="5.42679">
        <ele>845</ele>
        <time>2020-05-22T10:50:35.865Z</time>
      </trkpt>
      <trkpt lat="44.89692" lon="5.4268">
        <ele>845</ele>
        <time>2020-05-22T10:50:36.866Z</time>
      </trkpt>
      <trkpt lat="44.89694" lon="5.42682">
        <ele>844</ele>
        <time>2020-05-22T10:50:37.866Z</time>
      </trkpt>
      <trkpt lat="44.89695" lon="5.42683">
        <ele>844</ele>
        <time>2020-05-22T10:50:38.866Z</time>
      </trkpt>
      <trkpt lat="44.89697" lon="5.42685">
        <ele>843</ele>
        <time>2020-05-22T10:50:39.866Z</time>
      </trkpt>
      <trkpt lat="44.89698" lon="5.42686">
        <ele>843</ele>
        <time>2020-05-22T10:50:40.866Z</time>
      </trkpt>
      <trkpt lat="44.897" lon="5.42687">
        <ele>842</ele>
        <time>2020-05-22T10:50:41.866Z</time>
      </trkpt>
      <trkpt lat="44.89701" lon="5.42688">
        <ele>843</ele>
        <time>2020-05-22T10:50:42.866Z</time>
      </trkpt>
      <trkpt lat="44.89703" lon="5.42689">
        <ele>843</ele>
        <time>2020-05-22T10:50:43.866Z</time>
      </trkpt>
      <trkpt lat="44.89706" lon="5.42689">
        <ele>843</ele>
        <time>2020-05-22T10:50:44.866Z</time>
      </trkpt>
      <trkpt lat="44.89708" lon="5.42689">
        <ele>843</ele>
        <time>2020-05-22T10:50:45.866Z</time>
      </trkpt>
      <trkpt lat="44.8971" lon="5.42689">
        <ele>843</ele>
        <time>2020-05-22T10:50:46.866Z</time>
      </trkpt>
      <trkpt lat="44.89712" lon="5.4269">
        <ele>843</ele>
        <time>2020-05-22T10:50:47.866Z</time>
      </trkpt>
      <trkpt lat="44.89714" lon="5.4269">
        <ele>844</ele>
        <time>2020-05-22T10:50:48.866Z</time>
      </trkpt>
      <trkpt lat="44.89716" lon="5.4269">
        <ele>844</ele>
        <time>2020-05-22T10:50:49.866Z</time>
      </trkpt>
      <trkpt lat="44.89718" lon="5.4269">
        <ele>844</ele>
        <time>2020-05-22T10:50:50.866Z</time>
      </trkpt>
      <trkpt lat="44.89719" lon="5.4269">
        <ele>844</ele>
        <time>2020-05-22T10:50:51.866Z</time>
      </trkpt>
      <trkpt lat="44.89721" lon="5.42691">
        <ele>844</ele>
        <time>2020-05-22T10:50:52.866Z</time>
      </trkpt>
      <trkpt lat="44.89722" lon="5.42691">
        <ele>844</ele>
        <time>2020-05-22T10:50:53.865Z</time>
      </trkpt>
      <trkpt lat="44.89724" lon="5.42692">
        <ele>844</ele>
        <time>2020-05-22T10:50:54.866Z</time>
      </trkpt>
      <trkpt lat="44.89725" lon="5.42693">
        <ele>845</ele>
        <time>2020-05-22T10:50:55.866Z</time>
      </trkpt>
      <trkpt lat="44.89727" lon="5.42694">
        <ele>845</ele>
        <time>2020-05-22T10:50:56.865Z</time>
      </trkpt>
      <trkpt lat="44.8973" lon="5.42694">
        <ele>845</ele>
        <time>2020-05-22T10:50:57.866Z</time>
      </trkpt>
      <trkpt lat="44.89732" lon="5.42695">
        <ele>845</ele>
        <time>2020-05-22T10:50:58.866Z</time>
      </trkpt>
      <trkpt lat="44.89734" lon="5.42696">
        <ele>845</ele>
        <time>2020-05-22T10:50:59.865Z</time>
      </trkpt>
      <trkpt lat="44.89737" lon="5.42697">
        <ele>845</ele>
        <time>2020-05-22T10:51:00.866Z</time>
      </trkpt>
      <trkpt lat="44.8974" lon="5.42698">
        <ele>846</ele>
        <time>2020-05-22T10:51:01.866Z</time>
      </trkpt>
      <trkpt lat="44.89742" lon="5.42699">
        <ele>847</ele>
        <time>2020-05-22T10:51:02.866Z</time>
      </trkpt>
      <trkpt lat="44.89745" lon="5.427">
        <ele>847</ele>
        <time>2020-05-22T10:51:03.866Z</time>
      </trkpt>
      <trkpt lat="44.89748" lon="5.42701">
        <ele>847</ele>
        <time>2020-05-22T10:51:04.866Z</time>
      </trkpt>
      <trkpt lat="44.8975" lon="5.42703">
        <ele>848</ele>
        <time>2020-05-22T10:51:05.865Z</time>
      </trkpt>
      <trkpt lat="44.89753" lon="5.42705">
        <ele>848</ele>
        <time>2020-05-22T10:51:06.866Z</time>
      </trkpt>
      <trkpt lat="44.89755" lon="5.42706">
        <ele>848</ele>
        <time>2020-05-22T10:51:07.866Z</time>
      </trkpt>
      <trkpt lat="44.89757" lon="5.42709">
        <ele>848</ele>
        <time>2020-05-22T10:51:08.866Z</time>
      </trkpt>
      <trkpt lat="44.8976" lon="5.42711">
        <ele>848</ele>
        <time>2020-05-22T10:51:09.866Z</time>
      </trkpt>
      <trkpt lat="44.89762" lon="5.42714">
        <ele>848</ele>
        <time>2020-05-22T10:51:10.866Z</time>
      </trkpt>
      <trkpt lat="44.89765" lon="5.42716">
        <ele>848</ele>
        <time>2020-05-22T10:51:11.865Z</time>
      </trkpt>
      <trkpt lat="44.89767" lon="5.42718">
        <ele>848</ele>
        <time>2020-05-22T10:51:12.865Z</time>
      </trkpt>
      <trkpt lat="44.8977" lon="5.4272">
        <ele>848</ele>
        <time>2020-05-22T10:51:13.866Z</time>
      </trkpt>
      <trkpt lat="44.89772" lon="5.42722">
        <ele>847</ele>
        <time>2020-05-22T10:51:14.866Z</time>
      </trkpt>
      <trkpt lat="44.89774" lon="5.42724">
        <ele>847</ele>
        <time>2020-05-22T10:51:15.866Z</time>
      </trkpt>
      <trkpt lat="44.89777" lon="5.42726">
        <ele>847</ele>
        <time>2020-05-22T10:51:16.865Z</time>
      </trkpt>
      <trkpt lat="44.89779" lon="5.42728">
        <ele>847</ele>
        <time>2020-05-22T10:51:17.865Z</time>
      </trkpt>
      <trkpt lat="44.89782" lon="5.42729">
        <ele>847</ele>
        <time>2020-05-22T10:51:18.865Z</time>
      </trkpt>
      <trkpt lat="44.89785" lon="5.42731">
        <ele>847</ele>
        <time>2020-05-22T10:51:19.865Z</time>
      </trkpt>
      <trkpt lat="44.89788" lon="5.42732">
        <ele>847</ele>
        <time>2020-05-22T10:51:20.865Z</time>
      </trkpt>
      <trkpt lat="44.89791" lon="5.42733">
        <ele>847</ele>
        <time>2020-05-22T10:51:21.866Z</time>
      </trkpt>
      <trkpt lat="44.89794" lon="5.42734">
        <ele>847</ele>
        <time>2020-05-22T10:51:22.866Z</time>
      </trkpt>
      <trkpt lat="44.89797" lon="5.42735">
        <ele>847</ele>
        <time>2020-05-22T10:51:23.865Z</time>
      </trkpt>
      <trkpt lat="44.898" lon="5.42736">
        <ele>847</ele>
        <time>2020-05-22T10:51:24.866Z</time>
      </trkpt>
      <trkpt lat="44.89804" lon="5.42736">
        <ele>847</ele>
        <time>2020-05-22T10:51:25.866Z</time>
      </trkpt>
      <trkpt lat="44.89808" lon="5.42736">
        <ele>847</ele>
        <time>2020-05-22T10:51:26.866Z</time>
      </trkpt>
      <trkpt lat="44.89812" lon="5.42736">
        <ele>847</ele>
        <time>2020-05-22T10:51:27.865Z</time>
      </trkpt>
      <trkpt lat="44.89817" lon="5.42734">
        <ele>847</ele>
        <time>2020-05-22T10:51:28.866Z</time>
      </trkpt>
      <trkpt lat="44.89821" lon="5.42732">
        <ele>847</ele>
        <time>2020-05-22T10:51:29.866Z</time>
      </trkpt>
      <trkpt lat="44.89826" lon="5.4273">
        <ele>847</ele>
        <time>2020-05-22T10:51:30.866Z</time>
      </trkpt>
      <trkpt lat="44.89832" lon="5.42728">
        <ele>847</ele>
        <time>2020-05-22T10:51:31.866Z</time>
      </trkpt>
      <trkpt lat="44.89839" lon="5.42726">
        <ele>847</ele>
        <time>2020-05-22T10:51:32.866Z</time>
      </trkpt>
      <trkpt lat="44.89845" lon="5.42725">
        <ele>847</ele>
        <time>2020-05-22T10:51:33.866Z</time>
      </trkpt>
      <trkpt lat="44.89852" lon="5.42724">
        <ele>847</ele>
        <time>2020-05-22T10:51:34.866Z</time>
      </trkpt>
      <trkpt lat="44.89859" lon="5.42724">
        <ele>847</ele>
        <time>2020-05-22T10:51:35.865Z</time>
      </trkpt>
      <trkpt lat="44.89866" lon="5.42725">
        <ele>847</ele>
        <time>2020-05-22T10:51:36.866Z</time>
      </trkpt>
      <trkpt lat="44.89871" lon="5.42727">
        <ele>847</ele>
        <time>2020-05-22T10:51:37.865Z</time>
      </trkpt>
      <trkpt lat="44.89879" lon="5.42729">
        <ele>847</ele>
        <time>2020-05-22T10:51:38.865Z</time>
      </trkpt>
      <trkpt lat="44.89886" lon="5.4273">
        <ele>847</ele>
        <time>2020-05-22T10:51:39.865Z</time>
      </trkpt>
      <trkpt lat="44.89893" lon="5.42731">
        <ele>847</ele>
        <time>2020-05-22T10:51:40.866Z</time>
      </trkpt>
      <trkpt lat="44.899" lon="5.42732">
        <ele>846</ele>
        <time>2020-05-22T10:51:41.866Z</time>
      </trkpt>
      <trkpt lat="44.89908" lon="5.42733">
        <ele>846</ele>
        <time>2020-05-22T10:51:42.866Z</time>
      </trkpt>
      <trkpt lat="44.89916" lon="5.42735">
        <ele>846</ele>
        <time>2020-05-22T10:51:43.865Z</time>
      </trkpt>
      <trkpt lat="44.89924" lon="5.42738">
        <ele>845</ele>
        <time>2020-05-22T10:51:44.865Z</time>
      </trkpt>
      <trkpt lat="44.89933" lon="5.42741">
        <ele>845</ele>
        <time>2020-05-22T10:51:45.866Z</time>
      </trkpt>
      <trkpt lat="44.89942" lon="5.42745">
        <ele>844</ele>
        <time>2020-05-22T10:51:46.866Z</time>
      </trkpt>
      <trkpt lat="44.89952" lon="5.42749">
        <ele>844</ele>
        <time>2020-05-22T10:51:47.865Z</time>
      </trkpt>
      <trkpt lat="44.89962" lon="5.42753">
        <ele>844</ele>
        <time>2020-05-22T10:51:48.866Z</time>
      </trkpt>
      <trkpt lat="44.89972" lon="5.42755">
        <ele>844</ele>
        <time>2020-05-22T10:51:49.866Z</time>
      </trkpt>
      <trkpt lat="44.89982" lon="5.42757">
        <ele>843</ele>
        <time>2020-05-22T10:51:50.866Z</time>
      </trkpt>
      <trkpt lat="44.89991" lon="5.42759">
        <ele>843</ele>
        <time>2020-05-22T10:51:51.866Z</time>
      </trkpt>
      <trkpt lat="44.9" lon="5.42761">
        <ele>842</ele>
        <time>2020-05-22T10:51:52.866Z</time>
      </trkpt>
      <trkpt lat="44.9001" lon="5.42762">
        <ele>842</ele>
        <time>2020-05-22T10:51:53.866Z</time>
      </trkpt>
      <trkpt lat="44.90019" lon="5.42763">
        <ele>841</ele>
        <time>2020-05-22T10:51:54.866Z</time>
      </trkpt>
      <trkpt lat="44.90028" lon="5.42763">
        <ele>841</ele>
        <time>2020-05-22T10:51:55.865Z</time>
      </trkpt>
      <trkpt lat="44.90038" lon="5.42763">
        <ele>840</ele>
        <time>2020-05-22T10:51:56.865Z</time>
      </trkpt>
      <trkpt lat="44.90048" lon="5.42763">
        <ele>839</ele>
        <time>2020-05-22T10:51:57.866Z</time>
      </trkpt>
      <trkpt lat="44.90057" lon="5.42762">
        <ele>839</ele>
        <time>2020-05-22T10:51:58.865Z</time>
      </trkpt>
      <trkpt lat="44.90067" lon="5.42761">
        <ele>839</ele>
        <time>2020-05-22T10:51:59.866Z</time>
      </trkpt>
      <trkpt lat="44.90076" lon="5.4276">
        <ele>838</ele>
        <time>2020-05-22T10:52:00.866Z</time>
      </trkpt>
      <trkpt lat="44.90085" lon="5.4276">
        <ele>838</ele>
        <time>2020-05-22T10:52:01.866Z</time>
      </trkpt>
      <trkpt lat="44.90094" lon="5.42761">
        <ele>837</ele>
        <time>2020-05-22T10:52:02.866Z</time>
      </trkpt>
      <trkpt lat="44.901" lon="5.42762">
        <ele>837</ele>
        <time>2020-05-22T10:52:03.865Z</time>
      </trkpt>
      <trkpt lat="44.90111" lon="5.42764">
        <ele>836</ele>
        <time>2020-05-22T10:52:04.866Z</time>
      </trkpt>
      <trkpt lat="44.90119" lon="5.42766">
        <ele>836</ele>
        <time>2020-05-22T10:52:05.866Z</time>
      </trkpt>
      <trkpt lat="44.90128" lon="5.42767">
        <ele>836</ele>
        <time>2020-05-22T10:52:06.866Z</time>
      </trkpt>
      <trkpt lat="44.90136" lon="5.42769">
        <ele>836</ele>
        <time>2020-05-22T10:52:07.866Z</time>
      </trkpt>
      <trkpt lat="44.90145" lon="5.42769">
        <ele>835</ele>
        <time>2020-05-22T10:52:08.866Z</time>
      </trkpt>
      <trkpt lat="44.90154" lon="5.42768">
        <ele>835</ele>
        <time>2020-05-22T10:52:09.865Z</time>
      </trkpt>
      <trkpt lat="44.90162" lon="5.42764">
        <ele>834</ele>
        <time>2020-05-22T10:52:10.866Z</time>
      </trkpt>
      <trkpt lat="44.90171" lon="5.4276">
        <ele>834</ele>
        <time>2020-05-22T10:52:11.866Z</time>
      </trkpt>
      <trkpt lat="44.90181" lon="5.42756">
        <ele>833</ele>
        <time>2020-05-22T10:52:12.866Z</time>
      </trkpt>
      <trkpt lat="44.90191" lon="5.42752">
        <ele>833</ele>
        <time>2020-05-22T10:52:13.866Z</time>
      </trkpt>
      <trkpt lat="44.90202" lon="5.42748">
        <ele>833</ele>
        <time>2020-05-22T10:52:14.866Z</time>
      </trkpt>
      <trkpt lat="44.90212" lon="5.42746">
        <ele>833</ele>
        <time>2020-05-22T10:52:15.866Z</time>
      </trkpt>
      <trkpt lat="44.90223" lon="5.42744">
        <ele>833</ele>
        <time>2020-05-22T10:52:16.866Z</time>
      </trkpt>
      <trkpt lat="44.90234" lon="5.42743">
        <ele>833</ele>
        <time>2020-05-22T10:52:17.866Z</time>
      </trkpt>
      <trkpt lat="44.90244" lon="5.42742">
        <ele>833</ele>
        <time>2020-05-22T10:52:18.866Z</time>
      </trkpt>
      <trkpt lat="44.90254" lon="5.42741">
        <ele>832</ele>
        <time>2020-05-22T10:52:19.866Z</time>
      </trkpt>
      <trkpt lat="44.90263" lon="5.4274">
        <ele>832</ele>
        <time>2020-05-22T10:52:20.865Z</time>
      </trkpt>
      <trkpt lat="44.90273" lon="5.42739">
        <ele>832</ele>
        <time>2020-05-22T10:52:21.866Z</time>
      </trkpt>
      <trkpt lat="44.90282" lon="5.4274">
        <ele>832</ele>
        <time>2020-05-22T10:52:22.866Z</time>
      </trkpt>
      <trkpt lat="44.90291" lon="5.42741">
        <ele>832</ele>
        <time>2020-05-22T10:52:23.866Z</time>
      </trkpt>
      <trkpt lat="44.903" lon="5.42744">
        <ele>832</ele>
        <time>2020-05-22T10:52:24.866Z</time>
      </trkpt>
      <trkpt lat="44.90308" lon="5.42746">
        <ele>832</ele>
        <time>2020-05-22T10:52:25.865Z</time>
      </trkpt>
      <trkpt lat="44.90315" lon="5.42749">
        <ele>832</ele>
        <time>2020-05-22T10:52:26.866Z</time>
      </trkpt>
      <trkpt lat="44.90322" lon="5.42751">
        <ele>832</ele>
        <time>2020-05-22T10:52:27.865Z</time>
      </trkpt>
      <trkpt lat="44.90328" lon="5.42754">
        <ele>833</ele>
        <time>2020-05-22T10:52:28.865Z</time>
      </trkpt>
      <trkpt lat="44.90334" lon="5.42757">
        <ele>833</ele>
        <time>2020-05-22T10:52:29.865Z</time>
      </trkpt>
      <trkpt lat="44.90339" lon="5.4276">
        <ele>834</ele>
        <time>2020-05-22T10:52:30.865Z</time>
      </trkpt>
      <trkpt lat="44.90344" lon="5.42763">
        <ele>834</ele>
        <time>2020-05-22T10:52:31.866Z</time>
      </trkpt>
      <trkpt lat="44.90348" lon="5.42767">
        <ele>834</ele>
        <time>2020-05-22T10:52:32.866Z</time>
      </trkpt>
      <trkpt lat="44.90353" lon="5.42771">
        <ele>835</ele>
        <time>2020-05-22T10:52:33.866Z</time>
      </trkpt>
      <trkpt lat="44.90357" lon="5.42774">
        <ele>835</ele>
        <time>2020-05-22T10:52:34.866Z</time>
      </trkpt>
      <trkpt lat="44.90362" lon="5.42777">
        <ele>836</ele>
        <time>2020-05-22T10:52:35.865Z</time>
      </trkpt>
      <trkpt lat="44.90366" lon="5.4278">
        <ele>836</ele>
        <time>2020-05-22T10:52:36.866Z</time>
      </trkpt>
      <trkpt lat="44.90371" lon="5.42782">
        <ele>837</ele>
        <time>2020-05-22T10:52:37.865Z</time>
      </trkpt>
      <trkpt lat="44.90376" lon="5.42785">
        <ele>837</ele>
        <time>2020-05-22T10:52:38.866Z</time>
      </trkpt>
      <trkpt lat="44.90381" lon="5.42787">
        <ele>838</ele>
        <time>2020-05-22T10:52:39.866Z</time>
      </trkpt>
      <trkpt lat="44.90386" lon="5.42789">
        <ele>838</ele>
        <time>2020-05-22T10:52:40.865Z</time>
      </trkpt>
      <trkpt lat="44.9039" lon="5.42791">
        <ele>839</ele>
        <time>2020-05-22T10:52:41.865Z</time>
      </trkpt>
      <trkpt lat="44.90394" lon="5.42792">
        <ele>839</ele>
        <time>2020-05-22T10:52:42.866Z</time>
      </trkpt>
      <trkpt lat="44.90396" lon="5.42792">
        <ele>839</ele>
        <time>2020-05-22T10:52:43.865Z</time>
      </trkpt>
      <trkpt lat="44.90398" lon="5.42792">
        <ele>840</ele>
        <time>2020-05-22T10:52:44.866Z</time>
      </trkpt>
      <trkpt lat="44.904" lon="5.42793">
        <ele>840</ele>
        <time>2020-05-22T10:52:45.866Z</time>
      </trkpt>
      <trkpt lat="44.90401" lon="5.42794">
        <ele>841</ele>
        <time>2020-05-22T10:52:46.866Z</time>
      </trkpt>
      <trkpt lat="44.90401" lon="5.42796">
        <ele>841</ele>
        <time>2020-05-22T10:52:47.866Z</time>
      </trkpt>
      <trkpt lat="44.90401" lon="5.42798">
        <ele>842</ele>
        <time>2020-05-22T10:52:48.866Z</time>
      </trkpt>
      <trkpt lat="44.904" lon="5.42801">
        <ele>843</ele>
        <time>2020-05-22T10:52:49.866Z</time>
      </trkpt>
      <trkpt lat="44.90398" lon="5.42803">
        <ele>843</ele>
        <time>2020-05-22T10:52:50.866Z</time>
      </trkpt>
      <trkpt lat="44.90397" lon="5.42805">
        <ele>844</ele>
        <time>2020-05-22T10:52:51.866Z</time>
      </trkpt>
      <trkpt lat="44.90396" lon="5.42808">
        <ele>844</ele>
        <time>2020-05-22T10:52:52.866Z</time>
      </trkpt>
      <trkpt lat="44.90395" lon="5.42811">
        <ele>845</ele>
        <time>2020-05-22T10:52:53.866Z</time>
      </trkpt>
      <trkpt lat="44.90394" lon="5.42813">
        <ele>846</ele>
        <time>2020-05-22T10:52:54.866Z</time>
      </trkpt>
      <trkpt lat="44.90392" lon="5.42815">
        <ele>847</ele>
        <time>2020-05-22T10:52:55.866Z</time>
      </trkpt>
      <trkpt lat="44.90391" lon="5.42817">
        <ele>847</ele>
        <time>2020-05-22T10:52:56.866Z</time>
      </trkpt>
      <trkpt lat="44.9039" lon="5.42819">
        <ele>848</ele>
        <time>2020-05-22T10:52:57.866Z</time>
      </trkpt>
      <trkpt lat="44.90389" lon="5.42821">
        <ele>849</ele>
        <time>2020-05-22T10:52:58.865Z</time>
      </trkpt>
      <trkpt lat="44.90388" lon="5.42823">
        <ele>849</ele>
        <time>2020-05-22T10:52:59.866Z</time>
      </trkpt>
      <trkpt lat="44.90388" lon="5.42825">
        <ele>849</ele>
        <time>2020-05-22T10:53:00.866Z</time>
      </trkpt>
      <trkpt lat="44.90387" lon="5.42828">
        <ele>850</ele>
        <time>2020-05-22T10:53:01.866Z</time>
      </trkpt>
      <trkpt lat="44.90386" lon="5.4283">
        <ele>850</ele>
        <time>2020-05-22T10:53:02.866Z</time>
      </trkpt>
      <trkpt lat="44.90386" lon="5.42833">
        <ele>849</ele>
        <time>2020-05-22T10:53:03.865Z</time>
      </trkpt>
      <trkpt lat="44.90385" lon="5.42835">
        <ele>849</ele>
        <time>2020-05-22T10:53:04.866Z</time>
      </trkpt>
      <trkpt lat="44.90385" lon="5.42837">
        <ele>848</ele>
        <time>2020-05-22T10:53:05.866Z</time>
      </trkpt>
      <trkpt lat="44.90384" lon="5.4284">
        <ele>848</ele>
        <time>2020-05-22T10:53:06.865Z</time>
      </trkpt>
      <trkpt lat="44.90384" lon="5.42842">
        <ele>847</ele>
        <time>2020-05-22T10:53:07.865Z</time>
      </trkpt>
      <trkpt lat="44.90383" lon="5.42844">
        <ele>847</ele>
        <time>2020-05-22T10:53:08.866Z</time>
      </trkpt>
      <trkpt lat="44.90382" lon="5.42845">
        <ele>846</ele>
        <time>2020-05-22T10:53:09.866Z</time>
      </trkpt>
      <trkpt lat="44.90381" lon="5.42847">
        <ele>846</ele>
        <time>2020-05-22T10:53:10.866Z</time>
      </trkpt>
      <trkpt lat="44.90381" lon="5.42848">
        <ele>846</ele>
        <time>2020-05-22T10:53:11.866Z</time>
      </trkpt>
      <trkpt lat="44.9038" lon="5.42849">
        <ele>846</ele>
        <time>2020-05-22T10:53:12.866Z</time>
      </trkpt>
      <trkpt lat="44.9038" lon="5.42851">
        <ele>846</ele>
        <time>2020-05-22T10:53:13.866Z</time>
      </trkpt>
      <trkpt lat="44.9038" lon="5.42852">
        <ele>846</ele>
        <time>2020-05-22T10:53:14.865Z</time>
      </trkpt>
      <trkpt lat="44.9038" lon="5.42853">
        <ele>846</ele>
        <time>2020-05-22T10:53:15.866Z</time>
      </trkpt>
      <trkpt lat="44.90379" lon="5.42854">
        <ele>847</ele>
        <time>2020-05-22T10:53:16.866Z</time>
      </trkpt>
      <trkpt lat="44.90379" lon="5.42854">
        <ele>847</ele>
        <time>2020-05-22T10:53:17.866Z</time>
      </trkpt>
      <trkpt lat="44.90379" lon="5.42854">
        <ele>848</ele>
        <time>2020-05-22T10:53:18.866Z</time>
      </trkpt>
      <trkpt lat="44.9038" lon="5.42853">
        <ele>849</ele>
        <time>2020-05-22T10:53:19.865Z</time>
      </trkpt>
      <trkpt lat="44.90379" lon="5.42853">
        <ele>849</ele>
        <time>2020-05-22T10:53:20.866Z</time>
      </trkpt>
      <trkpt lat="44.90379" lon="5.42853">
        <ele>848</ele>
        <time>2020-05-22T10:53:21.865Z</time>
      </trkpt>
      <trkpt lat="44.90379" lon="5.42853">
        <ele>848</ele>
        <time>2020-05-22T10:53:22.865Z</time>
      </trkpt>
      <trkpt lat="44.90379" lon="5.42853">
        <ele>848</ele>
        <time>2020-05-22T10:53:23.865Z</time>
      </trkpt>
    </trkseg>
  </trk>
</gpx>